<?xml version="1.0" encoding="UTF-8" standalone="no" ?>
<gpx xmlns="http://www.topografix.com/GPX/1/1" xmlns:xsi="http://www.w3.org/2001/XMLSchema-instance" xsi:schemaLocation="http://www.topografix.com/GPX/1/1 http://www.topografix.com/GPX/1/1/gpx.xsd" version="1.1" creator="VisuGPX - https://www.visugpx.com">
  <metadata>
    <name>tour de l\'espignolle et des rocchaudes</name>
    <desc><![CDATA[autour de villars sur var]]></desc>
  </metadata>
  <trk>
    <name><![CDATA[tour de l\'espignolle et des rocchaudes_1]]></name>
    <trkseg>
      <trkpt lat="43.93656" lon="7.09719">
        <ele>465.399993</ele>
        <time>2012-11-24T07:12:32Z</time>
      </trkpt>
      <trkpt lat="43.93663" lon="7.09724">
        <ele>468.625</ele>
        <time>2012-11-24T07:12:33Z</time>
      </trkpt>
      <trkpt lat="43.9367" lon="7.09712">
        <ele>444.6</ele>
        <time>2012-11-24T07:13:32Z</time>
      </trkpt>
      <trkpt lat="43.93674" lon="7.09705">
        <ele>441.9</ele>
        <time>2012-11-24T07:13:35Z</time>
      </trkpt>
      <trkpt lat="43.93676" lon="7.09702">
        <ele>440.8</ele>
        <time>2012-11-24T07:13:36Z</time>
      </trkpt>
      <trkpt lat="43.93683" lon="7.09689">
        <ele>434</ele>
        <time>2012-11-24T07:13:41Z</time>
      </trkpt>
      <trkpt lat="43.93688" lon="7.09678">
        <ele>428.9</ele>
        <time>2012-11-24T07:13:44Z</time>
      </trkpt>
      <trkpt lat="43.93692" lon="7.09671">
        <ele>425.1</ele>
        <time>2012-11-24T07:13:46Z</time>
      </trkpt>
      <trkpt lat="43.93696" lon="7.09664">
        <ele>421.4</ele>
        <time>2012-11-24T07:13:48Z</time>
      </trkpt>
      <trkpt lat="43.937" lon="7.09657">
        <ele>418.2</ele>
        <time>2012-11-24T07:13:50Z</time>
      </trkpt>
      <trkpt lat="43.93705" lon="7.09649">
        <ele>415.9</ele>
        <time>2012-11-24T07:13:52Z</time>
      </trkpt>
      <trkpt lat="43.93709" lon="7.09641">
        <ele>414</ele>
        <time>2012-11-24T07:13:54Z</time>
      </trkpt>
      <trkpt lat="43.93714" lon="7.09634">
        <ele>412.3</ele>
        <time>2012-11-24T07:13:56Z</time>
      </trkpt>
      <trkpt lat="43.93718" lon="7.09626">
        <ele>411.2</ele>
        <time>2012-11-24T07:13:58Z</time>
      </trkpt>
      <trkpt lat="43.93723" lon="7.09619">
        <ele>410.9</ele>
        <time>2012-11-24T07:14:00Z</time>
      </trkpt>
      <trkpt lat="43.93727" lon="7.09611">
        <ele>411.1</ele>
        <time>2012-11-24T07:14:02Z</time>
      </trkpt>
      <trkpt lat="43.93731" lon="7.09602">
        <ele>411.7</ele>
        <time>2012-11-24T07:14:04Z</time>
      </trkpt>
      <trkpt lat="43.93734" lon="7.09594">
        <ele>412.3</ele>
        <time>2012-11-24T07:14:06Z</time>
      </trkpt>
      <trkpt lat="43.93737" lon="7.09585">
        <ele>413.3</ele>
        <time>2012-11-24T07:14:08Z</time>
      </trkpt>
      <trkpt lat="43.9374" lon="7.09576">
        <ele>414.6</ele>
        <time>2012-11-24T07:14:10Z</time>
      </trkpt>
      <trkpt lat="43.93742" lon="7.09568">
        <ele>416</ele>
        <time>2012-11-24T07:14:12Z</time>
      </trkpt>
      <trkpt lat="43.93745" lon="7.09559">
        <ele>417.5</ele>
        <time>2012-11-24T07:14:14Z</time>
      </trkpt>
      <trkpt lat="43.93748" lon="7.0955">
        <ele>418.5</ele>
        <time>2012-11-24T07:14:16Z</time>
      </trkpt>
      <trkpt lat="43.93751" lon="7.09539">
        <ele>419.1</ele>
        <time>2012-11-24T07:14:19Z</time>
      </trkpt>
      <trkpt lat="43.93754" lon="7.09528">
        <ele>419.5</ele>
        <time>2012-11-24T07:14:22Z</time>
      </trkpt>
      <trkpt lat="43.93756" lon="7.09519">
        <ele>420.3</ele>
        <time>2012-11-24T07:14:25Z</time>
      </trkpt>
      <trkpt lat="43.93759" lon="7.09508">
        <ele>421.7</ele>
        <time>2012-11-24T07:14:29Z</time>
      </trkpt>
      <trkpt lat="43.93762" lon="7.09498">
        <ele>422.9</ele>
        <time>2012-11-24T07:14:33Z</time>
      </trkpt>
      <trkpt lat="43.93769" lon="7.09491">
        <ele>429.3</ele>
        <time>2012-11-24T07:15:55Z</time>
      </trkpt>
      <trkpt lat="43.93769" lon="7.09491">
        <ele>429.5</ele>
        <time>2012-11-24T07:15:56Z</time>
      </trkpt>
      <trkpt lat="43.93767" lon="7.09504">
        <ele>424.7</ele>
        <time>2012-11-24T07:19:17Z</time>
      </trkpt>
      <trkpt lat="43.93761" lon="7.09524">
        <ele>417</ele>
        <time>2012-11-24T07:19:25Z</time>
      </trkpt>
      <trkpt lat="43.93759" lon="7.09534">
        <ele>415.7</ele>
        <time>2012-11-24T07:19:27Z</time>
      </trkpt>
      <trkpt lat="43.93757" lon="7.09543">
        <ele>414.7</ele>
        <time>2012-11-24T07:19:29Z</time>
      </trkpt>
      <trkpt lat="43.93754" lon="7.09551">
        <ele>413.8</ele>
        <time>2012-11-24T07:19:31Z</time>
      </trkpt>
      <trkpt lat="43.93752" lon="7.0956">
        <ele>413.3</ele>
        <time>2012-11-24T07:19:33Z</time>
      </trkpt>
      <trkpt lat="43.9375" lon="7.0957">
        <ele>412.9</ele>
        <time>2012-11-24T07:19:35Z</time>
      </trkpt>
      <trkpt lat="43.93747" lon="7.09581">
        <ele>412.6</ele>
        <time>2012-11-24T07:19:38Z</time>
      </trkpt>
      <trkpt lat="43.93744" lon="7.09589">
        <ele>412.1</ele>
        <time>2012-11-24T07:19:40Z</time>
      </trkpt>
      <trkpt lat="43.93739" lon="7.09599">
        <ele>410.2</ele>
        <time>2012-11-24T07:19:43Z</time>
      </trkpt>
      <trkpt lat="43.93734" lon="7.09609">
        <ele>407.3</ele>
        <time>2012-11-24T07:19:46Z</time>
      </trkpt>
      <trkpt lat="43.9373" lon="7.09616">
        <ele>405.6</ele>
        <time>2012-11-24T07:19:48Z</time>
      </trkpt>
      <trkpt lat="43.93726" lon="7.09623">
        <ele>403.8</ele>
        <time>2012-11-24T07:19:50Z</time>
      </trkpt>
      <trkpt lat="43.93722" lon="7.0963">
        <ele>402.3</ele>
        <time>2012-11-24T07:19:52Z</time>
      </trkpt>
      <trkpt lat="43.93718" lon="7.09636">
        <ele>400.7</ele>
        <time>2012-11-24T07:19:54Z</time>
      </trkpt>
      <trkpt lat="43.93713" lon="7.09644">
        <ele>399.2</ele>
        <time>2012-11-24T07:19:56Z</time>
      </trkpt>
      <trkpt lat="43.93708" lon="7.09652">
        <ele>398.3</ele>
        <time>2012-11-24T07:19:58Z</time>
      </trkpt>
      <trkpt lat="43.93705" lon="7.09661">
        <ele>397.5</ele>
        <time>2012-11-24T07:20:00Z</time>
      </trkpt>
      <trkpt lat="43.93702" lon="7.09672">
        <ele>396.9</ele>
        <time>2012-11-24T07:20:02Z</time>
      </trkpt>
      <trkpt lat="43.93698" lon="7.09682">
        <ele>396.6</ele>
        <time>2012-11-24T07:20:04Z</time>
      </trkpt>
      <trkpt lat="43.93694" lon="7.09691">
        <ele>396.5</ele>
        <time>2012-11-24T07:20:06Z</time>
      </trkpt>
      <trkpt lat="43.9369" lon="7.09698">
        <ele>396.5</ele>
        <time>2012-11-24T07:20:08Z</time>
      </trkpt>
      <trkpt lat="43.93686" lon="7.09705">
        <ele>396.6</ele>
        <time>2012-11-24T07:20:10Z</time>
      </trkpt>
      <trkpt lat="43.93681" lon="7.09712">
        <ele>403</ele>
        <time>2012-11-24T07:20:12Z</time>
      </trkpt>
      <trkpt lat="43.93677" lon="7.0972">
        <ele>411.3</ele>
        <time>2012-11-24T07:20:14Z</time>
      </trkpt>
      <trkpt lat="43.93672" lon="7.09728">
        <ele>419</ele>
        <time>2012-11-24T07:20:18Z</time>
      </trkpt>
      <trkpt lat="43.93671" lon="7.0973">
        <ele>420.1</ele>
        <time>2012-11-24T07:20:19Z</time>
      </trkpt>
      <trkpt lat="43.9366" lon="7.09732">
        <ele>422</ele>
        <time>2012-11-24T07:20:32Z</time>
      </trkpt>
      <trkpt lat="43.93654" lon="7.09724">
        <ele>422.7</ele>
        <time>2012-11-24T07:20:36Z</time>
      </trkpt>
      <trkpt lat="43.93647" lon="7.09731">
        <ele>422</ele>
        <time>2012-11-24T07:22:49Z</time>
      </trkpt>
      <trkpt lat="43.93646" lon="7.09731">
        <ele>421.8</ele>
        <time>2012-11-24T07:22:50Z</time>
      </trkpt>
      <trkpt lat="43.93635" lon="7.0974">
        <ele>421.8</ele>
        <time>2012-11-24T07:23:05Z</time>
      </trkpt>
      <trkpt lat="43.9364" lon="7.09736">
        <ele>421.7</ele>
        <time>2012-11-24T07:23:15Z</time>
      </trkpt>
      <trkpt lat="43.93647" lon="7.0973">
        <ele>421.4</ele>
        <time>2012-11-24T07:23:17Z</time>
      </trkpt>
      <trkpt lat="43.93654" lon="7.09724">
        <ele>421.2</ele>
        <time>2012-11-24T07:23:21Z</time>
      </trkpt>
      <trkpt lat="43.93661" lon="7.09718">
        <ele>421.7</ele>
        <time>2012-11-24T07:23:26Z</time>
      </trkpt>
      <trkpt lat="43.93663" lon="7.09729">
        <ele>421.9</ele>
        <time>2012-11-24T07:23:43Z</time>
      </trkpt>
      <trkpt lat="43.93659" lon="7.0974">
        <ele>421.6</ele>
        <time>2012-11-24T07:24:00Z</time>
      </trkpt>
      <trkpt lat="43.93658" lon="7.0974">
        <ele>421.8</ele>
        <time>2012-11-24T07:24:01Z</time>
      </trkpt>
      <trkpt lat="43.93651" lon="7.09729">
        <ele>421.7</ele>
        <time>2012-11-24T07:25:32Z</time>
      </trkpt>
      <trkpt lat="43.93651" lon="7.09729">
        <ele>421.5</ele>
        <time>2012-11-24T07:25:33Z</time>
      </trkpt>
      <trkpt lat="43.9365" lon="7.09706">
        <ele>421.5</ele>
        <time>2012-11-24T07:26:06Z</time>
      </trkpt>
      <trkpt lat="43.93642" lon="7.09699">
        <ele>421.5</ele>
        <time>2012-11-24T07:26:18Z</time>
      </trkpt>
      <trkpt lat="43.93644" lon="7.09711">
        <ele>420.7</ele>
        <time>2012-11-24T07:27:43Z</time>
      </trkpt>
      <trkpt lat="43.93644" lon="7.09711">
        <ele>420.6</ele>
        <time>2012-11-24T07:27:44Z</time>
      </trkpt>
      <trkpt lat="43.93653" lon="7.09731">
        <ele>421.2</ele>
        <time>2012-11-24T07:28:26Z</time>
      </trkpt>
      <trkpt lat="43.93659" lon="7.09737">
        <ele>421.7</ele>
        <time>2012-11-24T07:28:36Z</time>
      </trkpt>
      <trkpt lat="43.93654" lon="7.09729">
        <ele>421.3</ele>
        <time>2012-11-24T07:28:49Z</time>
      </trkpt>
      <trkpt lat="43.93653" lon="7.09728">
        <ele>421.3</ele>
        <time>2012-11-24T07:28:50Z</time>
      </trkpt>
      <trkpt lat="43.93648" lon="7.09733">
        <ele>421.7</ele>
        <time>2012-11-24T07:31:11Z</time>
      </trkpt>
      <trkpt lat="43.93648" lon="7.09734">
        <ele>421.7</ele>
        <time>2012-11-24T07:31:12Z</time>
      </trkpt>
      <trkpt lat="43.93657" lon="7.09729">
        <ele>421.1</ele>
        <time>2012-11-24T07:36:04Z</time>
      </trkpt>
      <trkpt lat="43.93664" lon="7.09718">
        <ele>421.3</ele>
        <time>2012-11-24T07:40:58Z</time>
      </trkpt>
      <trkpt lat="43.93678" lon="7.09711">
        <ele>422.1</ele>
        <time>2012-11-24T07:41:12Z</time>
      </trkpt>
      <trkpt lat="43.93683" lon="7.09704">
        <ele>422.5</ele>
        <time>2012-11-24T07:41:17Z</time>
      </trkpt>
      <trkpt lat="43.93689" lon="7.09697">
        <ele>422.4</ele>
        <time>2012-11-24T07:41:21Z</time>
      </trkpt>
      <trkpt lat="43.93694" lon="7.09689">
        <ele>423.2</ele>
        <time>2012-11-24T07:41:25Z</time>
      </trkpt>
      <trkpt lat="43.93698" lon="7.0968">
        <ele>422.9</ele>
        <time>2012-11-24T07:41:29Z</time>
      </trkpt>
      <trkpt lat="43.93703" lon="7.09673">
        <ele>423.2</ele>
        <time>2012-11-24T07:41:32Z</time>
      </trkpt>
      <trkpt lat="43.93707" lon="7.09665">
        <ele>423.6</ele>
        <time>2012-11-24T07:41:35Z</time>
      </trkpt>
      <trkpt lat="43.93713" lon="7.09657">
        <ele>423.3</ele>
        <time>2012-11-24T07:41:38Z</time>
      </trkpt>
      <trkpt lat="43.93718" lon="7.09649">
        <ele>423.3</ele>
        <time>2012-11-24T07:41:41Z</time>
      </trkpt>
      <trkpt lat="43.93723" lon="7.0964">
        <ele>423.5</ele>
        <time>2012-11-24T07:41:44Z</time>
      </trkpt>
      <trkpt lat="43.93728" lon="7.09632">
        <ele>423.9</ele>
        <time>2012-11-24T07:41:47Z</time>
      </trkpt>
      <trkpt lat="43.93733" lon="7.09623">
        <ele>424.2</ele>
        <time>2012-11-24T07:41:50Z</time>
      </trkpt>
      <trkpt lat="43.93738" lon="7.09614">
        <ele>424.4</ele>
        <time>2012-11-24T07:41:53Z</time>
      </trkpt>
      <trkpt lat="43.93742" lon="7.09604">
        <ele>424.8</ele>
        <time>2012-11-24T07:41:56Z</time>
      </trkpt>
      <trkpt lat="43.93746" lon="7.09593">
        <ele>425.2</ele>
        <time>2012-11-24T07:41:59Z</time>
      </trkpt>
      <trkpt lat="43.93747" lon="7.0959">
        <ele>425.1</ele>
        <time>2012-11-24T07:42:00Z</time>
      </trkpt>
      <trkpt lat="43.93751" lon="7.09574">
        <ele>424.7</ele>
        <time>2012-11-24T07:42:04Z</time>
      </trkpt>
      <trkpt lat="43.93752" lon="7.09565">
        <ele>425.2</ele>
        <time>2012-11-24T07:42:06Z</time>
      </trkpt>
      <trkpt lat="43.93754" lon="7.09556">
        <ele>425</ele>
        <time>2012-11-24T07:42:08Z</time>
      </trkpt>
      <trkpt lat="43.93757" lon="7.09545">
        <ele>424.9</ele>
        <time>2012-11-24T07:42:11Z</time>
      </trkpt>
      <trkpt lat="43.93759" lon="7.09536">
        <ele>424.7</ele>
        <time>2012-11-24T07:42:13Z</time>
      </trkpt>
      <trkpt lat="43.9376" lon="7.09528">
        <ele>425.1</ele>
        <time>2012-11-24T07:42:15Z</time>
      </trkpt>
      <trkpt lat="43.93762" lon="7.0952">
        <ele>425.4</ele>
        <time>2012-11-24T07:42:17Z</time>
      </trkpt>
      <trkpt lat="43.93764" lon="7.09508">
        <ele>426.1</ele>
        <time>2012-11-24T07:42:20Z</time>
      </trkpt>
      <trkpt lat="43.93767" lon="7.09497">
        <ele>426.7</ele>
        <time>2012-11-24T07:42:23Z</time>
      </trkpt>
      <trkpt lat="43.9377" lon="7.09488">
        <ele>427.3</ele>
        <time>2012-11-24T07:42:26Z</time>
      </trkpt>
      <trkpt lat="43.93775" lon="7.09481">
        <ele>428.2</ele>
        <time>2012-11-24T07:42:29Z</time>
      </trkpt>
      <trkpt lat="43.9378" lon="7.09473">
        <ele>428.7</ele>
        <time>2012-11-24T07:42:32Z</time>
      </trkpt>
      <trkpt lat="43.93786" lon="7.09466">
        <ele>429.5</ele>
        <time>2012-11-24T07:42:35Z</time>
      </trkpt>
      <trkpt lat="43.9379" lon="7.09458">
        <ele>430.3</ele>
        <time>2012-11-24T07:42:38Z</time>
      </trkpt>
      <trkpt lat="43.93796" lon="7.0945">
        <ele>431.2</ele>
        <time>2012-11-24T07:42:41Z</time>
      </trkpt>
      <trkpt lat="43.938" lon="7.09442">
        <ele>431.5</ele>
        <time>2012-11-24T07:42:44Z</time>
      </trkpt>
      <trkpt lat="43.93804" lon="7.09434">
        <ele>432.5</ele>
        <time>2012-11-24T07:42:47Z</time>
      </trkpt>
      <trkpt lat="43.93808" lon="7.09426">
        <ele>433.3</ele>
        <time>2012-11-24T07:42:50Z</time>
      </trkpt>
      <trkpt lat="43.93811" lon="7.09417">
        <ele>434</ele>
        <time>2012-11-24T07:42:53Z</time>
      </trkpt>
      <trkpt lat="43.93815" lon="7.09408">
        <ele>434.3</ele>
        <time>2012-11-24T07:42:56Z</time>
      </trkpt>
      <trkpt lat="43.93819" lon="7.09398">
        <ele>434.8</ele>
        <time>2012-11-24T07:43:00Z</time>
      </trkpt>
      <trkpt lat="43.9382" lon="7.09395">
        <ele>435</ele>
        <time>2012-11-24T07:43:01Z</time>
      </trkpt>
      <trkpt lat="43.93828" lon="7.0938">
        <ele>435.9</ele>
        <time>2012-11-24T07:43:08Z</time>
      </trkpt>
      <trkpt lat="43.93833" lon="7.0937">
        <ele>437.3</ele>
        <time>2012-11-24T07:43:12Z</time>
      </trkpt>
      <trkpt lat="43.93838" lon="7.09361">
        <ele>437.9</ele>
        <time>2012-11-24T07:43:16Z</time>
      </trkpt>
      <trkpt lat="43.93842" lon="7.09352">
        <ele>438.1</ele>
        <time>2012-11-24T07:43:19Z</time>
      </trkpt>
      <trkpt lat="43.93846" lon="7.09344">
        <ele>438.6</ele>
        <time>2012-11-24T07:43:22Z</time>
      </trkpt>
      <trkpt lat="43.9385" lon="7.09336">
        <ele>439.2</ele>
        <time>2012-11-24T07:43:25Z</time>
      </trkpt>
      <trkpt lat="43.93854" lon="7.09327">
        <ele>439.9</ele>
        <time>2012-11-24T07:43:28Z</time>
      </trkpt>
      <trkpt lat="43.93858" lon="7.0932">
        <ele>440.9</ele>
        <time>2012-11-24T07:43:31Z</time>
      </trkpt>
      <trkpt lat="43.93863" lon="7.09312">
        <ele>441.1</ele>
        <time>2012-11-24T07:43:34Z</time>
      </trkpt>
      <trkpt lat="43.93867" lon="7.09304">
        <ele>441.7</ele>
        <time>2012-11-24T07:43:37Z</time>
      </trkpt>
      <trkpt lat="43.93872" lon="7.09295">
        <ele>442.6</ele>
        <time>2012-11-24T07:43:40Z</time>
      </trkpt>
      <trkpt lat="43.93877" lon="7.09287">
        <ele>444.1</ele>
        <time>2012-11-24T07:43:43Z</time>
      </trkpt>
      <trkpt lat="43.93881" lon="7.09279">
        <ele>444.1</ele>
        <time>2012-11-24T07:43:46Z</time>
      </trkpt>
      <trkpt lat="43.93886" lon="7.09272">
        <ele>445.5</ele>
        <time>2012-11-24T07:43:49Z</time>
      </trkpt>
      <trkpt lat="43.93891" lon="7.09264">
        <ele>446.4</ele>
        <time>2012-11-24T07:43:52Z</time>
      </trkpt>
      <trkpt lat="43.93895" lon="7.09255">
        <ele>446.6</ele>
        <time>2012-11-24T07:43:55Z</time>
      </trkpt>
      <trkpt lat="43.939" lon="7.09248">
        <ele>447.2</ele>
        <time>2012-11-24T07:43:58Z</time>
      </trkpt>
      <trkpt lat="43.93905" lon="7.0924">
        <ele>447.4</ele>
        <time>2012-11-24T07:44:01Z</time>
      </trkpt>
      <trkpt lat="43.93906" lon="7.09237">
        <ele>447.3</ele>
        <time>2012-11-24T07:44:02Z</time>
      </trkpt>
      <trkpt lat="43.93914" lon="7.09224">
        <ele>448.2</ele>
        <time>2012-11-24T07:44:07Z</time>
      </trkpt>
      <trkpt lat="43.93919" lon="7.09217">
        <ele>449.4</ele>
        <time>2012-11-24T07:44:10Z</time>
      </trkpt>
      <trkpt lat="43.93924" lon="7.09209">
        <ele>449.9</ele>
        <time>2012-11-24T07:44:13Z</time>
      </trkpt>
      <trkpt lat="43.93929" lon="7.09202">
        <ele>450.9</ele>
        <time>2012-11-24T07:44:16Z</time>
      </trkpt>
      <trkpt lat="43.93933" lon="7.09195">
        <ele>451.6</ele>
        <time>2012-11-24T07:44:19Z</time>
      </trkpt>
      <trkpt lat="43.93938" lon="7.09187">
        <ele>452.4</ele>
        <time>2012-11-24T07:44:22Z</time>
      </trkpt>
      <trkpt lat="43.93943" lon="7.0918">
        <ele>452.6</ele>
        <time>2012-11-24T07:44:25Z</time>
      </trkpt>
      <trkpt lat="43.9395" lon="7.09174">
        <ele>453.3</ele>
        <time>2012-11-24T07:44:29Z</time>
      </trkpt>
      <trkpt lat="43.93958" lon="7.09175">
        <ele>453.9</ele>
        <time>2012-11-24T07:44:33Z</time>
      </trkpt>
      <trkpt lat="43.93966" lon="7.09177">
        <ele>454.1</ele>
        <time>2012-11-24T07:44:37Z</time>
      </trkpt>
      <trkpt lat="43.93975" lon="7.09176">
        <ele>455.5</ele>
        <time>2012-11-24T07:44:42Z</time>
      </trkpt>
      <trkpt lat="43.93982" lon="7.09176">
        <ele>456</ele>
        <time>2012-11-24T07:44:46Z</time>
      </trkpt>
      <trkpt lat="43.93975" lon="7.0918">
        <ele>460.2</ele>
        <time>2012-11-24T07:45:00Z</time>
      </trkpt>
      <trkpt lat="43.93968" lon="7.09181">
        <ele>461.4</ele>
        <time>2012-11-24T07:45:04Z</time>
      </trkpt>
      <trkpt lat="43.93966" lon="7.09182">
        <ele>461.8</ele>
        <time>2012-11-24T07:45:05Z</time>
      </trkpt>
      <trkpt lat="43.93955" lon="7.09196">
        <ele>464.5</ele>
        <time>2012-11-24T07:45:15Z</time>
      </trkpt>
      <trkpt lat="43.93952" lon="7.09207">
        <ele>466.1</ele>
        <time>2012-11-24T07:45:20Z</time>
      </trkpt>
      <trkpt lat="43.93949" lon="7.09217">
        <ele>467.2</ele>
        <time>2012-11-24T07:45:25Z</time>
      </trkpt>
      <trkpt lat="43.93947" lon="7.09227">
        <ele>468.6</ele>
        <time>2012-11-24T07:45:30Z</time>
      </trkpt>
      <trkpt lat="43.93943" lon="7.09236">
        <ele>469.9</ele>
        <time>2012-11-24T07:45:34Z</time>
      </trkpt>
      <trkpt lat="43.93951" lon="7.09239">
        <ele>473</ele>
        <time>2012-11-24T07:45:44Z</time>
      </trkpt>
      <trkpt lat="43.93959" lon="7.09233">
        <ele>475</ele>
        <time>2012-11-24T07:45:51Z</time>
      </trkpt>
      <trkpt lat="43.93966" lon="7.09228">
        <ele>476.8</ele>
        <time>2012-11-24T07:45:57Z</time>
      </trkpt>
      <trkpt lat="43.93968" lon="7.09239">
        <ele>480.3</ele>
        <time>2012-11-24T07:46:10Z</time>
      </trkpt>
      <trkpt lat="43.93967" lon="7.09241">
        <ele>480.5</ele>
        <time>2012-11-24T07:46:11Z</time>
      </trkpt>
      <trkpt lat="43.9396" lon="7.09258">
        <ele>483.2</ele>
        <time>2012-11-24T07:46:20Z</time>
      </trkpt>
      <trkpt lat="43.93957" lon="7.09268">
        <ele>485.1</ele>
        <time>2012-11-24T07:46:25Z</time>
      </trkpt>
      <trkpt lat="43.93953" lon="7.09278">
        <ele>485.9</ele>
        <time>2012-11-24T07:46:30Z</time>
      </trkpt>
      <trkpt lat="43.9395" lon="7.09289">
        <ele>486.9</ele>
        <time>2012-11-24T07:46:35Z</time>
      </trkpt>
      <trkpt lat="43.93947" lon="7.09299">
        <ele>488.3</ele>
        <time>2012-11-24T07:46:40Z</time>
      </trkpt>
      <trkpt lat="43.93944" lon="7.0931">
        <ele>489.8</ele>
        <time>2012-11-24T07:46:45Z</time>
      </trkpt>
      <trkpt lat="43.93941" lon="7.09321">
        <ele>490.5</ele>
        <time>2012-11-24T07:46:50Z</time>
      </trkpt>
      <trkpt lat="43.93938" lon="7.09333">
        <ele>490.5</ele>
        <time>2012-11-24T07:46:55Z</time>
      </trkpt>
      <trkpt lat="43.93935" lon="7.09343">
        <ele>492.1</ele>
        <time>2012-11-24T07:46:59Z</time>
      </trkpt>
      <trkpt lat="43.93932" lon="7.09353">
        <ele>493.2</ele>
        <time>2012-11-24T07:47:03Z</time>
      </trkpt>
      <trkpt lat="43.93929" lon="7.09363">
        <ele>493.9</ele>
        <time>2012-11-24T07:47:07Z</time>
      </trkpt>
      <trkpt lat="43.93927" lon="7.09373">
        <ele>493.7</ele>
        <time>2012-11-24T07:47:12Z</time>
      </trkpt>
      <trkpt lat="43.93926" lon="7.09375">
        <ele>493.6</ele>
        <time>2012-11-24T07:47:13Z</time>
      </trkpt>
      <trkpt lat="43.93919" lon="7.09395">
        <ele>493.7</ele>
        <time>2012-11-24T07:47:34Z</time>
      </trkpt>
      <trkpt lat="43.93915" lon="7.09405">
        <ele>493.5</ele>
        <time>2012-11-24T07:47:36Z</time>
      </trkpt>
      <trkpt lat="43.93911" lon="7.09416">
        <ele>493.5</ele>
        <time>2012-11-24T07:47:39Z</time>
      </trkpt>
      <trkpt lat="43.93914" lon="7.09405">
        <ele>493.7</ele>
        <time>2012-11-24T07:47:50Z</time>
      </trkpt>
      <trkpt lat="43.93917" lon="7.09396">
        <ele>493.9</ele>
        <time>2012-11-24T07:47:54Z</time>
      </trkpt>
      <trkpt lat="43.9392" lon="7.09388">
        <ele>493.6</ele>
        <time>2012-11-24T07:47:57Z</time>
      </trkpt>
      <trkpt lat="43.93927" lon="7.09381">
        <ele>493.6</ele>
        <time>2012-11-24T07:48:00Z</time>
      </trkpt>
      <trkpt lat="43.93932" lon="7.09373">
        <ele>494.2</ele>
        <time>2012-11-24T07:48:03Z</time>
      </trkpt>
      <trkpt lat="43.93937" lon="7.09364">
        <ele>495.9</ele>
        <time>2012-11-24T07:48:07Z</time>
      </trkpt>
      <trkpt lat="43.93942" lon="7.09357">
        <ele>497.8</ele>
        <time>2012-11-24T07:48:11Z</time>
      </trkpt>
      <trkpt lat="43.93948" lon="7.09348">
        <ele>501</ele>
        <time>2012-11-24T07:48:16Z</time>
      </trkpt>
      <trkpt lat="43.93948" lon="7.09347">
        <ele>501.3</ele>
        <time>2012-11-24T07:48:17Z</time>
      </trkpt>
      <trkpt lat="43.93939" lon="7.09367">
        <ele>500.1</ele>
        <time>2012-11-24T07:48:37Z</time>
      </trkpt>
      <trkpt lat="43.93934" lon="7.09376">
        <ele>498.9</ele>
        <time>2012-11-24T07:48:39Z</time>
      </trkpt>
      <trkpt lat="43.93929" lon="7.09385">
        <ele>497.4</ele>
        <time>2012-11-24T07:48:41Z</time>
      </trkpt>
      <trkpt lat="43.93926" lon="7.09393">
        <ele>496.1</ele>
        <time>2012-11-24T07:48:43Z</time>
      </trkpt>
      <trkpt lat="43.93922" lon="7.09402">
        <ele>495.2</ele>
        <time>2012-11-24T07:48:45Z</time>
      </trkpt>
      <trkpt lat="43.93919" lon="7.09411">
        <ele>494.4</ele>
        <time>2012-11-24T07:48:47Z</time>
      </trkpt>
      <trkpt lat="43.93914" lon="7.09419">
        <ele>494</ele>
        <time>2012-11-24T07:48:49Z</time>
      </trkpt>
      <trkpt lat="43.93911" lon="7.09429">
        <ele>493.3</ele>
        <time>2012-11-24T07:48:52Z</time>
      </trkpt>
      <trkpt lat="43.93907" lon="7.09438">
        <ele>493.1</ele>
        <time>2012-11-24T07:48:55Z</time>
      </trkpt>
      <trkpt lat="43.93904" lon="7.09446">
        <ele>492.5</ele>
        <time>2012-11-24T07:48:57Z</time>
      </trkpt>
      <trkpt lat="43.93901" lon="7.09451">
        <ele>492</ele>
        <time>2012-11-24T07:48:58Z</time>
      </trkpt>
      <trkpt lat="43.93898" lon="7.09455">
        <ele>491.7</ele>
        <time>2012-11-24T07:48:59Z</time>
      </trkpt>
      <trkpt lat="43.93894" lon="7.09462">
        <ele>491.1</ele>
        <time>2012-11-24T07:49:00Z</time>
      </trkpt>
      <trkpt lat="43.93891" lon="7.09468">
        <ele>490.7</ele>
        <time>2012-11-24T07:49:01Z</time>
      </trkpt>
      <trkpt lat="43.93889" lon="7.09475">
        <ele>489.8</ele>
        <time>2012-11-24T07:49:02Z</time>
      </trkpt>
      <trkpt lat="43.93887" lon="7.09481">
        <ele>489.1</ele>
        <time>2012-11-24T07:49:03Z</time>
      </trkpt>
      <trkpt lat="43.93885" lon="7.09487">
        <ele>488.6</ele>
        <time>2012-11-24T07:49:04Z</time>
      </trkpt>
      <trkpt lat="43.93883" lon="7.09498">
        <ele>487.4</ele>
        <time>2012-11-24T07:49:06Z</time>
      </trkpt>
      <trkpt lat="43.93881" lon="7.09509">
        <ele>486.8</ele>
        <time>2012-11-24T07:49:08Z</time>
      </trkpt>
      <trkpt lat="43.93883" lon="7.0952">
        <ele>486.1</ele>
        <time>2012-11-24T07:49:10Z</time>
      </trkpt>
      <trkpt lat="43.93884" lon="7.09529">
        <ele>485.9</ele>
        <time>2012-11-24T07:49:12Z</time>
      </trkpt>
      <trkpt lat="43.93886" lon="7.09541">
        <ele>486.5</ele>
        <time>2012-11-24T07:49:16Z</time>
      </trkpt>
      <trkpt lat="43.9389" lon="7.0953">
        <ele>488.3</ele>
        <time>2012-11-24T07:49:33Z</time>
      </trkpt>
      <trkpt lat="43.9389" lon="7.09529">
        <ele>488.3</ele>
        <time>2012-11-24T07:49:34Z</time>
      </trkpt>
      <trkpt lat="43.93895" lon="7.09508">
        <ele>492.7</ele>
        <time>2012-11-24T07:49:49Z</time>
      </trkpt>
      <trkpt lat="43.93899" lon="7.09498">
        <ele>494.7</ele>
        <time>2012-11-24T07:49:55Z</time>
      </trkpt>
      <trkpt lat="43.93902" lon="7.09487">
        <ele>497.1</ele>
        <time>2012-11-24T07:50:07Z</time>
      </trkpt>
      <trkpt lat="43.93908" lon="7.09495">
        <ele>494.6</ele>
        <time>2012-11-24T07:51:40Z</time>
      </trkpt>
      <trkpt lat="43.93909" lon="7.09496">
        <ele>495.1</ele>
        <time>2012-11-24T07:51:41Z</time>
      </trkpt>
      <trkpt lat="43.93906" lon="7.09518">
        <ele>497.6</ele>
        <time>2012-11-24T07:52:00Z</time>
      </trkpt>
      <trkpt lat="43.93905" lon="7.0953">
        <ele>498.4</ele>
        <time>2012-11-24T07:52:13Z</time>
      </trkpt>
      <trkpt lat="43.93911" lon="7.09521">
        <ele>499.4</ele>
        <time>2012-11-24T07:59:09Z</time>
      </trkpt>
      <trkpt lat="43.93912" lon="7.0952">
        <ele>499.5</ele>
        <time>2012-11-24T07:59:10Z</time>
      </trkpt>
      <trkpt lat="43.93915" lon="7.09498">
        <ele>503.4</ele>
        <time>2012-11-24T07:59:32Z</time>
      </trkpt>
      <trkpt lat="43.93917" lon="7.09488">
        <ele>504.4</ele>
        <time>2012-11-24T07:59:38Z</time>
      </trkpt>
      <trkpt lat="43.9392" lon="7.09478">
        <ele>505.7</ele>
        <time>2012-11-24T07:59:43Z</time>
      </trkpt>
      <trkpt lat="43.93926" lon="7.09467">
        <ele>506.7</ele>
        <time>2012-11-24T07:59:50Z</time>
      </trkpt>
      <trkpt lat="43.93929" lon="7.09456">
        <ele>507.9</ele>
        <time>2012-11-24T08:00:07Z</time>
      </trkpt>
      <trkpt lat="43.93932" lon="7.09446">
        <ele>508.3</ele>
        <time>2012-11-24T08:00:14Z</time>
      </trkpt>
      <trkpt lat="43.93933" lon="7.09444">
        <ele>508.7</ele>
        <time>2012-11-24T08:00:15Z</time>
      </trkpt>
      <trkpt lat="43.93939" lon="7.09429">
        <ele>509.6</ele>
        <time>2012-11-24T08:00:22Z</time>
      </trkpt>
      <trkpt lat="43.93943" lon="7.0942">
        <ele>509.7</ele>
        <time>2012-11-24T08:00:25Z</time>
      </trkpt>
      <trkpt lat="43.93947" lon="7.0941">
        <ele>509.6</ele>
        <time>2012-11-24T08:00:28Z</time>
      </trkpt>
      <trkpt lat="43.93952" lon="7.094">
        <ele>510.5</ele>
        <time>2012-11-24T08:00:31Z</time>
      </trkpt>
      <trkpt lat="43.93955" lon="7.0939">
        <ele>510.9</ele>
        <time>2012-11-24T08:00:34Z</time>
      </trkpt>
      <trkpt lat="43.93958" lon="7.09382">
        <ele>511.1</ele>
        <time>2012-11-24T08:00:36Z</time>
      </trkpt>
      <trkpt lat="43.93963" lon="7.09372">
        <ele>511.5</ele>
        <time>2012-11-24T08:00:39Z</time>
      </trkpt>
      <trkpt lat="43.93967" lon="7.09363">
        <ele>511.6</ele>
        <time>2012-11-24T08:00:42Z</time>
      </trkpt>
      <trkpt lat="43.93972" lon="7.09353">
        <ele>511.2</ele>
        <time>2012-11-24T08:00:45Z</time>
      </trkpt>
      <trkpt lat="43.93977" lon="7.09343">
        <ele>511.3</ele>
        <time>2012-11-24T08:00:48Z</time>
      </trkpt>
      <trkpt lat="43.93981" lon="7.09335">
        <ele>511.5</ele>
        <time>2012-11-24T08:00:51Z</time>
      </trkpt>
      <trkpt lat="43.93985" lon="7.09326">
        <ele>512.9</ele>
        <time>2012-11-24T08:00:54Z</time>
      </trkpt>
      <trkpt lat="43.9399" lon="7.09317">
        <ele>513.6</ele>
        <time>2012-11-24T08:00:57Z</time>
      </trkpt>
      <trkpt lat="43.93995" lon="7.09307">
        <ele>514.2</ele>
        <time>2012-11-24T08:01:00Z</time>
      </trkpt>
      <trkpt lat="43.94" lon="7.09297">
        <ele>514.4</ele>
        <time>2012-11-24T08:01:03Z</time>
      </trkpt>
      <trkpt lat="43.94005" lon="7.09287">
        <ele>514.9</ele>
        <time>2012-11-24T08:01:06Z</time>
      </trkpt>
      <trkpt lat="43.94009" lon="7.0928">
        <ele>514.6</ele>
        <time>2012-11-24T08:01:08Z</time>
      </trkpt>
      <trkpt lat="43.94014" lon="7.09271">
        <ele>514.1</ele>
        <time>2012-11-24T08:01:11Z</time>
      </trkpt>
      <trkpt lat="43.9402" lon="7.09262">
        <ele>514.8</ele>
        <time>2012-11-24T08:01:14Z</time>
      </trkpt>
      <trkpt lat="43.94026" lon="7.09254">
        <ele>515.3</ele>
        <time>2012-11-24T08:01:17Z</time>
      </trkpt>
      <trkpt lat="43.94028" lon="7.09251">
        <ele>515.7</ele>
        <time>2012-11-24T08:01:18Z</time>
      </trkpt>
      <trkpt lat="43.94037" lon="7.09239">
        <ele>516.8</ele>
        <time>2012-11-24T08:01:23Z</time>
      </trkpt>
      <trkpt lat="43.94042" lon="7.09231">
        <ele>517.2</ele>
        <time>2012-11-24T08:01:26Z</time>
      </trkpt>
      <trkpt lat="43.94047" lon="7.09223">
        <ele>517.6</ele>
        <time>2012-11-24T08:01:29Z</time>
      </trkpt>
      <trkpt lat="43.94052" lon="7.09215">
        <ele>518.3</ele>
        <time>2012-11-24T08:01:32Z</time>
      </trkpt>
      <trkpt lat="43.94057" lon="7.09209">
        <ele>519.1</ele>
        <time>2012-11-24T08:01:35Z</time>
      </trkpt>
      <trkpt lat="43.94065" lon="7.09203">
        <ele>519</ele>
        <time>2012-11-24T08:01:39Z</time>
      </trkpt>
      <trkpt lat="43.94073" lon="7.092">
        <ele>519.8</ele>
        <time>2012-11-24T08:01:44Z</time>
      </trkpt>
      <trkpt lat="43.94081" lon="7.09195">
        <ele>520.9</ele>
        <time>2012-11-24T08:01:49Z</time>
      </trkpt>
      <trkpt lat="43.94088" lon="7.09189">
        <ele>522.3</ele>
        <time>2012-11-24T08:01:54Z</time>
      </trkpt>
      <trkpt lat="43.94093" lon="7.09179">
        <ele>523.4</ele>
        <time>2012-11-24T08:02:00Z</time>
      </trkpt>
      <trkpt lat="43.94098" lon="7.09169">
        <ele>525.2</ele>
        <time>2012-11-24T08:02:06Z</time>
      </trkpt>
      <trkpt lat="43.94104" lon="7.09161">
        <ele>526.6</ele>
        <time>2012-11-24T08:02:12Z</time>
      </trkpt>
      <trkpt lat="43.94111" lon="7.09155">
        <ele>526.9</ele>
        <time>2012-11-24T08:02:18Z</time>
      </trkpt>
      <trkpt lat="43.94112" lon="7.09155">
        <ele>527</ele>
        <time>2012-11-24T08:02:19Z</time>
      </trkpt>
      <trkpt lat="43.94127" lon="7.09148">
        <ele>530.8</ele>
        <time>2012-11-24T08:02:29Z</time>
      </trkpt>
      <trkpt lat="43.94135" lon="7.09144">
        <ele>531.4</ele>
        <time>2012-11-24T08:02:35Z</time>
      </trkpt>
      <trkpt lat="43.94142" lon="7.09137">
        <ele>532.9</ele>
        <time>2012-11-24T08:02:41Z</time>
      </trkpt>
      <trkpt lat="43.94145" lon="7.09126">
        <ele>534.8</ele>
        <time>2012-11-24T08:02:47Z</time>
      </trkpt>
      <trkpt lat="43.94145" lon="7.09115">
        <ele>537</ele>
        <time>2012-11-24T08:02:52Z</time>
      </trkpt>
      <trkpt lat="43.94146" lon="7.09103">
        <ele>538.6</ele>
        <time>2012-11-24T08:02:58Z</time>
      </trkpt>
      <trkpt lat="43.94149" lon="7.09091">
        <ele>539.9</ele>
        <time>2012-11-24T08:03:05Z</time>
      </trkpt>
      <trkpt lat="43.94152" lon="7.0908">
        <ele>541.4</ele>
        <time>2012-11-24T08:03:11Z</time>
      </trkpt>
      <trkpt lat="43.94155" lon="7.0907">
        <ele>542.7</ele>
        <time>2012-11-24T08:03:17Z</time>
      </trkpt>
      <trkpt lat="43.9416" lon="7.09061">
        <ele>544.4</ele>
        <time>2012-11-24T08:03:23Z</time>
      </trkpt>
      <trkpt lat="43.94161" lon="7.0906">
        <ele>544.6</ele>
        <time>2012-11-24T08:03:24Z</time>
      </trkpt>
      <trkpt lat="43.94169" lon="7.09042">
        <ele>546.5</ele>
        <time>2012-11-24T08:03:35Z</time>
      </trkpt>
      <trkpt lat="43.94174" lon="7.09033">
        <ele>547.3</ele>
        <time>2012-11-24T08:03:41Z</time>
      </trkpt>
      <trkpt lat="43.94179" lon="7.09024">
        <ele>548.8</ele>
        <time>2012-11-24T08:03:47Z</time>
      </trkpt>
      <trkpt lat="43.94185" lon="7.09015">
        <ele>551.4</ele>
        <time>2012-11-24T08:03:53Z</time>
      </trkpt>
      <trkpt lat="43.94191" lon="7.09007">
        <ele>551.9</ele>
        <time>2012-11-24T08:04:00Z</time>
      </trkpt>
      <trkpt lat="43.94195" lon="7.08996">
        <ele>553.7</ele>
        <time>2012-11-24T08:04:07Z</time>
      </trkpt>
      <trkpt lat="43.94197" lon="7.08986">
        <ele>555.7</ele>
        <time>2012-11-24T08:04:13Z</time>
      </trkpt>
      <trkpt lat="43.94201" lon="7.08976">
        <ele>556.7</ele>
        <time>2012-11-24T08:04:19Z</time>
      </trkpt>
      <trkpt lat="43.94204" lon="7.08965">
        <ele>558.5</ele>
        <time>2012-11-24T08:04:25Z</time>
      </trkpt>
      <trkpt lat="43.94205" lon="7.08963">
        <ele>558.6</ele>
        <time>2012-11-24T08:04:26Z</time>
      </trkpt>
      <trkpt lat="43.94215" lon="7.08949">
        <ele>561.6</ele>
        <time>2012-11-24T08:04:36Z</time>
      </trkpt>
      <trkpt lat="43.9422" lon="7.08941">
        <ele>561.8</ele>
        <time>2012-11-24T08:04:42Z</time>
      </trkpt>
      <trkpt lat="43.94225" lon="7.08932">
        <ele>563.3</ele>
        <time>2012-11-24T08:04:48Z</time>
      </trkpt>
      <trkpt lat="43.9423" lon="7.08922">
        <ele>565.8</ele>
        <time>2012-11-24T08:04:55Z</time>
      </trkpt>
      <trkpt lat="43.94236" lon="7.08914">
        <ele>566.5</ele>
        <time>2012-11-24T08:05:01Z</time>
      </trkpt>
      <trkpt lat="43.94241" lon="7.08906">
        <ele>567.9</ele>
        <time>2012-11-24T08:05:07Z</time>
      </trkpt>
      <trkpt lat="43.94248" lon="7.089">
        <ele>569.3</ele>
        <time>2012-11-24T08:05:13Z</time>
      </trkpt>
      <trkpt lat="43.94254" lon="7.08893">
        <ele>570.3</ele>
        <time>2012-11-24T08:05:19Z</time>
      </trkpt>
      <trkpt lat="43.9426" lon="7.08886">
        <ele>571.7</ele>
        <time>2012-11-24T08:05:25Z</time>
      </trkpt>
      <trkpt lat="43.94267" lon="7.08879">
        <ele>574</ele>
        <time>2012-11-24T08:05:31Z</time>
      </trkpt>
      <trkpt lat="43.94268" lon="7.08878">
        <ele>574.2</ele>
        <time>2012-11-24T08:05:32Z</time>
      </trkpt>
      <trkpt lat="43.94278" lon="7.08863">
        <ele>575.5</ele>
        <time>2012-11-24T08:05:43Z</time>
      </trkpt>
      <trkpt lat="43.94284" lon="7.08856">
        <ele>577.5</ele>
        <time>2012-11-24T08:05:50Z</time>
      </trkpt>
      <trkpt lat="43.9429" lon="7.08847">
        <ele>579.4</ele>
        <time>2012-11-24T08:05:57Z</time>
      </trkpt>
      <trkpt lat="43.94296" lon="7.08838">
        <ele>581.7</ele>
        <time>2012-11-24T08:06:05Z</time>
      </trkpt>
      <trkpt lat="43.94301" lon="7.0883">
        <ele>582.3</ele>
        <time>2012-11-24T08:06:12Z</time>
      </trkpt>
      <trkpt lat="43.94306" lon="7.08821">
        <ele>583.6</ele>
        <time>2012-11-24T08:06:18Z</time>
      </trkpt>
      <trkpt lat="43.94312" lon="7.08813">
        <ele>585.1</ele>
        <time>2012-11-24T08:06:24Z</time>
      </trkpt>
      <trkpt lat="43.94317" lon="7.08804">
        <ele>586.7</ele>
        <time>2012-11-24T08:06:30Z</time>
      </trkpt>
      <trkpt lat="43.94323" lon="7.08797">
        <ele>587</ele>
        <time>2012-11-24T08:06:36Z</time>
      </trkpt>
      <trkpt lat="43.94324" lon="7.08796">
        <ele>587.1</ele>
        <time>2012-11-24T08:06:37Z</time>
      </trkpt>
      <trkpt lat="43.94336" lon="7.08782">
        <ele>590.1</ele>
        <time>2012-11-24T08:06:48Z</time>
      </trkpt>
      <trkpt lat="43.94343" lon="7.08776">
        <ele>592.3</ele>
        <time>2012-11-24T08:06:54Z</time>
      </trkpt>
      <trkpt lat="43.94351" lon="7.0877">
        <ele>593.8</ele>
        <time>2012-11-24T08:07:00Z</time>
      </trkpt>
      <trkpt lat="43.94358" lon="7.08764">
        <ele>596.3</ele>
        <time>2012-11-24T08:07:06Z</time>
      </trkpt>
      <trkpt lat="43.94366" lon="7.08759">
        <ele>597</ele>
        <time>2012-11-24T08:07:12Z</time>
      </trkpt>
      <trkpt lat="43.94372" lon="7.08754">
        <ele>597.5</ele>
        <time>2012-11-24T08:07:18Z</time>
      </trkpt>
      <trkpt lat="43.94379" lon="7.08746">
        <ele>598.6</ele>
        <time>2012-11-24T08:07:24Z</time>
      </trkpt>
      <trkpt lat="43.94384" lon="7.08738">
        <ele>600.5</ele>
        <time>2012-11-24T08:07:30Z</time>
      </trkpt>
      <trkpt lat="43.94388" lon="7.08728">
        <ele>601.9</ele>
        <time>2012-11-24T08:07:36Z</time>
      </trkpt>
      <trkpt lat="43.94389" lon="7.08717">
        <ele>603.8</ele>
        <time>2012-11-24T08:07:42Z</time>
      </trkpt>
      <trkpt lat="43.94389" lon="7.08716">
        <ele>604.1</ele>
        <time>2012-11-24T08:07:43Z</time>
      </trkpt>
      <trkpt lat="43.9439" lon="7.08695">
        <ele>606.7</ele>
        <time>2012-11-24T08:07:54Z</time>
      </trkpt>
      <trkpt lat="43.94389" lon="7.08684">
        <ele>607.6</ele>
        <time>2012-11-24T08:08:00Z</time>
      </trkpt>
      <trkpt lat="43.94388" lon="7.08673">
        <ele>609.1</ele>
        <time>2012-11-24T08:08:06Z</time>
      </trkpt>
      <trkpt lat="43.94387" lon="7.08661">
        <ele>610</ele>
        <time>2012-11-24T08:08:36Z</time>
      </trkpt>
      <trkpt lat="43.94391" lon="7.08651">
        <ele>612.5</ele>
        <time>2012-11-24T08:11:41Z</time>
      </trkpt>
      <trkpt lat="43.94392" lon="7.0865">
        <ele>612.3</ele>
        <time>2012-11-24T08:11:42Z</time>
      </trkpt>
      <trkpt lat="43.94401" lon="7.08633">
        <ele>613.4</ele>
        <time>2012-11-24T08:11:53Z</time>
      </trkpt>
      <trkpt lat="43.94406" lon="7.08624">
        <ele>615.2</ele>
        <time>2012-11-24T08:11:59Z</time>
      </trkpt>
      <trkpt lat="43.9441" lon="7.08614">
        <ele>617.2</ele>
        <time>2012-11-24T08:12:05Z</time>
      </trkpt>
      <trkpt lat="43.94411" lon="7.08603">
        <ele>618.4</ele>
        <time>2012-11-24T08:12:11Z</time>
      </trkpt>
      <trkpt lat="43.94416" lon="7.08594">
        <ele>619.8</ele>
        <time>2012-11-24T08:12:18Z</time>
      </trkpt>
      <trkpt lat="43.9442" lon="7.08583">
        <ele>622.2</ele>
        <time>2012-11-24T08:12:25Z</time>
      </trkpt>
      <trkpt lat="43.94425" lon="7.08573">
        <ele>623.1</ele>
        <time>2012-11-24T08:12:31Z</time>
      </trkpt>
      <trkpt lat="43.94429" lon="7.08563">
        <ele>624.6</ele>
        <time>2012-11-24T08:12:37Z</time>
      </trkpt>
      <trkpt lat="43.94433" lon="7.08553">
        <ele>626.2</ele>
        <time>2012-11-24T08:12:44Z</time>
      </trkpt>
      <trkpt lat="43.94433" lon="7.08551">
        <ele>626.4</ele>
        <time>2012-11-24T08:12:45Z</time>
      </trkpt>
      <trkpt lat="43.94436" lon="7.08554">
        <ele>630.8</ele>
        <time>2012-11-24T08:13:07Z</time>
      </trkpt>
      <trkpt lat="43.94434" lon="7.08566">
        <ele>630.3</ele>
        <time>2012-11-24T08:13:12Z</time>
      </trkpt>
      <trkpt lat="43.94432" lon="7.08576">
        <ele>630.4</ele>
        <time>2012-11-24T08:13:16Z</time>
      </trkpt>
      <trkpt lat="43.94432" lon="7.08586">
        <ele>630.7</ele>
        <time>2012-11-24T08:13:20Z</time>
      </trkpt>
      <trkpt lat="43.9443" lon="7.08597">
        <ele>631.4</ele>
        <time>2012-11-24T08:13:24Z</time>
      </trkpt>
      <trkpt lat="43.94428" lon="7.08607">
        <ele>631.5</ele>
        <time>2012-11-24T08:13:28Z</time>
      </trkpt>
      <trkpt lat="43.94426" lon="7.08617">
        <ele>632</ele>
        <time>2012-11-24T08:13:32Z</time>
      </trkpt>
      <trkpt lat="43.94425" lon="7.08628">
        <ele>632.3</ele>
        <time>2012-11-24T08:13:36Z</time>
      </trkpt>
      <trkpt lat="43.94425" lon="7.0864">
        <ele>633</ele>
        <time>2012-11-24T08:13:40Z</time>
      </trkpt>
      <trkpt lat="43.94425" lon="7.08651">
        <ele>633.5</ele>
        <time>2012-11-24T08:13:44Z</time>
      </trkpt>
      <trkpt lat="43.94424" lon="7.08662">
        <ele>633.9</ele>
        <time>2012-11-24T08:13:48Z</time>
      </trkpt>
      <trkpt lat="43.94424" lon="7.08665">
        <ele>633.9</ele>
        <time>2012-11-24T08:13:49Z</time>
      </trkpt>
      <trkpt lat="43.94426" lon="7.08684">
        <ele>634.4</ele>
        <time>2012-11-24T08:13:56Z</time>
      </trkpt>
      <trkpt lat="43.94429" lon="7.08695">
        <ele>635.4</ele>
        <time>2012-11-24T08:14:00Z</time>
      </trkpt>
      <trkpt lat="43.94432" lon="7.08706">
        <ele>635.7</ele>
        <time>2012-11-24T08:14:04Z</time>
      </trkpt>
      <trkpt lat="43.94435" lon="7.08717">
        <ele>636.6</ele>
        <time>2012-11-24T08:14:08Z</time>
      </trkpt>
      <trkpt lat="43.94436" lon="7.08727">
        <ele>636.7</ele>
        <time>2012-11-24T08:14:12Z</time>
      </trkpt>
      <trkpt lat="43.94436" lon="7.08739">
        <ele>637.2</ele>
        <time>2012-11-24T08:14:17Z</time>
      </trkpt>
      <trkpt lat="43.94442" lon="7.0873">
        <ele>641.4</ele>
        <time>2012-11-24T08:14:35Z</time>
      </trkpt>
      <trkpt lat="43.94442" lon="7.08718">
        <ele>643</ele>
        <time>2012-11-24T08:14:42Z</time>
      </trkpt>
      <trkpt lat="43.94442" lon="7.08706">
        <ele>644.6</ele>
        <time>2012-11-24T08:14:48Z</time>
      </trkpt>
      <trkpt lat="43.94441" lon="7.08694">
        <ele>645.4</ele>
        <time>2012-11-24T08:14:54Z</time>
      </trkpt>
      <trkpt lat="43.94441" lon="7.08693">
        <ele>645.5</ele>
        <time>2012-11-24T08:14:55Z</time>
      </trkpt>
      <trkpt lat="43.94443" lon="7.08672">
        <ele>648.6</ele>
        <time>2012-11-24T08:15:06Z</time>
      </trkpt>
      <trkpt lat="43.94445" lon="7.08661">
        <ele>650.2</ele>
        <time>2012-11-24T08:15:12Z</time>
      </trkpt>
      <trkpt lat="43.94448" lon="7.0865">
        <ele>651.1</ele>
        <time>2012-11-24T08:15:18Z</time>
      </trkpt>
      <trkpt lat="43.94451" lon="7.08639">
        <ele>652.6</ele>
        <time>2012-11-24T08:15:24Z</time>
      </trkpt>
      <trkpt lat="43.94454" lon="7.08629">
        <ele>654.3</ele>
        <time>2012-11-24T08:15:30Z</time>
      </trkpt>
      <trkpt lat="43.94457" lon="7.08619">
        <ele>655.6</ele>
        <time>2012-11-24T08:15:36Z</time>
      </trkpt>
      <trkpt lat="43.94461" lon="7.08608">
        <ele>656.8</ele>
        <time>2012-11-24T08:15:43Z</time>
      </trkpt>
      <trkpt lat="43.94464" lon="7.08598">
        <ele>658.5</ele>
        <time>2012-11-24T08:15:49Z</time>
      </trkpt>
      <trkpt lat="43.94468" lon="7.08588">
        <ele>659.7</ele>
        <time>2012-11-24T08:15:55Z</time>
      </trkpt>
      <trkpt lat="43.94468" lon="7.08587">
        <ele>659.8</ele>
        <time>2012-11-24T08:15:56Z</time>
      </trkpt>
      <trkpt lat="43.94474" lon="7.08566">
        <ele>662.3</ele>
        <time>2012-11-24T08:16:08Z</time>
      </trkpt>
      <trkpt lat="43.94477" lon="7.08555">
        <ele>664</ele>
        <time>2012-11-24T08:16:15Z</time>
      </trkpt>
      <trkpt lat="43.9448" lon="7.08543">
        <ele>664.9</ele>
        <time>2012-11-24T08:16:22Z</time>
      </trkpt>
      <trkpt lat="43.94483" lon="7.08531">
        <ele>666.1</ele>
        <time>2012-11-24T08:16:29Z</time>
      </trkpt>
      <trkpt lat="43.94485" lon="7.0852">
        <ele>668.5</ele>
        <time>2012-11-24T08:16:35Z</time>
      </trkpt>
      <trkpt lat="43.94487" lon="7.0851">
        <ele>669.9</ele>
        <time>2012-11-24T08:16:41Z</time>
      </trkpt>
      <trkpt lat="43.94489" lon="7.08499">
        <ele>671.5</ele>
        <time>2012-11-24T08:16:47Z</time>
      </trkpt>
      <trkpt lat="43.9449" lon="7.08489">
        <ele>673</ele>
        <time>2012-11-24T08:16:53Z</time>
      </trkpt>
      <trkpt lat="43.94493" lon="7.08478">
        <ele>674</ele>
        <time>2012-11-24T08:16:59Z</time>
      </trkpt>
      <trkpt lat="43.94494" lon="7.08477">
        <ele>674.2</ele>
        <time>2012-11-24T08:17:00Z</time>
      </trkpt>
      <trkpt lat="43.94495" lon="7.08455">
        <ele>676.7</ele>
        <time>2012-11-24T08:17:12Z</time>
      </trkpt>
      <trkpt lat="43.94495" lon="7.08444">
        <ele>677.5</ele>
        <time>2012-11-24T08:17:18Z</time>
      </trkpt>
      <trkpt lat="43.94501" lon="7.08437">
        <ele>679.1</ele>
        <time>2012-11-24T08:17:25Z</time>
      </trkpt>
      <trkpt lat="43.94509" lon="7.08437">
        <ele>680.5</ele>
        <time>2012-11-24T08:17:32Z</time>
      </trkpt>
      <trkpt lat="43.94517" lon="7.08438">
        <ele>681.4</ele>
        <time>2012-11-24T08:17:38Z</time>
      </trkpt>
      <trkpt lat="43.94525" lon="7.08438">
        <ele>682.8</ele>
        <time>2012-11-24T08:17:44Z</time>
      </trkpt>
      <trkpt lat="43.94533" lon="7.08438">
        <ele>683.6</ele>
        <time>2012-11-24T08:17:50Z</time>
      </trkpt>
      <trkpt lat="43.94541" lon="7.08437">
        <ele>685.5</ele>
        <time>2012-11-24T08:17:56Z</time>
      </trkpt>
      <trkpt lat="43.94549" lon="7.08436">
        <ele>686.2</ele>
        <time>2012-11-24T08:18:02Z</time>
      </trkpt>
      <trkpt lat="43.9455" lon="7.08436">
        <ele>686.3</ele>
        <time>2012-11-24T08:18:03Z</time>
      </trkpt>
      <trkpt lat="43.94563" lon="7.08425">
        <ele>689.6</ele>
        <time>2012-11-24T08:18:14Z</time>
      </trkpt>
      <trkpt lat="43.94569" lon="7.08417">
        <ele>691.7</ele>
        <time>2012-11-24T08:18:20Z</time>
      </trkpt>
      <trkpt lat="43.94575" lon="7.08409">
        <ele>693.1</ele>
        <time>2012-11-24T08:18:26Z</time>
      </trkpt>
      <trkpt lat="43.94583" lon="7.08405">
        <ele>694.5</ele>
        <time>2012-11-24T08:18:32Z</time>
      </trkpt>
      <trkpt lat="43.94591" lon="7.08404">
        <ele>695.7</ele>
        <time>2012-11-24T08:18:38Z</time>
      </trkpt>
      <trkpt lat="43.94599" lon="7.08403">
        <ele>696.4</ele>
        <time>2012-11-24T08:18:44Z</time>
      </trkpt>
      <trkpt lat="43.94607" lon="7.08401">
        <ele>697.6</ele>
        <time>2012-11-24T08:18:50Z</time>
      </trkpt>
      <trkpt lat="43.94616" lon="7.08399">
        <ele>699.9</ele>
        <time>2012-11-24T08:18:57Z</time>
      </trkpt>
      <trkpt lat="43.94623" lon="7.08394">
        <ele>700.9</ele>
        <time>2012-11-24T08:19:03Z</time>
      </trkpt>
      <trkpt lat="43.94624" lon="7.08392">
        <ele>701.3</ele>
        <time>2012-11-24T08:19:04Z</time>
      </trkpt>
      <trkpt lat="43.94638" lon="7.08381">
        <ele>703.6</ele>
        <time>2012-11-24T08:19:17Z</time>
      </trkpt>
      <trkpt lat="43.94644" lon="7.08374">
        <ele>705.1</ele>
        <time>2012-11-24T08:19:23Z</time>
      </trkpt>
      <trkpt lat="43.94651" lon="7.08366">
        <ele>706.6</ele>
        <time>2012-11-24T08:19:29Z</time>
      </trkpt>
      <trkpt lat="43.94657" lon="7.08359">
        <ele>707.9</ele>
        <time>2012-11-24T08:19:35Z</time>
      </trkpt>
      <trkpt lat="43.94664" lon="7.08351">
        <ele>709.9</ele>
        <time>2012-11-24T08:19:42Z</time>
      </trkpt>
      <trkpt lat="43.94669" lon="7.08343">
        <ele>711.5</ele>
        <time>2012-11-24T08:19:48Z</time>
      </trkpt>
      <trkpt lat="43.94676" lon="7.08335">
        <ele>713.2</ele>
        <time>2012-11-24T08:19:55Z</time>
      </trkpt>
      <trkpt lat="43.94682" lon="7.08327">
        <ele>714</ele>
        <time>2012-11-24T08:20:01Z</time>
      </trkpt>
      <trkpt lat="43.94689" lon="7.08321">
        <ele>714.9</ele>
        <time>2012-11-24T08:20:08Z</time>
      </trkpt>
      <trkpt lat="43.9469" lon="7.0832">
        <ele>715</ele>
        <time>2012-11-24T08:20:09Z</time>
      </trkpt>
      <trkpt lat="43.94702" lon="7.08309">
        <ele>718.7</ele>
        <time>2012-11-24T08:20:20Z</time>
      </trkpt>
      <trkpt lat="43.94707" lon="7.083">
        <ele>720.2</ele>
        <time>2012-11-24T08:20:26Z</time>
      </trkpt>
      <trkpt lat="43.94713" lon="7.08293">
        <ele>721.5</ele>
        <time>2012-11-24T08:20:32Z</time>
      </trkpt>
      <trkpt lat="43.94719" lon="7.08285">
        <ele>722.4</ele>
        <time>2012-11-24T08:20:38Z</time>
      </trkpt>
      <trkpt lat="43.94724" lon="7.08276">
        <ele>723.4</ele>
        <time>2012-11-24T08:20:44Z</time>
      </trkpt>
      <trkpt lat="43.94731" lon="7.08269">
        <ele>724.7</ele>
        <time>2012-11-24T08:20:50Z</time>
      </trkpt>
      <trkpt lat="43.94739" lon="7.08265">
        <ele>726.8</ele>
        <time>2012-11-24T08:20:57Z</time>
      </trkpt>
      <trkpt lat="43.94746" lon="7.08259">
        <ele>727</ele>
        <time>2012-11-24T08:21:03Z</time>
      </trkpt>
      <trkpt lat="43.94751" lon="7.08249">
        <ele>728.2</ele>
        <time>2012-11-24T08:21:09Z</time>
      </trkpt>
      <trkpt lat="43.94751" lon="7.08247">
        <ele>728.4</ele>
        <time>2012-11-24T08:21:10Z</time>
      </trkpt>
      <trkpt lat="43.94758" lon="7.08227">
        <ele>731.7</ele>
        <time>2012-11-24T08:21:21Z</time>
      </trkpt>
      <trkpt lat="43.94762" lon="7.08217">
        <ele>733.2</ele>
        <time>2012-11-24T08:21:28Z</time>
      </trkpt>
      <trkpt lat="43.94768" lon="7.08209">
        <ele>734.4</ele>
        <time>2012-11-24T08:21:34Z</time>
      </trkpt>
      <trkpt lat="43.94776" lon="7.08204">
        <ele>736.5</ele>
        <time>2012-11-24T08:21:41Z</time>
      </trkpt>
      <trkpt lat="43.94783" lon="7.08198">
        <ele>738.4</ele>
        <time>2012-11-24T08:21:48Z</time>
      </trkpt>
      <trkpt lat="43.94789" lon="7.08189">
        <ele>738.6</ele>
        <time>2012-11-24T08:21:55Z</time>
      </trkpt>
      <trkpt lat="43.94794" lon="7.08179">
        <ele>740.6</ele>
        <time>2012-11-24T08:22:02Z</time>
      </trkpt>
      <trkpt lat="43.94799" lon="7.0817">
        <ele>741.9</ele>
        <time>2012-11-24T08:22:08Z</time>
      </trkpt>
      <trkpt lat="43.94804" lon="7.08162">
        <ele>743.6</ele>
        <time>2012-11-24T08:22:14Z</time>
      </trkpt>
      <trkpt lat="43.94805" lon="7.0816">
        <ele>743.9</ele>
        <time>2012-11-24T08:22:15Z</time>
      </trkpt>
      <trkpt lat="43.94817" lon="7.08144">
        <ele>746.9</ele>
        <time>2012-11-24T08:22:28Z</time>
      </trkpt>
      <trkpt lat="43.94821" lon="7.08134">
        <ele>747.9</ele>
        <time>2012-11-24T08:22:35Z</time>
      </trkpt>
      <trkpt lat="43.94823" lon="7.08123">
        <ele>750.2</ele>
        <time>2012-11-24T08:22:42Z</time>
      </trkpt>
      <trkpt lat="43.94822" lon="7.0811">
        <ele>751.5</ele>
        <time>2012-11-24T08:22:49Z</time>
      </trkpt>
      <trkpt lat="43.94818" lon="7.08101">
        <ele>753</ele>
        <time>2012-11-24T08:22:55Z</time>
      </trkpt>
      <trkpt lat="43.94813" lon="7.08092">
        <ele>754.4</ele>
        <time>2012-11-24T08:23:02Z</time>
      </trkpt>
      <trkpt lat="43.94809" lon="7.08082">
        <ele>754.7</ele>
        <time>2012-11-24T08:23:09Z</time>
      </trkpt>
      <trkpt lat="43.94808" lon="7.08071">
        <ele>756.9</ele>
        <time>2012-11-24T08:23:15Z</time>
      </trkpt>
      <trkpt lat="43.94807" lon="7.08069">
        <ele>757.3</ele>
        <time>2012-11-24T08:23:16Z</time>
      </trkpt>
      <trkpt lat="43.94808" lon="7.08047">
        <ele>758.7</ele>
        <time>2012-11-24T08:23:29Z</time>
      </trkpt>
      <trkpt lat="43.94809" lon="7.08035">
        <ele>760.7</ele>
        <time>2012-11-24T08:23:36Z</time>
      </trkpt>
      <trkpt lat="43.9481" lon="7.08024">
        <ele>761.5</ele>
        <time>2012-11-24T08:23:42Z</time>
      </trkpt>
      <trkpt lat="43.94809" lon="7.08013">
        <ele>762.3</ele>
        <time>2012-11-24T08:23:48Z</time>
      </trkpt>
      <trkpt lat="43.94806" lon="7.08002">
        <ele>763.6</ele>
        <time>2012-11-24T08:23:54Z</time>
      </trkpt>
      <trkpt lat="43.94803" lon="7.07991">
        <ele>765.8</ele>
        <time>2012-11-24T08:24:01Z</time>
      </trkpt>
      <trkpt lat="43.94798" lon="7.07981">
        <ele>767.2</ele>
        <time>2012-11-24T08:24:08Z</time>
      </trkpt>
      <trkpt lat="43.94794" lon="7.07971">
        <ele>769.1</ele>
        <time>2012-11-24T08:24:15Z</time>
      </trkpt>
      <trkpt lat="43.9479" lon="7.0796">
        <ele>770.2</ele>
        <time>2012-11-24T08:24:22Z</time>
      </trkpt>
      <trkpt lat="43.94789" lon="7.07958">
        <ele>770.4</ele>
        <time>2012-11-24T08:24:23Z</time>
      </trkpt>
      <trkpt lat="43.94779" lon="7.07943">
        <ele>772.5</ele>
        <time>2012-11-24T08:24:36Z</time>
      </trkpt>
      <trkpt lat="43.94773" lon="7.07934">
        <ele>774.2</ele>
        <time>2012-11-24T08:24:43Z</time>
      </trkpt>
      <trkpt lat="43.94768" lon="7.07926">
        <ele>775.5</ele>
        <time>2012-11-24T08:24:50Z</time>
      </trkpt>
      <trkpt lat="43.94767" lon="7.07914">
        <ele>777.2</ele>
        <time>2012-11-24T08:24:58Z</time>
      </trkpt>
      <trkpt lat="43.94766" lon="7.07902">
        <ele>779.2</ele>
        <time>2012-11-24T08:25:06Z</time>
      </trkpt>
      <trkpt lat="43.94765" lon="7.0789">
        <ele>779.6</ele>
        <time>2012-11-24T08:25:13Z</time>
      </trkpt>
      <trkpt lat="43.94765" lon="7.07878">
        <ele>780.9</ele>
        <time>2012-11-24T08:25:19Z</time>
      </trkpt>
      <trkpt lat="43.94764" lon="7.07867">
        <ele>783.2</ele>
        <time>2012-11-24T08:25:25Z</time>
      </trkpt>
      <trkpt lat="43.94764" lon="7.07865">
        <ele>782.9</ele>
        <time>2012-11-24T08:25:26Z</time>
      </trkpt>
      <trkpt lat="43.94769" lon="7.07845">
        <ele>784</ele>
        <time>2012-11-24T08:25:38Z</time>
      </trkpt>
      <trkpt lat="43.94766" lon="7.07835">
        <ele>785.5</ele>
        <time>2012-11-24T08:25:45Z</time>
      </trkpt>
      <trkpt lat="43.94759" lon="7.07827">
        <ele>787.4</ele>
        <time>2012-11-24T08:25:52Z</time>
      </trkpt>
      <trkpt lat="43.94756" lon="7.07816">
        <ele>788.4</ele>
        <time>2012-11-24T08:25:59Z</time>
      </trkpt>
      <trkpt lat="43.94761" lon="7.07806">
        <ele>789.9</ele>
        <time>2012-11-24T08:26:06Z</time>
      </trkpt>
      <trkpt lat="43.94766" lon="7.07797">
        <ele>791.6</ele>
        <time>2012-11-24T08:26:13Z</time>
      </trkpt>
      <trkpt lat="43.94769" lon="7.07788">
        <ele>792.6</ele>
        <time>2012-11-24T08:26:20Z</time>
      </trkpt>
      <trkpt lat="43.94772" lon="7.07776">
        <ele>793.7</ele>
        <time>2012-11-24T08:26:27Z</time>
      </trkpt>
      <trkpt lat="43.94772" lon="7.07774">
        <ele>794.1</ele>
        <time>2012-11-24T08:26:28Z</time>
      </trkpt>
      <trkpt lat="43.94777" lon="7.07754">
        <ele>797</ele>
        <time>2012-11-24T08:26:41Z</time>
      </trkpt>
      <trkpt lat="43.94781" lon="7.07744">
        <ele>798.6</ele>
        <time>2012-11-24T08:26:48Z</time>
      </trkpt>
      <trkpt lat="43.94787" lon="7.07736">
        <ele>800.4</ele>
        <time>2012-11-24T08:26:55Z</time>
      </trkpt>
      <trkpt lat="43.94795" lon="7.0773">
        <ele>802.8</ele>
        <time>2012-11-24T08:27:02Z</time>
      </trkpt>
      <trkpt lat="43.94801" lon="7.07724">
        <ele>803.8</ele>
        <time>2012-11-24T08:27:08Z</time>
      </trkpt>
      <trkpt lat="43.94809" lon="7.07718">
        <ele>804.9</ele>
        <time>2012-11-24T08:27:15Z</time>
      </trkpt>
      <trkpt lat="43.94814" lon="7.0771">
        <ele>806.1</ele>
        <time>2012-11-24T08:27:21Z</time>
      </trkpt>
      <trkpt lat="43.94819" lon="7.07701">
        <ele>807.8</ele>
        <time>2012-11-24T08:27:28Z</time>
      </trkpt>
      <trkpt lat="43.94819" lon="7.077">
        <ele>807.8</ele>
        <time>2012-11-24T08:27:29Z</time>
      </trkpt>
      <trkpt lat="43.9483" lon="7.07685">
        <ele>810.5</ele>
        <time>2012-11-24T08:27:41Z</time>
      </trkpt>
      <trkpt lat="43.94836" lon="7.07679">
        <ele>811.3</ele>
        <time>2012-11-24T08:27:48Z</time>
      </trkpt>
      <trkpt lat="43.9484" lon="7.07669">
        <ele>812.5</ele>
        <time>2012-11-24T08:27:54Z</time>
      </trkpt>
      <trkpt lat="43.94845" lon="7.07659">
        <ele>813.6</ele>
        <time>2012-11-24T08:28:00Z</time>
      </trkpt>
      <trkpt lat="43.9485" lon="7.0765">
        <ele>815.3</ele>
        <time>2012-11-24T08:28:07Z</time>
      </trkpt>
      <trkpt lat="43.94856" lon="7.0764">
        <ele>817.3</ele>
        <time>2012-11-24T08:28:14Z</time>
      </trkpt>
      <trkpt lat="43.94861" lon="7.0763">
        <ele>819.2</ele>
        <time>2012-11-24T08:28:21Z</time>
      </trkpt>
      <trkpt lat="43.94864" lon="7.0762">
        <ele>820.3</ele>
        <time>2012-11-24T08:28:27Z</time>
      </trkpt>
      <trkpt lat="43.94871" lon="7.07627">
        <ele>823.6</ele>
        <time>2012-11-24T08:28:45Z</time>
      </trkpt>
      <trkpt lat="43.94871" lon="7.07628">
        <ele>823.9</ele>
        <time>2012-11-24T08:28:46Z</time>
      </trkpt>
      <trkpt lat="43.94872" lon="7.0765">
        <ele>825.7</ele>
        <time>2012-11-24T08:29:00Z</time>
      </trkpt>
      <trkpt lat="43.94875" lon="7.0766">
        <ele>827.6</ele>
        <time>2012-11-24T08:29:07Z</time>
      </trkpt>
      <trkpt lat="43.94876" lon="7.07671">
        <ele>828.4</ele>
        <time>2012-11-24T08:29:13Z</time>
      </trkpt>
      <trkpt lat="43.9488" lon="7.07682">
        <ele>830.1</ele>
        <time>2012-11-24T08:29:20Z</time>
      </trkpt>
      <trkpt lat="43.94881" lon="7.07694">
        <ele>831.4</ele>
        <time>2012-11-24T08:29:27Z</time>
      </trkpt>
      <trkpt lat="43.94884" lon="7.07706">
        <ele>833.2</ele>
        <time>2012-11-24T08:29:34Z</time>
      </trkpt>
      <trkpt lat="43.94887" lon="7.07716">
        <ele>834.6</ele>
        <time>2012-11-24T08:29:41Z</time>
      </trkpt>
      <trkpt lat="43.94889" lon="7.07728">
        <ele>835.6</ele>
        <time>2012-11-24T08:29:50Z</time>
      </trkpt>
      <trkpt lat="43.94889" lon="7.0773">
        <ele>836.1</ele>
        <time>2012-11-24T08:29:51Z</time>
      </trkpt>
      <trkpt lat="43.94894" lon="7.0775">
        <ele>839.6</ele>
        <time>2012-11-24T08:30:05Z</time>
      </trkpt>
      <trkpt lat="43.94899" lon="7.0776">
        <ele>839.8</ele>
        <time>2012-11-24T08:30:12Z</time>
      </trkpt>
      <trkpt lat="43.94905" lon="7.0777">
        <ele>841.9</ele>
        <time>2012-11-24T08:30:20Z</time>
      </trkpt>
      <trkpt lat="43.94899" lon="7.07762">
        <ele>841.8</ele>
        <time>2012-11-24T08:30:46Z</time>
      </trkpt>
      <trkpt lat="43.94896" lon="7.07751">
        <ele>841.1</ele>
        <time>2012-11-24T08:30:49Z</time>
      </trkpt>
      <trkpt lat="43.94892" lon="7.0774">
        <ele>840.4</ele>
        <time>2012-11-24T08:30:51Z</time>
      </trkpt>
      <trkpt lat="43.94891" lon="7.07734">
        <ele>840</ele>
        <time>2012-11-24T08:30:52Z</time>
      </trkpt>
      <trkpt lat="43.94889" lon="7.07722">
        <ele>838.7</ele>
        <time>2012-11-24T08:30:54Z</time>
      </trkpt>
      <trkpt lat="43.94887" lon="7.07716">
        <ele>837.5</ele>
        <time>2012-11-24T08:30:55Z</time>
      </trkpt>
      <trkpt lat="43.94885" lon="7.07709">
        <ele>836.6</ele>
        <time>2012-11-24T08:30:56Z</time>
      </trkpt>
      <trkpt lat="43.94883" lon="7.07702">
        <ele>835.9</ele>
        <time>2012-11-24T08:30:57Z</time>
      </trkpt>
      <trkpt lat="43.94883" lon="7.07695">
        <ele>835.2</ele>
        <time>2012-11-24T08:30:58Z</time>
      </trkpt>
      <trkpt lat="43.94879" lon="7.07685">
        <ele>833.6</ele>
        <time>2012-11-24T08:31:00Z</time>
      </trkpt>
      <trkpt lat="43.94876" lon="7.07673">
        <ele>832.2</ele>
        <time>2012-11-24T08:31:02Z</time>
      </trkpt>
      <trkpt lat="43.94875" lon="7.07662">
        <ele>831</ele>
        <time>2012-11-24T08:31:04Z</time>
      </trkpt>
      <trkpt lat="43.94874" lon="7.07651">
        <ele>829.4</ele>
        <time>2012-11-24T08:31:06Z</time>
      </trkpt>
      <trkpt lat="43.94874" lon="7.07639">
        <ele>825.9</ele>
        <time>2012-11-24T08:31:12Z</time>
      </trkpt>
      <trkpt lat="43.94873" lon="7.07627">
        <ele>824.9</ele>
        <time>2012-11-24T08:31:16Z</time>
      </trkpt>
      <trkpt lat="43.94866" lon="7.07632">
        <ele>822.8</ele>
        <time>2012-11-24T08:31:23Z</time>
      </trkpt>
      <trkpt lat="43.9486" lon="7.07642">
        <ele>821.4</ele>
        <time>2012-11-24T08:31:25Z</time>
      </trkpt>
      <trkpt lat="43.94857" lon="7.07647">
        <ele>820.3</ele>
        <time>2012-11-24T08:31:26Z</time>
      </trkpt>
      <trkpt lat="43.94854" lon="7.07653">
        <ele>819.5</ele>
        <time>2012-11-24T08:31:27Z</time>
      </trkpt>
      <trkpt lat="43.94851" lon="7.07659">
        <ele>818.9</ele>
        <time>2012-11-24T08:31:28Z</time>
      </trkpt>
      <trkpt lat="43.94846" lon="7.07668">
        <ele>817.8</ele>
        <time>2012-11-24T08:31:30Z</time>
      </trkpt>
      <trkpt lat="43.94841" lon="7.07677">
        <ele>815.7</ele>
        <time>2012-11-24T08:31:32Z</time>
      </trkpt>
      <trkpt lat="43.94836" lon="7.07686">
        <ele>814.4</ele>
        <time>2012-11-24T08:31:34Z</time>
      </trkpt>
      <trkpt lat="43.94832" lon="7.07691">
        <ele>813.9</ele>
        <time>2012-11-24T08:31:35Z</time>
      </trkpt>
      <trkpt lat="43.94829" lon="7.07698">
        <ele>812.8</ele>
        <time>2012-11-24T08:31:36Z</time>
      </trkpt>
      <trkpt lat="43.94825" lon="7.07704">
        <ele>812</ele>
        <time>2012-11-24T08:31:37Z</time>
      </trkpt>
      <trkpt lat="43.9482" lon="7.07711">
        <ele>810.7</ele>
        <time>2012-11-24T08:31:38Z</time>
      </trkpt>
      <trkpt lat="43.94814" lon="7.07716">
        <ele>809.7</ele>
        <time>2012-11-24T08:31:39Z</time>
      </trkpt>
      <trkpt lat="43.94809" lon="7.07721">
        <ele>809</ele>
        <time>2012-11-24T08:31:40Z</time>
      </trkpt>
      <trkpt lat="43.94805" lon="7.07726">
        <ele>807.9</ele>
        <time>2012-11-24T08:31:41Z</time>
      </trkpt>
      <trkpt lat="43.94798" lon="7.07733">
        <ele>802</ele>
        <time>2012-11-24T08:31:52Z</time>
      </trkpt>
      <trkpt lat="43.94797" lon="7.07734">
        <ele>801.9</ele>
        <time>2012-11-24T08:31:53Z</time>
      </trkpt>
      <trkpt lat="43.94808" lon="7.07715">
        <ele>804.4</ele>
        <time>2012-11-24T08:32:49Z</time>
      </trkpt>
      <trkpt lat="43.94814" lon="7.07706">
        <ele>805.9</ele>
        <time>2012-11-24T08:32:56Z</time>
      </trkpt>
      <trkpt lat="43.94815" lon="7.07705">
        <ele>805.9</ele>
        <time>2012-11-24T08:32:57Z</time>
      </trkpt>
      <trkpt lat="43.94825" lon="7.07689">
        <ele>808.7</ele>
        <time>2012-11-24T08:33:10Z</time>
      </trkpt>
      <trkpt lat="43.94831" lon="7.07682">
        <ele>810.3</ele>
        <time>2012-11-24T08:33:18Z</time>
      </trkpt>
      <trkpt lat="43.94837" lon="7.07674">
        <ele>811.3</ele>
        <time>2012-11-24T08:33:25Z</time>
      </trkpt>
      <trkpt lat="43.94842" lon="7.07664">
        <ele>813.4</ele>
        <time>2012-11-24T08:33:32Z</time>
      </trkpt>
      <trkpt lat="43.94847" lon="7.07655">
        <ele>815.4</ele>
        <time>2012-11-24T08:33:40Z</time>
      </trkpt>
      <trkpt lat="43.94852" lon="7.07645">
        <ele>816.4</ele>
        <time>2012-11-24T08:33:48Z</time>
      </trkpt>
      <trkpt lat="43.94857" lon="7.07635">
        <ele>817.4</ele>
        <time>2012-11-24T08:33:56Z</time>
      </trkpt>
      <trkpt lat="43.94861" lon="7.07625">
        <ele>819</ele>
        <time>2012-11-24T08:34:04Z</time>
      </trkpt>
      <trkpt lat="43.94862" lon="7.07623">
        <ele>819.1</ele>
        <time>2012-11-24T08:34:05Z</time>
      </trkpt>
      <trkpt lat="43.9487" lon="7.07623">
        <ele>823.4</ele>
        <time>2012-11-24T08:34:26Z</time>
      </trkpt>
      <trkpt lat="43.9487" lon="7.07635">
        <ele>823.7</ele>
        <time>2012-11-24T08:34:34Z</time>
      </trkpt>
      <trkpt lat="43.94871" lon="7.07646">
        <ele>824.9</ele>
        <time>2012-11-24T08:34:42Z</time>
      </trkpt>
      <trkpt lat="43.94874" lon="7.07657">
        <ele>826.5</ele>
        <time>2012-11-24T08:34:50Z</time>
      </trkpt>
      <trkpt lat="43.94876" lon="7.07667">
        <ele>827.5</ele>
        <time>2012-11-24T08:34:57Z</time>
      </trkpt>
      <trkpt lat="43.94879" lon="7.07679">
        <ele>829.8</ele>
        <time>2012-11-24T08:35:07Z</time>
      </trkpt>
      <trkpt lat="43.9488" lon="7.0768">
        <ele>829.8</ele>
        <time>2012-11-24T08:35:08Z</time>
      </trkpt>
      <trkpt lat="43.94884" lon="7.07702">
        <ele>831.9</ele>
        <time>2012-11-24T08:35:24Z</time>
      </trkpt>
      <trkpt lat="43.94888" lon="7.07713">
        <ele>833.4</ele>
        <time>2012-11-24T08:35:33Z</time>
      </trkpt>
      <trkpt lat="43.94889" lon="7.07724">
        <ele>834.9</ele>
        <time>2012-11-24T08:35:42Z</time>
      </trkpt>
      <trkpt lat="43.94892" lon="7.07736">
        <ele>836.2</ele>
        <time>2012-11-24T08:35:51Z</time>
      </trkpt>
      <trkpt lat="43.94895" lon="7.07747">
        <ele>838.2</ele>
        <time>2012-11-24T08:36:01Z</time>
      </trkpt>
      <trkpt lat="43.94898" lon="7.07758">
        <ele>839.4</ele>
        <time>2012-11-24T08:36:09Z</time>
      </trkpt>
      <trkpt lat="43.94899" lon="7.07759">
        <ele>839.6</ele>
        <time>2012-11-24T08:36:10Z</time>
      </trkpt>
      <trkpt lat="43.94909" lon="7.07776">
        <ele>841.6</ele>
        <time>2012-11-24T08:36:24Z</time>
      </trkpt>
      <trkpt lat="43.94914" lon="7.07784">
        <ele>843.1</ele>
        <time>2012-11-24T08:36:31Z</time>
      </trkpt>
      <trkpt lat="43.94919" lon="7.07792">
        <ele>843.8</ele>
        <time>2012-11-24T08:36:38Z</time>
      </trkpt>
      <trkpt lat="43.94925" lon="7.07801">
        <ele>845.5</ele>
        <time>2012-11-24T08:36:47Z</time>
      </trkpt>
      <trkpt lat="43.94931" lon="7.07809">
        <ele>845.6</ele>
        <time>2012-11-24T08:36:54Z</time>
      </trkpt>
      <trkpt lat="43.94927" lon="7.07819">
        <ele>846.5</ele>
        <time>2012-11-24T08:37:01Z</time>
      </trkpt>
      <trkpt lat="43.94919" lon="7.07823">
        <ele>847.7</ele>
        <time>2012-11-24T08:37:07Z</time>
      </trkpt>
      <trkpt lat="43.94911" lon="7.07826">
        <ele>848</ele>
        <time>2012-11-24T08:37:13Z</time>
      </trkpt>
      <trkpt lat="43.9491" lon="7.07826">
        <ele>848.3</ele>
        <time>2012-11-24T08:37:14Z</time>
      </trkpt>
      <trkpt lat="43.94926" lon="7.07835">
        <ele>852.7</ele>
        <time>2012-11-24T08:37:44Z</time>
      </trkpt>
      <trkpt lat="43.94933" lon="7.07828">
        <ele>853.1</ele>
        <time>2012-11-24T08:38:32Z</time>
      </trkpt>
      <trkpt lat="43.94933" lon="7.07827">
        <ele>853</ele>
        <time>2012-11-24T08:38:33Z</time>
      </trkpt>
      <trkpt lat="43.94949" lon="7.07829">
        <ele>855.3</ele>
        <time>2012-11-24T08:39:12Z</time>
      </trkpt>
      <trkpt lat="43.94952" lon="7.07819">
        <ele>856.4</ele>
        <time>2012-11-24T08:39:18Z</time>
      </trkpt>
      <trkpt lat="43.94956" lon="7.07808">
        <ele>858</ele>
        <time>2012-11-24T08:39:26Z</time>
      </trkpt>
      <trkpt lat="43.94953" lon="7.07797">
        <ele>860</ele>
        <time>2012-11-24T08:39:34Z</time>
      </trkpt>
      <trkpt lat="43.94953" lon="7.07796">
        <ele>860.3</ele>
        <time>2012-11-24T08:39:35Z</time>
      </trkpt>
      <trkpt lat="43.94947" lon="7.07776">
        <ele>862.1</ele>
        <time>2012-11-24T08:39:51Z</time>
      </trkpt>
      <trkpt lat="43.94946" lon="7.07763">
        <ele>864</ele>
        <time>2012-11-24T08:40:08Z</time>
      </trkpt>
      <trkpt lat="43.94947" lon="7.07752">
        <ele>865.3</ele>
        <time>2012-11-24T08:40:19Z</time>
      </trkpt>
      <trkpt lat="43.94949" lon="7.0774">
        <ele>865.8</ele>
        <time>2012-11-24T08:40:25Z</time>
      </trkpt>
      <trkpt lat="43.94951" lon="7.07729">
        <ele>867.4</ele>
        <time>2012-11-24T08:40:31Z</time>
      </trkpt>
      <trkpt lat="43.94954" lon="7.07718">
        <ele>868.7</ele>
        <time>2012-11-24T08:40:37Z</time>
      </trkpt>
      <trkpt lat="43.94954" lon="7.07716">
        <ele>868.8</ele>
        <time>2012-11-24T08:40:38Z</time>
      </trkpt>
      <trkpt lat="43.94958" lon="7.07696">
        <ele>871.1</ele>
        <time>2012-11-24T08:40:49Z</time>
      </trkpt>
      <trkpt lat="43.9496" lon="7.07685">
        <ele>872.9</ele>
        <time>2012-11-24T08:40:55Z</time>
      </trkpt>
      <trkpt lat="43.94963" lon="7.07674">
        <ele>874.3</ele>
        <time>2012-11-24T08:41:01Z</time>
      </trkpt>
      <trkpt lat="43.94967" lon="7.07664">
        <ele>876</ele>
        <time>2012-11-24T08:41:08Z</time>
      </trkpt>
      <trkpt lat="43.94971" lon="7.07653">
        <ele>877.3</ele>
        <time>2012-11-24T08:41:16Z</time>
      </trkpt>
      <trkpt lat="43.94975" lon="7.07644">
        <ele>879</ele>
        <time>2012-11-24T08:41:23Z</time>
      </trkpt>
      <trkpt lat="43.94979" lon="7.07634">
        <ele>880.4</ele>
        <time>2012-11-24T08:41:30Z</time>
      </trkpt>
      <trkpt lat="43.94985" lon="7.07624">
        <ele>881.6</ele>
        <time>2012-11-24T08:41:37Z</time>
      </trkpt>
      <trkpt lat="43.9499" lon="7.07616">
        <ele>883.1</ele>
        <time>2012-11-24T08:41:44Z</time>
      </trkpt>
      <trkpt lat="43.94991" lon="7.07614">
        <ele>883.4</ele>
        <time>2012-11-24T08:41:45Z</time>
      </trkpt>
      <trkpt lat="43.95002" lon="7.07597">
        <ele>885.8</ele>
        <time>2012-11-24T08:41:57Z</time>
      </trkpt>
      <trkpt lat="43.95007" lon="7.07587">
        <ele>887.5</ele>
        <time>2012-11-24T08:42:04Z</time>
      </trkpt>
      <trkpt lat="43.95012" lon="7.0758">
        <ele>889.2</ele>
        <time>2012-11-24T08:42:11Z</time>
      </trkpt>
      <trkpt lat="43.95018" lon="7.07572">
        <ele>890.3</ele>
        <time>2012-11-24T08:42:18Z</time>
      </trkpt>
      <trkpt lat="43.95024" lon="7.07564">
        <ele>892.1</ele>
        <time>2012-11-24T08:42:25Z</time>
      </trkpt>
      <trkpt lat="43.95031" lon="7.07558">
        <ele>892.6</ele>
        <time>2012-11-24T08:42:32Z</time>
      </trkpt>
      <trkpt lat="43.95039" lon="7.07553">
        <ele>894.5</ele>
        <time>2012-11-24T08:42:40Z</time>
      </trkpt>
      <trkpt lat="43.95048" lon="7.07549">
        <ele>895.8</ele>
        <time>2012-11-24T08:42:47Z</time>
      </trkpt>
      <trkpt lat="43.95049" lon="7.07548">
        <ele>896</ele>
        <time>2012-11-24T08:42:48Z</time>
      </trkpt>
      <trkpt lat="43.95061" lon="7.07539">
        <ele>897.9</ele>
        <time>2012-11-24T08:42:59Z</time>
      </trkpt>
      <trkpt lat="43.95066" lon="7.0753">
        <ele>899.1</ele>
        <time>2012-11-24T08:43:05Z</time>
      </trkpt>
      <trkpt lat="43.95072" lon="7.07522">
        <ele>900.5</ele>
        <time>2012-11-24T08:43:12Z</time>
      </trkpt>
      <trkpt lat="43.95079" lon="7.07517">
        <ele>902.5</ele>
        <time>2012-11-24T08:43:19Z</time>
      </trkpt>
      <trkpt lat="43.95088" lon="7.07513">
        <ele>904.5</ele>
        <time>2012-11-24T08:43:26Z</time>
      </trkpt>
      <trkpt lat="43.95096" lon="7.07513">
        <ele>905.2</ele>
        <time>2012-11-24T08:43:33Z</time>
      </trkpt>
      <trkpt lat="43.95105" lon="7.07517">
        <ele>907.1</ele>
        <time>2012-11-24T08:43:40Z</time>
      </trkpt>
      <trkpt lat="43.95112" lon="7.07522">
        <ele>907.3</ele>
        <time>2012-11-24T08:43:47Z</time>
      </trkpt>
      <trkpt lat="43.95121" lon="7.07522">
        <ele>908.8</ele>
        <time>2012-11-24T08:43:54Z</time>
      </trkpt>
      <trkpt lat="43.95123" lon="7.07522">
        <ele>909.2</ele>
        <time>2012-11-24T08:43:55Z</time>
      </trkpt>
      <trkpt lat="43.95138" lon="7.07523">
        <ele>912.1</ele>
        <time>2012-11-24T08:44:06Z</time>
      </trkpt>
      <trkpt lat="43.95146" lon="7.07522">
        <ele>913.6</ele>
        <time>2012-11-24T08:44:12Z</time>
      </trkpt>
      <trkpt lat="43.95154" lon="7.07521">
        <ele>915.4</ele>
        <time>2012-11-24T08:44:18Z</time>
      </trkpt>
      <trkpt lat="43.95162" lon="7.07519">
        <ele>916.6</ele>
        <time>2012-11-24T08:44:25Z</time>
      </trkpt>
      <trkpt lat="43.9517" lon="7.07514">
        <ele>918</ele>
        <time>2012-11-24T08:44:32Z</time>
      </trkpt>
      <trkpt lat="43.95175" lon="7.07504">
        <ele>919.1</ele>
        <time>2012-11-24T08:44:38Z</time>
      </trkpt>
      <trkpt lat="43.95179" lon="7.07494">
        <ele>921.1</ele>
        <time>2012-11-24T08:44:44Z</time>
      </trkpt>
      <trkpt lat="43.95184" lon="7.07485">
        <ele>923.1</ele>
        <time>2012-11-24T08:44:51Z</time>
      </trkpt>
      <trkpt lat="43.95192" lon="7.0748">
        <ele>924.4</ele>
        <time>2012-11-24T08:44:58Z</time>
      </trkpt>
      <trkpt lat="43.95194" lon="7.0748">
        <ele>924.7</ele>
        <time>2012-11-24T08:44:59Z</time>
      </trkpt>
      <trkpt lat="43.9521" lon="7.07476">
        <ele>927.6</ele>
        <time>2012-11-24T08:45:12Z</time>
      </trkpt>
      <trkpt lat="43.95218" lon="7.07475">
        <ele>929.4</ele>
        <time>2012-11-24T08:45:19Z</time>
      </trkpt>
      <trkpt lat="43.95225" lon="7.0747">
        <ele>930.7</ele>
        <time>2012-11-24T08:45:25Z</time>
      </trkpt>
      <trkpt lat="43.95233" lon="7.07465">
        <ele>931.6</ele>
        <time>2012-11-24T08:45:32Z</time>
      </trkpt>
      <trkpt lat="43.95239" lon="7.07458">
        <ele>932.3</ele>
        <time>2012-11-24T08:45:38Z</time>
      </trkpt>
      <trkpt lat="43.95242" lon="7.07446">
        <ele>933.2</ele>
        <time>2012-11-24T08:45:44Z</time>
      </trkpt>
      <trkpt lat="43.95244" lon="7.07434">
        <ele>934.1</ele>
        <time>2012-11-24T08:45:50Z</time>
      </trkpt>
      <trkpt lat="43.95247" lon="7.07424">
        <ele>935.3</ele>
        <time>2012-11-24T08:45:56Z</time>
      </trkpt>
      <trkpt lat="43.95251" lon="7.07414">
        <ele>938</ele>
        <time>2012-11-24T08:46:02Z</time>
      </trkpt>
      <trkpt lat="43.95252" lon="7.07412">
        <ele>938.3</ele>
        <time>2012-11-24T08:46:03Z</time>
      </trkpt>
      <trkpt lat="43.95265" lon="7.07402">
        <ele>939.5</ele>
        <time>2012-11-24T08:46:14Z</time>
      </trkpt>
      <trkpt lat="43.95272" lon="7.07401">
        <ele>940.9</ele>
        <time>2012-11-24T08:46:19Z</time>
      </trkpt>
      <trkpt lat="43.95281" lon="7.07399">
        <ele>941.7</ele>
        <time>2012-11-24T08:46:25Z</time>
      </trkpt>
      <trkpt lat="43.95289" lon="7.07397">
        <ele>942.9</ele>
        <time>2012-11-24T08:46:31Z</time>
      </trkpt>
      <trkpt lat="43.95296" lon="7.07393">
        <ele>944.2</ele>
        <time>2012-11-24T08:46:37Z</time>
      </trkpt>
      <trkpt lat="43.95298" lon="7.07405">
        <ele>946.8</ele>
        <time>2012-11-24T08:46:55Z</time>
      </trkpt>
      <trkpt lat="43.95292" lon="7.07412">
        <ele>947.7</ele>
        <time>2012-11-24T08:47:01Z</time>
      </trkpt>
      <trkpt lat="43.95285" lon="7.07419">
        <ele>948.7</ele>
        <time>2012-11-24T08:47:07Z</time>
      </trkpt>
      <trkpt lat="43.95284" lon="7.0742">
        <ele>949.1</ele>
        <time>2012-11-24T08:47:08Z</time>
      </trkpt>
      <trkpt lat="43.95272" lon="7.07434">
        <ele>950.8</ele>
        <time>2012-11-24T08:47:19Z</time>
      </trkpt>
      <trkpt lat="43.9528" lon="7.07437">
        <ele>952.5</ele>
        <time>2012-11-24T08:47:30Z</time>
      </trkpt>
      <trkpt lat="43.95289" lon="7.07435">
        <ele>954.2</ele>
        <time>2012-11-24T08:47:36Z</time>
      </trkpt>
      <trkpt lat="43.95297" lon="7.07433">
        <ele>955.7</ele>
        <time>2012-11-24T08:47:42Z</time>
      </trkpt>
      <trkpt lat="43.95305" lon="7.07432">
        <ele>957.3</ele>
        <time>2012-11-24T08:47:49Z</time>
      </trkpt>
      <trkpt lat="43.95313" lon="7.0743">
        <ele>959.3</ele>
        <time>2012-11-24T08:47:55Z</time>
      </trkpt>
      <trkpt lat="43.9532" lon="7.07424">
        <ele>960.5</ele>
        <time>2012-11-24T08:48:16Z</time>
      </trkpt>
      <trkpt lat="43.95321" lon="7.07423">
        <ele>960.5</ele>
        <time>2012-11-24T08:48:17Z</time>
      </trkpt>
      <trkpt lat="43.95333" lon="7.07409">
        <ele>963.7</ele>
        <time>2012-11-24T08:48:31Z</time>
      </trkpt>
      <trkpt lat="43.95339" lon="7.07401">
        <ele>963.2</ele>
        <time>2012-11-24T08:48:37Z</time>
      </trkpt>
      <trkpt lat="43.95346" lon="7.07395">
        <ele>963.4</ele>
        <time>2012-11-24T08:48:42Z</time>
      </trkpt>
      <trkpt lat="43.95352" lon="7.07387">
        <ele>965</ele>
        <time>2012-11-24T08:48:48Z</time>
      </trkpt>
      <trkpt lat="43.95359" lon="7.07381">
        <ele>966.7</ele>
        <time>2012-11-24T08:48:54Z</time>
      </trkpt>
      <trkpt lat="43.95366" lon="7.07375">
        <ele>968.7</ele>
        <time>2012-11-24T08:49:00Z</time>
      </trkpt>
      <trkpt lat="43.95372" lon="7.07369">
        <ele>970</ele>
        <time>2012-11-24T08:49:06Z</time>
      </trkpt>
      <trkpt lat="43.95379" lon="7.07362">
        <ele>971.6</ele>
        <time>2012-11-24T08:49:12Z</time>
      </trkpt>
      <trkpt lat="43.95386" lon="7.07356">
        <ele>973</ele>
        <time>2012-11-24T08:49:18Z</time>
      </trkpt>
      <trkpt lat="43.95388" lon="7.07355">
        <ele>972.9</ele>
        <time>2012-11-24T08:49:19Z</time>
      </trkpt>
      <trkpt lat="43.954" lon="7.07345">
        <ele>976.1</ele>
        <time>2012-11-24T08:49:30Z</time>
      </trkpt>
      <trkpt lat="43.95408" lon="7.07339">
        <ele>978</ele>
        <time>2012-11-24T08:49:37Z</time>
      </trkpt>
      <trkpt lat="43.95414" lon="7.07332">
        <ele>979.6</ele>
        <time>2012-11-24T08:49:43Z</time>
      </trkpt>
      <trkpt lat="43.9542" lon="7.07325">
        <ele>980.3</ele>
        <time>2012-11-24T08:49:49Z</time>
      </trkpt>
      <trkpt lat="43.95426" lon="7.07317">
        <ele>981.6</ele>
        <time>2012-11-24T08:49:55Z</time>
      </trkpt>
      <trkpt lat="43.95433" lon="7.07311">
        <ele>984</ele>
        <time>2012-11-24T08:50:01Z</time>
      </trkpt>
      <trkpt lat="43.9544" lon="7.07305">
        <ele>985.8</ele>
        <time>2012-11-24T08:50:08Z</time>
      </trkpt>
      <trkpt lat="43.95447" lon="7.07299">
        <ele>987.6</ele>
        <time>2012-11-24T08:50:15Z</time>
      </trkpt>
      <trkpt lat="43.95455" lon="7.07293">
        <ele>988.6</ele>
        <time>2012-11-24T08:50:22Z</time>
      </trkpt>
      <trkpt lat="43.95456" lon="7.07292">
        <ele>988.6</ele>
        <time>2012-11-24T08:50:23Z</time>
      </trkpt>
      <trkpt lat="43.95468" lon="7.0728">
        <ele>991.3</ele>
        <time>2012-11-24T08:50:35Z</time>
      </trkpt>
      <trkpt lat="43.95475" lon="7.07273">
        <ele>991.5</ele>
        <time>2012-11-24T08:50:41Z</time>
      </trkpt>
      <trkpt lat="43.95482" lon="7.07267">
        <ele>992.6</ele>
        <time>2012-11-24T08:50:47Z</time>
      </trkpt>
      <trkpt lat="43.95489" lon="7.07262">
        <ele>993.3</ele>
        <time>2012-11-24T08:50:53Z</time>
      </trkpt>
      <trkpt lat="43.95497" lon="7.07257">
        <ele>994.3</ele>
        <time>2012-11-24T08:50:59Z</time>
      </trkpt>
      <trkpt lat="43.95504" lon="7.07251">
        <ele>995.2</ele>
        <time>2012-11-24T08:51:05Z</time>
      </trkpt>
      <trkpt lat="43.95511" lon="7.07246">
        <ele>997</ele>
        <time>2012-11-24T08:51:11Z</time>
      </trkpt>
      <trkpt lat="43.95519" lon="7.07241">
        <ele>996.9</ele>
        <time>2012-11-24T08:51:17Z</time>
      </trkpt>
      <trkpt lat="43.95526" lon="7.07235">
        <ele>998.6</ele>
        <time>2012-11-24T08:51:23Z</time>
      </trkpt>
      <trkpt lat="43.95527" lon="7.07234">
        <ele>998.5</ele>
        <time>2012-11-24T08:51:24Z</time>
      </trkpt>
      <trkpt lat="43.95541" lon="7.07225">
        <ele>1000</ele>
        <time>2012-11-24T08:51:35Z</time>
      </trkpt>
      <trkpt lat="43.95549" lon="7.0722">
        <ele>1001.4</ele>
        <time>2012-11-24T08:51:41Z</time>
      </trkpt>
      <trkpt lat="43.95557" lon="7.07216">
        <ele>1001.9</ele>
        <time>2012-11-24T08:51:47Z</time>
      </trkpt>
      <trkpt lat="43.95565" lon="7.07213">
        <ele>1003.5</ele>
        <time>2012-11-24T08:51:53Z</time>
      </trkpt>
      <trkpt lat="43.95572" lon="7.07211">
        <ele>1003.2</ele>
        <time>2012-11-24T08:51:58Z</time>
      </trkpt>
      <trkpt lat="43.9558" lon="7.0721">
        <ele>1004.3</ele>
        <time>2012-11-24T08:52:03Z</time>
      </trkpt>
      <trkpt lat="43.95589" lon="7.07207">
        <ele>1005.9</ele>
        <time>2012-11-24T08:52:09Z</time>
      </trkpt>
      <trkpt lat="43.95596" lon="7.07206">
        <ele>1007.4</ele>
        <time>2012-11-24T08:52:14Z</time>
      </trkpt>
      <trkpt lat="43.95604" lon="7.07205">
        <ele>1008</ele>
        <time>2012-11-24T08:52:19Z</time>
      </trkpt>
      <trkpt lat="43.95613" lon="7.07206">
        <ele>1008.8</ele>
        <time>2012-11-24T08:52:25Z</time>
      </trkpt>
      <trkpt lat="43.95615" lon="7.07206">
        <ele>1008.9</ele>
        <time>2012-11-24T08:52:26Z</time>
      </trkpt>
      <trkpt lat="43.95628" lon="7.07207">
        <ele>1011.1</ele>
        <time>2012-11-24T08:52:35Z</time>
      </trkpt>
      <trkpt lat="43.95637" lon="7.07209">
        <ele>1011.6</ele>
        <time>2012-11-24T08:52:41Z</time>
      </trkpt>
      <trkpt lat="43.95646" lon="7.0721">
        <ele>1013</ele>
        <time>2012-11-24T08:52:47Z</time>
      </trkpt>
      <trkpt lat="43.95654" lon="7.0721">
        <ele>1013.8</ele>
        <time>2012-11-24T08:52:53Z</time>
      </trkpt>
      <trkpt lat="43.95663" lon="7.07211">
        <ele>1014.9</ele>
        <time>2012-11-24T08:52:59Z</time>
      </trkpt>
      <trkpt lat="43.95672" lon="7.07213">
        <ele>1016.6</ele>
        <time>2012-11-24T08:53:05Z</time>
      </trkpt>
      <trkpt lat="43.9568" lon="7.07213">
        <ele>1018.5</ele>
        <time>2012-11-24T08:53:10Z</time>
      </trkpt>
      <trkpt lat="43.95688" lon="7.07212">
        <ele>1019.2</ele>
        <time>2012-11-24T08:53:15Z</time>
      </trkpt>
      <trkpt lat="43.95697" lon="7.07211">
        <ele>1020.8</ele>
        <time>2012-11-24T08:53:21Z</time>
      </trkpt>
      <trkpt lat="43.95705" lon="7.0721">
        <ele>1021.6</ele>
        <time>2012-11-24T08:53:27Z</time>
      </trkpt>
      <trkpt lat="43.95707" lon="7.0721">
        <ele>1021.8</ele>
        <time>2012-11-24T08:53:28Z</time>
      </trkpt>
      <trkpt lat="43.95722" lon="7.07208">
        <ele>1024.2</ele>
        <time>2012-11-24T08:53:39Z</time>
      </trkpt>
      <trkpt lat="43.9573" lon="7.07207">
        <ele>1025.6</ele>
        <time>2012-11-24T08:53:45Z</time>
      </trkpt>
      <trkpt lat="43.95738" lon="7.07205">
        <ele>1026.9</ele>
        <time>2012-11-24T08:53:51Z</time>
      </trkpt>
      <trkpt lat="43.95745" lon="7.07201">
        <ele>1027.9</ele>
        <time>2012-11-24T08:53:56Z</time>
      </trkpt>
      <trkpt lat="43.95753" lon="7.07197">
        <ele>1029.8</ele>
        <time>2012-11-24T08:54:02Z</time>
      </trkpt>
      <trkpt lat="43.9576" lon="7.07192">
        <ele>1030.9</ele>
        <time>2012-11-24T08:54:08Z</time>
      </trkpt>
      <trkpt lat="43.95768" lon="7.07187">
        <ele>1031.9</ele>
        <time>2012-11-24T08:54:14Z</time>
      </trkpt>
      <trkpt lat="43.95776" lon="7.07183">
        <ele>1032.9</ele>
        <time>2012-11-24T08:54:20Z</time>
      </trkpt>
      <trkpt lat="43.95784" lon="7.07184">
        <ele>1034.5</ele>
        <time>2012-11-24T08:54:26Z</time>
      </trkpt>
      <trkpt lat="43.95791" lon="7.07189">
        <ele>1036.2</ele>
        <time>2012-11-24T08:54:32Z</time>
      </trkpt>
      <trkpt lat="43.95792" lon="7.07191">
        <ele>1036.3</ele>
        <time>2012-11-24T08:54:33Z</time>
      </trkpt>
      <trkpt lat="43.95806" lon="7.07186">
        <ele>1038.3</ele>
        <time>2012-11-24T08:54:44Z</time>
      </trkpt>
      <trkpt lat="43.95813" lon="7.07179">
        <ele>1039.7</ele>
        <time>2012-11-24T08:54:50Z</time>
      </trkpt>
      <trkpt lat="43.95819" lon="7.07171">
        <ele>1042.3</ele>
        <time>2012-11-24T08:54:56Z</time>
      </trkpt>
      <trkpt lat="43.95826" lon="7.07165">
        <ele>1043.2</ele>
        <time>2012-11-24T08:55:02Z</time>
      </trkpt>
      <trkpt lat="43.95833" lon="7.0716">
        <ele>1043.5</ele>
        <time>2012-11-24T08:55:08Z</time>
      </trkpt>
      <trkpt lat="43.9584" lon="7.07156">
        <ele>1044.8</ele>
        <time>2012-11-24T08:55:14Z</time>
      </trkpt>
      <trkpt lat="43.95848" lon="7.0715">
        <ele>1046.2</ele>
        <time>2012-11-24T08:55:20Z</time>
      </trkpt>
      <trkpt lat="43.95855" lon="7.07144">
        <ele>1046.9</ele>
        <time>2012-11-24T08:55:25Z</time>
      </trkpt>
      <trkpt lat="43.95862" lon="7.07138">
        <ele>1048.2</ele>
        <time>2012-11-24T08:55:30Z</time>
      </trkpt>
      <trkpt lat="43.95869" lon="7.07131">
        <ele>1049.2</ele>
        <time>2012-11-24T08:55:35Z</time>
      </trkpt>
      <trkpt lat="43.95871" lon="7.0713">
        <ele>1049.8</ele>
        <time>2012-11-24T08:55:36Z</time>
      </trkpt>
      <trkpt lat="43.95883" lon="7.07118">
        <ele>1051.2</ele>
        <time>2012-11-24T08:55:44Z</time>
      </trkpt>
      <trkpt lat="43.95891" lon="7.07113">
        <ele>1051.2</ele>
        <time>2012-11-24T08:55:49Z</time>
      </trkpt>
      <trkpt lat="43.95899" lon="7.07109">
        <ele>1052.4</ele>
        <time>2012-11-24T08:55:54Z</time>
      </trkpt>
      <trkpt lat="43.95907" lon="7.07108">
        <ele>1052.8</ele>
        <time>2012-11-24T08:55:59Z</time>
      </trkpt>
      <trkpt lat="43.95916" lon="7.0711">
        <ele>1053.4</ele>
        <time>2012-11-24T08:56:05Z</time>
      </trkpt>
      <trkpt lat="43.95923" lon="7.07115">
        <ele>1053.7</ele>
        <time>2012-11-24T08:56:10Z</time>
      </trkpt>
      <trkpt lat="43.9593" lon="7.07121">
        <ele>1054.4</ele>
        <time>2012-11-24T08:56:15Z</time>
      </trkpt>
      <trkpt lat="43.95936" lon="7.07126">
        <ele>1055.5</ele>
        <time>2012-11-24T08:56:20Z</time>
      </trkpt>
      <trkpt lat="43.95942" lon="7.07131">
        <ele>1056.1</ele>
        <time>2012-11-24T08:56:24Z</time>
      </trkpt>
      <trkpt lat="43.9595" lon="7.07134">
        <ele>1056.6</ele>
        <time>2012-11-24T08:56:29Z</time>
      </trkpt>
      <trkpt lat="43.95959" lon="7.07136">
        <ele>1057.2</ele>
        <time>2012-11-24T08:56:34Z</time>
      </trkpt>
      <trkpt lat="43.95968" lon="7.07136">
        <ele>1057.6</ele>
        <time>2012-11-24T08:56:39Z</time>
      </trkpt>
      <trkpt lat="43.95969" lon="7.07135">
        <ele>1057.7</ele>
        <time>2012-11-24T08:56:40Z</time>
      </trkpt>
      <trkpt lat="43.95984" lon="7.07135">
        <ele>1059.3</ele>
        <time>2012-11-24T08:56:48Z</time>
      </trkpt>
      <trkpt lat="43.95993" lon="7.07135">
        <ele>1059.2</ele>
        <time>2012-11-24T08:56:53Z</time>
      </trkpt>
      <trkpt lat="43.96001" lon="7.07137">
        <ele>1060.1</ele>
        <time>2012-11-24T08:56:58Z</time>
      </trkpt>
      <trkpt lat="43.96009" lon="7.07141">
        <ele>1060.3</ele>
        <time>2012-11-24T08:57:02Z</time>
      </trkpt>
      <trkpt lat="43.96014" lon="7.07147">
        <ele>1060.6</ele>
        <time>2012-11-24T08:57:05Z</time>
      </trkpt>
      <trkpt lat="43.96019" lon="7.07154">
        <ele>1059.7</ele>
        <time>2012-11-24T08:57:08Z</time>
      </trkpt>
      <trkpt lat="43.96024" lon="7.07164">
        <ele>1060.7</ele>
        <time>2012-11-24T08:57:12Z</time>
      </trkpt>
      <trkpt lat="43.96028" lon="7.07172">
        <ele>1061</ele>
        <time>2012-11-24T08:57:17Z</time>
      </trkpt>
      <trkpt lat="43.96034" lon="7.07181">
        <ele>1061.4</ele>
        <time>2012-11-24T08:57:22Z</time>
      </trkpt>
      <trkpt lat="43.9604" lon="7.07188">
        <ele>1062</ele>
        <time>2012-11-24T08:57:27Z</time>
      </trkpt>
      <trkpt lat="43.96046" lon="7.07195">
        <ele>1062.6</ele>
        <time>2012-11-24T08:57:32Z</time>
      </trkpt>
      <trkpt lat="43.96052" lon="7.07202">
        <ele>1063.3</ele>
        <time>2012-11-24T08:57:37Z</time>
      </trkpt>
      <trkpt lat="43.96058" lon="7.0721">
        <ele>1065.4</ele>
        <time>2012-11-24T08:57:42Z</time>
      </trkpt>
      <trkpt lat="43.96059" lon="7.07211">
        <ele>1065.8</ele>
        <time>2012-11-24T08:57:43Z</time>
      </trkpt>
      <trkpt lat="43.96068" lon="7.07228">
        <ele>1068</ele>
        <time>2012-11-24T08:57:56Z</time>
      </trkpt>
      <trkpt lat="43.96075" lon="7.07236">
        <ele>1069.7</ele>
        <time>2012-11-24T08:58:03Z</time>
      </trkpt>
      <trkpt lat="43.96082" lon="7.07243">
        <ele>1071.5</ele>
        <time>2012-11-24T08:58:09Z</time>
      </trkpt>
      <trkpt lat="43.96089" lon="7.07249">
        <ele>1072</ele>
        <time>2012-11-24T08:58:15Z</time>
      </trkpt>
      <trkpt lat="43.96096" lon="7.07257">
        <ele>1073.1</ele>
        <time>2012-11-24T08:58:21Z</time>
      </trkpt>
      <trkpt lat="43.96102" lon="7.07265">
        <ele>1074</ele>
        <time>2012-11-24T08:58:26Z</time>
      </trkpt>
      <trkpt lat="43.96109" lon="7.07271">
        <ele>1074.8</ele>
        <time>2012-11-24T08:58:31Z</time>
      </trkpt>
      <trkpt lat="43.96116" lon="7.07278">
        <ele>1076.1</ele>
        <time>2012-11-24T08:58:36Z</time>
      </trkpt>
      <trkpt lat="43.96124" lon="7.07278">
        <ele>1077.2</ele>
        <time>2012-11-24T08:58:41Z</time>
      </trkpt>
      <trkpt lat="43.96133" lon="7.07274">
        <ele>1077.2</ele>
        <time>2012-11-24T08:58:46Z</time>
      </trkpt>
      <trkpt lat="43.96134" lon="7.07273">
        <ele>1077.2</ele>
        <time>2012-11-24T08:58:47Z</time>
      </trkpt>
      <trkpt lat="43.96147" lon="7.07267">
        <ele>1078.4</ele>
        <time>2012-11-24T08:58:54Z</time>
      </trkpt>
      <trkpt lat="43.96155" lon="7.07264">
        <ele>1078.3</ele>
        <time>2012-11-24T08:58:58Z</time>
      </trkpt>
      <trkpt lat="43.96162" lon="7.07263">
        <ele>1078.8</ele>
        <time>2012-11-24T08:59:02Z</time>
      </trkpt>
      <trkpt lat="43.96171" lon="7.07264">
        <ele>1079.6</ele>
        <time>2012-11-24T08:59:07Z</time>
      </trkpt>
      <trkpt lat="43.96179" lon="7.07269">
        <ele>1080.5</ele>
        <time>2012-11-24T08:59:13Z</time>
      </trkpt>
      <trkpt lat="43.96186" lon="7.07274">
        <ele>1082.6</ele>
        <time>2012-11-24T08:59:19Z</time>
      </trkpt>
      <trkpt lat="43.96194" lon="7.07277">
        <ele>1083.2</ele>
        <time>2012-11-24T08:59:25Z</time>
      </trkpt>
      <trkpt lat="43.96202" lon="7.07279">
        <ele>1084.5</ele>
        <time>2012-11-24T08:59:31Z</time>
      </trkpt>
      <trkpt lat="43.96211" lon="7.07277">
        <ele>1085.2</ele>
        <time>2012-11-24T08:59:37Z</time>
      </trkpt>
      <trkpt lat="43.96219" lon="7.07274">
        <ele>1086.6</ele>
        <time>2012-11-24T08:59:43Z</time>
      </trkpt>
      <trkpt lat="43.96228" lon="7.0727">
        <ele>1087.4</ele>
        <time>2012-11-24T08:59:49Z</time>
      </trkpt>
      <trkpt lat="43.96229" lon="7.0727">
        <ele>1088</ele>
        <time>2012-11-24T08:59:50Z</time>
      </trkpt>
      <trkpt lat="43.96243" lon="7.07265">
        <ele>1090.5</ele>
        <time>2012-11-24T09:00:01Z</time>
      </trkpt>
      <trkpt lat="43.96251" lon="7.07262">
        <ele>1092</ele>
        <time>2012-11-24T09:00:07Z</time>
      </trkpt>
      <trkpt lat="43.9626" lon="7.07262">
        <ele>1093.7</ele>
        <time>2012-11-24T09:00:13Z</time>
      </trkpt>
      <trkpt lat="43.96268" lon="7.07262">
        <ele>1095.5</ele>
        <time>2012-11-24T09:00:45Z</time>
      </trkpt>
      <trkpt lat="43.96277" lon="7.07264">
        <ele>1097.4</ele>
        <time>2012-11-24T09:00:56Z</time>
      </trkpt>
      <trkpt lat="43.96278" lon="7.07264">
        <ele>1097.2</ele>
        <time>2012-11-24T09:00:57Z</time>
      </trkpt>
      <trkpt lat="43.96294" lon="7.07267">
        <ele>1101.6</ele>
        <time>2012-11-24T09:01:20Z</time>
      </trkpt>
      <trkpt lat="43.96302" lon="7.07263">
        <ele>1104.6</ele>
        <time>2012-11-24T09:01:35Z</time>
      </trkpt>
      <trkpt lat="43.9631" lon="7.07258">
        <ele>1108</ele>
        <time>2012-11-24T09:01:52Z</time>
      </trkpt>
      <trkpt lat="43.96319" lon="7.07257">
        <ele>1110.5</ele>
        <time>2012-11-24T09:02:04Z</time>
      </trkpt>
      <trkpt lat="43.9632" lon="7.07257">
        <ele>1110.9</ele>
        <time>2012-11-24T09:02:05Z</time>
      </trkpt>
      <trkpt lat="43.96333" lon="7.0725">
        <ele>1114</ele>
        <time>2012-11-24T09:02:28Z</time>
      </trkpt>
      <trkpt lat="43.96339" lon="7.07242">
        <ele>1114.9</ele>
        <time>2012-11-24T09:02:40Z</time>
      </trkpt>
      <trkpt lat="43.96348" lon="7.07238">
        <ele>1114.9</ele>
        <time>2012-11-24T09:02:50Z</time>
      </trkpt>
      <trkpt lat="43.96354" lon="7.07233">
        <ele>1115.9</ele>
        <time>2012-11-24T09:02:54Z</time>
      </trkpt>
      <trkpt lat="43.96361" lon="7.07227">
        <ele>1116</ele>
        <time>2012-11-24T09:02:58Z</time>
      </trkpt>
      <trkpt lat="43.96368" lon="7.07222">
        <ele>1116.4</ele>
        <time>2012-11-24T09:03:02Z</time>
      </trkpt>
      <trkpt lat="43.96376" lon="7.07218">
        <ele>1118</ele>
        <time>2012-11-24T09:03:07Z</time>
      </trkpt>
      <trkpt lat="43.96378" lon="7.07217">
        <ele>1118.1</ele>
        <time>2012-11-24T09:03:08Z</time>
      </trkpt>
      <trkpt lat="43.96393" lon="7.0722">
        <ele>1119.8</ele>
        <time>2012-11-24T09:03:17Z</time>
      </trkpt>
      <trkpt lat="43.96401" lon="7.07221">
        <ele>1121.2</ele>
        <time>2012-11-24T09:03:21Z</time>
      </trkpt>
      <trkpt lat="43.96409" lon="7.07224">
        <ele>1121.7</ele>
        <time>2012-11-24T09:03:25Z</time>
      </trkpt>
      <trkpt lat="43.96416" lon="7.07226">
        <ele>1122.2</ele>
        <time>2012-11-24T09:03:29Z</time>
      </trkpt>
      <trkpt lat="43.96423" lon="7.07227">
        <ele>1122.4</ele>
        <time>2012-11-24T09:03:33Z</time>
      </trkpt>
      <trkpt lat="43.9643" lon="7.07229">
        <ele>1123.2</ele>
        <time>2012-11-24T09:03:37Z</time>
      </trkpt>
      <trkpt lat="43.96438" lon="7.07227">
        <ele>1124.3</ele>
        <time>2012-11-24T09:03:41Z</time>
      </trkpt>
      <trkpt lat="43.96446" lon="7.07227">
        <ele>1125.1</ele>
        <time>2012-11-24T09:03:45Z</time>
      </trkpt>
      <trkpt lat="43.96454" lon="7.07225">
        <ele>1125.5</ele>
        <time>2012-11-24T09:03:49Z</time>
      </trkpt>
      <trkpt lat="43.96461" lon="7.07224">
        <ele>1126.1</ele>
        <time>2012-11-24T09:03:52Z</time>
      </trkpt>
      <trkpt lat="43.96469" lon="7.07222">
        <ele>1126.5</ele>
        <time>2012-11-24T09:03:55Z</time>
      </trkpt>
      <trkpt lat="43.96477" lon="7.07219">
        <ele>1127.2</ele>
        <time>2012-11-24T09:03:58Z</time>
      </trkpt>
      <trkpt lat="43.96483" lon="7.07216">
        <ele>1127.4</ele>
        <time>2012-11-24T09:04:00Z</time>
      </trkpt>
      <trkpt lat="43.96489" lon="7.07212">
        <ele>1127.4</ele>
        <time>2012-11-24T09:04:02Z</time>
      </trkpt>
      <trkpt lat="43.96495" lon="7.07209">
        <ele>1127.6</ele>
        <time>2012-11-24T09:04:04Z</time>
      </trkpt>
      <trkpt lat="43.96501" lon="7.07207">
        <ele>1127.7</ele>
        <time>2012-11-24T09:04:06Z</time>
      </trkpt>
      <trkpt lat="43.9651" lon="7.07205">
        <ele>1127.7</ele>
        <time>2012-11-24T09:04:09Z</time>
      </trkpt>
      <trkpt lat="43.96513" lon="7.07204">
        <ele>1127.9</ele>
        <time>2012-11-24T09:04:10Z</time>
      </trkpt>
      <trkpt lat="43.96522" lon="7.072">
        <ele>1128.5</ele>
        <time>2012-11-24T09:04:13Z</time>
      </trkpt>
      <trkpt lat="43.96529" lon="7.07197">
        <ele>1128.1</ele>
        <time>2012-11-24T09:04:15Z</time>
      </trkpt>
      <trkpt lat="43.96536" lon="7.07194">
        <ele>1128.2</ele>
        <time>2012-11-24T09:04:17Z</time>
      </trkpt>
      <trkpt lat="43.96542" lon="7.07191">
        <ele>1128.2</ele>
        <time>2012-11-24T09:04:19Z</time>
      </trkpt>
      <trkpt lat="43.96548" lon="7.07189">
        <ele>1127.9</ele>
        <time>2012-11-24T09:04:21Z</time>
      </trkpt>
      <trkpt lat="43.96556" lon="7.07184">
        <ele>1128.2</ele>
        <time>2012-11-24T09:04:24Z</time>
      </trkpt>
      <trkpt lat="43.96564" lon="7.07178">
        <ele>1128.5</ele>
        <time>2012-11-24T09:04:27Z</time>
      </trkpt>
      <trkpt lat="43.96572" lon="7.07173">
        <ele>1128.6</ele>
        <time>2012-11-24T09:04:30Z</time>
      </trkpt>
      <trkpt lat="43.96579" lon="7.0717">
        <ele>1129.3</ele>
        <time>2012-11-24T09:04:33Z</time>
      </trkpt>
      <trkpt lat="43.96587" lon="7.07169">
        <ele>1130.2</ele>
        <time>2012-11-24T09:04:36Z</time>
      </trkpt>
      <trkpt lat="43.96594" lon="7.07168">
        <ele>1130.8</ele>
        <time>2012-11-24T09:04:39Z</time>
      </trkpt>
      <trkpt lat="43.96602" lon="7.07169">
        <ele>1131.6</ele>
        <time>2012-11-24T09:04:43Z</time>
      </trkpt>
      <trkpt lat="43.96609" lon="7.07161">
        <ele>1131.6</ele>
        <time>2012-11-24T09:06:13Z</time>
      </trkpt>
      <trkpt lat="43.96611" lon="7.07159">
        <ele>1131.7</ele>
        <time>2012-11-24T09:06:14Z</time>
      </trkpt>
      <trkpt lat="43.96619" lon="7.07162">
        <ele>1130</ele>
        <time>2012-11-24T09:09:43Z</time>
      </trkpt>
      <trkpt lat="43.96633" lon="7.07166">
        <ele>1130.7</ele>
        <time>2012-11-24T09:09:49Z</time>
      </trkpt>
      <trkpt lat="43.96641" lon="7.07169">
        <ele>1130.1</ele>
        <time>2012-11-24T09:09:51Z</time>
      </trkpt>
      <trkpt lat="43.96646" lon="7.07171">
        <ele>1129.7</ele>
        <time>2012-11-24T09:09:53Z</time>
      </trkpt>
      <trkpt lat="43.96653" lon="7.07173">
        <ele>1129.5</ele>
        <time>2012-11-24T09:09:55Z</time>
      </trkpt>
      <trkpt lat="43.9666" lon="7.07176">
        <ele>1128.9</ele>
        <time>2012-11-24T09:09:57Z</time>
      </trkpt>
      <trkpt lat="43.96667" lon="7.07178">
        <ele>1128.3</ele>
        <time>2012-11-24T09:09:59Z</time>
      </trkpt>
      <trkpt lat="43.96674" lon="7.07179">
        <ele>1128.1</ele>
        <time>2012-11-24T09:10:01Z</time>
      </trkpt>
      <trkpt lat="43.96681" lon="7.0718">
        <ele>1127.8</ele>
        <time>2012-11-24T09:10:03Z</time>
      </trkpt>
      <trkpt lat="43.96689" lon="7.07182">
        <ele>1126.9</ele>
        <time>2012-11-24T09:10:05Z</time>
      </trkpt>
      <trkpt lat="43.96697" lon="7.07184">
        <ele>1126.5</ele>
        <time>2012-11-24T09:10:07Z</time>
      </trkpt>
      <trkpt lat="43.96705" lon="7.07187">
        <ele>1126.5</ele>
        <time>2012-11-24T09:10:09Z</time>
      </trkpt>
      <trkpt lat="43.96713" lon="7.07189">
        <ele>1126.4</ele>
        <time>2012-11-24T09:10:11Z</time>
      </trkpt>
      <trkpt lat="43.9672" lon="7.07191">
        <ele>1126.7</ele>
        <time>2012-11-24T09:10:13Z</time>
      </trkpt>
      <trkpt lat="43.96727" lon="7.07194">
        <ele>1126.8</ele>
        <time>2012-11-24T09:10:15Z</time>
      </trkpt>
      <trkpt lat="43.96734" lon="7.07195">
        <ele>1126.7</ele>
        <time>2012-11-24T09:10:17Z</time>
      </trkpt>
      <trkpt lat="43.96741" lon="7.07196">
        <ele>1126.5</ele>
        <time>2012-11-24T09:10:19Z</time>
      </trkpt>
      <trkpt lat="43.96748" lon="7.07198">
        <ele>1126.4</ele>
        <time>2012-11-24T09:10:21Z</time>
      </trkpt>
      <trkpt lat="43.96755" lon="7.072">
        <ele>1126.2</ele>
        <time>2012-11-24T09:10:23Z</time>
      </trkpt>
      <trkpt lat="43.96762" lon="7.07202">
        <ele>1125.9</ele>
        <time>2012-11-24T09:10:25Z</time>
      </trkpt>
      <trkpt lat="43.96768" lon="7.07205">
        <ele>1126</ele>
        <time>2012-11-24T09:10:27Z</time>
      </trkpt>
      <trkpt lat="43.96776" lon="7.07208">
        <ele>1125.5</ele>
        <time>2012-11-24T09:10:29Z</time>
      </trkpt>
      <trkpt lat="43.96783" lon="7.07211">
        <ele>1125</ele>
        <time>2012-11-24T09:10:31Z</time>
      </trkpt>
      <trkpt lat="43.96789" lon="7.07214">
        <ele>1124.8</ele>
        <time>2012-11-24T09:10:33Z</time>
      </trkpt>
      <trkpt lat="43.96796" lon="7.07216">
        <ele>1124.7</ele>
        <time>2012-11-24T09:10:35Z</time>
      </trkpt>
      <trkpt lat="43.96803" lon="7.07218">
        <ele>1124.5</ele>
        <time>2012-11-24T09:10:37Z</time>
      </trkpt>
      <trkpt lat="43.96811" lon="7.0722">
        <ele>1124</ele>
        <time>2012-11-24T09:10:39Z</time>
      </trkpt>
      <trkpt lat="43.9682" lon="7.07223">
        <ele>1123.4</ele>
        <time>2012-11-24T09:10:41Z</time>
      </trkpt>
      <trkpt lat="43.96826" lon="7.07225">
        <ele>1123.2</ele>
        <time>2012-11-24T09:10:43Z</time>
      </trkpt>
      <trkpt lat="43.9683" lon="7.07226">
        <ele>1123.3</ele>
        <time>2012-11-24T09:10:44Z</time>
      </trkpt>
      <trkpt lat="43.96842" lon="7.07228">
        <ele>1123.1</ele>
        <time>2012-11-24T09:10:47Z</time>
      </trkpt>
      <trkpt lat="43.9685" lon="7.0723">
        <ele>1122.6</ele>
        <time>2012-11-24T09:10:49Z</time>
      </trkpt>
      <trkpt lat="43.96857" lon="7.07231">
        <ele>1122.1</ele>
        <time>2012-11-24T09:10:51Z</time>
      </trkpt>
      <trkpt lat="43.96865" lon="7.07232">
        <ele>1121.8</ele>
        <time>2012-11-24T09:10:53Z</time>
      </trkpt>
      <trkpt lat="43.96873" lon="7.07232">
        <ele>1121.6</ele>
        <time>2012-11-24T09:10:55Z</time>
      </trkpt>
      <trkpt lat="43.96882" lon="7.07233">
        <ele>1121.3</ele>
        <time>2012-11-24T09:10:57Z</time>
      </trkpt>
      <trkpt lat="43.96891" lon="7.07234">
        <ele>1120.9</ele>
        <time>2012-11-24T09:10:59Z</time>
      </trkpt>
      <trkpt lat="43.96899" lon="7.07236">
        <ele>1120.8</ele>
        <time>2012-11-24T09:11:01Z</time>
      </trkpt>
      <trkpt lat="43.96908" lon="7.07238">
        <ele>1120.4</ele>
        <time>2012-11-24T09:11:03Z</time>
      </trkpt>
      <trkpt lat="43.96916" lon="7.0724">
        <ele>1120.4</ele>
        <time>2012-11-24T09:11:05Z</time>
      </trkpt>
      <trkpt lat="43.96923" lon="7.07242">
        <ele>1120.2</ele>
        <time>2012-11-24T09:11:07Z</time>
      </trkpt>
      <trkpt lat="43.96931" lon="7.07243">
        <ele>1120</ele>
        <time>2012-11-24T09:11:09Z</time>
      </trkpt>
      <trkpt lat="43.9694" lon="7.07246">
        <ele>1119.9</ele>
        <time>2012-11-24T09:11:11Z</time>
      </trkpt>
      <trkpt lat="43.96948" lon="7.07249">
        <ele>1119.9</ele>
        <time>2012-11-24T09:11:13Z</time>
      </trkpt>
      <trkpt lat="43.96953" lon="7.0725">
        <ele>1119.7</ele>
        <time>2012-11-24T09:11:14Z</time>
      </trkpt>
      <trkpt lat="43.96961" lon="7.07253">
        <ele>1119.4</ele>
        <time>2012-11-24T09:11:16Z</time>
      </trkpt>
      <trkpt lat="43.96968" lon="7.07256">
        <ele>1119.3</ele>
        <time>2012-11-24T09:11:18Z</time>
      </trkpt>
      <trkpt lat="43.96975" lon="7.07259">
        <ele>1119.2</ele>
        <time>2012-11-24T09:11:20Z</time>
      </trkpt>
      <trkpt lat="43.96982" lon="7.07262">
        <ele>1119.4</ele>
        <time>2012-11-24T09:11:22Z</time>
      </trkpt>
      <trkpt lat="43.9699" lon="7.07264">
        <ele>1120</ele>
        <time>2012-11-24T09:11:24Z</time>
      </trkpt>
      <trkpt lat="43.96996" lon="7.07266">
        <ele>1120.2</ele>
        <time>2012-11-24T09:11:26Z</time>
      </trkpt>
      <trkpt lat="43.97004" lon="7.07268">
        <ele>1120.3</ele>
        <time>2012-11-24T09:11:28Z</time>
      </trkpt>
      <trkpt lat="43.97011" lon="7.07272">
        <ele>1120.5</ele>
        <time>2012-11-24T09:11:30Z</time>
      </trkpt>
      <trkpt lat="43.97016" lon="7.07274">
        <ele>1120.5</ele>
        <time>2012-11-24T09:11:31Z</time>
      </trkpt>
      <trkpt lat="43.9702" lon="7.07276">
        <ele>1120.5</ele>
        <time>2012-11-24T09:11:32Z</time>
      </trkpt>
      <trkpt lat="43.97024" lon="7.07279">
        <ele>1120.1</ele>
        <time>2012-11-24T09:11:33Z</time>
      </trkpt>
      <trkpt lat="43.97029" lon="7.07281">
        <ele>1119.8</ele>
        <time>2012-11-24T09:11:34Z</time>
      </trkpt>
      <trkpt lat="43.97033" lon="7.07283">
        <ele>1119.8</ele>
        <time>2012-11-24T09:11:35Z</time>
      </trkpt>
      <trkpt lat="43.97038" lon="7.07286">
        <ele>1119.8</ele>
        <time>2012-11-24T09:11:36Z</time>
      </trkpt>
      <trkpt lat="43.97045" lon="7.07292">
        <ele>1119.6</ele>
        <time>2012-11-24T09:11:38Z</time>
      </trkpt>
      <trkpt lat="43.97052" lon="7.07294">
        <ele>1119.5</ele>
        <time>2012-11-24T09:11:40Z</time>
      </trkpt>
      <trkpt lat="43.97059" lon="7.07296">
        <ele>1119.8</ele>
        <time>2012-11-24T09:11:42Z</time>
      </trkpt>
      <trkpt lat="43.97065" lon="7.07297">
        <ele>1120.1</ele>
        <time>2012-11-24T09:11:44Z</time>
      </trkpt>
      <trkpt lat="43.97068" lon="7.07298">
        <ele>1120.3</ele>
        <time>2012-11-24T09:11:45Z</time>
      </trkpt>
      <trkpt lat="43.9708" lon="7.07304">
        <ele>1120.6</ele>
        <time>2012-11-24T09:11:50Z</time>
      </trkpt>
      <trkpt lat="43.97088" lon="7.07307">
        <ele>1120</ele>
        <time>2012-11-24T09:11:55Z</time>
      </trkpt>
      <trkpt lat="43.97097" lon="7.07308">
        <ele>1118.4</ele>
        <time>2012-11-24T09:12:30Z</time>
      </trkpt>
      <trkpt lat="43.97105" lon="7.07311">
        <ele>1118.7</ele>
        <time>2012-11-24T09:13:03Z</time>
      </trkpt>
      <trkpt lat="43.97106" lon="7.07312">
        <ele>1118.4</ele>
        <time>2012-11-24T09:13:04Z</time>
      </trkpt>
      <trkpt lat="43.97115" lon="7.07327">
        <ele>1115.1</ele>
        <time>2012-11-24T09:13:39Z</time>
      </trkpt>
      <trkpt lat="43.97119" lon="7.07336">
        <ele>1114.4</ele>
        <time>2012-11-24T09:13:43Z</time>
      </trkpt>
      <trkpt lat="43.97124" lon="7.07343">
        <ele>1113.8</ele>
        <time>2012-11-24T09:13:46Z</time>
      </trkpt>
      <trkpt lat="43.97131" lon="7.07349">
        <ele>1114</ele>
        <time>2012-11-24T09:13:50Z</time>
      </trkpt>
      <trkpt lat="43.97139" lon="7.07354">
        <ele>1114</ele>
        <time>2012-11-24T09:13:55Z</time>
      </trkpt>
      <trkpt lat="43.97146" lon="7.07361">
        <ele>1115.1</ele>
        <time>2012-11-24T09:14:03Z</time>
      </trkpt>
      <trkpt lat="43.97147" lon="7.07372">
        <ele>1114.4</ele>
        <time>2012-11-24T09:14:08Z</time>
      </trkpt>
      <trkpt lat="43.97147" lon="7.07374">
        <ele>1114.1</ele>
        <time>2012-11-24T09:14:09Z</time>
      </trkpt>
      <trkpt lat="43.97148" lon="7.07394">
        <ele>1115.4</ele>
        <time>2012-11-24T09:14:17Z</time>
      </trkpt>
      <trkpt lat="43.9715" lon="7.07406">
        <ele>1116.4</ele>
        <time>2012-11-24T09:14:22Z</time>
      </trkpt>
      <trkpt lat="43.9715" lon="7.07394">
        <ele>1116</ele>
        <time>2012-11-24T09:14:57Z</time>
      </trkpt>
      <trkpt lat="43.97147" lon="7.07384">
        <ele>1115.6</ele>
        <time>2012-11-24T09:15:00Z</time>
      </trkpt>
      <trkpt lat="43.97147" lon="7.07376">
        <ele>1115.7</ele>
        <time>2012-11-24T09:15:02Z</time>
      </trkpt>
      <trkpt lat="43.97147" lon="7.07367">
        <ele>1116.1</ele>
        <time>2012-11-24T09:15:04Z</time>
      </trkpt>
      <trkpt lat="43.97149" lon="7.07357">
        <ele>1116.7</ele>
        <time>2012-11-24T09:15:07Z</time>
      </trkpt>
      <trkpt lat="43.97154" lon="7.07347">
        <ele>1116.7</ele>
        <time>2012-11-24T09:15:12Z</time>
      </trkpt>
      <trkpt lat="43.97155" lon="7.07345">
        <ele>1116.7</ele>
        <time>2012-11-24T09:15:13Z</time>
      </trkpt>
      <trkpt lat="43.97165" lon="7.07333">
        <ele>1117.6</ele>
        <time>2012-11-24T09:15:20Z</time>
      </trkpt>
      <trkpt lat="43.97172" lon="7.07325">
        <ele>1117.1</ele>
        <time>2012-11-24T09:15:24Z</time>
      </trkpt>
      <trkpt lat="43.97178" lon="7.07318">
        <ele>1118.2</ele>
        <time>2012-11-24T09:16:59Z</time>
      </trkpt>
      <trkpt lat="43.97179" lon="7.07317">
        <ele>1118</ele>
        <time>2012-11-24T09:17:00Z</time>
      </trkpt>
      <trkpt lat="43.9719" lon="7.07308">
        <ele>1117.2</ele>
        <time>2012-11-24T09:17:06Z</time>
      </trkpt>
      <trkpt lat="43.97197" lon="7.07307">
        <ele>1117</ele>
        <time>2012-11-24T09:17:08Z</time>
      </trkpt>
      <trkpt lat="43.97202" lon="7.07306">
        <ele>1117</ele>
        <time>2012-11-24T09:17:09Z</time>
      </trkpt>
      <trkpt lat="43.97207" lon="7.07305">
        <ele>1116.9</ele>
        <time>2012-11-24T09:17:10Z</time>
      </trkpt>
      <trkpt lat="43.97212" lon="7.07305">
        <ele>1116.8</ele>
        <time>2012-11-24T09:17:11Z</time>
      </trkpt>
      <trkpt lat="43.97221" lon="7.07306">
        <ele>1116</ele>
        <time>2012-11-24T09:17:13Z</time>
      </trkpt>
      <trkpt lat="43.97229" lon="7.07306">
        <ele>1116.5</ele>
        <time>2012-11-24T09:17:15Z</time>
      </trkpt>
      <trkpt lat="43.97235" lon="7.07307">
        <ele>1116.9</ele>
        <time>2012-11-24T09:17:17Z</time>
      </trkpt>
      <trkpt lat="43.97242" lon="7.07307">
        <ele>1117.3</ele>
        <time>2012-11-24T09:17:19Z</time>
      </trkpt>
      <trkpt lat="43.97248" lon="7.07307">
        <ele>1117.8</ele>
        <time>2012-11-24T09:17:21Z</time>
      </trkpt>
      <trkpt lat="43.97254" lon="7.07308">
        <ele>1118.3</ele>
        <time>2012-11-24T09:17:23Z</time>
      </trkpt>
      <trkpt lat="43.9726" lon="7.0731">
        <ele>1118.9</ele>
        <time>2012-11-24T09:17:25Z</time>
      </trkpt>
      <trkpt lat="43.97266" lon="7.07312">
        <ele>1119.2</ele>
        <time>2012-11-24T09:17:27Z</time>
      </trkpt>
      <trkpt lat="43.97273" lon="7.07314">
        <ele>1119.6</ele>
        <time>2012-11-24T09:17:29Z</time>
      </trkpt>
      <trkpt lat="43.97279" lon="7.07316">
        <ele>1120</ele>
        <time>2012-11-24T09:17:31Z</time>
      </trkpt>
      <trkpt lat="43.97286" lon="7.07316">
        <ele>1120.2</ele>
        <time>2012-11-24T09:17:33Z</time>
      </trkpt>
      <trkpt lat="43.97292" lon="7.07315">
        <ele>1120.9</ele>
        <time>2012-11-24T09:17:35Z</time>
      </trkpt>
      <trkpt lat="43.97298" lon="7.07312">
        <ele>1121</ele>
        <time>2012-11-24T09:17:37Z</time>
      </trkpt>
      <trkpt lat="43.97304" lon="7.07308">
        <ele>1121.9</ele>
        <time>2012-11-24T09:17:39Z</time>
      </trkpt>
      <trkpt lat="43.97309" lon="7.07304">
        <ele>1122.4</ele>
        <time>2012-11-24T09:17:41Z</time>
      </trkpt>
      <trkpt lat="43.97317" lon="7.07299">
        <ele>1122.6</ele>
        <time>2012-11-24T09:17:44Z</time>
      </trkpt>
      <trkpt lat="43.97325" lon="7.07296">
        <ele>1123.3</ele>
        <time>2012-11-24T09:17:47Z</time>
      </trkpt>
      <trkpt lat="43.97333" lon="7.07294">
        <ele>1123.3</ele>
        <time>2012-11-24T09:17:50Z</time>
      </trkpt>
      <trkpt lat="43.97341" lon="7.0729">
        <ele>1123.1</ele>
        <time>2012-11-24T09:17:53Z</time>
      </trkpt>
      <trkpt lat="43.97349" lon="7.07288">
        <ele>1123.7</ele>
        <time>2012-11-24T09:17:56Z</time>
      </trkpt>
      <trkpt lat="43.97358" lon="7.07287">
        <ele>1124.9</ele>
        <time>2012-11-24T09:17:59Z</time>
      </trkpt>
      <trkpt lat="43.97366" lon="7.07289">
        <ele>1125</ele>
        <time>2012-11-24T09:18:02Z</time>
      </trkpt>
      <trkpt lat="43.97369" lon="7.07289">
        <ele>1125.2</ele>
        <time>2012-11-24T09:18:03Z</time>
      </trkpt>
      <trkpt lat="43.97382" lon="7.07292">
        <ele>1126</ele>
        <time>2012-11-24T09:18:08Z</time>
      </trkpt>
      <trkpt lat="43.9739" lon="7.07296">
        <ele>1126.8</ele>
        <time>2012-11-24T09:18:11Z</time>
      </trkpt>
      <trkpt lat="43.97398" lon="7.07299">
        <ele>1127.1</ele>
        <time>2012-11-24T09:18:14Z</time>
      </trkpt>
      <trkpt lat="43.97406" lon="7.07303">
        <ele>1127.4</ele>
        <time>2012-11-24T09:18:17Z</time>
      </trkpt>
      <trkpt lat="43.97412" lon="7.07301">
        <ele>1127.6</ele>
        <time>2012-11-24T09:18:19Z</time>
      </trkpt>
      <trkpt lat="43.97418" lon="7.07298">
        <ele>1127.7</ele>
        <time>2012-11-24T09:18:21Z</time>
      </trkpt>
      <trkpt lat="43.97424" lon="7.07294">
        <ele>1127.7</ele>
        <time>2012-11-24T09:18:23Z</time>
      </trkpt>
      <trkpt lat="43.97431" lon="7.07289">
        <ele>1127.4</ele>
        <time>2012-11-24T09:18:25Z</time>
      </trkpt>
      <trkpt lat="43.97438" lon="7.07283">
        <ele>1127.5</ele>
        <time>2012-11-24T09:18:27Z</time>
      </trkpt>
      <trkpt lat="43.97445" lon="7.07277">
        <ele>1126.7</ele>
        <time>2012-11-24T09:18:29Z</time>
      </trkpt>
      <trkpt lat="43.97452" lon="7.07273">
        <ele>1126.5</ele>
        <time>2012-11-24T09:18:31Z</time>
      </trkpt>
      <trkpt lat="43.97461" lon="7.0727">
        <ele>1126.4</ele>
        <time>2012-11-24T09:18:33Z</time>
      </trkpt>
      <trkpt lat="43.97465" lon="7.07269">
        <ele>1126.4</ele>
        <time>2012-11-24T09:18:34Z</time>
      </trkpt>
      <trkpt lat="43.9747" lon="7.07269">
        <ele>1126.4</ele>
        <time>2012-11-24T09:18:35Z</time>
      </trkpt>
      <trkpt lat="43.97479" lon="7.07269">
        <ele>1126.5</ele>
        <time>2012-11-24T09:18:37Z</time>
      </trkpt>
      <trkpt lat="43.97483" lon="7.07269">
        <ele>1126.3</ele>
        <time>2012-11-24T09:18:38Z</time>
      </trkpt>
      <trkpt lat="43.97488" lon="7.07269">
        <ele>1126.1</ele>
        <time>2012-11-24T09:18:39Z</time>
      </trkpt>
      <trkpt lat="43.97493" lon="7.07268">
        <ele>1125.9</ele>
        <time>2012-11-24T09:18:40Z</time>
      </trkpt>
      <trkpt lat="43.97497" lon="7.07268">
        <ele>1125.8</ele>
        <time>2012-11-24T09:18:41Z</time>
      </trkpt>
      <trkpt lat="43.97502" lon="7.07267">
        <ele>1125.7</ele>
        <time>2012-11-24T09:18:42Z</time>
      </trkpt>
      <trkpt lat="43.97506" lon="7.07266">
        <ele>1125.4</ele>
        <time>2012-11-24T09:18:43Z</time>
      </trkpt>
      <trkpt lat="43.97511" lon="7.07265">
        <ele>1125.2</ele>
        <time>2012-11-24T09:18:44Z</time>
      </trkpt>
      <trkpt lat="43.9752" lon="7.07264">
        <ele>1125.2</ele>
        <time>2012-11-24T09:18:46Z</time>
      </trkpt>
      <trkpt lat="43.97528" lon="7.07264">
        <ele>1125</ele>
        <time>2012-11-24T09:18:48Z</time>
      </trkpt>
      <trkpt lat="43.97532" lon="7.07266">
        <ele>1124.9</ele>
        <time>2012-11-24T09:18:49Z</time>
      </trkpt>
      <trkpt lat="43.97536" lon="7.07269">
        <ele>1124.8</ele>
        <time>2012-11-24T09:18:50Z</time>
      </trkpt>
      <trkpt lat="43.97541" lon="7.07272">
        <ele>1124.7</ele>
        <time>2012-11-24T09:18:51Z</time>
      </trkpt>
      <trkpt lat="43.97545" lon="7.07276">
        <ele>1124.7</ele>
        <time>2012-11-24T09:18:52Z</time>
      </trkpt>
      <trkpt lat="43.97549" lon="7.07281">
        <ele>1124.7</ele>
        <time>2012-11-24T09:18:53Z</time>
      </trkpt>
      <trkpt lat="43.97552" lon="7.07285">
        <ele>1124.5</ele>
        <time>2012-11-24T09:18:54Z</time>
      </trkpt>
      <trkpt lat="43.97556" lon="7.0729">
        <ele>1124.4</ele>
        <time>2012-11-24T09:18:55Z</time>
      </trkpt>
      <trkpt lat="43.97562" lon="7.07299">
        <ele>1124.4</ele>
        <time>2012-11-24T09:18:57Z</time>
      </trkpt>
      <trkpt lat="43.97567" lon="7.07307">
        <ele>1124</ele>
        <time>2012-11-24T09:18:59Z</time>
      </trkpt>
      <trkpt lat="43.97572" lon="7.07315">
        <ele>1123.4</ele>
        <time>2012-11-24T09:19:01Z</time>
      </trkpt>
      <trkpt lat="43.97576" lon="7.07323">
        <ele>1124.1</ele>
        <time>2012-11-24T09:19:03Z</time>
      </trkpt>
      <trkpt lat="43.97579" lon="7.07326">
        <ele>1124.3</ele>
        <time>2012-11-24T09:19:04Z</time>
      </trkpt>
      <trkpt lat="43.97589" lon="7.07335">
        <ele>1124.7</ele>
        <time>2012-11-24T09:19:07Z</time>
      </trkpt>
      <trkpt lat="43.97593" lon="7.07338">
        <ele>1124.8</ele>
        <time>2012-11-24T09:19:08Z</time>
      </trkpt>
      <trkpt lat="43.97596" lon="7.07342">
        <ele>1124.3</ele>
        <time>2012-11-24T09:19:09Z</time>
      </trkpt>
      <trkpt lat="43.976" lon="7.07347">
        <ele>1124</ele>
        <time>2012-11-24T09:19:10Z</time>
      </trkpt>
      <trkpt lat="43.97603" lon="7.07352">
        <ele>1124.1</ele>
        <time>2012-11-24T09:19:11Z</time>
      </trkpt>
      <trkpt lat="43.97606" lon="7.07357">
        <ele>1124.2</ele>
        <time>2012-11-24T09:19:12Z</time>
      </trkpt>
      <trkpt lat="43.97609" lon="7.07362">
        <ele>1124.2</ele>
        <time>2012-11-24T09:19:13Z</time>
      </trkpt>
      <trkpt lat="43.97613" lon="7.07366">
        <ele>1124.2</ele>
        <time>2012-11-24T09:19:14Z</time>
      </trkpt>
      <trkpt lat="43.97619" lon="7.07374">
        <ele>1124.1</ele>
        <time>2012-11-24T09:19:16Z</time>
      </trkpt>
      <trkpt lat="43.97625" lon="7.07382">
        <ele>1124</ele>
        <time>2012-11-24T09:19:18Z</time>
      </trkpt>
      <trkpt lat="43.97632" lon="7.07389">
        <ele>1124</ele>
        <time>2012-11-24T09:19:20Z</time>
      </trkpt>
      <trkpt lat="43.97636" lon="7.07392">
        <ele>1124.4</ele>
        <time>2012-11-24T09:19:21Z</time>
      </trkpt>
      <trkpt lat="43.97643" lon="7.074">
        <ele>1124.4</ele>
        <time>2012-11-24T09:19:23Z</time>
      </trkpt>
      <trkpt lat="43.97647" lon="7.07404">
        <ele>1124.3</ele>
        <time>2012-11-24T09:19:24Z</time>
      </trkpt>
      <trkpt lat="43.9765" lon="7.07408">
        <ele>1124.3</ele>
        <time>2012-11-24T09:19:25Z</time>
      </trkpt>
      <trkpt lat="43.97658" lon="7.07414">
        <ele>1124.3</ele>
        <time>2012-11-24T09:19:27Z</time>
      </trkpt>
      <trkpt lat="43.97666" lon="7.07419">
        <ele>1125.3</ele>
        <time>2012-11-24T09:19:29Z</time>
      </trkpt>
      <trkpt lat="43.97673" lon="7.07424">
        <ele>1125.3</ele>
        <time>2012-11-24T09:19:31Z</time>
      </trkpt>
      <trkpt lat="43.97679" lon="7.07431">
        <ele>1126.5</ele>
        <time>2012-11-24T09:19:33Z</time>
      </trkpt>
      <trkpt lat="43.97684" lon="7.07439">
        <ele>1127.1</ele>
        <time>2012-11-24T09:19:35Z</time>
      </trkpt>
      <trkpt lat="43.97689" lon="7.07446">
        <ele>1127.4</ele>
        <time>2012-11-24T09:19:37Z</time>
      </trkpt>
      <trkpt lat="43.97694" lon="7.07454">
        <ele>1127.9</ele>
        <time>2012-11-24T09:19:39Z</time>
      </trkpt>
      <trkpt lat="43.977" lon="7.07461">
        <ele>1128.3</ele>
        <time>2012-11-24T09:19:41Z</time>
      </trkpt>
      <trkpt lat="43.97706" lon="7.07469">
        <ele>1128.8</ele>
        <time>2012-11-24T09:19:43Z</time>
      </trkpt>
      <trkpt lat="43.9771" lon="7.07472">
        <ele>1129.1</ele>
        <time>2012-11-24T09:19:44Z</time>
      </trkpt>
      <trkpt lat="43.97718" lon="7.07479">
        <ele>1129.5</ele>
        <time>2012-11-24T09:19:46Z</time>
      </trkpt>
      <trkpt lat="43.97724" lon="7.07486">
        <ele>1129.3</ele>
        <time>2012-11-24T09:19:48Z</time>
      </trkpt>
      <trkpt lat="43.97732" lon="7.07491">
        <ele>1129.1</ele>
        <time>2012-11-24T09:19:50Z</time>
      </trkpt>
      <trkpt lat="43.97739" lon="7.07496">
        <ele>1129.3</ele>
        <time>2012-11-24T09:19:52Z</time>
      </trkpt>
      <trkpt lat="43.97744" lon="7.07499">
        <ele>1129.4</ele>
        <time>2012-11-24T09:19:53Z</time>
      </trkpt>
      <trkpt lat="43.97748" lon="7.07502">
        <ele>1129.4</ele>
        <time>2012-11-24T09:19:54Z</time>
      </trkpt>
      <trkpt lat="43.97753" lon="7.07505">
        <ele>1129.4</ele>
        <time>2012-11-24T09:19:55Z</time>
      </trkpt>
      <trkpt lat="43.97757" lon="7.07509">
        <ele>1128.8</ele>
        <time>2012-11-24T09:19:56Z</time>
      </trkpt>
      <trkpt lat="43.97762" lon="7.07512">
        <ele>1128.4</ele>
        <time>2012-11-24T09:19:57Z</time>
      </trkpt>
      <trkpt lat="43.97767" lon="7.07516">
        <ele>1127.7</ele>
        <time>2012-11-24T09:19:58Z</time>
      </trkpt>
      <trkpt lat="43.97771" lon="7.07521">
        <ele>1127.2</ele>
        <time>2012-11-24T09:19:59Z</time>
      </trkpt>
      <trkpt lat="43.97776" lon="7.07525">
        <ele>1126.9</ele>
        <time>2012-11-24T09:20:00Z</time>
      </trkpt>
      <trkpt lat="43.9778" lon="7.0753">
        <ele>1126.9</ele>
        <time>2012-11-24T09:20:01Z</time>
      </trkpt>
      <trkpt lat="43.97785" lon="7.07533">
        <ele>1126.9</ele>
        <time>2012-11-24T09:20:02Z</time>
      </trkpt>
      <trkpt lat="43.97789" lon="7.07537">
        <ele>1126.4</ele>
        <time>2012-11-24T09:20:03Z</time>
      </trkpt>
      <trkpt lat="43.97794" lon="7.0754">
        <ele>1126.1</ele>
        <time>2012-11-24T09:20:04Z</time>
      </trkpt>
      <trkpt lat="43.97799" lon="7.07543">
        <ele>1125.8</ele>
        <time>2012-11-24T09:20:05Z</time>
      </trkpt>
      <trkpt lat="43.97803" lon="7.07546">
        <ele>1125.9</ele>
        <time>2012-11-24T09:20:06Z</time>
      </trkpt>
      <trkpt lat="43.97811" lon="7.0755">
        <ele>1125.5</ele>
        <time>2012-11-24T09:20:08Z</time>
      </trkpt>
      <trkpt lat="43.97818" lon="7.07553">
        <ele>1124.3</ele>
        <time>2012-11-24T09:20:11Z</time>
      </trkpt>
      <trkpt lat="43.97827" lon="7.07555">
        <ele>1123.5</ele>
        <time>2012-11-24T09:20:14Z</time>
      </trkpt>
      <trkpt lat="43.97834" lon="7.07558">
        <ele>1121.8</ele>
        <time>2012-11-24T09:20:18Z</time>
      </trkpt>
      <trkpt lat="43.97841" lon="7.07562">
        <ele>1121.2</ele>
        <time>2012-11-24T09:20:22Z</time>
      </trkpt>
      <trkpt lat="43.97848" lon="7.07566">
        <ele>1121.4</ele>
        <time>2012-11-24T09:20:25Z</time>
      </trkpt>
      <trkpt lat="43.97856" lon="7.07569">
        <ele>1121.9</ele>
        <time>2012-11-24T09:20:28Z</time>
      </trkpt>
      <trkpt lat="43.97864" lon="7.07571">
        <ele>1122.2</ele>
        <time>2012-11-24T09:20:31Z</time>
      </trkpt>
      <trkpt lat="43.97871" lon="7.07572">
        <ele>1123.3</ele>
        <time>2012-11-24T09:20:34Z</time>
      </trkpt>
      <trkpt lat="43.9788" lon="7.07573">
        <ele>1124.2</ele>
        <time>2012-11-24T09:20:37Z</time>
      </trkpt>
      <trkpt lat="43.97888" lon="7.07573">
        <ele>1124</ele>
        <time>2012-11-24T09:20:39Z</time>
      </trkpt>
      <trkpt lat="43.97895" lon="7.07574">
        <ele>1123.5</ele>
        <time>2012-11-24T09:20:41Z</time>
      </trkpt>
      <trkpt lat="43.97902" lon="7.07576">
        <ele>1123.6</ele>
        <time>2012-11-24T09:20:44Z</time>
      </trkpt>
      <trkpt lat="43.9791" lon="7.07579">
        <ele>1124.5</ele>
        <time>2012-11-24T09:20:48Z</time>
      </trkpt>
      <trkpt lat="43.97918" lon="7.07584">
        <ele>1124.7</ele>
        <time>2012-11-24T09:20:52Z</time>
      </trkpt>
      <trkpt lat="43.97926" lon="7.07588">
        <ele>1125.2</ele>
        <time>2012-11-24T09:20:57Z</time>
      </trkpt>
      <trkpt lat="43.97934" lon="7.07591">
        <ele>1126.3</ele>
        <time>2012-11-24T09:21:40Z</time>
      </trkpt>
      <trkpt lat="43.97936" lon="7.07591">
        <ele>1126.4</ele>
        <time>2012-11-24T09:21:41Z</time>
      </trkpt>
      <trkpt lat="43.97949" lon="7.07595">
        <ele>1127.2</ele>
        <time>2012-11-24T09:21:48Z</time>
      </trkpt>
      <trkpt lat="43.97958" lon="7.07599">
        <ele>1128.5</ele>
        <time>2012-11-24T09:21:52Z</time>
      </trkpt>
      <trkpt lat="43.97965" lon="7.07603">
        <ele>1129.3</ele>
        <time>2012-11-24T09:21:55Z</time>
      </trkpt>
      <trkpt lat="43.97971" lon="7.07608">
        <ele>1129.1</ele>
        <time>2012-11-24T09:21:58Z</time>
      </trkpt>
      <trkpt lat="43.97978" lon="7.07614">
        <ele>1129.4</ele>
        <time>2012-11-24T09:22:01Z</time>
      </trkpt>
      <trkpt lat="43.97984" lon="7.07619">
        <ele>1130.1</ele>
        <time>2012-11-24T09:22:04Z</time>
      </trkpt>
      <trkpt lat="43.97991" lon="7.07624">
        <ele>1130.7</ele>
        <time>2012-11-24T09:22:07Z</time>
      </trkpt>
      <trkpt lat="43.97998" lon="7.07628">
        <ele>1131.3</ele>
        <time>2012-11-24T09:22:10Z</time>
      </trkpt>
      <trkpt lat="43.98005" lon="7.07631">
        <ele>1132.1</ele>
        <time>2012-11-24T09:22:13Z</time>
      </trkpt>
      <trkpt lat="43.98011" lon="7.07635">
        <ele>1132.6</ele>
        <time>2012-11-24T09:22:16Z</time>
      </trkpt>
      <trkpt lat="43.98017" lon="7.07642">
        <ele>1133.1</ele>
        <time>2012-11-24T09:22:19Z</time>
      </trkpt>
      <trkpt lat="43.98021" lon="7.07651">
        <ele>1134.6</ele>
        <time>2012-11-24T09:22:22Z</time>
      </trkpt>
      <trkpt lat="43.98025" lon="7.0766">
        <ele>1134.9</ele>
        <time>2012-11-24T09:22:25Z</time>
      </trkpt>
      <trkpt lat="43.9803" lon="7.07671">
        <ele>1135.9</ele>
        <time>2012-11-24T09:22:28Z</time>
      </trkpt>
      <trkpt lat="43.98034" lon="7.07681">
        <ele>1136.6</ele>
        <time>2012-11-24T09:22:31Z</time>
      </trkpt>
      <trkpt lat="43.98037" lon="7.07692">
        <ele>1136.9</ele>
        <time>2012-11-24T09:22:34Z</time>
      </trkpt>
      <trkpt lat="43.9804" lon="7.07703">
        <ele>1137.3</ele>
        <time>2012-11-24T09:22:37Z</time>
      </trkpt>
      <trkpt lat="43.98043" lon="7.07713">
        <ele>1137.4</ele>
        <time>2012-11-24T09:22:40Z</time>
      </trkpt>
      <trkpt lat="43.98046" lon="7.07723">
        <ele>1137.7</ele>
        <time>2012-11-24T09:22:43Z</time>
      </trkpt>
      <trkpt lat="43.98048" lon="7.07727">
        <ele>1137.7</ele>
        <time>2012-11-24T09:22:44Z</time>
      </trkpt>
      <trkpt lat="43.98053" lon="7.07744">
        <ele>1138.7</ele>
        <time>2012-11-24T09:22:49Z</time>
      </trkpt>
      <trkpt lat="43.98055" lon="7.07755">
        <ele>1139</ele>
        <time>2012-11-24T09:22:52Z</time>
      </trkpt>
      <trkpt lat="43.98057" lon="7.07766">
        <ele>1139.8</ele>
        <time>2012-11-24T09:22:55Z</time>
      </trkpt>
      <trkpt lat="43.9806" lon="7.07778">
        <ele>1140.3</ele>
        <time>2012-11-24T09:22:58Z</time>
      </trkpt>
      <trkpt lat="43.98062" lon="7.07789">
        <ele>1140.9</ele>
        <time>2012-11-24T09:23:01Z</time>
      </trkpt>
      <trkpt lat="43.98065" lon="7.07801">
        <ele>1140.9</ele>
        <time>2012-11-24T09:23:04Z</time>
      </trkpt>
      <trkpt lat="43.98067" lon="7.07809">
        <ele>1141.1</ele>
        <time>2012-11-24T09:23:06Z</time>
      </trkpt>
      <trkpt lat="43.98068" lon="7.07817">
        <ele>1141.6</ele>
        <time>2012-11-24T09:23:08Z</time>
      </trkpt>
      <trkpt lat="43.9807" lon="7.07825">
        <ele>1142</ele>
        <time>2012-11-24T09:23:10Z</time>
      </trkpt>
      <trkpt lat="43.98072" lon="7.07833">
        <ele>1142.7</ele>
        <time>2012-11-24T09:23:12Z</time>
      </trkpt>
      <trkpt lat="43.98073" lon="7.07841">
        <ele>1142.1</ele>
        <time>2012-11-24T09:23:14Z</time>
      </trkpt>
      <trkpt lat="43.98075" lon="7.0785">
        <ele>1142.2</ele>
        <time>2012-11-24T09:23:16Z</time>
      </trkpt>
      <trkpt lat="43.98076" lon="7.07858">
        <ele>1142.8</ele>
        <time>2012-11-24T09:23:18Z</time>
      </trkpt>
      <trkpt lat="43.98078" lon="7.07867">
        <ele>1143.3</ele>
        <time>2012-11-24T09:23:20Z</time>
      </trkpt>
      <trkpt lat="43.98079" lon="7.07875">
        <ele>1143.3</ele>
        <time>2012-11-24T09:23:22Z</time>
      </trkpt>
      <trkpt lat="43.98081" lon="7.07884">
        <ele>1143.5</ele>
        <time>2012-11-24T09:23:24Z</time>
      </trkpt>
      <trkpt lat="43.98083" lon="7.07893">
        <ele>1143.6</ele>
        <time>2012-11-24T09:23:26Z</time>
      </trkpt>
      <trkpt lat="43.98084" lon="7.07901">
        <ele>1144</ele>
        <time>2012-11-24T09:23:28Z</time>
      </trkpt>
      <trkpt lat="43.98084" lon="7.07911">
        <ele>1144.1</ele>
        <time>2012-11-24T09:23:30Z</time>
      </trkpt>
      <trkpt lat="43.98083" lon="7.0792">
        <ele>1144.2</ele>
        <time>2012-11-24T09:23:32Z</time>
      </trkpt>
      <trkpt lat="43.98082" lon="7.0793">
        <ele>1144.3</ele>
        <time>2012-11-24T09:23:34Z</time>
      </trkpt>
      <trkpt lat="43.98081" lon="7.0794">
        <ele>1144.2</ele>
        <time>2012-11-24T09:23:36Z</time>
      </trkpt>
      <trkpt lat="43.9808" lon="7.0795">
        <ele>1144.7</ele>
        <time>2012-11-24T09:23:38Z</time>
      </trkpt>
      <trkpt lat="43.9808" lon="7.0796">
        <ele>1144.8</ele>
        <time>2012-11-24T09:23:40Z</time>
      </trkpt>
      <trkpt lat="43.9808" lon="7.0797">
        <ele>1145.3</ele>
        <time>2012-11-24T09:23:42Z</time>
      </trkpt>
      <trkpt lat="43.98079" lon="7.07981">
        <ele>1145.9</ele>
        <time>2012-11-24T09:23:44Z</time>
      </trkpt>
      <trkpt lat="43.98079" lon="7.07986">
        <ele>1146.1</ele>
        <time>2012-11-24T09:23:45Z</time>
      </trkpt>
      <trkpt lat="43.98078" lon="7.08002">
        <ele>1145.7</ele>
        <time>2012-11-24T09:23:48Z</time>
      </trkpt>
      <trkpt lat="43.98077" lon="7.08011">
        <ele>1145.9</ele>
        <time>2012-11-24T09:23:50Z</time>
      </trkpt>
      <trkpt lat="43.98075" lon="7.08021">
        <ele>1146.1</ele>
        <time>2012-11-24T09:23:52Z</time>
      </trkpt>
      <trkpt lat="43.98074" lon="7.08031">
        <ele>1146.4</ele>
        <time>2012-11-24T09:23:54Z</time>
      </trkpt>
      <trkpt lat="43.98071" lon="7.08041">
        <ele>1146.5</ele>
        <time>2012-11-24T09:23:56Z</time>
      </trkpt>
      <trkpt lat="43.98069" lon="7.0805">
        <ele>1146.6</ele>
        <time>2012-11-24T09:23:58Z</time>
      </trkpt>
      <trkpt lat="43.98068" lon="7.08059">
        <ele>1146.8</ele>
        <time>2012-11-24T09:24:00Z</time>
      </trkpt>
      <trkpt lat="43.98071" lon="7.0807">
        <ele>1146.9</ele>
        <time>2012-11-24T09:24:03Z</time>
      </trkpt>
      <trkpt lat="43.98075" lon="7.08079">
        <ele>1147.7</ele>
        <time>2012-11-24T09:24:06Z</time>
      </trkpt>
      <trkpt lat="43.98078" lon="7.08089">
        <ele>1148.2</ele>
        <time>2012-11-24T09:24:09Z</time>
      </trkpt>
      <trkpt lat="43.9808" lon="7.081">
        <ele>1149.2</ele>
        <time>2012-11-24T09:24:12Z</time>
      </trkpt>
      <trkpt lat="43.98084" lon="7.0811">
        <ele>1149.7</ele>
        <time>2012-11-24T09:24:15Z</time>
      </trkpt>
      <trkpt lat="43.98089" lon="7.08121">
        <ele>1151</ele>
        <time>2012-11-24T09:24:18Z</time>
      </trkpt>
      <trkpt lat="43.98093" lon="7.08131">
        <ele>1151.2</ele>
        <time>2012-11-24T09:24:21Z</time>
      </trkpt>
      <trkpt lat="43.98096" lon="7.08141">
        <ele>1151.8</ele>
        <time>2012-11-24T09:24:24Z</time>
      </trkpt>
      <trkpt lat="43.98099" lon="7.08152">
        <ele>1152.3</ele>
        <time>2012-11-24T09:24:27Z</time>
      </trkpt>
      <trkpt lat="43.98102" lon="7.08162">
        <ele>1153</ele>
        <time>2012-11-24T09:24:30Z</time>
      </trkpt>
      <trkpt lat="43.98103" lon="7.0817">
        <ele>1153.1</ele>
        <time>2012-11-24T09:24:32Z</time>
      </trkpt>
      <trkpt lat="43.98104" lon="7.08179">
        <ele>1153.1</ele>
        <time>2012-11-24T09:24:34Z</time>
      </trkpt>
      <trkpt lat="43.98105" lon="7.08187">
        <ele>1153.6</ele>
        <time>2012-11-24T09:24:36Z</time>
      </trkpt>
      <trkpt lat="43.98106" lon="7.08196">
        <ele>1153.9</ele>
        <time>2012-11-24T09:24:38Z</time>
      </trkpt>
      <trkpt lat="43.98106" lon="7.08208">
        <ele>1154.4</ele>
        <time>2012-11-24T09:24:41Z</time>
      </trkpt>
      <trkpt lat="43.98106" lon="7.0822">
        <ele>1155.2</ele>
        <time>2012-11-24T09:24:44Z</time>
      </trkpt>
      <trkpt lat="43.98106" lon="7.08232">
        <ele>1155.7</ele>
        <time>2012-11-24T09:24:47Z</time>
      </trkpt>
      <trkpt lat="43.98106" lon="7.08236">
        <ele>1155.6</ele>
        <time>2012-11-24T09:24:48Z</time>
      </trkpt>
      <trkpt lat="43.98105" lon="7.08255">
        <ele>1157</ele>
        <time>2012-11-24T09:24:53Z</time>
      </trkpt>
      <trkpt lat="43.98104" lon="7.08266">
        <ele>1157.8</ele>
        <time>2012-11-24T09:24:56Z</time>
      </trkpt>
      <trkpt lat="43.98104" lon="7.08277">
        <ele>1158.2</ele>
        <time>2012-11-24T09:24:59Z</time>
      </trkpt>
      <trkpt lat="43.98108" lon="7.08288">
        <ele>1158.7</ele>
        <time>2012-11-24T09:25:02Z</time>
      </trkpt>
      <trkpt lat="43.98114" lon="7.08297">
        <ele>1159</ele>
        <time>2012-11-24T09:25:05Z</time>
      </trkpt>
      <trkpt lat="43.9812" lon="7.08305">
        <ele>1159.5</ele>
        <time>2012-11-24T09:25:08Z</time>
      </trkpt>
      <trkpt lat="43.98127" lon="7.08312">
        <ele>1159.9</ele>
        <time>2012-11-24T09:25:11Z</time>
      </trkpt>
      <trkpt lat="43.98133" lon="7.08319">
        <ele>1160.9</ele>
        <time>2012-11-24T09:25:14Z</time>
      </trkpt>
      <trkpt lat="43.98139" lon="7.08325">
        <ele>1161.4</ele>
        <time>2012-11-24T09:25:17Z</time>
      </trkpt>
      <trkpt lat="43.98146" lon="7.0833">
        <ele>1161.5</ele>
        <time>2012-11-24T09:25:20Z</time>
      </trkpt>
      <trkpt lat="43.98153" lon="7.08335">
        <ele>1162.3</ele>
        <time>2012-11-24T09:25:23Z</time>
      </trkpt>
      <trkpt lat="43.98159" lon="7.08342">
        <ele>1163.7</ele>
        <time>2012-11-24T09:25:26Z</time>
      </trkpt>
      <trkpt lat="43.98165" lon="7.08347">
        <ele>1164.7</ele>
        <time>2012-11-24T09:25:29Z</time>
      </trkpt>
      <trkpt lat="43.98172" lon="7.08351">
        <ele>1165.4</ele>
        <time>2012-11-24T09:25:32Z</time>
      </trkpt>
      <trkpt lat="43.98179" lon="7.08355">
        <ele>1165.7</ele>
        <time>2012-11-24T09:25:35Z</time>
      </trkpt>
      <trkpt lat="43.98186" lon="7.0836">
        <ele>1166.5</ele>
        <time>2012-11-24T09:25:38Z</time>
      </trkpt>
      <trkpt lat="43.98193" lon="7.08366">
        <ele>1166.8</ele>
        <time>2012-11-24T09:25:41Z</time>
      </trkpt>
      <trkpt lat="43.98201" lon="7.08372">
        <ele>1167.4</ele>
        <time>2012-11-24T09:25:44Z</time>
      </trkpt>
      <trkpt lat="43.98209" lon="7.08378">
        <ele>1167.9</ele>
        <time>2012-11-24T09:25:47Z</time>
      </trkpt>
      <trkpt lat="43.98215" lon="7.08385">
        <ele>1168.6</ele>
        <time>2012-11-24T09:25:50Z</time>
      </trkpt>
      <trkpt lat="43.98216" lon="7.08387">
        <ele>1168.7</ele>
        <time>2012-11-24T09:25:51Z</time>
      </trkpt>
      <trkpt lat="43.98223" lon="7.08402">
        <ele>1168.6</ele>
        <time>2012-11-24T09:25:57Z</time>
      </trkpt>
      <trkpt lat="43.98219" lon="7.08411">
        <ele>1170</ele>
        <time>2012-11-24T09:26:01Z</time>
      </trkpt>
      <trkpt lat="43.98212" lon="7.08417">
        <ele>1170.4</ele>
        <time>2012-11-24T09:26:05Z</time>
      </trkpt>
      <trkpt lat="43.98205" lon="7.08424">
        <ele>1171.2</ele>
        <time>2012-11-24T09:26:09Z</time>
      </trkpt>
      <trkpt lat="43.98197" lon="7.08429">
        <ele>1171.4</ele>
        <time>2012-11-24T09:26:13Z</time>
      </trkpt>
      <trkpt lat="43.9819" lon="7.08433">
        <ele>1171.3</ele>
        <time>2012-11-24T09:26:16Z</time>
      </trkpt>
      <trkpt lat="43.98183" lon="7.08437">
        <ele>1171.1</ele>
        <time>2012-11-24T09:26:19Z</time>
      </trkpt>
      <trkpt lat="43.98176" lon="7.08441">
        <ele>1171.2</ele>
        <time>2012-11-24T09:26:22Z</time>
      </trkpt>
      <trkpt lat="43.98169" lon="7.08445">
        <ele>1171.6</ele>
        <time>2012-11-24T09:26:25Z</time>
      </trkpt>
      <trkpt lat="43.98163" lon="7.08453">
        <ele>1171.8</ele>
        <time>2012-11-24T09:26:29Z</time>
      </trkpt>
      <trkpt lat="43.98163" lon="7.08464">
        <ele>1171.4</ele>
        <time>2012-11-24T09:26:32Z</time>
      </trkpt>
      <trkpt lat="43.98167" lon="7.08476">
        <ele>1171.2</ele>
        <time>2012-11-24T09:26:34Z</time>
      </trkpt>
      <trkpt lat="43.98171" lon="7.08486">
        <ele>1169.8</ele>
        <time>2012-11-24T09:26:36Z</time>
      </trkpt>
      <trkpt lat="43.98175" lon="7.08495">
        <ele>1169.1</ele>
        <time>2012-11-24T09:26:38Z</time>
      </trkpt>
      <trkpt lat="43.9818" lon="7.08502">
        <ele>1169.4</ele>
        <time>2012-11-24T09:26:40Z</time>
      </trkpt>
      <trkpt lat="43.98185" lon="7.08511">
        <ele>1169.5</ele>
        <time>2012-11-24T09:26:43Z</time>
      </trkpt>
      <trkpt lat="43.98187" lon="7.08522">
        <ele>1170.9</ele>
        <time>2012-11-24T09:26:47Z</time>
      </trkpt>
      <trkpt lat="43.98183" lon="7.08532">
        <ele>1172.1</ele>
        <time>2012-11-24T09:26:52Z</time>
      </trkpt>
      <trkpt lat="43.98182" lon="7.08533">
        <ele>1172.4</ele>
        <time>2012-11-24T09:26:53Z</time>
      </trkpt>
      <trkpt lat="43.98169" lon="7.08547">
        <ele>1175.2</ele>
        <time>2012-11-24T09:27:06Z</time>
      </trkpt>
      <trkpt lat="43.98163" lon="7.08555">
        <ele>1177.8</ele>
        <time>2012-11-24T09:27:19Z</time>
      </trkpt>
      <trkpt lat="43.98155" lon="7.08559">
        <ele>1179.5</ele>
        <time>2012-11-24T09:27:30Z</time>
      </trkpt>
      <trkpt lat="43.98156" lon="7.08571">
        <ele>1181.2</ele>
        <time>2012-11-24T09:27:44Z</time>
      </trkpt>
      <trkpt lat="43.98161" lon="7.08582">
        <ele>1183.3</ele>
        <time>2012-11-24T09:27:54Z</time>
      </trkpt>
      <trkpt lat="43.98161" lon="7.08583">
        <ele>1183.5</ele>
        <time>2012-11-24T09:27:55Z</time>
      </trkpt>
      <trkpt lat="43.98172" lon="7.08601">
        <ele>1187.4</ele>
        <time>2012-11-24T09:28:16Z</time>
      </trkpt>
      <trkpt lat="43.98178" lon="7.08609">
        <ele>1190.7</ele>
        <time>2012-11-24T09:28:31Z</time>
      </trkpt>
      <trkpt lat="43.98182" lon="7.0862">
        <ele>1194.1</ele>
        <time>2012-11-24T09:28:47Z</time>
      </trkpt>
      <trkpt lat="43.98181" lon="7.08632">
        <ele>1196.5</ele>
        <time>2012-11-24T09:28:59Z</time>
      </trkpt>
      <trkpt lat="43.98181" lon="7.08633">
        <ele>1196.6</ele>
        <time>2012-11-24T09:29:00Z</time>
      </trkpt>
      <trkpt lat="43.98173" lon="7.08652">
        <ele>1199.8</ele>
        <time>2012-11-24T09:29:24Z</time>
      </trkpt>
      <trkpt lat="43.98166" lon="7.08657">
        <ele>1200.8</ele>
        <time>2012-11-24T09:29:29Z</time>
      </trkpt>
      <trkpt lat="43.98159" lon="7.08664">
        <ele>1200.8</ele>
        <time>2012-11-24T09:29:34Z</time>
      </trkpt>
      <trkpt lat="43.98152" lon="7.0867">
        <ele>1200.6</ele>
        <time>2012-11-24T09:29:39Z</time>
      </trkpt>
      <trkpt lat="43.98145" lon="7.08675">
        <ele>1202.3</ele>
        <time>2012-11-24T09:29:44Z</time>
      </trkpt>
      <trkpt lat="43.98138" lon="7.08681">
        <ele>1203.6</ele>
        <time>2012-11-24T09:29:50Z</time>
      </trkpt>
      <trkpt lat="43.98131" lon="7.08688">
        <ele>1204.1</ele>
        <time>2012-11-24T09:29:55Z</time>
      </trkpt>
      <trkpt lat="43.98124" lon="7.08694">
        <ele>1205.1</ele>
        <time>2012-11-24T09:30:00Z</time>
      </trkpt>
      <trkpt lat="43.98122" lon="7.08695">
        <ele>1205.1</ele>
        <time>2012-11-24T09:30:01Z</time>
      </trkpt>
      <trkpt lat="43.98109" lon="7.08706">
        <ele>1206.1</ele>
        <time>2012-11-24T09:30:10Z</time>
      </trkpt>
      <trkpt lat="43.98103" lon="7.08713">
        <ele>1207.2</ele>
        <time>2012-11-24T09:30:14Z</time>
      </trkpt>
      <trkpt lat="43.98099" lon="7.0872">
        <ele>1207</ele>
        <time>2012-11-24T09:30:17Z</time>
      </trkpt>
      <trkpt lat="43.98095" lon="7.08729">
        <ele>1207.3</ele>
        <time>2012-11-24T09:30:20Z</time>
      </trkpt>
      <trkpt lat="43.98091" lon="7.08738">
        <ele>1207.3</ele>
        <time>2012-11-24T09:30:23Z</time>
      </trkpt>
      <trkpt lat="43.98085" lon="7.08747">
        <ele>1207.3</ele>
        <time>2012-11-24T09:30:26Z</time>
      </trkpt>
      <trkpt lat="43.98081" lon="7.08753">
        <ele>1206.8</ele>
        <time>2012-11-24T09:30:28Z</time>
      </trkpt>
      <trkpt lat="43.98076" lon="7.08759">
        <ele>1206.7</ele>
        <time>2012-11-24T09:30:30Z</time>
      </trkpt>
      <trkpt lat="43.98069" lon="7.08767">
        <ele>1206.7</ele>
        <time>2012-11-24T09:30:33Z</time>
      </trkpt>
      <trkpt lat="43.98064" lon="7.08774">
        <ele>1206.8</ele>
        <time>2012-11-24T09:30:36Z</time>
      </trkpt>
      <trkpt lat="43.98063" lon="7.08783">
        <ele>1207.9</ele>
        <time>2012-11-24T09:30:39Z</time>
      </trkpt>
      <trkpt lat="43.98059" lon="7.08793">
        <ele>1208.3</ele>
        <time>2012-11-24T09:30:42Z</time>
      </trkpt>
      <trkpt lat="43.9806" lon="7.08804">
        <ele>1207.3</ele>
        <time>2012-11-24T09:30:45Z</time>
      </trkpt>
      <trkpt lat="43.98061" lon="7.08816">
        <ele>1205.4</ele>
        <time>2012-11-24T09:30:55Z</time>
      </trkpt>
      <trkpt lat="43.98065" lon="7.08827">
        <ele>1205.7</ele>
        <time>2012-11-24T09:31:03Z</time>
      </trkpt>
      <trkpt lat="43.98065" lon="7.0883">
        <ele>1205.6</ele>
        <time>2012-11-24T09:31:04Z</time>
      </trkpt>
      <trkpt lat="43.98068" lon="7.0885">
        <ele>1206.7</ele>
        <time>2012-11-24T09:31:14Z</time>
      </trkpt>
      <trkpt lat="43.98068" lon="7.0886">
        <ele>1208.2</ele>
        <time>2012-11-24T09:31:19Z</time>
      </trkpt>
      <trkpt lat="43.9807" lon="7.08872">
        <ele>1212.2</ele>
        <time>2012-11-24T09:31:36Z</time>
      </trkpt>
      <trkpt lat="43.98073" lon="7.08883">
        <ele>1213.8</ele>
        <time>2012-11-24T09:31:54Z</time>
      </trkpt>
      <trkpt lat="43.98076" lon="7.08894">
        <ele>1216.7</ele>
        <time>2012-11-24T09:32:16Z</time>
      </trkpt>
      <trkpt lat="43.98076" lon="7.08895">
        <ele>1216.5</ele>
        <time>2012-11-24T09:32:17Z</time>
      </trkpt>
      <trkpt lat="43.9808" lon="7.08918">
        <ele>1220.3</ele>
        <time>2012-11-24T09:32:42Z</time>
      </trkpt>
      <trkpt lat="43.98079" lon="7.0893">
        <ele>1221.1</ele>
        <time>2012-11-24T09:32:50Z</time>
      </trkpt>
      <trkpt lat="43.9808" lon="7.08941">
        <ele>1221.6</ele>
        <time>2012-11-24T09:32:57Z</time>
      </trkpt>
      <trkpt lat="43.98078" lon="7.08952">
        <ele>1222.2</ele>
        <time>2012-11-24T09:33:04Z</time>
      </trkpt>
      <trkpt lat="43.98075" lon="7.08962">
        <ele>1222.6</ele>
        <time>2012-11-24T09:33:10Z</time>
      </trkpt>
      <trkpt lat="43.98073" lon="7.08972">
        <ele>1222</ele>
        <time>2012-11-24T09:33:15Z</time>
      </trkpt>
      <trkpt lat="43.9807" lon="7.08984">
        <ele>1221</ele>
        <time>2012-11-24T09:33:21Z</time>
      </trkpt>
      <trkpt lat="43.98069" lon="7.08985">
        <ele>1221</ele>
        <time>2012-11-24T09:33:22Z</time>
      </trkpt>
      <trkpt lat="43.98057" lon="7.09">
        <ele>1223.7</ele>
        <time>2012-11-24T09:33:35Z</time>
      </trkpt>
      <trkpt lat="43.9805" lon="7.09006">
        <ele>1225.1</ele>
        <time>2012-11-24T09:33:41Z</time>
      </trkpt>
      <trkpt lat="43.98042" lon="7.09008">
        <ele>1225.9</ele>
        <time>2012-11-24T09:33:46Z</time>
      </trkpt>
      <trkpt lat="43.98035" lon="7.09014">
        <ele>1228.9</ele>
        <time>2012-11-24T09:33:53Z</time>
      </trkpt>
      <trkpt lat="43.98029" lon="7.09022">
        <ele>1230.4</ele>
        <time>2012-11-24T09:34:00Z</time>
      </trkpt>
      <trkpt lat="43.98025" lon="7.09032">
        <ele>1232.8</ele>
        <time>2012-11-24T09:34:12Z</time>
      </trkpt>
      <trkpt lat="43.98019" lon="7.09042">
        <ele>1235</ele>
        <time>2012-11-24T09:34:34Z</time>
      </trkpt>
      <trkpt lat="43.98019" lon="7.09042">
        <ele>1235</ele>
        <time>2012-11-24T09:34:35Z</time>
      </trkpt>
      <trkpt lat="43.98012" lon="7.09063">
        <ele>1235.8</ele>
        <time>2012-11-24T09:35:25Z</time>
      </trkpt>
      <trkpt lat="43.98006" lon="7.09071">
        <ele>1236.6</ele>
        <time>2012-11-24T09:35:32Z</time>
      </trkpt>
      <trkpt lat="43.97998" lon="7.09077">
        <ele>1237.4</ele>
        <time>2012-11-24T09:35:40Z</time>
      </trkpt>
      <trkpt lat="43.97998" lon="7.09078">
        <ele>1237.9</ele>
        <time>2012-11-24T09:35:41Z</time>
      </trkpt>
      <trkpt lat="43.98003" lon="7.09089">
        <ele>1245.1</ele>
        <time>2012-11-24T09:36:26Z</time>
      </trkpt>
      <trkpt lat="43.98011" lon="7.09093">
        <ele>1251.2</ele>
        <time>2012-11-24T09:37:01Z</time>
      </trkpt>
      <trkpt lat="43.98012" lon="7.09094">
        <ele>1251.5</ele>
        <time>2012-11-24T09:37:02Z</time>
      </trkpt>
      <trkpt lat="43.98017" lon="7.09115">
        <ele>1256.5</ele>
        <time>2012-11-24T09:37:28Z</time>
      </trkpt>
      <trkpt lat="43.98014" lon="7.09126">
        <ele>1260.8</ele>
        <time>2012-11-24T09:37:50Z</time>
      </trkpt>
      <trkpt lat="43.98012" lon="7.09137">
        <ele>1262.1</ele>
        <time>2012-11-24T09:38:03Z</time>
      </trkpt>
      <trkpt lat="43.98012" lon="7.09138">
        <ele>1262.1</ele>
        <time>2012-11-24T09:38:04Z</time>
      </trkpt>
      <trkpt lat="43.98014" lon="7.09161">
        <ele>1267.7</ele>
        <time>2012-11-24T09:38:33Z</time>
      </trkpt>
      <trkpt lat="43.98011" lon="7.09172">
        <ele>1269.5</ele>
        <time>2012-11-24T09:38:48Z</time>
      </trkpt>
      <trkpt lat="43.98012" lon="7.09184">
        <ele>1272.2</ele>
        <time>2012-11-24T09:39:01Z</time>
      </trkpt>
      <trkpt lat="43.98007" lon="7.09195">
        <ele>1275.7</ele>
        <time>2012-11-24T09:39:22Z</time>
      </trkpt>
      <trkpt lat="43.98007" lon="7.09196">
        <ele>1275.9</ele>
        <time>2012-11-24T09:39:23Z</time>
      </trkpt>
      <trkpt lat="43.98012" lon="7.09217">
        <ele>1280.3</ele>
        <time>2012-11-24T09:39:45Z</time>
      </trkpt>
      <trkpt lat="43.98013" lon="7.09229">
        <ele>1282.6</ele>
        <time>2012-11-24T09:39:58Z</time>
      </trkpt>
      <trkpt lat="43.98014" lon="7.09241">
        <ele>1285.2</ele>
        <time>2012-11-24T09:40:13Z</time>
      </trkpt>
      <trkpt lat="43.98013" lon="7.09253">
        <ele>1287.4</ele>
        <time>2012-11-24T09:40:30Z</time>
      </trkpt>
      <trkpt lat="43.98013" lon="7.09254">
        <ele>1287.4</ele>
        <time>2012-11-24T09:40:31Z</time>
      </trkpt>
      <trkpt lat="43.98013" lon="7.09275">
        <ele>1288.8</ele>
        <time>2012-11-24T09:40:47Z</time>
      </trkpt>
      <trkpt lat="43.98013" lon="7.09288">
        <ele>1289.2</ele>
        <time>2012-11-24T09:40:53Z</time>
      </trkpt>
      <trkpt lat="43.98011" lon="7.09298">
        <ele>1290.8</ele>
        <time>2012-11-24T09:40:59Z</time>
      </trkpt>
      <trkpt lat="43.9801" lon="7.0931">
        <ele>1291.4</ele>
        <time>2012-11-24T09:41:13Z</time>
      </trkpt>
      <trkpt lat="43.98005" lon="7.09321">
        <ele>1294.7</ele>
        <time>2012-11-24T09:41:29Z</time>
      </trkpt>
      <trkpt lat="43.97997" lon="7.09321">
        <ele>1296.9</ele>
        <time>2012-11-24T09:41:40Z</time>
      </trkpt>
      <trkpt lat="43.97996" lon="7.09321">
        <ele>1297.2</ele>
        <time>2012-11-24T09:41:41Z</time>
      </trkpt>
      <trkpt lat="43.97991" lon="7.09332">
        <ele>1308</ele>
        <time>2012-11-24T09:42:36Z</time>
      </trkpt>
      <trkpt lat="43.97987" lon="7.09343">
        <ele>1312.3</ele>
        <time>2012-11-24T09:42:53Z</time>
      </trkpt>
      <trkpt lat="43.97987" lon="7.09344">
        <ele>1312.7</ele>
        <time>2012-11-24T09:42:54Z</time>
      </trkpt>
      <trkpt lat="43.97972" lon="7.09355">
        <ele>1317.6</ele>
        <time>2012-11-24T09:43:16Z</time>
      </trkpt>
      <trkpt lat="43.97971" lon="7.09368">
        <ele>1319.6</ele>
        <time>2012-11-24T09:43:25Z</time>
      </trkpt>
      <trkpt lat="43.97968" lon="7.09379">
        <ele>1321.7</ele>
        <time>2012-11-24T09:43:36Z</time>
      </trkpt>
      <trkpt lat="43.9796" lon="7.09383">
        <ele>1321.8</ele>
        <time>2012-11-24T09:43:44Z</time>
      </trkpt>
      <trkpt lat="43.97953" lon="7.09387">
        <ele>1323</ele>
        <time>2012-11-24T09:43:50Z</time>
      </trkpt>
      <trkpt lat="43.97946" lon="7.09392">
        <ele>1323.7</ele>
        <time>2012-11-24T09:43:56Z</time>
      </trkpt>
      <trkpt lat="43.97944" lon="7.09392">
        <ele>1324</ele>
        <time>2012-11-24T09:43:57Z</time>
      </trkpt>
      <trkpt lat="43.9793" lon="7.09398">
        <ele>1324.6</ele>
        <time>2012-11-24T09:44:05Z</time>
      </trkpt>
      <trkpt lat="43.97922" lon="7.09402">
        <ele>1325.9</ele>
        <time>2012-11-24T09:44:10Z</time>
      </trkpt>
      <trkpt lat="43.97914" lon="7.09406">
        <ele>1325.8</ele>
        <time>2012-11-24T09:44:14Z</time>
      </trkpt>
      <trkpt lat="43.97907" lon="7.09408">
        <ele>1325.8</ele>
        <time>2012-11-24T09:44:18Z</time>
      </trkpt>
      <trkpt lat="43.97899" lon="7.09411">
        <ele>1325.9</ele>
        <time>2012-11-24T09:44:22Z</time>
      </trkpt>
      <trkpt lat="43.97892" lon="7.09416">
        <ele>1326.2</ele>
        <time>2012-11-24T09:44:26Z</time>
      </trkpt>
      <trkpt lat="43.97885" lon="7.09421">
        <ele>1326.4</ele>
        <time>2012-11-24T09:44:30Z</time>
      </trkpt>
      <trkpt lat="43.97878" lon="7.09424">
        <ele>1327</ele>
        <time>2012-11-24T09:44:34Z</time>
      </trkpt>
      <trkpt lat="43.9787" lon="7.09428">
        <ele>1326.9</ele>
        <time>2012-11-24T09:44:38Z</time>
      </trkpt>
      <trkpt lat="43.97863" lon="7.09431">
        <ele>1326.9</ele>
        <time>2012-11-24T09:44:41Z</time>
      </trkpt>
      <trkpt lat="43.97856" lon="7.09434">
        <ele>1328.1</ele>
        <time>2012-11-24T09:44:44Z</time>
      </trkpt>
      <trkpt lat="43.97849" lon="7.09436">
        <ele>1328.4</ele>
        <time>2012-11-24T09:44:47Z</time>
      </trkpt>
      <trkpt lat="43.97843" lon="7.09438">
        <ele>1327.8</ele>
        <time>2012-11-24T09:44:49Z</time>
      </trkpt>
      <trkpt lat="43.97837" lon="7.0944">
        <ele>1327.6</ele>
        <time>2012-11-24T09:44:51Z</time>
      </trkpt>
      <trkpt lat="43.97829" lon="7.09441">
        <ele>1327.5</ele>
        <time>2012-11-24T09:44:54Z</time>
      </trkpt>
      <trkpt lat="43.97822" lon="7.09444">
        <ele>1327</ele>
        <time>2012-11-24T09:44:56Z</time>
      </trkpt>
      <trkpt lat="43.97816" lon="7.09446">
        <ele>1326.6</ele>
        <time>2012-11-24T09:44:58Z</time>
      </trkpt>
      <trkpt lat="43.97813" lon="7.09447">
        <ele>1326.8</ele>
        <time>2012-11-24T09:44:59Z</time>
      </trkpt>
      <trkpt lat="43.97799" lon="7.09448">
        <ele>1325.9</ele>
        <time>2012-11-24T09:45:04Z</time>
      </trkpt>
      <trkpt lat="43.97791" lon="7.09448">
        <ele>1325.3</ele>
        <time>2012-11-24T09:45:06Z</time>
      </trkpt>
      <trkpt lat="43.97787" lon="7.09448">
        <ele>1324.9</ele>
        <time>2012-11-24T09:45:07Z</time>
      </trkpt>
      <trkpt lat="43.97782" lon="7.09449">
        <ele>1324.4</ele>
        <time>2012-11-24T09:45:08Z</time>
      </trkpt>
      <trkpt lat="43.97778" lon="7.0945">
        <ele>1324.1</ele>
        <time>2012-11-24T09:45:09Z</time>
      </trkpt>
      <trkpt lat="43.97769" lon="7.09451">
        <ele>1323.1</ele>
        <time>2012-11-24T09:45:11Z</time>
      </trkpt>
      <trkpt lat="43.97761" lon="7.09451">
        <ele>1322.5</ele>
        <time>2012-11-24T09:45:13Z</time>
      </trkpt>
      <trkpt lat="43.97754" lon="7.09452">
        <ele>1322</ele>
        <time>2012-11-24T09:45:15Z</time>
      </trkpt>
      <trkpt lat="43.97747" lon="7.09454">
        <ele>1321.8</ele>
        <time>2012-11-24T09:45:17Z</time>
      </trkpt>
      <trkpt lat="43.9774" lon="7.09455">
        <ele>1321.7</ele>
        <time>2012-11-24T09:45:19Z</time>
      </trkpt>
      <trkpt lat="43.97733" lon="7.09456">
        <ele>1321.7</ele>
        <time>2012-11-24T09:45:21Z</time>
      </trkpt>
      <trkpt lat="43.97726" lon="7.09457">
        <ele>1322.1</ele>
        <time>2012-11-24T09:45:24Z</time>
      </trkpt>
      <trkpt lat="43.97719" lon="7.09458">
        <ele>1322.8</ele>
        <time>2012-11-24T09:45:27Z</time>
      </trkpt>
      <trkpt lat="43.97712" lon="7.09458">
        <ele>1323.8</ele>
        <time>2012-11-24T09:45:30Z</time>
      </trkpt>
      <trkpt lat="43.97705" lon="7.09459">
        <ele>1323.8</ele>
        <time>2012-11-24T09:45:33Z</time>
      </trkpt>
      <trkpt lat="43.97698" lon="7.0946">
        <ele>1323.8</ele>
        <time>2012-11-24T09:45:36Z</time>
      </trkpt>
      <trkpt lat="43.97689" lon="7.09461">
        <ele>1325.2</ele>
        <time>2012-11-24T09:45:40Z</time>
      </trkpt>
      <trkpt lat="43.97681" lon="7.09462">
        <ele>1326.1</ele>
        <time>2012-11-24T09:45:43Z</time>
      </trkpt>
      <trkpt lat="43.97674" lon="7.09462">
        <ele>1325.9</ele>
        <time>2012-11-24T09:45:46Z</time>
      </trkpt>
      <trkpt lat="43.97665" lon="7.0946">
        <ele>1325.9</ele>
        <time>2012-11-24T09:45:49Z</time>
      </trkpt>
      <trkpt lat="43.97657" lon="7.09456">
        <ele>1325.2</ele>
        <time>2012-11-24T09:45:51Z</time>
      </trkpt>
      <trkpt lat="43.97652" lon="7.09455">
        <ele>1324.7</ele>
        <time>2012-11-24T09:45:52Z</time>
      </trkpt>
      <trkpt lat="43.97646" lon="7.09455">
        <ele>1324</ele>
        <time>2012-11-24T09:45:53Z</time>
      </trkpt>
      <trkpt lat="43.97641" lon="7.09455">
        <ele>1323.5</ele>
        <time>2012-11-24T09:45:54Z</time>
      </trkpt>
      <trkpt lat="43.97637" lon="7.09455">
        <ele>1322.7</ele>
        <time>2012-11-24T09:45:55Z</time>
      </trkpt>
      <trkpt lat="43.97631" lon="7.09455">
        <ele>1322</ele>
        <time>2012-11-24T09:45:56Z</time>
      </trkpt>
      <trkpt lat="43.97625" lon="7.09453">
        <ele>1321.6</ele>
        <time>2012-11-24T09:45:57Z</time>
      </trkpt>
      <trkpt lat="43.97619" lon="7.09453">
        <ele>1320.5</ele>
        <time>2012-11-24T09:45:58Z</time>
      </trkpt>
      <trkpt lat="43.97614" lon="7.09453">
        <ele>1319.6</ele>
        <time>2012-11-24T09:45:59Z</time>
      </trkpt>
      <trkpt lat="43.9761" lon="7.09454">
        <ele>1319</ele>
        <time>2012-11-24T09:46:00Z</time>
      </trkpt>
      <trkpt lat="43.97597" lon="7.09452">
        <ele>1318</ele>
        <time>2012-11-24T09:46:03Z</time>
      </trkpt>
      <trkpt lat="43.97589" lon="7.09451">
        <ele>1317.7</ele>
        <time>2012-11-24T09:46:05Z</time>
      </trkpt>
      <trkpt lat="43.97584" lon="7.0945">
        <ele>1317.5</ele>
        <time>2012-11-24T09:46:06Z</time>
      </trkpt>
      <trkpt lat="43.97579" lon="7.09449">
        <ele>1317.2</ele>
        <time>2012-11-24T09:46:07Z</time>
      </trkpt>
      <trkpt lat="43.97571" lon="7.09447">
        <ele>1316.9</ele>
        <time>2012-11-24T09:46:09Z</time>
      </trkpt>
      <trkpt lat="43.97563" lon="7.09446">
        <ele>1317.7</ele>
        <time>2012-11-24T09:46:12Z</time>
      </trkpt>
      <trkpt lat="43.97554" lon="7.09446">
        <ele>1316.8</ele>
        <time>2012-11-24T09:48:48Z</time>
      </trkpt>
      <trkpt lat="43.97553" lon="7.09448">
        <ele>1317.1</ele>
        <time>2012-11-24T09:48:49Z</time>
      </trkpt>
      <trkpt lat="43.97548" lon="7.09461">
        <ele>1316.5</ele>
        <time>2012-11-24T09:48:52Z</time>
      </trkpt>
      <trkpt lat="43.97546" lon="7.09472">
        <ele>1315.8</ele>
        <time>2012-11-24T09:48:54Z</time>
      </trkpt>
      <trkpt lat="43.97545" lon="7.09484">
        <ele>1315.1</ele>
        <time>2012-11-24T09:48:56Z</time>
      </trkpt>
      <trkpt lat="43.9754" lon="7.09489">
        <ele>1314.4</ele>
        <time>2012-11-24T09:48:58Z</time>
      </trkpt>
      <trkpt lat="43.97536" lon="7.09496">
        <ele>1313.9</ele>
        <time>2012-11-24T09:49:00Z</time>
      </trkpt>
      <trkpt lat="43.9753" lon="7.09504">
        <ele>1313.2</ele>
        <time>2012-11-24T09:49:02Z</time>
      </trkpt>
      <trkpt lat="43.97526" lon="7.09508">
        <ele>1312.6</ele>
        <time>2012-11-24T09:49:03Z</time>
      </trkpt>
      <trkpt lat="43.97522" lon="7.09513">
        <ele>1312.2</ele>
        <time>2012-11-24T09:49:04Z</time>
      </trkpt>
      <trkpt lat="43.97514" lon="7.09519">
        <ele>1309.9</ele>
        <time>2012-11-24T09:49:07Z</time>
      </trkpt>
      <trkpt lat="43.97507" lon="7.09522">
        <ele>1305.9</ele>
        <time>2012-11-24T09:49:18Z</time>
      </trkpt>
      <trkpt lat="43.97499" lon="7.09522">
        <ele>1304.4</ele>
        <time>2012-11-24T09:49:24Z</time>
      </trkpt>
      <trkpt lat="43.97493" lon="7.09523">
        <ele>1304.1</ele>
        <time>2012-11-24T09:49:26Z</time>
      </trkpt>
      <trkpt lat="43.97485" lon="7.09524">
        <ele>1303.2</ele>
        <time>2012-11-24T09:49:28Z</time>
      </trkpt>
      <trkpt lat="43.97479" lon="7.09528">
        <ele>1301.9</ele>
        <time>2012-11-24T09:49:30Z</time>
      </trkpt>
      <trkpt lat="43.97474" lon="7.09534">
        <ele>1301.1</ele>
        <time>2012-11-24T09:49:32Z</time>
      </trkpt>
      <trkpt lat="43.97467" lon="7.09539">
        <ele>1300.6</ele>
        <time>2012-11-24T09:49:34Z</time>
      </trkpt>
      <trkpt lat="43.97461" lon="7.09548">
        <ele>1299.8</ele>
        <time>2012-11-24T09:49:36Z</time>
      </trkpt>
      <trkpt lat="43.97459" lon="7.09554">
        <ele>1299.4</ele>
        <time>2012-11-24T09:49:37Z</time>
      </trkpt>
      <trkpt lat="43.97458" lon="7.09562">
        <ele>1299</ele>
        <time>2012-11-24T09:49:38Z</time>
      </trkpt>
      <trkpt lat="43.97456" lon="7.0957">
        <ele>1298.6</ele>
        <time>2012-11-24T09:49:39Z</time>
      </trkpt>
      <trkpt lat="43.97455" lon="7.09578">
        <ele>1298.2</ele>
        <time>2012-11-24T09:49:40Z</time>
      </trkpt>
      <trkpt lat="43.97453" lon="7.09586">
        <ele>1297.9</ele>
        <time>2012-11-24T09:49:41Z</time>
      </trkpt>
      <trkpt lat="43.97451" lon="7.09593">
        <ele>1297.6</ele>
        <time>2012-11-24T09:49:42Z</time>
      </trkpt>
      <trkpt lat="43.97448" lon="7.09601">
        <ele>1296.9</ele>
        <time>2012-11-24T09:49:43Z</time>
      </trkpt>
      <trkpt lat="43.97444" lon="7.09608">
        <ele>1296.4</ele>
        <time>2012-11-24T09:49:44Z</time>
      </trkpt>
      <trkpt lat="43.97439" lon="7.09615">
        <ele>1296</ele>
        <time>2012-11-24T09:49:45Z</time>
      </trkpt>
      <trkpt lat="43.97436" lon="7.09621">
        <ele>1295.5</ele>
        <time>2012-11-24T09:49:46Z</time>
      </trkpt>
      <trkpt lat="43.97429" lon="7.09628">
        <ele>1295</ele>
        <time>2012-11-24T09:49:48Z</time>
      </trkpt>
      <trkpt lat="43.97424" lon="7.0963">
        <ele>1294.9</ele>
        <time>2012-11-24T09:49:49Z</time>
      </trkpt>
      <trkpt lat="43.9742" lon="7.09634">
        <ele>1294.1</ele>
        <time>2012-11-24T09:49:50Z</time>
      </trkpt>
      <trkpt lat="43.97417" lon="7.09639">
        <ele>1293.6</ele>
        <time>2012-11-24T09:49:51Z</time>
      </trkpt>
      <trkpt lat="43.97411" lon="7.09647">
        <ele>1292.6</ele>
        <time>2012-11-24T09:49:53Z</time>
      </trkpt>
      <trkpt lat="43.97405" lon="7.09651">
        <ele>1292.8</ele>
        <time>2012-11-24T09:49:55Z</time>
      </trkpt>
      <trkpt lat="43.97401" lon="7.09662">
        <ele>1293.6</ele>
        <time>2012-11-24T09:49:58Z</time>
      </trkpt>
      <trkpt lat="43.97396" lon="7.0967">
        <ele>1294.5</ele>
        <time>2012-11-24T09:50:01Z</time>
      </trkpt>
      <trkpt lat="43.97388" lon="7.09672">
        <ele>1295.3</ele>
        <time>2012-11-24T09:50:04Z</time>
      </trkpt>
      <trkpt lat="43.97381" lon="7.0967">
        <ele>1296.1</ele>
        <time>2012-11-24T09:50:07Z</time>
      </trkpt>
      <trkpt lat="43.97373" lon="7.09666">
        <ele>1297.1</ele>
        <time>2012-11-24T09:50:11Z</time>
      </trkpt>
      <trkpt lat="43.97366" lon="7.09663">
        <ele>1297.5</ele>
        <time>2012-11-24T09:50:14Z</time>
      </trkpt>
      <trkpt lat="43.97359" lon="7.0966">
        <ele>1297.9</ele>
        <time>2012-11-24T09:50:17Z</time>
      </trkpt>
      <trkpt lat="43.97351" lon="7.09658">
        <ele>1298.5</ele>
        <time>2012-11-24T09:50:20Z</time>
      </trkpt>
      <trkpt lat="43.97343" lon="7.09658">
        <ele>1299.5</ele>
        <time>2012-11-24T09:50:23Z</time>
      </trkpt>
      <trkpt lat="43.97335" lon="7.0966">
        <ele>1300.6</ele>
        <time>2012-11-24T09:50:27Z</time>
      </trkpt>
      <trkpt lat="43.97327" lon="7.09664">
        <ele>1301.9</ele>
        <time>2012-11-24T09:50:31Z</time>
      </trkpt>
      <trkpt lat="43.97319" lon="7.09667">
        <ele>1303.1</ele>
        <time>2012-11-24T09:50:35Z</time>
      </trkpt>
      <trkpt lat="43.97312" lon="7.09668">
        <ele>1304.5</ele>
        <time>2012-11-24T09:50:39Z</time>
      </trkpt>
      <trkpt lat="43.97304" lon="7.09668">
        <ele>1305.2</ele>
        <time>2012-11-24T09:50:43Z</time>
      </trkpt>
      <trkpt lat="43.97296" lon="7.09672">
        <ele>1306.6</ele>
        <time>2012-11-24T09:50:47Z</time>
      </trkpt>
      <trkpt lat="43.97288" lon="7.09675">
        <ele>1308.1</ele>
        <time>2012-11-24T09:50:51Z</time>
      </trkpt>
      <trkpt lat="43.97286" lon="7.09676">
        <ele>1308.3</ele>
        <time>2012-11-24T09:50:52Z</time>
      </trkpt>
      <trkpt lat="43.97272" lon="7.09677">
        <ele>1309.8</ele>
        <time>2012-11-24T09:50:59Z</time>
      </trkpt>
      <trkpt lat="43.97264" lon="7.09681">
        <ele>1310.3</ele>
        <time>2012-11-24T09:51:03Z</time>
      </trkpt>
      <trkpt lat="43.97257" lon="7.09683">
        <ele>1310.9</ele>
        <time>2012-11-24T09:51:06Z</time>
      </trkpt>
      <trkpt lat="43.97248" lon="7.09685">
        <ele>1311.5</ele>
        <time>2012-11-24T09:51:10Z</time>
      </trkpt>
      <trkpt lat="43.97241" lon="7.09686">
        <ele>1311.1</ele>
        <time>2012-11-24T09:51:13Z</time>
      </trkpt>
      <trkpt lat="43.97234" lon="7.09688">
        <ele>1311.6</ele>
        <time>2012-11-24T09:51:16Z</time>
      </trkpt>
      <trkpt lat="43.97227" lon="7.0969">
        <ele>1313.2</ele>
        <time>2012-11-24T09:51:19Z</time>
      </trkpt>
      <trkpt lat="43.97219" lon="7.09694">
        <ele>1314.2</ele>
        <time>2012-11-24T09:51:23Z</time>
      </trkpt>
      <trkpt lat="43.97212" lon="7.09697">
        <ele>1315.1</ele>
        <time>2012-11-24T09:51:27Z</time>
      </trkpt>
      <trkpt lat="43.97205" lon="7.097">
        <ele>1315.1</ele>
        <time>2012-11-24T09:51:31Z</time>
      </trkpt>
      <trkpt lat="43.97198" lon="7.09705">
        <ele>1316.2</ele>
        <time>2012-11-24T09:51:36Z</time>
      </trkpt>
      <trkpt lat="43.97192" lon="7.09715">
        <ele>1317.2</ele>
        <time>2012-11-24T09:51:43Z</time>
      </trkpt>
      <trkpt lat="43.972" lon="7.0972">
        <ele>1317.5</ele>
        <time>2012-11-24T09:52:04Z</time>
      </trkpt>
      <trkpt lat="43.97201" lon="7.09722">
        <ele>1317.5</ele>
        <time>2012-11-24T09:52:05Z</time>
      </trkpt>
      <trkpt lat="43.97206" lon="7.09743">
        <ele>1318.5</ele>
        <time>2012-11-24T09:52:14Z</time>
      </trkpt>
      <trkpt lat="43.97205" lon="7.09754">
        <ele>1319.7</ele>
        <time>2012-11-24T09:52:18Z</time>
      </trkpt>
      <trkpt lat="43.97205" lon="7.09765">
        <ele>1321.1</ele>
        <time>2012-11-24T09:52:23Z</time>
      </trkpt>
      <trkpt lat="43.9721" lon="7.09776">
        <ele>1322.9</ele>
        <time>2012-11-24T09:52:28Z</time>
      </trkpt>
      <trkpt lat="43.97215" lon="7.09785">
        <ele>1324.1</ele>
        <time>2012-11-24T09:52:33Z</time>
      </trkpt>
      <trkpt lat="43.97221" lon="7.09792">
        <ele>1324.4</ele>
        <time>2012-11-24T09:52:38Z</time>
      </trkpt>
      <trkpt lat="43.97228" lon="7.09799">
        <ele>1324.6</ele>
        <time>2012-11-24T09:52:46Z</time>
      </trkpt>
      <trkpt lat="43.97233" lon="7.09806">
        <ele>1324.3</ele>
        <time>2012-11-24T09:52:49Z</time>
      </trkpt>
      <trkpt lat="43.97238" lon="7.09813">
        <ele>1324.4</ele>
        <time>2012-11-24T09:52:51Z</time>
      </trkpt>
      <trkpt lat="43.97245" lon="7.09817">
        <ele>1324.2</ele>
        <time>2012-11-24T09:52:53Z</time>
      </trkpt>
      <trkpt lat="43.97251" lon="7.09821">
        <ele>1323.9</ele>
        <time>2012-11-24T09:52:55Z</time>
      </trkpt>
      <trkpt lat="43.97259" lon="7.09827">
        <ele>1323.3</ele>
        <time>2012-11-24T09:52:57Z</time>
      </trkpt>
      <trkpt lat="43.97263" lon="7.09829">
        <ele>1323.2</ele>
        <time>2012-11-24T09:52:58Z</time>
      </trkpt>
      <trkpt lat="43.97268" lon="7.09831">
        <ele>1323.2</ele>
        <time>2012-11-24T09:52:59Z</time>
      </trkpt>
      <trkpt lat="43.97272" lon="7.09834">
        <ele>1322.6</ele>
        <time>2012-11-24T09:53:00Z</time>
      </trkpt>
      <trkpt lat="43.97277" lon="7.09836">
        <ele>1322.1</ele>
        <time>2012-11-24T09:53:01Z</time>
      </trkpt>
      <trkpt lat="43.97282" lon="7.09839">
        <ele>1321.8</ele>
        <time>2012-11-24T09:53:02Z</time>
      </trkpt>
      <trkpt lat="43.97287" lon="7.09842">
        <ele>1321.2</ele>
        <time>2012-11-24T09:53:03Z</time>
      </trkpt>
      <trkpt lat="43.97291" lon="7.09846">
        <ele>1320.8</ele>
        <time>2012-11-24T09:53:04Z</time>
      </trkpt>
      <trkpt lat="43.97295" lon="7.09849">
        <ele>1320.6</ele>
        <time>2012-11-24T09:53:05Z</time>
      </trkpt>
      <trkpt lat="43.973" lon="7.09852">
        <ele>1320.4</ele>
        <time>2012-11-24T09:53:06Z</time>
      </trkpt>
      <trkpt lat="43.97305" lon="7.09856">
        <ele>1320.1</ele>
        <time>2012-11-24T09:53:07Z</time>
      </trkpt>
      <trkpt lat="43.97311" lon="7.0986">
        <ele>1320</ele>
        <time>2012-11-24T09:53:08Z</time>
      </trkpt>
      <trkpt lat="43.97316" lon="7.09864">
        <ele>1319.8</ele>
        <time>2012-11-24T09:53:09Z</time>
      </trkpt>
      <trkpt lat="43.97321" lon="7.09867">
        <ele>1319.7</ele>
        <time>2012-11-24T09:53:10Z</time>
      </trkpt>
      <trkpt lat="43.97327" lon="7.09869">
        <ele>1319.5</ele>
        <time>2012-11-24T09:53:11Z</time>
      </trkpt>
      <trkpt lat="43.97332" lon="7.0987">
        <ele>1319</ele>
        <time>2012-11-24T09:53:12Z</time>
      </trkpt>
      <trkpt lat="43.9734" lon="7.09873">
        <ele>1318.2</ele>
        <time>2012-11-24T09:53:14Z</time>
      </trkpt>
      <trkpt lat="43.97347" lon="7.09878">
        <ele>1318.3</ele>
        <time>2012-11-24T09:53:16Z</time>
      </trkpt>
      <trkpt lat="43.97353" lon="7.09882">
        <ele>1318.6</ele>
        <time>2012-11-24T09:53:18Z</time>
      </trkpt>
      <trkpt lat="43.97359" lon="7.09887">
        <ele>1319.5</ele>
        <time>2012-11-24T09:53:20Z</time>
      </trkpt>
      <trkpt lat="43.97366" lon="7.0989">
        <ele>1319.9</ele>
        <time>2012-11-24T09:53:22Z</time>
      </trkpt>
      <trkpt lat="43.97374" lon="7.09892">
        <ele>1320.1</ele>
        <time>2012-11-24T09:53:24Z</time>
      </trkpt>
      <trkpt lat="43.97381" lon="7.09899">
        <ele>1320.6</ele>
        <time>2012-11-24T09:53:27Z</time>
      </trkpt>
      <trkpt lat="43.97388" lon="7.09905">
        <ele>1320.6</ele>
        <time>2012-11-24T09:53:30Z</time>
      </trkpt>
      <trkpt lat="43.97395" lon="7.09911">
        <ele>1320.6</ele>
        <time>2012-11-24T09:53:33Z</time>
      </trkpt>
      <trkpt lat="43.97403" lon="7.09916">
        <ele>1320.2</ele>
        <time>2012-11-24T09:53:36Z</time>
      </trkpt>
      <trkpt lat="43.9741" lon="7.0992">
        <ele>1319.6</ele>
        <time>2012-11-24T09:53:38Z</time>
      </trkpt>
      <trkpt lat="43.97417" lon="7.09922">
        <ele>1319</ele>
        <time>2012-11-24T09:53:40Z</time>
      </trkpt>
      <trkpt lat="43.97424" lon="7.09922">
        <ele>1319.3</ele>
        <time>2012-11-24T09:53:42Z</time>
      </trkpt>
      <trkpt lat="43.97431" lon="7.09921">
        <ele>1319.5</ele>
        <time>2012-11-24T09:53:45Z</time>
      </trkpt>
      <trkpt lat="43.97439" lon="7.09921">
        <ele>1319.8</ele>
        <time>2012-11-24T09:53:48Z</time>
      </trkpt>
      <trkpt lat="43.97445" lon="7.09925">
        <ele>1319.6</ele>
        <time>2012-11-24T09:53:52Z</time>
      </trkpt>
      <trkpt lat="43.97452" lon="7.09932">
        <ele>1320.7</ele>
        <time>2012-11-24T09:53:57Z</time>
      </trkpt>
      <trkpt lat="43.97458" lon="7.0994">
        <ele>1321.5</ele>
        <time>2012-11-24T09:54:03Z</time>
      </trkpt>
      <trkpt lat="43.97466" lon="7.09946">
        <ele>1322.2</ele>
        <time>2012-11-24T09:54:08Z</time>
      </trkpt>
      <trkpt lat="43.97467" lon="7.09947">
        <ele>1322.8</ele>
        <time>2012-11-24T09:54:09Z</time>
      </trkpt>
      <trkpt lat="43.97482" lon="7.0995">
        <ele>1322.3</ele>
        <time>2012-11-24T09:54:18Z</time>
      </trkpt>
      <trkpt lat="43.9749" lon="7.09955">
        <ele>1323.3</ele>
        <time>2012-11-24T09:54:23Z</time>
      </trkpt>
      <trkpt lat="43.97498" lon="7.09958">
        <ele>1324.1</ele>
        <time>2012-11-24T09:54:28Z</time>
      </trkpt>
      <trkpt lat="43.97506" lon="7.09962">
        <ele>1325.3</ele>
        <time>2012-11-24T09:54:33Z</time>
      </trkpt>
      <trkpt lat="43.97513" lon="7.09967">
        <ele>1325.6</ele>
        <time>2012-11-24T09:54:38Z</time>
      </trkpt>
      <trkpt lat="43.9752" lon="7.09971">
        <ele>1325.8</ele>
        <time>2012-11-24T09:54:42Z</time>
      </trkpt>
      <trkpt lat="43.97527" lon="7.09976">
        <ele>1325.8</ele>
        <time>2012-11-24T09:54:45Z</time>
      </trkpt>
      <trkpt lat="43.97532" lon="7.09983">
        <ele>1325.3</ele>
        <time>2012-11-24T09:54:48Z</time>
      </trkpt>
      <trkpt lat="43.97539" lon="7.09991">
        <ele>1324.7</ele>
        <time>2012-11-24T09:54:52Z</time>
      </trkpt>
      <trkpt lat="43.97545" lon="7.09998">
        <ele>1325.1</ele>
        <time>2012-11-24T09:54:56Z</time>
      </trkpt>
      <trkpt lat="43.97551" lon="7.10005">
        <ele>1324.2</ele>
        <time>2012-11-24T09:54:59Z</time>
      </trkpt>
      <trkpt lat="43.97556" lon="7.10009">
        <ele>1323.1</ele>
        <time>2012-11-24T09:55:01Z</time>
      </trkpt>
      <trkpt lat="43.97562" lon="7.10012">
        <ele>1321.9</ele>
        <time>2012-11-24T09:55:03Z</time>
      </trkpt>
      <trkpt lat="43.9757" lon="7.10018">
        <ele>1319.5</ele>
        <time>2012-11-24T09:55:07Z</time>
      </trkpt>
      <trkpt lat="43.97577" lon="7.10025">
        <ele>1317.4</ele>
        <time>2012-11-24T09:55:11Z</time>
      </trkpt>
      <trkpt lat="43.97578" lon="7.10027">
        <ele>1317.2</ele>
        <time>2012-11-24T09:55:12Z</time>
      </trkpt>
      <trkpt lat="43.97587" lon="7.10039">
        <ele>1315.2</ele>
        <time>2012-11-24T09:55:17Z</time>
      </trkpt>
      <trkpt lat="43.97592" lon="7.10045">
        <ele>1314.7</ele>
        <time>2012-11-24T09:55:19Z</time>
      </trkpt>
      <trkpt lat="43.97599" lon="7.10053">
        <ele>1314.2</ele>
        <time>2012-11-24T09:55:22Z</time>
      </trkpt>
      <trkpt lat="43.97606" lon="7.10057">
        <ele>1312.9</ele>
        <time>2012-11-24T09:55:24Z</time>
      </trkpt>
      <trkpt lat="43.97609" lon="7.10061">
        <ele>1313.2</ele>
        <time>2012-11-24T09:55:25Z</time>
      </trkpt>
      <trkpt lat="43.97615" lon="7.1007">
        <ele>1313.5</ele>
        <time>2012-11-24T09:55:27Z</time>
      </trkpt>
      <trkpt lat="43.97619" lon="7.10074">
        <ele>1312.8</ele>
        <time>2012-11-24T09:55:28Z</time>
      </trkpt>
      <trkpt lat="43.97622" lon="7.10078">
        <ele>1312.3</ele>
        <time>2012-11-24T09:55:29Z</time>
      </trkpt>
      <trkpt lat="43.97625" lon="7.10083">
        <ele>1311.8</ele>
        <time>2012-11-24T09:55:30Z</time>
      </trkpt>
      <trkpt lat="43.97628" lon="7.10089">
        <ele>1311.4</ele>
        <time>2012-11-24T09:55:31Z</time>
      </trkpt>
      <trkpt lat="43.97634" lon="7.10097">
        <ele>1310.4</ele>
        <time>2012-11-24T09:55:33Z</time>
      </trkpt>
      <trkpt lat="43.9764" lon="7.10106">
        <ele>1309.1</ele>
        <time>2012-11-24T09:55:35Z</time>
      </trkpt>
      <trkpt lat="43.97646" lon="7.10114">
        <ele>1307.4</ele>
        <time>2012-11-24T09:55:37Z</time>
      </trkpt>
      <trkpt lat="43.97652" lon="7.1012">
        <ele>1306.3</ele>
        <time>2012-11-24T09:55:39Z</time>
      </trkpt>
      <trkpt lat="43.97657" lon="7.1013">
        <ele>1305.7</ele>
        <time>2012-11-24T09:55:41Z</time>
      </trkpt>
      <trkpt lat="43.9766" lon="7.10135">
        <ele>1305.2</ele>
        <time>2012-11-24T09:55:42Z</time>
      </trkpt>
      <trkpt lat="43.97664" lon="7.10145">
        <ele>1304.3</ele>
        <time>2012-11-24T09:55:44Z</time>
      </trkpt>
      <trkpt lat="43.97671" lon="7.10152">
        <ele>1303.5</ele>
        <time>2012-11-24T09:55:46Z</time>
      </trkpt>
      <trkpt lat="43.97675" lon="7.10155">
        <ele>1303.3</ele>
        <time>2012-11-24T09:55:47Z</time>
      </trkpt>
      <trkpt lat="43.97679" lon="7.10157">
        <ele>1303.1</ele>
        <time>2012-11-24T09:55:48Z</time>
      </trkpt>
      <trkpt lat="43.97687" lon="7.10163">
        <ele>1302.4</ele>
        <time>2012-11-24T09:55:50Z</time>
      </trkpt>
      <trkpt lat="43.97691" lon="7.10166">
        <ele>1301.7</ele>
        <time>2012-11-24T09:55:51Z</time>
      </trkpt>
      <trkpt lat="43.97695" lon="7.10168">
        <ele>1301.2</ele>
        <time>2012-11-24T09:55:52Z</time>
      </trkpt>
      <trkpt lat="43.977" lon="7.10171">
        <ele>1300.8</ele>
        <time>2012-11-24T09:55:53Z</time>
      </trkpt>
      <trkpt lat="43.97705" lon="7.10175">
        <ele>1300.5</ele>
        <time>2012-11-24T09:55:54Z</time>
      </trkpt>
      <trkpt lat="43.97709" lon="7.10179">
        <ele>1300.3</ele>
        <time>2012-11-24T09:55:55Z</time>
      </trkpt>
      <trkpt lat="43.97714" lon="7.10184">
        <ele>1299.9</ele>
        <time>2012-11-24T09:55:56Z</time>
      </trkpt>
      <trkpt lat="43.97718" lon="7.1019">
        <ele>1299.6</ele>
        <time>2012-11-24T09:55:57Z</time>
      </trkpt>
      <trkpt lat="43.97724" lon="7.10194">
        <ele>1298.6</ele>
        <time>2012-11-24T09:55:58Z</time>
      </trkpt>
      <trkpt lat="43.97729" lon="7.10198">
        <ele>1297.9</ele>
        <time>2012-11-24T09:55:59Z</time>
      </trkpt>
      <trkpt lat="43.97733" lon="7.10202">
        <ele>1297.3</ele>
        <time>2012-11-24T09:56:00Z</time>
      </trkpt>
      <trkpt lat="43.97738" lon="7.10207">
        <ele>1296.8</ele>
        <time>2012-11-24T09:56:01Z</time>
      </trkpt>
      <trkpt lat="43.97742" lon="7.10213">
        <ele>1296.5</ele>
        <time>2012-11-24T09:56:02Z</time>
      </trkpt>
      <trkpt lat="43.97746" lon="7.10218">
        <ele>1295.3</ele>
        <time>2012-11-24T09:56:03Z</time>
      </trkpt>
      <trkpt lat="43.97755" lon="7.1022">
        <ele>1293.7</ele>
        <time>2012-11-24T09:56:05Z</time>
      </trkpt>
      <trkpt lat="43.97762" lon="7.10223">
        <ele>1292.7</ele>
        <time>2012-11-24T09:56:07Z</time>
      </trkpt>
      <trkpt lat="43.97767" lon="7.10224">
        <ele>1292</ele>
        <time>2012-11-24T09:56:08Z</time>
      </trkpt>
      <trkpt lat="43.97773" lon="7.10227">
        <ele>1291.4</ele>
        <time>2012-11-24T09:56:09Z</time>
      </trkpt>
      <trkpt lat="43.97777" lon="7.10229">
        <ele>1290.8</ele>
        <time>2012-11-24T09:56:10Z</time>
      </trkpt>
      <trkpt lat="43.97784" lon="7.10234">
        <ele>1289.9</ele>
        <time>2012-11-24T09:56:12Z</time>
      </trkpt>
      <trkpt lat="43.97785" lon="7.10235">
        <ele>1289</ele>
        <time>2012-11-24T09:56:13Z</time>
      </trkpt>
      <trkpt lat="43.97796" lon="7.10241">
        <ele>1285.6</ele>
        <time>2012-11-24T09:56:19Z</time>
      </trkpt>
      <trkpt lat="43.97801" lon="7.1025">
        <ele>1282.3</ele>
        <time>2012-11-24T09:56:26Z</time>
      </trkpt>
      <trkpt lat="43.97806" lon="7.10254">
        <ele>1280.1</ele>
        <time>2012-11-24T09:56:29Z</time>
      </trkpt>
      <trkpt lat="43.97813" lon="7.10259">
        <ele>1278.3</ele>
        <time>2012-11-24T09:56:31Z</time>
      </trkpt>
      <trkpt lat="43.97822" lon="7.10259">
        <ele>1277.2</ele>
        <time>2012-11-24T09:56:33Z</time>
      </trkpt>
      <trkpt lat="43.97829" lon="7.10264">
        <ele>1275.4</ele>
        <time>2012-11-24T09:56:36Z</time>
      </trkpt>
      <trkpt lat="43.97835" lon="7.1027">
        <ele>1274.1</ele>
        <time>2012-11-24T09:56:38Z</time>
      </trkpt>
      <trkpt lat="43.97843" lon="7.10275">
        <ele>1272.7</ele>
        <time>2012-11-24T09:56:40Z</time>
      </trkpt>
      <trkpt lat="43.97851" lon="7.10279">
        <ele>1271.7</ele>
        <time>2012-11-24T09:56:42Z</time>
      </trkpt>
      <trkpt lat="43.97859" lon="7.10279">
        <ele>1270.5</ele>
        <time>2012-11-24T09:56:44Z</time>
      </trkpt>
      <trkpt lat="43.97865" lon="7.1028">
        <ele>1270.1</ele>
        <time>2012-11-24T09:56:45Z</time>
      </trkpt>
      <trkpt lat="43.97871" lon="7.10283">
        <ele>1269.1</ele>
        <time>2012-11-24T09:56:46Z</time>
      </trkpt>
      <trkpt lat="43.97877" lon="7.10285">
        <ele>1268.3</ele>
        <time>2012-11-24T09:56:47Z</time>
      </trkpt>
      <trkpt lat="43.97882" lon="7.10287">
        <ele>1267.2</ele>
        <time>2012-11-24T09:56:48Z</time>
      </trkpt>
      <trkpt lat="43.97887" lon="7.10291">
        <ele>1266.3</ele>
        <time>2012-11-24T09:56:49Z</time>
      </trkpt>
      <trkpt lat="43.97892" lon="7.10294">
        <ele>1265.7</ele>
        <time>2012-11-24T09:56:50Z</time>
      </trkpt>
      <trkpt lat="43.97897" lon="7.10296">
        <ele>1264.7</ele>
        <time>2012-11-24T09:56:51Z</time>
      </trkpt>
      <trkpt lat="43.97903" lon="7.10297">
        <ele>1263.9</ele>
        <time>2012-11-24T09:56:52Z</time>
      </trkpt>
      <trkpt lat="43.97909" lon="7.10297">
        <ele>1262.8</ele>
        <time>2012-11-24T09:56:53Z</time>
      </trkpt>
      <trkpt lat="43.97915" lon="7.10297">
        <ele>1262</ele>
        <time>2012-11-24T09:56:54Z</time>
      </trkpt>
      <trkpt lat="43.97921" lon="7.10298">
        <ele>1261.5</ele>
        <time>2012-11-24T09:56:55Z</time>
      </trkpt>
      <trkpt lat="43.97927" lon="7.103">
        <ele>1261.1</ele>
        <time>2012-11-24T09:56:56Z</time>
      </trkpt>
      <trkpt lat="43.97932" lon="7.10301">
        <ele>1260.8</ele>
        <time>2012-11-24T09:56:57Z</time>
      </trkpt>
      <trkpt lat="43.9794" lon="7.10303">
        <ele>1258.5</ele>
        <time>2012-11-24T09:56:59Z</time>
      </trkpt>
      <trkpt lat="43.97948" lon="7.10308">
        <ele>1255.8</ele>
        <time>2012-11-24T09:57:02Z</time>
      </trkpt>
      <trkpt lat="43.97949" lon="7.10319">
        <ele>1256.1</ele>
        <time>2012-11-24T09:57:08Z</time>
      </trkpt>
      <trkpt lat="43.97946" lon="7.10328">
        <ele>1256.4</ele>
        <time>2012-11-24T09:57:12Z</time>
      </trkpt>
      <trkpt lat="43.9794" lon="7.10337">
        <ele>1256.9</ele>
        <time>2012-11-24T09:57:16Z</time>
      </trkpt>
      <trkpt lat="43.97939" lon="7.10339">
        <ele>1256.4</ele>
        <time>2012-11-24T09:57:17Z</time>
      </trkpt>
      <trkpt lat="43.97932" lon="7.10354">
        <ele>1256</ele>
        <time>2012-11-24T09:57:22Z</time>
      </trkpt>
      <trkpt lat="43.97926" lon="7.1036">
        <ele>1255.6</ele>
        <time>2012-11-24T09:57:25Z</time>
      </trkpt>
      <trkpt lat="43.9792" lon="7.10366">
        <ele>1255.5</ele>
        <time>2012-11-24T09:57:29Z</time>
      </trkpt>
      <trkpt lat="43.97914" lon="7.1037">
        <ele>1255.3</ele>
        <time>2012-11-24T09:57:32Z</time>
      </trkpt>
      <trkpt lat="43.97908" lon="7.10376">
        <ele>1255.2</ele>
        <time>2012-11-24T09:57:35Z</time>
      </trkpt>
      <trkpt lat="43.97904" lon="7.10385">
        <ele>1254.7</ele>
        <time>2012-11-24T09:57:38Z</time>
      </trkpt>
      <trkpt lat="43.979" lon="7.10392">
        <ele>1254.5</ele>
        <time>2012-11-24T09:57:40Z</time>
      </trkpt>
      <trkpt lat="43.97896" lon="7.10399">
        <ele>1254.2</ele>
        <time>2012-11-24T09:57:42Z</time>
      </trkpt>
      <trkpt lat="43.97892" lon="7.10408">
        <ele>1253.4</ele>
        <time>2012-11-24T09:57:44Z</time>
      </trkpt>
      <trkpt lat="43.97887" lon="7.10417">
        <ele>1252.7</ele>
        <time>2012-11-24T09:57:46Z</time>
      </trkpt>
      <trkpt lat="43.97884" lon="7.10428">
        <ele>1251.9</ele>
        <time>2012-11-24T09:57:48Z</time>
      </trkpt>
      <trkpt lat="43.97883" lon="7.10437">
        <ele>1251.4</ele>
        <time>2012-11-24T09:57:50Z</time>
      </trkpt>
      <trkpt lat="43.9788" lon="7.10445">
        <ele>1251.1</ele>
        <time>2012-11-24T09:57:52Z</time>
      </trkpt>
      <trkpt lat="43.97877" lon="7.10452">
        <ele>1250.8</ele>
        <time>2012-11-24T09:57:54Z</time>
      </trkpt>
      <trkpt lat="43.97875" lon="7.1046">
        <ele>1250.8</ele>
        <time>2012-11-24T09:57:56Z</time>
      </trkpt>
      <trkpt lat="43.97871" lon="7.10468">
        <ele>1251.2</ele>
        <time>2012-11-24T09:57:58Z</time>
      </trkpt>
      <trkpt lat="43.97869" lon="7.10477">
        <ele>1250.6</ele>
        <time>2012-11-24T09:58:00Z</time>
      </trkpt>
      <trkpt lat="43.97865" lon="7.10487">
        <ele>1250.4</ele>
        <time>2012-11-24T09:58:02Z</time>
      </trkpt>
      <trkpt lat="43.97863" lon="7.10498">
        <ele>1250</ele>
        <time>2012-11-24T09:58:04Z</time>
      </trkpt>
      <trkpt lat="43.9786" lon="7.10509">
        <ele>1249.5</ele>
        <time>2012-11-24T09:58:06Z</time>
      </trkpt>
      <trkpt lat="43.97855" lon="7.10518">
        <ele>1249.5</ele>
        <time>2012-11-24T09:58:08Z</time>
      </trkpt>
      <trkpt lat="43.97849" lon="7.10526">
        <ele>1249.7</ele>
        <time>2012-11-24T09:58:10Z</time>
      </trkpt>
      <trkpt lat="43.97844" lon="7.10534">
        <ele>1249.5</ele>
        <time>2012-11-24T09:58:12Z</time>
      </trkpt>
      <trkpt lat="43.97838" lon="7.10542">
        <ele>1249</ele>
        <time>2012-11-24T09:58:14Z</time>
      </trkpt>
      <trkpt lat="43.97832" lon="7.10551">
        <ele>1248.8</ele>
        <time>2012-11-24T09:58:16Z</time>
      </trkpt>
      <trkpt lat="43.97827" lon="7.10558">
        <ele>1248.7</ele>
        <time>2012-11-24T09:58:18Z</time>
      </trkpt>
      <trkpt lat="43.97824" lon="7.10562">
        <ele>1248.5</ele>
        <time>2012-11-24T09:58:19Z</time>
      </trkpt>
      <trkpt lat="43.97813" lon="7.10567">
        <ele>1247.7</ele>
        <time>2012-11-24T09:58:22Z</time>
      </trkpt>
      <trkpt lat="43.97809" lon="7.10568">
        <ele>1247.1</ele>
        <time>2012-11-24T09:58:23Z</time>
      </trkpt>
      <trkpt lat="43.97804" lon="7.1057">
        <ele>1246.7</ele>
        <time>2012-11-24T09:58:24Z</time>
      </trkpt>
      <trkpt lat="43.97799" lon="7.10571">
        <ele>1246.3</ele>
        <time>2012-11-24T09:58:25Z</time>
      </trkpt>
      <trkpt lat="43.97794" lon="7.10574">
        <ele>1245.5</ele>
        <time>2012-11-24T09:58:26Z</time>
      </trkpt>
      <trkpt lat="43.97789" lon="7.10577">
        <ele>1244.9</ele>
        <time>2012-11-24T09:58:27Z</time>
      </trkpt>
      <trkpt lat="43.97785" lon="7.1058">
        <ele>1244.5</ele>
        <time>2012-11-24T09:58:28Z</time>
      </trkpt>
      <trkpt lat="43.9778" lon="7.10581">
        <ele>1244.1</ele>
        <time>2012-11-24T09:58:29Z</time>
      </trkpt>
      <trkpt lat="43.97775" lon="7.10582">
        <ele>1243.7</ele>
        <time>2012-11-24T09:58:30Z</time>
      </trkpt>
      <trkpt lat="43.9777" lon="7.10584">
        <ele>1243.4</ele>
        <time>2012-11-24T09:58:31Z</time>
      </trkpt>
      <trkpt lat="43.97766" lon="7.10588">
        <ele>1243.2</ele>
        <time>2012-11-24T09:58:32Z</time>
      </trkpt>
      <trkpt lat="43.97763" lon="7.10593">
        <ele>1243</ele>
        <time>2012-11-24T09:58:33Z</time>
      </trkpt>
      <trkpt lat="43.9776" lon="7.106">
        <ele>1242.8</ele>
        <time>2012-11-24T09:58:34Z</time>
      </trkpt>
      <trkpt lat="43.97757" lon="7.10607">
        <ele>1241.7</ele>
        <time>2012-11-24T09:58:35Z</time>
      </trkpt>
      <trkpt lat="43.97752" lon="7.1061">
        <ele>1240.9</ele>
        <time>2012-11-24T09:58:36Z</time>
      </trkpt>
      <trkpt lat="43.97747" lon="7.10609">
        <ele>1240.2</ele>
        <time>2012-11-24T09:58:37Z</time>
      </trkpt>
      <trkpt lat="43.97743" lon="7.10607">
        <ele>1239.7</ele>
        <time>2012-11-24T09:58:38Z</time>
      </trkpt>
      <trkpt lat="43.97738" lon="7.10606">
        <ele>1239.3</ele>
        <time>2012-11-24T09:58:39Z</time>
      </trkpt>
      <trkpt lat="43.97729" lon="7.10607">
        <ele>1238.8</ele>
        <time>2012-11-24T09:58:41Z</time>
      </trkpt>
      <trkpt lat="43.97724" lon="7.10613">
        <ele>1238.9</ele>
        <time>2012-11-24T09:58:43Z</time>
      </trkpt>
      <trkpt lat="43.97721" lon="7.10621">
        <ele>1239.1</ele>
        <time>2012-11-24T09:58:45Z</time>
      </trkpt>
      <trkpt lat="43.97717" lon="7.10629">
        <ele>1239.4</ele>
        <time>2012-11-24T09:58:47Z</time>
      </trkpt>
      <trkpt lat="43.9771" lon="7.10633">
        <ele>1239.4</ele>
        <time>2012-11-24T09:58:49Z</time>
      </trkpt>
      <trkpt lat="43.97702" lon="7.10634">
        <ele>1239.2</ele>
        <time>2012-11-24T09:58:51Z</time>
      </trkpt>
      <trkpt lat="43.97694" lon="7.10635">
        <ele>1239.5</ele>
        <time>2012-11-24T09:58:53Z</time>
      </trkpt>
      <trkpt lat="43.97687" lon="7.10638">
        <ele>1239.6</ele>
        <time>2012-11-24T09:58:55Z</time>
      </trkpt>
      <trkpt lat="43.97681" lon="7.1064">
        <ele>1240.5</ele>
        <time>2012-11-24T09:58:57Z</time>
      </trkpt>
      <trkpt lat="43.97672" lon="7.10642">
        <ele>1241.8</ele>
        <time>2012-11-24T09:59:00Z</time>
      </trkpt>
      <trkpt lat="43.97665" lon="7.10644">
        <ele>1242.5</ele>
        <time>2012-11-24T09:59:03Z</time>
      </trkpt>
      <trkpt lat="43.97657" lon="7.10648">
        <ele>1243.2</ele>
        <time>2012-11-24T09:59:06Z</time>
      </trkpt>
      <trkpt lat="43.97649" lon="7.10652">
        <ele>1243.7</ele>
        <time>2012-11-24T09:59:09Z</time>
      </trkpt>
      <trkpt lat="43.97644" lon="7.10655">
        <ele>1244.3</ele>
        <time>2012-11-24T09:59:11Z</time>
      </trkpt>
      <trkpt lat="43.97638" lon="7.10658">
        <ele>1244.6</ele>
        <time>2012-11-24T09:59:13Z</time>
      </trkpt>
      <trkpt lat="43.97631" lon="7.10663">
        <ele>1244.5</ele>
        <time>2012-11-24T09:59:15Z</time>
      </trkpt>
      <trkpt lat="43.97624" lon="7.10668">
        <ele>1244.3</ele>
        <time>2012-11-24T09:59:17Z</time>
      </trkpt>
      <trkpt lat="43.97619" lon="7.10674">
        <ele>1244.3</ele>
        <time>2012-11-24T09:59:19Z</time>
      </trkpt>
      <trkpt lat="43.97613" lon="7.1068">
        <ele>1244.4</ele>
        <time>2012-11-24T09:59:21Z</time>
      </trkpt>
      <trkpt lat="43.9761" lon="7.10684">
        <ele>1244.4</ele>
        <time>2012-11-24T09:59:22Z</time>
      </trkpt>
      <trkpt lat="43.97602" lon="7.10695">
        <ele>1244.3</ele>
        <time>2012-11-24T09:59:26Z</time>
      </trkpt>
      <trkpt lat="43.97598" lon="7.10702">
        <ele>1244.4</ele>
        <time>2012-11-24T09:59:28Z</time>
      </trkpt>
      <trkpt lat="43.97594" lon="7.10709">
        <ele>1244.5</ele>
        <time>2012-11-24T09:59:30Z</time>
      </trkpt>
      <trkpt lat="43.97588" lon="7.10718">
        <ele>1244.7</ele>
        <time>2012-11-24T09:59:33Z</time>
      </trkpt>
      <trkpt lat="43.97582" lon="7.10727">
        <ele>1244.9</ele>
        <time>2012-11-24T09:59:36Z</time>
      </trkpt>
      <trkpt lat="43.97575" lon="7.10734">
        <ele>1245.4</ele>
        <time>2012-11-24T09:59:39Z</time>
      </trkpt>
      <trkpt lat="43.97567" lon="7.10737">
        <ele>1245.8</ele>
        <time>2012-11-24T09:59:42Z</time>
      </trkpt>
      <trkpt lat="43.97561" lon="7.10736">
        <ele>1246.2</ele>
        <time>2012-11-24T09:59:44Z</time>
      </trkpt>
      <trkpt lat="43.97555" lon="7.10736">
        <ele>1246.5</ele>
        <time>2012-11-24T09:59:46Z</time>
      </trkpt>
      <trkpt lat="43.97546" lon="7.10738">
        <ele>1246.9</ele>
        <time>2012-11-24T09:59:49Z</time>
      </trkpt>
      <trkpt lat="43.97537" lon="7.10739">
        <ele>1246.8</ele>
        <time>2012-11-24T09:59:52Z</time>
      </trkpt>
      <trkpt lat="43.97529" lon="7.10739">
        <ele>1247.5</ele>
        <time>2012-11-24T09:59:55Z</time>
      </trkpt>
      <trkpt lat="43.97521" lon="7.1074">
        <ele>1248.2</ele>
        <time>2012-11-24T09:59:58Z</time>
      </trkpt>
      <trkpt lat="43.97513" lon="7.10741">
        <ele>1248.5</ele>
        <time>2012-11-24T10:00:01Z</time>
      </trkpt>
      <trkpt lat="43.97506" lon="7.10743">
        <ele>1249.6</ele>
        <time>2012-11-24T10:00:04Z</time>
      </trkpt>
      <trkpt lat="43.97499" lon="7.10747">
        <ele>1249.7</ele>
        <time>2012-11-24T10:00:07Z</time>
      </trkpt>
      <trkpt lat="43.97492" lon="7.1075">
        <ele>1250.5</ele>
        <time>2012-11-24T10:00:10Z</time>
      </trkpt>
      <trkpt lat="43.97486" lon="7.10753">
        <ele>1251.2</ele>
        <time>2012-11-24T10:00:13Z</time>
      </trkpt>
      <trkpt lat="43.97479" lon="7.10757">
        <ele>1251.7</ele>
        <time>2012-11-24T10:00:16Z</time>
      </trkpt>
      <trkpt lat="43.97472" lon="7.10761">
        <ele>1252.9</ele>
        <time>2012-11-24T10:00:19Z</time>
      </trkpt>
      <trkpt lat="43.97466" lon="7.10765">
        <ele>1253.9</ele>
        <time>2012-11-24T10:00:22Z</time>
      </trkpt>
      <trkpt lat="43.97459" lon="7.10769">
        <ele>1254.1</ele>
        <time>2012-11-24T10:00:25Z</time>
      </trkpt>
      <trkpt lat="43.97456" lon="7.10771">
        <ele>1254</ele>
        <time>2012-11-24T10:00:26Z</time>
      </trkpt>
      <trkpt lat="43.97445" lon="7.10775">
        <ele>1254.8</ele>
        <time>2012-11-24T10:00:30Z</time>
      </trkpt>
      <trkpt lat="43.97437" lon="7.1078">
        <ele>1254.4</ele>
        <time>2012-11-24T10:00:32Z</time>
      </trkpt>
      <trkpt lat="43.97433" lon="7.10782">
        <ele>1254.3</ele>
        <time>2012-11-24T10:00:33Z</time>
      </trkpt>
      <trkpt lat="43.97428" lon="7.10784">
        <ele>1254.6</ele>
        <time>2012-11-24T10:00:34Z</time>
      </trkpt>
      <trkpt lat="43.97424" lon="7.10787">
        <ele>1254.8</ele>
        <time>2012-11-24T10:00:35Z</time>
      </trkpt>
      <trkpt lat="43.97417" lon="7.10793">
        <ele>1254.8</ele>
        <time>2012-11-24T10:00:37Z</time>
      </trkpt>
      <trkpt lat="43.97411" lon="7.10798">
        <ele>1254.5</ele>
        <time>2012-11-24T10:00:39Z</time>
      </trkpt>
      <trkpt lat="43.97403" lon="7.10803">
        <ele>1252.8</ele>
        <time>2012-11-24T10:02:07Z</time>
      </trkpt>
      <trkpt lat="43.97401" lon="7.10805">
        <ele>1252.8</ele>
        <time>2012-11-24T10:02:08Z</time>
      </trkpt>
      <trkpt lat="43.97392" lon="7.10818">
        <ele>1252.1</ele>
        <time>2012-11-24T10:02:12Z</time>
      </trkpt>
      <trkpt lat="43.97393" lon="7.10831">
        <ele>1251.6</ele>
        <time>2012-11-24T10:02:14Z</time>
      </trkpt>
      <trkpt lat="43.97394" lon="7.10838">
        <ele>1251.5</ele>
        <time>2012-11-24T10:02:15Z</time>
      </trkpt>
      <trkpt lat="43.97396" lon="7.10845">
        <ele>1251.1</ele>
        <time>2012-11-24T10:02:16Z</time>
      </trkpt>
      <trkpt lat="43.97397" lon="7.10852">
        <ele>1250.9</ele>
        <time>2012-11-24T10:02:17Z</time>
      </trkpt>
      <trkpt lat="43.97398" lon="7.1086">
        <ele>1250.1</ele>
        <time>2012-11-24T10:02:18Z</time>
      </trkpt>
      <trkpt lat="43.97398" lon="7.10869">
        <ele>1249.5</ele>
        <time>2012-11-24T10:02:19Z</time>
      </trkpt>
      <trkpt lat="43.97398" lon="7.10879">
        <ele>1249</ele>
        <time>2012-11-24T10:02:20Z</time>
      </trkpt>
      <trkpt lat="43.97398" lon="7.10888">
        <ele>1248.4</ele>
        <time>2012-11-24T10:02:21Z</time>
      </trkpt>
      <trkpt lat="43.97399" lon="7.10897">
        <ele>1248</ele>
        <time>2012-11-24T10:02:22Z</time>
      </trkpt>
      <trkpt lat="43.97401" lon="7.10906">
        <ele>1247.4</ele>
        <time>2012-11-24T10:02:23Z</time>
      </trkpt>
      <trkpt lat="43.97403" lon="7.10915">
        <ele>1246.9</ele>
        <time>2012-11-24T10:02:24Z</time>
      </trkpt>
      <trkpt lat="43.97403" lon="7.10923">
        <ele>1246.6</ele>
        <time>2012-11-24T10:02:25Z</time>
      </trkpt>
      <trkpt lat="43.974" lon="7.1093">
        <ele>1246.3</ele>
        <time>2012-11-24T10:02:26Z</time>
      </trkpt>
      <trkpt lat="43.97395" lon="7.10933">
        <ele>1246.1</ele>
        <time>2012-11-24T10:02:27Z</time>
      </trkpt>
      <trkpt lat="43.97391" lon="7.10938">
        <ele>1245.5</ele>
        <time>2012-11-24T10:02:28Z</time>
      </trkpt>
      <trkpt lat="43.97387" lon="7.10943">
        <ele>1245</ele>
        <time>2012-11-24T10:02:29Z</time>
      </trkpt>
      <trkpt lat="43.97383" lon="7.10948">
        <ele>1244.7</ele>
        <time>2012-11-24T10:02:30Z</time>
      </trkpt>
      <trkpt lat="43.97379" lon="7.10953">
        <ele>1244.5</ele>
        <time>2012-11-24T10:02:31Z</time>
      </trkpt>
      <trkpt lat="43.97376" lon="7.10959">
        <ele>1244.4</ele>
        <time>2012-11-24T10:02:32Z</time>
      </trkpt>
      <trkpt lat="43.97376" lon="7.10967">
        <ele>1244.4</ele>
        <time>2012-11-24T10:02:33Z</time>
      </trkpt>
      <trkpt lat="43.97378" lon="7.10974">
        <ele>1244.3</ele>
        <time>2012-11-24T10:02:34Z</time>
      </trkpt>
      <trkpt lat="43.9738" lon="7.10982">
        <ele>1243.6</ele>
        <time>2012-11-24T10:02:35Z</time>
      </trkpt>
      <trkpt lat="43.97382" lon="7.10989">
        <ele>1243</ele>
        <time>2012-11-24T10:02:36Z</time>
      </trkpt>
      <trkpt lat="43.97383" lon="7.10997">
        <ele>1242.4</ele>
        <time>2012-11-24T10:02:37Z</time>
      </trkpt>
      <trkpt lat="43.97384" lon="7.11006">
        <ele>1241.9</ele>
        <time>2012-11-24T10:02:38Z</time>
      </trkpt>
      <trkpt lat="43.97384" lon="7.11014">
        <ele>1241.5</ele>
        <time>2012-11-24T10:02:39Z</time>
      </trkpt>
      <trkpt lat="43.97385" lon="7.11023">
        <ele>1241.4</ele>
        <time>2012-11-24T10:02:40Z</time>
      </trkpt>
      <trkpt lat="43.97383" lon="7.1103">
        <ele>1241.2</ele>
        <time>2012-11-24T10:02:41Z</time>
      </trkpt>
      <trkpt lat="43.97382" lon="7.11037">
        <ele>1240.4</ele>
        <time>2012-11-24T10:02:42Z</time>
      </trkpt>
      <trkpt lat="43.97383" lon="7.11044">
        <ele>1239.7</ele>
        <time>2012-11-24T10:02:43Z</time>
      </trkpt>
      <trkpt lat="43.97385" lon="7.11051">
        <ele>1239.3</ele>
        <time>2012-11-24T10:02:44Z</time>
      </trkpt>
      <trkpt lat="43.97389" lon="7.11056">
        <ele>1239.1</ele>
        <time>2012-11-24T10:02:45Z</time>
      </trkpt>
      <trkpt lat="43.97392" lon="7.11061">
        <ele>1238.9</ele>
        <time>2012-11-24T10:02:46Z</time>
      </trkpt>
      <trkpt lat="43.97397" lon="7.11065">
        <ele>1237.9</ele>
        <time>2012-11-24T10:02:47Z</time>
      </trkpt>
      <trkpt lat="43.97403" lon="7.11069">
        <ele>1237.2</ele>
        <time>2012-11-24T10:02:48Z</time>
      </trkpt>
      <trkpt lat="43.97401" lon="7.11079">
        <ele>1235.1</ele>
        <time>2012-11-24T10:02:51Z</time>
      </trkpt>
      <trkpt lat="43.97393" lon="7.11083">
        <ele>1234.3</ele>
        <time>2012-11-24T10:02:53Z</time>
      </trkpt>
      <trkpt lat="43.97388" lon="7.11085">
        <ele>1233.6</ele>
        <time>2012-11-24T10:02:54Z</time>
      </trkpt>
      <trkpt lat="43.97384" lon="7.1109">
        <ele>1233.1</ele>
        <time>2012-11-24T10:02:55Z</time>
      </trkpt>
      <trkpt lat="43.9738" lon="7.11096">
        <ele>1232.4</ele>
        <time>2012-11-24T10:02:56Z</time>
      </trkpt>
      <trkpt lat="43.97375" lon="7.11102">
        <ele>1231.9</ele>
        <time>2012-11-24T10:02:57Z</time>
      </trkpt>
      <trkpt lat="43.9737" lon="7.11107">
        <ele>1230.9</ele>
        <time>2012-11-24T10:02:58Z</time>
      </trkpt>
      <trkpt lat="43.97365" lon="7.11111">
        <ele>1230.3</ele>
        <time>2012-11-24T10:02:59Z</time>
      </trkpt>
      <trkpt lat="43.97361" lon="7.11114">
        <ele>1229.7</ele>
        <time>2012-11-24T10:03:00Z</time>
      </trkpt>
      <trkpt lat="43.97356" lon="7.11118">
        <ele>1228.7</ele>
        <time>2012-11-24T10:03:01Z</time>
      </trkpt>
      <trkpt lat="43.97351" lon="7.11122">
        <ele>1227.9</ele>
        <time>2012-11-24T10:03:02Z</time>
      </trkpt>
      <trkpt lat="43.97346" lon="7.11126">
        <ele>1226.9</ele>
        <time>2012-11-24T10:03:03Z</time>
      </trkpt>
      <trkpt lat="43.9734" lon="7.11132">
        <ele>1226.2</ele>
        <time>2012-11-24T10:03:04Z</time>
      </trkpt>
      <trkpt lat="43.97335" lon="7.11137">
        <ele>1225.7</ele>
        <time>2012-11-24T10:03:05Z</time>
      </trkpt>
      <trkpt lat="43.9733" lon="7.11141">
        <ele>1225.2</ele>
        <time>2012-11-24T10:03:06Z</time>
      </trkpt>
      <trkpt lat="43.97324" lon="7.11146">
        <ele>1224.9</ele>
        <time>2012-11-24T10:03:07Z</time>
      </trkpt>
      <trkpt lat="43.97318" lon="7.1115">
        <ele>1224.1</ele>
        <time>2012-11-24T10:03:08Z</time>
      </trkpt>
      <trkpt lat="43.97312" lon="7.11154">
        <ele>1223.5</ele>
        <time>2012-11-24T10:03:09Z</time>
      </trkpt>
      <trkpt lat="43.97307" lon="7.11158">
        <ele>1222.7</ele>
        <time>2012-11-24T10:03:10Z</time>
      </trkpt>
      <trkpt lat="43.97301" lon="7.11161">
        <ele>1222.1</ele>
        <time>2012-11-24T10:03:11Z</time>
      </trkpt>
      <trkpt lat="43.97296" lon="7.11164">
        <ele>1221.7</ele>
        <time>2012-11-24T10:03:12Z</time>
      </trkpt>
      <trkpt lat="43.97291" lon="7.11168">
        <ele>1221.6</ele>
        <time>2012-11-24T10:03:13Z</time>
      </trkpt>
      <trkpt lat="43.97286" lon="7.11171">
        <ele>1221.5</ele>
        <time>2012-11-24T10:03:14Z</time>
      </trkpt>
      <trkpt lat="43.9728" lon="7.11173">
        <ele>1221.1</ele>
        <time>2012-11-24T10:03:15Z</time>
      </trkpt>
      <trkpt lat="43.97275" lon="7.11174">
        <ele>1220.8</ele>
        <time>2012-11-24T10:03:16Z</time>
      </trkpt>
      <trkpt lat="43.9727" lon="7.11176">
        <ele>1220.5</ele>
        <time>2012-11-24T10:03:17Z</time>
      </trkpt>
      <trkpt lat="43.97262" lon="7.11178">
        <ele>1219.9</ele>
        <time>2012-11-24T10:03:19Z</time>
      </trkpt>
      <trkpt lat="43.97256" lon="7.11179">
        <ele>1219.2</ele>
        <time>2012-11-24T10:03:21Z</time>
      </trkpt>
      <trkpt lat="43.97247" lon="7.11181">
        <ele>1218.3</ele>
        <time>2012-11-24T10:03:36Z</time>
      </trkpt>
      <trkpt lat="43.9724" lon="7.11184">
        <ele>1217.5</ele>
        <time>2012-11-24T10:03:41Z</time>
      </trkpt>
      <trkpt lat="43.97234" lon="7.11186">
        <ele>1217.3</ele>
        <time>2012-11-24T10:03:43Z</time>
      </trkpt>
      <trkpt lat="43.97226" lon="7.11187">
        <ele>1217.2</ele>
        <time>2012-11-24T10:03:45Z</time>
      </trkpt>
      <trkpt lat="43.97217" lon="7.11186">
        <ele>1217</ele>
        <time>2012-11-24T10:03:47Z</time>
      </trkpt>
      <trkpt lat="43.97209" lon="7.11189">
        <ele>1217.5</ele>
        <time>2012-11-24T10:03:49Z</time>
      </trkpt>
      <trkpt lat="43.972" lon="7.11192">
        <ele>1217.8</ele>
        <time>2012-11-24T10:03:51Z</time>
      </trkpt>
      <trkpt lat="43.97192" lon="7.11193">
        <ele>1218.1</ele>
        <time>2012-11-24T10:03:53Z</time>
      </trkpt>
      <trkpt lat="43.97184" lon="7.11193">
        <ele>1217.9</ele>
        <time>2012-11-24T10:03:55Z</time>
      </trkpt>
      <trkpt lat="43.97177" lon="7.11194">
        <ele>1217.6</ele>
        <time>2012-11-24T10:03:57Z</time>
      </trkpt>
      <trkpt lat="43.9717" lon="7.112">
        <ele>1217.9</ele>
        <time>2012-11-24T10:04:00Z</time>
      </trkpt>
      <trkpt lat="43.97161" lon="7.11201">
        <ele>1218</ele>
        <time>2012-11-24T10:04:04Z</time>
      </trkpt>
      <trkpt lat="43.97153" lon="7.11202">
        <ele>1218.1</ele>
        <time>2012-11-24T10:04:09Z</time>
      </trkpt>
      <trkpt lat="43.97152" lon="7.11202">
        <ele>1218.3</ele>
        <time>2012-11-24T10:04:10Z</time>
      </trkpt>
      <trkpt lat="43.97137" lon="7.11199">
        <ele>1218.2</ele>
        <time>2012-11-24T10:04:20Z</time>
      </trkpt>
      <trkpt lat="43.9713" lon="7.11199">
        <ele>1217.9</ele>
        <time>2012-11-24T10:04:23Z</time>
      </trkpt>
      <trkpt lat="43.97122" lon="7.11199">
        <ele>1217.7</ele>
        <time>2012-11-24T10:04:26Z</time>
      </trkpt>
      <trkpt lat="43.97116" lon="7.112">
        <ele>1217.3</ele>
        <time>2012-11-24T10:04:28Z</time>
      </trkpt>
      <trkpt lat="43.9711" lon="7.11202">
        <ele>1217</ele>
        <time>2012-11-24T10:04:30Z</time>
      </trkpt>
      <trkpt lat="43.97103" lon="7.11203">
        <ele>1216.7</ele>
        <time>2012-11-24T10:04:32Z</time>
      </trkpt>
      <trkpt lat="43.97095" lon="7.11204">
        <ele>1217</ele>
        <time>2012-11-24T10:04:34Z</time>
      </trkpt>
      <trkpt lat="43.97088" lon="7.11206">
        <ele>1216.9</ele>
        <time>2012-11-24T10:04:36Z</time>
      </trkpt>
      <trkpt lat="43.97081" lon="7.11209">
        <ele>1216.6</ele>
        <time>2012-11-24T10:04:38Z</time>
      </trkpt>
      <trkpt lat="43.97074" lon="7.11211">
        <ele>1216.5</ele>
        <time>2012-11-24T10:04:40Z</time>
      </trkpt>
      <trkpt lat="43.97066" lon="7.11214">
        <ele>1217.4</ele>
        <time>2012-11-24T10:04:43Z</time>
      </trkpt>
      <trkpt lat="43.97058" lon="7.11218">
        <ele>1216.7</ele>
        <time>2012-11-24T10:04:46Z</time>
      </trkpt>
      <trkpt lat="43.97051" lon="7.11221">
        <ele>1216.8</ele>
        <time>2012-11-24T10:04:49Z</time>
      </trkpt>
      <trkpt lat="43.97044" lon="7.11227">
        <ele>1217.2</ele>
        <time>2012-11-24T10:04:52Z</time>
      </trkpt>
      <trkpt lat="43.97048" lon="7.11219">
        <ele>1218.4</ele>
        <time>2012-11-24T10:05:16Z</time>
      </trkpt>
      <trkpt lat="43.97049" lon="7.11217">
        <ele>1218.7</ele>
        <time>2012-11-24T10:05:17Z</time>
      </trkpt>
      <trkpt lat="43.97057" lon="7.11203">
        <ele>1217.9</ele>
        <time>2012-11-24T10:05:22Z</time>
      </trkpt>
      <trkpt lat="43.97063" lon="7.11196">
        <ele>1217.4</ele>
        <time>2012-11-24T10:05:26Z</time>
      </trkpt>
      <trkpt lat="43.9707" lon="7.11195">
        <ele>1217.2</ele>
        <time>2012-11-24T10:05:29Z</time>
      </trkpt>
      <trkpt lat="43.97078" lon="7.11191">
        <ele>1216.4</ele>
        <time>2012-11-24T10:05:32Z</time>
      </trkpt>
      <trkpt lat="43.97082" lon="7.11181">
        <ele>1214.4</ele>
        <time>2012-11-24T10:06:09Z</time>
      </trkpt>
      <trkpt lat="43.97074" lon="7.1118">
        <ele>1214.4</ele>
        <time>2012-11-24T10:06:36Z</time>
      </trkpt>
      <trkpt lat="43.97071" lon="7.11179">
        <ele>1214.6</ele>
        <time>2012-11-24T10:06:37Z</time>
      </trkpt>
      <trkpt lat="43.9706" lon="7.11172">
        <ele>1214.9</ele>
        <time>2012-11-24T10:06:42Z</time>
      </trkpt>
      <trkpt lat="43.97054" lon="7.11163">
        <ele>1215.2</ele>
        <time>2012-11-24T10:06:46Z</time>
      </trkpt>
      <trkpt lat="43.9705" lon="7.11153">
        <ele>1215.2</ele>
        <time>2012-11-24T10:06:51Z</time>
      </trkpt>
      <trkpt lat="43.97047" lon="7.11142">
        <ele>1214.7</ele>
        <time>2012-11-24T10:06:58Z</time>
      </trkpt>
      <trkpt lat="43.97044" lon="7.1113">
        <ele>1215.2</ele>
        <time>2012-11-24T10:07:05Z</time>
      </trkpt>
      <trkpt lat="43.97044" lon="7.11119">
        <ele>1215.8</ele>
        <time>2012-11-24T10:07:10Z</time>
      </trkpt>
      <trkpt lat="43.97042" lon="7.11107">
        <ele>1215.6</ele>
        <time>2012-11-24T10:07:15Z</time>
      </trkpt>
      <trkpt lat="43.97041" lon="7.11096">
        <ele>1216.3</ele>
        <time>2012-11-24T10:07:35Z</time>
      </trkpt>
      <trkpt lat="43.97037" lon="7.11085">
        <ele>1215.7</ele>
        <time>2012-11-24T10:07:40Z</time>
      </trkpt>
      <trkpt lat="43.97036" lon="7.11083">
        <ele>1215.8</ele>
        <time>2012-11-24T10:07:41Z</time>
      </trkpt>
      <trkpt lat="43.9703" lon="7.11065">
        <ele>1216.8</ele>
        <time>2012-11-24T10:07:47Z</time>
      </trkpt>
      <trkpt lat="43.97026" lon="7.11059">
        <ele>1216.6</ele>
        <time>2012-11-24T10:07:49Z</time>
      </trkpt>
      <trkpt lat="43.97021" lon="7.11049">
        <ele>1216.1</ele>
        <time>2012-11-24T10:07:52Z</time>
      </trkpt>
      <trkpt lat="43.97015" lon="7.1104">
        <ele>1215.6</ele>
        <time>2012-11-24T10:07:59Z</time>
      </trkpt>
      <trkpt lat="43.9701" lon="7.11035">
        <ele>1216.4</ele>
        <time>2012-11-24T10:08:02Z</time>
      </trkpt>
      <trkpt lat="43.97005" lon="7.11029">
        <ele>1217.1</ele>
        <time>2012-11-24T10:08:04Z</time>
      </trkpt>
      <trkpt lat="43.97" lon="7.11022">
        <ele>1217</ele>
        <time>2012-11-24T10:08:06Z</time>
      </trkpt>
      <trkpt lat="43.96995" lon="7.11016">
        <ele>1216.3</ele>
        <time>2012-11-24T10:08:08Z</time>
      </trkpt>
      <trkpt lat="43.9699" lon="7.1101">
        <ele>1215.9</ele>
        <time>2012-11-24T10:08:10Z</time>
      </trkpt>
      <trkpt lat="43.96984" lon="7.11005">
        <ele>1215.9</ele>
        <time>2012-11-24T10:08:12Z</time>
      </trkpt>
      <trkpt lat="43.96977" lon="7.11003">
        <ele>1215.9</ele>
        <time>2012-11-24T10:08:14Z</time>
      </trkpt>
      <trkpt lat="43.96971" lon="7.11002">
        <ele>1216</ele>
        <time>2012-11-24T10:08:16Z</time>
      </trkpt>
      <trkpt lat="43.96964" lon="7.11001">
        <ele>1216.2</ele>
        <time>2012-11-24T10:08:18Z</time>
      </trkpt>
      <trkpt lat="43.96958" lon="7.10999">
        <ele>1216</ele>
        <time>2012-11-24T10:08:20Z</time>
      </trkpt>
      <trkpt lat="43.96951" lon="7.10995">
        <ele>1215.3</ele>
        <time>2012-11-24T10:08:22Z</time>
      </trkpt>
      <trkpt lat="43.96944" lon="7.10993">
        <ele>1215.5</ele>
        <time>2012-11-24T10:08:24Z</time>
      </trkpt>
      <trkpt lat="43.96936" lon="7.1099">
        <ele>1215.6</ele>
        <time>2012-11-24T10:08:26Z</time>
      </trkpt>
      <trkpt lat="43.96929" lon="7.10987">
        <ele>1215.9</ele>
        <time>2012-11-24T10:08:28Z</time>
      </trkpt>
      <trkpt lat="43.96921" lon="7.10983">
        <ele>1216.3</ele>
        <time>2012-11-24T10:08:30Z</time>
      </trkpt>
      <trkpt lat="43.96913" lon="7.1098">
        <ele>1216</ele>
        <time>2012-11-24T10:08:32Z</time>
      </trkpt>
      <trkpt lat="43.96905" lon="7.10977">
        <ele>1215.4</ele>
        <time>2012-11-24T10:08:34Z</time>
      </trkpt>
      <trkpt lat="43.96896" lon="7.10977">
        <ele>1215.2</ele>
        <time>2012-11-24T10:08:36Z</time>
      </trkpt>
      <trkpt lat="43.96889" lon="7.10982">
        <ele>1215.2</ele>
        <time>2012-11-24T10:08:38Z</time>
      </trkpt>
      <trkpt lat="43.96882" lon="7.10988">
        <ele>1214.9</ele>
        <time>2012-11-24T10:08:40Z</time>
      </trkpt>
      <trkpt lat="43.96878" lon="7.10991">
        <ele>1214.7</ele>
        <time>2012-11-24T10:08:41Z</time>
      </trkpt>
      <trkpt lat="43.96874" lon="7.10993">
        <ele>1214.6</ele>
        <time>2012-11-24T10:08:42Z</time>
      </trkpt>
      <trkpt lat="43.96865" lon="7.10995">
        <ele>1214.7</ele>
        <time>2012-11-24T10:08:44Z</time>
      </trkpt>
      <trkpt lat="43.9686" lon="7.10995">
        <ele>1214.9</ele>
        <time>2012-11-24T10:08:45Z</time>
      </trkpt>
      <trkpt lat="43.96855" lon="7.10994">
        <ele>1215.1</ele>
        <time>2012-11-24T10:08:46Z</time>
      </trkpt>
      <trkpt lat="43.9685" lon="7.10992">
        <ele>1215.3</ele>
        <time>2012-11-24T10:08:47Z</time>
      </trkpt>
      <trkpt lat="43.96842" lon="7.10988">
        <ele>1215.6</ele>
        <time>2012-11-24T10:08:49Z</time>
      </trkpt>
      <trkpt lat="43.96836" lon="7.10989">
        <ele>1215.3</ele>
        <time>2012-11-24T10:08:51Z</time>
      </trkpt>
      <trkpt lat="43.96829" lon="7.10992">
        <ele>1215</ele>
        <time>2012-11-24T10:08:53Z</time>
      </trkpt>
      <trkpt lat="43.96821" lon="7.10994">
        <ele>1214.8</ele>
        <time>2012-11-24T10:08:55Z</time>
      </trkpt>
      <trkpt lat="43.96815" lon="7.10996">
        <ele>1214.7</ele>
        <time>2012-11-24T10:08:57Z</time>
      </trkpt>
      <trkpt lat="43.96806" lon="7.10999">
        <ele>1214.6</ele>
        <time>2012-11-24T10:09:00Z</time>
      </trkpt>
      <trkpt lat="43.96798" lon="7.11001">
        <ele>1214.2</ele>
        <time>2012-11-24T10:09:03Z</time>
      </trkpt>
      <trkpt lat="43.96789" lon="7.11">
        <ele>1213.4</ele>
        <time>2012-11-24T10:09:08Z</time>
      </trkpt>
      <trkpt lat="43.9678" lon="7.10997">
        <ele>1212.1</ele>
        <time>2012-11-24T10:09:16Z</time>
      </trkpt>
      <trkpt lat="43.96772" lon="7.10994">
        <ele>1213.7</ele>
        <time>2012-11-24T10:09:29Z</time>
      </trkpt>
      <trkpt lat="43.96767" lon="7.10986">
        <ele>1212.9</ele>
        <time>2012-11-24T10:09:39Z</time>
      </trkpt>
      <trkpt lat="43.96761" lon="7.10981">
        <ele>1213.1</ele>
        <time>2012-11-24T10:09:42Z</time>
      </trkpt>
      <trkpt lat="43.96758" lon="7.10979">
        <ele>1213.1</ele>
        <time>2012-11-24T10:09:43Z</time>
      </trkpt>
      <trkpt lat="43.9675" lon="7.10973">
        <ele>1213.1</ele>
        <time>2012-11-24T10:09:46Z</time>
      </trkpt>
      <trkpt lat="43.96744" lon="7.10971">
        <ele>1212.5</ele>
        <time>2012-11-24T10:09:48Z</time>
      </trkpt>
      <trkpt lat="43.96737" lon="7.1097">
        <ele>1212.8</ele>
        <time>2012-11-24T10:09:50Z</time>
      </trkpt>
      <trkpt lat="43.96731" lon="7.10967">
        <ele>1212.8</ele>
        <time>2012-11-24T10:09:52Z</time>
      </trkpt>
      <trkpt lat="43.96724" lon="7.10964">
        <ele>1213.2</ele>
        <time>2012-11-24T10:09:54Z</time>
      </trkpt>
      <trkpt lat="43.96718" lon="7.10961">
        <ele>1213.4</ele>
        <time>2012-11-24T10:09:56Z</time>
      </trkpt>
      <trkpt lat="43.96712" lon="7.10958">
        <ele>1213.3</ele>
        <time>2012-11-24T10:09:58Z</time>
      </trkpt>
      <trkpt lat="43.96706" lon="7.10954">
        <ele>1212.8</ele>
        <time>2012-11-24T10:10:00Z</time>
      </trkpt>
      <trkpt lat="43.967" lon="7.10951">
        <ele>1213.1</ele>
        <time>2012-11-24T10:10:02Z</time>
      </trkpt>
      <trkpt lat="43.96694" lon="7.10948">
        <ele>1213.5</ele>
        <time>2012-11-24T10:10:04Z</time>
      </trkpt>
      <trkpt lat="43.96685" lon="7.10946">
        <ele>1213.3</ele>
        <time>2012-11-24T10:10:07Z</time>
      </trkpt>
      <trkpt lat="43.96677" lon="7.1095">
        <ele>1213</ele>
        <time>2012-11-24T10:10:10Z</time>
      </trkpt>
      <trkpt lat="43.9667" lon="7.10957">
        <ele>1212.9</ele>
        <time>2012-11-24T10:10:13Z</time>
      </trkpt>
      <trkpt lat="43.96666" lon="7.10963">
        <ele>1212.7</ele>
        <time>2012-11-24T10:10:15Z</time>
      </trkpt>
      <trkpt lat="43.96661" lon="7.10969">
        <ele>1212.7</ele>
        <time>2012-11-24T10:10:17Z</time>
      </trkpt>
      <trkpt lat="43.96655" lon="7.10975">
        <ele>1211.9</ele>
        <time>2012-11-24T10:10:19Z</time>
      </trkpt>
      <trkpt lat="43.96648" lon="7.10978">
        <ele>1212</ele>
        <time>2012-11-24T10:10:21Z</time>
      </trkpt>
      <trkpt lat="43.9664" lon="7.10977">
        <ele>1212.1</ele>
        <time>2012-11-24T10:10:23Z</time>
      </trkpt>
      <trkpt lat="43.96636" lon="7.10976">
        <ele>1212.2</ele>
        <time>2012-11-24T10:10:24Z</time>
      </trkpt>
      <trkpt lat="43.96631" lon="7.10976">
        <ele>1211.8</ele>
        <time>2012-11-24T10:10:25Z</time>
      </trkpt>
      <trkpt lat="43.96626" lon="7.10975">
        <ele>1211.6</ele>
        <time>2012-11-24T10:10:26Z</time>
      </trkpt>
      <trkpt lat="43.96622" lon="7.10973">
        <ele>1211.5</ele>
        <time>2012-11-24T10:10:27Z</time>
      </trkpt>
      <trkpt lat="43.96617" lon="7.10972">
        <ele>1211.4</ele>
        <time>2012-11-24T10:10:28Z</time>
      </trkpt>
      <trkpt lat="43.96613" lon="7.10971">
        <ele>1211.3</ele>
        <time>2012-11-24T10:10:29Z</time>
      </trkpt>
      <trkpt lat="43.96604" lon="7.10967">
        <ele>1211</ele>
        <time>2012-11-24T10:10:31Z</time>
      </trkpt>
      <trkpt lat="43.96597" lon="7.10964">
        <ele>1211.1</ele>
        <time>2012-11-24T10:10:33Z</time>
      </trkpt>
      <trkpt lat="43.9659" lon="7.1096">
        <ele>1210.9</ele>
        <time>2012-11-24T10:10:35Z</time>
      </trkpt>
      <trkpt lat="43.96582" lon="7.10957">
        <ele>1211.1</ele>
        <time>2012-11-24T10:10:37Z</time>
      </trkpt>
      <trkpt lat="43.96574" lon="7.10954">
        <ele>1211.2</ele>
        <time>2012-11-24T10:10:39Z</time>
      </trkpt>
      <trkpt lat="43.96566" lon="7.10952">
        <ele>1211.3</ele>
        <time>2012-11-24T10:10:41Z</time>
      </trkpt>
      <trkpt lat="43.96557" lon="7.1095">
        <ele>1211.4</ele>
        <time>2012-11-24T10:10:43Z</time>
      </trkpt>
      <trkpt lat="43.96553" lon="7.10949">
        <ele>1211.1</ele>
        <time>2012-11-24T10:10:44Z</time>
      </trkpt>
      <trkpt lat="43.96541" lon="7.10949">
        <ele>1210.8</ele>
        <time>2012-11-24T10:10:47Z</time>
      </trkpt>
      <trkpt lat="43.96533" lon="7.10953">
        <ele>1210.7</ele>
        <time>2012-11-24T10:10:49Z</time>
      </trkpt>
      <trkpt lat="43.96526" lon="7.10958">
        <ele>1210.7</ele>
        <time>2012-11-24T10:10:52Z</time>
      </trkpt>
      <trkpt lat="43.96518" lon="7.10965">
        <ele>1211.3</ele>
        <time>2012-11-24T10:10:55Z</time>
      </trkpt>
      <trkpt lat="43.96512" lon="7.10968">
        <ele>1211.5</ele>
        <time>2012-11-24T10:10:57Z</time>
      </trkpt>
      <trkpt lat="43.96504" lon="7.10967">
        <ele>1210.5</ele>
        <time>2012-11-24T10:11:00Z</time>
      </trkpt>
      <trkpt lat="43.96497" lon="7.10967">
        <ele>1209.7</ele>
        <time>2012-11-24T10:11:02Z</time>
      </trkpt>
      <trkpt lat="43.96489" lon="7.10965">
        <ele>1209.6</ele>
        <time>2012-11-24T10:11:05Z</time>
      </trkpt>
      <trkpt lat="43.96481" lon="7.10959">
        <ele>1209</ele>
        <time>2012-11-24T10:11:17Z</time>
      </trkpt>
      <trkpt lat="43.96475" lon="7.10953">
        <ele>1209.2</ele>
        <time>2012-11-24T10:11:21Z</time>
      </trkpt>
      <trkpt lat="43.96469" lon="7.10948">
        <ele>1209.2</ele>
        <time>2012-11-24T10:11:24Z</time>
      </trkpt>
      <trkpt lat="43.96464" lon="7.1094">
        <ele>1209</ele>
        <time>2012-11-24T10:11:27Z</time>
      </trkpt>
      <trkpt lat="43.9646" lon="7.10933">
        <ele>1209.2</ele>
        <time>2012-11-24T10:11:29Z</time>
      </trkpt>
      <trkpt lat="43.96454" lon="7.10929">
        <ele>1209.5</ele>
        <time>2012-11-24T10:11:31Z</time>
      </trkpt>
      <trkpt lat="43.96448" lon="7.10925">
        <ele>1209.5</ele>
        <time>2012-11-24T10:11:33Z</time>
      </trkpt>
      <trkpt lat="43.96442" lon="7.10921">
        <ele>1209.3</ele>
        <time>2012-11-24T10:11:35Z</time>
      </trkpt>
      <trkpt lat="43.96435" lon="7.10917">
        <ele>1209.2</ele>
        <time>2012-11-24T10:11:37Z</time>
      </trkpt>
      <trkpt lat="43.96429" lon="7.10914">
        <ele>1208.7</ele>
        <time>2012-11-24T10:11:39Z</time>
      </trkpt>
      <trkpt lat="43.96423" lon="7.10909">
        <ele>1208.5</ele>
        <time>2012-11-24T10:11:41Z</time>
      </trkpt>
      <trkpt lat="43.96417" lon="7.10906">
        <ele>1208.6</ele>
        <time>2012-11-24T10:11:43Z</time>
      </trkpt>
      <trkpt lat="43.96409" lon="7.10901">
        <ele>1208.8</ele>
        <time>2012-11-24T10:11:46Z</time>
      </trkpt>
      <trkpt lat="43.96407" lon="7.10901">
        <ele>1208.8</ele>
        <time>2012-11-24T10:11:47Z</time>
      </trkpt>
      <trkpt lat="43.96394" lon="7.10891">
        <ele>1208</ele>
        <time>2012-11-24T10:11:56Z</time>
      </trkpt>
      <trkpt lat="43.96388" lon="7.10886">
        <ele>1208.2</ele>
        <time>2012-11-24T10:11:59Z</time>
      </trkpt>
      <trkpt lat="43.9638" lon="7.1088">
        <ele>1207.5</ele>
        <time>2012-11-24T10:12:02Z</time>
      </trkpt>
      <trkpt lat="43.96373" lon="7.10874">
        <ele>1206.8</ele>
        <time>2012-11-24T10:12:05Z</time>
      </trkpt>
      <trkpt lat="43.96366" lon="7.10867">
        <ele>1207.1</ele>
        <time>2012-11-24T10:12:08Z</time>
      </trkpt>
      <trkpt lat="43.96361" lon="7.10861">
        <ele>1207.2</ele>
        <time>2012-11-24T10:12:10Z</time>
      </trkpt>
      <trkpt lat="43.96355" lon="7.10855">
        <ele>1207.1</ele>
        <time>2012-11-24T10:12:12Z</time>
      </trkpt>
      <trkpt lat="43.96349" lon="7.10849">
        <ele>1207.2</ele>
        <time>2012-11-24T10:12:15Z</time>
      </trkpt>
      <trkpt lat="43.96344" lon="7.10844">
        <ele>1207.1</ele>
        <time>2012-11-24T10:12:17Z</time>
      </trkpt>
      <trkpt lat="43.96339" lon="7.10837">
        <ele>1207</ele>
        <time>2012-11-24T10:12:19Z</time>
      </trkpt>
      <trkpt lat="43.96332" lon="7.1083">
        <ele>1206.8</ele>
        <time>2012-11-24T10:12:22Z</time>
      </trkpt>
      <trkpt lat="43.96328" lon="7.10824">
        <ele>1206.9</ele>
        <time>2012-11-24T10:12:24Z</time>
      </trkpt>
      <trkpt lat="43.96322" lon="7.10817">
        <ele>1206.8</ele>
        <time>2012-11-24T10:12:26Z</time>
      </trkpt>
      <trkpt lat="43.96317" lon="7.10811">
        <ele>1206.9</ele>
        <time>2012-11-24T10:12:28Z</time>
      </trkpt>
      <trkpt lat="43.96311" lon="7.10806">
        <ele>1207.2</ele>
        <time>2012-11-24T10:12:30Z</time>
      </trkpt>
      <trkpt lat="43.96304" lon="7.10803">
        <ele>1206.7</ele>
        <time>2012-11-24T10:12:32Z</time>
      </trkpt>
      <trkpt lat="43.96297" lon="7.10801">
        <ele>1206.2</ele>
        <time>2012-11-24T10:12:34Z</time>
      </trkpt>
      <trkpt lat="43.9629" lon="7.10798">
        <ele>1206.5</ele>
        <time>2012-11-24T10:12:36Z</time>
      </trkpt>
      <trkpt lat="43.96282" lon="7.10793">
        <ele>1206.3</ele>
        <time>2012-11-24T10:12:39Z</time>
      </trkpt>
      <trkpt lat="43.96276" lon="7.10789">
        <ele>1206.4</ele>
        <time>2012-11-24T10:12:41Z</time>
      </trkpt>
      <trkpt lat="43.9627" lon="7.10782">
        <ele>1205.8</ele>
        <time>2012-11-24T10:12:43Z</time>
      </trkpt>
      <trkpt lat="43.96264" lon="7.10776">
        <ele>1205.2</ele>
        <time>2012-11-24T10:12:45Z</time>
      </trkpt>
      <trkpt lat="43.96259" lon="7.10769">
        <ele>1204.9</ele>
        <time>2012-11-24T10:12:47Z</time>
      </trkpt>
      <trkpt lat="43.96257" lon="7.10766">
        <ele>1205</ele>
        <time>2012-11-24T10:12:48Z</time>
      </trkpt>
      <trkpt lat="43.9625" lon="7.10754">
        <ele>1205.1</ele>
        <time>2012-11-24T10:12:51Z</time>
      </trkpt>
      <trkpt lat="43.96245" lon="7.10746">
        <ele>1204.6</ele>
        <time>2012-11-24T10:12:54Z</time>
      </trkpt>
      <trkpt lat="43.96242" lon="7.10738">
        <ele>1204.5</ele>
        <time>2012-11-24T10:12:56Z</time>
      </trkpt>
      <trkpt lat="43.96237" lon="7.10731">
        <ele>1203.7</ele>
        <time>2012-11-24T10:12:58Z</time>
      </trkpt>
      <trkpt lat="43.96234" lon="7.10721">
        <ele>1203.8</ele>
        <time>2012-11-24T10:13:01Z</time>
      </trkpt>
      <trkpt lat="43.9623" lon="7.10711">
        <ele>1203.4</ele>
        <time>2012-11-24T10:13:04Z</time>
      </trkpt>
      <trkpt lat="43.96226" lon="7.10703">
        <ele>1203.2</ele>
        <time>2012-11-24T10:13:07Z</time>
      </trkpt>
      <trkpt lat="43.96222" lon="7.10696">
        <ele>1202.6</ele>
        <time>2012-11-24T10:13:10Z</time>
      </trkpt>
      <trkpt lat="43.96217" lon="7.10686">
        <ele>1203</ele>
        <time>2012-11-24T10:13:13Z</time>
      </trkpt>
      <trkpt lat="43.96211" lon="7.10677">
        <ele>1203</ele>
        <time>2012-11-24T10:13:16Z</time>
      </trkpt>
      <trkpt lat="43.96207" lon="7.1067">
        <ele>1202.8</ele>
        <time>2012-11-24T10:13:18Z</time>
      </trkpt>
      <trkpt lat="43.96202" lon="7.10662">
        <ele>1202.8</ele>
        <time>2012-11-24T10:13:20Z</time>
      </trkpt>
      <trkpt lat="43.96197" lon="7.10655">
        <ele>1202.9</ele>
        <time>2012-11-24T10:13:22Z</time>
      </trkpt>
      <trkpt lat="43.96192" lon="7.10647">
        <ele>1202.6</ele>
        <time>2012-11-24T10:13:24Z</time>
      </trkpt>
      <trkpt lat="43.96186" lon="7.1064">
        <ele>1202.4</ele>
        <time>2012-11-24T10:13:26Z</time>
      </trkpt>
      <trkpt lat="43.96179" lon="7.10635">
        <ele>1202.2</ele>
        <time>2012-11-24T10:13:28Z</time>
      </trkpt>
      <trkpt lat="43.96171" lon="7.10629">
        <ele>1201.9</ele>
        <time>2012-11-24T10:13:30Z</time>
      </trkpt>
      <trkpt lat="43.96163" lon="7.10623">
        <ele>1202</ele>
        <time>2012-11-24T10:13:32Z</time>
      </trkpt>
      <trkpt lat="43.96156" lon="7.10619">
        <ele>1202.4</ele>
        <time>2012-11-24T10:13:34Z</time>
      </trkpt>
      <trkpt lat="43.96149" lon="7.10615">
        <ele>1202</ele>
        <time>2012-11-24T10:13:36Z</time>
      </trkpt>
      <trkpt lat="43.96142" lon="7.10612">
        <ele>1202.3</ele>
        <time>2012-11-24T10:13:38Z</time>
      </trkpt>
      <trkpt lat="43.96135" lon="7.10608">
        <ele>1201.9</ele>
        <time>2012-11-24T10:13:40Z</time>
      </trkpt>
      <trkpt lat="43.96131" lon="7.10605">
        <ele>1201.8</ele>
        <time>2012-11-24T10:13:41Z</time>
      </trkpt>
      <trkpt lat="43.96127" lon="7.10602">
        <ele>1201.5</ele>
        <time>2012-11-24T10:13:42Z</time>
      </trkpt>
      <trkpt lat="43.96122" lon="7.10599">
        <ele>1201.2</ele>
        <time>2012-11-24T10:13:43Z</time>
      </trkpt>
      <trkpt lat="43.96118" lon="7.10596">
        <ele>1200.8</ele>
        <time>2012-11-24T10:13:44Z</time>
      </trkpt>
      <trkpt lat="43.96111" lon="7.10592">
        <ele>1200.1</ele>
        <time>2012-11-24T10:13:46Z</time>
      </trkpt>
      <trkpt lat="43.96103" lon="7.10586">
        <ele>1199.5</ele>
        <time>2012-11-24T10:13:48Z</time>
      </trkpt>
      <trkpt lat="43.96099" lon="7.10582">
        <ele>1199.5</ele>
        <time>2012-11-24T10:13:49Z</time>
      </trkpt>
      <trkpt lat="43.96095" lon="7.10578">
        <ele>1199.6</ele>
        <time>2012-11-24T10:13:50Z</time>
      </trkpt>
      <trkpt lat="43.9609" lon="7.10574">
        <ele>1199.2</ele>
        <time>2012-11-24T10:13:51Z</time>
      </trkpt>
      <trkpt lat="43.96082" lon="7.1057">
        <ele>1198.7</ele>
        <time>2012-11-24T10:13:53Z</time>
      </trkpt>
      <trkpt lat="43.96074" lon="7.10568">
        <ele>1198.2</ele>
        <time>2012-11-24T10:13:55Z</time>
      </trkpt>
      <trkpt lat="43.96067" lon="7.10565">
        <ele>1198.6</ele>
        <time>2012-11-24T10:13:57Z</time>
      </trkpt>
      <trkpt lat="43.96058" lon="7.10562">
        <ele>1199.1</ele>
        <time>2012-11-24T10:13:59Z</time>
      </trkpt>
      <trkpt lat="43.9605" lon="7.10558">
        <ele>1198.9</ele>
        <time>2012-11-24T10:14:01Z</time>
      </trkpt>
      <trkpt lat="43.96046" lon="7.10556">
        <ele>1198.6</ele>
        <time>2012-11-24T10:14:02Z</time>
      </trkpt>
      <trkpt lat="43.96042" lon="7.10554">
        <ele>1198.4</ele>
        <time>2012-11-24T10:14:03Z</time>
      </trkpt>
      <trkpt lat="43.96037" lon="7.10552">
        <ele>1198.1</ele>
        <time>2012-11-24T10:14:04Z</time>
      </trkpt>
      <trkpt lat="43.96033" lon="7.10549">
        <ele>1198.2</ele>
        <time>2012-11-24T10:14:05Z</time>
      </trkpt>
      <trkpt lat="43.96028" lon="7.10546">
        <ele>1198.2</ele>
        <time>2012-11-24T10:14:06Z</time>
      </trkpt>
      <trkpt lat="43.96024" lon="7.10543">
        <ele>1198.2</ele>
        <time>2012-11-24T10:14:07Z</time>
      </trkpt>
      <trkpt lat="43.96016" lon="7.10536">
        <ele>1197.7</ele>
        <time>2012-11-24T10:14:09Z</time>
      </trkpt>
      <trkpt lat="43.96009" lon="7.10531">
        <ele>1197.2</ele>
        <time>2012-11-24T10:14:11Z</time>
      </trkpt>
      <trkpt lat="43.96003" lon="7.10526">
        <ele>1196.5</ele>
        <time>2012-11-24T10:14:13Z</time>
      </trkpt>
      <trkpt lat="43.95998" lon="7.10519">
        <ele>1196.2</ele>
        <time>2012-11-24T10:14:15Z</time>
      </trkpt>
      <trkpt lat="43.95993" lon="7.10513">
        <ele>1195.8</ele>
        <time>2012-11-24T10:14:17Z</time>
      </trkpt>
      <trkpt lat="43.95987" lon="7.10505">
        <ele>1194.2</ele>
        <time>2012-11-24T10:14:32Z</time>
      </trkpt>
      <trkpt lat="43.95978" lon="7.10503">
        <ele>1194.7</ele>
        <time>2012-11-24T10:17:45Z</time>
      </trkpt>
      <trkpt lat="43.95976" lon="7.10502">
        <ele>1194.6</ele>
        <time>2012-11-24T10:17:46Z</time>
      </trkpt>
      <trkpt lat="43.95968" lon="7.10487">
        <ele>1192.3</ele>
        <time>2012-11-24T10:17:52Z</time>
      </trkpt>
      <trkpt lat="43.95962" lon="7.10482">
        <ele>1191.1</ele>
        <time>2012-11-24T10:17:54Z</time>
      </trkpt>
      <trkpt lat="43.95954" lon="7.10486">
        <ele>1185.2</ele>
        <time>2012-11-24T10:18:01Z</time>
      </trkpt>
      <trkpt lat="43.95954" lon="7.10496">
        <ele>1184.7</ele>
        <time>2012-11-24T10:18:03Z</time>
      </trkpt>
      <trkpt lat="43.95954" lon="7.10508">
        <ele>1184.3</ele>
        <time>2012-11-24T10:18:05Z</time>
      </trkpt>
      <trkpt lat="43.95955" lon="7.10515">
        <ele>1183.9</ele>
        <time>2012-11-24T10:18:06Z</time>
      </trkpt>
      <trkpt lat="43.95955" lon="7.10522">
        <ele>1183</ele>
        <time>2012-11-24T10:18:07Z</time>
      </trkpt>
      <trkpt lat="43.95955" lon="7.10529">
        <ele>1182.3</ele>
        <time>2012-11-24T10:18:08Z</time>
      </trkpt>
      <trkpt lat="43.95955" lon="7.10536">
        <ele>1181.8</ele>
        <time>2012-11-24T10:18:09Z</time>
      </trkpt>
      <trkpt lat="43.95955" lon="7.10544">
        <ele>1181.5</ele>
        <time>2012-11-24T10:18:10Z</time>
      </trkpt>
      <trkpt lat="43.95955" lon="7.10552">
        <ele>1181.3</ele>
        <time>2012-11-24T10:18:11Z</time>
      </trkpt>
      <trkpt lat="43.95955" lon="7.1056">
        <ele>1179.6</ele>
        <time>2012-11-24T10:18:12Z</time>
      </trkpt>
      <trkpt lat="43.95954" lon="7.10569">
        <ele>1178.4</ele>
        <time>2012-11-24T10:18:13Z</time>
      </trkpt>
      <trkpt lat="43.95954" lon="7.10577">
        <ele>1177.5</ele>
        <time>2012-11-24T10:18:14Z</time>
      </trkpt>
      <trkpt lat="43.95953" lon="7.10583">
        <ele>1176.2</ele>
        <time>2012-11-24T10:18:15Z</time>
      </trkpt>
      <trkpt lat="43.95952" lon="7.1059">
        <ele>1175.1</ele>
        <time>2012-11-24T10:18:16Z</time>
      </trkpt>
      <trkpt lat="43.95952" lon="7.10599">
        <ele>1173.7</ele>
        <time>2012-11-24T10:18:17Z</time>
      </trkpt>
      <trkpt lat="43.95951" lon="7.10608">
        <ele>1172.6</ele>
        <time>2012-11-24T10:18:18Z</time>
      </trkpt>
      <trkpt lat="43.95951" lon="7.10616">
        <ele>1171.3</ele>
        <time>2012-11-24T10:18:19Z</time>
      </trkpt>
      <trkpt lat="43.9595" lon="7.10626">
        <ele>1170.3</ele>
        <time>2012-11-24T10:18:20Z</time>
      </trkpt>
      <trkpt lat="43.95949" lon="7.10635">
        <ele>1169.6</ele>
        <time>2012-11-24T10:18:21Z</time>
      </trkpt>
      <trkpt lat="43.95947" lon="7.10643">
        <ele>1167.8</ele>
        <time>2012-11-24T10:18:22Z</time>
      </trkpt>
      <trkpt lat="43.95943" lon="7.10651">
        <ele>1166.4</ele>
        <time>2012-11-24T10:18:23Z</time>
      </trkpt>
      <trkpt lat="43.95939" lon="7.10659">
        <ele>1164.8</ele>
        <time>2012-11-24T10:18:24Z</time>
      </trkpt>
      <trkpt lat="43.95935" lon="7.10668">
        <ele>1163.7</ele>
        <time>2012-11-24T10:18:25Z</time>
      </trkpt>
      <trkpt lat="43.9593" lon="7.10678">
        <ele>1162.5</ele>
        <time>2012-11-24T10:18:26Z</time>
      </trkpt>
      <trkpt lat="43.95926" lon="7.10686">
        <ele>1161.6</ele>
        <time>2012-11-24T10:18:27Z</time>
      </trkpt>
      <trkpt lat="43.95921" lon="7.10694">
        <ele>1160.9</ele>
        <time>2012-11-24T10:18:28Z</time>
      </trkpt>
      <trkpt lat="43.95916" lon="7.10702">
        <ele>1160.3</ele>
        <time>2012-11-24T10:18:29Z</time>
      </trkpt>
      <trkpt lat="43.95911" lon="7.10709">
        <ele>1159.9</ele>
        <time>2012-11-24T10:18:30Z</time>
      </trkpt>
      <trkpt lat="43.95907" lon="7.1072">
        <ele>1158.2</ele>
        <time>2012-11-24T10:18:32Z</time>
      </trkpt>
      <trkpt lat="43.95909" lon="7.1073">
        <ele>1157</ele>
        <time>2012-11-24T10:18:34Z</time>
      </trkpt>
      <trkpt lat="43.95912" lon="7.10735">
        <ele>1156.6</ele>
        <time>2012-11-24T10:18:35Z</time>
      </trkpt>
      <trkpt lat="43.95915" lon="7.1074">
        <ele>1155.9</ele>
        <time>2012-11-24T10:18:36Z</time>
      </trkpt>
      <trkpt lat="43.95919" lon="7.10746">
        <ele>1155.4</ele>
        <time>2012-11-24T10:18:37Z</time>
      </trkpt>
      <trkpt lat="43.95923" lon="7.10752">
        <ele>1154.5</ele>
        <time>2012-11-24T10:18:38Z</time>
      </trkpt>
      <trkpt lat="43.95927" lon="7.10758">
        <ele>1153.8</ele>
        <time>2012-11-24T10:18:39Z</time>
      </trkpt>
      <trkpt lat="43.95931" lon="7.10764">
        <ele>1153.2</ele>
        <time>2012-11-24T10:18:40Z</time>
      </trkpt>
      <trkpt lat="43.95925" lon="7.10769">
        <ele>1146.4</ele>
        <time>2012-11-24T10:18:46Z</time>
      </trkpt>
      <trkpt lat="43.95919" lon="7.10769">
        <ele>1145.6</ele>
        <time>2012-11-24T10:18:47Z</time>
      </trkpt>
      <trkpt lat="43.95914" lon="7.1077">
        <ele>1144.5</ele>
        <time>2012-11-24T10:18:48Z</time>
      </trkpt>
      <trkpt lat="43.95907" lon="7.10771">
        <ele>1143.6</ele>
        <time>2012-11-24T10:18:49Z</time>
      </trkpt>
      <trkpt lat="43.95901" lon="7.10772">
        <ele>1142.1</ele>
        <time>2012-11-24T10:18:50Z</time>
      </trkpt>
      <trkpt lat="43.95894" lon="7.10772">
        <ele>1141.1</ele>
        <time>2012-11-24T10:18:51Z</time>
      </trkpt>
      <trkpt lat="43.95887" lon="7.10773">
        <ele>1140.3</ele>
        <time>2012-11-24T10:18:52Z</time>
      </trkpt>
      <trkpt lat="43.9588" lon="7.10775">
        <ele>1139.2</ele>
        <time>2012-11-24T10:18:53Z</time>
      </trkpt>
      <trkpt lat="43.95872" lon="7.10777">
        <ele>1138.4</ele>
        <time>2012-11-24T10:18:54Z</time>
      </trkpt>
      <trkpt lat="43.95865" lon="7.10777">
        <ele>1136.8</ele>
        <time>2012-11-24T10:18:55Z</time>
      </trkpt>
      <trkpt lat="43.95858" lon="7.10778">
        <ele>1135.6</ele>
        <time>2012-11-24T10:18:56Z</time>
      </trkpt>
      <trkpt lat="43.95851" lon="7.10778">
        <ele>1133.9</ele>
        <time>2012-11-24T10:18:57Z</time>
      </trkpt>
      <trkpt lat="43.95845" lon="7.10777">
        <ele>1132.7</ele>
        <time>2012-11-24T10:18:58Z</time>
      </trkpt>
      <trkpt lat="43.95839" lon="7.10776">
        <ele>1131.8</ele>
        <time>2012-11-24T10:18:59Z</time>
      </trkpt>
      <trkpt lat="43.95833" lon="7.10774">
        <ele>1130.1</ele>
        <time>2012-11-24T10:19:00Z</time>
      </trkpt>
      <trkpt lat="43.95827" lon="7.10772">
        <ele>1128.9</ele>
        <time>2012-11-24T10:19:01Z</time>
      </trkpt>
      <trkpt lat="43.95821" lon="7.10769">
        <ele>1127.4</ele>
        <time>2012-11-24T10:19:02Z</time>
      </trkpt>
      <trkpt lat="43.95815" lon="7.10766">
        <ele>1126.2</ele>
        <time>2012-11-24T10:19:03Z</time>
      </trkpt>
      <trkpt lat="43.95809" lon="7.10765">
        <ele>1124.2</ele>
        <time>2012-11-24T10:19:04Z</time>
      </trkpt>
      <trkpt lat="43.95804" lon="7.10763">
        <ele>1122.6</ele>
        <time>2012-11-24T10:19:05Z</time>
      </trkpt>
      <trkpt lat="43.95796" lon="7.10761">
        <ele>1119.6</ele>
        <time>2012-11-24T10:19:07Z</time>
      </trkpt>
      <trkpt lat="43.95789" lon="7.10755">
        <ele>1115.5</ele>
        <time>2012-11-24T10:19:10Z</time>
      </trkpt>
      <trkpt lat="43.95791" lon="7.10745">
        <ele>1110.4</ele>
        <time>2012-11-24T10:19:15Z</time>
      </trkpt>
      <trkpt lat="43.95786" lon="7.10743">
        <ele>1109.1</ele>
        <time>2012-11-24T10:19:18Z</time>
      </trkpt>
      <trkpt lat="43.95781" lon="7.10746">
        <ele>1107.9</ele>
        <time>2012-11-24T10:19:19Z</time>
      </trkpt>
      <trkpt lat="43.95777" lon="7.10749">
        <ele>1107.1</ele>
        <time>2012-11-24T10:19:20Z</time>
      </trkpt>
      <trkpt lat="43.95773" lon="7.10751">
        <ele>1106</ele>
        <time>2012-11-24T10:19:21Z</time>
      </trkpt>
      <trkpt lat="43.95768" lon="7.10753">
        <ele>1105.3</ele>
        <time>2012-11-24T10:19:22Z</time>
      </trkpt>
      <trkpt lat="43.95762" lon="7.10756">
        <ele>1103.7</ele>
        <time>2012-11-24T10:19:23Z</time>
      </trkpt>
      <trkpt lat="43.95757" lon="7.10761">
        <ele>1102.5</ele>
        <time>2012-11-24T10:19:24Z</time>
      </trkpt>
      <trkpt lat="43.95752" lon="7.10767">
        <ele>1101.6</ele>
        <time>2012-11-24T10:19:25Z</time>
      </trkpt>
      <trkpt lat="43.95745" lon="7.1077">
        <ele>1100.3</ele>
        <time>2012-11-24T10:19:26Z</time>
      </trkpt>
      <trkpt lat="43.95738" lon="7.10775">
        <ele>1099.2</ele>
        <time>2012-11-24T10:19:27Z</time>
      </trkpt>
      <trkpt lat="43.95731" lon="7.1078">
        <ele>1097.9</ele>
        <time>2012-11-24T10:19:28Z</time>
      </trkpt>
      <trkpt lat="43.95724" lon="7.10784">
        <ele>1096.9</ele>
        <time>2012-11-24T10:19:29Z</time>
      </trkpt>
      <trkpt lat="43.95716" lon="7.10787">
        <ele>1096.1</ele>
        <time>2012-11-24T10:19:30Z</time>
      </trkpt>
      <trkpt lat="43.9571" lon="7.10786">
        <ele>1095.3</ele>
        <time>2012-11-24T10:19:31Z</time>
      </trkpt>
      <trkpt lat="43.95705" lon="7.10786">
        <ele>1094.8</ele>
        <time>2012-11-24T10:19:32Z</time>
      </trkpt>
      <trkpt lat="43.957" lon="7.10788">
        <ele>1093.7</ele>
        <time>2012-11-24T10:19:33Z</time>
      </trkpt>
      <trkpt lat="43.95695" lon="7.10788">
        <ele>1092.9</ele>
        <time>2012-11-24T10:19:34Z</time>
      </trkpt>
      <trkpt lat="43.95689" lon="7.10789">
        <ele>1091.7</ele>
        <time>2012-11-24T10:19:35Z</time>
      </trkpt>
      <trkpt lat="43.95682" lon="7.10796">
        <ele>1088.3</ele>
        <time>2012-11-24T10:19:40Z</time>
      </trkpt>
      <trkpt lat="43.95676" lon="7.10799">
        <ele>1087.5</ele>
        <time>2012-11-24T10:19:43Z</time>
      </trkpt>
      <trkpt lat="43.95669" lon="7.10799">
        <ele>1086.3</ele>
        <time>2012-11-24T10:19:45Z</time>
      </trkpt>
      <trkpt lat="43.95663" lon="7.10803">
        <ele>1084.5</ele>
        <time>2012-11-24T10:19:47Z</time>
      </trkpt>
      <trkpt lat="43.95661" lon="7.10806">
        <ele>1083.7</ele>
        <time>2012-11-24T10:19:48Z</time>
      </trkpt>
      <trkpt lat="43.95649" lon="7.10813">
        <ele>1078.5</ele>
        <time>2012-11-24T10:19:54Z</time>
      </trkpt>
      <trkpt lat="43.95644" lon="7.10821">
        <ele>1075.2</ele>
        <time>2012-11-24T10:19:58Z</time>
      </trkpt>
      <trkpt lat="43.95638" lon="7.1082">
        <ele>1073.8</ele>
        <time>2012-11-24T10:20:00Z</time>
      </trkpt>
      <trkpt lat="43.9563" lon="7.10824">
        <ele>1068.2</ele>
        <time>2012-11-24T10:20:05Z</time>
      </trkpt>
      <trkpt lat="43.95622" lon="7.10827">
        <ele>1065.3</ele>
        <time>2012-11-24T10:20:09Z</time>
      </trkpt>
      <trkpt lat="43.95615" lon="7.10833">
        <ele>1061.1</ele>
        <time>2012-11-24T10:20:15Z</time>
      </trkpt>
      <trkpt lat="43.95607" lon="7.10839">
        <ele>1056.4</ele>
        <time>2012-11-24T10:20:20Z</time>
      </trkpt>
      <trkpt lat="43.95606" lon="7.10849">
        <ele>1053.5</ele>
        <time>2012-11-24T10:20:24Z</time>
      </trkpt>
      <trkpt lat="43.95598" lon="7.10844">
        <ele>1051.6</ele>
        <time>2012-11-24T10:20:27Z</time>
      </trkpt>
      <trkpt lat="43.95592" lon="7.10837">
        <ele>1050.5</ele>
        <time>2012-11-24T10:20:29Z</time>
      </trkpt>
      <trkpt lat="43.95585" lon="7.10836">
        <ele>1048.3</ele>
        <time>2012-11-24T10:20:31Z</time>
      </trkpt>
      <trkpt lat="43.95577" lon="7.10838">
        <ele>1046</ele>
        <time>2012-11-24T10:20:33Z</time>
      </trkpt>
      <trkpt lat="43.95573" lon="7.1084">
        <ele>1045.3</ele>
        <time>2012-11-24T10:20:34Z</time>
      </trkpt>
      <trkpt lat="43.95568" lon="7.10844">
        <ele>1044.1</ele>
        <time>2012-11-24T10:20:35Z</time>
      </trkpt>
      <trkpt lat="43.95563" lon="7.10848">
        <ele>1043.2</ele>
        <time>2012-11-24T10:20:36Z</time>
      </trkpt>
      <trkpt lat="43.95557" lon="7.10852">
        <ele>1041.9</ele>
        <time>2012-11-24T10:20:37Z</time>
      </trkpt>
      <trkpt lat="43.95551" lon="7.10857">
        <ele>1040.9</ele>
        <time>2012-11-24T10:20:38Z</time>
      </trkpt>
      <trkpt lat="43.95543" lon="7.10862">
        <ele>1039</ele>
        <time>2012-11-24T10:20:39Z</time>
      </trkpt>
      <trkpt lat="43.95536" lon="7.10868">
        <ele>1037.6</ele>
        <time>2012-11-24T10:20:40Z</time>
      </trkpt>
      <trkpt lat="43.95528" lon="7.10872">
        <ele>1036.6</ele>
        <time>2012-11-24T10:20:41Z</time>
      </trkpt>
      <trkpt lat="43.9552" lon="7.10876">
        <ele>1035.5</ele>
        <time>2012-11-24T10:20:42Z</time>
      </trkpt>
      <trkpt lat="43.95513" lon="7.10879">
        <ele>1034.7</ele>
        <time>2012-11-24T10:20:43Z</time>
      </trkpt>
      <trkpt lat="43.95505" lon="7.10882">
        <ele>1034.2</ele>
        <time>2012-11-24T10:20:44Z</time>
      </trkpt>
      <trkpt lat="43.95499" lon="7.10886">
        <ele>1033.9</ele>
        <time>2012-11-24T10:20:45Z</time>
      </trkpt>
      <trkpt lat="43.95494" lon="7.1089">
        <ele>1033.3</ele>
        <time>2012-11-24T10:20:46Z</time>
      </trkpt>
      <trkpt lat="43.95489" lon="7.10895">
        <ele>1032.9</ele>
        <time>2012-11-24T10:20:47Z</time>
      </trkpt>
      <trkpt lat="43.95485" lon="7.10901">
        <ele>1032.6</ele>
        <time>2012-11-24T10:20:48Z</time>
      </trkpt>
      <trkpt lat="43.9548" lon="7.10904">
        <ele>1032.3</ele>
        <time>2012-11-24T10:20:49Z</time>
      </trkpt>
      <trkpt lat="43.95476" lon="7.10908">
        <ele>1032</ele>
        <time>2012-11-24T10:20:50Z</time>
      </trkpt>
      <trkpt lat="43.95472" lon="7.10913">
        <ele>1031.2</ele>
        <time>2012-11-24T10:20:51Z</time>
      </trkpt>
      <trkpt lat="43.95467" lon="7.10916">
        <ele>1030.7</ele>
        <time>2012-11-24T10:20:52Z</time>
      </trkpt>
      <trkpt lat="43.95463" lon="7.1092">
        <ele>1030.2</ele>
        <time>2012-11-24T10:20:53Z</time>
      </trkpt>
      <trkpt lat="43.95458" lon="7.10923">
        <ele>1029.9</ele>
        <time>2012-11-24T10:20:54Z</time>
      </trkpt>
      <trkpt lat="43.95453" lon="7.10925">
        <ele>1029.6</ele>
        <time>2012-11-24T10:20:55Z</time>
      </trkpt>
      <trkpt lat="43.95449" lon="7.10929">
        <ele>1029.4</ele>
        <time>2012-11-24T10:20:56Z</time>
      </trkpt>
      <trkpt lat="43.95443" lon="7.10932">
        <ele>1029.3</ele>
        <time>2012-11-24T10:20:57Z</time>
      </trkpt>
      <trkpt lat="43.95437" lon="7.10935">
        <ele>1029</ele>
        <time>2012-11-24T10:20:58Z</time>
      </trkpt>
      <trkpt lat="43.95432" lon="7.10939">
        <ele>1028.8</ele>
        <time>2012-11-24T10:20:59Z</time>
      </trkpt>
      <trkpt lat="43.95428" lon="7.10944">
        <ele>1028.6</ele>
        <time>2012-11-24T10:21:00Z</time>
      </trkpt>
      <trkpt lat="43.95423" lon="7.10948">
        <ele>1028</ele>
        <time>2012-11-24T10:21:01Z</time>
      </trkpt>
      <trkpt lat="43.95418" lon="7.1095">
        <ele>1027.6</ele>
        <time>2012-11-24T10:21:02Z</time>
      </trkpt>
      <trkpt lat="43.95413" lon="7.10952">
        <ele>1027</ele>
        <time>2012-11-24T10:21:03Z</time>
      </trkpt>
      <trkpt lat="43.95406" lon="7.10958">
        <ele>1026.2</ele>
        <time>2012-11-24T10:21:05Z</time>
      </trkpt>
      <trkpt lat="43.95402" lon="7.10962">
        <ele>1025.1</ele>
        <time>2012-11-24T10:21:06Z</time>
      </trkpt>
      <trkpt lat="43.95397" lon="7.10967">
        <ele>1024.2</ele>
        <time>2012-11-24T10:21:07Z</time>
      </trkpt>
      <trkpt lat="43.95391" lon="7.10972">
        <ele>1023.1</ele>
        <time>2012-11-24T10:21:08Z</time>
      </trkpt>
      <trkpt lat="43.95385" lon="7.10976">
        <ele>1022.2</ele>
        <time>2012-11-24T10:21:09Z</time>
      </trkpt>
      <trkpt lat="43.95379" lon="7.10981">
        <ele>1021</ele>
        <time>2012-11-24T10:21:10Z</time>
      </trkpt>
      <trkpt lat="43.95374" lon="7.10987">
        <ele>1020.1</ele>
        <time>2012-11-24T10:21:11Z</time>
      </trkpt>
      <trkpt lat="43.95369" lon="7.1099">
        <ele>1019.5</ele>
        <time>2012-11-24T10:21:12Z</time>
      </trkpt>
      <trkpt lat="43.95362" lon="7.10988">
        <ele>1017.9</ele>
        <time>2012-11-24T10:21:14Z</time>
      </trkpt>
      <trkpt lat="43.95353" lon="7.10992">
        <ele>1014.9</ele>
        <time>2012-11-24T10:21:17Z</time>
      </trkpt>
      <trkpt lat="43.95349" lon="7.10997">
        <ele>1014.1</ele>
        <time>2012-11-24T10:21:18Z</time>
      </trkpt>
      <trkpt lat="43.95345" lon="7.11">
        <ele>1013.5</ele>
        <time>2012-11-24T10:21:19Z</time>
      </trkpt>
      <trkpt lat="43.95341" lon="7.11005">
        <ele>1012.2</ele>
        <time>2012-11-24T10:21:20Z</time>
      </trkpt>
      <trkpt lat="43.95336" lon="7.11008">
        <ele>1011.2</ele>
        <time>2012-11-24T10:21:21Z</time>
      </trkpt>
      <trkpt lat="43.95332" lon="7.11013">
        <ele>1009.5</ele>
        <time>2012-11-24T10:21:22Z</time>
      </trkpt>
      <trkpt lat="43.95327" lon="7.11018">
        <ele>1008.2</ele>
        <time>2012-11-24T10:21:23Z</time>
      </trkpt>
      <trkpt lat="43.95323" lon="7.11025">
        <ele>1006.6</ele>
        <time>2012-11-24T10:21:24Z</time>
      </trkpt>
      <trkpt lat="43.95318" lon="7.1103">
        <ele>1005.3</ele>
        <time>2012-11-24T10:21:25Z</time>
      </trkpt>
      <trkpt lat="43.95314" lon="7.11036">
        <ele>1004.4</ele>
        <time>2012-11-24T10:21:26Z</time>
      </trkpt>
      <trkpt lat="43.95311" lon="7.11042">
        <ele>1003</ele>
        <time>2012-11-24T10:21:27Z</time>
      </trkpt>
      <trkpt lat="43.95307" lon="7.11049">
        <ele>1002</ele>
        <time>2012-11-24T10:21:28Z</time>
      </trkpt>
      <trkpt lat="43.95303" lon="7.11057">
        <ele>999.9</ele>
        <time>2012-11-24T10:21:29Z</time>
      </trkpt>
      <trkpt lat="43.953" lon="7.11063">
        <ele>998.4</ele>
        <time>2012-11-24T10:21:30Z</time>
      </trkpt>
      <trkpt lat="43.95296" lon="7.11069">
        <ele>997.3</ele>
        <time>2012-11-24T10:21:31Z</time>
      </trkpt>
      <trkpt lat="43.95292" lon="7.11073">
        <ele>995.7</ele>
        <time>2012-11-24T10:21:32Z</time>
      </trkpt>
      <trkpt lat="43.95287" lon="7.11076">
        <ele>994.6</ele>
        <time>2012-11-24T10:21:33Z</time>
      </trkpt>
      <trkpt lat="43.95282" lon="7.11079">
        <ele>992.9</ele>
        <time>2012-11-24T10:21:34Z</time>
      </trkpt>
      <trkpt lat="43.95277" lon="7.11083">
        <ele>991.6</ele>
        <time>2012-11-24T10:21:35Z</time>
      </trkpt>
      <trkpt lat="43.95273" lon="7.11086">
        <ele>989.5</ele>
        <time>2012-11-24T10:21:36Z</time>
      </trkpt>
      <trkpt lat="43.95266" lon="7.11088">
        <ele>986.7</ele>
        <time>2012-11-24T10:21:38Z</time>
      </trkpt>
      <trkpt lat="43.9526" lon="7.11093">
        <ele>984.1</ele>
        <time>2012-11-24T10:21:40Z</time>
      </trkpt>
      <trkpt lat="43.95256" lon="7.11095">
        <ele>982.6</ele>
        <time>2012-11-24T10:21:41Z</time>
      </trkpt>
      <trkpt lat="43.9525" lon="7.11098">
        <ele>981.4</ele>
        <time>2012-11-24T10:21:42Z</time>
      </trkpt>
      <trkpt lat="43.95245" lon="7.11101">
        <ele>979.5</ele>
        <time>2012-11-24T10:21:43Z</time>
      </trkpt>
      <trkpt lat="43.9524" lon="7.11103">
        <ele>978</ele>
        <time>2012-11-24T10:21:44Z</time>
      </trkpt>
      <trkpt lat="43.95235" lon="7.11105">
        <ele>976.9</ele>
        <time>2012-11-24T10:21:45Z</time>
      </trkpt>
      <trkpt lat="43.95231" lon="7.11107">
        <ele>975.3</ele>
        <time>2012-11-24T10:21:46Z</time>
      </trkpt>
      <trkpt lat="43.95227" lon="7.11109">
        <ele>974</ele>
        <time>2012-11-24T10:21:47Z</time>
      </trkpt>
      <trkpt lat="43.95222" lon="7.11112">
        <ele>972.3</ele>
        <time>2012-11-24T10:21:48Z</time>
      </trkpt>
      <trkpt lat="43.95217" lon="7.11115">
        <ele>971.1</ele>
        <time>2012-11-24T10:21:49Z</time>
      </trkpt>
      <trkpt lat="43.95212" lon="7.11117">
        <ele>970.1</ele>
        <time>2012-11-24T10:21:50Z</time>
      </trkpt>
      <trkpt lat="43.95207" lon="7.11117">
        <ele>968</ele>
        <time>2012-11-24T10:21:51Z</time>
      </trkpt>
      <trkpt lat="43.95198" lon="7.11119">
        <ele>964.3</ele>
        <time>2012-11-24T10:21:53Z</time>
      </trkpt>
      <trkpt lat="43.95191" lon="7.11125">
        <ele>961.1</ele>
        <time>2012-11-24T10:21:55Z</time>
      </trkpt>
      <trkpt lat="43.95184" lon="7.11131">
        <ele>957.5</ele>
        <time>2012-11-24T10:21:58Z</time>
      </trkpt>
      <trkpt lat="43.95176" lon="7.11136">
        <ele>954.6</ele>
        <time>2012-11-24T10:22:00Z</time>
      </trkpt>
      <trkpt lat="43.95173" lon="7.11139">
        <ele>953.2</ele>
        <time>2012-11-24T10:22:01Z</time>
      </trkpt>
      <trkpt lat="43.95168" lon="7.11143">
        <ele>951.6</ele>
        <time>2012-11-24T10:22:02Z</time>
      </trkpt>
      <trkpt lat="43.95163" lon="7.11147">
        <ele>950.4</ele>
        <time>2012-11-24T10:22:03Z</time>
      </trkpt>
      <trkpt lat="43.95158" lon="7.11149">
        <ele>949.5</ele>
        <time>2012-11-24T10:22:04Z</time>
      </trkpt>
      <trkpt lat="43.95151" lon="7.11154">
        <ele>945.6</ele>
        <time>2012-11-24T10:22:07Z</time>
      </trkpt>
      <trkpt lat="43.95144" lon="7.11161">
        <ele>942.5</ele>
        <time>2012-11-24T10:22:10Z</time>
      </trkpt>
      <trkpt lat="43.95141" lon="7.11172">
        <ele>939.2</ele>
        <time>2012-11-24T10:22:13Z</time>
      </trkpt>
      <trkpt lat="43.95135" lon="7.11176">
        <ele>936.5</ele>
        <time>2012-11-24T10:22:15Z</time>
      </trkpt>
      <trkpt lat="43.95129" lon="7.11178">
        <ele>935.6</ele>
        <time>2012-11-24T10:22:16Z</time>
      </trkpt>
      <trkpt lat="43.95124" lon="7.11181">
        <ele>934.1</ele>
        <time>2012-11-24T10:22:17Z</time>
      </trkpt>
      <trkpt lat="43.95119" lon="7.11184">
        <ele>932.9</ele>
        <time>2012-11-24T10:22:18Z</time>
      </trkpt>
      <trkpt lat="43.95114" lon="7.11188">
        <ele>931.4</ele>
        <time>2012-11-24T10:22:19Z</time>
      </trkpt>
      <trkpt lat="43.95109" lon="7.11195">
        <ele>930.3</ele>
        <time>2012-11-24T10:22:20Z</time>
      </trkpt>
      <trkpt lat="43.95105" lon="7.11202">
        <ele>928.7</ele>
        <time>2012-11-24T10:22:21Z</time>
      </trkpt>
      <trkpt lat="43.95099" lon="7.11208">
        <ele>927.5</ele>
        <time>2012-11-24T10:22:22Z</time>
      </trkpt>
      <trkpt lat="43.95094" lon="7.11213">
        <ele>926.6</ele>
        <time>2012-11-24T10:22:23Z</time>
      </trkpt>
      <trkpt lat="43.95088" lon="7.11219">
        <ele>923.9</ele>
        <time>2012-11-24T10:22:24Z</time>
      </trkpt>
      <trkpt lat="43.95082" lon="7.11225">
        <ele>921.9</ele>
        <time>2012-11-24T10:22:25Z</time>
      </trkpt>
      <trkpt lat="43.95076" lon="7.11232">
        <ele>919.4</ele>
        <time>2012-11-24T10:22:26Z</time>
      </trkpt>
      <trkpt lat="43.95071" lon="7.11236">
        <ele>917.5</ele>
        <time>2012-11-24T10:22:27Z</time>
      </trkpt>
      <trkpt lat="43.95066" lon="7.1124">
        <ele>916.1</ele>
        <time>2012-11-24T10:22:28Z</time>
      </trkpt>
      <trkpt lat="43.95061" lon="7.11244">
        <ele>913.7</ele>
        <time>2012-11-24T10:22:29Z</time>
      </trkpt>
      <trkpt lat="43.95056" lon="7.11248">
        <ele>911.9</ele>
        <time>2012-11-24T10:22:30Z</time>
      </trkpt>
      <trkpt lat="43.95051" lon="7.11251">
        <ele>910</ele>
        <time>2012-11-24T10:22:31Z</time>
      </trkpt>
      <trkpt lat="43.95047" lon="7.11257">
        <ele>908.7</ele>
        <time>2012-11-24T10:22:32Z</time>
      </trkpt>
      <trkpt lat="43.95043" lon="7.11262">
        <ele>906.5</ele>
        <time>2012-11-24T10:22:33Z</time>
      </trkpt>
      <trkpt lat="43.95039" lon="7.11268">
        <ele>904.8</ele>
        <time>2012-11-24T10:22:34Z</time>
      </trkpt>
      <trkpt lat="43.95034" lon="7.11273">
        <ele>903.6</ele>
        <time>2012-11-24T10:22:35Z</time>
      </trkpt>
      <trkpt lat="43.95029" lon="7.11279">
        <ele>901.7</ele>
        <time>2012-11-24T10:22:36Z</time>
      </trkpt>
      <trkpt lat="43.95025" lon="7.11284">
        <ele>900.2</ele>
        <time>2012-11-24T10:22:37Z</time>
      </trkpt>
      <trkpt lat="43.9502" lon="7.11289">
        <ele>898.2</ele>
        <time>2012-11-24T10:22:38Z</time>
      </trkpt>
      <trkpt lat="43.95014" lon="7.11293">
        <ele>896.7</ele>
        <time>2012-11-24T10:22:39Z</time>
      </trkpt>
      <trkpt lat="43.95008" lon="7.11298">
        <ele>894.7</ele>
        <time>2012-11-24T10:22:40Z</time>
      </trkpt>
      <trkpt lat="43.95002" lon="7.11303">
        <ele>893.2</ele>
        <time>2012-11-24T10:22:41Z</time>
      </trkpt>
      <trkpt lat="43.94996" lon="7.11309">
        <ele>892.1</ele>
        <time>2012-11-24T10:22:42Z</time>
      </trkpt>
      <trkpt lat="43.94992" lon="7.11314">
        <ele>890.1</ele>
        <time>2012-11-24T10:22:43Z</time>
      </trkpt>
      <trkpt lat="43.94988" lon="7.11321">
        <ele>888.5</ele>
        <time>2012-11-24T10:22:44Z</time>
      </trkpt>
      <trkpt lat="43.94985" lon="7.1133">
        <ele>886.1</ele>
        <time>2012-11-24T10:22:45Z</time>
      </trkpt>
      <trkpt lat="43.94981" lon="7.11338">
        <ele>884.2</ele>
        <time>2012-11-24T10:22:46Z</time>
      </trkpt>
      <trkpt lat="43.94977" lon="7.11345">
        <ele>882.8</ele>
        <time>2012-11-24T10:22:47Z</time>
      </trkpt>
      <trkpt lat="43.94974" lon="7.11351">
        <ele>881.1</ele>
        <time>2012-11-24T10:22:48Z</time>
      </trkpt>
      <trkpt lat="43.94971" lon="7.11356">
        <ele>879.8</ele>
        <time>2012-11-24T10:22:49Z</time>
      </trkpt>
      <trkpt lat="43.94969" lon="7.11362">
        <ele>877.3</ele>
        <time>2012-11-24T10:22:50Z</time>
      </trkpt>
      <trkpt lat="43.94967" lon="7.11368">
        <ele>875.5</ele>
        <time>2012-11-24T10:22:51Z</time>
      </trkpt>
      <trkpt lat="43.9497" lon="7.11382">
        <ele>863.5</ele>
        <time>2012-11-24T10:23:01Z</time>
      </trkpt>
      <trkpt lat="43.94968" lon="7.11392">
        <ele>861.2</ele>
        <time>2012-11-24T10:23:03Z</time>
      </trkpt>
      <trkpt lat="43.94968" lon="7.11402">
        <ele>858.5</ele>
        <time>2012-11-24T10:23:05Z</time>
      </trkpt>
      <trkpt lat="43.94968" lon="7.11408">
        <ele>857.6</ele>
        <time>2012-11-24T10:23:06Z</time>
      </trkpt>
      <trkpt lat="43.94967" lon="7.11415">
        <ele>856.5</ele>
        <time>2012-11-24T10:23:07Z</time>
      </trkpt>
      <trkpt lat="43.94966" lon="7.11427">
        <ele>853.9</ele>
        <time>2012-11-24T10:23:09Z</time>
      </trkpt>
      <trkpt lat="43.94964" lon="7.11432">
        <ele>852.7</ele>
        <time>2012-11-24T10:23:10Z</time>
      </trkpt>
      <trkpt lat="43.94962" lon="7.11439">
        <ele>850.5</ele>
        <time>2012-11-24T10:23:11Z</time>
      </trkpt>
      <trkpt lat="43.9496" lon="7.11446">
        <ele>848.8</ele>
        <time>2012-11-24T10:23:12Z</time>
      </trkpt>
      <trkpt lat="43.94957" lon="7.11451">
        <ele>847.6</ele>
        <time>2012-11-24T10:23:13Z</time>
      </trkpt>
      <trkpt lat="43.94953" lon="7.11457">
        <ele>846</ele>
        <time>2012-11-24T10:23:14Z</time>
      </trkpt>
      <trkpt lat="43.94949" lon="7.11463">
        <ele>844.8</ele>
        <time>2012-11-24T10:23:15Z</time>
      </trkpt>
      <trkpt lat="43.94946" lon="7.1147">
        <ele>842.6</ele>
        <time>2012-11-24T10:23:16Z</time>
      </trkpt>
      <trkpt lat="43.94943" lon="7.11476">
        <ele>840.9</ele>
        <time>2012-11-24T10:23:17Z</time>
      </trkpt>
      <trkpt lat="43.9494" lon="7.11483">
        <ele>838.7</ele>
        <time>2012-11-24T10:23:18Z</time>
      </trkpt>
      <trkpt lat="43.94937" lon="7.1149">
        <ele>837</ele>
        <time>2012-11-24T10:23:19Z</time>
      </trkpt>
      <trkpt lat="43.94933" lon="7.11494">
        <ele>835.8</ele>
        <time>2012-11-24T10:23:20Z</time>
      </trkpt>
      <trkpt lat="43.94928" lon="7.11498">
        <ele>833.9</ele>
        <time>2012-11-24T10:23:21Z</time>
      </trkpt>
      <trkpt lat="43.94923" lon="7.11503">
        <ele>832.5</ele>
        <time>2012-11-24T10:23:22Z</time>
      </trkpt>
      <trkpt lat="43.94918" lon="7.11507">
        <ele>830.4</ele>
        <time>2012-11-24T10:23:23Z</time>
      </trkpt>
      <trkpt lat="43.94912" lon="7.11513">
        <ele>827.5</ele>
        <time>2012-11-24T10:23:25Z</time>
      </trkpt>
      <trkpt lat="43.94911" lon="7.11523">
        <ele>824.5</ele>
        <time>2012-11-24T10:23:27Z</time>
      </trkpt>
      <trkpt lat="43.9491" lon="7.11529">
        <ele>823.2</ele>
        <time>2012-11-24T10:23:28Z</time>
      </trkpt>
      <trkpt lat="43.94909" lon="7.11535">
        <ele>822.2</ele>
        <time>2012-11-24T10:23:29Z</time>
      </trkpt>
      <trkpt lat="43.94903" lon="7.11542">
        <ele>819</ele>
        <time>2012-11-24T10:23:31Z</time>
      </trkpt>
      <trkpt lat="43.94897" lon="7.11551">
        <ele>812.2</ele>
        <time>2012-11-24T10:24:44Z</time>
      </trkpt>
      <trkpt lat="43.94897" lon="7.11551">
        <ele>811.9</ele>
        <time>2012-11-24T10:24:45Z</time>
      </trkpt>
      <trkpt lat="43.94887" lon="7.11552">
        <ele>812.4</ele>
        <time>2012-11-24T10:29:44Z</time>
      </trkpt>
      <trkpt lat="43.94879" lon="7.11561">
        <ele>810.5</ele>
        <time>2012-11-24T10:29:48Z</time>
      </trkpt>
      <trkpt lat="43.94874" lon="7.11567">
        <ele>809.4</ele>
        <time>2012-11-24T10:29:50Z</time>
      </trkpt>
      <trkpt lat="43.94869" lon="7.11575">
        <ele>807.7</ele>
        <time>2012-11-24T10:29:52Z</time>
      </trkpt>
      <trkpt lat="43.94864" lon="7.11578">
        <ele>806.9</ele>
        <time>2012-11-24T10:29:53Z</time>
      </trkpt>
      <trkpt lat="43.94858" lon="7.11585">
        <ele>804.9</ele>
        <time>2012-11-24T10:29:55Z</time>
      </trkpt>
      <trkpt lat="43.94861" lon="7.11595">
        <ele>800</ele>
        <time>2012-11-24T10:29:59Z</time>
      </trkpt>
      <trkpt lat="43.94861" lon="7.11605">
        <ele>795.9</ele>
        <time>2012-11-24T10:30:03Z</time>
      </trkpt>
      <trkpt lat="43.94857" lon="7.11614">
        <ele>794.6</ele>
        <time>2012-11-24T10:30:06Z</time>
      </trkpt>
      <trkpt lat="43.94855" lon="7.11622">
        <ele>792.4</ele>
        <time>2012-11-24T10:30:08Z</time>
      </trkpt>
      <trkpt lat="43.94852" lon="7.11633">
        <ele>787.4</ele>
        <time>2012-11-24T10:30:13Z</time>
      </trkpt>
      <trkpt lat="43.94848" lon="7.1164">
        <ele>785.4</ele>
        <time>2012-11-24T10:30:15Z</time>
      </trkpt>
      <trkpt lat="43.94845" lon="7.11646">
        <ele>784.3</ele>
        <time>2012-11-24T10:30:16Z</time>
      </trkpt>
      <trkpt lat="43.94841" lon="7.11649">
        <ele>783.5</ele>
        <time>2012-11-24T10:30:17Z</time>
      </trkpt>
      <trkpt lat="43.94836" lon="7.11652">
        <ele>782.2</ele>
        <time>2012-11-24T10:30:18Z</time>
      </trkpt>
      <trkpt lat="43.94832" lon="7.11657">
        <ele>781.3</ele>
        <time>2012-11-24T10:30:19Z</time>
      </trkpt>
      <trkpt lat="43.94826" lon="7.11666">
        <ele>779.2</ele>
        <time>2012-11-24T10:30:21Z</time>
      </trkpt>
      <trkpt lat="43.94827" lon="7.11678">
        <ele>773.5</ele>
        <time>2012-11-24T10:30:26Z</time>
      </trkpt>
      <trkpt lat="43.94821" lon="7.11684">
        <ele>771.7</ele>
        <time>2012-11-24T10:30:28Z</time>
      </trkpt>
      <trkpt lat="43.94813" lon="7.11689">
        <ele>769.5</ele>
        <time>2012-11-24T10:30:30Z</time>
      </trkpt>
      <trkpt lat="43.94805" lon="7.11691">
        <ele>767.5</ele>
        <time>2012-11-24T10:30:32Z</time>
      </trkpt>
      <trkpt lat="43.94798" lon="7.11693">
        <ele>765.3</ele>
        <time>2012-11-24T10:30:34Z</time>
      </trkpt>
      <trkpt lat="43.94791" lon="7.11696">
        <ele>762.6</ele>
        <time>2012-11-24T10:30:36Z</time>
      </trkpt>
      <trkpt lat="43.94783" lon="7.117">
        <ele>759.9</ele>
        <time>2012-11-24T10:30:38Z</time>
      </trkpt>
      <trkpt lat="43.94775" lon="7.11704">
        <ele>757.5</ele>
        <time>2012-11-24T10:30:40Z</time>
      </trkpt>
      <trkpt lat="43.9477" lon="7.11706">
        <ele>756.4</ele>
        <time>2012-11-24T10:30:41Z</time>
      </trkpt>
      <trkpt lat="43.94765" lon="7.11707">
        <ele>754.7</ele>
        <time>2012-11-24T10:30:42Z</time>
      </trkpt>
      <trkpt lat="43.94757" lon="7.1171">
        <ele>752.6</ele>
        <time>2012-11-24T10:30:44Z</time>
      </trkpt>
      <trkpt lat="43.94754" lon="7.1171">
        <ele>751.3</ele>
        <time>2012-11-24T10:30:45Z</time>
      </trkpt>
      <trkpt lat="43.94746" lon="7.11711">
        <ele>748.4</ele>
        <time>2012-11-24T10:30:47Z</time>
      </trkpt>
      <trkpt lat="43.94741" lon="7.11712">
        <ele>746.9</ele>
        <time>2012-11-24T10:30:48Z</time>
      </trkpt>
      <trkpt lat="43.94736" lon="7.11713">
        <ele>745.7</ele>
        <time>2012-11-24T10:30:49Z</time>
      </trkpt>
      <trkpt lat="43.94731" lon="7.11713">
        <ele>744.8</ele>
        <time>2012-11-24T10:30:50Z</time>
      </trkpt>
      <trkpt lat="43.94725" lon="7.11713">
        <ele>744.2</ele>
        <time>2012-11-24T10:30:51Z</time>
      </trkpt>
      <trkpt lat="43.94719" lon="7.11712">
        <ele>743.4</ele>
        <time>2012-11-24T10:30:52Z</time>
      </trkpt>
      <trkpt lat="43.94714" lon="7.11714">
        <ele>742.8</ele>
        <time>2012-11-24T10:30:53Z</time>
      </trkpt>
      <trkpt lat="43.94709" lon="7.11718">
        <ele>741.6</ele>
        <time>2012-11-24T10:30:54Z</time>
      </trkpt>
      <trkpt lat="43.94705" lon="7.11722">
        <ele>740.6</ele>
        <time>2012-11-24T10:30:55Z</time>
      </trkpt>
      <trkpt lat="43.94698" lon="7.11727">
        <ele>738.4</ele>
        <time>2012-11-24T10:30:57Z</time>
      </trkpt>
      <trkpt lat="43.94691" lon="7.11732">
        <ele>735.1</ele>
        <time>2012-11-24T10:31:00Z</time>
      </trkpt>
      <trkpt lat="43.94683" lon="7.11733">
        <ele>732.4</ele>
        <time>2012-11-24T10:31:03Z</time>
      </trkpt>
      <trkpt lat="43.94676" lon="7.11733">
        <ele>730.1</ele>
        <time>2012-11-24T10:31:05Z</time>
      </trkpt>
      <trkpt lat="43.94667" lon="7.11734">
        <ele>727.1</ele>
        <time>2012-11-24T10:31:07Z</time>
      </trkpt>
      <trkpt lat="43.94662" lon="7.11735">
        <ele>726.1</ele>
        <time>2012-11-24T10:31:08Z</time>
      </trkpt>
      <trkpt lat="43.94654" lon="7.11739">
        <ele>724.9</ele>
        <time>2012-11-24T10:31:10Z</time>
      </trkpt>
      <trkpt lat="43.94648" lon="7.11745">
        <ele>722.1</ele>
        <time>2012-11-24T10:31:12Z</time>
      </trkpt>
      <trkpt lat="43.94642" lon="7.11746">
        <ele>719.5</ele>
        <time>2012-11-24T10:31:14Z</time>
      </trkpt>
      <trkpt lat="43.94637" lon="7.11747">
        <ele>718.3</ele>
        <time>2012-11-24T10:31:15Z</time>
      </trkpt>
      <trkpt lat="43.94632" lon="7.11751">
        <ele>717.4</ele>
        <time>2012-11-24T10:31:16Z</time>
      </trkpt>
      <trkpt lat="43.94626" lon="7.11754">
        <ele>716.7</ele>
        <time>2012-11-24T10:31:17Z</time>
      </trkpt>
      <trkpt lat="43.94622" lon="7.11766">
        <ele>715</ele>
        <time>2012-11-24T10:31:19Z</time>
      </trkpt>
      <trkpt lat="43.94619" lon="7.11777">
        <ele>713.1</ele>
        <time>2012-11-24T10:31:21Z</time>
      </trkpt>
      <trkpt lat="43.94616" lon="7.11788">
        <ele>711.9</ele>
        <time>2012-11-24T10:31:23Z</time>
      </trkpt>
      <trkpt lat="43.94615" lon="7.11799">
        <ele>710.3</ele>
        <time>2012-11-24T10:31:25Z</time>
      </trkpt>
      <trkpt lat="43.94614" lon="7.11809">
        <ele>707.9</ele>
        <time>2012-11-24T10:31:27Z</time>
      </trkpt>
      <trkpt lat="43.94611" lon="7.1182">
        <ele>704.1</ele>
        <time>2012-11-24T10:31:31Z</time>
      </trkpt>
      <trkpt lat="43.94608" lon="7.11831">
        <ele>702.2</ele>
        <time>2012-11-24T10:31:54Z</time>
      </trkpt>
      <trkpt lat="43.94608" lon="7.11832">
        <ele>702.2</ele>
        <time>2012-11-24T10:31:55Z</time>
      </trkpt>
      <trkpt lat="43.94604" lon="7.11843">
        <ele>702.4</ele>
        <time>2012-11-24T10:33:22Z</time>
      </trkpt>
      <trkpt lat="43.94594" lon="7.11857">
        <ele>702.6</ele>
        <time>2012-11-24T10:33:29Z</time>
      </trkpt>
      <trkpt lat="43.94588" lon="7.1186">
        <ele>702.2</ele>
        <time>2012-11-24T10:33:32Z</time>
      </trkpt>
      <trkpt lat="43.94582" lon="7.11864">
        <ele>701.8</ele>
        <time>2012-11-24T10:33:34Z</time>
      </trkpt>
      <trkpt lat="43.94576" lon="7.11868">
        <ele>702.1</ele>
        <time>2012-11-24T10:33:36Z</time>
      </trkpt>
      <trkpt lat="43.94569" lon="7.11872">
        <ele>701.9</ele>
        <time>2012-11-24T10:33:38Z</time>
      </trkpt>
      <trkpt lat="43.94562" lon="7.11876">
        <ele>701.5</ele>
        <time>2012-11-24T10:33:40Z</time>
      </trkpt>
      <trkpt lat="43.94554" lon="7.11879">
        <ele>701.2</ele>
        <time>2012-11-24T10:33:42Z</time>
      </trkpt>
      <trkpt lat="43.94545" lon="7.11881">
        <ele>701.1</ele>
        <time>2012-11-24T10:33:44Z</time>
      </trkpt>
      <trkpt lat="43.94536" lon="7.11883">
        <ele>700.9</ele>
        <time>2012-11-24T10:33:46Z</time>
      </trkpt>
      <trkpt lat="43.94528" lon="7.11885">
        <ele>700.6</ele>
        <time>2012-11-24T10:33:48Z</time>
      </trkpt>
      <trkpt lat="43.94519" lon="7.11885">
        <ele>700.8</ele>
        <time>2012-11-24T10:33:50Z</time>
      </trkpt>
      <trkpt lat="43.94513" lon="7.11877">
        <ele>701.2</ele>
        <time>2012-11-24T10:33:52Z</time>
      </trkpt>
      <trkpt lat="43.94509" lon="7.11866">
        <ele>701</ele>
        <time>2012-11-24T10:33:54Z</time>
      </trkpt>
      <trkpt lat="43.94508" lon="7.1186">
        <ele>700.8</ele>
        <time>2012-11-24T10:33:55Z</time>
      </trkpt>
      <trkpt lat="43.94505" lon="7.11853">
        <ele>700.6</ele>
        <time>2012-11-24T10:33:56Z</time>
      </trkpt>
      <trkpt lat="43.94502" lon="7.11859">
        <ele>696.8</ele>
        <time>2012-11-24T10:34:02Z</time>
      </trkpt>
      <trkpt lat="43.94501" lon="7.11871">
        <ele>695.9</ele>
        <time>2012-11-24T10:34:04Z</time>
      </trkpt>
      <trkpt lat="43.94496" lon="7.11863">
        <ele>692.2</ele>
        <time>2012-11-24T10:34:11Z</time>
      </trkpt>
      <trkpt lat="43.94494" lon="7.11856">
        <ele>691.8</ele>
        <time>2012-11-24T10:34:12Z</time>
      </trkpt>
      <trkpt lat="43.94492" lon="7.11849">
        <ele>691.1</ele>
        <time>2012-11-24T10:34:13Z</time>
      </trkpt>
      <trkpt lat="43.94489" lon="7.11841">
        <ele>690.5</ele>
        <time>2012-11-24T10:34:14Z</time>
      </trkpt>
      <trkpt lat="43.94486" lon="7.11833">
        <ele>690.1</ele>
        <time>2012-11-24T10:34:15Z</time>
      </trkpt>
      <trkpt lat="43.94483" lon="7.11827">
        <ele>689.1</ele>
        <time>2012-11-24T10:34:16Z</time>
      </trkpt>
      <trkpt lat="43.94481" lon="7.11821">
        <ele>688.3</ele>
        <time>2012-11-24T10:34:17Z</time>
      </trkpt>
      <trkpt lat="43.94479" lon="7.11814">
        <ele>687.5</ele>
        <time>2012-11-24T10:34:18Z</time>
      </trkpt>
      <trkpt lat="43.94476" lon="7.11807">
        <ele>686.9</ele>
        <time>2012-11-24T10:34:19Z</time>
      </trkpt>
      <trkpt lat="43.94474" lon="7.118">
        <ele>686.5</ele>
        <time>2012-11-24T10:34:20Z</time>
      </trkpt>
      <trkpt lat="43.94472" lon="7.11792">
        <ele>685.5</ele>
        <time>2012-11-24T10:34:21Z</time>
      </trkpt>
      <trkpt lat="43.94468" lon="7.11786">
        <ele>684.8</ele>
        <time>2012-11-24T10:34:22Z</time>
      </trkpt>
      <trkpt lat="43.94465" lon="7.1178">
        <ele>683.5</ele>
        <time>2012-11-24T10:34:23Z</time>
      </trkpt>
      <trkpt lat="43.94463" lon="7.11774">
        <ele>682.5</ele>
        <time>2012-11-24T10:34:24Z</time>
      </trkpt>
      <trkpt lat="43.9446" lon="7.11767">
        <ele>681.5</ele>
        <time>2012-11-24T10:34:25Z</time>
      </trkpt>
      <trkpt lat="43.9446" lon="7.11761">
        <ele>680.8</ele>
        <time>2012-11-24T10:34:26Z</time>
      </trkpt>
      <trkpt lat="43.94461" lon="7.11749">
        <ele>679.4</ele>
        <time>2012-11-24T10:34:28Z</time>
      </trkpt>
      <trkpt lat="43.94463" lon="7.11738">
        <ele>677.7</ele>
        <time>2012-11-24T10:34:30Z</time>
      </trkpt>
      <trkpt lat="43.94461" lon="7.11728">
        <ele>676.6</ele>
        <time>2012-11-24T10:34:32Z</time>
      </trkpt>
      <trkpt lat="43.94458" lon="7.11717">
        <ele>676.1</ele>
        <time>2012-11-24T10:34:34Z</time>
      </trkpt>
      <trkpt lat="43.94457" lon="7.11707">
        <ele>675.2</ele>
        <time>2012-11-24T10:34:36Z</time>
      </trkpt>
      <trkpt lat="43.94457" lon="7.11696">
        <ele>674.6</ele>
        <time>2012-11-24T10:34:38Z</time>
      </trkpt>
      <trkpt lat="43.94452" lon="7.11686">
        <ele>673.2</ele>
        <time>2012-11-24T10:34:42Z</time>
      </trkpt>
      <trkpt lat="43.94444" lon="7.11681">
        <ele>673.1</ele>
        <time>2012-11-24T10:34:46Z</time>
      </trkpt>
      <trkpt lat="43.94438" lon="7.11675">
        <ele>673.3</ele>
        <time>2012-11-24T10:34:49Z</time>
      </trkpt>
      <trkpt lat="43.94432" lon="7.11667">
        <ele>673.3</ele>
        <time>2012-11-24T10:34:53Z</time>
      </trkpt>
      <trkpt lat="43.94427" lon="7.11657">
        <ele>673.2</ele>
        <time>2012-11-24T10:34:57Z</time>
      </trkpt>
      <trkpt lat="43.94424" lon="7.11648">
        <ele>672.6</ele>
        <time>2012-11-24T10:35:00Z</time>
      </trkpt>
      <trkpt lat="43.94422" lon="7.11639">
        <ele>672.3</ele>
        <time>2012-11-24T10:35:02Z</time>
      </trkpt>
      <trkpt lat="43.94419" lon="7.11628">
        <ele>670.9</ele>
        <time>2012-11-24T10:35:04Z</time>
      </trkpt>
      <trkpt lat="43.94414" lon="7.11619">
        <ele>670.2</ele>
        <time>2012-11-24T10:35:06Z</time>
      </trkpt>
      <trkpt lat="43.94409" lon="7.11609">
        <ele>669.5</ele>
        <time>2012-11-24T10:35:08Z</time>
      </trkpt>
      <trkpt lat="43.94405" lon="7.11599">
        <ele>669</ele>
        <time>2012-11-24T10:35:10Z</time>
      </trkpt>
      <trkpt lat="43.94403" lon="7.11587">
        <ele>668.9</ele>
        <time>2012-11-24T10:35:12Z</time>
      </trkpt>
      <trkpt lat="43.94401" lon="7.1158">
        <ele>669</ele>
        <time>2012-11-24T10:35:13Z</time>
      </trkpt>
      <trkpt lat="43.94398" lon="7.11573">
        <ele>669</ele>
        <time>2012-11-24T10:35:14Z</time>
      </trkpt>
      <trkpt lat="43.94396" lon="7.11566">
        <ele>668.7</ele>
        <time>2012-11-24T10:35:15Z</time>
      </trkpt>
      <trkpt lat="43.94394" lon="7.11558">
        <ele>668.4</ele>
        <time>2012-11-24T10:35:16Z</time>
      </trkpt>
      <trkpt lat="43.94392" lon="7.1155">
        <ele>668.2</ele>
        <time>2012-11-24T10:35:17Z</time>
      </trkpt>
      <trkpt lat="43.9439" lon="7.11542">
        <ele>667.7</ele>
        <time>2012-11-24T10:35:18Z</time>
      </trkpt>
      <trkpt lat="43.94388" lon="7.11534">
        <ele>667.4</ele>
        <time>2012-11-24T10:35:19Z</time>
      </trkpt>
      <trkpt lat="43.94387" lon="7.11526">
        <ele>666.7</ele>
        <time>2012-11-24T10:35:20Z</time>
      </trkpt>
      <trkpt lat="43.94386" lon="7.11517">
        <ele>666.2</ele>
        <time>2012-11-24T10:35:21Z</time>
      </trkpt>
      <trkpt lat="43.94383" lon="7.11511">
        <ele>665.5</ele>
        <time>2012-11-24T10:35:22Z</time>
      </trkpt>
      <trkpt lat="43.94383" lon="7.115">
        <ele>664.5</ele>
        <time>2012-11-24T10:35:24Z</time>
      </trkpt>
      <trkpt lat="43.94385" lon="7.11497">
        <ele>664.1</ele>
        <time>2012-11-24T10:35:25Z</time>
      </trkpt>
      <trkpt lat="43.94392" lon="7.11483">
        <ele>663.7</ele>
        <time>2012-11-24T10:35:28Z</time>
      </trkpt>
      <trkpt lat="43.94388" lon="7.11473">
        <ele>662.5</ele>
        <time>2012-11-24T10:35:30Z</time>
      </trkpt>
      <trkpt lat="43.94384" lon="7.11467">
        <ele>662.1</ele>
        <time>2012-11-24T10:35:31Z</time>
      </trkpt>
      <trkpt lat="43.94379" lon="7.11462">
        <ele>661.7</ele>
        <time>2012-11-24T10:35:32Z</time>
      </trkpt>
      <trkpt lat="43.94374" lon="7.11458">
        <ele>661.4</ele>
        <time>2012-11-24T10:35:33Z</time>
      </trkpt>
      <trkpt lat="43.94369" lon="7.11453">
        <ele>660.7</ele>
        <time>2012-11-24T10:35:34Z</time>
      </trkpt>
      <trkpt lat="43.94366" lon="7.11448">
        <ele>660.1</ele>
        <time>2012-11-24T10:35:35Z</time>
      </trkpt>
      <trkpt lat="43.94365" lon="7.11441">
        <ele>658.9</ele>
        <time>2012-11-24T10:35:36Z</time>
      </trkpt>
      <trkpt lat="43.94363" lon="7.11434">
        <ele>658</ele>
        <time>2012-11-24T10:35:37Z</time>
      </trkpt>
      <trkpt lat="43.9436" lon="7.11428">
        <ele>657.3</ele>
        <time>2012-11-24T10:35:38Z</time>
      </trkpt>
      <trkpt lat="43.94359" lon="7.11416">
        <ele>655</ele>
        <time>2012-11-24T10:35:40Z</time>
      </trkpt>
      <trkpt lat="43.94357" lon="7.11409">
        <ele>654.1</ele>
        <time>2012-11-24T10:35:41Z</time>
      </trkpt>
      <trkpt lat="43.94356" lon="7.11402">
        <ele>653.4</ele>
        <time>2012-11-24T10:35:42Z</time>
      </trkpt>
      <trkpt lat="43.94356" lon="7.11394">
        <ele>652.9</ele>
        <time>2012-11-24T10:35:43Z</time>
      </trkpt>
      <trkpt lat="43.94353" lon="7.11386">
        <ele>652.5</ele>
        <time>2012-11-24T10:35:44Z</time>
      </trkpt>
      <trkpt lat="43.94351" lon="7.11379">
        <ele>652.2</ele>
        <time>2012-11-24T10:35:45Z</time>
      </trkpt>
      <trkpt lat="43.94348" lon="7.11372">
        <ele>651.2</ele>
        <time>2012-11-24T10:35:46Z</time>
      </trkpt>
      <trkpt lat="43.94345" lon="7.11364">
        <ele>650.4</ele>
        <time>2012-11-24T10:35:47Z</time>
      </trkpt>
      <trkpt lat="43.94342" lon="7.11357">
        <ele>649.4</ele>
        <time>2012-11-24T10:35:48Z</time>
      </trkpt>
      <trkpt lat="43.94339" lon="7.1135">
        <ele>648.7</ele>
        <time>2012-11-24T10:35:49Z</time>
      </trkpt>
      <trkpt lat="43.94331" lon="7.11346">
        <ele>640.7</ele>
        <time>2012-11-24T10:36:04Z</time>
      </trkpt>
      <trkpt lat="43.94326" lon="7.11335">
        <ele>640</ele>
        <time>2012-11-24T10:36:06Z</time>
      </trkpt>
      <trkpt lat="43.94326" lon="7.11342">
        <ele>638.3</ele>
        <time>2012-11-24T10:36:10Z</time>
      </trkpt>
      <trkpt lat="43.94321" lon="7.1134">
        <ele>634.7</ele>
        <time>2012-11-24T10:36:18Z</time>
      </trkpt>
      <trkpt lat="43.94316" lon="7.1133">
        <ele>634</ele>
        <time>2012-11-24T10:36:20Z</time>
      </trkpt>
      <trkpt lat="43.94316" lon="7.1134">
        <ele>631.9</ele>
        <time>2012-11-24T10:36:25Z</time>
      </trkpt>
      <trkpt lat="43.94318" lon="7.11344">
        <ele>631.4</ele>
        <time>2012-11-24T10:36:26Z</time>
      </trkpt>
      <trkpt lat="43.94306" lon="7.11327">
        <ele>627</ele>
        <time>2012-11-24T10:36:34Z</time>
      </trkpt>
      <trkpt lat="43.94306" lon="7.1134">
        <ele>622.1</ele>
        <time>2012-11-24T10:37:13Z</time>
      </trkpt>
      <trkpt lat="43.94299" lon="7.11347">
        <ele>622.8</ele>
        <time>2012-11-24T10:38:18Z</time>
      </trkpt>
      <trkpt lat="43.94299" lon="7.11348">
        <ele>622.8</ele>
        <time>2012-11-24T10:38:19Z</time>
      </trkpt>
      <trkpt lat="43.9429" lon="7.11351">
        <ele>610.7</ele>
        <time>2012-11-24T10:38:50Z</time>
      </trkpt>
      <trkpt lat="43.94291" lon="7.11363">
        <ele>607.4</ele>
        <time>2012-11-24T10:38:58Z</time>
      </trkpt>
      <trkpt lat="43.94285" lon="7.11356">
        <ele>605.8</ele>
        <time>2012-11-24T10:39:03Z</time>
      </trkpt>
      <trkpt lat="43.94288" lon="7.11365">
        <ele>603.4</ele>
        <time>2012-11-24T10:39:09Z</time>
      </trkpt>
      <trkpt lat="43.94291" lon="7.1137">
        <ele>602.9</ele>
        <time>2012-11-24T10:39:10Z</time>
      </trkpt>
      <trkpt lat="43.94298" lon="7.11378">
        <ele>602.1</ele>
        <time>2012-11-24T10:39:12Z</time>
      </trkpt>
      <trkpt lat="43.94297" lon="7.1139">
        <ele>600.6</ele>
        <time>2012-11-24T10:39:15Z</time>
      </trkpt>
      <trkpt lat="43.94296" lon="7.11395">
        <ele>600.4</ele>
        <time>2012-11-24T10:39:16Z</time>
      </trkpt>
      <trkpt lat="43.94293" lon="7.11406">
        <ele>599.5</ele>
        <time>2012-11-24T10:39:18Z</time>
      </trkpt>
      <trkpt lat="43.94293" lon="7.11396">
        <ele>596.9</ele>
        <time>2012-11-24T10:39:25Z</time>
      </trkpt>
      <trkpt lat="43.94294" lon="7.11393">
        <ele>596.8</ele>
        <time>2012-11-24T10:39:26Z</time>
      </trkpt>
      <trkpt lat="43.94285" lon="7.1138">
        <ele>594.5</ele>
        <time>2012-11-24T10:39:31Z</time>
      </trkpt>
      <trkpt lat="43.94279" lon="7.11373">
        <ele>594.5</ele>
        <time>2012-11-24T10:39:33Z</time>
      </trkpt>
      <trkpt lat="43.94272" lon="7.11369">
        <ele>594</ele>
        <time>2012-11-24T10:39:35Z</time>
      </trkpt>
      <trkpt lat="43.94267" lon="7.11361">
        <ele>592.9</ele>
        <time>2012-11-24T10:39:38Z</time>
      </trkpt>
      <trkpt lat="43.94265" lon="7.1135">
        <ele>591.6</ele>
        <time>2012-11-24T10:39:44Z</time>
      </trkpt>
      <trkpt lat="43.94262" lon="7.11342">
        <ele>591.1</ele>
        <time>2012-11-24T10:39:46Z</time>
      </trkpt>
      <trkpt lat="43.94259" lon="7.11335">
        <ele>590.4</ele>
        <time>2012-11-24T10:39:48Z</time>
      </trkpt>
      <trkpt lat="43.94254" lon="7.11329">
        <ele>590.2</ele>
        <time>2012-11-24T10:39:50Z</time>
      </trkpt>
      <trkpt lat="43.94248" lon="7.11323">
        <ele>590.2</ele>
        <time>2012-11-24T10:39:52Z</time>
      </trkpt>
      <trkpt lat="43.94242" lon="7.11315">
        <ele>589.8</ele>
        <time>2012-11-24T10:39:54Z</time>
      </trkpt>
      <trkpt lat="43.94238" lon="7.11306">
        <ele>589.7</ele>
        <time>2012-11-24T10:39:56Z</time>
      </trkpt>
      <trkpt lat="43.9423" lon="7.11303">
        <ele>589.3</ele>
        <time>2012-11-24T10:39:58Z</time>
      </trkpt>
      <trkpt lat="43.94222" lon="7.113">
        <ele>589</ele>
        <time>2012-11-24T10:40:00Z</time>
      </trkpt>
      <trkpt lat="43.94214" lon="7.11296">
        <ele>588.6</ele>
        <time>2012-11-24T10:40:02Z</time>
      </trkpt>
      <trkpt lat="43.94208" lon="7.1129">
        <ele>588.2</ele>
        <time>2012-11-24T10:40:04Z</time>
      </trkpt>
      <trkpt lat="43.94203" lon="7.11285">
        <ele>587</ele>
        <time>2012-11-24T10:40:06Z</time>
      </trkpt>
      <trkpt lat="43.94194" lon="7.11286">
        <ele>581.3</ele>
        <time>2012-11-24T10:40:30Z</time>
      </trkpt>
      <trkpt lat="43.94194" lon="7.11286">
        <ele>581.5</ele>
        <time>2012-11-24T10:40:31Z</time>
      </trkpt>
      <trkpt lat="43.94178" lon="7.11278">
        <ele>577.5</ele>
        <time>2012-11-24T10:41:00Z</time>
      </trkpt>
      <trkpt lat="43.94177" lon="7.11267">
        <ele>576.9</ele>
        <time>2012-11-24T10:41:02Z</time>
      </trkpt>
      <trkpt lat="43.94176" lon="7.11255">
        <ele>575.8</ele>
        <time>2012-11-24T10:41:04Z</time>
      </trkpt>
      <trkpt lat="43.94172" lon="7.11259">
        <ele>573.6</ele>
        <time>2012-11-24T10:41:07Z</time>
      </trkpt>
      <trkpt lat="43.94169" lon="7.11264">
        <ele>573</ele>
        <time>2012-11-24T10:41:08Z</time>
      </trkpt>
      <trkpt lat="43.94167" lon="7.11271">
        <ele>572.5</ele>
        <time>2012-11-24T10:41:09Z</time>
      </trkpt>
      <trkpt lat="43.94165" lon="7.11278">
        <ele>572.1</ele>
        <time>2012-11-24T10:41:10Z</time>
      </trkpt>
      <trkpt lat="43.94159" lon="7.11271">
        <ele>568.8</ele>
        <time>2012-11-24T10:41:17Z</time>
      </trkpt>
      <trkpt lat="43.9416" lon="7.11259">
        <ele>567.4</ele>
        <time>2012-11-24T10:41:19Z</time>
      </trkpt>
      <trkpt lat="43.9416" lon="7.11252">
        <ele>567</ele>
        <time>2012-11-24T10:41:20Z</time>
      </trkpt>
      <trkpt lat="43.94161" lon="7.11244">
        <ele>566.9</ele>
        <time>2012-11-24T10:41:21Z</time>
      </trkpt>
      <trkpt lat="43.94161" lon="7.11236">
        <ele>566.8</ele>
        <time>2012-11-24T10:41:22Z</time>
      </trkpt>
      <trkpt lat="43.94161" lon="7.11227">
        <ele>565.8</ele>
        <time>2012-11-24T10:41:23Z</time>
      </trkpt>
      <trkpt lat="43.94162" lon="7.11218">
        <ele>565.1</ele>
        <time>2012-11-24T10:41:24Z</time>
      </trkpt>
      <trkpt lat="43.94162" lon="7.1121">
        <ele>563.7</ele>
        <time>2012-11-24T10:41:25Z</time>
      </trkpt>
      <trkpt lat="43.94154" lon="7.11215">
        <ele>559.7</ele>
        <time>2012-11-24T10:41:31Z</time>
      </trkpt>
      <trkpt lat="43.94151" lon="7.11219">
        <ele>559.5</ele>
        <time>2012-11-24T10:41:32Z</time>
      </trkpt>
      <trkpt lat="43.94141" lon="7.11206">
        <ele>554</ele>
        <time>2012-11-24T10:41:46Z</time>
      </trkpt>
      <trkpt lat="43.94141" lon="7.11196">
        <ele>551.9</ele>
        <time>2012-11-24T10:41:49Z</time>
      </trkpt>
      <trkpt lat="43.94142" lon="7.11185">
        <ele>551.4</ele>
        <time>2012-11-24T10:41:51Z</time>
      </trkpt>
      <trkpt lat="43.94135" lon="7.1119">
        <ele>549.4</ele>
        <time>2012-11-24T10:41:56Z</time>
      </trkpt>
      <trkpt lat="43.94128" lon="7.11182">
        <ele>544.4</ele>
        <time>2012-11-24T10:42:09Z</time>
      </trkpt>
      <trkpt lat="43.94122" lon="7.11174">
        <ele>544.6</ele>
        <time>2012-11-24T10:43:01Z</time>
      </trkpt>
      <trkpt lat="43.94121" lon="7.11174">
        <ele>544.7</ele>
        <time>2012-11-24T10:43:02Z</time>
      </trkpt>
      <trkpt lat="43.94113" lon="7.11177">
        <ele>543.8</ele>
        <time>2012-11-24T10:47:15Z</time>
      </trkpt>
      <trkpt lat="43.94122" lon="7.11177">
        <ele>544.1</ele>
        <time>2012-11-24T10:50:31Z</time>
      </trkpt>
      <trkpt lat="43.94113" lon="7.11181">
        <ele>544.1</ele>
        <time>2012-11-24T10:52:21Z</time>
      </trkpt>
      <trkpt lat="43.94111" lon="7.11165">
        <ele>541.4</ele>
        <time>2012-11-24T10:52:28Z</time>
      </trkpt>
      <trkpt lat="43.94111" lon="7.11158">
        <ele>541.1</ele>
        <time>2012-11-24T10:52:29Z</time>
      </trkpt>
      <trkpt lat="43.94111" lon="7.11151">
        <ele>540.6</ele>
        <time>2012-11-24T10:52:30Z</time>
      </trkpt>
      <trkpt lat="43.94111" lon="7.11144">
        <ele>540.2</ele>
        <time>2012-11-24T10:52:31Z</time>
      </trkpt>
      <trkpt lat="43.94104" lon="7.11146">
        <ele>536.1</ele>
        <time>2012-11-24T10:52:38Z</time>
      </trkpt>
      <trkpt lat="43.94102" lon="7.11152">
        <ele>534.9</ele>
        <time>2012-11-24T10:52:39Z</time>
      </trkpt>
      <trkpt lat="43.94099" lon="7.11158">
        <ele>534</ele>
        <time>2012-11-24T10:52:40Z</time>
      </trkpt>
      <trkpt lat="43.94095" lon="7.11169">
        <ele>533</ele>
        <time>2012-11-24T10:52:42Z</time>
      </trkpt>
      <trkpt lat="43.94091" lon="7.11159">
        <ele>531.1</ele>
        <time>2012-11-24T10:52:46Z</time>
      </trkpt>
      <trkpt lat="43.9409" lon="7.11152">
        <ele>530.5</ele>
        <time>2012-11-24T10:52:47Z</time>
      </trkpt>
      <trkpt lat="43.94088" lon="7.11144">
        <ele>530</ele>
        <time>2012-11-24T10:52:48Z</time>
      </trkpt>
      <trkpt lat="43.94087" lon="7.11136">
        <ele>529.4</ele>
        <time>2012-11-24T10:52:49Z</time>
      </trkpt>
      <trkpt lat="43.94086" lon="7.11127">
        <ele>528.9</ele>
        <time>2012-11-24T10:52:50Z</time>
      </trkpt>
      <trkpt lat="43.94086" lon="7.11119">
        <ele>528</ele>
        <time>2012-11-24T10:52:51Z</time>
      </trkpt>
      <trkpt lat="43.94084" lon="7.1111">
        <ele>527.4</ele>
        <time>2012-11-24T10:52:52Z</time>
      </trkpt>
      <trkpt lat="43.94083" lon="7.11103">
        <ele>526.9</ele>
        <time>2012-11-24T10:52:53Z</time>
      </trkpt>
      <trkpt lat="43.94076" lon="7.11099">
        <ele>523.8</ele>
        <time>2012-11-24T10:52:57Z</time>
      </trkpt>
      <trkpt lat="43.94074" lon="7.11104">
        <ele>523.2</ele>
        <time>2012-11-24T10:52:58Z</time>
      </trkpt>
      <trkpt lat="43.94071" lon="7.1111">
        <ele>522.8</ele>
        <time>2012-11-24T10:52:59Z</time>
      </trkpt>
      <trkpt lat="43.94067" lon="7.1112">
        <ele>521.5</ele>
        <time>2012-11-24T10:53:01Z</time>
      </trkpt>
      <trkpt lat="43.94063" lon="7.11111">
        <ele>519.4</ele>
        <time>2012-11-24T10:53:04Z</time>
      </trkpt>
      <trkpt lat="43.94062" lon="7.11106">
        <ele>518.6</ele>
        <time>2012-11-24T10:53:05Z</time>
      </trkpt>
      <trkpt lat="43.94061" lon="7.11098">
        <ele>518.1</ele>
        <time>2012-11-24T10:53:06Z</time>
      </trkpt>
      <trkpt lat="43.94059" lon="7.1109">
        <ele>517.7</ele>
        <time>2012-11-24T10:53:07Z</time>
      </trkpt>
      <trkpt lat="43.94057" lon="7.11082">
        <ele>517.1</ele>
        <time>2012-11-24T10:53:08Z</time>
      </trkpt>
      <trkpt lat="43.94057" lon="7.11075">
        <ele>516.6</ele>
        <time>2012-11-24T10:53:09Z</time>
      </trkpt>
      <trkpt lat="43.94048" lon="7.11076">
        <ele>513.7</ele>
        <time>2012-11-24T10:53:14Z</time>
      </trkpt>
      <trkpt lat="43.94046" lon="7.11081">
        <ele>513.3</ele>
        <time>2012-11-24T10:53:15Z</time>
      </trkpt>
      <trkpt lat="43.94038" lon="7.11082">
        <ele>511.3</ele>
        <time>2012-11-24T10:53:19Z</time>
      </trkpt>
      <trkpt lat="43.94035" lon="7.11071">
        <ele>510.7</ele>
        <time>2012-11-24T10:53:21Z</time>
      </trkpt>
      <trkpt lat="43.94033" lon="7.11063">
        <ele>509.8</ele>
        <time>2012-11-24T10:53:22Z</time>
      </trkpt>
      <trkpt lat="43.9403" lon="7.11055">
        <ele>509.1</ele>
        <time>2012-11-24T10:53:23Z</time>
      </trkpt>
      <trkpt lat="43.94028" lon="7.11047">
        <ele>508</ele>
        <time>2012-11-24T10:53:24Z</time>
      </trkpt>
      <trkpt lat="43.94025" lon="7.11038">
        <ele>507.2</ele>
        <time>2012-11-24T10:53:25Z</time>
      </trkpt>
      <trkpt lat="43.94023" lon="7.11029">
        <ele>506.6</ele>
        <time>2012-11-24T10:53:26Z</time>
      </trkpt>
      <trkpt lat="43.9402" lon="7.11022">
        <ele>506.3</ele>
        <time>2012-11-24T10:53:27Z</time>
      </trkpt>
      <trkpt lat="43.94013" lon="7.11015">
        <ele>503.6</ele>
        <time>2012-11-24T10:53:31Z</time>
      </trkpt>
      <trkpt lat="43.94009" lon="7.11025">
        <ele>502.3</ele>
        <time>2012-11-24T10:53:33Z</time>
      </trkpt>
      <trkpt lat="43.94006" lon="7.11032">
        <ele>501.7</ele>
        <time>2012-11-24T10:53:34Z</time>
      </trkpt>
      <trkpt lat="43.94002" lon="7.11043">
        <ele>500.5</ele>
        <time>2012-11-24T10:53:36Z</time>
      </trkpt>
      <trkpt lat="43.93996" lon="7.1104">
        <ele>498.7</ele>
        <time>2012-11-24T10:53:39Z</time>
      </trkpt>
      <trkpt lat="43.9399" lon="7.11032">
        <ele>497.7</ele>
        <time>2012-11-24T10:53:41Z</time>
      </trkpt>
      <trkpt lat="43.93982" lon="7.11033">
        <ele>495.5</ele>
        <time>2012-11-24T10:53:45Z</time>
      </trkpt>
      <trkpt lat="43.93977" lon="7.11043">
        <ele>495.3</ele>
        <time>2012-11-24T10:53:47Z</time>
      </trkpt>
      <trkpt lat="43.9397" lon="7.11038">
        <ele>492.8</ele>
        <time>2012-11-24T10:53:52Z</time>
      </trkpt>
      <trkpt lat="43.93966" lon="7.11027">
        <ele>492.1</ele>
        <time>2012-11-24T10:53:54Z</time>
      </trkpt>
      <trkpt lat="43.93959" lon="7.11028">
        <ele>490.3</ele>
        <time>2012-11-24T10:53:58Z</time>
      </trkpt>
      <trkpt lat="43.93954" lon="7.11036">
        <ele>488.9</ele>
        <time>2012-11-24T10:54:00Z</time>
      </trkpt>
      <trkpt lat="43.93947" lon="7.11044">
        <ele>488.2</ele>
        <time>2012-11-24T10:54:02Z</time>
      </trkpt>
      <trkpt lat="43.93945" lon="7.11053">
        <ele>486.5</ele>
        <time>2012-11-24T10:54:05Z</time>
      </trkpt>
      <trkpt lat="43.93947" lon="7.11064">
        <ele>484.9</ele>
        <time>2012-11-24T10:54:08Z</time>
      </trkpt>
      <trkpt lat="43.9394" lon="7.11067">
        <ele>481.9</ele>
        <time>2012-11-24T10:54:14Z</time>
      </trkpt>
      <trkpt lat="43.93935" lon="7.11075">
        <ele>479</ele>
        <time>2012-11-24T10:54:32Z</time>
      </trkpt>
      <trkpt lat="43.93932" lon="7.11075">
        <ele>478.5</ele>
        <time>2012-11-24T10:54:33Z</time>
      </trkpt>
      <trkpt lat="43.93922" lon="7.11096">
        <ele>473</ele>
        <time>2012-11-24T10:54:58Z</time>
      </trkpt>
      <trkpt lat="43.9392" lon="7.11107">
        <ele>471.2</ele>
        <time>2012-11-24T10:55:12Z</time>
      </trkpt>
      <trkpt lat="43.93913" lon="7.11102">
        <ele>469.5</ele>
        <time>2012-11-24T10:55:27Z</time>
      </trkpt>
      <trkpt lat="43.93911" lon="7.1109">
        <ele>470.7</ele>
        <time>2012-11-24T10:55:31Z</time>
      </trkpt>
      <trkpt lat="43.9391" lon="7.11079">
        <ele>471.4</ele>
        <time>2012-11-24T10:55:34Z</time>
      </trkpt>
      <trkpt lat="43.93909" lon="7.11075">
        <ele>471.2</ele>
        <time>2012-11-24T10:55:35Z</time>
      </trkpt>
      <trkpt lat="43.93907" lon="7.11059">
        <ele>471.5</ele>
        <time>2012-11-24T10:55:40Z</time>
      </trkpt>
      <trkpt lat="43.93905" lon="7.11049">
        <ele>471.2</ele>
        <time>2012-11-24T10:55:43Z</time>
      </trkpt>
      <trkpt lat="43.93904" lon="7.1104">
        <ele>470.9</ele>
        <time>2012-11-24T10:55:45Z</time>
      </trkpt>
      <trkpt lat="43.93903" lon="7.1103">
        <ele>470.8</ele>
        <time>2012-11-24T10:55:47Z</time>
      </trkpt>
      <trkpt lat="43.93903" lon="7.11019">
        <ele>470.7</ele>
        <time>2012-11-24T10:55:49Z</time>
      </trkpt>
      <trkpt lat="43.93906" lon="7.11008">
        <ele>470.7</ele>
        <time>2012-11-24T10:55:51Z</time>
      </trkpt>
      <trkpt lat="43.93909" lon="7.11002">
        <ele>470.5</ele>
        <time>2012-11-24T10:55:52Z</time>
      </trkpt>
      <trkpt lat="43.93912" lon="7.10997">
        <ele>470.4</ele>
        <time>2012-11-24T10:55:53Z</time>
      </trkpt>
      <trkpt lat="43.93916" lon="7.10992">
        <ele>470.1</ele>
        <time>2012-11-24T10:55:54Z</time>
      </trkpt>
      <trkpt lat="43.9392" lon="7.10988">
        <ele>470</ele>
        <time>2012-11-24T10:55:55Z</time>
      </trkpt>
      <trkpt lat="43.93924" lon="7.10983">
        <ele>470</ele>
        <time>2012-11-24T10:55:56Z</time>
      </trkpt>
      <trkpt lat="43.93926" lon="7.10978">
        <ele>470</ele>
        <time>2012-11-24T10:55:57Z</time>
      </trkpt>
      <trkpt lat="43.93929" lon="7.10972">
        <ele>470</ele>
        <time>2012-11-24T10:55:58Z</time>
      </trkpt>
      <trkpt lat="43.93932" lon="7.10966">
        <ele>469.9</ele>
        <time>2012-11-24T10:55:59Z</time>
      </trkpt>
      <trkpt lat="43.93935" lon="7.1096">
        <ele>469.8</ele>
        <time>2012-11-24T10:56:00Z</time>
      </trkpt>
      <trkpt lat="43.93938" lon="7.10954">
        <ele>469.1</ele>
        <time>2012-11-24T10:56:01Z</time>
      </trkpt>
      <trkpt lat="43.93942" lon="7.10948">
        <ele>468.7</ele>
        <time>2012-11-24T10:56:02Z</time>
      </trkpt>
      <trkpt lat="43.93945" lon="7.10943">
        <ele>468.3</ele>
        <time>2012-11-24T10:56:03Z</time>
      </trkpt>
      <trkpt lat="43.9395" lon="7.10937">
        <ele>467.7</ele>
        <time>2012-11-24T10:56:04Z</time>
      </trkpt>
      <trkpt lat="43.93955" lon="7.10933">
        <ele>467.2</ele>
        <time>2012-11-24T10:56:05Z</time>
      </trkpt>
      <trkpt lat="43.9396" lon="7.10928">
        <ele>467.2</ele>
        <time>2012-11-24T10:56:06Z</time>
      </trkpt>
      <trkpt lat="43.93965" lon="7.10924">
        <ele>467.2</ele>
        <time>2012-11-24T10:56:07Z</time>
      </trkpt>
      <trkpt lat="43.93971" lon="7.10921">
        <ele>466.9</ele>
        <time>2012-11-24T10:56:08Z</time>
      </trkpt>
      <trkpt lat="43.93977" lon="7.10919">
        <ele>466.7</ele>
        <time>2012-11-24T10:56:09Z</time>
      </trkpt>
      <trkpt lat="43.93983" lon="7.10918">
        <ele>466.5</ele>
        <time>2012-11-24T10:56:10Z</time>
      </trkpt>
      <trkpt lat="43.9399" lon="7.10917">
        <ele>466</ele>
        <time>2012-11-24T10:56:11Z</time>
      </trkpt>
      <trkpt lat="43.93996" lon="7.10917">
        <ele>465.6</ele>
        <time>2012-11-24T10:56:12Z</time>
      </trkpt>
      <trkpt lat="43.94003" lon="7.10916">
        <ele>465.1</ele>
        <time>2012-11-24T10:56:13Z</time>
      </trkpt>
      <trkpt lat="43.94009" lon="7.10917">
        <ele>464.6</ele>
        <time>2012-11-24T10:56:14Z</time>
      </trkpt>
      <trkpt lat="43.94015" lon="7.10918">
        <ele>464</ele>
        <time>2012-11-24T10:56:15Z</time>
      </trkpt>
      <trkpt lat="43.94021" lon="7.1092">
        <ele>463.5</ele>
        <time>2012-11-24T10:56:16Z</time>
      </trkpt>
      <trkpt lat="43.94027" lon="7.10924">
        <ele>463.1</ele>
        <time>2012-11-24T10:56:17Z</time>
      </trkpt>
      <trkpt lat="43.94033" lon="7.10926">
        <ele>462.5</ele>
        <time>2012-11-24T10:56:18Z</time>
      </trkpt>
      <trkpt lat="43.94039" lon="7.10925">
        <ele>462.1</ele>
        <time>2012-11-24T10:56:19Z</time>
      </trkpt>
      <trkpt lat="43.94044" lon="7.10921">
        <ele>461.6</ele>
        <time>2012-11-24T10:56:20Z</time>
      </trkpt>
      <trkpt lat="43.94048" lon="7.10915">
        <ele>461.2</ele>
        <time>2012-11-24T10:56:21Z</time>
      </trkpt>
      <trkpt lat="43.94051" lon="7.1091">
        <ele>461.4</ele>
        <time>2012-11-24T10:56:22Z</time>
      </trkpt>
      <trkpt lat="43.94055" lon="7.10905">
        <ele>461.6</ele>
        <time>2012-11-24T10:56:23Z</time>
      </trkpt>
      <trkpt lat="43.94058" lon="7.109">
        <ele>461.7</ele>
        <time>2012-11-24T10:56:24Z</time>
      </trkpt>
      <trkpt lat="43.94062" lon="7.10895">
        <ele>461.5</ele>
        <time>2012-11-24T10:56:25Z</time>
      </trkpt>
      <trkpt lat="43.94065" lon="7.1089">
        <ele>461.4</ele>
        <time>2012-11-24T10:56:26Z</time>
      </trkpt>
      <trkpt lat="43.94068" lon="7.10884">
        <ele>461.4</ele>
        <time>2012-11-24T10:56:27Z</time>
      </trkpt>
      <trkpt lat="43.9407" lon="7.10879">
        <ele>461.5</ele>
        <time>2012-11-24T10:56:28Z</time>
      </trkpt>
      <trkpt lat="43.94072" lon="7.10866">
        <ele>461.7</ele>
        <time>2012-11-24T10:56:30Z</time>
      </trkpt>
      <trkpt lat="43.9407" lon="7.10855">
        <ele>461.8</ele>
        <time>2012-11-24T10:56:32Z</time>
      </trkpt>
      <trkpt lat="43.94068" lon="7.10845">
        <ele>461.7</ele>
        <time>2012-11-24T10:56:34Z</time>
      </trkpt>
      <trkpt lat="43.94066" lon="7.10834">
        <ele>461.8</ele>
        <time>2012-11-24T10:56:36Z</time>
      </trkpt>
      <trkpt lat="43.94065" lon="7.10829">
        <ele>462.2</ele>
        <time>2012-11-24T10:56:37Z</time>
      </trkpt>
      <trkpt lat="43.94067" lon="7.10813">
        <ele>462.9</ele>
        <time>2012-11-24T10:56:40Z</time>
      </trkpt>
      <trkpt lat="43.94068" lon="7.10803">
        <ele>463.3</ele>
        <time>2012-11-24T10:56:42Z</time>
      </trkpt>
      <trkpt lat="43.94069" lon="7.10793">
        <ele>463.8</ele>
        <time>2012-11-24T10:56:44Z</time>
      </trkpt>
      <trkpt lat="43.9407" lon="7.10783">
        <ele>464</ele>
        <time>2012-11-24T10:56:46Z</time>
      </trkpt>
      <trkpt lat="43.94073" lon="7.10774">
        <ele>464.1</ele>
        <time>2012-11-24T10:56:48Z</time>
      </trkpt>
      <trkpt lat="43.94075" lon="7.10765">
        <ele>464.3</ele>
        <time>2012-11-24T10:56:50Z</time>
      </trkpt>
      <trkpt lat="43.94077" lon="7.10755">
        <ele>464.7</ele>
        <time>2012-11-24T10:56:52Z</time>
      </trkpt>
      <trkpt lat="43.94079" lon="7.10746">
        <ele>465.4</ele>
        <time>2012-11-24T10:56:54Z</time>
      </trkpt>
      <trkpt lat="43.94084" lon="7.10738">
        <ele>465.4</ele>
        <time>2012-11-24T10:56:56Z</time>
      </trkpt>
      <trkpt lat="43.9409" lon="7.10732">
        <ele>465.5</ele>
        <time>2012-11-24T10:56:59Z</time>
      </trkpt>
      <trkpt lat="43.94096" lon="7.10729">
        <ele>464.8</ele>
        <time>2012-11-24T10:57:07Z</time>
      </trkpt>
      <trkpt lat="43.94102" lon="7.10728">
        <ele>464.9</ele>
        <time>2012-11-24T10:57:09Z</time>
      </trkpt>
      <trkpt lat="43.9411" lon="7.10727">
        <ele>464.9</ele>
        <time>2012-11-24T10:57:11Z</time>
      </trkpt>
      <trkpt lat="43.94118" lon="7.10724">
        <ele>463.9</ele>
        <time>2012-11-24T10:57:13Z</time>
      </trkpt>
      <trkpt lat="43.94122" lon="7.10721">
        <ele>463.5</ele>
        <time>2012-11-24T10:57:14Z</time>
      </trkpt>
      <trkpt lat="43.94126" lon="7.10718">
        <ele>463.5</ele>
        <time>2012-11-24T10:57:15Z</time>
      </trkpt>
      <trkpt lat="43.94133" lon="7.10712">
        <ele>463.4</ele>
        <time>2012-11-24T10:57:17Z</time>
      </trkpt>
      <trkpt lat="43.94141" lon="7.1071">
        <ele>462.2</ele>
        <time>2012-11-24T10:57:27Z</time>
      </trkpt>
      <trkpt lat="43.94137" lon="7.10701">
        <ele>461.2</ele>
        <time>2012-11-24T10:57:35Z</time>
      </trkpt>
      <trkpt lat="43.94134" lon="7.10692">
        <ele>459.3</ele>
        <time>2012-11-24T10:57:38Z</time>
      </trkpt>
      <trkpt lat="43.94135" lon="7.10686">
        <ele>458.6</ele>
        <time>2012-11-24T10:57:39Z</time>
      </trkpt>
      <trkpt lat="43.94137" lon="7.10674">
        <ele>456.4</ele>
        <time>2012-11-24T10:57:41Z</time>
      </trkpt>
      <trkpt lat="43.94137" lon="7.10662">
        <ele>453.6</ele>
        <time>2012-11-24T10:57:43Z</time>
      </trkpt>
      <trkpt lat="43.94133" lon="7.10653">
        <ele>450.8</ele>
        <time>2012-11-24T10:57:46Z</time>
      </trkpt>
      <trkpt lat="43.94128" lon="7.10644">
        <ele>449.4</ele>
        <time>2012-11-24T10:57:49Z</time>
      </trkpt>
      <trkpt lat="43.94124" lon="7.10635">
        <ele>447.7</ele>
        <time>2012-11-24T10:57:52Z</time>
      </trkpt>
      <trkpt lat="43.94119" lon="7.10625">
        <ele>446.2</ele>
        <time>2012-11-24T10:57:55Z</time>
      </trkpt>
      <trkpt lat="43.94113" lon="7.10619">
        <ele>445.4</ele>
        <time>2012-11-24T10:57:57Z</time>
      </trkpt>
      <trkpt lat="43.9411" lon="7.10611">
        <ele>444.3</ele>
        <time>2012-11-24T10:58:00Z</time>
      </trkpt>
      <trkpt lat="43.94102" lon="7.10608">
        <ele>439.9</ele>
        <time>2012-11-24T10:58:07Z</time>
      </trkpt>
      <trkpt lat="43.94094" lon="7.10602">
        <ele>437.2</ele>
        <time>2012-11-24T10:58:13Z</time>
      </trkpt>
      <trkpt lat="43.94093" lon="7.1059">
        <ele>435.7</ele>
        <time>2012-11-24T10:58:15Z</time>
      </trkpt>
      <trkpt lat="43.94093" lon="7.10579">
        <ele>435.2</ele>
        <time>2012-11-24T10:58:17Z</time>
      </trkpt>
      <trkpt lat="43.9409" lon="7.10571">
        <ele>434.3</ele>
        <time>2012-11-24T10:58:19Z</time>
      </trkpt>
      <trkpt lat="43.9409" lon="7.10561">
        <ele>432.7</ele>
        <time>2012-11-24T10:58:21Z</time>
      </trkpt>
      <trkpt lat="43.94088" lon="7.10553">
        <ele>431.2</ele>
        <time>2012-11-24T10:58:23Z</time>
      </trkpt>
      <trkpt lat="43.94093" lon="7.10544">
        <ele>430.2</ele>
        <time>2012-11-24T10:58:25Z</time>
      </trkpt>
      <trkpt lat="43.94096" lon="7.1054">
        <ele>428.9</ele>
        <time>2012-11-24T10:58:26Z</time>
      </trkpt>
      <trkpt lat="43.94101" lon="7.10534">
        <ele>428</ele>
        <time>2012-11-24T10:58:27Z</time>
      </trkpt>
      <trkpt lat="43.94104" lon="7.10528">
        <ele>426.4</ele>
        <time>2012-11-24T10:58:28Z</time>
      </trkpt>
      <trkpt lat="43.94107" lon="7.10516">
        <ele>423.1</ele>
        <time>2012-11-24T10:58:31Z</time>
      </trkpt>
      <trkpt lat="43.9411" lon="7.10505">
        <ele>419</ele>
        <time>2012-11-24T10:58:34Z</time>
      </trkpt>
      <trkpt lat="43.94107" lon="7.10496">
        <ele>417</ele>
        <time>2012-11-24T10:58:37Z</time>
      </trkpt>
      <trkpt lat="43.94112" lon="7.10489">
        <ele>411.4</ele>
        <time>2012-11-24T10:58:45Z</time>
      </trkpt>
      <trkpt lat="43.94113" lon="7.10485">
        <ele>410.5</ele>
        <time>2012-11-24T10:58:46Z</time>
      </trkpt>
      <trkpt lat="43.9411" lon="7.1047">
        <ele>407.6</ele>
        <time>2012-11-24T10:58:49Z</time>
      </trkpt>
      <trkpt lat="43.94109" lon="7.10462">
        <ele>406.7</ele>
        <time>2012-11-24T10:58:50Z</time>
      </trkpt>
      <trkpt lat="43.94107" lon="7.10456">
        <ele>406</ele>
        <time>2012-11-24T10:58:51Z</time>
      </trkpt>
      <trkpt lat="43.94104" lon="7.10451">
        <ele>404.9</ele>
        <time>2012-11-24T10:58:52Z</time>
      </trkpt>
      <trkpt lat="43.94101" lon="7.10445">
        <ele>404</ele>
        <time>2012-11-24T10:58:53Z</time>
      </trkpt>
      <trkpt lat="43.94097" lon="7.10436">
        <ele>401.7</ele>
        <time>2012-11-24T10:58:55Z</time>
      </trkpt>
      <trkpt lat="43.94091" lon="7.10428">
        <ele>400.7</ele>
        <time>2012-11-24T10:58:57Z</time>
      </trkpt>
      <trkpt lat="43.94092" lon="7.10417">
        <ele>399.6</ele>
        <time>2012-11-24T10:59:00Z</time>
      </trkpt>
      <trkpt lat="43.94095" lon="7.10407">
        <ele>396.4</ele>
        <time>2012-11-24T10:59:03Z</time>
      </trkpt>
      <trkpt lat="43.94097" lon="7.10399">
        <ele>394.2</ele>
        <time>2012-11-24T10:59:05Z</time>
      </trkpt>
      <trkpt lat="43.94101" lon="7.10389">
        <ele>388.9</ele>
        <time>2012-11-24T10:59:11Z</time>
      </trkpt>
      <trkpt lat="43.94101" lon="7.1038">
        <ele>386.8</ele>
        <time>2012-11-24T10:59:14Z</time>
      </trkpt>
      <trkpt lat="43.94095" lon="7.10372">
        <ele>386</ele>
        <time>2012-11-24T10:59:16Z</time>
      </trkpt>
      <trkpt lat="43.9409" lon="7.10369">
        <ele>385.6</ele>
        <time>2012-11-24T10:59:17Z</time>
      </trkpt>
      <trkpt lat="43.94086" lon="7.10364">
        <ele>384.5</ele>
        <time>2012-11-24T10:59:18Z</time>
      </trkpt>
      <trkpt lat="43.94081" lon="7.10361">
        <ele>383.6</ele>
        <time>2012-11-24T10:59:19Z</time>
      </trkpt>
      <trkpt lat="43.94073" lon="7.10359">
        <ele>382.3</ele>
        <time>2012-11-24T10:59:21Z</time>
      </trkpt>
      <trkpt lat="43.94068" lon="7.10359">
        <ele>381.8</ele>
        <time>2012-11-24T10:59:22Z</time>
      </trkpt>
      <trkpt lat="43.94063" lon="7.10358">
        <ele>380.5</ele>
        <time>2012-11-24T10:59:23Z</time>
      </trkpt>
      <trkpt lat="43.94058" lon="7.10356">
        <ele>379.6</ele>
        <time>2012-11-24T10:59:24Z</time>
      </trkpt>
      <trkpt lat="43.94052" lon="7.10353">
        <ele>377.3</ele>
        <time>2012-11-24T10:59:25Z</time>
      </trkpt>
      <trkpt lat="43.94044" lon="7.10348">
        <ele>374.3</ele>
        <time>2012-11-24T10:59:27Z</time>
      </trkpt>
      <trkpt lat="43.94038" lon="7.10341">
        <ele>368.8</ele>
        <time>2012-11-24T10:59:35Z</time>
      </trkpt>
      <trkpt lat="43.94034" lon="7.10329">
        <ele>368.5</ele>
        <time>2012-11-24T10:59:45Z</time>
      </trkpt>
      <trkpt lat="43.94027" lon="7.10326">
        <ele>369.8</ele>
        <time>2012-11-24T11:00:44Z</time>
      </trkpt>
      <trkpt lat="43.94026" lon="7.10327">
        <ele>369.8</ele>
        <time>2012-11-24T11:00:45Z</time>
      </trkpt>
      <trkpt lat="43.94012" lon="7.10332">
        <ele>367.9</ele>
        <time>2012-11-24T11:00:52Z</time>
      </trkpt>
      <trkpt lat="43.94004" lon="7.1033">
        <ele>367.2</ele>
        <time>2012-11-24T11:00:55Z</time>
      </trkpt>
      <trkpt lat="43.93998" lon="7.10326">
        <ele>366.8</ele>
        <time>2012-11-24T11:00:58Z</time>
      </trkpt>
      <trkpt lat="43.93993" lon="7.10317">
        <ele>367.1</ele>
        <time>2012-11-24T11:01:01Z</time>
      </trkpt>
      <trkpt lat="43.93989" lon="7.10307">
        <ele>366.4</ele>
        <time>2012-11-24T11:01:04Z</time>
      </trkpt>
      <trkpt lat="43.93986" lon="7.10297">
        <ele>364.2</ele>
        <time>2012-11-24T11:01:14Z</time>
      </trkpt>
      <trkpt lat="43.93983" lon="7.10288">
        <ele>363.5</ele>
        <time>2012-11-24T11:01:18Z</time>
      </trkpt>
      <trkpt lat="43.93977" lon="7.10279">
        <ele>362.6</ele>
        <time>2012-11-24T11:01:21Z</time>
      </trkpt>
      <trkpt lat="43.93976" lon="7.10271">
        <ele>362.6</ele>
        <time>2012-11-24T11:01:23Z</time>
      </trkpt>
      <trkpt lat="43.93975" lon="7.10262">
        <ele>361.8</ele>
        <time>2012-11-24T11:01:25Z</time>
      </trkpt>
      <trkpt lat="43.93973" lon="7.10251">
        <ele>360.9</ele>
        <time>2012-11-24T11:01:28Z</time>
      </trkpt>
      <trkpt lat="43.93971" lon="7.1024">
        <ele>359.3</ele>
        <time>2012-11-24T11:01:32Z</time>
      </trkpt>
      <trkpt lat="43.93968" lon="7.10231">
        <ele>358.5</ele>
        <time>2012-11-24T11:01:37Z</time>
      </trkpt>
      <trkpt lat="43.93964" lon="7.10221">
        <ele>358.5</ele>
        <time>2012-11-24T11:01:46Z</time>
      </trkpt>
      <trkpt lat="43.93963" lon="7.1022">
        <ele>358.6</ele>
        <time>2012-11-24T11:01:47Z</time>
      </trkpt>
      <trkpt lat="43.93952" lon="7.10207">
        <ele>357.8</ele>
        <time>2012-11-24T11:01:58Z</time>
      </trkpt>
      <trkpt lat="43.93946" lon="7.10208">
        <ele>357.6</ele>
        <time>2012-11-24T11:02:00Z</time>
      </trkpt>
      <trkpt lat="43.93939" lon="7.10206">
        <ele>357.3</ele>
        <time>2012-11-24T11:02:03Z</time>
      </trkpt>
      <trkpt lat="43.93932" lon="7.10205">
        <ele>356.3</ele>
        <time>2012-11-24T11:02:07Z</time>
      </trkpt>
      <trkpt lat="43.93925" lon="7.10202">
        <ele>355.7</ele>
        <time>2012-11-24T11:02:12Z</time>
      </trkpt>
      <trkpt lat="43.93917" lon="7.10197">
        <ele>356.7</ele>
        <time>2012-11-24T11:02:18Z</time>
      </trkpt>
      <trkpt lat="43.9391" lon="7.10194">
        <ele>357.3</ele>
        <time>2012-11-24T11:02:22Z</time>
      </trkpt>
      <trkpt lat="43.93903" lon="7.10189">
        <ele>356.2</ele>
        <time>2012-11-24T11:02:25Z</time>
      </trkpt>
      <trkpt lat="43.939" lon="7.1018">
        <ele>355.3</ele>
        <time>2012-11-24T11:02:28Z</time>
      </trkpt>
      <trkpt lat="43.93896" lon="7.10171">
        <ele>354.5</ele>
        <time>2012-11-24T11:02:31Z</time>
      </trkpt>
      <trkpt lat="43.93892" lon="7.10163">
        <ele>354</ele>
        <time>2012-11-24T11:02:33Z</time>
      </trkpt>
      <trkpt lat="43.93888" lon="7.10154">
        <ele>353.6</ele>
        <time>2012-11-24T11:02:35Z</time>
      </trkpt>
      <trkpt lat="43.93884" lon="7.10145">
        <ele>353.2</ele>
        <time>2012-11-24T11:02:37Z</time>
      </trkpt>
      <trkpt lat="43.9388" lon="7.10137">
        <ele>352.7</ele>
        <time>2012-11-24T11:02:39Z</time>
      </trkpt>
      <trkpt lat="43.93876" lon="7.10131">
        <ele>352</ele>
        <time>2012-11-24T11:02:41Z</time>
      </trkpt>
      <trkpt lat="43.9387" lon="7.10125">
        <ele>352</ele>
        <time>2012-11-24T11:02:43Z</time>
      </trkpt>
      <trkpt lat="43.93863" lon="7.10119">
        <ele>351.6</ele>
        <time>2012-11-24T11:02:46Z</time>
      </trkpt>
      <trkpt lat="43.93855" lon="7.1012">
        <ele>350.9</ele>
        <time>2012-11-24T11:02:51Z</time>
      </trkpt>
      <trkpt lat="43.93854" lon="7.10122">
        <ele>350.3</ele>
        <time>2012-11-24T11:02:52Z</time>
      </trkpt>
      <trkpt lat="43.93839" lon="7.10125">
        <ele>345.6</ele>
        <time>2012-11-24T11:03:01Z</time>
      </trkpt>
      <trkpt lat="43.93832" lon="7.10119">
        <ele>343.8</ele>
        <time>2012-11-24T11:03:05Z</time>
      </trkpt>
      <trkpt lat="43.93825" lon="7.10112">
        <ele>344.6</ele>
        <time>2012-11-24T11:03:10Z</time>
      </trkpt>
      <trkpt lat="43.93821" lon="7.10102">
        <ele>346.7</ele>
        <time>2012-11-24T11:03:16Z</time>
      </trkpt>
      <trkpt lat="43.93816" lon="7.10093">
        <ele>349.2</ele>
        <time>2012-11-24T11:03:26Z</time>
      </trkpt>
      <trkpt lat="43.9381" lon="7.10085">
        <ele>352.1</ele>
        <time>2012-11-24T11:03:35Z</time>
      </trkpt>
      <trkpt lat="43.93808" lon="7.10074">
        <ele>352.9</ele>
        <time>2012-11-24T11:03:44Z</time>
      </trkpt>
      <trkpt lat="43.93809" lon="7.10063">
        <ele>352.9</ele>
        <time>2012-11-24T11:03:48Z</time>
      </trkpt>
      <trkpt lat="43.93811" lon="7.10053">
        <ele>353.3</ele>
        <time>2012-11-24T11:03:51Z</time>
      </trkpt>
      <trkpt lat="43.93812" lon="7.10042">
        <ele>354</ele>
        <time>2012-11-24T11:03:54Z</time>
      </trkpt>
      <trkpt lat="43.93812" lon="7.10038">
        <ele>354.1</ele>
        <time>2012-11-24T11:03:55Z</time>
      </trkpt>
      <trkpt lat="43.93816" lon="7.1002">
        <ele>353.8</ele>
        <time>2012-11-24T11:04:00Z</time>
      </trkpt>
      <trkpt lat="43.93816" lon="7.10009">
        <ele>352.6</ele>
        <time>2012-11-24T11:04:02Z</time>
      </trkpt>
      <trkpt lat="43.93813" lon="7.09999">
        <ele>352.9</ele>
        <time>2012-11-24T11:04:04Z</time>
      </trkpt>
      <trkpt lat="43.9381" lon="7.09991">
        <ele>352.3</ele>
        <time>2012-11-24T11:04:06Z</time>
      </trkpt>
      <trkpt lat="43.9381" lon="7.09979">
        <ele>352</ele>
        <time>2012-11-24T11:04:10Z</time>
      </trkpt>
      <trkpt lat="43.93808" lon="7.09967">
        <ele>352.9</ele>
        <time>2012-11-24T11:04:17Z</time>
      </trkpt>
      <trkpt lat="43.93803" lon="7.09958">
        <ele>355.1</ele>
        <time>2012-11-24T11:04:42Z</time>
      </trkpt>
      <trkpt lat="43.93794" lon="7.09957">
        <ele>358.1</ele>
        <time>2012-11-24T11:04:54Z</time>
      </trkpt>
      <trkpt lat="43.93786" lon="7.09954">
        <ele>362.6</ele>
        <time>2012-11-24T11:05:16Z</time>
      </trkpt>
      <trkpt lat="43.93785" lon="7.09954">
        <ele>363</ele>
        <time>2012-11-24T11:05:17Z</time>
      </trkpt>
      <trkpt lat="43.93769" lon="7.09949">
        <ele>366.7</ele>
        <time>2012-11-24T11:05:35Z</time>
      </trkpt>
      <trkpt lat="43.93761" lon="7.09943">
        <ele>370</ele>
        <time>2012-11-24T11:05:46Z</time>
      </trkpt>
      <trkpt lat="43.93754" lon="7.09936">
        <ele>372.4</ele>
        <time>2012-11-24T11:05:57Z</time>
      </trkpt>
      <trkpt lat="43.93747" lon="7.09931">
        <ele>374.9</ele>
        <time>2012-11-24T11:06:11Z</time>
      </trkpt>
      <trkpt lat="43.93738" lon="7.09929">
        <ele>377.1</ele>
        <time>2012-11-24T11:06:20Z</time>
      </trkpt>
      <trkpt lat="43.93737" lon="7.09929">
        <ele>377.1</ele>
        <time>2012-11-24T11:06:21Z</time>
      </trkpt>
      <trkpt lat="43.93721" lon="7.09932">
        <ele>379.4</ele>
        <time>2012-11-24T11:06:37Z</time>
      </trkpt>
      <trkpt lat="43.93713" lon="7.09929">
        <ele>382.7</ele>
        <time>2012-11-24T11:06:48Z</time>
      </trkpt>
      <trkpt lat="43.93704" lon="7.09926">
        <ele>385.5</ele>
        <time>2012-11-24T11:07:00Z</time>
      </trkpt>
      <trkpt lat="43.93697" lon="7.09919">
        <ele>389.3</ele>
        <time>2012-11-24T11:07:17Z</time>
      </trkpt>
      <trkpt lat="43.93688" lon="7.09917">
        <ele>391.4</ele>
        <time>2012-11-24T11:07:29Z</time>
      </trkpt>
      <trkpt lat="43.93687" lon="7.09917">
        <ele>391.7</ele>
        <time>2012-11-24T11:07:30Z</time>
      </trkpt>
      <trkpt lat="43.93672" lon="7.09914">
        <ele>394.6</ele>
        <time>2012-11-24T11:07:48Z</time>
      </trkpt>
      <trkpt lat="43.93663" lon="7.09916">
        <ele>396.1</ele>
        <time>2012-11-24T11:07:59Z</time>
      </trkpt>
      <trkpt lat="43.93655" lon="7.09915">
        <ele>398.9</ele>
        <time>2012-11-24T11:08:16Z</time>
      </trkpt>
      <trkpt lat="43.93653" lon="7.09903">
        <ele>401.7</ele>
        <time>2012-11-24T11:08:27Z</time>
      </trkpt>
      <trkpt lat="43.93657" lon="7.09893">
        <ele>402.9</ele>
        <time>2012-11-24T11:08:34Z</time>
      </trkpt>
      <trkpt lat="43.93658" lon="7.09892">
        <ele>403</ele>
        <time>2012-11-24T11:08:35Z</time>
      </trkpt>
      <trkpt lat="43.93665" lon="7.09873">
        <ele>407</ele>
        <time>2012-11-24T11:08:50Z</time>
      </trkpt>
      <trkpt lat="43.93668" lon="7.09863">
        <ele>408.5</ele>
        <time>2012-11-24T11:08:58Z</time>
      </trkpt>
      <trkpt lat="43.93672" lon="7.09853">
        <ele>410.3</ele>
        <time>2012-11-24T11:09:08Z</time>
      </trkpt>
      <trkpt lat="43.93676" lon="7.09842">
        <ele>411.7</ele>
        <time>2012-11-24T11:09:17Z</time>
      </trkpt>
      <trkpt lat="43.93679" lon="7.09831">
        <ele>413.5</ele>
        <time>2012-11-24T11:09:28Z</time>
      </trkpt>
      <trkpt lat="43.93685" lon="7.09823">
        <ele>416.4</ele>
        <time>2012-11-24T11:09:42Z</time>
      </trkpt>
      <trkpt lat="43.93686" lon="7.09822">
        <ele>416.7</ele>
        <time>2012-11-24T11:09:43Z</time>
      </trkpt>
      <trkpt lat="43.93693" lon="7.09818">
        <ele>425.2</ele>
        <time>2012-11-24T11:10:26Z</time>
      </trkpt>
      <trkpt lat="43.93686" lon="7.0981">
        <ele>425.7</ele>
        <time>2012-11-24T11:10:35Z</time>
      </trkpt>
      <trkpt lat="43.93681" lon="7.09802">
        <ele>426.5</ele>
        <time>2012-11-24T11:10:42Z</time>
      </trkpt>
      <trkpt lat="43.93677" lon="7.09792">
        <ele>427.2</ele>
        <time>2012-11-24T11:10:47Z</time>
      </trkpt>
      <trkpt lat="43.93677" lon="7.0979">
        <ele>427.4</ele>
        <time>2012-11-24T11:10:48Z</time>
      </trkpt>
      <trkpt lat="43.93671" lon="7.09773">
        <ele>428.5</ele>
        <time>2012-11-24T11:10:56Z</time>
      </trkpt>
      <trkpt lat="43.93666" lon="7.09762">
        <ele>429.7</ele>
        <time>2012-11-24T11:11:29Z</time>
      </trkpt>
      <trkpt lat="43.9367" lon="7.09751">
        <ele>429.7</ele>
        <time>2012-11-24T11:13:11Z</time>
      </trkpt>
      <trkpt lat="43.93671" lon="7.0975">
        <ele>429.6</ele>
        <time>2012-11-24T11:13:12Z</time>
      </trkpt>
      <trkpt lat="43.93657" lon="7.09765">
        <ele>430.9</ele>
        <time>2012-11-24T11:15:33Z</time>
      </trkpt>
      <trkpt lat="43.93656" lon="7.09766">
        <ele>430.5</ele>
        <time>2012-11-24T11:15:34Z</time>
      </trkpt>
      <trkpt lat="43.93658" lon="7.09745">
        <ele>429.2</ele>
        <time>2012-11-24T11:16:03Z</time>
      </trkpt>
      <trkpt lat="43.93663" lon="7.09735">
        <ele>428.8</ele>
        <time>2012-11-24T11:16:05Z</time>
      </trkpt>
      <trkpt lat="43.93668" lon="7.09725">
        <ele>429.1</ele>
        <time>2012-11-24T11:16:07Z</time>
      </trkpt>
      <trkpt lat="43.93672" lon="7.09715">
        <ele>429.3</ele>
        <time>2012-11-24T11:16:09Z</time>
      </trkpt>
      <trkpt lat="43.93678" lon="7.09705">
        <ele>429.2</ele>
        <time>2012-11-24T11:16:11Z</time>
      </trkpt>
      <trkpt lat="43.93681" lon="7.097">
        <ele>429.7</ele>
        <time>2012-11-24T11:16:12Z</time>
      </trkpt>
      <trkpt lat="43.93683" lon="7.09694">
        <ele>430</ele>
        <time>2012-11-24T11:16:13Z</time>
      </trkpt>
      <trkpt lat="43.93685" lon="7.09689">
        <ele>430.2</ele>
        <time>2012-11-24T11:16:14Z</time>
      </trkpt>
      <trkpt lat="43.93688" lon="7.09683">
        <ele>430.4</ele>
        <time>2012-11-24T11:16:15Z</time>
      </trkpt>
      <trkpt lat="43.93691" lon="7.09678">
        <ele>430.5</ele>
        <time>2012-11-24T11:16:16Z</time>
      </trkpt>
      <trkpt lat="43.93694" lon="7.09673">
        <ele>430.6</ele>
        <time>2012-11-24T11:16:17Z</time>
      </trkpt>
      <trkpt lat="43.93696" lon="7.09668">
        <ele>430.7</ele>
        <time>2012-11-24T11:16:18Z</time>
      </trkpt>
      <trkpt lat="43.93699" lon="7.09662">
        <ele>430.7</ele>
        <time>2012-11-24T11:16:19Z</time>
      </trkpt>
      <trkpt lat="43.93702" lon="7.09657">
        <ele>430.7</ele>
        <time>2012-11-24T11:16:20Z</time>
      </trkpt>
      <trkpt lat="43.93705" lon="7.09652">
        <ele>430.6</ele>
        <time>2012-11-24T11:16:21Z</time>
      </trkpt>
      <trkpt lat="43.93708" lon="7.09647">
        <ele>430.5</ele>
        <time>2012-11-24T11:16:22Z</time>
      </trkpt>
      <trkpt lat="43.93711" lon="7.09642">
        <ele>430.5</ele>
        <time>2012-11-24T11:16:23Z</time>
      </trkpt>
      <trkpt lat="43.93714" lon="7.09637">
        <ele>430.4</ele>
        <time>2012-11-24T11:16:24Z</time>
      </trkpt>
      <trkpt lat="43.93718" lon="7.09632">
        <ele>430.4</ele>
        <time>2012-11-24T11:16:25Z</time>
      </trkpt>
      <trkpt lat="43.93721" lon="7.09627">
        <ele>430.5</ele>
        <time>2012-11-24T11:16:26Z</time>
      </trkpt>
      <trkpt lat="43.93724" lon="7.09622">
        <ele>430.5</ele>
        <time>2012-11-24T11:16:27Z</time>
      </trkpt>
      <trkpt lat="43.93727" lon="7.09617">
        <ele>430.7</ele>
        <time>2012-11-24T11:16:28Z</time>
      </trkpt>
      <trkpt lat="43.93729" lon="7.09612">
        <ele>430.8</ele>
        <time>2012-11-24T11:16:29Z</time>
      </trkpt>
      <trkpt lat="43.93732" lon="7.09607">
        <ele>430.9</ele>
        <time>2012-11-24T11:16:30Z</time>
      </trkpt>
      <trkpt lat="43.93734" lon="7.09601">
        <ele>431.2</ele>
        <time>2012-11-24T11:16:31Z</time>
      </trkpt>
      <trkpt lat="43.93739" lon="7.0959">
        <ele>431.5</ele>
        <time>2012-11-24T11:16:33Z</time>
      </trkpt>
      <trkpt lat="43.93741" lon="7.09585">
        <ele>431.6</ele>
        <time>2012-11-24T11:16:34Z</time>
      </trkpt>
      <trkpt lat="43.93742" lon="7.09579">
        <ele>431.6</ele>
        <time>2012-11-24T11:16:35Z</time>
      </trkpt>
      <trkpt lat="43.93746" lon="7.09567">
        <ele>431.7</ele>
        <time>2012-11-24T11:16:37Z</time>
      </trkpt>
      <trkpt lat="43.9375" lon="7.09556">
        <ele>432.4</ele>
        <time>2012-11-24T11:16:39Z</time>
      </trkpt>
      <trkpt lat="43.93754" lon="7.09546">
        <ele>433.1</ele>
        <time>2012-11-24T11:16:41Z</time>
      </trkpt>
      <trkpt lat="43.93756" lon="7.09536">
        <ele>433.1</ele>
        <time>2012-11-24T11:16:43Z</time>
      </trkpt>
      <trkpt lat="43.93759" lon="7.09526">
        <ele>433.1</ele>
        <time>2012-11-24T11:16:46Z</time>
      </trkpt>
      <trkpt lat="43.93762" lon="7.09514">
        <ele>433.7</ele>
        <time>2012-11-24T11:17:00Z</time>
      </trkpt>
      <trkpt lat="43.93766" lon="7.09503">
        <ele>434.4</ele>
        <time>2012-11-24T11:17:04Z</time>
      </trkpt>
      <trkpt lat="43.93769" lon="7.09494">
        <ele>435.4</ele>
        <time>2012-11-24T11:17:07Z</time>
      </trkpt>
      <trkpt lat="43.93774" lon="7.09486">
        <ele>435.6</ele>
        <time>2012-11-24T11:17:11Z</time>
      </trkpt>
      <trkpt lat="43.93782" lon="7.09487">
        <ele>437.3</ele>
        <time>2012-11-24T11:17:53Z</time>
      </trkpt>
      <trkpt lat="43.93783" lon="7.09487">
        <ele>437</ele>
        <time>2012-11-24T11:17:54Z</time>
      </trkpt>
      <trkpt lat="43.93774" lon="7.09493">
        <ele>438.1</ele>
        <time>2012-11-24T11:20:49Z</time>
      </trkpt>
      <trkpt lat="43.93778" lon="7.09505">
        <ele>439.7</ele>
        <time>2012-11-24T11:23:44Z</time>
      </trkpt>
      <trkpt lat="43.93776" lon="7.09528">
        <ele>441.1</ele>
        <time>2012-11-24T11:23:54Z</time>
      </trkpt>
      <trkpt lat="43.93779" lon="7.09539">
        <ele>442.1</ele>
        <time>2012-11-24T11:23:59Z</time>
      </trkpt>
      <trkpt lat="43.93781" lon="7.0955">
        <ele>443.5</ele>
        <time>2012-11-24T11:24:04Z</time>
      </trkpt>
      <trkpt lat="43.93783" lon="7.09561">
        <ele>444.5</ele>
        <time>2012-11-24T11:24:09Z</time>
      </trkpt>
      <trkpt lat="43.93787" lon="7.09571">
        <ele>444.9</ele>
        <time>2012-11-24T11:24:14Z</time>
      </trkpt>
      <trkpt lat="43.93791" lon="7.09581">
        <ele>446.1</ele>
        <time>2012-11-24T11:24:19Z</time>
      </trkpt>
      <trkpt lat="43.93796" lon="7.09592">
        <ele>447.4</ele>
        <time>2012-11-24T11:24:24Z</time>
      </trkpt>
      <trkpt lat="43.93798" lon="7.09602">
        <ele>448.3</ele>
        <time>2012-11-24T11:24:29Z</time>
      </trkpt>
      <trkpt lat="43.93802" lon="7.09612">
        <ele>448.9</ele>
        <time>2012-11-24T11:24:34Z</time>
      </trkpt>
      <trkpt lat="43.93805" lon="7.09621">
        <ele>449.9</ele>
        <time>2012-11-24T11:24:38Z</time>
      </trkpt>
      <trkpt lat="43.93808" lon="7.09631">
        <ele>450.2</ele>
        <time>2012-11-24T11:24:42Z</time>
      </trkpt>
      <trkpt lat="43.93809" lon="7.09641">
        <ele>451.1</ele>
        <time>2012-11-24T11:24:46Z</time>
      </trkpt>
      <trkpt lat="43.93809" lon="7.09644">
        <ele>451.7</ele>
        <time>2012-11-24T11:24:47Z</time>
      </trkpt>
      <trkpt lat="43.93811" lon="7.09663">
        <ele>453.6</ele>
        <time>2012-11-24T11:24:55Z</time>
      </trkpt>
      <trkpt lat="43.93811" lon="7.09673">
        <ele>454.6</ele>
        <time>2012-11-24T11:25:00Z</time>
      </trkpt>
      <trkpt lat="43.93809" lon="7.09685">
        <ele>455.8</ele>
        <time>2012-11-24T11:25:06Z</time>
      </trkpt>
      <trkpt lat="43.93816" lon="7.09692">
        <ele>458.3</ele>
        <time>2012-11-24T11:25:46Z</time>
      </trkpt>
      <trkpt lat="43.93817" lon="7.09704">
        <ele>460.3</ele>
        <time>2012-11-24T11:26:00Z</time>
      </trkpt>
      <trkpt lat="43.93816" lon="7.09705">
        <ele>460.4</ele>
        <time>2012-11-24T11:26:01Z</time>
      </trkpt>
      <trkpt lat="43.93815" lon="7.09726">
        <ele>459.2</ele>
        <time>2012-11-24T11:27:53Z</time>
      </trkpt>
      <trkpt lat="43.93815" lon="7.09727">
        <ele>459.4</ele>
        <time>2012-11-24T11:27:54Z</time>
      </trkpt>
      <trkpt lat="43.93816" lon="7.09727">
        <ele>459.6</ele>
        <time>2012-11-24T11:29:38Z</time>
      </trkpt>
      <trkpt lat="43.93816" lon="7.09727">
        <ele>459.4</ele>
        <time>2012-11-24T11:29:39Z</time>
      </trkpt>
      <trkpt lat="43.93833" lon="7.09728">
        <ele>464.6</ele>
        <time>2012-11-24T11:30:08Z</time>
      </trkpt>
      <trkpt lat="43.93838" lon="7.09737">
        <ele>467.9</ele>
        <time>2012-11-24T11:30:24Z</time>
      </trkpt>
      <trkpt lat="43.93846" lon="7.09735">
        <ele>469.3</ele>
        <time>2012-11-24T11:30:38Z</time>
      </trkpt>
      <trkpt lat="43.93854" lon="7.0973">
        <ele>471.6</ele>
        <time>2012-11-24T11:30:45Z</time>
      </trkpt>
      <trkpt lat="43.93856" lon="7.09729">
        <ele>471.8</ele>
        <time>2012-11-24T11:30:46Z</time>
      </trkpt>
      <trkpt lat="43.9387" lon="7.09722">
        <ele>473.6</ele>
        <time>2012-11-24T11:30:57Z</time>
      </trkpt>
      <trkpt lat="43.93876" lon="7.09716">
        <ele>474.7</ele>
        <time>2012-11-24T11:31:02Z</time>
      </trkpt>
      <trkpt lat="43.93881" lon="7.09708">
        <ele>474.8</ele>
        <time>2012-11-24T11:31:07Z</time>
      </trkpt>
      <trkpt lat="43.93885" lon="7.09699">
        <ele>475.6</ele>
        <time>2012-11-24T11:31:12Z</time>
      </trkpt>
      <trkpt lat="43.93889" lon="7.09688">
        <ele>477.5</ele>
        <time>2012-11-24T11:31:18Z</time>
      </trkpt>
      <trkpt lat="43.93892" lon="7.09676">
        <ele>480.4</ele>
        <time>2012-11-24T11:31:26Z</time>
      </trkpt>
      <trkpt lat="43.9389" lon="7.09664">
        <ele>482.3</ele>
        <time>2012-11-24T11:31:33Z</time>
      </trkpt>
      <trkpt lat="43.93888" lon="7.09652">
        <ele>484.4</ele>
        <time>2012-11-24T11:31:40Z</time>
      </trkpt>
      <trkpt lat="43.93889" lon="7.09641">
        <ele>486.3</ele>
        <time>2012-11-24T11:31:47Z</time>
      </trkpt>
      <trkpt lat="43.93889" lon="7.09639">
        <ele>486.5</ele>
        <time>2012-11-24T11:31:48Z</time>
      </trkpt>
      <trkpt lat="43.93888" lon="7.09617">
        <ele>489.6</ele>
        <time>2012-11-24T11:32:02Z</time>
      </trkpt>
      <trkpt lat="43.9389" lon="7.09607">
        <ele>491.8</ele>
        <time>2012-11-24T11:32:09Z</time>
      </trkpt>
      <trkpt lat="43.93891" lon="7.09595">
        <ele>493.9</ele>
        <time>2012-11-24T11:32:19Z</time>
      </trkpt>
      <trkpt lat="43.93892" lon="7.09583">
        <ele>496.3</ele>
        <time>2012-11-24T11:32:29Z</time>
      </trkpt>
      <trkpt lat="43.93894" lon="7.09571">
        <ele>499</ele>
        <time>2012-11-24T11:32:40Z</time>
      </trkpt>
      <trkpt lat="43.93896" lon="7.0956">
        <ele>501.3</ele>
        <time>2012-11-24T11:32:51Z</time>
      </trkpt>
      <trkpt lat="43.93896" lon="7.09558">
        <ele>501.4</ele>
        <time>2012-11-24T11:32:52Z</time>
      </trkpt>
      <trkpt lat="43.93902" lon="7.09538">
        <ele>506.6</ele>
        <time>2012-11-24T11:33:13Z</time>
      </trkpt>
      <trkpt lat="43.93907" lon="7.09528">
        <ele>508.6</ele>
        <time>2012-11-24T11:33:23Z</time>
      </trkpt>
      <trkpt lat="43.93909" lon="7.09517">
        <ele>511</ele>
        <time>2012-11-24T11:33:32Z</time>
      </trkpt>
      <trkpt lat="43.93912" lon="7.09505">
        <ele>511.8</ele>
        <time>2012-11-24T11:33:42Z</time>
      </trkpt>
      <trkpt lat="43.93914" lon="7.09494">
        <ele>514.3</ele>
        <time>2012-11-24T11:33:51Z</time>
      </trkpt>
      <trkpt lat="43.93917" lon="7.09484">
        <ele>514.5</ele>
        <time>2012-11-24T11:33:56Z</time>
      </trkpt>
      <trkpt lat="43.93918" lon="7.09483">
        <ele>514.4</ele>
        <time>2012-11-24T11:33:57Z</time>
      </trkpt>
      <trkpt lat="43.93927" lon="7.09465">
        <ele>516.4</ele>
        <time>2012-11-24T11:34:07Z</time>
      </trkpt>
      <trkpt lat="43.93932" lon="7.09456">
        <ele>518</ele>
        <time>2012-11-24T11:34:13Z</time>
      </trkpt>
      <trkpt lat="43.93937" lon="7.09446">
        <ele>519.7</ele>
        <time>2012-11-24T11:34:20Z</time>
      </trkpt>
      <trkpt lat="43.93941" lon="7.09436">
        <ele>520.8</ele>
        <time>2012-11-24T11:34:27Z</time>
      </trkpt>
      <trkpt lat="43.93947" lon="7.09427">
        <ele>523.5</ele>
        <time>2012-11-24T11:34:35Z</time>
      </trkpt>
      <trkpt lat="43.93952" lon="7.09417">
        <ele>525.7</ele>
        <time>2012-11-24T11:34:42Z</time>
      </trkpt>
      <trkpt lat="43.93956" lon="7.09406">
        <ele>526.7</ele>
        <time>2012-11-24T11:34:49Z</time>
      </trkpt>
      <trkpt lat="43.93962" lon="7.09397">
        <ele>527.9</ele>
        <time>2012-11-24T11:34:56Z</time>
      </trkpt>
      <trkpt lat="43.93968" lon="7.09388">
        <ele>529.5</ele>
        <time>2012-11-24T11:35:03Z</time>
      </trkpt>
      <trkpt lat="43.93968" lon="7.09387">
        <ele>530.1</ele>
        <time>2012-11-24T11:35:04Z</time>
      </trkpt>
      <trkpt lat="43.93978" lon="7.0937">
        <ele>532.9</ele>
        <time>2012-11-24T11:35:16Z</time>
      </trkpt>
      <trkpt lat="43.93984" lon="7.09362">
        <ele>535.5</ele>
        <time>2012-11-24T11:35:24Z</time>
      </trkpt>
      <trkpt lat="43.9399" lon="7.09355">
        <ele>537.3</ele>
        <time>2012-11-24T11:35:31Z</time>
      </trkpt>
      <trkpt lat="43.93997" lon="7.09348">
        <ele>539.1</ele>
        <time>2012-11-24T11:35:38Z</time>
      </trkpt>
      <trkpt lat="43.94003" lon="7.0934">
        <ele>540.2</ele>
        <time>2012-11-24T11:35:45Z</time>
      </trkpt>
      <trkpt lat="43.94009" lon="7.09333">
        <ele>543</ele>
        <time>2012-11-24T11:35:52Z</time>
      </trkpt>
      <trkpt lat="43.94015" lon="7.09325">
        <ele>544.6</ele>
        <time>2012-11-24T11:35:59Z</time>
      </trkpt>
      <trkpt lat="43.94022" lon="7.09318">
        <ele>545.7</ele>
        <time>2012-11-24T11:36:06Z</time>
      </trkpt>
      <trkpt lat="43.94023" lon="7.09317">
        <ele>545.9</ele>
        <time>2012-11-24T11:36:07Z</time>
      </trkpt>
      <trkpt lat="43.94036" lon="7.09304">
        <ele>550.2</ele>
        <time>2012-11-24T11:36:27Z</time>
      </trkpt>
      <trkpt lat="43.94044" lon="7.09297">
        <ele>552.4</ele>
        <time>2012-11-24T11:36:38Z</time>
      </trkpt>
      <trkpt lat="43.94051" lon="7.09291">
        <ele>554.5</ele>
        <time>2012-11-24T11:36:48Z</time>
      </trkpt>
      <trkpt lat="43.94058" lon="7.09284">
        <ele>556.9</ele>
        <time>2012-11-24T11:36:58Z</time>
      </trkpt>
      <trkpt lat="43.94066" lon="7.09278">
        <ele>558.2</ele>
        <time>2012-11-24T11:37:07Z</time>
      </trkpt>
      <trkpt lat="43.94066" lon="7.09277">
        <ele>558.3</ele>
        <time>2012-11-24T11:37:08Z</time>
      </trkpt>
      <trkpt lat="43.94081" lon="7.09267">
        <ele>562</ele>
        <time>2012-11-24T11:37:26Z</time>
      </trkpt>
      <trkpt lat="43.94088" lon="7.09262">
        <ele>564.5</ele>
        <time>2012-11-24T11:37:35Z</time>
      </trkpt>
      <trkpt lat="43.94095" lon="7.09256">
        <ele>566</ele>
        <time>2012-11-24T11:37:43Z</time>
      </trkpt>
      <trkpt lat="43.94103" lon="7.09251">
        <ele>567.2</ele>
        <time>2012-11-24T11:37:52Z</time>
      </trkpt>
      <trkpt lat="43.94111" lon="7.09245">
        <ele>568.8</ele>
        <time>2012-11-24T11:38:01Z</time>
      </trkpt>
      <trkpt lat="43.94119" lon="7.0924">
        <ele>570.9</ele>
        <time>2012-11-24T11:38:11Z</time>
      </trkpt>
      <trkpt lat="43.9412" lon="7.0924">
        <ele>571.1</ele>
        <time>2012-11-24T11:38:12Z</time>
      </trkpt>
      <trkpt lat="43.94125" lon="7.09235">
        <ele>573</ele>
        <time>2012-11-24T11:51:30Z</time>
      </trkpt>
      <trkpt lat="43.94126" lon="7.09234">
        <ele>573.1</ele>
        <time>2012-11-24T11:51:31Z</time>
      </trkpt>
      <trkpt lat="43.94139" lon="7.09219">
        <ele>577.5</ele>
        <time>2012-11-24T11:51:52Z</time>
      </trkpt>
      <trkpt lat="43.94146" lon="7.09213">
        <ele>579.9</ele>
        <time>2012-11-24T11:52:03Z</time>
      </trkpt>
      <trkpt lat="43.94154" lon="7.09209">
        <ele>580.9</ele>
        <time>2012-11-24T11:52:15Z</time>
      </trkpt>
      <trkpt lat="43.94162" lon="7.09205">
        <ele>582.9</ele>
        <time>2012-11-24T11:52:27Z</time>
      </trkpt>
      <trkpt lat="43.9417" lon="7.09201">
        <ele>585.4</ele>
        <time>2012-11-24T11:52:38Z</time>
      </trkpt>
      <trkpt lat="43.94171" lon="7.09201">
        <ele>585.7</ele>
        <time>2012-11-24T11:52:39Z</time>
      </trkpt>
      <trkpt lat="43.94186" lon="7.09192">
        <ele>588.5</ele>
        <time>2012-11-24T11:52:57Z</time>
      </trkpt>
      <trkpt lat="43.94194" lon="7.09189">
        <ele>590.1</ele>
        <time>2012-11-24T11:53:06Z</time>
      </trkpt>
      <trkpt lat="43.94201" lon="7.09181">
        <ele>592.4</ele>
        <time>2012-11-24T11:53:24Z</time>
      </trkpt>
      <trkpt lat="43.94205" lon="7.0917">
        <ele>593.6</ele>
        <time>2012-11-24T11:53:34Z</time>
      </trkpt>
      <trkpt lat="43.94206" lon="7.09158">
        <ele>595.7</ele>
        <time>2012-11-24T11:53:44Z</time>
      </trkpt>
      <trkpt lat="43.94206" lon="7.09157">
        <ele>595.9</ele>
        <time>2012-11-24T11:53:45Z</time>
      </trkpt>
      <trkpt lat="43.94207" lon="7.09134">
        <ele>598.5</ele>
        <time>2012-11-24T11:54:02Z</time>
      </trkpt>
      <trkpt lat="43.94208" lon="7.09122">
        <ele>600.3</ele>
        <time>2012-11-24T11:54:12Z</time>
      </trkpt>
      <trkpt lat="43.94211" lon="7.09111">
        <ele>601.4</ele>
        <time>2012-11-24T11:54:22Z</time>
      </trkpt>
      <trkpt lat="43.94216" lon="7.091">
        <ele>603</ele>
        <time>2012-11-24T11:54:32Z</time>
      </trkpt>
      <trkpt lat="43.9422" lon="7.0909">
        <ele>604.7</ele>
        <time>2012-11-24T11:54:41Z</time>
      </trkpt>
      <trkpt lat="43.94224" lon="7.0908">
        <ele>607.1</ele>
        <time>2012-11-24T11:54:51Z</time>
      </trkpt>
      <trkpt lat="43.94225" lon="7.09079">
        <ele>607.2</ele>
        <time>2012-11-24T11:54:52Z</time>
      </trkpt>
      <trkpt lat="43.94234" lon="7.0906">
        <ele>610.6</ele>
        <time>2012-11-24T11:55:12Z</time>
      </trkpt>
      <trkpt lat="43.94238" lon="7.0905">
        <ele>613.3</ele>
        <time>2012-11-24T11:55:26Z</time>
      </trkpt>
      <trkpt lat="43.94245" lon="7.09046">
        <ele>614.5</ele>
        <time>2012-11-24T11:55:36Z</time>
      </trkpt>
      <trkpt lat="43.94252" lon="7.09037">
        <ele>616.9</ele>
        <time>2012-11-24T11:55:49Z</time>
      </trkpt>
      <trkpt lat="43.94257" lon="7.09028">
        <ele>619.9</ele>
        <time>2012-11-24T11:56:03Z</time>
      </trkpt>
      <trkpt lat="43.94258" lon="7.09027">
        <ele>620.1</ele>
        <time>2012-11-24T11:56:04Z</time>
      </trkpt>
      <trkpt lat="43.94266" lon="7.09009">
        <ele>624.4</ele>
        <time>2012-11-24T11:56:29Z</time>
      </trkpt>
      <trkpt lat="43.9427" lon="7.08998">
        <ele>624.7</ele>
        <time>2012-11-24T11:56:36Z</time>
      </trkpt>
      <trkpt lat="43.94276" lon="7.0899">
        <ele>627</ele>
        <time>2012-11-24T11:56:43Z</time>
      </trkpt>
      <trkpt lat="43.94283" lon="7.08982">
        <ele>628.2</ele>
        <time>2012-11-24T11:56:51Z</time>
      </trkpt>
      <trkpt lat="43.94289" lon="7.08975">
        <ele>629.5</ele>
        <time>2012-11-24T11:56:58Z</time>
      </trkpt>
      <trkpt lat="43.94297" lon="7.08968">
        <ele>630.8</ele>
        <time>2012-11-24T11:57:06Z</time>
      </trkpt>
      <trkpt lat="43.94297" lon="7.08968">
        <ele>630.8</ele>
        <time>2012-11-24T11:57:07Z</time>
      </trkpt>
      <trkpt lat="43.94311" lon="7.08957">
        <ele>634.8</ele>
        <time>2012-11-24T11:57:25Z</time>
      </trkpt>
      <trkpt lat="43.94318" lon="7.0895">
        <ele>636.7</ele>
        <time>2012-11-24T11:57:35Z</time>
      </trkpt>
      <trkpt lat="43.94324" lon="7.08943">
        <ele>638</ele>
        <time>2012-11-24T11:57:45Z</time>
      </trkpt>
      <trkpt lat="43.94331" lon="7.08937">
        <ele>639.7</ele>
        <time>2012-11-24T11:57:54Z</time>
      </trkpt>
      <trkpt lat="43.94338" lon="7.08929">
        <ele>642.4</ele>
        <time>2012-11-24T11:58:04Z</time>
      </trkpt>
      <trkpt lat="43.94345" lon="7.08921">
        <ele>644.3</ele>
        <time>2012-11-24T11:58:15Z</time>
      </trkpt>
      <trkpt lat="43.94345" lon="7.08921">
        <ele>644.8</ele>
        <time>2012-11-24T11:58:16Z</time>
      </trkpt>
      <trkpt lat="43.94357" lon="7.08905">
        <ele>648.3</ele>
        <time>2012-11-24T11:58:39Z</time>
      </trkpt>
      <trkpt lat="43.94362" lon="7.08895">
        <ele>651.2</ele>
        <time>2012-11-24T11:58:52Z</time>
      </trkpt>
      <trkpt lat="43.94367" lon="7.08886">
        <ele>652.7</ele>
        <time>2012-11-24T11:58:59Z</time>
      </trkpt>
      <trkpt lat="43.94373" lon="7.08877">
        <ele>653.5</ele>
        <time>2012-11-24T11:59:06Z</time>
      </trkpt>
      <trkpt lat="43.94378" lon="7.08869">
        <ele>656</ele>
        <time>2012-11-24T11:59:13Z</time>
      </trkpt>
      <trkpt lat="43.94385" lon="7.08861">
        <ele>658</ele>
        <time>2012-11-24T11:59:21Z</time>
      </trkpt>
      <trkpt lat="43.94385" lon="7.0886">
        <ele>658.2</ele>
        <time>2012-11-24T11:59:22Z</time>
      </trkpt>
      <trkpt lat="43.94399" lon="7.08847">
        <ele>662</ele>
        <time>2012-11-24T11:59:38Z</time>
      </trkpt>
      <trkpt lat="43.94405" lon="7.08839">
        <ele>664.1</ele>
        <time>2012-11-24T11:59:46Z</time>
      </trkpt>
      <trkpt lat="43.94412" lon="7.08833">
        <ele>665.3</ele>
        <time>2012-11-24T11:59:53Z</time>
      </trkpt>
      <trkpt lat="43.94419" lon="7.08824">
        <ele>666.3</ele>
        <time>2012-11-24T12:00:00Z</time>
      </trkpt>
      <trkpt lat="43.94425" lon="7.08817">
        <ele>668.4</ele>
        <time>2012-11-24T12:00:07Z</time>
      </trkpt>
      <trkpt lat="43.94434" lon="7.08812">
        <ele>671.2</ele>
        <time>2012-11-24T12:00:14Z</time>
      </trkpt>
      <trkpt lat="43.94442" lon="7.08811">
        <ele>673</ele>
        <time>2012-11-24T12:00:21Z</time>
      </trkpt>
      <trkpt lat="43.9445" lon="7.08808">
        <ele>674.4</ele>
        <time>2012-11-24T12:00:29Z</time>
      </trkpt>
      <trkpt lat="43.94451" lon="7.08808">
        <ele>674.5</ele>
        <time>2012-11-24T12:00:30Z</time>
      </trkpt>
      <trkpt lat="43.94466" lon="7.08805">
        <ele>676.4</ele>
        <time>2012-11-24T12:00:43Z</time>
      </trkpt>
      <trkpt lat="43.94474" lon="7.08806">
        <ele>677.5</ele>
        <time>2012-11-24T12:00:49Z</time>
      </trkpt>
      <trkpt lat="43.94481" lon="7.08802">
        <ele>677.5</ele>
        <time>2012-11-24T12:00:54Z</time>
      </trkpt>
      <trkpt lat="43.9449" lon="7.088">
        <ele>677.7</ele>
        <time>2012-11-24T12:01:00Z</time>
      </trkpt>
      <trkpt lat="43.94498" lon="7.08802">
        <ele>679</ele>
        <time>2012-11-24T12:01:06Z</time>
      </trkpt>
      <trkpt lat="43.94506" lon="7.08804">
        <ele>679.8</ele>
        <time>2012-11-24T12:01:11Z</time>
      </trkpt>
      <trkpt lat="43.94514" lon="7.08807">
        <ele>681.5</ele>
        <time>2012-11-24T12:01:17Z</time>
      </trkpt>
      <trkpt lat="43.94522" lon="7.0881">
        <ele>681.6</ele>
        <time>2012-11-24T12:01:22Z</time>
      </trkpt>
      <trkpt lat="43.94531" lon="7.08813">
        <ele>682.7</ele>
        <time>2012-11-24T12:01:27Z</time>
      </trkpt>
      <trkpt lat="43.94539" lon="7.08818">
        <ele>683.8</ele>
        <time>2012-11-24T12:01:32Z</time>
      </trkpt>
      <trkpt lat="43.9454" lon="7.08818">
        <ele>683.6</ele>
        <time>2012-11-24T12:01:33Z</time>
      </trkpt>
      <trkpt lat="43.94551" lon="7.08804">
        <ele>686</ele>
        <time>2012-11-24T12:01:45Z</time>
      </trkpt>
      <trkpt lat="43.94555" lon="7.08793">
        <ele>686.8</ele>
        <time>2012-11-24T12:01:51Z</time>
      </trkpt>
      <trkpt lat="43.94558" lon="7.08782">
        <ele>687.4</ele>
        <time>2012-11-24T12:01:57Z</time>
      </trkpt>
      <trkpt lat="43.94561" lon="7.08772">
        <ele>688.8</ele>
        <time>2012-11-24T12:02:03Z</time>
      </trkpt>
      <trkpt lat="43.94566" lon="7.08762">
        <ele>690.4</ele>
        <time>2012-11-24T12:02:10Z</time>
      </trkpt>
      <trkpt lat="43.94573" lon="7.08758">
        <ele>691.5</ele>
        <time>2012-11-24T12:02:18Z</time>
      </trkpt>
      <trkpt lat="43.94581" lon="7.08756">
        <ele>694.4</ele>
        <time>2012-11-24T12:02:25Z</time>
      </trkpt>
      <trkpt lat="43.94589" lon="7.08755">
        <ele>695.7</ele>
        <time>2012-11-24T12:02:32Z</time>
      </trkpt>
      <trkpt lat="43.94597" lon="7.08755">
        <ele>697.9</ele>
        <time>2012-11-24T12:02:39Z</time>
      </trkpt>
      <trkpt lat="43.94599" lon="7.08755">
        <ele>697.8</ele>
        <time>2012-11-24T12:02:40Z</time>
      </trkpt>
      <trkpt lat="43.94613" lon="7.08762">
        <ele>700.4</ele>
        <time>2012-11-24T12:02:52Z</time>
      </trkpt>
      <trkpt lat="43.94621" lon="7.0876">
        <ele>700.4</ele>
        <time>2012-11-24T12:02:58Z</time>
      </trkpt>
      <trkpt lat="43.94627" lon="7.08753">
        <ele>701.1</ele>
        <time>2012-11-24T12:03:02Z</time>
      </trkpt>
      <trkpt lat="43.94631" lon="7.08743">
        <ele>701.4</ele>
        <time>2012-11-24T12:03:06Z</time>
      </trkpt>
      <trkpt lat="43.94633" lon="7.08734">
        <ele>701.3</ele>
        <time>2012-11-24T12:03:09Z</time>
      </trkpt>
      <trkpt lat="43.94638" lon="7.08723">
        <ele>701.3</ele>
        <time>2012-11-24T12:03:13Z</time>
      </trkpt>
      <trkpt lat="43.94641" lon="7.08712">
        <ele>701</ele>
        <time>2012-11-24T12:03:17Z</time>
      </trkpt>
      <trkpt lat="43.94644" lon="7.08702">
        <ele>701.3</ele>
        <time>2012-11-24T12:03:22Z</time>
      </trkpt>
      <trkpt lat="43.9465" lon="7.08695">
        <ele>701.6</ele>
        <time>2012-11-24T12:03:26Z</time>
      </trkpt>
      <trkpt lat="43.94656" lon="7.08689">
        <ele>702.6</ele>
        <time>2012-11-24T12:03:30Z</time>
      </trkpt>
      <trkpt lat="43.94664" lon="7.08692">
        <ele>703</ele>
        <time>2012-11-24T12:03:34Z</time>
      </trkpt>
      <trkpt lat="43.94671" lon="7.08696">
        <ele>703</ele>
        <time>2012-11-24T12:03:38Z</time>
      </trkpt>
      <trkpt lat="43.94679" lon="7.08702">
        <ele>703.4</ele>
        <time>2012-11-24T12:03:42Z</time>
      </trkpt>
      <trkpt lat="43.94681" lon="7.08702">
        <ele>703.5</ele>
        <time>2012-11-24T12:03:43Z</time>
      </trkpt>
      <trkpt lat="43.94696" lon="7.08703">
        <ele>702.6</ele>
        <time>2012-11-24T12:03:50Z</time>
      </trkpt>
      <trkpt lat="43.94702" lon="7.08697">
        <ele>703.4</ele>
        <time>2012-11-24T12:03:54Z</time>
      </trkpt>
      <trkpt lat="43.94706" lon="7.08688">
        <ele>704.1</ele>
        <time>2012-11-24T12:03:58Z</time>
      </trkpt>
      <trkpt lat="43.9471" lon="7.08679">
        <ele>704.4</ele>
        <time>2012-11-24T12:04:02Z</time>
      </trkpt>
      <trkpt lat="43.94713" lon="7.08668">
        <ele>704</ele>
        <time>2012-11-24T12:04:06Z</time>
      </trkpt>
      <trkpt lat="43.94718" lon="7.08658">
        <ele>705.1</ele>
        <time>2012-11-24T12:04:10Z</time>
      </trkpt>
      <trkpt lat="43.94722" lon="7.08648">
        <ele>705.8</ele>
        <time>2012-11-24T12:04:14Z</time>
      </trkpt>
      <trkpt lat="43.94726" lon="7.08639">
        <ele>706.9</ele>
        <time>2012-11-24T12:04:18Z</time>
      </trkpt>
      <trkpt lat="43.94728" lon="7.0863">
        <ele>707.2</ele>
        <time>2012-11-24T12:04:22Z</time>
      </trkpt>
      <trkpt lat="43.94731" lon="7.08619">
        <ele>708.4</ele>
        <time>2012-11-24T12:04:26Z</time>
      </trkpt>
      <trkpt lat="43.94733" lon="7.0861">
        <ele>708.1</ele>
        <time>2012-11-24T12:04:30Z</time>
      </trkpt>
      <trkpt lat="43.94737" lon="7.086">
        <ele>708.3</ele>
        <time>2012-11-24T12:04:34Z</time>
      </trkpt>
      <trkpt lat="43.94741" lon="7.0859">
        <ele>708.9</ele>
        <time>2012-11-24T12:04:38Z</time>
      </trkpt>
      <trkpt lat="43.94746" lon="7.08581">
        <ele>709.1</ele>
        <time>2012-11-24T12:04:42Z</time>
      </trkpt>
      <trkpt lat="43.94752" lon="7.08573">
        <ele>709</ele>
        <time>2012-11-24T12:04:46Z</time>
      </trkpt>
      <trkpt lat="43.94753" lon="7.08572">
        <ele>709.1</ele>
        <time>2012-11-24T12:04:47Z</time>
      </trkpt>
      <trkpt lat="43.94763" lon="7.08558">
        <ele>710.2</ele>
        <time>2012-11-24T12:04:54Z</time>
      </trkpt>
      <trkpt lat="43.94769" lon="7.08551">
        <ele>710.7</ele>
        <time>2012-11-24T12:04:58Z</time>
      </trkpt>
      <trkpt lat="43.94776" lon="7.08544">
        <ele>711.3</ele>
        <time>2012-11-24T12:05:02Z</time>
      </trkpt>
      <trkpt lat="43.94783" lon="7.08538">
        <ele>712.1</ele>
        <time>2012-11-24T12:05:06Z</time>
      </trkpt>
      <trkpt lat="43.94789" lon="7.08533">
        <ele>712.4</ele>
        <time>2012-11-24T12:05:10Z</time>
      </trkpt>
      <trkpt lat="43.94797" lon="7.0853">
        <ele>713.1</ele>
        <time>2012-11-24T12:05:14Z</time>
      </trkpt>
      <trkpt lat="43.94805" lon="7.08526">
        <ele>714.3</ele>
        <time>2012-11-24T12:05:19Z</time>
      </trkpt>
      <trkpt lat="43.94812" lon="7.08522">
        <ele>715.1</ele>
        <time>2012-11-24T12:05:24Z</time>
      </trkpt>
      <trkpt lat="43.9482" lon="7.08517">
        <ele>715.4</ele>
        <time>2012-11-24T12:05:29Z</time>
      </trkpt>
      <trkpt lat="43.94828" lon="7.08514">
        <ele>716.2</ele>
        <time>2012-11-24T12:05:34Z</time>
      </trkpt>
      <trkpt lat="43.94835" lon="7.0851">
        <ele>717.1</ele>
        <time>2012-11-24T12:05:39Z</time>
      </trkpt>
      <trkpt lat="43.94843" lon="7.08506">
        <ele>719.9</ele>
        <time>2012-11-24T12:05:48Z</time>
      </trkpt>
      <trkpt lat="43.9485" lon="7.08499">
        <ele>720.1</ele>
        <time>2012-11-24T12:05:54Z</time>
      </trkpt>
      <trkpt lat="43.94851" lon="7.08498">
        <ele>720</ele>
        <time>2012-11-24T12:05:55Z</time>
      </trkpt>
      <trkpt lat="43.94862" lon="7.08486">
        <ele>721.2</ele>
        <time>2012-11-24T12:06:05Z</time>
      </trkpt>
      <trkpt lat="43.9487" lon="7.08482">
        <ele>720.9</ele>
        <time>2012-11-24T12:06:09Z</time>
      </trkpt>
      <trkpt lat="43.94877" lon="7.08479">
        <ele>721.4</ele>
        <time>2012-11-24T12:06:13Z</time>
      </trkpt>
      <trkpt lat="43.94885" lon="7.08476">
        <ele>721.2</ele>
        <time>2012-11-24T12:06:17Z</time>
      </trkpt>
      <trkpt lat="43.94892" lon="7.08474">
        <ele>720.9</ele>
        <time>2012-11-24T12:06:20Z</time>
      </trkpt>
      <trkpt lat="43.94899" lon="7.08471">
        <ele>722.1</ele>
        <time>2012-11-24T12:06:24Z</time>
      </trkpt>
      <trkpt lat="43.94907" lon="7.08471">
        <ele>722.1</ele>
        <time>2012-11-24T12:06:28Z</time>
      </trkpt>
      <trkpt lat="43.94915" lon="7.08472">
        <ele>723.5</ele>
        <time>2012-11-24T12:06:34Z</time>
      </trkpt>
      <trkpt lat="43.94924" lon="7.08475">
        <ele>722.3</ele>
        <time>2012-11-24T12:06:40Z</time>
      </trkpt>
      <trkpt lat="43.94931" lon="7.0848">
        <ele>722.4</ele>
        <time>2012-11-24T12:06:44Z</time>
      </trkpt>
      <trkpt lat="43.94939" lon="7.08483">
        <ele>722.1</ele>
        <time>2012-11-24T12:06:47Z</time>
      </trkpt>
      <trkpt lat="43.94947" lon="7.08485">
        <ele>722.6</ele>
        <time>2012-11-24T12:06:51Z</time>
      </trkpt>
      <trkpt lat="43.94955" lon="7.08487">
        <ele>723.1</ele>
        <time>2012-11-24T12:06:55Z</time>
      </trkpt>
      <trkpt lat="43.94957" lon="7.08487">
        <ele>723</ele>
        <time>2012-11-24T12:06:56Z</time>
      </trkpt>
      <trkpt lat="43.9497" lon="7.08494">
        <ele>723.6</ele>
        <time>2012-11-24T12:07:04Z</time>
      </trkpt>
      <trkpt lat="43.94978" lon="7.08496">
        <ele>724.1</ele>
        <time>2012-11-24T12:07:08Z</time>
      </trkpt>
      <trkpt lat="43.94985" lon="7.08498">
        <ele>725.2</ele>
        <time>2012-11-24T12:07:12Z</time>
      </trkpt>
      <trkpt lat="43.94994" lon="7.085">
        <ele>724.4</ele>
        <time>2012-11-24T12:07:16Z</time>
      </trkpt>
      <trkpt lat="43.95001" lon="7.08493">
        <ele>724.7</ele>
        <time>2012-11-24T12:07:21Z</time>
      </trkpt>
      <trkpt lat="43.95007" lon="7.08486">
        <ele>725.6</ele>
        <time>2012-11-24T12:07:26Z</time>
      </trkpt>
      <trkpt lat="43.95013" lon="7.08477">
        <ele>725.7</ele>
        <time>2012-11-24T12:07:30Z</time>
      </trkpt>
      <trkpt lat="43.95019" lon="7.0847">
        <ele>726.2</ele>
        <time>2012-11-24T12:07:34Z</time>
      </trkpt>
      <trkpt lat="43.95027" lon="7.08474">
        <ele>726.5</ele>
        <time>2012-11-24T12:07:38Z</time>
      </trkpt>
      <trkpt lat="43.95031" lon="7.08482">
        <ele>727</ele>
        <time>2012-11-24T12:07:41Z</time>
      </trkpt>
      <trkpt lat="43.95036" lon="7.08489">
        <ele>727.4</ele>
        <time>2012-11-24T12:07:44Z</time>
      </trkpt>
      <trkpt lat="43.95045" lon="7.0849">
        <ele>726.9</ele>
        <time>2012-11-24T12:07:48Z</time>
      </trkpt>
      <trkpt lat="43.95051" lon="7.08493">
        <ele>726.8</ele>
        <time>2012-11-24T12:07:51Z</time>
      </trkpt>
      <trkpt lat="43.95059" lon="7.08499">
        <ele>726.9</ele>
        <time>2012-11-24T12:07:55Z</time>
      </trkpt>
      <trkpt lat="43.95064" lon="7.08505">
        <ele>726.8</ele>
        <time>2012-11-24T12:07:58Z</time>
      </trkpt>
      <trkpt lat="43.95066" lon="7.08507">
        <ele>726.9</ele>
        <time>2012-11-24T12:07:59Z</time>
      </trkpt>
      <trkpt lat="43.95078" lon="7.0852">
        <ele>728.4</ele>
        <time>2012-11-24T12:08:06Z</time>
      </trkpt>
      <trkpt lat="43.95085" lon="7.08527">
        <ele>727.9</ele>
        <time>2012-11-24T12:08:10Z</time>
      </trkpt>
      <trkpt lat="43.95091" lon="7.08533">
        <ele>728.4</ele>
        <time>2012-11-24T12:08:13Z</time>
      </trkpt>
      <trkpt lat="43.95097" lon="7.08539">
        <ele>728.5</ele>
        <time>2012-11-24T12:08:16Z</time>
      </trkpt>
      <trkpt lat="43.95103" lon="7.08546">
        <ele>729</ele>
        <time>2012-11-24T12:08:20Z</time>
      </trkpt>
      <trkpt lat="43.9511" lon="7.08552">
        <ele>729.3</ele>
        <time>2012-11-24T12:08:24Z</time>
      </trkpt>
      <trkpt lat="43.95118" lon="7.08557">
        <ele>729.1</ele>
        <time>2012-11-24T12:08:28Z</time>
      </trkpt>
      <trkpt lat="43.95126" lon="7.0856">
        <ele>728.9</ele>
        <time>2012-11-24T12:08:32Z</time>
      </trkpt>
      <trkpt lat="43.95133" lon="7.08562">
        <ele>729.9</ele>
        <time>2012-11-24T12:08:36Z</time>
      </trkpt>
      <trkpt lat="43.95142" lon="7.08563">
        <ele>729.6</ele>
        <time>2012-11-24T12:08:40Z</time>
      </trkpt>
      <trkpt lat="43.9515" lon="7.08565">
        <ele>730.1</ele>
        <time>2012-11-24T12:08:44Z</time>
      </trkpt>
      <trkpt lat="43.95158" lon="7.08567">
        <ele>730.3</ele>
        <time>2012-11-24T12:08:47Z</time>
      </trkpt>
      <trkpt lat="43.95164" lon="7.08568">
        <ele>730.3</ele>
        <time>2012-11-24T12:08:50Z</time>
      </trkpt>
      <trkpt lat="43.95172" lon="7.0857">
        <ele>730.2</ele>
        <time>2012-11-24T12:08:54Z</time>
      </trkpt>
      <trkpt lat="43.9518" lon="7.08571">
        <ele>731.4</ele>
        <time>2012-11-24T12:08:58Z</time>
      </trkpt>
      <trkpt lat="43.95187" lon="7.08572">
        <ele>730.6</ele>
        <time>2012-11-24T12:09:01Z</time>
      </trkpt>
      <trkpt lat="43.95189" lon="7.08573">
        <ele>730.7</ele>
        <time>2012-11-24T12:09:02Z</time>
      </trkpt>
      <trkpt lat="43.952" lon="7.08574">
        <ele>731.3</ele>
        <time>2012-11-24T12:09:07Z</time>
      </trkpt>
      <trkpt lat="43.95207" lon="7.08574">
        <ele>731.6</ele>
        <time>2012-11-24T12:09:10Z</time>
      </trkpt>
      <trkpt lat="43.95214" lon="7.08573">
        <ele>731.5</ele>
        <time>2012-11-24T12:09:13Z</time>
      </trkpt>
      <trkpt lat="43.95222" lon="7.08574">
        <ele>731.7</ele>
        <time>2012-11-24T12:09:16Z</time>
      </trkpt>
      <trkpt lat="43.9523" lon="7.08576">
        <ele>732.2</ele>
        <time>2012-11-24T12:09:19Z</time>
      </trkpt>
      <trkpt lat="43.95237" lon="7.08584">
        <ele>733.2</ele>
        <time>2012-11-24T12:09:23Z</time>
      </trkpt>
      <trkpt lat="43.95241" lon="7.08594">
        <ele>733.3</ele>
        <time>2012-11-24T12:09:27Z</time>
      </trkpt>
      <trkpt lat="43.95245" lon="7.08603">
        <ele>734</ele>
        <time>2012-11-24T12:09:31Z</time>
      </trkpt>
      <trkpt lat="43.9525" lon="7.08609">
        <ele>734.3</ele>
        <time>2012-11-24T12:09:34Z</time>
      </trkpt>
      <trkpt lat="43.95256" lon="7.08616">
        <ele>734.7</ele>
        <time>2012-11-24T12:09:37Z</time>
      </trkpt>
      <trkpt lat="43.95261" lon="7.08626">
        <ele>734.2</ele>
        <time>2012-11-24T12:09:40Z</time>
      </trkpt>
      <trkpt lat="43.95265" lon="7.08635">
        <ele>734.1</ele>
        <time>2012-11-24T12:09:43Z</time>
      </trkpt>
      <trkpt lat="43.9527" lon="7.08645">
        <ele>734.1</ele>
        <time>2012-11-24T12:09:46Z</time>
      </trkpt>
      <trkpt lat="43.95272" lon="7.08654">
        <ele>734.2</ele>
        <time>2012-11-24T12:09:49Z</time>
      </trkpt>
      <trkpt lat="43.95274" lon="7.08663">
        <ele>735</ele>
        <time>2012-11-24T12:09:52Z</time>
      </trkpt>
      <trkpt lat="43.9528" lon="7.08672">
        <ele>736.3</ele>
        <time>2012-11-24T12:10:05Z</time>
      </trkpt>
      <trkpt lat="43.95281" lon="7.08673">
        <ele>736.1</ele>
        <time>2012-11-24T12:10:06Z</time>
      </trkpt>
      <trkpt lat="43.95296" lon="7.08665">
        <ele>735</ele>
        <time>2012-11-24T12:10:14Z</time>
      </trkpt>
      <trkpt lat="43.95303" lon="7.08659">
        <ele>735.6</ele>
        <time>2012-11-24T12:10:18Z</time>
      </trkpt>
      <trkpt lat="43.95311" lon="7.08652">
        <ele>735.9</ele>
        <time>2012-11-24T12:10:23Z</time>
      </trkpt>
      <trkpt lat="43.95319" lon="7.08648">
        <ele>736.4</ele>
        <time>2012-11-24T12:10:27Z</time>
      </trkpt>
      <trkpt lat="43.95326" lon="7.08648">
        <ele>736.2</ele>
        <time>2012-11-24T12:10:31Z</time>
      </trkpt>
      <trkpt lat="43.95333" lon="7.08644">
        <ele>736.8</ele>
        <time>2012-11-24T12:10:35Z</time>
      </trkpt>
      <trkpt lat="43.9534" lon="7.08637">
        <ele>737</ele>
        <time>2012-11-24T12:10:39Z</time>
      </trkpt>
      <trkpt lat="43.95345" lon="7.08629">
        <ele>737.7</ele>
        <time>2012-11-24T12:10:42Z</time>
      </trkpt>
      <trkpt lat="43.95349" lon="7.08621">
        <ele>737.7</ele>
        <time>2012-11-24T12:10:45Z</time>
      </trkpt>
      <trkpt lat="43.95355" lon="7.08614">
        <ele>737.5</ele>
        <time>2012-11-24T12:10:49Z</time>
      </trkpt>
      <trkpt lat="43.95363" lon="7.08607">
        <ele>737.1</ele>
        <time>2012-11-24T12:10:54Z</time>
      </trkpt>
      <trkpt lat="43.95369" lon="7.08602">
        <ele>738.3</ele>
        <time>2012-11-24T12:10:58Z</time>
      </trkpt>
      <trkpt lat="43.95377" lon="7.086">
        <ele>738.8</ele>
        <time>2012-11-24T12:11:02Z</time>
      </trkpt>
      <trkpt lat="43.95384" lon="7.086">
        <ele>739</ele>
        <time>2012-11-24T12:11:05Z</time>
      </trkpt>
      <trkpt lat="43.95392" lon="7.08597">
        <ele>739</ele>
        <time>2012-11-24T12:11:08Z</time>
      </trkpt>
      <trkpt lat="43.95394" lon="7.08596">
        <ele>738.8</ele>
        <time>2012-11-24T12:11:09Z</time>
      </trkpt>
      <trkpt lat="43.95407" lon="7.08586">
        <ele>740</ele>
        <time>2012-11-24T12:11:16Z</time>
      </trkpt>
      <trkpt lat="43.95412" lon="7.08578">
        <ele>739.5</ele>
        <time>2012-11-24T12:11:19Z</time>
      </trkpt>
      <trkpt lat="43.95419" lon="7.08572">
        <ele>739.5</ele>
        <time>2012-11-24T12:11:23Z</time>
      </trkpt>
      <trkpt lat="43.95426" lon="7.08571">
        <ele>739.4</ele>
        <time>2012-11-24T12:11:26Z</time>
      </trkpt>
      <trkpt lat="43.95433" lon="7.08569">
        <ele>740.1</ele>
        <time>2012-11-24T12:11:29Z</time>
      </trkpt>
      <trkpt lat="43.9544" lon="7.08566">
        <ele>739.9</ele>
        <time>2012-11-24T12:11:32Z</time>
      </trkpt>
      <trkpt lat="43.95448" lon="7.08563">
        <ele>740</ele>
        <time>2012-11-24T12:11:35Z</time>
      </trkpt>
      <trkpt lat="43.95456" lon="7.08561">
        <ele>740</ele>
        <time>2012-11-24T12:11:38Z</time>
      </trkpt>
      <trkpt lat="43.95463" lon="7.08558">
        <ele>740.3</ele>
        <time>2012-11-24T12:11:41Z</time>
      </trkpt>
      <trkpt lat="43.9547" lon="7.08554">
        <ele>740.9</ele>
        <time>2012-11-24T12:11:44Z</time>
      </trkpt>
      <trkpt lat="43.95476" lon="7.08547">
        <ele>741.6</ele>
        <time>2012-11-24T12:11:47Z</time>
      </trkpt>
      <trkpt lat="43.95481" lon="7.08539">
        <ele>741.8</ele>
        <time>2012-11-24T12:11:50Z</time>
      </trkpt>
      <trkpt lat="43.95486" lon="7.08532">
        <ele>741.5</ele>
        <time>2012-11-24T12:11:53Z</time>
      </trkpt>
      <trkpt lat="43.95494" lon="7.08526">
        <ele>741.8</ele>
        <time>2012-11-24T12:11:57Z</time>
      </trkpt>
      <trkpt lat="43.95502" lon="7.08521">
        <ele>742.7</ele>
        <time>2012-11-24T12:12:02Z</time>
      </trkpt>
      <trkpt lat="43.9551" lon="7.0852">
        <ele>742.9</ele>
        <time>2012-11-24T12:12:07Z</time>
      </trkpt>
      <trkpt lat="43.95518" lon="7.0852">
        <ele>743.1</ele>
        <time>2012-11-24T12:12:11Z</time>
      </trkpt>
      <trkpt lat="43.9552" lon="7.08519">
        <ele>743.2</ele>
        <time>2012-11-24T12:12:12Z</time>
      </trkpt>
      <trkpt lat="43.95534" lon="7.0851">
        <ele>742.9</ele>
        <time>2012-11-24T12:12:19Z</time>
      </trkpt>
      <trkpt lat="43.95542" lon="7.08505">
        <ele>743.1</ele>
        <time>2012-11-24T12:12:23Z</time>
      </trkpt>
      <trkpt lat="43.95549" lon="7.08503">
        <ele>743.7</ele>
        <time>2012-11-24T12:12:26Z</time>
      </trkpt>
      <trkpt lat="43.95556" lon="7.08504">
        <ele>744</ele>
        <time>2012-11-24T12:12:29Z</time>
      </trkpt>
      <trkpt lat="43.95563" lon="7.08502">
        <ele>744.4</ele>
        <time>2012-11-24T12:12:33Z</time>
      </trkpt>
      <trkpt lat="43.95571" lon="7.08499">
        <ele>743.9</ele>
        <time>2012-11-24T12:12:37Z</time>
      </trkpt>
      <trkpt lat="43.95578" lon="7.08507">
        <ele>744.7</ele>
        <time>2012-11-24T12:12:41Z</time>
      </trkpt>
      <trkpt lat="43.95582" lon="7.08517">
        <ele>745</ele>
        <time>2012-11-24T12:12:45Z</time>
      </trkpt>
      <trkpt lat="43.95586" lon="7.08527">
        <ele>745.1</ele>
        <time>2012-11-24T12:12:49Z</time>
      </trkpt>
      <trkpt lat="43.95578" lon="7.08533">
        <ele>746.6</ele>
        <time>2012-11-24T12:13:41Z</time>
      </trkpt>
      <trkpt lat="43.95578" lon="7.08534">
        <ele>746.5</ele>
        <time>2012-11-24T12:13:42Z</time>
      </trkpt>
      <trkpt lat="43.95569" lon="7.08512">
        <ele>746</ele>
        <time>2012-11-24T12:14:48Z</time>
      </trkpt>
      <trkpt lat="43.95569" lon="7.08512">
        <ele>745.9</ele>
        <time>2012-11-24T12:14:49Z</time>
      </trkpt>
      <trkpt lat="43.95565" lon="7.08532">
        <ele>746.3</ele>
        <time>2012-11-24T12:15:39Z</time>
      </trkpt>
      <trkpt lat="43.95573" lon="7.08535">
        <ele>746.9</ele>
        <time>2012-11-24T12:15:43Z</time>
      </trkpt>
      <trkpt lat="43.9558" lon="7.08539">
        <ele>747</ele>
        <time>2012-11-24T12:15:46Z</time>
      </trkpt>
      <trkpt lat="43.95588" lon="7.08537">
        <ele>746.3</ele>
        <time>2012-11-24T12:15:50Z</time>
      </trkpt>
      <trkpt lat="43.9559" lon="7.08535">
        <ele>746.2</ele>
        <time>2012-11-24T12:15:51Z</time>
      </trkpt>
      <trkpt lat="43.95601" lon="7.08528">
        <ele>747.7</ele>
        <time>2012-11-24T12:15:56Z</time>
      </trkpt>
      <trkpt lat="43.95609" lon="7.08522">
        <ele>747.7</ele>
        <time>2012-11-24T12:16:00Z</time>
      </trkpt>
      <trkpt lat="43.95616" lon="7.0852">
        <ele>747.9</ele>
        <time>2012-11-24T12:16:03Z</time>
      </trkpt>
      <trkpt lat="43.95623" lon="7.08519">
        <ele>748.2</ele>
        <time>2012-11-24T12:16:06Z</time>
      </trkpt>
      <trkpt lat="43.95632" lon="7.08519">
        <ele>748.8</ele>
        <time>2012-11-24T12:16:09Z</time>
      </trkpt>
      <trkpt lat="43.9564" lon="7.08519">
        <ele>749.1</ele>
        <time>2012-11-24T12:16:12Z</time>
      </trkpt>
      <trkpt lat="43.95647" lon="7.08516">
        <ele>749.4</ele>
        <time>2012-11-24T12:16:15Z</time>
      </trkpt>
      <trkpt lat="43.95653" lon="7.08512">
        <ele>749.5</ele>
        <time>2012-11-24T12:16:18Z</time>
      </trkpt>
      <trkpt lat="43.95662" lon="7.08514">
        <ele>749.1</ele>
        <time>2012-11-24T12:16:21Z</time>
      </trkpt>
      <trkpt lat="43.9567" lon="7.08513">
        <ele>748.9</ele>
        <time>2012-11-24T12:16:24Z</time>
      </trkpt>
      <trkpt lat="43.95676" lon="7.08512">
        <ele>748.9</ele>
        <time>2012-11-24T12:16:26Z</time>
      </trkpt>
      <trkpt lat="43.95685" lon="7.08512">
        <ele>748.9</ele>
        <time>2012-11-24T12:16:29Z</time>
      </trkpt>
      <trkpt lat="43.95693" lon="7.08512">
        <ele>748.9</ele>
        <time>2012-11-24T12:16:32Z</time>
      </trkpt>
      <trkpt lat="43.95701" lon="7.08513">
        <ele>749.7</ele>
        <time>2012-11-24T12:16:35Z</time>
      </trkpt>
      <trkpt lat="43.95709" lon="7.08514">
        <ele>749.9</ele>
        <time>2012-11-24T12:16:38Z</time>
      </trkpt>
      <trkpt lat="43.95717" lon="7.08509">
        <ele>750.7</ele>
        <time>2012-11-24T12:16:42Z</time>
      </trkpt>
      <trkpt lat="43.95724" lon="7.08502">
        <ele>750.8</ele>
        <time>2012-11-24T12:16:46Z</time>
      </trkpt>
      <trkpt lat="43.95731" lon="7.08496">
        <ele>750.4</ele>
        <time>2012-11-24T12:16:49Z</time>
      </trkpt>
      <trkpt lat="43.95738" lon="7.0849">
        <ele>750.9</ele>
        <time>2012-11-24T12:16:52Z</time>
      </trkpt>
      <trkpt lat="43.9574" lon="7.08487">
        <ele>750.9</ele>
        <time>2012-11-24T12:16:53Z</time>
      </trkpt>
      <trkpt lat="43.95749" lon="7.08475">
        <ele>751.3</ele>
        <time>2012-11-24T12:16:59Z</time>
      </trkpt>
      <trkpt lat="43.95754" lon="7.08468">
        <ele>751.6</ele>
        <time>2012-11-24T12:17:02Z</time>
      </trkpt>
      <trkpt lat="43.95757" lon="7.08459">
        <ele>751.5</ele>
        <time>2012-11-24T12:17:05Z</time>
      </trkpt>
      <trkpt lat="43.95759" lon="7.0845">
        <ele>751.5</ele>
        <time>2012-11-24T12:17:08Z</time>
      </trkpt>
      <trkpt lat="43.95761" lon="7.0844">
        <ele>752.5</ele>
        <time>2012-11-24T12:17:11Z</time>
      </trkpt>
      <trkpt lat="43.95764" lon="7.08431">
        <ele>752.6</ele>
        <time>2012-11-24T12:17:14Z</time>
      </trkpt>
      <trkpt lat="43.95769" lon="7.08423">
        <ele>752.6</ele>
        <time>2012-11-24T12:17:17Z</time>
      </trkpt>
      <trkpt lat="43.95772" lon="7.08414">
        <ele>753</ele>
        <time>2012-11-24T12:17:20Z</time>
      </trkpt>
      <trkpt lat="43.95774" lon="7.08404">
        <ele>753.2</ele>
        <time>2012-11-24T12:17:23Z</time>
      </trkpt>
      <trkpt lat="43.95775" lon="7.08394">
        <ele>753.8</ele>
        <time>2012-11-24T12:17:26Z</time>
      </trkpt>
      <trkpt lat="43.95779" lon="7.08383">
        <ele>753.9</ele>
        <time>2012-11-24T12:17:30Z</time>
      </trkpt>
      <trkpt lat="43.95783" lon="7.08375">
        <ele>754.7</ele>
        <time>2012-11-24T12:17:33Z</time>
      </trkpt>
      <trkpt lat="43.9579" lon="7.08373">
        <ele>754.9</ele>
        <time>2012-11-24T12:17:36Z</time>
      </trkpt>
      <trkpt lat="43.95797" lon="7.08376">
        <ele>754.1</ele>
        <time>2012-11-24T12:17:39Z</time>
      </trkpt>
      <trkpt lat="43.95804" lon="7.08379">
        <ele>754.5</ele>
        <time>2012-11-24T12:17:42Z</time>
      </trkpt>
      <trkpt lat="43.95812" lon="7.08376">
        <ele>754.6</ele>
        <time>2012-11-24T12:17:45Z</time>
      </trkpt>
      <trkpt lat="43.95819" lon="7.08371">
        <ele>754.7</ele>
        <time>2012-11-24T12:17:48Z</time>
      </trkpt>
      <trkpt lat="43.95826" lon="7.08364">
        <ele>755.3</ele>
        <time>2012-11-24T12:17:51Z</time>
      </trkpt>
      <trkpt lat="43.95832" lon="7.08357">
        <ele>755.6</ele>
        <time>2012-11-24T12:17:54Z</time>
      </trkpt>
      <trkpt lat="43.95834" lon="7.08355">
        <ele>755.4</ele>
        <time>2012-11-24T12:17:55Z</time>
      </trkpt>
      <trkpt lat="43.95844" lon="7.08342">
        <ele>755.8</ele>
        <time>2012-11-24T12:18:00Z</time>
      </trkpt>
      <trkpt lat="43.95848" lon="7.08331">
        <ele>756.7</ele>
        <time>2012-11-24T12:18:04Z</time>
      </trkpt>
      <trkpt lat="43.95857" lon="7.08329">
        <ele>756.7</ele>
        <time>2012-11-24T12:18:09Z</time>
      </trkpt>
      <trkpt lat="43.95863" lon="7.08332">
        <ele>756.1</ele>
        <time>2012-11-24T12:18:12Z</time>
      </trkpt>
      <trkpt lat="43.9587" lon="7.0834">
        <ele>757.4</ele>
        <time>2012-11-24T12:18:16Z</time>
      </trkpt>
      <trkpt lat="43.95875" lon="7.08347">
        <ele>756.9</ele>
        <time>2012-11-24T12:18:19Z</time>
      </trkpt>
      <trkpt lat="43.95882" lon="7.08346">
        <ele>757.7</ele>
        <time>2012-11-24T12:18:22Z</time>
      </trkpt>
      <trkpt lat="43.95888" lon="7.08339">
        <ele>757.9</ele>
        <time>2012-11-24T12:18:25Z</time>
      </trkpt>
      <trkpt lat="43.95894" lon="7.08329">
        <ele>758</ele>
        <time>2012-11-24T12:18:29Z</time>
      </trkpt>
      <trkpt lat="43.95899" lon="7.08319">
        <ele>758.2</ele>
        <time>2012-11-24T12:18:33Z</time>
      </trkpt>
      <trkpt lat="43.95906" lon="7.08311">
        <ele>758.7</ele>
        <time>2012-11-24T12:18:37Z</time>
      </trkpt>
      <trkpt lat="43.95912" lon="7.08311">
        <ele>758.7</ele>
        <time>2012-11-24T12:18:40Z</time>
      </trkpt>
      <trkpt lat="43.95919" lon="7.08311">
        <ele>759</ele>
        <time>2012-11-24T12:18:43Z</time>
      </trkpt>
      <trkpt lat="43.95926" lon="7.0831">
        <ele>759.5</ele>
        <time>2012-11-24T12:18:46Z</time>
      </trkpt>
      <trkpt lat="43.95934" lon="7.08311">
        <ele>759.5</ele>
        <time>2012-11-24T12:18:49Z</time>
      </trkpt>
      <trkpt lat="43.95943" lon="7.08313">
        <ele>759.4</ele>
        <time>2012-11-24T12:18:52Z</time>
      </trkpt>
      <trkpt lat="43.95951" lon="7.08312">
        <ele>760.2</ele>
        <time>2012-11-24T12:18:55Z</time>
      </trkpt>
      <trkpt lat="43.95954" lon="7.08311">
        <ele>760.4</ele>
        <time>2012-11-24T12:18:56Z</time>
      </trkpt>
      <trkpt lat="43.95966" lon="7.08306">
        <ele>760.1</ele>
        <time>2012-11-24T12:19:01Z</time>
      </trkpt>
      <trkpt lat="43.95973" lon="7.08303">
        <ele>760.9</ele>
        <time>2012-11-24T12:19:04Z</time>
      </trkpt>
      <trkpt lat="43.9598" lon="7.08301">
        <ele>761.2</ele>
        <time>2012-11-24T12:19:07Z</time>
      </trkpt>
      <trkpt lat="43.95988" lon="7.08303">
        <ele>761.4</ele>
        <time>2012-11-24T12:19:10Z</time>
      </trkpt>
      <trkpt lat="43.95995" lon="7.08303">
        <ele>761.1</ele>
        <time>2012-11-24T12:19:13Z</time>
      </trkpt>
      <trkpt lat="43.96004" lon="7.08302">
        <ele>760.8</ele>
        <time>2012-11-24T12:19:16Z</time>
      </trkpt>
      <trkpt lat="43.96008" lon="7.08313">
        <ele>761.2</ele>
        <time>2012-11-24T12:19:20Z</time>
      </trkpt>
      <trkpt lat="43.96007" lon="7.08325">
        <ele>761.9</ele>
        <time>2012-11-24T12:19:25Z</time>
      </trkpt>
      <trkpt lat="43.96008" lon="7.08336">
        <ele>762.9</ele>
        <time>2012-11-24T12:19:30Z</time>
      </trkpt>
      <trkpt lat="43.96005" lon="7.08346">
        <ele>763</ele>
        <time>2012-11-24T12:19:34Z</time>
      </trkpt>
      <trkpt lat="43.96008" lon="7.08356">
        <ele>759.6</ele>
        <time>2012-11-24T12:19:42Z</time>
      </trkpt>
      <trkpt lat="43.96014" lon="7.08359">
        <ele>758.5</ele>
        <time>2012-11-24T12:19:44Z</time>
      </trkpt>
      <trkpt lat="43.96021" lon="7.0836">
        <ele>757.2</ele>
        <time>2012-11-24T12:19:46Z</time>
      </trkpt>
      <trkpt lat="43.9603" lon="7.08364">
        <ele>755.8</ele>
        <time>2012-11-24T12:19:49Z</time>
      </trkpt>
      <trkpt lat="43.96035" lon="7.08369">
        <ele>754.5</ele>
        <time>2012-11-24T12:19:51Z</time>
      </trkpt>
      <trkpt lat="43.96041" lon="7.08374">
        <ele>753.4</ele>
        <time>2012-11-24T12:19:53Z</time>
      </trkpt>
      <trkpt lat="43.96046" lon="7.08379">
        <ele>752.5</ele>
        <time>2012-11-24T12:19:55Z</time>
      </trkpt>
      <trkpt lat="43.96053" lon="7.08384">
        <ele>751.5</ele>
        <time>2012-11-24T12:19:57Z</time>
      </trkpt>
      <trkpt lat="43.96056" lon="7.08386">
        <ele>751</ele>
        <time>2012-11-24T12:19:58Z</time>
      </trkpt>
      <trkpt lat="43.96066" lon="7.08393">
        <ele>750.4</ele>
        <time>2012-11-24T12:20:01Z</time>
      </trkpt>
      <trkpt lat="43.96071" lon="7.08398">
        <ele>750</ele>
        <time>2012-11-24T12:20:03Z</time>
      </trkpt>
      <trkpt lat="43.96078" lon="7.08402">
        <ele>749.3</ele>
        <time>2012-11-24T12:20:05Z</time>
      </trkpt>
      <trkpt lat="43.96084" lon="7.08407">
        <ele>748.3</ele>
        <time>2012-11-24T12:20:07Z</time>
      </trkpt>
      <trkpt lat="43.9609" lon="7.08412">
        <ele>747.7</ele>
        <time>2012-11-24T12:20:09Z</time>
      </trkpt>
      <trkpt lat="43.96096" lon="7.08417">
        <ele>746.8</ele>
        <time>2012-11-24T12:20:11Z</time>
      </trkpt>
      <trkpt lat="43.96099" lon="7.08425">
        <ele>746</ele>
        <time>2012-11-24T12:20:13Z</time>
      </trkpt>
      <trkpt lat="43.96101" lon="7.08434">
        <ele>745.2</ele>
        <time>2012-11-24T12:20:15Z</time>
      </trkpt>
      <trkpt lat="43.96101" lon="7.08445">
        <ele>744.8</ele>
        <time>2012-11-24T12:20:18Z</time>
      </trkpt>
      <trkpt lat="43.96103" lon="7.08456">
        <ele>744.5</ele>
        <time>2012-11-24T12:20:21Z</time>
      </trkpt>
      <trkpt lat="43.96107" lon="7.08464">
        <ele>743.7</ele>
        <time>2012-11-24T12:20:24Z</time>
      </trkpt>
      <trkpt lat="43.96113" lon="7.08471">
        <ele>742.3</ele>
        <time>2012-11-24T12:20:26Z</time>
      </trkpt>
      <trkpt lat="43.96119" lon="7.08476">
        <ele>741.5</ele>
        <time>2012-11-24T12:20:28Z</time>
      </trkpt>
      <trkpt lat="43.96127" lon="7.08476">
        <ele>739.8</ele>
        <time>2012-11-24T12:20:31Z</time>
      </trkpt>
      <trkpt lat="43.96135" lon="7.08473">
        <ele>738.4</ele>
        <time>2012-11-24T12:20:34Z</time>
      </trkpt>
      <trkpt lat="43.96142" lon="7.08475">
        <ele>737.2</ele>
        <time>2012-11-24T12:20:36Z</time>
      </trkpt>
      <trkpt lat="43.96149" lon="7.08482">
        <ele>734.8</ele>
        <time>2012-11-24T12:20:39Z</time>
      </trkpt>
      <trkpt lat="43.96155" lon="7.08489">
        <ele>733.1</ele>
        <time>2012-11-24T12:20:42Z</time>
      </trkpt>
      <trkpt lat="43.96161" lon="7.08495">
        <ele>731.1</ele>
        <time>2012-11-24T12:20:45Z</time>
      </trkpt>
      <trkpt lat="43.96166" lon="7.08504">
        <ele>729</ele>
        <time>2012-11-24T12:20:48Z</time>
      </trkpt>
      <trkpt lat="43.96175" lon="7.08507">
        <ele>726.4</ele>
        <time>2012-11-24T12:20:52Z</time>
      </trkpt>
      <trkpt lat="43.96183" lon="7.08507">
        <ele>723.8</ele>
        <time>2012-11-24T12:20:56Z</time>
      </trkpt>
      <trkpt lat="43.9619" lon="7.0851">
        <ele>722.2</ele>
        <time>2012-11-24T12:20:59Z</time>
      </trkpt>
      <trkpt lat="43.96193" lon="7.08511">
        <ele>721.8</ele>
        <time>2012-11-24T12:21:00Z</time>
      </trkpt>
      <trkpt lat="43.96203" lon="7.08518">
        <ele>717.8</ele>
        <time>2012-11-24T12:21:04Z</time>
      </trkpt>
      <trkpt lat="43.9621" lon="7.08515">
        <ele>715.3</ele>
        <time>2012-11-24T12:21:08Z</time>
      </trkpt>
      <trkpt lat="43.96219" lon="7.08518">
        <ele>713.7</ele>
        <time>2012-11-24T12:21:16Z</time>
      </trkpt>
      <trkpt lat="43.96221" lon="7.0853">
        <ele>714.5</ele>
        <time>2012-11-24T12:21:28Z</time>
      </trkpt>
      <trkpt lat="43.96217" lon="7.08541">
        <ele>717.3</ele>
        <time>2012-11-24T12:21:42Z</time>
      </trkpt>
      <trkpt lat="43.96219" lon="7.08553">
        <ele>720.6</ele>
        <time>2012-11-24T12:22:02Z</time>
      </trkpt>
      <trkpt lat="43.9622" lon="7.08554">
        <ele>720.3</ele>
        <time>2012-11-24T12:22:03Z</time>
      </trkpt>
      <trkpt lat="43.96235" lon="7.08542">
        <ele>723.9</ele>
        <time>2012-11-24T12:22:26Z</time>
      </trkpt>
      <trkpt lat="43.96241" lon="7.08534">
        <ele>725.7</ele>
        <time>2012-11-24T12:22:37Z</time>
      </trkpt>
      <trkpt lat="43.9625" lon="7.08533">
        <ele>727.5</ele>
        <time>2012-11-24T12:22:47Z</time>
      </trkpt>
      <trkpt lat="43.96258" lon="7.08534">
        <ele>730.5</ele>
        <time>2012-11-24T12:23:00Z</time>
      </trkpt>
      <trkpt lat="43.96267" lon="7.08537">
        <ele>732</ele>
        <time>2012-11-24T12:23:12Z</time>
      </trkpt>
      <trkpt lat="43.96267" lon="7.08537">
        <ele>732</ele>
        <time>2012-11-24T12:23:13Z</time>
      </trkpt>
      <trkpt lat="43.96281" lon="7.08522">
        <ele>737.4</ele>
        <time>2012-11-24T12:23:38Z</time>
      </trkpt>
      <trkpt lat="43.96289" lon="7.08519">
        <ele>740.3</ele>
        <time>2012-11-24T12:23:53Z</time>
      </trkpt>
      <trkpt lat="43.96289" lon="7.08507">
        <ele>743.1</ele>
        <time>2012-11-24T12:24:11Z</time>
      </trkpt>
      <trkpt lat="43.96297" lon="7.08503">
        <ele>747.1</ele>
        <time>2012-11-24T12:24:32Z</time>
      </trkpt>
      <trkpt lat="43.96298" lon="7.08502">
        <ele>747.2</ele>
        <time>2012-11-24T12:24:33Z</time>
      </trkpt>
      <trkpt lat="43.96297" lon="7.0849">
        <ele>755.6</ele>
        <time>2012-11-24T12:25:19Z</time>
      </trkpt>
      <trkpt lat="43.96297" lon="7.08478">
        <ele>758.2</ele>
        <time>2012-11-24T12:25:35Z</time>
      </trkpt>
      <trkpt lat="43.96298" lon="7.08478">
        <ele>758.5</ele>
        <time>2012-11-24T12:25:36Z</time>
      </trkpt>
      <trkpt lat="43.96302" lon="7.08455">
        <ele>764</ele>
        <time>2012-11-24T12:26:00Z</time>
      </trkpt>
      <trkpt lat="43.96307" lon="7.08445">
        <ele>764.6</ele>
        <time>2012-11-24T12:26:18Z</time>
      </trkpt>
      <trkpt lat="43.96311" lon="7.08435">
        <ele>766.6</ele>
        <time>2012-11-24T12:26:25Z</time>
      </trkpt>
      <trkpt lat="43.96315" lon="7.08424">
        <ele>768.7</ele>
        <time>2012-11-24T12:26:47Z</time>
      </trkpt>
      <trkpt lat="43.96316" lon="7.08423">
        <ele>768.9</ele>
        <time>2012-11-24T12:26:48Z</time>
      </trkpt>
      <trkpt lat="43.96326" lon="7.08406">
        <ele>771.5</ele>
        <time>2012-11-24T12:27:06Z</time>
      </trkpt>
      <trkpt lat="43.96334" lon="7.084">
        <ele>773.3</ele>
        <time>2012-11-24T12:27:14Z</time>
      </trkpt>
      <trkpt lat="43.9634" lon="7.08391">
        <ele>774.6</ele>
        <time>2012-11-24T12:27:22Z</time>
      </trkpt>
      <trkpt lat="43.96346" lon="7.08383">
        <ele>776.5</ele>
        <time>2012-11-24T12:27:30Z</time>
      </trkpt>
      <trkpt lat="43.96354" lon="7.08379">
        <ele>778.7</ele>
        <time>2012-11-24T12:27:38Z</time>
      </trkpt>
      <trkpt lat="43.96362" lon="7.08376">
        <ele>780.9</ele>
        <time>2012-11-24T12:27:47Z</time>
      </trkpt>
      <trkpt lat="43.9637" lon="7.08373">
        <ele>781.9</ele>
        <time>2012-11-24T12:27:54Z</time>
      </trkpt>
      <trkpt lat="43.96371" lon="7.08372">
        <ele>782.1</ele>
        <time>2012-11-24T12:27:55Z</time>
      </trkpt>
      <trkpt lat="43.96386" lon="7.08367">
        <ele>784.9</ele>
        <time>2012-11-24T12:28:10Z</time>
      </trkpt>
      <trkpt lat="43.96395" lon="7.08365">
        <ele>786.6</ele>
        <time>2012-11-24T12:28:16Z</time>
      </trkpt>
      <trkpt lat="43.96403" lon="7.0836">
        <ele>787</ele>
        <time>2012-11-24T12:28:22Z</time>
      </trkpt>
      <trkpt lat="43.96411" lon="7.08357">
        <ele>787.6</ele>
        <time>2012-11-24T12:28:28Z</time>
      </trkpt>
      <trkpt lat="43.9642" lon="7.08358">
        <ele>789.5</ele>
        <time>2012-11-24T12:28:38Z</time>
      </trkpt>
      <trkpt lat="43.96428" lon="7.08359">
        <ele>791.7</ele>
        <time>2012-11-24T12:28:47Z</time>
      </trkpt>
      <trkpt lat="43.96436" lon="7.08356">
        <ele>794.1</ele>
        <time>2012-11-24T12:28:54Z</time>
      </trkpt>
      <trkpt lat="43.96444" lon="7.08355">
        <ele>796</ele>
        <time>2012-11-24T12:29:01Z</time>
      </trkpt>
      <trkpt lat="43.96446" lon="7.08354">
        <ele>796.2</ele>
        <time>2012-11-24T12:29:02Z</time>
      </trkpt>
      <trkpt lat="43.96461" lon="7.08349">
        <ele>796.7</ele>
        <time>2012-11-24T12:29:14Z</time>
      </trkpt>
      <trkpt lat="43.96469" lon="7.08349">
        <ele>797.8</ele>
        <time>2012-11-24T12:29:20Z</time>
      </trkpt>
      <trkpt lat="43.96478" lon="7.08349">
        <ele>798</ele>
        <time>2012-11-24T12:29:26Z</time>
      </trkpt>
      <trkpt lat="43.96486" lon="7.08347">
        <ele>799.8</ele>
        <time>2012-11-24T12:29:32Z</time>
      </trkpt>
      <trkpt lat="43.96494" lon="7.08346">
        <ele>801</ele>
        <time>2012-11-24T12:29:38Z</time>
      </trkpt>
      <trkpt lat="43.96502" lon="7.08344">
        <ele>803</ele>
        <time>2012-11-24T12:29:48Z</time>
      </trkpt>
      <trkpt lat="43.9651" lon="7.0834">
        <ele>805.3</ele>
        <time>2012-11-24T12:30:03Z</time>
      </trkpt>
      <trkpt lat="43.96511" lon="7.0834">
        <ele>805.4</ele>
        <time>2012-11-24T12:30:04Z</time>
      </trkpt>
      <trkpt lat="43.96527" lon="7.08342">
        <ele>811.1</ele>
        <time>2012-11-24T12:30:28Z</time>
      </trkpt>
      <trkpt lat="43.96536" lon="7.08343">
        <ele>813.1</ele>
        <time>2012-11-24T12:30:41Z</time>
      </trkpt>
      <trkpt lat="43.96544" lon="7.08342">
        <ele>815.6</ele>
        <time>2012-11-24T12:30:53Z</time>
      </trkpt>
      <trkpt lat="43.96553" lon="7.08342">
        <ele>817.4</ele>
        <time>2012-11-24T12:31:06Z</time>
      </trkpt>
      <trkpt lat="43.96554" lon="7.08342">
        <ele>817.7</ele>
        <time>2012-11-24T12:31:07Z</time>
      </trkpt>
      <trkpt lat="43.9657" lon="7.08343">
        <ele>821.1</ele>
        <time>2012-11-24T12:31:30Z</time>
      </trkpt>
      <trkpt lat="43.96579" lon="7.08342">
        <ele>824.3</ele>
        <time>2012-11-24T12:31:54Z</time>
      </trkpt>
      <trkpt lat="43.96588" lon="7.08345">
        <ele>824.9</ele>
        <time>2012-11-24T12:32:13Z</time>
      </trkpt>
      <trkpt lat="43.96589" lon="7.08345">
        <ele>824.9</ele>
        <time>2012-11-24T12:32:14Z</time>
      </trkpt>
      <trkpt lat="43.96604" lon="7.08352">
        <ele>827.6</ele>
        <time>2012-11-24T12:32:25Z</time>
      </trkpt>
      <trkpt lat="43.96612" lon="7.08354">
        <ele>828</ele>
        <time>2012-11-24T12:32:31Z</time>
      </trkpt>
      <trkpt lat="43.9662" lon="7.08358">
        <ele>828.7</ele>
        <time>2012-11-24T12:32:36Z</time>
      </trkpt>
      <trkpt lat="43.96628" lon="7.08359">
        <ele>829</ele>
        <time>2012-11-24T12:32:41Z</time>
      </trkpt>
      <trkpt lat="43.96635" lon="7.0836">
        <ele>829</ele>
        <time>2012-11-24T12:32:45Z</time>
      </trkpt>
      <trkpt lat="43.96643" lon="7.08361">
        <ele>828.9</ele>
        <time>2012-11-24T12:32:49Z</time>
      </trkpt>
      <trkpt lat="43.9665" lon="7.08362">
        <ele>829.1</ele>
        <time>2012-11-24T12:32:53Z</time>
      </trkpt>
      <trkpt lat="43.96659" lon="7.08363">
        <ele>829.3</ele>
        <time>2012-11-24T12:32:57Z</time>
      </trkpt>
      <trkpt lat="43.96666" lon="7.08364">
        <ele>829</ele>
        <time>2012-11-24T12:33:01Z</time>
      </trkpt>
      <trkpt lat="43.96674" lon="7.08364">
        <ele>828.8</ele>
        <time>2012-11-24T12:33:05Z</time>
      </trkpt>
      <trkpt lat="43.96682" lon="7.08364">
        <ele>830.3</ele>
        <time>2012-11-24T12:33:09Z</time>
      </trkpt>
      <trkpt lat="43.96689" lon="7.08362">
        <ele>830.4</ele>
        <time>2012-11-24T12:33:12Z</time>
      </trkpt>
      <trkpt lat="43.96698" lon="7.08361">
        <ele>831.1</ele>
        <time>2012-11-24T12:33:16Z</time>
      </trkpt>
      <trkpt lat="43.967" lon="7.08361">
        <ele>831.1</ele>
        <time>2012-11-24T12:33:17Z</time>
      </trkpt>
      <trkpt lat="43.96714" lon="7.08361">
        <ele>832</ele>
        <time>2012-11-24T12:33:25Z</time>
      </trkpt>
      <trkpt lat="43.96721" lon="7.0836">
        <ele>831.7</ele>
        <time>2012-11-24T12:33:29Z</time>
      </trkpt>
      <trkpt lat="43.96729" lon="7.0836">
        <ele>833</ele>
        <time>2012-11-24T12:33:33Z</time>
      </trkpt>
      <trkpt lat="43.96737" lon="7.08361">
        <ele>833.8</ele>
        <time>2012-11-24T12:33:37Z</time>
      </trkpt>
      <trkpt lat="43.96745" lon="7.08361">
        <ele>834.1</ele>
        <time>2012-11-24T12:33:41Z</time>
      </trkpt>
      <trkpt lat="43.96753" lon="7.08358">
        <ele>834.3</ele>
        <time>2012-11-24T12:33:46Z</time>
      </trkpt>
      <trkpt lat="43.96762" lon="7.08356">
        <ele>835.5</ele>
        <time>2012-11-24T12:33:52Z</time>
      </trkpt>
      <trkpt lat="43.9677" lon="7.08356">
        <ele>837.1</ele>
        <time>2012-11-24T12:33:58Z</time>
      </trkpt>
      <trkpt lat="43.96778" lon="7.08361">
        <ele>836.6</ele>
        <time>2012-11-24T12:34:04Z</time>
      </trkpt>
      <trkpt lat="43.96785" lon="7.08368">
        <ele>836.9</ele>
        <time>2012-11-24T12:34:09Z</time>
      </trkpt>
      <trkpt lat="43.9679" lon="7.08376">
        <ele>838.3</ele>
        <time>2012-11-24T12:34:13Z</time>
      </trkpt>
      <trkpt lat="43.96796" lon="7.08385">
        <ele>838.4</ele>
        <time>2012-11-24T12:34:17Z</time>
      </trkpt>
      <trkpt lat="43.96799" lon="7.08395">
        <ele>838.7</ele>
        <time>2012-11-24T12:34:21Z</time>
      </trkpt>
      <trkpt lat="43.96799" lon="7.08397">
        <ele>838.7</ele>
        <time>2012-11-24T12:34:22Z</time>
      </trkpt>
      <trkpt lat="43.96812" lon="7.08398">
        <ele>839.3</ele>
        <time>2012-11-24T12:34:31Z</time>
      </trkpt>
      <trkpt lat="43.96819" lon="7.08392">
        <ele>840.3</ele>
        <time>2012-11-24T12:34:36Z</time>
      </trkpt>
      <trkpt lat="43.96827" lon="7.08391">
        <ele>840.6</ele>
        <time>2012-11-24T12:34:41Z</time>
      </trkpt>
      <trkpt lat="43.96835" lon="7.08396">
        <ele>840</ele>
        <time>2012-11-24T12:34:46Z</time>
      </trkpt>
      <trkpt lat="43.96843" lon="7.084">
        <ele>840.9</ele>
        <time>2012-11-24T12:34:50Z</time>
      </trkpt>
      <trkpt lat="43.96849" lon="7.08407">
        <ele>841.3</ele>
        <time>2012-11-24T12:34:56Z</time>
      </trkpt>
      <trkpt lat="43.96856" lon="7.08413">
        <ele>842.5</ele>
        <time>2012-11-24T12:35:02Z</time>
      </trkpt>
      <trkpt lat="43.96864" lon="7.08417">
        <ele>842.6</ele>
        <time>2012-11-24T12:35:07Z</time>
      </trkpt>
      <trkpt lat="43.96871" lon="7.08419">
        <ele>843</ele>
        <time>2012-11-24T12:35:12Z</time>
      </trkpt>
      <trkpt lat="43.96879" lon="7.08421">
        <ele>842.4</ele>
        <time>2012-11-24T12:35:15Z</time>
      </trkpt>
      <trkpt lat="43.96886" lon="7.08424">
        <ele>841.1</ele>
        <time>2012-11-24T12:35:19Z</time>
      </trkpt>
      <trkpt lat="43.96893" lon="7.08424">
        <ele>841.7</ele>
        <time>2012-11-24T12:35:23Z</time>
      </trkpt>
      <trkpt lat="43.96896" lon="7.08425">
        <ele>841.6</ele>
        <time>2012-11-24T12:35:24Z</time>
      </trkpt>
      <trkpt lat="43.96909" lon="7.08429">
        <ele>841.9</ele>
        <time>2012-11-24T12:35:29Z</time>
      </trkpt>
      <trkpt lat="43.96917" lon="7.0843">
        <ele>841.1</ele>
        <time>2012-11-24T12:35:32Z</time>
      </trkpt>
      <trkpt lat="43.96926" lon="7.0843">
        <ele>841</ele>
        <time>2012-11-24T12:35:35Z</time>
      </trkpt>
      <trkpt lat="43.96934" lon="7.08429">
        <ele>840.9</ele>
        <time>2012-11-24T12:35:38Z</time>
      </trkpt>
      <trkpt lat="43.96942" lon="7.08425">
        <ele>841.6</ele>
        <time>2012-11-24T12:35:42Z</time>
      </trkpt>
      <trkpt lat="43.9695" lon="7.08424">
        <ele>842.3</ele>
        <time>2012-11-24T12:35:47Z</time>
      </trkpt>
      <trkpt lat="43.96958" lon="7.08419">
        <ele>842.9</ele>
        <time>2012-11-24T12:35:53Z</time>
      </trkpt>
      <trkpt lat="43.96965" lon="7.08412">
        <ele>844.9</ele>
        <time>2012-11-24T12:35:59Z</time>
      </trkpt>
      <trkpt lat="43.96972" lon="7.08407">
        <ele>847.3</ele>
        <time>2012-11-24T12:36:04Z</time>
      </trkpt>
      <trkpt lat="43.9698" lon="7.08402">
        <ele>848.3</ele>
        <time>2012-11-24T12:36:10Z</time>
      </trkpt>
      <trkpt lat="43.96987" lon="7.08404">
        <ele>849.1</ele>
        <time>2012-11-24T12:36:17Z</time>
      </trkpt>
      <trkpt lat="43.96996" lon="7.08408">
        <ele>850.5</ele>
        <time>2012-11-24T12:36:25Z</time>
      </trkpt>
      <trkpt lat="43.96996" lon="7.08409">
        <ele>850.8</ele>
        <time>2012-11-24T12:36:26Z</time>
      </trkpt>
      <trkpt lat="43.97005" lon="7.08424">
        <ele>852.2</ele>
        <time>2012-11-24T12:36:35Z</time>
      </trkpt>
      <trkpt lat="43.97009" lon="7.08434">
        <ele>852.5</ele>
        <time>2012-11-24T12:36:39Z</time>
      </trkpt>
      <trkpt lat="43.97014" lon="7.08441">
        <ele>852.6</ele>
        <time>2012-11-24T12:36:42Z</time>
      </trkpt>
      <trkpt lat="43.97019" lon="7.08449">
        <ele>852.7</ele>
        <time>2012-11-24T12:36:46Z</time>
      </trkpt>
      <trkpt lat="43.97025" lon="7.08457">
        <ele>853.6</ele>
        <time>2012-11-24T12:36:51Z</time>
      </trkpt>
      <trkpt lat="43.97033" lon="7.08461">
        <ele>854.2</ele>
        <time>2012-11-24T12:36:56Z</time>
      </trkpt>
      <trkpt lat="43.97042" lon="7.08464">
        <ele>855.5</ele>
        <time>2012-11-24T12:37:01Z</time>
      </trkpt>
      <trkpt lat="43.97048" lon="7.08469">
        <ele>855.3</ele>
        <time>2012-11-24T12:37:05Z</time>
      </trkpt>
      <trkpt lat="43.97056" lon="7.08473">
        <ele>855.6</ele>
        <time>2012-11-24T12:37:10Z</time>
      </trkpt>
      <trkpt lat="43.97064" lon="7.08475">
        <ele>856.5</ele>
        <time>2012-11-24T12:37:15Z</time>
      </trkpt>
      <trkpt lat="43.97071" lon="7.08476">
        <ele>856.7</ele>
        <time>2012-11-24T12:37:20Z</time>
      </trkpt>
      <trkpt lat="43.97079" lon="7.08479">
        <ele>857.4</ele>
        <time>2012-11-24T12:37:25Z</time>
      </trkpt>
      <trkpt lat="43.97087" lon="7.08482">
        <ele>859.3</ele>
        <time>2012-11-24T12:37:30Z</time>
      </trkpt>
      <trkpt lat="43.97089" lon="7.08483">
        <ele>859.3</ele>
        <time>2012-11-24T12:37:31Z</time>
      </trkpt>
      <trkpt lat="43.97105" lon="7.08482">
        <ele>859.6</ele>
        <time>2012-11-24T12:37:42Z</time>
      </trkpt>
      <trkpt lat="43.97113" lon="7.08479">
        <ele>860.9</ele>
        <time>2012-11-24T12:37:50Z</time>
      </trkpt>
      <trkpt lat="43.97119" lon="7.08471">
        <ele>860.4</ele>
        <time>2012-11-24T12:37:57Z</time>
      </trkpt>
      <trkpt lat="43.97127" lon="7.08464">
        <ele>863.5</ele>
        <time>2012-11-24T12:38:06Z</time>
      </trkpt>
      <trkpt lat="43.97134" lon="7.0846">
        <ele>864.8</ele>
        <time>2012-11-24T12:38:12Z</time>
      </trkpt>
      <trkpt lat="43.97142" lon="7.08456">
        <ele>866.1</ele>
        <time>2012-11-24T12:38:19Z</time>
      </trkpt>
      <trkpt lat="43.97151" lon="7.08451">
        <ele>868</ele>
        <time>2012-11-24T12:38:28Z</time>
      </trkpt>
      <trkpt lat="43.97157" lon="7.08443">
        <ele>869.7</ele>
        <time>2012-11-24T12:38:36Z</time>
      </trkpt>
      <trkpt lat="43.97158" lon="7.08442">
        <ele>870.2</ele>
        <time>2012-11-24T12:38:37Z</time>
      </trkpt>
      <trkpt lat="43.97173" lon="7.08439">
        <ele>872.8</ele>
        <time>2012-11-24T12:38:51Z</time>
      </trkpt>
      <trkpt lat="43.97181" lon="7.08436">
        <ele>873.8</ele>
        <time>2012-11-24T12:38:59Z</time>
      </trkpt>
      <trkpt lat="43.97189" lon="7.08439">
        <ele>874.2</ele>
        <time>2012-11-24T12:39:06Z</time>
      </trkpt>
      <trkpt lat="43.97197" lon="7.08439">
        <ele>876.2</ele>
        <time>2012-11-24T12:39:13Z</time>
      </trkpt>
      <trkpt lat="43.97204" lon="7.08439">
        <ele>878.4</ele>
        <time>2012-11-24T12:39:19Z</time>
      </trkpt>
      <trkpt lat="43.97213" lon="7.08436">
        <ele>880.8</ele>
        <time>2012-11-24T12:39:27Z</time>
      </trkpt>
      <trkpt lat="43.97221" lon="7.08431">
        <ele>881.9</ele>
        <time>2012-11-24T12:39:34Z</time>
      </trkpt>
      <trkpt lat="43.97229" lon="7.08427">
        <ele>883.7</ele>
        <time>2012-11-24T12:39:41Z</time>
      </trkpt>
      <trkpt lat="43.9723" lon="7.08427">
        <ele>883.9</ele>
        <time>2012-11-24T12:39:42Z</time>
      </trkpt>
      <trkpt lat="43.97246" lon="7.08422">
        <ele>885.2</ele>
        <time>2012-11-24T12:39:54Z</time>
      </trkpt>
      <trkpt lat="43.97253" lon="7.0842">
        <ele>886.4</ele>
        <time>2012-11-24T12:40:00Z</time>
      </trkpt>
      <trkpt lat="43.97262" lon="7.08418">
        <ele>888.6</ele>
        <time>2012-11-24T12:40:07Z</time>
      </trkpt>
      <trkpt lat="43.9727" lon="7.08414">
        <ele>889.6</ele>
        <time>2012-11-24T12:40:14Z</time>
      </trkpt>
      <trkpt lat="43.97277" lon="7.08408">
        <ele>890.7</ele>
        <time>2012-11-24T12:40:20Z</time>
      </trkpt>
      <trkpt lat="43.97284" lon="7.08402">
        <ele>891.8</ele>
        <time>2012-11-24T12:40:27Z</time>
      </trkpt>
      <trkpt lat="43.9729" lon="7.08394">
        <ele>893.1</ele>
        <time>2012-11-24T12:40:34Z</time>
      </trkpt>
      <trkpt lat="43.97297" lon="7.08386">
        <ele>894.5</ele>
        <time>2012-11-24T12:40:41Z</time>
      </trkpt>
      <trkpt lat="43.97301" lon="7.08376">
        <ele>895.6</ele>
        <time>2012-11-24T12:40:47Z</time>
      </trkpt>
      <trkpt lat="43.97303" lon="7.08375">
        <ele>895.7</ele>
        <time>2012-11-24T12:40:48Z</time>
      </trkpt>
      <trkpt lat="43.97312" lon="7.08358">
        <ele>896.4</ele>
        <time>2012-11-24T12:40:59Z</time>
      </trkpt>
      <trkpt lat="43.97317" lon="7.08348">
        <ele>897.4</ele>
        <time>2012-11-24T12:41:05Z</time>
      </trkpt>
      <trkpt lat="43.97321" lon="7.08339">
        <ele>898.3</ele>
        <time>2012-11-24T12:41:11Z</time>
      </trkpt>
      <trkpt lat="43.97325" lon="7.08328">
        <ele>899.8</ele>
        <time>2012-11-24T12:41:18Z</time>
      </trkpt>
      <trkpt lat="43.97329" lon="7.08317">
        <ele>902.6</ele>
        <time>2012-11-24T12:41:26Z</time>
      </trkpt>
      <trkpt lat="43.97334" lon="7.08307">
        <ele>904.2</ele>
        <time>2012-11-24T12:41:46Z</time>
      </trkpt>
      <trkpt lat="43.9734" lon="7.08298">
        <ele>906.1</ele>
        <time>2012-11-24T12:41:58Z</time>
      </trkpt>
      <trkpt lat="43.97341" lon="7.08297">
        <ele>906.9</ele>
        <time>2012-11-24T12:41:59Z</time>
      </trkpt>
      <trkpt lat="43.97353" lon="7.08281">
        <ele>911.7</ele>
        <time>2012-11-24T12:42:26Z</time>
      </trkpt>
      <trkpt lat="43.97358" lon="7.08272">
        <ele>914.1</ele>
        <time>2012-11-24T12:42:39Z</time>
      </trkpt>
      <trkpt lat="43.97361" lon="7.08261">
        <ele>916.6</ele>
        <time>2012-11-24T12:42:52Z</time>
      </trkpt>
      <trkpt lat="43.97366" lon="7.08251">
        <ele>920.2</ele>
        <time>2012-11-24T12:43:06Z</time>
      </trkpt>
      <trkpt lat="43.97367" lon="7.08251">
        <ele>920.5</ele>
        <time>2012-11-24T12:43:07Z</time>
      </trkpt>
      <trkpt lat="43.97352" lon="7.08262">
        <ele>925.9</ele>
        <time>2012-11-24T12:43:52Z</time>
      </trkpt>
      <trkpt lat="43.97345" lon="7.08268">
        <ele>926</ele>
        <time>2012-11-24T12:43:58Z</time>
      </trkpt>
      <trkpt lat="43.97337" lon="7.08271">
        <ele>927.8</ele>
        <time>2012-11-24T12:44:05Z</time>
      </trkpt>
      <trkpt lat="43.97329" lon="7.08274">
        <ele>929.6</ele>
        <time>2012-11-24T12:44:12Z</time>
      </trkpt>
      <trkpt lat="43.97327" lon="7.08274">
        <ele>929.8</ele>
        <time>2012-11-24T12:44:13Z</time>
      </trkpt>
      <trkpt lat="43.97312" lon="7.08275">
        <ele>932.6</ele>
        <time>2012-11-24T12:44:26Z</time>
      </trkpt>
      <trkpt lat="43.97304" lon="7.08277">
        <ele>934.4</ele>
        <time>2012-11-24T12:44:33Z</time>
      </trkpt>
      <trkpt lat="43.97297" lon="7.0828">
        <ele>936.5</ele>
        <time>2012-11-24T12:44:41Z</time>
      </trkpt>
      <trkpt lat="43.9729" lon="7.08287">
        <ele>937.9</ele>
        <time>2012-11-24T12:44:48Z</time>
      </trkpt>
      <trkpt lat="43.97284" lon="7.08295">
        <ele>938.8</ele>
        <time>2012-11-24T12:44:55Z</time>
      </trkpt>
      <trkpt lat="43.97279" lon="7.08305">
        <ele>939.8</ele>
        <time>2012-11-24T12:45:02Z</time>
      </trkpt>
      <trkpt lat="43.97274" lon="7.08314">
        <ele>941.5</ele>
        <time>2012-11-24T12:45:08Z</time>
      </trkpt>
      <trkpt lat="43.97269" lon="7.08305">
        <ele>942.7</ele>
        <time>2012-11-24T12:45:17Z</time>
      </trkpt>
      <trkpt lat="43.97269" lon="7.08304">
        <ele>942.9</ele>
        <time>2012-11-24T12:45:18Z</time>
      </trkpt>
      <trkpt lat="43.97272" lon="7.08283">
        <ele>945.3</ele>
        <time>2012-11-24T12:45:31Z</time>
      </trkpt>
      <trkpt lat="43.97274" lon="7.08272">
        <ele>946.5</ele>
        <time>2012-11-24T12:45:37Z</time>
      </trkpt>
      <trkpt lat="43.97277" lon="7.08261">
        <ele>947.8</ele>
        <time>2012-11-24T12:45:44Z</time>
      </trkpt>
      <trkpt lat="43.97279" lon="7.08249">
        <ele>949.4</ele>
        <time>2012-11-24T12:45:51Z</time>
      </trkpt>
      <trkpt lat="43.97281" lon="7.08238">
        <ele>951.4</ele>
        <time>2012-11-24T12:45:58Z</time>
      </trkpt>
      <trkpt lat="43.97281" lon="7.08227">
        <ele>953.2</ele>
        <time>2012-11-24T12:46:05Z</time>
      </trkpt>
      <trkpt lat="43.97282" lon="7.08216">
        <ele>955</ele>
        <time>2012-11-24T12:46:12Z</time>
      </trkpt>
      <trkpt lat="43.97279" lon="7.08204">
        <ele>955.7</ele>
        <time>2012-11-24T12:46:19Z</time>
      </trkpt>
      <trkpt lat="43.97279" lon="7.08203">
        <ele>955.8</ele>
        <time>2012-11-24T12:46:20Z</time>
      </trkpt>
      <trkpt lat="43.97279" lon="7.08181">
        <ele>958.2</ele>
        <time>2012-11-24T12:46:31Z</time>
      </trkpt>
      <trkpt lat="43.9728" lon="7.08169">
        <ele>958.7</ele>
        <time>2012-11-24T12:46:37Z</time>
      </trkpt>
      <trkpt lat="43.97276" lon="7.08159">
        <ele>958.7</ele>
        <time>2012-11-24T12:46:43Z</time>
      </trkpt>
      <trkpt lat="43.97268" lon="7.0816">
        <ele>960.6</ele>
        <time>2012-11-24T12:46:50Z</time>
      </trkpt>
      <trkpt lat="43.97259" lon="7.08157">
        <ele>961</ele>
        <time>2012-11-24T12:46:58Z</time>
      </trkpt>
      <trkpt lat="43.97262" lon="7.08146">
        <ele>962.2</ele>
        <time>2012-11-24T12:47:04Z</time>
      </trkpt>
      <trkpt lat="43.97266" lon="7.08136">
        <ele>962.5</ele>
        <time>2012-11-24T12:47:10Z</time>
      </trkpt>
      <trkpt lat="43.9727" lon="7.08125">
        <ele>963.1</ele>
        <time>2012-11-24T12:47:16Z</time>
      </trkpt>
      <trkpt lat="43.97279" lon="7.08125">
        <ele>964.8</ele>
        <time>2012-11-24T12:47:24Z</time>
      </trkpt>
      <trkpt lat="43.9728" lon="7.08126">
        <ele>965.3</ele>
        <time>2012-11-24T12:47:25Z</time>
      </trkpt>
      <trkpt lat="43.97292" lon="7.0814">
        <ele>967.6</ele>
        <time>2012-11-24T12:47:37Z</time>
      </trkpt>
      <trkpt lat="43.97299" lon="7.08144">
        <ele>969.2</ele>
        <time>2012-11-24T12:47:43Z</time>
      </trkpt>
      <trkpt lat="43.97308" lon="7.08146">
        <ele>969.9</ele>
        <time>2012-11-24T12:47:49Z</time>
      </trkpt>
      <trkpt lat="43.97316" lon="7.0815">
        <ele>970.5</ele>
        <time>2012-11-24T12:47:55Z</time>
      </trkpt>
      <trkpt lat="43.97322" lon="7.0816">
        <ele>971.3</ele>
        <time>2012-11-24T12:48:02Z</time>
      </trkpt>
      <trkpt lat="43.97327" lon="7.08168">
        <ele>972.9</ele>
        <time>2012-11-24T12:48:08Z</time>
      </trkpt>
      <trkpt lat="43.97333" lon="7.08161">
        <ele>974</ele>
        <time>2012-11-24T12:48:17Z</time>
      </trkpt>
      <trkpt lat="43.97334" lon="7.08149">
        <ele>975.8</ele>
        <time>2012-11-24T12:48:25Z</time>
      </trkpt>
      <trkpt lat="43.97334" lon="7.08147">
        <ele>976</ele>
        <time>2012-11-24T12:48:26Z</time>
      </trkpt>
      <trkpt lat="43.97336" lon="7.08126">
        <ele>978.3</ele>
        <time>2012-11-24T12:48:39Z</time>
      </trkpt>
      <trkpt lat="43.97336" lon="7.08115">
        <ele>980.2</ele>
        <time>2012-11-24T12:48:46Z</time>
      </trkpt>
      <trkpt lat="43.97334" lon="7.08103">
        <ele>981.7</ele>
        <time>2012-11-24T12:48:53Z</time>
      </trkpt>
      <trkpt lat="43.97334" lon="7.08091">
        <ele>982.8</ele>
        <time>2012-11-24T12:49:00Z</time>
      </trkpt>
      <trkpt lat="43.97332" lon="7.08079">
        <ele>984.9</ele>
        <time>2012-11-24T12:49:08Z</time>
      </trkpt>
      <trkpt lat="43.97328" lon="7.08068">
        <ele>986.5</ele>
        <time>2012-11-24T12:49:15Z</time>
      </trkpt>
      <trkpt lat="43.97328" lon="7.08056">
        <ele>987.3</ele>
        <time>2012-11-24T12:49:22Z</time>
      </trkpt>
      <trkpt lat="43.97332" lon="7.08046">
        <ele>988.5</ele>
        <time>2012-11-24T12:49:29Z</time>
      </trkpt>
      <trkpt lat="43.97333" lon="7.08045">
        <ele>988.8</ele>
        <time>2012-11-24T12:49:30Z</time>
      </trkpt>
      <trkpt lat="43.97343" lon="7.08061">
        <ele>991.3</ele>
        <time>2012-11-24T12:49:44Z</time>
      </trkpt>
      <trkpt lat="43.97349" lon="7.08069">
        <ele>991.3</ele>
        <time>2012-11-24T12:49:51Z</time>
      </trkpt>
      <trkpt lat="43.97357" lon="7.08073">
        <ele>993.7</ele>
        <time>2012-11-24T12:49:58Z</time>
      </trkpt>
      <trkpt lat="43.97364" lon="7.08079">
        <ele>994.1</ele>
        <time>2012-11-24T12:50:04Z</time>
      </trkpt>
      <trkpt lat="43.97372" lon="7.08083">
        <ele>995</ele>
        <time>2012-11-24T12:50:10Z</time>
      </trkpt>
      <trkpt lat="43.9738" lon="7.08085">
        <ele>997.5</ele>
        <time>2012-11-24T12:50:17Z</time>
      </trkpt>
      <trkpt lat="43.97378" lon="7.08074">
        <ele>998.9</ele>
        <time>2012-11-24T12:50:28Z</time>
      </trkpt>
      <trkpt lat="43.97372" lon="7.08065">
        <ele>1000.2</ele>
        <time>2012-11-24T12:50:35Z</time>
      </trkpt>
      <trkpt lat="43.97371" lon="7.08064">
        <ele>1000.6</ele>
        <time>2012-11-24T12:50:36Z</time>
      </trkpt>
      <trkpt lat="43.97368" lon="7.08043">
        <ele>1003.9</ele>
        <time>2012-11-24T12:50:49Z</time>
      </trkpt>
      <trkpt lat="43.97368" lon="7.08032">
        <ele>1005.1</ele>
        <time>2012-11-24T12:50:56Z</time>
      </trkpt>
      <trkpt lat="43.97367" lon="7.08021">
        <ele>1006.4</ele>
        <time>2012-11-24T12:51:03Z</time>
      </trkpt>
      <trkpt lat="43.97367" lon="7.08009">
        <ele>1007.9</ele>
        <time>2012-11-24T12:51:10Z</time>
      </trkpt>
      <trkpt lat="43.97365" lon="7.07997">
        <ele>1009.9</ele>
        <time>2012-11-24T12:51:17Z</time>
      </trkpt>
      <trkpt lat="43.97363" lon="7.07986">
        <ele>1010.5</ele>
        <time>2012-11-24T12:51:22Z</time>
      </trkpt>
      <trkpt lat="43.97364" lon="7.07974">
        <ele>1012</ele>
        <time>2012-11-24T12:51:29Z</time>
      </trkpt>
      <trkpt lat="43.9736" lon="7.07963">
        <ele>1013.5</ele>
        <time>2012-11-24T12:51:35Z</time>
      </trkpt>
      <trkpt lat="43.97356" lon="7.07954">
        <ele>1014.1</ele>
        <time>2012-11-24T12:51:41Z</time>
      </trkpt>
      <trkpt lat="43.97356" lon="7.07952">
        <ele>1014.4</ele>
        <time>2012-11-24T12:51:42Z</time>
      </trkpt>
      <trkpt lat="43.97348" lon="7.07935">
        <ele>1016.7</ele>
        <time>2012-11-24T12:51:54Z</time>
      </trkpt>
      <trkpt lat="43.97339" lon="7.07937">
        <ele>1018.7</ele>
        <time>2012-11-24T12:52:02Z</time>
      </trkpt>
      <trkpt lat="43.97332" lon="7.0794">
        <ele>1020.4</ele>
        <time>2012-11-24T12:52:09Z</time>
      </trkpt>
      <trkpt lat="43.97324" lon="7.07942">
        <ele>1020.5</ele>
        <time>2012-11-24T12:52:15Z</time>
      </trkpt>
      <trkpt lat="43.97316" lon="7.07947">
        <ele>1022</ele>
        <time>2012-11-24T12:52:22Z</time>
      </trkpt>
      <trkpt lat="43.97308" lon="7.07953">
        <ele>1023.6</ele>
        <time>2012-11-24T12:52:28Z</time>
      </trkpt>
      <trkpt lat="43.97308" lon="7.07941">
        <ele>1025.3</ele>
        <time>2012-11-24T12:52:44Z</time>
      </trkpt>
      <trkpt lat="43.97309" lon="7.0794">
        <ele>1025.8</ele>
        <time>2012-11-24T12:52:45Z</time>
      </trkpt>
      <trkpt lat="43.97318" lon="7.07921">
        <ele>1029</ele>
        <time>2012-11-24T12:52:58Z</time>
      </trkpt>
      <trkpt lat="43.97321" lon="7.07911">
        <ele>1030.6</ele>
        <time>2012-11-24T12:53:05Z</time>
      </trkpt>
      <trkpt lat="43.97326" lon="7.07902">
        <ele>1032.3</ele>
        <time>2012-11-24T12:53:12Z</time>
      </trkpt>
      <trkpt lat="43.97331" lon="7.07893">
        <ele>1032.7</ele>
        <time>2012-11-24T12:53:19Z</time>
      </trkpt>
      <trkpt lat="43.97336" lon="7.07884">
        <ele>1034.5</ele>
        <time>2012-11-24T12:53:26Z</time>
      </trkpt>
      <trkpt lat="43.97341" lon="7.07874">
        <ele>1036.8</ele>
        <time>2012-11-24T12:53:33Z</time>
      </trkpt>
      <trkpt lat="43.97346" lon="7.07864">
        <ele>1037.3</ele>
        <time>2012-11-24T12:53:40Z</time>
      </trkpt>
      <trkpt lat="43.97355" lon="7.07863">
        <ele>1037.7</ele>
        <time>2012-11-24T12:53:47Z</time>
      </trkpt>
      <trkpt lat="43.97356" lon="7.07864">
        <ele>1037.7</ele>
        <time>2012-11-24T12:53:48Z</time>
      </trkpt>
      <trkpt lat="43.97368" lon="7.07877">
        <ele>1041.3</ele>
        <time>2012-11-24T12:54:01Z</time>
      </trkpt>
      <trkpt lat="43.97375" lon="7.07884">
        <ele>1042.3</ele>
        <time>2012-11-24T12:54:08Z</time>
      </trkpt>
      <trkpt lat="43.97382" lon="7.07889">
        <ele>1044</ele>
        <time>2012-11-24T12:54:15Z</time>
      </trkpt>
      <trkpt lat="43.97389" lon="7.07895">
        <ele>1045.5</ele>
        <time>2012-11-24T12:54:22Z</time>
      </trkpt>
      <trkpt lat="43.97395" lon="7.07904">
        <ele>1046.9</ele>
        <time>2012-11-24T12:54:29Z</time>
      </trkpt>
      <trkpt lat="43.97402" lon="7.07911">
        <ele>1048.1</ele>
        <time>2012-11-24T12:54:36Z</time>
      </trkpt>
      <trkpt lat="43.97409" lon="7.07918">
        <ele>1049.5</ele>
        <time>2012-11-24T12:54:43Z</time>
      </trkpt>
      <trkpt lat="43.97415" lon="7.07924">
        <ele>1050.1</ele>
        <time>2012-11-24T12:54:49Z</time>
      </trkpt>
      <trkpt lat="43.97416" lon="7.07925">
        <ele>1050.5</ele>
        <time>2012-11-24T12:54:50Z</time>
      </trkpt>
      <trkpt lat="43.97426" lon="7.0794">
        <ele>1052.2</ele>
        <time>2012-11-24T12:55:01Z</time>
      </trkpt>
      <trkpt lat="43.97432" lon="7.07947">
        <ele>1053.8</ele>
        <time>2012-11-24T12:55:07Z</time>
      </trkpt>
      <trkpt lat="43.9744" lon="7.07952">
        <ele>1054.9</ele>
        <time>2012-11-24T12:55:14Z</time>
      </trkpt>
      <trkpt lat="43.97448" lon="7.0795">
        <ele>1057.1</ele>
        <time>2012-11-24T12:55:21Z</time>
      </trkpt>
      <trkpt lat="43.97456" lon="7.07946">
        <ele>1059.1</ele>
        <time>2012-11-24T12:55:29Z</time>
      </trkpt>
      <trkpt lat="43.97463" lon="7.07939">
        <ele>1060.4</ele>
        <time>2012-11-24T12:55:36Z</time>
      </trkpt>
      <trkpt lat="43.9747" lon="7.07931">
        <ele>1061.9</ele>
        <time>2012-11-24T12:55:44Z</time>
      </trkpt>
      <trkpt lat="43.97477" lon="7.07925">
        <ele>1063.9</ele>
        <time>2012-11-24T12:55:52Z</time>
      </trkpt>
      <trkpt lat="43.97478" lon="7.07924">
        <ele>1063.9</ele>
        <time>2012-11-24T12:55:53Z</time>
      </trkpt>
      <trkpt lat="43.97491" lon="7.07915">
        <ele>1066.5</ele>
        <time>2012-11-24T12:56:06Z</time>
      </trkpt>
      <trkpt lat="43.97497" lon="7.07907">
        <ele>1068</ele>
        <time>2012-11-24T12:56:13Z</time>
      </trkpt>
      <trkpt lat="43.97503" lon="7.07899">
        <ele>1068.6</ele>
        <time>2012-11-24T12:56:19Z</time>
      </trkpt>
      <trkpt lat="43.9751" lon="7.07894">
        <ele>1069.1</ele>
        <time>2012-11-24T12:56:24Z</time>
      </trkpt>
      <trkpt lat="43.97517" lon="7.0789">
        <ele>1070.3</ele>
        <time>2012-11-24T12:56:29Z</time>
      </trkpt>
      <trkpt lat="43.97523" lon="7.07884">
        <ele>1070.5</ele>
        <time>2012-11-24T12:56:33Z</time>
      </trkpt>
      <trkpt lat="43.9753" lon="7.0788">
        <ele>1071.3</ele>
        <time>2012-11-24T12:56:37Z</time>
      </trkpt>
      <trkpt lat="43.97537" lon="7.07877">
        <ele>1071.5</ele>
        <time>2012-11-24T12:56:41Z</time>
      </trkpt>
      <trkpt lat="43.97545" lon="7.07874">
        <ele>1071.6</ele>
        <time>2012-11-24T12:56:46Z</time>
      </trkpt>
      <trkpt lat="43.97552" lon="7.07872">
        <ele>1073.1</ele>
        <time>2012-11-24T12:56:51Z</time>
      </trkpt>
      <trkpt lat="43.9756" lon="7.07876">
        <ele>1073.8</ele>
        <time>2012-11-24T12:56:57Z</time>
      </trkpt>
      <trkpt lat="43.97561" lon="7.07877">
        <ele>1074.1</ele>
        <time>2012-11-24T12:56:58Z</time>
      </trkpt>
      <trkpt lat="43.97575" lon="7.07881">
        <ele>1076.5</ele>
        <time>2012-11-24T12:57:10Z</time>
      </trkpt>
      <trkpt lat="43.97582" lon="7.07875">
        <ele>1078.8</ele>
        <time>2012-11-24T12:57:17Z</time>
      </trkpt>
      <trkpt lat="43.97589" lon="7.07867">
        <ele>1081.2</ele>
        <time>2012-11-24T12:57:24Z</time>
      </trkpt>
      <trkpt lat="43.97596" lon="7.07862">
        <ele>1080.9</ele>
        <time>2012-11-24T12:57:31Z</time>
      </trkpt>
      <trkpt lat="43.97603" lon="7.07856">
        <ele>1083.6</ele>
        <time>2012-11-24T12:57:38Z</time>
      </trkpt>
      <trkpt lat="43.97609" lon="7.07848">
        <ele>1084.2</ele>
        <time>2012-11-24T12:57:44Z</time>
      </trkpt>
      <trkpt lat="43.97615" lon="7.07839">
        <ele>1085.8</ele>
        <time>2012-11-24T12:57:51Z</time>
      </trkpt>
      <trkpt lat="43.97621" lon="7.07832">
        <ele>1087</ele>
        <time>2012-11-24T12:57:58Z</time>
      </trkpt>
      <trkpt lat="43.97623" lon="7.07831">
        <ele>1086.9</ele>
        <time>2012-11-24T12:57:59Z</time>
      </trkpt>
      <trkpt lat="43.97634" lon="7.07818">
        <ele>1090.4</ele>
        <time>2012-11-24T12:58:11Z</time>
      </trkpt>
      <trkpt lat="43.97641" lon="7.07812">
        <ele>1092.1</ele>
        <time>2012-11-24T12:58:17Z</time>
      </trkpt>
      <trkpt lat="43.97648" lon="7.07804">
        <ele>1093.4</ele>
        <time>2012-11-24T12:58:24Z</time>
      </trkpt>
      <trkpt lat="43.97654" lon="7.07796">
        <ele>1094.6</ele>
        <time>2012-11-24T12:58:31Z</time>
      </trkpt>
      <trkpt lat="43.9766" lon="7.07789">
        <ele>1095.6</ele>
        <time>2012-11-24T12:58:38Z</time>
      </trkpt>
      <trkpt lat="43.97668" lon="7.07782">
        <ele>1097</ele>
        <time>2012-11-24T12:58:45Z</time>
      </trkpt>
      <trkpt lat="43.97675" lon="7.07776">
        <ele>1098.6</ele>
        <time>2012-11-24T12:58:51Z</time>
      </trkpt>
      <trkpt lat="43.97682" lon="7.0777">
        <ele>1100.3</ele>
        <time>2012-11-24T12:58:58Z</time>
      </trkpt>
      <trkpt lat="43.97689" lon="7.07764">
        <ele>1100.8</ele>
        <time>2012-11-24T12:59:05Z</time>
      </trkpt>
      <trkpt lat="43.9769" lon="7.07763">
        <ele>1100.9</ele>
        <time>2012-11-24T12:59:06Z</time>
      </trkpt>
      <trkpt lat="43.97701" lon="7.07749">
        <ele>1104.6</ele>
        <time>2012-11-24T12:59:18Z</time>
      </trkpt>
      <trkpt lat="43.97708" lon="7.07741">
        <ele>1105.6</ele>
        <time>2012-11-24T12:59:25Z</time>
      </trkpt>
      <trkpt lat="43.97715" lon="7.07735">
        <ele>1106.6</ele>
        <time>2012-11-24T12:59:31Z</time>
      </trkpt>
      <trkpt lat="43.97723" lon="7.07729">
        <ele>1107.3</ele>
        <time>2012-11-24T12:59:37Z</time>
      </trkpt>
      <trkpt lat="43.9773" lon="7.07723">
        <ele>1107.4</ele>
        <time>2012-11-24T12:59:42Z</time>
      </trkpt>
      <trkpt lat="43.97736" lon="7.07718">
        <ele>1108</ele>
        <time>2012-11-24T12:59:46Z</time>
      </trkpt>
      <trkpt lat="43.97744" lon="7.07712">
        <ele>1109.1</ele>
        <time>2012-11-24T12:59:50Z</time>
      </trkpt>
      <trkpt lat="43.97751" lon="7.07708">
        <ele>1109.5</ele>
        <time>2012-11-24T12:59:54Z</time>
      </trkpt>
      <trkpt lat="43.97759" lon="7.07703">
        <ele>1109.7</ele>
        <time>2012-11-24T12:59:58Z</time>
      </trkpt>
      <trkpt lat="43.97766" lon="7.07699">
        <ele>1111</ele>
        <time>2012-11-24T13:00:02Z</time>
      </trkpt>
      <trkpt lat="43.97774" lon="7.07696">
        <ele>1111</ele>
        <time>2012-11-24T13:00:06Z</time>
      </trkpt>
      <trkpt lat="43.97776" lon="7.07695">
        <ele>1111.1</ele>
        <time>2012-11-24T13:00:07Z</time>
      </trkpt>
      <trkpt lat="43.97789" lon="7.0769">
        <ele>1112.9</ele>
        <time>2012-11-24T13:00:15Z</time>
      </trkpt>
      <trkpt lat="43.97797" lon="7.07687">
        <ele>1113.2</ele>
        <time>2012-11-24T13:00:20Z</time>
      </trkpt>
      <trkpt lat="43.97804" lon="7.07682">
        <ele>1113.5</ele>
        <time>2012-11-24T13:00:26Z</time>
      </trkpt>
      <trkpt lat="43.9781" lon="7.07674">
        <ele>1114.4</ele>
        <time>2012-11-24T13:00:32Z</time>
      </trkpt>
      <trkpt lat="43.97816" lon="7.07666">
        <ele>1117</ele>
        <time>2012-11-24T13:00:38Z</time>
      </trkpt>
      <trkpt lat="43.97823" lon="7.07661">
        <ele>1118.2</ele>
        <time>2012-11-24T13:00:43Z</time>
      </trkpt>
      <trkpt lat="43.97829" lon="7.07656">
        <ele>1119.3</ele>
        <time>2012-11-24T13:00:48Z</time>
      </trkpt>
      <trkpt lat="43.97836" lon="7.07652">
        <ele>1119.8</ele>
        <time>2012-11-24T13:00:53Z</time>
      </trkpt>
      <trkpt lat="43.97845" lon="7.07648">
        <ele>1120.5</ele>
        <time>2012-11-24T13:00:59Z</time>
      </trkpt>
      <trkpt lat="43.97852" lon="7.07644">
        <ele>1120.3</ele>
        <time>2012-11-24T13:01:03Z</time>
      </trkpt>
      <trkpt lat="43.97859" lon="7.0764">
        <ele>1120.7</ele>
        <time>2012-11-24T13:01:08Z</time>
      </trkpt>
      <trkpt lat="43.97861" lon="7.07639">
        <ele>1120.5</ele>
        <time>2012-11-24T13:01:09Z</time>
      </trkpt>
      <trkpt lat="43.97875" lon="7.07635">
        <ele>1120.2</ele>
        <time>2012-11-24T13:01:16Z</time>
      </trkpt>
      <trkpt lat="43.97883" lon="7.07633">
        <ele>1120.1</ele>
        <time>2012-11-24T13:01:20Z</time>
      </trkpt>
      <trkpt lat="43.9789" lon="7.07632">
        <ele>1120.7</ele>
        <time>2012-11-24T13:01:23Z</time>
      </trkpt>
      <trkpt lat="43.97899" lon="7.07633">
        <ele>1120.7</ele>
        <time>2012-11-24T13:01:27Z</time>
      </trkpt>
      <trkpt lat="43.97908" lon="7.07634">
        <ele>1120.9</ele>
        <time>2012-11-24T13:01:31Z</time>
      </trkpt>
      <trkpt lat="43.97915" lon="7.07636">
        <ele>1121.2</ele>
        <time>2012-11-24T13:01:34Z</time>
      </trkpt>
      <trkpt lat="43.97922" lon="7.07639">
        <ele>1121.6</ele>
        <time>2012-11-24T13:01:37Z</time>
      </trkpt>
      <trkpt lat="43.9793" lon="7.07643">
        <ele>1123.5</ele>
        <time>2012-11-24T13:01:41Z</time>
      </trkpt>
      <trkpt lat="43.97938" lon="7.07646">
        <ele>1123.4</ele>
        <time>2012-11-24T13:01:45Z</time>
      </trkpt>
      <trkpt lat="43.97946" lon="7.07648">
        <ele>1124.4</ele>
        <time>2012-11-24T13:01:49Z</time>
      </trkpt>
      <trkpt lat="43.97953" lon="7.07649">
        <ele>1125</ele>
        <time>2012-11-24T13:01:53Z</time>
      </trkpt>
      <trkpt lat="43.97962" lon="7.07651">
        <ele>1125.9</ele>
        <time>2012-11-24T13:01:58Z</time>
      </trkpt>
      <trkpt lat="43.97967" lon="7.07642">
        <ele>1128.5</ele>
        <time>2012-11-24T13:02:06Z</time>
      </trkpt>
      <trkpt lat="43.97963" lon="7.07632">
        <ele>1128.6</ele>
        <time>2012-11-24T13:02:13Z</time>
      </trkpt>
      <trkpt lat="43.97963" lon="7.07631">
        <ele>1129.1</ele>
        <time>2012-11-24T13:02:14Z</time>
      </trkpt>
      <trkpt lat="43.97954" lon="7.07613">
        <ele>1131.4</ele>
        <time>2012-11-24T13:02:26Z</time>
      </trkpt>
      <trkpt lat="43.97948" lon="7.07606">
        <ele>1133.4</ele>
        <time>2012-11-24T13:02:32Z</time>
      </trkpt>
      <trkpt lat="43.9794" lon="7.07602">
        <ele>1134.5</ele>
        <time>2012-11-24T13:02:39Z</time>
      </trkpt>
      <trkpt lat="43.97932" lon="7.07597">
        <ele>1134.4</ele>
        <time>2012-11-24T13:02:55Z</time>
      </trkpt>
      <trkpt lat="43.97931" lon="7.07585">
        <ele>1136.6</ele>
        <time>2012-11-24T13:03:08Z</time>
      </trkpt>
      <trkpt lat="43.97932" lon="7.07573">
        <ele>1137</ele>
        <time>2012-11-24T13:03:24Z</time>
      </trkpt>
      <trkpt lat="43.97933" lon="7.07573">
        <ele>1137</ele>
        <time>2012-11-24T13:03:25Z</time>
      </trkpt>
      <trkpt lat="43.97939" lon="7.07581">
        <ele>1138.5</ele>
        <time>2012-11-24T13:09:00Z</time>
      </trkpt>
      <trkpt lat="43.97955" lon="7.07583">
        <ele>1141.1</ele>
        <time>2012-11-24T13:09:18Z</time>
      </trkpt>
      <trkpt lat="43.97964" lon="7.07583">
        <ele>1142.7</ele>
        <time>2012-11-24T13:09:30Z</time>
      </trkpt>
      <trkpt lat="43.97973" lon="7.07582">
        <ele>1146</ele>
        <time>2012-11-24T13:09:49Z</time>
      </trkpt>
      <trkpt lat="43.97981" lon="7.07586">
        <ele>1148.4</ele>
        <time>2012-11-24T13:10:02Z</time>
      </trkpt>
      <trkpt lat="43.97982" lon="7.07586">
        <ele>1148.6</ele>
        <time>2012-11-24T13:10:03Z</time>
      </trkpt>
      <trkpt lat="43.97998" lon="7.07584">
        <ele>1153.4</ele>
        <time>2012-11-24T13:10:28Z</time>
      </trkpt>
      <trkpt lat="43.98007" lon="7.0758">
        <ele>1155.1</ele>
        <time>2012-11-24T13:10:40Z</time>
      </trkpt>
      <trkpt lat="43.98015" lon="7.07577">
        <ele>1155.8</ele>
        <time>2012-11-24T13:10:45Z</time>
      </trkpt>
      <trkpt lat="43.98023" lon="7.07577">
        <ele>1155.7</ele>
        <time>2012-11-24T13:10:49Z</time>
      </trkpt>
      <trkpt lat="43.9803" lon="7.07577">
        <ele>1156.6</ele>
        <time>2012-11-24T13:10:53Z</time>
      </trkpt>
      <trkpt lat="43.98039" lon="7.07574">
        <ele>1157.2</ele>
        <time>2012-11-24T13:10:58Z</time>
      </trkpt>
      <trkpt lat="43.98046" lon="7.07569">
        <ele>1158</ele>
        <time>2012-11-24T13:11:02Z</time>
      </trkpt>
      <trkpt lat="43.98053" lon="7.07563">
        <ele>1158.1</ele>
        <time>2012-11-24T13:11:06Z</time>
      </trkpt>
      <trkpt lat="43.98054" lon="7.0756">
        <ele>1158.3</ele>
        <time>2012-11-24T13:11:07Z</time>
      </trkpt>
      <trkpt lat="43.98062" lon="7.07547">
        <ele>1157.1</ele>
        <time>2012-11-24T13:11:12Z</time>
      </trkpt>
      <trkpt lat="43.98067" lon="7.0754">
        <ele>1157.4</ele>
        <time>2012-11-24T13:11:15Z</time>
      </trkpt>
      <trkpt lat="43.98074" lon="7.07534">
        <ele>1157.4</ele>
        <time>2012-11-24T13:11:18Z</time>
      </trkpt>
      <trkpt lat="43.9808" lon="7.0753">
        <ele>1157.5</ele>
        <time>2012-11-24T13:11:21Z</time>
      </trkpt>
      <trkpt lat="43.98086" lon="7.07523">
        <ele>1158.3</ele>
        <time>2012-11-24T13:11:24Z</time>
      </trkpt>
      <trkpt lat="43.98091" lon="7.07515">
        <ele>1158.5</ele>
        <time>2012-11-24T13:11:27Z</time>
      </trkpt>
      <trkpt lat="43.98097" lon="7.0751">
        <ele>1159.4</ele>
        <time>2012-11-24T13:11:30Z</time>
      </trkpt>
      <trkpt lat="43.98102" lon="7.07503">
        <ele>1158.9</ele>
        <time>2012-11-24T13:11:33Z</time>
      </trkpt>
      <trkpt lat="43.98107" lon="7.07496">
        <ele>1159.3</ele>
        <time>2012-11-24T13:11:36Z</time>
      </trkpt>
      <trkpt lat="43.98113" lon="7.0749">
        <ele>1159.7</ele>
        <time>2012-11-24T13:11:39Z</time>
      </trkpt>
      <trkpt lat="43.98119" lon="7.07485">
        <ele>1159.8</ele>
        <time>2012-11-24T13:11:42Z</time>
      </trkpt>
      <trkpt lat="43.98126" lon="7.07479">
        <ele>1160.3</ele>
        <time>2012-11-24T13:11:46Z</time>
      </trkpt>
      <trkpt lat="43.98131" lon="7.07472">
        <ele>1160.1</ele>
        <time>2012-11-24T13:11:55Z</time>
      </trkpt>
      <trkpt lat="43.98138" lon="7.07465">
        <ele>1160.8</ele>
        <time>2012-11-24T13:12:00Z</time>
      </trkpt>
      <trkpt lat="43.98141" lon="7.07455">
        <ele>1160.9</ele>
        <time>2012-11-24T13:12:04Z</time>
      </trkpt>
      <trkpt lat="43.98143" lon="7.07443">
        <ele>1161.1</ele>
        <time>2012-11-24T13:12:08Z</time>
      </trkpt>
      <trkpt lat="43.98144" lon="7.0744">
        <ele>1161.2</ele>
        <time>2012-11-24T13:12:09Z</time>
      </trkpt>
      <trkpt lat="43.9815" lon="7.07425">
        <ele>1161.8</ele>
        <time>2012-11-24T13:12:14Z</time>
      </trkpt>
      <trkpt lat="43.98151" lon="7.07415">
        <ele>1161.9</ele>
        <time>2012-11-24T13:12:17Z</time>
      </trkpt>
      <trkpt lat="43.98152" lon="7.07404">
        <ele>1162.6</ele>
        <time>2012-11-24T13:12:20Z</time>
      </trkpt>
      <trkpt lat="43.98156" lon="7.07393">
        <ele>1162.5</ele>
        <time>2012-11-24T13:12:23Z</time>
      </trkpt>
      <trkpt lat="43.98158" lon="7.07382">
        <ele>1162</ele>
        <time>2012-11-24T13:12:26Z</time>
      </trkpt>
      <trkpt lat="43.98162" lon="7.07374">
        <ele>1162.1</ele>
        <time>2012-11-24T13:12:28Z</time>
      </trkpt>
      <trkpt lat="43.98166" lon="7.07367">
        <ele>1161.7</ele>
        <time>2012-11-24T13:12:30Z</time>
      </trkpt>
      <trkpt lat="43.98172" lon="7.07363">
        <ele>1161.4</ele>
        <time>2012-11-24T13:12:32Z</time>
      </trkpt>
      <trkpt lat="43.98177" lon="7.07357">
        <ele>1161.1</ele>
        <time>2012-11-24T13:12:34Z</time>
      </trkpt>
      <trkpt lat="43.98182" lon="7.07349">
        <ele>1160.9</ele>
        <time>2012-11-24T13:12:36Z</time>
      </trkpt>
      <trkpt lat="43.98188" lon="7.07342">
        <ele>1160.6</ele>
        <time>2012-11-24T13:12:38Z</time>
      </trkpt>
      <trkpt lat="43.98194" lon="7.07337">
        <ele>1160.4</ele>
        <time>2012-11-24T13:12:40Z</time>
      </trkpt>
      <trkpt lat="43.98201" lon="7.07336">
        <ele>1159.7</ele>
        <time>2012-11-24T13:12:42Z</time>
      </trkpt>
      <trkpt lat="43.9821" lon="7.07335">
        <ele>1158.8</ele>
        <time>2012-11-24T13:12:45Z</time>
      </trkpt>
      <trkpt lat="43.98219" lon="7.07331">
        <ele>1158.4</ele>
        <time>2012-11-24T13:12:48Z</time>
      </trkpt>
      <trkpt lat="43.98227" lon="7.07331">
        <ele>1159.1</ele>
        <time>2012-11-24T13:12:52Z</time>
      </trkpt>
      <trkpt lat="43.98235" lon="7.07326">
        <ele>1158.8</ele>
        <time>2012-11-24T13:12:57Z</time>
      </trkpt>
      <trkpt lat="43.98242" lon="7.07319">
        <ele>1158.7</ele>
        <time>2012-11-24T13:13:10Z</time>
      </trkpt>
      <trkpt lat="43.98243" lon="7.07319">
        <ele>1159.2</ele>
        <time>2012-11-24T13:13:11Z</time>
      </trkpt>
      <trkpt lat="43.98256" lon="7.07308">
        <ele>1159.2</ele>
        <time>2012-11-24T13:13:40Z</time>
      </trkpt>
      <trkpt lat="43.98264" lon="7.0731">
        <ele>1159.8</ele>
        <time>2012-11-24T13:13:45Z</time>
      </trkpt>
      <trkpt lat="43.98272" lon="7.07314">
        <ele>1160.2</ele>
        <time>2012-11-24T13:13:49Z</time>
      </trkpt>
      <trkpt lat="43.9828" lon="7.07318">
        <ele>1160.1</ele>
        <time>2012-11-24T13:13:52Z</time>
      </trkpt>
      <trkpt lat="43.98286" lon="7.07322">
        <ele>1160.8</ele>
        <time>2012-11-24T13:13:55Z</time>
      </trkpt>
      <trkpt lat="43.98292" lon="7.07327">
        <ele>1161.4</ele>
        <time>2012-11-24T13:13:58Z</time>
      </trkpt>
      <trkpt lat="43.98298" lon="7.07331">
        <ele>1162.1</ele>
        <time>2012-11-24T13:14:01Z</time>
      </trkpt>
      <trkpt lat="43.98305" lon="7.07335">
        <ele>1162.6</ele>
        <time>2012-11-24T13:14:04Z</time>
      </trkpt>
      <trkpt lat="43.9831" lon="7.07344">
        <ele>1162.8</ele>
        <time>2012-11-24T13:14:09Z</time>
      </trkpt>
      <trkpt lat="43.98312" lon="7.07355">
        <ele>1164</ele>
        <time>2012-11-24T13:14:14Z</time>
      </trkpt>
      <trkpt lat="43.98312" lon="7.07357">
        <ele>1164.2</ele>
        <time>2012-11-24T13:14:15Z</time>
      </trkpt>
      <trkpt lat="43.98324" lon="7.07364">
        <ele>1165.9</ele>
        <time>2012-11-24T13:14:23Z</time>
      </trkpt>
      <trkpt lat="43.98332" lon="7.0736">
        <ele>1166.2</ele>
        <time>2012-11-24T13:14:28Z</time>
      </trkpt>
      <trkpt lat="43.98338" lon="7.07367">
        <ele>1165.6</ele>
        <time>2012-11-24T13:14:32Z</time>
      </trkpt>
      <trkpt lat="43.98347" lon="7.07363">
        <ele>1165.3</ele>
        <time>2012-11-24T13:14:36Z</time>
      </trkpt>
      <trkpt lat="43.98353" lon="7.07356">
        <ele>1164</ele>
        <time>2012-11-24T13:14:39Z</time>
      </trkpt>
      <trkpt lat="43.9836" lon="7.07356">
        <ele>1163.6</ele>
        <time>2012-11-24T13:14:42Z</time>
      </trkpt>
      <trkpt lat="43.98365" lon="7.07366">
        <ele>1164</ele>
        <time>2012-11-24T13:14:48Z</time>
      </trkpt>
      <trkpt lat="43.98374" lon="7.07364">
        <ele>1164</ele>
        <time>2012-11-24T13:14:58Z</time>
      </trkpt>
      <trkpt lat="43.9838" lon="7.07358">
        <ele>1163.5</ele>
        <time>2012-11-24T13:15:01Z</time>
      </trkpt>
      <trkpt lat="43.98384" lon="7.07351">
        <ele>1163.4</ele>
        <time>2012-11-24T13:15:03Z</time>
      </trkpt>
      <trkpt lat="43.9839" lon="7.07345">
        <ele>1163.3</ele>
        <time>2012-11-24T13:15:05Z</time>
      </trkpt>
      <trkpt lat="43.98395" lon="7.07341">
        <ele>1162.8</ele>
        <time>2012-11-24T13:15:07Z</time>
      </trkpt>
      <trkpt lat="43.98402" lon="7.07339">
        <ele>1163.3</ele>
        <time>2012-11-24T13:15:09Z</time>
      </trkpt>
      <trkpt lat="43.9841" lon="7.0734">
        <ele>1161.7</ele>
        <time>2012-11-24T13:15:13Z</time>
      </trkpt>
      <trkpt lat="43.98417" lon="7.07342">
        <ele>1161.1</ele>
        <time>2012-11-24T13:15:16Z</time>
      </trkpt>
      <trkpt lat="43.9842" lon="7.07342">
        <ele>1160.6</ele>
        <time>2012-11-24T13:15:17Z</time>
      </trkpt>
      <trkpt lat="43.9843" lon="7.07344">
        <ele>1160</ele>
        <time>2012-11-24T13:15:20Z</time>
      </trkpt>
      <trkpt lat="43.98438" lon="7.07344">
        <ele>1160.1</ele>
        <time>2012-11-24T13:15:23Z</time>
      </trkpt>
      <trkpt lat="43.98445" lon="7.07344">
        <ele>1159.5</ele>
        <time>2012-11-24T13:15:26Z</time>
      </trkpt>
      <trkpt lat="43.98452" lon="7.0735">
        <ele>1159.8</ele>
        <time>2012-11-24T13:15:29Z</time>
      </trkpt>
      <trkpt lat="43.98458" lon="7.07357">
        <ele>1159.9</ele>
        <time>2012-11-24T13:15:33Z</time>
      </trkpt>
      <trkpt lat="43.98463" lon="7.07366">
        <ele>1159.1</ele>
        <time>2012-11-24T13:15:36Z</time>
      </trkpt>
      <trkpt lat="43.98472" lon="7.07367">
        <ele>1159.2</ele>
        <time>2012-11-24T13:15:41Z</time>
      </trkpt>
      <trkpt lat="43.98478" lon="7.07359">
        <ele>1158.5</ele>
        <time>2012-11-24T13:15:44Z</time>
      </trkpt>
      <trkpt lat="43.98485" lon="7.07353">
        <ele>1157.7</ele>
        <time>2012-11-24T13:15:48Z</time>
      </trkpt>
      <trkpt lat="43.98492" lon="7.07352">
        <ele>1157.6</ele>
        <time>2012-11-24T13:16:08Z</time>
      </trkpt>
      <trkpt lat="43.98501" lon="7.0735">
        <ele>1156.7</ele>
        <time>2012-11-24T13:16:11Z</time>
      </trkpt>
      <trkpt lat="43.98508" lon="7.07355">
        <ele>1156.7</ele>
        <time>2012-11-24T13:16:14Z</time>
      </trkpt>
      <trkpt lat="43.98516" lon="7.07356">
        <ele>1156.5</ele>
        <time>2012-11-24T13:16:23Z</time>
      </trkpt>
      <trkpt lat="43.98518" lon="7.07355">
        <ele>1156.3</ele>
        <time>2012-11-24T13:16:24Z</time>
      </trkpt>
      <trkpt lat="43.98531" lon="7.07361">
        <ele>1152.9</ele>
        <time>2012-11-24T13:16:34Z</time>
      </trkpt>
      <trkpt lat="43.98539" lon="7.07361">
        <ele>1151.3</ele>
        <time>2012-11-24T13:16:38Z</time>
      </trkpt>
      <trkpt lat="43.98546" lon="7.07364">
        <ele>1149.9</ele>
        <time>2012-11-24T13:16:41Z</time>
      </trkpt>
      <trkpt lat="43.98554" lon="7.07368">
        <ele>1149.7</ele>
        <time>2012-11-24T13:16:44Z</time>
      </trkpt>
      <trkpt lat="43.98561" lon="7.07374">
        <ele>1149.2</ele>
        <time>2012-11-24T13:16:48Z</time>
      </trkpt>
      <trkpt lat="43.98568" lon="7.0738">
        <ele>1148</ele>
        <time>2012-11-24T13:16:57Z</time>
      </trkpt>
      <trkpt lat="43.98576" lon="7.07382">
        <ele>1147.8</ele>
        <time>2012-11-24T13:17:06Z</time>
      </trkpt>
      <trkpt lat="43.98583" lon="7.07376">
        <ele>1148.6</ele>
        <time>2012-11-24T13:17:13Z</time>
      </trkpt>
      <trkpt lat="43.98583" lon="7.07365">
        <ele>1147.4</ele>
        <time>2012-11-24T13:17:16Z</time>
      </trkpt>
      <trkpt lat="43.98585" lon="7.07356">
        <ele>1146.6</ele>
        <time>2012-11-24T13:17:19Z</time>
      </trkpt>
      <trkpt lat="43.9859" lon="7.07349">
        <ele>1145.3</ele>
        <time>2012-11-24T13:17:22Z</time>
      </trkpt>
      <trkpt lat="43.98595" lon="7.07343">
        <ele>1143.4</ele>
        <time>2012-11-24T13:17:26Z</time>
      </trkpt>
      <trkpt lat="43.98597" lon="7.0734">
        <ele>1143.1</ele>
        <time>2012-11-24T13:17:27Z</time>
      </trkpt>
      <trkpt lat="43.98604" lon="7.07326">
        <ele>1139.5</ele>
        <time>2012-11-24T13:17:33Z</time>
      </trkpt>
      <trkpt lat="43.98604" lon="7.07315">
        <ele>1138.7</ele>
        <time>2012-11-24T13:17:36Z</time>
      </trkpt>
      <trkpt lat="43.98604" lon="7.07305">
        <ele>1137.8</ele>
        <time>2012-11-24T13:17:39Z</time>
      </trkpt>
      <trkpt lat="43.98605" lon="7.07293">
        <ele>1137.6</ele>
        <time>2012-11-24T13:17:44Z</time>
      </trkpt>
      <trkpt lat="43.98606" lon="7.07284">
        <ele>1137.6</ele>
        <time>2012-11-24T13:17:48Z</time>
      </trkpt>
      <trkpt lat="43.986" lon="7.07275">
        <ele>1136</ele>
        <time>2012-11-24T13:17:55Z</time>
      </trkpt>
      <trkpt lat="43.98593" lon="7.07268">
        <ele>1132.2</ele>
        <time>2012-11-24T13:18:02Z</time>
      </trkpt>
      <trkpt lat="43.98591" lon="7.07258">
        <ele>1129.5</ele>
        <time>2012-11-24T13:18:06Z</time>
      </trkpt>
      <trkpt lat="43.98591" lon="7.07246">
        <ele>1127.5</ele>
        <time>2012-11-24T13:18:10Z</time>
      </trkpt>
      <trkpt lat="43.98589" lon="7.07236">
        <ele>1125.6</ele>
        <time>2012-11-24T13:18:13Z</time>
      </trkpt>
      <trkpt lat="43.98582" lon="7.0723">
        <ele>1121.5</ele>
        <time>2012-11-24T13:18:19Z</time>
      </trkpt>
      <trkpt lat="43.98581" lon="7.07218">
        <ele>1117.2</ele>
        <time>2012-11-24T13:18:25Z</time>
      </trkpt>
      <trkpt lat="43.98575" lon="7.0721">
        <ele>1113.2</ele>
        <time>2012-11-24T13:18:32Z</time>
      </trkpt>
      <trkpt lat="43.98575" lon="7.07205">
        <ele>1112.8</ele>
        <time>2012-11-24T13:18:33Z</time>
      </trkpt>
      <trkpt lat="43.98577" lon="7.07189">
        <ele>1108.6</ele>
        <time>2012-11-24T13:18:38Z</time>
      </trkpt>
      <trkpt lat="43.98579" lon="7.07178">
        <ele>1105.8</ele>
        <time>2012-11-24T13:18:41Z</time>
      </trkpt>
      <trkpt lat="43.98581" lon="7.07169">
        <ele>1104.4</ele>
        <time>2012-11-24T13:18:43Z</time>
      </trkpt>
      <trkpt lat="43.98583" lon="7.0716">
        <ele>1102.7</ele>
        <time>2012-11-24T13:18:45Z</time>
      </trkpt>
      <trkpt lat="43.98582" lon="7.07149">
        <ele>1099.1</ele>
        <time>2012-11-24T13:18:48Z</time>
      </trkpt>
      <trkpt lat="43.98575" lon="7.07148">
        <ele>1097.6</ele>
        <time>2012-11-24T13:18:50Z</time>
      </trkpt>
      <trkpt lat="43.98568" lon="7.07149">
        <ele>1096.2</ele>
        <time>2012-11-24T13:18:52Z</time>
      </trkpt>
      <trkpt lat="43.98561" lon="7.07154">
        <ele>1094.1</ele>
        <time>2012-11-24T13:18:55Z</time>
      </trkpt>
      <trkpt lat="43.98554" lon="7.07156">
        <ele>1092.7</ele>
        <time>2012-11-24T13:18:57Z</time>
      </trkpt>
      <trkpt lat="43.98548" lon="7.07158">
        <ele>1090.4</ele>
        <time>2012-11-24T13:18:59Z</time>
      </trkpt>
      <trkpt lat="43.98542" lon="7.07162">
        <ele>1088.7</ele>
        <time>2012-11-24T13:19:01Z</time>
      </trkpt>
      <trkpt lat="43.98535" lon="7.07156">
        <ele>1086.3</ele>
        <time>2012-11-24T13:19:04Z</time>
      </trkpt>
      <trkpt lat="43.98536" lon="7.07147">
        <ele>1084</ele>
        <time>2012-11-24T13:19:06Z</time>
      </trkpt>
      <trkpt lat="43.98534" lon="7.07135">
        <ele>1080.9</ele>
        <time>2012-11-24T13:19:09Z</time>
      </trkpt>
      <trkpt lat="43.98536" lon="7.07123">
        <ele>1076.6</ele>
        <time>2012-11-24T13:19:13Z</time>
      </trkpt>
      <trkpt lat="43.98541" lon="7.07114">
        <ele>1071.6</ele>
        <time>2012-11-24T13:19:19Z</time>
      </trkpt>
      <trkpt lat="43.98547" lon="7.07106">
        <ele>1068.2</ele>
        <time>2012-11-24T13:19:24Z</time>
      </trkpt>
      <trkpt lat="43.98554" lon="7.07098">
        <ele>1064.5</ele>
        <time>2012-11-24T13:19:28Z</time>
      </trkpt>
      <trkpt lat="43.98548" lon="7.07089">
        <ele>1057.4</ele>
        <time>2012-11-24T13:19:37Z</time>
      </trkpt>
      <trkpt lat="43.98549" lon="7.07088">
        <ele>1057</ele>
        <time>2012-11-24T13:19:38Z</time>
      </trkpt>
      <trkpt lat="43.98537" lon="7.07078">
        <ele>1047.8</ele>
        <time>2012-11-24T13:19:59Z</time>
      </trkpt>
      <trkpt lat="43.98528" lon="7.07079">
        <ele>1046</ele>
        <time>2012-11-24T13:20:03Z</time>
      </trkpt>
      <trkpt lat="43.98521" lon="7.07085">
        <ele>1042.4</ele>
        <time>2012-11-24T13:20:07Z</time>
      </trkpt>
      <trkpt lat="43.98514" lon="7.07091">
        <ele>1039.5</ele>
        <time>2012-11-24T13:20:11Z</time>
      </trkpt>
      <trkpt lat="43.98513" lon="7.0708">
        <ele>1032.4</ele>
        <time>2012-11-24T13:20:22Z</time>
      </trkpt>
      <trkpt lat="43.98505" lon="7.07083">
        <ele>1029.9</ele>
        <time>2012-11-24T13:20:28Z</time>
      </trkpt>
      <trkpt lat="43.98497" lon="7.07084">
        <ele>1025.4</ele>
        <time>2012-11-24T13:20:36Z</time>
      </trkpt>
      <trkpt lat="43.98492" lon="7.07073">
        <ele>1021.7</ele>
        <time>2012-11-24T13:20:40Z</time>
      </trkpt>
      <trkpt lat="43.98491" lon="7.0707">
        <ele>1021.2</ele>
        <time>2012-11-24T13:20:41Z</time>
      </trkpt>
      <trkpt lat="43.98481" lon="7.07065">
        <ele>1019</ele>
        <time>2012-11-24T13:20:44Z</time>
      </trkpt>
      <trkpt lat="43.98473" lon="7.07064">
        <ele>1017.3</ele>
        <time>2012-11-24T13:20:48Z</time>
      </trkpt>
      <trkpt lat="43.98466" lon="7.07061">
        <ele>1016.7</ele>
        <time>2012-11-24T13:20:50Z</time>
      </trkpt>
      <trkpt lat="43.98459" lon="7.0706">
        <ele>1016.2</ele>
        <time>2012-11-24T13:20:52Z</time>
      </trkpt>
      <trkpt lat="43.98454" lon="7.07051">
        <ele>1015.7</ele>
        <time>2012-11-24T13:20:55Z</time>
      </trkpt>
      <trkpt lat="43.98458" lon="7.0704">
        <ele>1014.8</ele>
        <time>2012-11-24T13:20:59Z</time>
      </trkpt>
      <trkpt lat="43.98461" lon="7.07029">
        <ele>1014.6</ele>
        <time>2012-11-24T13:21:03Z</time>
      </trkpt>
      <trkpt lat="43.98463" lon="7.0702">
        <ele>1015.6</ele>
        <time>2012-11-24T13:21:06Z</time>
      </trkpt>
      <trkpt lat="43.98463" lon="7.0701">
        <ele>1016.5</ele>
        <time>2012-11-24T13:21:09Z</time>
      </trkpt>
      <trkpt lat="43.98463" lon="7.07">
        <ele>1016.8</ele>
        <time>2012-11-24T13:21:12Z</time>
      </trkpt>
      <trkpt lat="43.98462" lon="7.06991">
        <ele>1016.9</ele>
        <time>2012-11-24T13:21:15Z</time>
      </trkpt>
      <trkpt lat="43.98461" lon="7.06978">
        <ele>1018.2</ele>
        <time>2012-11-24T13:21:19Z</time>
      </trkpt>
      <trkpt lat="43.9846" lon="7.06966">
        <ele>1018.8</ele>
        <time>2012-11-24T13:21:23Z</time>
      </trkpt>
      <trkpt lat="43.98459" lon="7.06955">
        <ele>1019.1</ele>
        <time>2012-11-24T13:21:27Z</time>
      </trkpt>
      <trkpt lat="43.98459" lon="7.06943">
        <ele>1020.5</ele>
        <time>2012-11-24T13:21:31Z</time>
      </trkpt>
      <trkpt lat="43.98461" lon="7.06932">
        <ele>1021.1</ele>
        <time>2012-11-24T13:21:35Z</time>
      </trkpt>
      <trkpt lat="43.98465" lon="7.06922">
        <ele>1021.4</ele>
        <time>2012-11-24T13:21:39Z</time>
      </trkpt>
      <trkpt lat="43.9847" lon="7.06913">
        <ele>1022.3</ele>
        <time>2012-11-24T13:21:43Z</time>
      </trkpt>
      <trkpt lat="43.98471" lon="7.0691">
        <ele>1022.3</ele>
        <time>2012-11-24T13:21:44Z</time>
      </trkpt>
      <trkpt lat="43.98479" lon="7.06894">
        <ele>1023.2</ele>
        <time>2012-11-24T13:21:51Z</time>
      </trkpt>
      <trkpt lat="43.98483" lon="7.06884">
        <ele>1023.5</ele>
        <time>2012-11-24T13:21:55Z</time>
      </trkpt>
      <trkpt lat="43.98487" lon="7.06874">
        <ele>1024.9</ele>
        <time>2012-11-24T13:21:59Z</time>
      </trkpt>
      <trkpt lat="43.98492" lon="7.06865">
        <ele>1025.6</ele>
        <time>2012-11-24T13:22:03Z</time>
      </trkpt>
      <trkpt lat="43.98497" lon="7.06858">
        <ele>1026.9</ele>
        <time>2012-11-24T13:22:07Z</time>
      </trkpt>
      <trkpt lat="43.98504" lon="7.06851">
        <ele>1028</ele>
        <time>2012-11-24T13:22:11Z</time>
      </trkpt>
      <trkpt lat="43.98511" lon="7.06845">
        <ele>1028.4</ele>
        <time>2012-11-24T13:22:15Z</time>
      </trkpt>
      <trkpt lat="43.98518" lon="7.06838">
        <ele>1029.3</ele>
        <time>2012-11-24T13:22:19Z</time>
      </trkpt>
      <trkpt lat="43.98525" lon="7.06831">
        <ele>1030</ele>
        <time>2012-11-24T13:22:23Z</time>
      </trkpt>
      <trkpt lat="43.98532" lon="7.06824">
        <ele>1030.7</ele>
        <time>2012-11-24T13:22:27Z</time>
      </trkpt>
      <trkpt lat="43.98539" lon="7.06817">
        <ele>1014.1</ele>
        <time>2012-11-24T13:22:31Z</time>
      </trkpt>
      <trkpt lat="43.98546" lon="7.06811">
        <ele>1006.4</ele>
        <time>2012-11-24T13:22:35Z</time>
      </trkpt>
      <trkpt lat="43.98554" lon="7.06805">
        <ele>1004.7</ele>
        <time>2012-11-24T13:22:39Z</time>
      </trkpt>
      <trkpt lat="43.98561" lon="7.06798">
        <ele>1003.8</ele>
        <time>2012-11-24T13:22:43Z</time>
      </trkpt>
      <trkpt lat="43.98567" lon="7.0679">
        <ele>1004.1</ele>
        <time>2012-11-24T13:22:47Z</time>
      </trkpt>
      <trkpt lat="43.98569" lon="7.06788">
        <ele>1004.6</ele>
        <time>2012-11-24T13:22:48Z</time>
      </trkpt>
      <trkpt lat="43.9858" lon="7.06774">
        <ele>1006.8</ele>
        <time>2012-11-24T13:22:55Z</time>
      </trkpt>
      <trkpt lat="43.98586" lon="7.06767">
        <ele>1007.1</ele>
        <time>2012-11-24T13:22:59Z</time>
      </trkpt>
      <trkpt lat="43.98592" lon="7.06758">
        <ele>1008.1</ele>
        <time>2012-11-24T13:23:03Z</time>
      </trkpt>
      <trkpt lat="43.98596" lon="7.0675">
        <ele>1008.5</ele>
        <time>2012-11-24T13:23:06Z</time>
      </trkpt>
      <trkpt lat="43.98599" lon="7.06739">
        <ele>1009</ele>
        <time>2012-11-24T13:23:10Z</time>
      </trkpt>
      <trkpt lat="43.98603" lon="7.06727">
        <ele>1009.6</ele>
        <time>2012-11-24T13:23:14Z</time>
      </trkpt>
      <trkpt lat="43.98606" lon="7.06719">
        <ele>1010</ele>
        <time>2012-11-24T13:23:17Z</time>
      </trkpt>
      <trkpt lat="43.98608" lon="7.0671">
        <ele>1010.4</ele>
        <time>2012-11-24T13:23:20Z</time>
      </trkpt>
      <trkpt lat="43.9861" lon="7.06701">
        <ele>1011.3</ele>
        <time>2012-11-24T13:23:23Z</time>
      </trkpt>
      <trkpt lat="43.98613" lon="7.06692">
        <ele>1011.8</ele>
        <time>2012-11-24T13:23:26Z</time>
      </trkpt>
      <trkpt lat="43.98615" lon="7.06683">
        <ele>1012.1</ele>
        <time>2012-11-24T13:23:29Z</time>
      </trkpt>
      <trkpt lat="43.98617" lon="7.06674">
        <ele>1012.4</ele>
        <time>2012-11-24T13:23:32Z</time>
      </trkpt>
      <trkpt lat="43.98618" lon="7.06664">
        <ele>1014.1</ele>
        <time>2012-11-24T13:23:35Z</time>
      </trkpt>
      <trkpt lat="43.98618" lon="7.06655">
        <ele>1014.4</ele>
        <time>2012-11-24T13:23:38Z</time>
      </trkpt>
      <trkpt lat="43.98616" lon="7.06645">
        <ele>1015.1</ele>
        <time>2012-11-24T13:23:41Z</time>
      </trkpt>
      <trkpt lat="43.98612" lon="7.06635">
        <ele>1015.9</ele>
        <time>2012-11-24T13:23:45Z</time>
      </trkpt>
      <trkpt lat="43.98607" lon="7.06626">
        <ele>1016.3</ele>
        <time>2012-11-24T13:23:49Z</time>
      </trkpt>
      <trkpt lat="43.98606" lon="7.06624">
        <ele>1016.3</ele>
        <time>2012-11-24T13:23:50Z</time>
      </trkpt>
      <trkpt lat="43.98595" lon="7.0661">
        <ele>1018.1</ele>
        <time>2012-11-24T13:23:57Z</time>
      </trkpt>
      <trkpt lat="43.98588" lon="7.06604">
        <ele>1017.9</ele>
        <time>2012-11-24T13:24:01Z</time>
      </trkpt>
      <trkpt lat="43.98581" lon="7.06598">
        <ele>1018.8</ele>
        <time>2012-11-24T13:24:05Z</time>
      </trkpt>
      <trkpt lat="43.98573" lon="7.06594">
        <ele>1019.5</ele>
        <time>2012-11-24T13:24:09Z</time>
      </trkpt>
      <trkpt lat="43.98566" lon="7.0659">
        <ele>1020.7</ele>
        <time>2012-11-24T13:24:13Z</time>
      </trkpt>
      <trkpt lat="43.98558" lon="7.06587">
        <ele>1021.9</ele>
        <time>2012-11-24T13:24:17Z</time>
      </trkpt>
      <trkpt lat="43.98549" lon="7.06585">
        <ele>1022.6</ele>
        <time>2012-11-24T13:24:21Z</time>
      </trkpt>
      <trkpt lat="43.98542" lon="7.06581">
        <ele>1023.6</ele>
        <time>2012-11-24T13:24:25Z</time>
      </trkpt>
      <trkpt lat="43.98534" lon="7.06577">
        <ele>1024.1</ele>
        <time>2012-11-24T13:24:29Z</time>
      </trkpt>
      <trkpt lat="43.98526" lon="7.0657">
        <ele>1025</ele>
        <time>2012-11-24T13:24:33Z</time>
      </trkpt>
      <trkpt lat="43.98519" lon="7.06569">
        <ele>1025.5</ele>
        <time>2012-11-24T13:24:37Z</time>
      </trkpt>
      <trkpt lat="43.98511" lon="7.0657">
        <ele>1026.2</ele>
        <time>2012-11-24T13:24:41Z</time>
      </trkpt>
      <trkpt lat="43.98503" lon="7.06572">
        <ele>1026.9</ele>
        <time>2012-11-24T13:24:45Z</time>
      </trkpt>
      <trkpt lat="43.98495" lon="7.06573">
        <ele>1027.7</ele>
        <time>2012-11-24T13:24:49Z</time>
      </trkpt>
      <trkpt lat="43.98487" lon="7.06568">
        <ele>1028.4</ele>
        <time>2012-11-24T13:24:53Z</time>
      </trkpt>
      <trkpt lat="43.98485" lon="7.06566">
        <ele>1029.1</ele>
        <time>2012-11-24T13:24:54Z</time>
      </trkpt>
      <trkpt lat="43.98471" lon="7.06558">
        <ele>1030.6</ele>
        <time>2012-11-24T13:25:01Z</time>
      </trkpt>
      <trkpt lat="43.98463" lon="7.06552">
        <ele>1030.5</ele>
        <time>2012-11-24T13:25:05Z</time>
      </trkpt>
      <trkpt lat="43.98455" lon="7.0655">
        <ele>1031.6</ele>
        <time>2012-11-24T13:25:09Z</time>
      </trkpt>
      <trkpt lat="43.98451" lon="7.0654">
        <ele>1032.9</ele>
        <time>2012-11-24T13:26:02Z</time>
      </trkpt>
      <trkpt lat="43.9845" lon="7.06537">
        <ele>1033.3</ele>
        <time>2012-11-24T13:26:03Z</time>
      </trkpt>
      <trkpt lat="43.98443" lon="7.06521">
        <ele>1033.8</ele>
        <time>2012-11-24T13:26:09Z</time>
      </trkpt>
      <trkpt lat="43.9844" lon="7.06513">
        <ele>1034.4</ele>
        <time>2012-11-24T13:26:12Z</time>
      </trkpt>
      <trkpt lat="43.98433" lon="7.06505">
        <ele>1035.4</ele>
        <time>2012-11-24T13:26:16Z</time>
      </trkpt>
      <trkpt lat="43.98427" lon="7.065">
        <ele>1036</ele>
        <time>2012-11-24T13:26:19Z</time>
      </trkpt>
      <trkpt lat="43.9842" lon="7.06498">
        <ele>1036.6</ele>
        <time>2012-11-24T13:26:22Z</time>
      </trkpt>
      <trkpt lat="43.98414" lon="7.06497">
        <ele>1037</ele>
        <time>2012-11-24T13:26:25Z</time>
      </trkpt>
      <trkpt lat="43.98407" lon="7.06493">
        <ele>1037.5</ele>
        <time>2012-11-24T13:26:28Z</time>
      </trkpt>
      <trkpt lat="43.98401" lon="7.06484">
        <ele>1038.2</ele>
        <time>2012-11-24T13:26:32Z</time>
      </trkpt>
      <trkpt lat="43.984" lon="7.06474">
        <ele>1038.5</ele>
        <time>2012-11-24T13:26:35Z</time>
      </trkpt>
      <trkpt lat="43.984" lon="7.06464">
        <ele>1038.7</ele>
        <time>2012-11-24T13:26:38Z</time>
      </trkpt>
      <trkpt lat="43.98403" lon="7.06455">
        <ele>1039.2</ele>
        <time>2012-11-24T13:26:41Z</time>
      </trkpt>
      <trkpt lat="43.98407" lon="7.06448">
        <ele>1040.4</ele>
        <time>2012-11-24T13:26:44Z</time>
      </trkpt>
      <trkpt lat="43.98415" lon="7.06441">
        <ele>1040.5</ele>
        <time>2012-11-24T13:26:48Z</time>
      </trkpt>
      <trkpt lat="43.98421" lon="7.06433">
        <ele>1042.3</ele>
        <time>2012-11-24T13:26:52Z</time>
      </trkpt>
      <trkpt lat="43.98426" lon="7.06425">
        <ele>1042.6</ele>
        <time>2012-11-24T13:26:56Z</time>
      </trkpt>
      <trkpt lat="43.98431" lon="7.06416">
        <ele>1043.3</ele>
        <time>2012-11-24T13:27:00Z</time>
      </trkpt>
      <trkpt lat="43.98436" lon="7.06406">
        <ele>1044.5</ele>
        <time>2012-11-24T13:27:04Z</time>
      </trkpt>
      <trkpt lat="43.98437" lon="7.06403">
        <ele>1044.5</ele>
        <time>2012-11-24T13:27:05Z</time>
      </trkpt>
      <trkpt lat="43.98444" lon="7.06386">
        <ele>1045.7</ele>
        <time>2012-11-24T13:27:12Z</time>
      </trkpt>
      <trkpt lat="43.98446" lon="7.06375">
        <ele>1046.3</ele>
        <time>2012-11-24T13:27:16Z</time>
      </trkpt>
      <trkpt lat="43.98448" lon="7.06364">
        <ele>1047</ele>
        <time>2012-11-24T13:27:20Z</time>
      </trkpt>
      <trkpt lat="43.9845" lon="7.06353">
        <ele>1047.7</ele>
        <time>2012-11-24T13:27:24Z</time>
      </trkpt>
      <trkpt lat="43.98452" lon="7.06341">
        <ele>1048.9</ele>
        <time>2012-11-24T13:27:28Z</time>
      </trkpt>
      <trkpt lat="43.98455" lon="7.06331">
        <ele>1049.8</ele>
        <time>2012-11-24T13:27:32Z</time>
      </trkpt>
      <trkpt lat="43.98457" lon="7.06319">
        <ele>1050.8</ele>
        <time>2012-11-24T13:27:36Z</time>
      </trkpt>
      <trkpt lat="43.98458" lon="7.06308">
        <ele>1051.1</ele>
        <time>2012-11-24T13:27:40Z</time>
      </trkpt>
      <trkpt lat="43.98461" lon="7.06297">
        <ele>1051.4</ele>
        <time>2012-11-24T13:27:44Z</time>
      </trkpt>
      <trkpt lat="43.98464" lon="7.06287">
        <ele>1052.5</ele>
        <time>2012-11-24T13:27:48Z</time>
      </trkpt>
      <trkpt lat="43.98465" lon="7.06276">
        <ele>1053.3</ele>
        <time>2012-11-24T13:27:52Z</time>
      </trkpt>
      <trkpt lat="43.98466" lon="7.06265">
        <ele>1054.7</ele>
        <time>2012-11-24T13:27:56Z</time>
      </trkpt>
      <trkpt lat="43.98463" lon="7.06254">
        <ele>1055.4</ele>
        <time>2012-11-24T13:28:00Z</time>
      </trkpt>
      <trkpt lat="43.98459" lon="7.06244">
        <ele>1055.7</ele>
        <time>2012-11-24T13:28:04Z</time>
      </trkpt>
      <trkpt lat="43.98453" lon="7.06237">
        <ele>1056.1</ele>
        <time>2012-11-24T13:28:08Z</time>
      </trkpt>
      <trkpt lat="43.98451" lon="7.06235">
        <ele>1056.6</ele>
        <time>2012-11-24T13:28:09Z</time>
      </trkpt>
      <trkpt lat="43.98437" lon="7.06234">
        <ele>1058.1</ele>
        <time>2012-11-24T13:28:16Z</time>
      </trkpt>
      <trkpt lat="43.98429" lon="7.06237">
        <ele>1058.8</ele>
        <time>2012-11-24T13:28:20Z</time>
      </trkpt>
      <trkpt lat="43.9842" lon="7.0624">
        <ele>1059.2</ele>
        <time>2012-11-24T13:28:24Z</time>
      </trkpt>
      <trkpt lat="43.98413" lon="7.06244">
        <ele>1059.8</ele>
        <time>2012-11-24T13:28:28Z</time>
      </trkpt>
      <trkpt lat="43.98405" lon="7.06249">
        <ele>1060.7</ele>
        <time>2012-11-24T13:28:32Z</time>
      </trkpt>
      <trkpt lat="43.98397" lon="7.06254">
        <ele>1061.9</ele>
        <time>2012-11-24T13:28:36Z</time>
      </trkpt>
      <trkpt lat="43.98391" lon="7.06258">
        <ele>1061.7</ele>
        <time>2012-11-24T13:28:39Z</time>
      </trkpt>
      <trkpt lat="43.98384" lon="7.06263">
        <ele>1062.4</ele>
        <time>2012-11-24T13:28:42Z</time>
      </trkpt>
      <trkpt lat="43.98378" lon="7.06266">
        <ele>1062.6</ele>
        <time>2012-11-24T13:28:45Z</time>
      </trkpt>
      <trkpt lat="43.98371" lon="7.06269">
        <ele>1063.4</ele>
        <time>2012-11-24T13:28:48Z</time>
      </trkpt>
      <trkpt lat="43.98365" lon="7.06272">
        <ele>1063.4</ele>
        <time>2012-11-24T13:28:51Z</time>
      </trkpt>
      <trkpt lat="43.98358" lon="7.06274">
        <ele>1064.3</ele>
        <time>2012-11-24T13:28:54Z</time>
      </trkpt>
      <trkpt lat="43.98351" lon="7.06278">
        <ele>1065.2</ele>
        <time>2012-11-24T13:28:57Z</time>
      </trkpt>
      <trkpt lat="43.98345" lon="7.06282">
        <ele>1066.4</ele>
        <time>2012-11-24T13:29:00Z</time>
      </trkpt>
      <trkpt lat="43.98339" lon="7.06287">
        <ele>1066.7</ele>
        <time>2012-11-24T13:29:03Z</time>
      </trkpt>
      <trkpt lat="43.9833" lon="7.06289">
        <ele>1067.3</ele>
        <time>2012-11-24T13:29:07Z</time>
      </trkpt>
      <trkpt lat="43.98324" lon="7.06288">
        <ele>1068.4</ele>
        <time>2012-11-24T13:29:10Z</time>
      </trkpt>
      <trkpt lat="43.98321" lon="7.06287">
        <ele>1068.6</ele>
        <time>2012-11-24T13:29:11Z</time>
      </trkpt>
      <trkpt lat="43.98312" lon="7.06276">
        <ele>1069.6</ele>
        <time>2012-11-24T13:29:16Z</time>
      </trkpt>
      <trkpt lat="43.98309" lon="7.06268">
        <ele>1069.8</ele>
        <time>2012-11-24T13:29:19Z</time>
      </trkpt>
      <trkpt lat="43.98307" lon="7.06258">
        <ele>1070.9</ele>
        <time>2012-11-24T13:29:22Z</time>
      </trkpt>
      <trkpt lat="43.98307" lon="7.06248">
        <ele>1071.5</ele>
        <time>2012-11-24T13:29:25Z</time>
      </trkpt>
      <trkpt lat="43.98307" lon="7.06237">
        <ele>1072</ele>
        <time>2012-11-24T13:29:28Z</time>
      </trkpt>
      <trkpt lat="43.98308" lon="7.06228">
        <ele>1071.9</ele>
        <time>2012-11-24T13:29:31Z</time>
      </trkpt>
      <trkpt lat="43.98309" lon="7.06216">
        <ele>1072.5</ele>
        <time>2012-11-24T13:29:35Z</time>
      </trkpt>
      <trkpt lat="43.9831" lon="7.06204">
        <ele>1074.3</ele>
        <time>2012-11-24T13:29:39Z</time>
      </trkpt>
      <trkpt lat="43.98312" lon="7.06192">
        <ele>1074</ele>
        <time>2012-11-24T13:29:43Z</time>
      </trkpt>
      <trkpt lat="43.98312" lon="7.06181">
        <ele>1075.4</ele>
        <time>2012-11-24T13:29:47Z</time>
      </trkpt>
      <trkpt lat="43.98312" lon="7.06169">
        <ele>1076.1</ele>
        <time>2012-11-24T13:29:51Z</time>
      </trkpt>
      <trkpt lat="43.98311" lon="7.06157">
        <ele>1077</ele>
        <time>2012-11-24T13:29:55Z</time>
      </trkpt>
      <trkpt lat="43.98312" lon="7.06145">
        <ele>1077.8</ele>
        <time>2012-11-24T13:29:59Z</time>
      </trkpt>
      <trkpt lat="43.98312" lon="7.06135">
        <ele>1078.4</ele>
        <time>2012-11-24T13:30:02Z</time>
      </trkpt>
      <trkpt lat="43.98315" lon="7.06124">
        <ele>1078.9</ele>
        <time>2012-11-24T13:30:06Z</time>
      </trkpt>
      <trkpt lat="43.9832" lon="7.06114">
        <ele>1080.6</ele>
        <time>2012-11-24T13:30:10Z</time>
      </trkpt>
      <trkpt lat="43.98325" lon="7.06105">
        <ele>1081.4</ele>
        <time>2012-11-24T13:30:14Z</time>
      </trkpt>
      <trkpt lat="43.98325" lon="7.06103">
        <ele>1081.5</ele>
        <time>2012-11-24T13:30:15Z</time>
      </trkpt>
      <trkpt lat="43.98334" lon="7.06086">
        <ele>1082.7</ele>
        <time>2012-11-24T13:30:22Z</time>
      </trkpt>
      <trkpt lat="43.98341" lon="7.06077">
        <ele>1083.4</ele>
        <time>2012-11-24T13:30:26Z</time>
      </trkpt>
      <trkpt lat="43.98347" lon="7.06069">
        <ele>1084.1</ele>
        <time>2012-11-24T13:30:30Z</time>
      </trkpt>
      <trkpt lat="43.98352" lon="7.06059">
        <ele>1084.5</ele>
        <time>2012-11-24T13:30:34Z</time>
      </trkpt>
      <trkpt lat="43.98357" lon="7.06049">
        <ele>1085.5</ele>
        <time>2012-11-24T13:30:38Z</time>
      </trkpt>
      <trkpt lat="43.98361" lon="7.06038">
        <ele>1086.1</ele>
        <time>2012-11-24T13:30:42Z</time>
      </trkpt>
      <trkpt lat="43.98365" lon="7.0603">
        <ele>1087</ele>
        <time>2012-11-24T13:30:45Z</time>
      </trkpt>
      <trkpt lat="43.98369" lon="7.06019">
        <ele>1087.4</ele>
        <time>2012-11-24T13:30:49Z</time>
      </trkpt>
      <trkpt lat="43.98373" lon="7.06009">
        <ele>1088.2</ele>
        <time>2012-11-24T13:30:53Z</time>
      </trkpt>
      <trkpt lat="43.98377" lon="7.05998">
        <ele>1088.9</ele>
        <time>2012-11-24T13:30:57Z</time>
      </trkpt>
      <trkpt lat="43.98381" lon="7.05987">
        <ele>1089.3</ele>
        <time>2012-11-24T13:31:01Z</time>
      </trkpt>
      <trkpt lat="43.98387" lon="7.05979">
        <ele>1090</ele>
        <time>2012-11-24T13:31:05Z</time>
      </trkpt>
      <trkpt lat="43.98393" lon="7.05972">
        <ele>1090.9</ele>
        <time>2012-11-24T13:31:09Z</time>
      </trkpt>
      <trkpt lat="43.98399" lon="7.05962">
        <ele>1091.7</ele>
        <time>2012-11-24T13:31:13Z</time>
      </trkpt>
      <trkpt lat="43.98404" lon="7.05954">
        <ele>1092.6</ele>
        <time>2012-11-24T13:31:17Z</time>
      </trkpt>
      <trkpt lat="43.98406" lon="7.05952">
        <ele>1092.6</ele>
        <time>2012-11-24T13:31:18Z</time>
      </trkpt>
      <trkpt lat="43.98413" lon="7.05935">
        <ele>1094.2</ele>
        <time>2012-11-24T13:31:25Z</time>
      </trkpt>
      <trkpt lat="43.98418" lon="7.05926">
        <ele>1094.7</ele>
        <time>2012-11-24T13:31:29Z</time>
      </trkpt>
      <trkpt lat="43.98422" lon="7.05916">
        <ele>1095.6</ele>
        <time>2012-11-24T13:31:33Z</time>
      </trkpt>
      <trkpt lat="43.98425" lon="7.05905">
        <ele>1096.2</ele>
        <time>2012-11-24T13:31:37Z</time>
      </trkpt>
      <trkpt lat="43.98426" lon="7.05894">
        <ele>1097</ele>
        <time>2012-11-24T13:31:41Z</time>
      </trkpt>
      <trkpt lat="43.98425" lon="7.05882">
        <ele>1098.3</ele>
        <time>2012-11-24T13:31:45Z</time>
      </trkpt>
      <trkpt lat="43.98422" lon="7.05872">
        <ele>1098.9</ele>
        <time>2012-11-24T13:31:49Z</time>
      </trkpt>
      <trkpt lat="43.98417" lon="7.05863">
        <ele>1099.7</ele>
        <time>2012-11-24T13:31:53Z</time>
      </trkpt>
      <trkpt lat="43.98412" lon="7.05854">
        <ele>1100.6</ele>
        <time>2012-11-24T13:31:57Z</time>
      </trkpt>
      <trkpt lat="43.98411" lon="7.05842">
        <ele>1101.9</ele>
        <time>2012-11-24T13:32:01Z</time>
      </trkpt>
      <trkpt lat="43.98409" lon="7.05831">
        <ele>1101.9</ele>
        <time>2012-11-24T13:32:05Z</time>
      </trkpt>
      <trkpt lat="43.98408" lon="7.0582">
        <ele>1102.9</ele>
        <time>2012-11-24T13:32:09Z</time>
      </trkpt>
      <trkpt lat="43.98407" lon="7.05808">
        <ele>1103.5</ele>
        <time>2012-11-24T13:32:13Z</time>
      </trkpt>
      <trkpt lat="43.98407" lon="7.05797">
        <ele>1104.8</ele>
        <time>2012-11-24T13:32:17Z</time>
      </trkpt>
      <trkpt lat="43.98406" lon="7.05785">
        <ele>1104.7</ele>
        <time>2012-11-24T13:32:21Z</time>
      </trkpt>
      <trkpt lat="43.98405" lon="7.05782">
        <ele>1104.7</ele>
        <time>2012-11-24T13:32:22Z</time>
      </trkpt>
      <trkpt lat="43.98394" lon="7.05767">
        <ele>1106.7</ele>
        <time>2012-11-24T13:32:29Z</time>
      </trkpt>
      <trkpt lat="43.98388" lon="7.05763">
        <ele>1106.7</ele>
        <time>2012-11-24T13:32:32Z</time>
      </trkpt>
      <trkpt lat="43.98379" lon="7.05761">
        <ele>1107.8</ele>
        <time>2012-11-24T13:32:36Z</time>
      </trkpt>
      <trkpt lat="43.98371" lon="7.05758">
        <ele>1109.2</ele>
        <time>2012-11-24T13:32:40Z</time>
      </trkpt>
      <trkpt lat="43.98362" lon="7.05758">
        <ele>1109.6</ele>
        <time>2012-11-24T13:32:44Z</time>
      </trkpt>
      <trkpt lat="43.98355" lon="7.05758">
        <ele>1110.3</ele>
        <time>2012-11-24T13:32:47Z</time>
      </trkpt>
      <trkpt lat="43.98347" lon="7.05761">
        <ele>1110.8</ele>
        <time>2012-11-24T13:32:51Z</time>
      </trkpt>
      <trkpt lat="43.98338" lon="7.05762">
        <ele>1110.9</ele>
        <time>2012-11-24T13:32:55Z</time>
      </trkpt>
      <trkpt lat="43.9833" lon="7.05764">
        <ele>1111.9</ele>
        <time>2012-11-24T13:32:59Z</time>
      </trkpt>
      <trkpt lat="43.98321" lon="7.05763">
        <ele>1113.5</ele>
        <time>2012-11-24T13:33:03Z</time>
      </trkpt>
      <trkpt lat="43.98314" lon="7.05765">
        <ele>1114.1</ele>
        <time>2012-11-24T13:33:06Z</time>
      </trkpt>
      <trkpt lat="43.98306" lon="7.05767">
        <ele>1114.6</ele>
        <time>2012-11-24T13:33:10Z</time>
      </trkpt>
      <trkpt lat="43.98297" lon="7.05769">
        <ele>1116.2</ele>
        <time>2012-11-24T13:33:14Z</time>
      </trkpt>
      <trkpt lat="43.98288" lon="7.05769">
        <ele>1115</ele>
        <time>2012-11-24T13:33:18Z</time>
      </trkpt>
      <trkpt lat="43.98279" lon="7.05769">
        <ele>1115.9</ele>
        <time>2012-11-24T13:33:22Z</time>
      </trkpt>
      <trkpt lat="43.98277" lon="7.05768">
        <ele>1116.2</ele>
        <time>2012-11-24T13:33:23Z</time>
      </trkpt>
      <trkpt lat="43.98266" lon="7.05766">
        <ele>1117.2</ele>
        <time>2012-11-24T13:33:28Z</time>
      </trkpt>
      <trkpt lat="43.98259" lon="7.05765">
        <ele>1117.4</ele>
        <time>2012-11-24T13:33:31Z</time>
      </trkpt>
      <trkpt lat="43.98252" lon="7.05763">
        <ele>1117.9</ele>
        <time>2012-11-24T13:33:34Z</time>
      </trkpt>
      <trkpt lat="43.98245" lon="7.0576">
        <ele>1118.8</ele>
        <time>2012-11-24T13:33:37Z</time>
      </trkpt>
      <trkpt lat="43.98239" lon="7.05757">
        <ele>1119.2</ele>
        <time>2012-11-24T13:33:40Z</time>
      </trkpt>
      <trkpt lat="43.98231" lon="7.05753">
        <ele>1120.6</ele>
        <time>2012-11-24T13:33:44Z</time>
      </trkpt>
      <trkpt lat="43.98223" lon="7.05747">
        <ele>1121</ele>
        <time>2012-11-24T13:33:48Z</time>
      </trkpt>
      <trkpt lat="43.98217" lon="7.05742">
        <ele>1121.2</ele>
        <time>2012-11-24T13:33:52Z</time>
      </trkpt>
      <trkpt lat="43.9821" lon="7.05735">
        <ele>1122.3</ele>
        <time>2012-11-24T13:33:56Z</time>
      </trkpt>
      <trkpt lat="43.98203" lon="7.05728">
        <ele>1123.1</ele>
        <time>2012-11-24T13:34:00Z</time>
      </trkpt>
      <trkpt lat="43.98195" lon="7.05723">
        <ele>1123.1</ele>
        <time>2012-11-24T13:34:04Z</time>
      </trkpt>
      <trkpt lat="43.98188" lon="7.05718">
        <ele>1124.8</ele>
        <time>2012-11-24T13:34:08Z</time>
      </trkpt>
      <trkpt lat="43.9818" lon="7.05714">
        <ele>1125.3</ele>
        <time>2012-11-24T13:34:12Z</time>
      </trkpt>
      <trkpt lat="43.98172" lon="7.05709">
        <ele>1126.1</ele>
        <time>2012-11-24T13:34:16Z</time>
      </trkpt>
      <trkpt lat="43.98165" lon="7.05703">
        <ele>1126.4</ele>
        <time>2012-11-24T13:34:20Z</time>
      </trkpt>
      <trkpt lat="43.98158" lon="7.05698">
        <ele>1127.5</ele>
        <time>2012-11-24T13:34:24Z</time>
      </trkpt>
      <trkpt lat="43.98156" lon="7.05696">
        <ele>1127.3</ele>
        <time>2012-11-24T13:34:25Z</time>
      </trkpt>
      <trkpt lat="43.98145" lon="7.05684">
        <ele>1128.4</ele>
        <time>2012-11-24T13:34:32Z</time>
      </trkpt>
      <trkpt lat="43.9814" lon="7.05676">
        <ele>1129.6</ele>
        <time>2012-11-24T13:34:36Z</time>
      </trkpt>
      <trkpt lat="43.98135" lon="7.05668">
        <ele>1130.3</ele>
        <time>2012-11-24T13:34:40Z</time>
      </trkpt>
      <trkpt lat="43.9813" lon="7.05658">
        <ele>1131.2</ele>
        <time>2012-11-24T13:34:44Z</time>
      </trkpt>
      <trkpt lat="43.98126" lon="7.05649">
        <ele>1132</ele>
        <time>2012-11-24T13:34:48Z</time>
      </trkpt>
      <trkpt lat="43.98124" lon="7.05639">
        <ele>1132.9</ele>
        <time>2012-11-24T13:34:52Z</time>
      </trkpt>
      <trkpt lat="43.98119" lon="7.0563">
        <ele>1134.1</ele>
        <time>2012-11-24T13:34:56Z</time>
      </trkpt>
      <trkpt lat="43.98114" lon="7.0562">
        <ele>1134.8</ele>
        <time>2012-11-24T13:35:00Z</time>
      </trkpt>
      <trkpt lat="43.9811" lon="7.0561">
        <ele>1135.6</ele>
        <time>2012-11-24T13:35:04Z</time>
      </trkpt>
      <trkpt lat="43.98107" lon="7.056">
        <ele>1136.4</ele>
        <time>2012-11-24T13:35:08Z</time>
      </trkpt>
      <trkpt lat="43.98104" lon="7.0559">
        <ele>1137.4</ele>
        <time>2012-11-24T13:35:12Z</time>
      </trkpt>
      <trkpt lat="43.98101" lon="7.05579">
        <ele>1138.2</ele>
        <time>2012-11-24T13:35:16Z</time>
      </trkpt>
      <trkpt lat="43.98097" lon="7.05568">
        <ele>1139</ele>
        <time>2012-11-24T13:35:20Z</time>
      </trkpt>
      <trkpt lat="43.98094" lon="7.05557">
        <ele>1139.8</ele>
        <time>2012-11-24T13:35:24Z</time>
      </trkpt>
      <trkpt lat="43.9809" lon="7.05546">
        <ele>1141</ele>
        <time>2012-11-24T13:35:28Z</time>
      </trkpt>
      <trkpt lat="43.9809" lon="7.05543">
        <ele>1140.9</ele>
        <time>2012-11-24T13:35:29Z</time>
      </trkpt>
      <trkpt lat="43.98082" lon="7.05524">
        <ele>1140.6</ele>
        <time>2012-11-24T13:35:36Z</time>
      </trkpt>
      <trkpt lat="43.98076" lon="7.05515">
        <ele>1142.1</ele>
        <time>2012-11-24T13:35:40Z</time>
      </trkpt>
      <trkpt lat="43.9807" lon="7.05507">
        <ele>1142.6</ele>
        <time>2012-11-24T13:35:44Z</time>
      </trkpt>
      <trkpt lat="43.98063" lon="7.055">
        <ele>1142.8</ele>
        <time>2012-11-24T13:35:48Z</time>
      </trkpt>
      <trkpt lat="43.98056" lon="7.05493">
        <ele>1144.8</ele>
        <time>2012-11-24T13:35:52Z</time>
      </trkpt>
      <trkpt lat="43.98049" lon="7.05487">
        <ele>1145.9</ele>
        <time>2012-11-24T13:35:56Z</time>
      </trkpt>
      <trkpt lat="43.98042" lon="7.05483">
        <ele>1146.6</ele>
        <time>2012-11-24T13:36:00Z</time>
      </trkpt>
      <trkpt lat="43.98036" lon="7.05477">
        <ele>1146.8</ele>
        <time>2012-11-24T13:36:04Z</time>
      </trkpt>
      <trkpt lat="43.98029" lon="7.05472">
        <ele>1147.3</ele>
        <time>2012-11-24T13:36:08Z</time>
      </trkpt>
      <trkpt lat="43.98022" lon="7.05465">
        <ele>1147.9</ele>
        <time>2012-11-24T13:36:12Z</time>
      </trkpt>
      <trkpt lat="43.98015" lon="7.05457">
        <ele>1148.9</ele>
        <time>2012-11-24T13:36:16Z</time>
      </trkpt>
      <trkpt lat="43.9801" lon="7.05452">
        <ele>1149.7</ele>
        <time>2012-11-24T13:36:19Z</time>
      </trkpt>
      <trkpt lat="43.98004" lon="7.05446">
        <ele>1150.4</ele>
        <time>2012-11-24T13:36:22Z</time>
      </trkpt>
      <trkpt lat="43.97999" lon="7.05439">
        <ele>1150.7</ele>
        <time>2012-11-24T13:36:25Z</time>
      </trkpt>
      <trkpt lat="43.97992" lon="7.05434">
        <ele>1151.3</ele>
        <time>2012-11-24T13:36:28Z</time>
      </trkpt>
      <trkpt lat="43.97987" lon="7.05429">
        <ele>1151.8</ele>
        <time>2012-11-24T13:36:31Z</time>
      </trkpt>
      <trkpt lat="43.97985" lon="7.05427">
        <ele>1152.2</ele>
        <time>2012-11-24T13:36:32Z</time>
      </trkpt>
      <trkpt lat="43.97975" lon="7.05416">
        <ele>1153.6</ele>
        <time>2012-11-24T13:36:37Z</time>
      </trkpt>
      <trkpt lat="43.97969" lon="7.05412">
        <ele>1154.1</ele>
        <time>2012-11-24T13:36:40Z</time>
      </trkpt>
      <trkpt lat="43.97963" lon="7.05407">
        <ele>1155.4</ele>
        <time>2012-11-24T13:36:43Z</time>
      </trkpt>
      <trkpt lat="43.97957" lon="7.05402">
        <ele>1155.5</ele>
        <time>2012-11-24T13:36:46Z</time>
      </trkpt>
      <trkpt lat="43.97951" lon="7.05397">
        <ele>1155.7</ele>
        <time>2012-11-24T13:36:49Z</time>
      </trkpt>
      <trkpt lat="43.97945" lon="7.05392">
        <ele>1156.4</ele>
        <time>2012-11-24T13:36:52Z</time>
      </trkpt>
      <trkpt lat="43.97938" lon="7.05387">
        <ele>1156.2</ele>
        <time>2012-11-24T13:36:55Z</time>
      </trkpt>
      <trkpt lat="43.97932" lon="7.0538">
        <ele>1156.5</ele>
        <time>2012-11-24T13:36:58Z</time>
      </trkpt>
      <trkpt lat="43.97926" lon="7.05371">
        <ele>1155.7</ele>
        <time>2012-11-24T13:37:01Z</time>
      </trkpt>
      <trkpt lat="43.9792" lon="7.05362">
        <ele>1156.2</ele>
        <time>2012-11-24T13:37:04Z</time>
      </trkpt>
      <trkpt lat="43.97915" lon="7.05353">
        <ele>1156.2</ele>
        <time>2012-11-24T13:37:07Z</time>
      </trkpt>
      <trkpt lat="43.97909" lon="7.05345">
        <ele>1156.6</ele>
        <time>2012-11-24T13:37:10Z</time>
      </trkpt>
      <trkpt lat="43.97903" lon="7.05337">
        <ele>1156.5</ele>
        <time>2012-11-24T13:37:13Z</time>
      </trkpt>
      <trkpt lat="43.97898" lon="7.0533">
        <ele>1155.8</ele>
        <time>2012-11-24T13:37:16Z</time>
      </trkpt>
      <trkpt lat="43.97892" lon="7.05324">
        <ele>1155.5</ele>
        <time>2012-11-24T13:37:20Z</time>
      </trkpt>
      <trkpt lat="43.97883" lon="7.0532">
        <ele>1154.8</ele>
        <time>2012-11-24T13:38:29Z</time>
      </trkpt>
      <trkpt lat="43.97883" lon="7.05319">
        <ele>1155</ele>
        <time>2012-11-24T13:38:30Z</time>
      </trkpt>
      <trkpt lat="43.97876" lon="7.05327">
        <ele>1155.5</ele>
        <time>2012-11-24T13:40:13Z</time>
      </trkpt>
      <trkpt lat="43.97867" lon="7.05328">
        <ele>1156</ele>
        <time>2012-11-24T13:42:37Z</time>
      </trkpt>
      <trkpt lat="43.9786" lon="7.05313">
        <ele>1156.5</ele>
        <time>2012-11-24T13:42:44Z</time>
      </trkpt>
      <trkpt lat="43.97858" lon="7.05301">
        <ele>1156.4</ele>
        <time>2012-11-24T13:42:48Z</time>
      </trkpt>
      <trkpt lat="43.97857" lon="7.0529">
        <ele>1156.4</ele>
        <time>2012-11-24T13:42:51Z</time>
      </trkpt>
      <trkpt lat="43.97848" lon="7.05288">
        <ele>1156.9</ele>
        <time>2012-11-24T13:42:55Z</time>
      </trkpt>
      <trkpt lat="43.9784" lon="7.05288">
        <ele>1156.9</ele>
        <time>2012-11-24T13:42:59Z</time>
      </trkpt>
      <trkpt lat="43.97833" lon="7.05283">
        <ele>1157.4</ele>
        <time>2012-11-24T13:43:03Z</time>
      </trkpt>
      <trkpt lat="43.9783" lon="7.05275">
        <ele>1157.5</ele>
        <time>2012-11-24T13:43:06Z</time>
      </trkpt>
      <trkpt lat="43.97826" lon="7.05265">
        <ele>1157.1</ele>
        <time>2012-11-24T13:43:09Z</time>
      </trkpt>
      <trkpt lat="43.97821" lon="7.05257">
        <ele>1156.7</ele>
        <time>2012-11-24T13:43:12Z</time>
      </trkpt>
      <trkpt lat="43.97818" lon="7.0525">
        <ele>1156.4</ele>
        <time>2012-11-24T13:43:14Z</time>
      </trkpt>
      <trkpt lat="43.97815" lon="7.05241">
        <ele>1156</ele>
        <time>2012-11-24T13:43:16Z</time>
      </trkpt>
      <trkpt lat="43.97812" lon="7.05232">
        <ele>1155.5</ele>
        <time>2012-11-24T13:43:18Z</time>
      </trkpt>
      <trkpt lat="43.97808" lon="7.05224">
        <ele>1154.7</ele>
        <time>2012-11-24T13:43:20Z</time>
      </trkpt>
      <trkpt lat="43.97805" lon="7.05213">
        <ele>1154</ele>
        <time>2012-11-24T13:43:22Z</time>
      </trkpt>
      <trkpt lat="43.97802" lon="7.05203">
        <ele>1153.7</ele>
        <time>2012-11-24T13:43:24Z</time>
      </trkpt>
      <trkpt lat="43.97799" lon="7.05194">
        <ele>1152.5</ele>
        <time>2012-11-24T13:43:27Z</time>
      </trkpt>
      <trkpt lat="43.97797" lon="7.05184">
        <ele>1152.3</ele>
        <time>2012-11-24T13:43:29Z</time>
      </trkpt>
      <trkpt lat="43.97795" lon="7.05173">
        <ele>1152.1</ele>
        <time>2012-11-24T13:43:31Z</time>
      </trkpt>
      <trkpt lat="43.97794" lon="7.05163">
        <ele>1150.9</ele>
        <time>2012-11-24T13:43:33Z</time>
      </trkpt>
      <trkpt lat="43.97793" lon="7.05151">
        <ele>1148.3</ele>
        <time>2012-11-24T13:43:36Z</time>
      </trkpt>
      <trkpt lat="43.97793" lon="7.05142">
        <ele>1147.5</ele>
        <time>2012-11-24T13:43:38Z</time>
      </trkpt>
      <trkpt lat="43.97793" lon="7.05138">
        <ele>1146.6</ele>
        <time>2012-11-24T13:43:39Z</time>
      </trkpt>
      <trkpt lat="43.97789" lon="7.05125">
        <ele>1143.9</ele>
        <time>2012-11-24T13:43:42Z</time>
      </trkpt>
      <trkpt lat="43.97788" lon="7.05115">
        <ele>1142.3</ele>
        <time>2012-11-24T13:43:44Z</time>
      </trkpt>
      <trkpt lat="43.9779" lon="7.05104">
        <ele>1140.6</ele>
        <time>2012-11-24T13:43:47Z</time>
      </trkpt>
      <trkpt lat="43.97791" lon="7.05094">
        <ele>1139.2</ele>
        <time>2012-11-24T13:43:49Z</time>
      </trkpt>
      <trkpt lat="43.97793" lon="7.05082">
        <ele>1138.1</ele>
        <time>2012-11-24T13:43:51Z</time>
      </trkpt>
      <trkpt lat="43.97793" lon="7.05075">
        <ele>1137.6</ele>
        <time>2012-11-24T13:43:52Z</time>
      </trkpt>
      <trkpt lat="43.97793" lon="7.05069">
        <ele>1136.5</ele>
        <time>2012-11-24T13:43:53Z</time>
      </trkpt>
      <trkpt lat="43.97793" lon="7.05063">
        <ele>1135.7</ele>
        <time>2012-11-24T13:43:54Z</time>
      </trkpt>
      <trkpt lat="43.97793" lon="7.05056">
        <ele>1134.9</ele>
        <time>2012-11-24T13:43:55Z</time>
      </trkpt>
      <trkpt lat="43.97792" lon="7.05045">
        <ele>1134</ele>
        <time>2012-11-24T13:43:57Z</time>
      </trkpt>
      <trkpt lat="43.97792" lon="7.05034">
        <ele>1133</ele>
        <time>2012-11-24T13:43:59Z</time>
      </trkpt>
      <trkpt lat="43.97793" lon="7.05025">
        <ele>1131.4</ele>
        <time>2012-11-24T13:44:01Z</time>
      </trkpt>
      <trkpt lat="43.97796" lon="7.05014">
        <ele>1130.1</ele>
        <time>2012-11-24T13:44:03Z</time>
      </trkpt>
      <trkpt lat="43.97797" lon="7.05004">
        <ele>1128.9</ele>
        <time>2012-11-24T13:44:05Z</time>
      </trkpt>
      <trkpt lat="43.97798" lon="7.04995">
        <ele>1127.8</ele>
        <time>2012-11-24T13:44:07Z</time>
      </trkpt>
      <trkpt lat="43.978" lon="7.04985">
        <ele>1127</ele>
        <time>2012-11-24T13:44:09Z</time>
      </trkpt>
      <trkpt lat="43.97804" lon="7.04974">
        <ele>1125.6</ele>
        <time>2012-11-24T13:44:11Z</time>
      </trkpt>
      <trkpt lat="43.97808" lon="7.04964">
        <ele>1124.7</ele>
        <time>2012-11-24T13:44:13Z</time>
      </trkpt>
      <trkpt lat="43.97811" lon="7.04953">
        <ele>1123.5</ele>
        <time>2012-11-24T13:44:15Z</time>
      </trkpt>
      <trkpt lat="43.97813" lon="7.04948">
        <ele>1123.1</ele>
        <time>2012-11-24T13:44:16Z</time>
      </trkpt>
      <trkpt lat="43.97815" lon="7.04941">
        <ele>1122.5</ele>
        <time>2012-11-24T13:44:17Z</time>
      </trkpt>
      <trkpt lat="43.97817" lon="7.04935">
        <ele>1122</ele>
        <time>2012-11-24T13:44:18Z</time>
      </trkpt>
      <trkpt lat="43.97818" lon="7.04928">
        <ele>1121.2</ele>
        <time>2012-11-24T13:44:19Z</time>
      </trkpt>
      <trkpt lat="43.9782" lon="7.04921">
        <ele>1120.5</ele>
        <time>2012-11-24T13:44:20Z</time>
      </trkpt>
      <trkpt lat="43.97823" lon="7.04914">
        <ele>1120</ele>
        <time>2012-11-24T13:44:21Z</time>
      </trkpt>
      <trkpt lat="43.97825" lon="7.04907">
        <ele>1119.7</ele>
        <time>2012-11-24T13:44:22Z</time>
      </trkpt>
      <trkpt lat="43.97829" lon="7.04896">
        <ele>1118.6</ele>
        <time>2012-11-24T13:44:24Z</time>
      </trkpt>
      <trkpt lat="43.97834" lon="7.0489">
        <ele>1117.2</ele>
        <time>2012-11-24T13:44:26Z</time>
      </trkpt>
      <trkpt lat="43.97842" lon="7.04883">
        <ele>1115.2</ele>
        <time>2012-11-24T13:44:29Z</time>
      </trkpt>
      <trkpt lat="43.97844" lon="7.04874">
        <ele>1113.6</ele>
        <time>2012-11-24T13:44:31Z</time>
      </trkpt>
      <trkpt lat="43.97849" lon="7.04865">
        <ele>1109.2</ele>
        <time>2012-11-24T13:44:35Z</time>
      </trkpt>
      <trkpt lat="43.97852" lon="7.04858">
        <ele>1107.6</ele>
        <time>2012-11-24T13:44:38Z</time>
      </trkpt>
      <trkpt lat="43.9785" lon="7.04847">
        <ele>1107.1</ele>
        <time>2012-11-24T13:44:40Z</time>
      </trkpt>
      <trkpt lat="43.97849" lon="7.04841">
        <ele>1106.1</ele>
        <time>2012-11-24T13:44:41Z</time>
      </trkpt>
      <trkpt lat="43.97852" lon="7.04828">
        <ele>1103.3</ele>
        <time>2012-11-24T13:44:44Z</time>
      </trkpt>
      <trkpt lat="43.97853" lon="7.04818">
        <ele>1101.5</ele>
        <time>2012-11-24T13:44:46Z</time>
      </trkpt>
      <trkpt lat="43.97854" lon="7.04806">
        <ele>1100</ele>
        <time>2012-11-24T13:44:48Z</time>
      </trkpt>
      <trkpt lat="43.97854" lon="7.04799">
        <ele>1099.3</ele>
        <time>2012-11-24T13:44:49Z</time>
      </trkpt>
      <trkpt lat="43.97853" lon="7.04792">
        <ele>1098.4</ele>
        <time>2012-11-24T13:44:50Z</time>
      </trkpt>
      <trkpt lat="43.97852" lon="7.04785">
        <ele>1097.7</ele>
        <time>2012-11-24T13:44:51Z</time>
      </trkpt>
      <trkpt lat="43.9785" lon="7.04777">
        <ele>1096.7</ele>
        <time>2012-11-24T13:44:52Z</time>
      </trkpt>
      <trkpt lat="43.97848" lon="7.04771">
        <ele>1096</ele>
        <time>2012-11-24T13:44:53Z</time>
      </trkpt>
      <trkpt lat="43.97846" lon="7.04765">
        <ele>1095.4</ele>
        <time>2012-11-24T13:44:54Z</time>
      </trkpt>
      <trkpt lat="43.97844" lon="7.0476">
        <ele>1094.6</ele>
        <time>2012-11-24T13:44:55Z</time>
      </trkpt>
      <trkpt lat="43.97841" lon="7.04754">
        <ele>1093.9</ele>
        <time>2012-11-24T13:44:56Z</time>
      </trkpt>
      <trkpt lat="43.97838" lon="7.04748">
        <ele>1092.9</ele>
        <time>2012-11-24T13:44:57Z</time>
      </trkpt>
      <trkpt lat="43.97836" lon="7.04743">
        <ele>1092</ele>
        <time>2012-11-24T13:44:58Z</time>
      </trkpt>
      <trkpt lat="43.97834" lon="7.04737">
        <ele>1091.4</ele>
        <time>2012-11-24T13:44:59Z</time>
      </trkpt>
      <trkpt lat="43.97831" lon="7.0473">
        <ele>1090.6</ele>
        <time>2012-11-24T13:45:00Z</time>
      </trkpt>
      <trkpt lat="43.9783" lon="7.04723">
        <ele>1089.9</ele>
        <time>2012-11-24T13:45:01Z</time>
      </trkpt>
      <trkpt lat="43.97829" lon="7.04717">
        <ele>1088.5</ele>
        <time>2012-11-24T13:45:02Z</time>
      </trkpt>
      <trkpt lat="43.97828" lon="7.0471">
        <ele>1087.4</ele>
        <time>2012-11-24T13:45:03Z</time>
      </trkpt>
      <trkpt lat="43.97827" lon="7.04703">
        <ele>1086.7</ele>
        <time>2012-11-24T13:45:04Z</time>
      </trkpt>
      <trkpt lat="43.97825" lon="7.04697">
        <ele>1086.1</ele>
        <time>2012-11-24T13:45:05Z</time>
      </trkpt>
      <trkpt lat="43.97824" lon="7.0469">
        <ele>1085.8</ele>
        <time>2012-11-24T13:45:06Z</time>
      </trkpt>
      <trkpt lat="43.97822" lon="7.04684">
        <ele>1084.5</ele>
        <time>2012-11-24T13:45:07Z</time>
      </trkpt>
      <trkpt lat="43.97821" lon="7.04677">
        <ele>1083.5</ele>
        <time>2012-11-24T13:45:08Z</time>
      </trkpt>
      <trkpt lat="43.9782" lon="7.0467">
        <ele>1082.3</ele>
        <time>2012-11-24T13:45:09Z</time>
      </trkpt>
      <trkpt lat="43.97818" lon="7.04663">
        <ele>1081.4</ele>
        <time>2012-11-24T13:45:10Z</time>
      </trkpt>
      <trkpt lat="43.97817" lon="7.04656">
        <ele>1079.8</ele>
        <time>2012-11-24T13:45:11Z</time>
      </trkpt>
      <trkpt lat="43.97817" lon="7.04649">
        <ele>1078.6</ele>
        <time>2012-11-24T13:45:12Z</time>
      </trkpt>
      <trkpt lat="43.97816" lon="7.04642">
        <ele>1077.7</ele>
        <time>2012-11-24T13:45:13Z</time>
      </trkpt>
      <trkpt lat="43.97817" lon="7.04635">
        <ele>1076.4</ele>
        <time>2012-11-24T13:45:14Z</time>
      </trkpt>
      <trkpt lat="43.97817" lon="7.04628">
        <ele>1075.3</ele>
        <time>2012-11-24T13:45:15Z</time>
      </trkpt>
      <trkpt lat="43.97817" lon="7.0462">
        <ele>1074.6</ele>
        <time>2012-11-24T13:45:16Z</time>
      </trkpt>
      <trkpt lat="43.97817" lon="7.04612">
        <ele>1074.1</ele>
        <time>2012-11-24T13:45:17Z</time>
      </trkpt>
      <trkpt lat="43.97818" lon="7.04603">
        <ele>1073.7</ele>
        <time>2012-11-24T13:45:18Z</time>
      </trkpt>
      <trkpt lat="43.97819" lon="7.04594">
        <ele>1072.5</ele>
        <time>2012-11-24T13:45:19Z</time>
      </trkpt>
      <trkpt lat="43.9782" lon="7.04586">
        <ele>1071.5</ele>
        <time>2012-11-24T13:45:20Z</time>
      </trkpt>
      <trkpt lat="43.97822" lon="7.04578">
        <ele>1070.4</ele>
        <time>2012-11-24T13:45:21Z</time>
      </trkpt>
      <trkpt lat="43.97825" lon="7.04571">
        <ele>1069.5</ele>
        <time>2012-11-24T13:45:22Z</time>
      </trkpt>
      <trkpt lat="43.97828" lon="7.0456">
        <ele>1067.5</ele>
        <time>2012-11-24T13:45:24Z</time>
      </trkpt>
      <trkpt lat="43.97829" lon="7.0455">
        <ele>1066</ele>
        <time>2012-11-24T13:45:26Z</time>
      </trkpt>
      <trkpt lat="43.9783" lon="7.04539">
        <ele>1064.5</ele>
        <time>2012-11-24T13:45:28Z</time>
      </trkpt>
      <trkpt lat="43.97829" lon="7.04527">
        <ele>1063.5</ele>
        <time>2012-11-24T13:45:30Z</time>
      </trkpt>
      <trkpt lat="43.97829" lon="7.04521">
        <ele>1063.2</ele>
        <time>2012-11-24T13:45:31Z</time>
      </trkpt>
      <trkpt lat="43.97829" lon="7.04514">
        <ele>1062.9</ele>
        <time>2012-11-24T13:45:32Z</time>
      </trkpt>
      <trkpt lat="43.97829" lon="7.04507">
        <ele>1062.3</ele>
        <time>2012-11-24T13:45:33Z</time>
      </trkpt>
      <trkpt lat="43.97829" lon="7.04499">
        <ele>1061.9</ele>
        <time>2012-11-24T13:45:34Z</time>
      </trkpt>
      <trkpt lat="43.97829" lon="7.04492">
        <ele>1061</ele>
        <time>2012-11-24T13:45:35Z</time>
      </trkpt>
      <trkpt lat="43.97828" lon="7.04485">
        <ele>1060.4</ele>
        <time>2012-11-24T13:45:36Z</time>
      </trkpt>
      <trkpt lat="43.97827" lon="7.04479">
        <ele>1059.2</ele>
        <time>2012-11-24T13:45:37Z</time>
      </trkpt>
      <trkpt lat="43.97827" lon="7.04472">
        <ele>1058.2</ele>
        <time>2012-11-24T13:45:38Z</time>
      </trkpt>
      <trkpt lat="43.97826" lon="7.04465">
        <ele>1057.5</ele>
        <time>2012-11-24T13:45:39Z</time>
      </trkpt>
      <trkpt lat="43.97825" lon="7.04452">
        <ele>1056.3</ele>
        <time>2012-11-24T13:45:41Z</time>
      </trkpt>
      <trkpt lat="43.97825" lon="7.04447">
        <ele>1055.6</ele>
        <time>2012-11-24T13:45:42Z</time>
      </trkpt>
      <trkpt lat="43.97826" lon="7.04431">
        <ele>1053.8</ele>
        <time>2012-11-24T13:45:46Z</time>
      </trkpt>
      <trkpt lat="43.97827" lon="7.04424">
        <ele>1053</ele>
        <time>2012-11-24T13:45:49Z</time>
      </trkpt>
      <trkpt lat="43.9783" lon="7.04415">
        <ele>1053</ele>
        <time>2012-11-24T13:45:51Z</time>
      </trkpt>
      <trkpt lat="43.97834" lon="7.04404">
        <ele>1052.7</ele>
        <time>2012-11-24T13:45:54Z</time>
      </trkpt>
      <trkpt lat="43.97837" lon="7.04395">
        <ele>1052.7</ele>
        <time>2012-11-24T13:45:57Z</time>
      </trkpt>
      <trkpt lat="43.97839" lon="7.04387">
        <ele>1052.7</ele>
        <time>2012-11-24T13:45:59Z</time>
      </trkpt>
      <trkpt lat="43.97841" lon="7.04377">
        <ele>1053</ele>
        <time>2012-11-24T13:46:01Z</time>
      </trkpt>
      <trkpt lat="43.97844" lon="7.04368">
        <ele>1053.4</ele>
        <time>2012-11-24T13:46:03Z</time>
      </trkpt>
      <trkpt lat="43.97845" lon="7.04357">
        <ele>1053.5</ele>
        <time>2012-11-24T13:46:05Z</time>
      </trkpt>
      <trkpt lat="43.97847" lon="7.04347">
        <ele>1053.7</ele>
        <time>2012-11-24T13:46:07Z</time>
      </trkpt>
      <trkpt lat="43.97851" lon="7.04337">
        <ele>1053.1</ele>
        <time>2012-11-24T13:46:09Z</time>
      </trkpt>
      <trkpt lat="43.97856" lon="7.0433">
        <ele>1052.7</ele>
        <time>2012-11-24T13:46:11Z</time>
      </trkpt>
      <trkpt lat="43.97862" lon="7.04323">
        <ele>1052.2</ele>
        <time>2012-11-24T13:46:13Z</time>
      </trkpt>
      <trkpt lat="43.97869" lon="7.04316">
        <ele>1052</ele>
        <time>2012-11-24T13:46:15Z</time>
      </trkpt>
      <trkpt lat="43.97875" lon="7.04308">
        <ele>1051.9</ele>
        <time>2012-11-24T13:46:17Z</time>
      </trkpt>
      <trkpt lat="43.97878" lon="7.04302">
        <ele>1051.4</ele>
        <time>2012-11-24T13:46:18Z</time>
      </trkpt>
      <trkpt lat="43.9788" lon="7.04291">
        <ele>1050.6</ele>
        <time>2012-11-24T13:46:20Z</time>
      </trkpt>
      <trkpt lat="43.97874" lon="7.04283">
        <ele>1049.9</ele>
        <time>2012-11-24T13:46:23Z</time>
      </trkpt>
      <trkpt lat="43.97866" lon="7.04277">
        <ele>1050.9</ele>
        <time>2012-11-24T13:46:26Z</time>
      </trkpt>
      <trkpt lat="43.9786" lon="7.04274">
        <ele>1051.6</ele>
        <time>2012-11-24T13:46:28Z</time>
      </trkpt>
      <trkpt lat="43.97855" lon="7.04269">
        <ele>1051.9</ele>
        <time>2012-11-24T13:46:30Z</time>
      </trkpt>
      <trkpt lat="43.9785" lon="7.04262">
        <ele>1051.9</ele>
        <time>2012-11-24T13:46:32Z</time>
      </trkpt>
      <trkpt lat="43.97847" lon="7.04254">
        <ele>1051.9</ele>
        <time>2012-11-24T13:46:34Z</time>
      </trkpt>
      <trkpt lat="43.97845" lon="7.04244">
        <ele>1051.9</ele>
        <time>2012-11-24T13:46:36Z</time>
      </trkpt>
      <trkpt lat="43.97842" lon="7.04233">
        <ele>1052</ele>
        <time>2012-11-24T13:46:38Z</time>
      </trkpt>
      <trkpt lat="43.97839" lon="7.04223">
        <ele>1052.5</ele>
        <time>2012-11-24T13:46:40Z</time>
      </trkpt>
      <trkpt lat="43.97837" lon="7.04213">
        <ele>1052.9</ele>
        <time>2012-11-24T13:46:42Z</time>
      </trkpt>
      <trkpt lat="43.97836" lon="7.04208">
        <ele>1053.1</ele>
        <time>2012-11-24T13:46:43Z</time>
      </trkpt>
      <trkpt lat="43.97833" lon="7.04191">
        <ele>1052.4</ele>
        <time>2012-11-24T13:46:46Z</time>
      </trkpt>
      <trkpt lat="43.9783" lon="7.0418">
        <ele>1052</ele>
        <time>2012-11-24T13:46:48Z</time>
      </trkpt>
      <trkpt lat="43.97829" lon="7.04169">
        <ele>1051.7</ele>
        <time>2012-11-24T13:46:50Z</time>
      </trkpt>
      <trkpt lat="43.97828" lon="7.04158">
        <ele>1052.2</ele>
        <time>2012-11-24T13:46:52Z</time>
      </trkpt>
      <trkpt lat="43.97827" lon="7.04147">
        <ele>1051.3</ele>
        <time>2012-11-24T13:46:54Z</time>
      </trkpt>
      <trkpt lat="43.97829" lon="7.04137">
        <ele>1051.3</ele>
        <time>2012-11-24T13:46:56Z</time>
      </trkpt>
      <trkpt lat="43.97832" lon="7.04127">
        <ele>1051.7</ele>
        <time>2012-11-24T13:46:58Z</time>
      </trkpt>
      <trkpt lat="43.97836" lon="7.04119">
        <ele>1051.9</ele>
        <time>2012-11-24T13:47:00Z</time>
      </trkpt>
      <trkpt lat="43.9784" lon="7.04109">
        <ele>1051.9</ele>
        <time>2012-11-24T13:47:02Z</time>
      </trkpt>
      <trkpt lat="43.97845" lon="7.041">
        <ele>1051.9</ele>
        <time>2012-11-24T13:47:04Z</time>
      </trkpt>
      <trkpt lat="43.97848" lon="7.0409">
        <ele>1051.5</ele>
        <time>2012-11-24T13:47:06Z</time>
      </trkpt>
      <trkpt lat="43.9785" lon="7.04081">
        <ele>1051.3</ele>
        <time>2012-11-24T13:47:08Z</time>
      </trkpt>
      <trkpt lat="43.97853" lon="7.04072">
        <ele>1051.2</ele>
        <time>2012-11-24T13:47:10Z</time>
      </trkpt>
      <trkpt lat="43.97856" lon="7.04061">
        <ele>1050.5</ele>
        <time>2012-11-24T13:47:21Z</time>
      </trkpt>
      <trkpt lat="43.97859" lon="7.04053">
        <ele>1050.9</ele>
        <time>2012-11-24T13:47:24Z</time>
      </trkpt>
      <trkpt lat="43.97861" lon="7.04042">
        <ele>1051</ele>
        <time>2012-11-24T13:47:27Z</time>
      </trkpt>
      <trkpt lat="43.9786" lon="7.04031">
        <ele>1051.3</ele>
        <time>2012-11-24T13:47:29Z</time>
      </trkpt>
      <trkpt lat="43.97861" lon="7.0402">
        <ele>1051.5</ele>
        <time>2012-11-24T13:47:31Z</time>
      </trkpt>
      <trkpt lat="43.9786" lon="7.04009">
        <ele>1051.4</ele>
        <time>2012-11-24T13:47:33Z</time>
      </trkpt>
      <trkpt lat="43.9786" lon="7.03998">
        <ele>1051.5</ele>
        <time>2012-11-24T13:47:35Z</time>
      </trkpt>
      <trkpt lat="43.9786" lon="7.03987">
        <ele>1051.3</ele>
        <time>2012-11-24T13:47:37Z</time>
      </trkpt>
      <trkpt lat="43.9786" lon="7.03976">
        <ele>1051.1</ele>
        <time>2012-11-24T13:47:39Z</time>
      </trkpt>
      <trkpt lat="43.97861" lon="7.03965">
        <ele>1050.8</ele>
        <time>2012-11-24T13:47:41Z</time>
      </trkpt>
      <trkpt lat="43.97862" lon="7.03954">
        <ele>1050.6</ele>
        <time>2012-11-24T13:47:43Z</time>
      </trkpt>
      <trkpt lat="43.97861" lon="7.03949">
        <ele>1050.4</ele>
        <time>2012-11-24T13:47:44Z</time>
      </trkpt>
      <trkpt lat="43.97857" lon="7.03935">
        <ele>1050.2</ele>
        <time>2012-11-24T13:47:47Z</time>
      </trkpt>
      <trkpt lat="43.97856" lon="7.03925">
        <ele>1050.3</ele>
        <time>2012-11-24T13:47:50Z</time>
      </trkpt>
      <trkpt lat="43.97852" lon="7.03919">
        <ele>1050.4</ele>
        <time>2012-11-24T13:47:52Z</time>
      </trkpt>
      <trkpt lat="43.97846" lon="7.03913">
        <ele>1050.4</ele>
        <time>2012-11-24T13:47:54Z</time>
      </trkpt>
      <trkpt lat="43.97842" lon="7.03906">
        <ele>1049.8</ele>
        <time>2012-11-24T13:47:56Z</time>
      </trkpt>
      <trkpt lat="43.97839" lon="7.03896">
        <ele>1049.3</ele>
        <time>2012-11-24T13:47:58Z</time>
      </trkpt>
      <trkpt lat="43.97835" lon="7.03886">
        <ele>1048.6</ele>
        <time>2012-11-24T13:48:00Z</time>
      </trkpt>
      <trkpt lat="43.97831" lon="7.03876">
        <ele>1047.5</ele>
        <time>2012-11-24T13:48:02Z</time>
      </trkpt>
      <trkpt lat="43.97828" lon="7.03865">
        <ele>1046.4</ele>
        <time>2012-11-24T13:48:04Z</time>
      </trkpt>
      <trkpt lat="43.97827" lon="7.03854">
        <ele>1045.2</ele>
        <time>2012-11-24T13:48:06Z</time>
      </trkpt>
      <trkpt lat="43.97825" lon="7.03842">
        <ele>1044.5</ele>
        <time>2012-11-24T13:48:08Z</time>
      </trkpt>
      <trkpt lat="43.97824" lon="7.03835">
        <ele>1043.6</ele>
        <time>2012-11-24T13:48:09Z</time>
      </trkpt>
      <trkpt lat="43.97824" lon="7.03824">
        <ele>1042.5</ele>
        <time>2012-11-24T13:48:11Z</time>
      </trkpt>
      <trkpt lat="43.97825" lon="7.03814">
        <ele>1042.4</ele>
        <time>2012-11-24T13:48:13Z</time>
      </trkpt>
      <trkpt lat="43.97825" lon="7.03805">
        <ele>1041.1</ele>
        <time>2012-11-24T13:48:15Z</time>
      </trkpt>
      <trkpt lat="43.97823" lon="7.03796">
        <ele>1040.5</ele>
        <time>2012-11-24T13:48:17Z</time>
      </trkpt>
      <trkpt lat="43.97818" lon="7.03787">
        <ele>1039.9</ele>
        <time>2012-11-24T13:48:19Z</time>
      </trkpt>
      <trkpt lat="43.97815" lon="7.03782">
        <ele>1039.5</ele>
        <time>2012-11-24T13:48:20Z</time>
      </trkpt>
      <trkpt lat="43.97812" lon="7.03777">
        <ele>1038.4</ele>
        <time>2012-11-24T13:48:21Z</time>
      </trkpt>
      <trkpt lat="43.97809" lon="7.03772">
        <ele>1037.6</ele>
        <time>2012-11-24T13:48:22Z</time>
      </trkpt>
      <trkpt lat="43.97806" lon="7.03766">
        <ele>1037</ele>
        <time>2012-11-24T13:48:23Z</time>
      </trkpt>
      <trkpt lat="43.97804" lon="7.0376">
        <ele>1036.4</ele>
        <time>2012-11-24T13:48:24Z</time>
      </trkpt>
      <trkpt lat="43.97801" lon="7.03753">
        <ele>1035.9</ele>
        <time>2012-11-24T13:48:25Z</time>
      </trkpt>
      <trkpt lat="43.97799" lon="7.03746">
        <ele>1035.1</ele>
        <time>2012-11-24T13:48:26Z</time>
      </trkpt>
      <trkpt lat="43.97798" lon="7.03739">
        <ele>1034.5</ele>
        <time>2012-11-24T13:48:27Z</time>
      </trkpt>
      <trkpt lat="43.97797" lon="7.03732">
        <ele>1033.1</ele>
        <time>2012-11-24T13:48:28Z</time>
      </trkpt>
      <trkpt lat="43.97797" lon="7.03726">
        <ele>1032.1</ele>
        <time>2012-11-24T13:48:29Z</time>
      </trkpt>
      <trkpt lat="43.97796" lon="7.03719">
        <ele>1031.4</ele>
        <time>2012-11-24T13:48:30Z</time>
      </trkpt>
      <trkpt lat="43.97795" lon="7.03712">
        <ele>1030.9</ele>
        <time>2012-11-24T13:48:31Z</time>
      </trkpt>
      <trkpt lat="43.97795" lon="7.03706">
        <ele>1030.5</ele>
        <time>2012-11-24T13:48:32Z</time>
      </trkpt>
      <trkpt lat="43.97795" lon="7.03693">
        <ele>1029.2</ele>
        <time>2012-11-24T13:48:34Z</time>
      </trkpt>
      <trkpt lat="43.97795" lon="7.03687">
        <ele>1028.8</ele>
        <time>2012-11-24T13:48:35Z</time>
      </trkpt>
      <trkpt lat="43.97796" lon="7.03681">
        <ele>1028.3</ele>
        <time>2012-11-24T13:48:36Z</time>
      </trkpt>
      <trkpt lat="43.97796" lon="7.03674">
        <ele>1027.9</ele>
        <time>2012-11-24T13:48:37Z</time>
      </trkpt>
      <trkpt lat="43.97796" lon="7.03666">
        <ele>1027.2</ele>
        <time>2012-11-24T13:48:38Z</time>
      </trkpt>
      <trkpt lat="43.97797" lon="7.03659">
        <ele>1026.6</ele>
        <time>2012-11-24T13:48:39Z</time>
      </trkpt>
      <trkpt lat="43.97797" lon="7.03652">
        <ele>1025.6</ele>
        <time>2012-11-24T13:48:40Z</time>
      </trkpt>
      <trkpt lat="43.97797" lon="7.03645">
        <ele>1024.9</ele>
        <time>2012-11-24T13:48:41Z</time>
      </trkpt>
      <trkpt lat="43.97797" lon="7.03639">
        <ele>1024.4</ele>
        <time>2012-11-24T13:48:42Z</time>
      </trkpt>
      <trkpt lat="43.97796" lon="7.03627">
        <ele>1023.5</ele>
        <time>2012-11-24T13:48:44Z</time>
      </trkpt>
      <trkpt lat="43.97796" lon="7.03621">
        <ele>1022.7</ele>
        <time>2012-11-24T13:48:45Z</time>
      </trkpt>
      <trkpt lat="43.97796" lon="7.03608">
        <ele>1021.2</ele>
        <time>2012-11-24T13:48:47Z</time>
      </trkpt>
      <trkpt lat="43.97796" lon="7.03602">
        <ele>1020.6</ele>
        <time>2012-11-24T13:48:48Z</time>
      </trkpt>
      <trkpt lat="43.97796" lon="7.03596">
        <ele>1020.1</ele>
        <time>2012-11-24T13:48:49Z</time>
      </trkpt>
      <trkpt lat="43.97796" lon="7.03589">
        <ele>1019.7</ele>
        <time>2012-11-24T13:48:50Z</time>
      </trkpt>
      <trkpt lat="43.97796" lon="7.03582">
        <ele>1019.4</ele>
        <time>2012-11-24T13:48:51Z</time>
      </trkpt>
      <trkpt lat="43.97796" lon="7.03574">
        <ele>1018.5</ele>
        <time>2012-11-24T13:48:52Z</time>
      </trkpt>
      <trkpt lat="43.97796" lon="7.03567">
        <ele>1017.9</ele>
        <time>2012-11-24T13:48:53Z</time>
      </trkpt>
      <trkpt lat="43.97796" lon="7.0356">
        <ele>1017.1</ele>
        <time>2012-11-24T13:48:54Z</time>
      </trkpt>
      <trkpt lat="43.97796" lon="7.03553">
        <ele>1016.5</ele>
        <time>2012-11-24T13:48:55Z</time>
      </trkpt>
      <trkpt lat="43.97795" lon="7.03546">
        <ele>1016</ele>
        <time>2012-11-24T13:48:56Z</time>
      </trkpt>
      <trkpt lat="43.97795" lon="7.03539">
        <ele>1015.3</ele>
        <time>2012-11-24T13:48:57Z</time>
      </trkpt>
      <trkpt lat="43.97794" lon="7.03532">
        <ele>1014.7</ele>
        <time>2012-11-24T13:48:58Z</time>
      </trkpt>
      <trkpt lat="43.97793" lon="7.03525">
        <ele>1013.7</ele>
        <time>2012-11-24T13:48:59Z</time>
      </trkpt>
      <trkpt lat="43.97793" lon="7.03518">
        <ele>1013</ele>
        <time>2012-11-24T13:49:00Z</time>
      </trkpt>
      <trkpt lat="43.97792" lon="7.03511">
        <ele>1012.5</ele>
        <time>2012-11-24T13:49:01Z</time>
      </trkpt>
      <trkpt lat="43.9779" lon="7.03504">
        <ele>1012</ele>
        <time>2012-11-24T13:49:02Z</time>
      </trkpt>
      <trkpt lat="43.97788" lon="7.03496">
        <ele>1011.6</ele>
        <time>2012-11-24T13:49:03Z</time>
      </trkpt>
      <trkpt lat="43.97786" lon="7.03488">
        <ele>1010.3</ele>
        <time>2012-11-24T13:49:04Z</time>
      </trkpt>
      <trkpt lat="43.97784" lon="7.0348">
        <ele>1009.3</ele>
        <time>2012-11-24T13:49:05Z</time>
      </trkpt>
      <trkpt lat="43.97782" lon="7.03472">
        <ele>1008.4</ele>
        <time>2012-11-24T13:49:06Z</time>
      </trkpt>
      <trkpt lat="43.9778" lon="7.03463">
        <ele>1007.8</ele>
        <time>2012-11-24T13:49:07Z</time>
      </trkpt>
      <trkpt lat="43.97777" lon="7.03455">
        <ele>1007.3</ele>
        <time>2012-11-24T13:49:08Z</time>
      </trkpt>
      <trkpt lat="43.97775" lon="7.03447">
        <ele>1006.2</ele>
        <time>2012-11-24T13:49:09Z</time>
      </trkpt>
      <trkpt lat="43.97773" lon="7.03439">
        <ele>1005.4</ele>
        <time>2012-11-24T13:49:10Z</time>
      </trkpt>
      <trkpt lat="43.97771" lon="7.0343">
        <ele>1004.9</ele>
        <time>2012-11-24T13:49:11Z</time>
      </trkpt>
      <trkpt lat="43.9777" lon="7.03422">
        <ele>1004.5</ele>
        <time>2012-11-24T13:49:12Z</time>
      </trkpt>
      <trkpt lat="43.9777" lon="7.03412">
        <ele>1003.3</ele>
        <time>2012-11-24T13:49:13Z</time>
      </trkpt>
      <trkpt lat="43.97769" lon="7.03404">
        <ele>1002.4</ele>
        <time>2012-11-24T13:49:14Z</time>
      </trkpt>
      <trkpt lat="43.97768" lon="7.03395">
        <ele>1001.7</ele>
        <time>2012-11-24T13:49:15Z</time>
      </trkpt>
      <trkpt lat="43.97767" lon="7.03387">
        <ele>1000.8</ele>
        <time>2012-11-24T13:49:16Z</time>
      </trkpt>
      <trkpt lat="43.97766" lon="7.03379">
        <ele>1000.2</ele>
        <time>2012-11-24T13:49:17Z</time>
      </trkpt>
      <trkpt lat="43.97766" lon="7.03371">
        <ele>999.5</ele>
        <time>2012-11-24T13:49:18Z</time>
      </trkpt>
      <trkpt lat="43.97766" lon="7.03362">
        <ele>999.1</ele>
        <time>2012-11-24T13:49:19Z</time>
      </trkpt>
      <trkpt lat="43.97766" lon="7.03354">
        <ele>998.7</ele>
        <time>2012-11-24T13:49:20Z</time>
      </trkpt>
      <trkpt lat="43.97766" lon="7.03346">
        <ele>998.2</ele>
        <time>2012-11-24T13:49:21Z</time>
      </trkpt>
      <trkpt lat="43.97767" lon="7.03337">
        <ele>997.8</ele>
        <time>2012-11-24T13:49:22Z</time>
      </trkpt>
      <trkpt lat="43.97767" lon="7.03329">
        <ele>997</ele>
        <time>2012-11-24T13:49:23Z</time>
      </trkpt>
      <trkpt lat="43.97768" lon="7.03321">
        <ele>996.5</ele>
        <time>2012-11-24T13:49:24Z</time>
      </trkpt>
      <trkpt lat="43.97769" lon="7.03313">
        <ele>995.1</ele>
        <time>2012-11-24T13:49:25Z</time>
      </trkpt>
      <trkpt lat="43.9777" lon="7.03305">
        <ele>994</ele>
        <time>2012-11-24T13:49:26Z</time>
      </trkpt>
      <trkpt lat="43.97771" lon="7.03296">
        <ele>993.2</ele>
        <time>2012-11-24T13:49:27Z</time>
      </trkpt>
      <trkpt lat="43.97772" lon="7.03288">
        <ele>992.2</ele>
        <time>2012-11-24T13:49:28Z</time>
      </trkpt>
      <trkpt lat="43.97773" lon="7.0328">
        <ele>991.4</ele>
        <time>2012-11-24T13:49:29Z</time>
      </trkpt>
      <trkpt lat="43.97774" lon="7.03271">
        <ele>991</ele>
        <time>2012-11-24T13:49:30Z</time>
      </trkpt>
      <trkpt lat="43.97776" lon="7.03263">
        <ele>990.7</ele>
        <time>2012-11-24T13:49:31Z</time>
      </trkpt>
      <trkpt lat="43.97777" lon="7.03255">
        <ele>990</ele>
        <time>2012-11-24T13:49:32Z</time>
      </trkpt>
      <trkpt lat="43.97778" lon="7.03248">
        <ele>989.5</ele>
        <time>2012-11-24T13:49:33Z</time>
      </trkpt>
      <trkpt lat="43.97778" lon="7.03241">
        <ele>989</ele>
        <time>2012-11-24T13:49:34Z</time>
      </trkpt>
      <trkpt lat="43.97779" lon="7.03235">
        <ele>988.6</ele>
        <time>2012-11-24T13:49:35Z</time>
      </trkpt>
      <trkpt lat="43.97781" lon="7.03224">
        <ele>987.8</ele>
        <time>2012-11-24T13:49:37Z</time>
      </trkpt>
      <trkpt lat="43.97773" lon="7.03229">
        <ele>985.4</ele>
        <time>2012-11-24T13:49:43Z</time>
      </trkpt>
      <trkpt lat="43.97771" lon="7.03241">
        <ele>984.8</ele>
        <time>2012-11-24T13:49:46Z</time>
      </trkpt>
      <trkpt lat="43.97769" lon="7.03245">
        <ele>984.5</ele>
        <time>2012-11-24T13:49:47Z</time>
      </trkpt>
      <trkpt lat="43.97763" lon="7.03256">
        <ele>983.9</ele>
        <time>2012-11-24T13:49:50Z</time>
      </trkpt>
      <trkpt lat="43.9776" lon="7.03264">
        <ele>982.4</ele>
        <time>2012-11-24T13:49:52Z</time>
      </trkpt>
      <trkpt lat="43.97756" lon="7.03275">
        <ele>981.6</ele>
        <time>2012-11-24T13:49:54Z</time>
      </trkpt>
      <trkpt lat="43.97753" lon="7.03286">
        <ele>980.6</ele>
        <time>2012-11-24T13:49:56Z</time>
      </trkpt>
      <trkpt lat="43.97752" lon="7.03292">
        <ele>980.1</ele>
        <time>2012-11-24T13:49:57Z</time>
      </trkpt>
      <trkpt lat="43.9775" lon="7.03299">
        <ele>979.7</ele>
        <time>2012-11-24T13:49:58Z</time>
      </trkpt>
      <trkpt lat="43.97748" lon="7.03305">
        <ele>979.5</ele>
        <time>2012-11-24T13:49:59Z</time>
      </trkpt>
      <trkpt lat="43.97746" lon="7.03311">
        <ele>979.4</ele>
        <time>2012-11-24T13:50:00Z</time>
      </trkpt>
      <trkpt lat="43.97742" lon="7.03322">
        <ele>977.7</ele>
        <time>2012-11-24T13:50:02Z</time>
      </trkpt>
      <trkpt lat="43.9774" lon="7.03332">
        <ele>977</ele>
        <time>2012-11-24T13:50:04Z</time>
      </trkpt>
      <trkpt lat="43.97738" lon="7.03343">
        <ele>976</ele>
        <time>2012-11-24T13:50:06Z</time>
      </trkpt>
      <trkpt lat="43.97737" lon="7.03349">
        <ele>975.4</ele>
        <time>2012-11-24T13:50:07Z</time>
      </trkpt>
      <trkpt lat="43.97736" lon="7.03356">
        <ele>974.7</ele>
        <time>2012-11-24T13:50:08Z</time>
      </trkpt>
      <trkpt lat="43.97734" lon="7.03363">
        <ele>974.2</ele>
        <time>2012-11-24T13:50:09Z</time>
      </trkpt>
      <trkpt lat="43.97733" lon="7.03369">
        <ele>973.5</ele>
        <time>2012-11-24T13:50:10Z</time>
      </trkpt>
      <trkpt lat="43.97733" lon="7.03376">
        <ele>973</ele>
        <time>2012-11-24T13:50:11Z</time>
      </trkpt>
      <trkpt lat="43.97732" lon="7.03383">
        <ele>972.6</ele>
        <time>2012-11-24T13:50:12Z</time>
      </trkpt>
      <trkpt lat="43.97731" lon="7.03391">
        <ele>972.2</ele>
        <time>2012-11-24T13:50:13Z</time>
      </trkpt>
      <trkpt lat="43.97731" lon="7.03398">
        <ele>971.9</ele>
        <time>2012-11-24T13:50:14Z</time>
      </trkpt>
      <trkpt lat="43.9773" lon="7.03405">
        <ele>971.2</ele>
        <time>2012-11-24T13:50:15Z</time>
      </trkpt>
      <trkpt lat="43.9773" lon="7.03413">
        <ele>970.7</ele>
        <time>2012-11-24T13:50:16Z</time>
      </trkpt>
      <trkpt lat="43.9773" lon="7.03421">
        <ele>970</ele>
        <time>2012-11-24T13:50:17Z</time>
      </trkpt>
      <trkpt lat="43.9773" lon="7.03428">
        <ele>969.5</ele>
        <time>2012-11-24T13:50:18Z</time>
      </trkpt>
      <trkpt lat="43.97731" lon="7.03437">
        <ele>969.2</ele>
        <time>2012-11-24T13:50:19Z</time>
      </trkpt>
      <trkpt lat="43.97731" lon="7.03445">
        <ele>968.7</ele>
        <time>2012-11-24T13:50:20Z</time>
      </trkpt>
      <trkpt lat="43.97732" lon="7.03453">
        <ele>968.3</ele>
        <time>2012-11-24T13:50:21Z</time>
      </trkpt>
      <trkpt lat="43.97732" lon="7.03461">
        <ele>967.2</ele>
        <time>2012-11-24T13:50:22Z</time>
      </trkpt>
      <trkpt lat="43.97732" lon="7.03469">
        <ele>966.3</ele>
        <time>2012-11-24T13:50:23Z</time>
      </trkpt>
      <trkpt lat="43.97732" lon="7.03477">
        <ele>965.7</ele>
        <time>2012-11-24T13:50:24Z</time>
      </trkpt>
      <trkpt lat="43.97732" lon="7.03485">
        <ele>965.2</ele>
        <time>2012-11-24T13:50:25Z</time>
      </trkpt>
      <trkpt lat="43.97731" lon="7.03493">
        <ele>964.8</ele>
        <time>2012-11-24T13:50:26Z</time>
      </trkpt>
      <trkpt lat="43.97731" lon="7.035">
        <ele>964.3</ele>
        <time>2012-11-24T13:50:27Z</time>
      </trkpt>
      <trkpt lat="43.97729" lon="7.03507">
        <ele>963.9</ele>
        <time>2012-11-24T13:50:28Z</time>
      </trkpt>
      <trkpt lat="43.97722" lon="7.03514">
        <ele>963.6</ele>
        <time>2012-11-24T13:50:30Z</time>
      </trkpt>
      <trkpt lat="43.97714" lon="7.03518">
        <ele>963</ele>
        <time>2012-11-24T13:50:32Z</time>
      </trkpt>
      <trkpt lat="43.97708" lon="7.03521">
        <ele>962.3</ele>
        <time>2012-11-24T13:50:34Z</time>
      </trkpt>
      <trkpt lat="43.97701" lon="7.03518">
        <ele>961.8</ele>
        <time>2012-11-24T13:50:37Z</time>
      </trkpt>
      <trkpt lat="43.97696" lon="7.03513">
        <ele>961.7</ele>
        <time>2012-11-24T13:50:39Z</time>
      </trkpt>
      <trkpt lat="43.97691" lon="7.03507">
        <ele>961.8</ele>
        <time>2012-11-24T13:50:41Z</time>
      </trkpt>
      <trkpt lat="43.97686" lon="7.03499">
        <ele>961.8</ele>
        <time>2012-11-24T13:50:43Z</time>
      </trkpt>
      <trkpt lat="43.97683" lon="7.03489">
        <ele>961.5</ele>
        <time>2012-11-24T13:50:45Z</time>
      </trkpt>
      <trkpt lat="43.97681" lon="7.03478">
        <ele>960.9</ele>
        <time>2012-11-24T13:50:47Z</time>
      </trkpt>
      <trkpt lat="43.9768" lon="7.03473">
        <ele>960.9</ele>
        <time>2012-11-24T13:50:48Z</time>
      </trkpt>
      <trkpt lat="43.97676" lon="7.03459">
        <ele>960.6</ele>
        <time>2012-11-24T13:50:51Z</time>
      </trkpt>
      <trkpt lat="43.97672" lon="7.0345">
        <ele>960.9</ele>
        <time>2012-11-24T13:50:53Z</time>
      </trkpt>
      <trkpt lat="43.97667" lon="7.03441">
        <ele>961.3</ele>
        <time>2012-11-24T13:50:55Z</time>
      </trkpt>
      <trkpt lat="43.97663" lon="7.03433">
        <ele>961.4</ele>
        <time>2012-11-24T13:50:57Z</time>
      </trkpt>
      <trkpt lat="43.97658" lon="7.03425">
        <ele>961.4</ele>
        <time>2012-11-24T13:50:59Z</time>
      </trkpt>
      <trkpt lat="43.97652" lon="7.03416">
        <ele>960.9</ele>
        <time>2012-11-24T13:51:01Z</time>
      </trkpt>
      <trkpt lat="43.97648" lon="7.03408">
        <ele>960.8</ele>
        <time>2012-11-24T13:51:03Z</time>
      </trkpt>
      <trkpt lat="43.97645" lon="7.03399">
        <ele>960.9</ele>
        <time>2012-11-24T13:51:05Z</time>
      </trkpt>
      <trkpt lat="43.97642" lon="7.03389">
        <ele>961.1</ele>
        <time>2012-11-24T13:51:07Z</time>
      </trkpt>
      <trkpt lat="43.97641" lon="7.03378">
        <ele>961.3</ele>
        <time>2012-11-24T13:51:09Z</time>
      </trkpt>
      <trkpt lat="43.97641" lon="7.03368">
        <ele>961.4</ele>
        <time>2012-11-24T13:51:11Z</time>
      </trkpt>
      <trkpt lat="43.97642" lon="7.03358">
        <ele>961.1</ele>
        <time>2012-11-24T13:51:13Z</time>
      </trkpt>
      <trkpt lat="43.97643" lon="7.03347">
        <ele>960.9</ele>
        <time>2012-11-24T13:51:15Z</time>
      </trkpt>
      <trkpt lat="43.97643" lon="7.03337">
        <ele>961</ele>
        <time>2012-11-24T13:51:17Z</time>
      </trkpt>
      <trkpt lat="43.97643" lon="7.03326">
        <ele>961</ele>
        <time>2012-11-24T13:51:19Z</time>
      </trkpt>
      <trkpt lat="43.9764" lon="7.03315">
        <ele>960.9</ele>
        <time>2012-11-24T13:51:21Z</time>
      </trkpt>
      <trkpt lat="43.97636" lon="7.03307">
        <ele>961.2</ele>
        <time>2012-11-24T13:51:23Z</time>
      </trkpt>
      <trkpt lat="43.97631" lon="7.033">
        <ele>960.9</ele>
        <time>2012-11-24T13:51:25Z</time>
      </trkpt>
      <trkpt lat="43.97625" lon="7.03296">
        <ele>960.2</ele>
        <time>2012-11-24T13:51:27Z</time>
      </trkpt>
      <trkpt lat="43.97618" lon="7.03292">
        <ele>960.1</ele>
        <time>2012-11-24T13:51:29Z</time>
      </trkpt>
      <trkpt lat="43.97611" lon="7.03285">
        <ele>958.9</ele>
        <time>2012-11-24T13:51:37Z</time>
      </trkpt>
      <trkpt lat="43.97607" lon="7.03274">
        <ele>958.8</ele>
        <time>2012-11-24T13:52:40Z</time>
      </trkpt>
      <trkpt lat="43.97607" lon="7.03274">
        <ele>958.9</ele>
        <time>2012-11-24T13:52:41Z</time>
      </trkpt>
      <trkpt lat="43.97598" lon="7.03259">
        <ele>959.8</ele>
        <time>2012-11-24T13:52:58Z</time>
      </trkpt>
      <trkpt lat="43.97597" lon="7.03248">
        <ele>960.9</ele>
        <time>2012-11-24T13:53:02Z</time>
      </trkpt>
      <trkpt lat="43.97596" lon="7.03236">
        <ele>961.7</ele>
        <time>2012-11-24T13:53:06Z</time>
      </trkpt>
      <trkpt lat="43.97593" lon="7.03228">
        <ele>961.9</ele>
        <time>2012-11-24T13:53:09Z</time>
      </trkpt>
      <trkpt lat="43.97589" lon="7.03219">
        <ele>961.7</ele>
        <time>2012-11-24T13:53:12Z</time>
      </trkpt>
      <trkpt lat="43.97584" lon="7.0321">
        <ele>962.4</ele>
        <time>2012-11-24T13:53:16Z</time>
      </trkpt>
      <trkpt lat="43.97581" lon="7.03201">
        <ele>963.9</ele>
        <time>2012-11-24T13:53:20Z</time>
      </trkpt>
      <trkpt lat="43.9758" lon="7.0319">
        <ele>964</ele>
        <time>2012-11-24T13:53:24Z</time>
      </trkpt>
      <trkpt lat="43.97576" lon="7.03181">
        <ele>964.4</ele>
        <time>2012-11-24T13:53:28Z</time>
      </trkpt>
      <trkpt lat="43.97567" lon="7.0318">
        <ele>964.8</ele>
        <time>2012-11-24T13:53:32Z</time>
      </trkpt>
      <trkpt lat="43.9756" lon="7.03181">
        <ele>965.1</ele>
        <time>2012-11-24T13:53:35Z</time>
      </trkpt>
      <trkpt lat="43.97553" lon="7.03181">
        <ele>965.2</ele>
        <time>2012-11-24T13:53:38Z</time>
      </trkpt>
      <trkpt lat="43.97546" lon="7.03173">
        <ele>965.5</ele>
        <time>2012-11-24T13:53:42Z</time>
      </trkpt>
      <trkpt lat="43.97546" lon="7.03172">
        <ele>965.4</ele>
        <time>2012-11-24T13:53:43Z</time>
      </trkpt>
      <trkpt lat="43.97541" lon="7.0315">
        <ele>965.4</ele>
        <time>2012-11-24T13:54:13Z</time>
      </trkpt>
      <trkpt lat="43.97538" lon="7.0314">
        <ele>965.9</ele>
        <time>2012-11-24T13:54:17Z</time>
      </trkpt>
      <trkpt lat="43.97531" lon="7.03138">
        <ele>966.4</ele>
        <time>2012-11-24T13:54:30Z</time>
      </trkpt>
      <trkpt lat="43.97526" lon="7.03129">
        <ele>966.4</ele>
        <time>2012-11-24T13:54:33Z</time>
      </trkpt>
      <trkpt lat="43.97522" lon="7.03121">
        <ele>966</ele>
        <time>2012-11-24T13:54:35Z</time>
      </trkpt>
      <trkpt lat="43.97521" lon="7.03115">
        <ele>965.8</ele>
        <time>2012-11-24T13:54:36Z</time>
      </trkpt>
      <trkpt lat="43.9752" lon="7.03109">
        <ele>965.6</ele>
        <time>2012-11-24T13:54:37Z</time>
      </trkpt>
      <trkpt lat="43.9752" lon="7.03098">
        <ele>964.5</ele>
        <time>2012-11-24T13:54:39Z</time>
      </trkpt>
      <trkpt lat="43.97518" lon="7.0309">
        <ele>963.4</ele>
        <time>2012-11-24T13:54:41Z</time>
      </trkpt>
      <trkpt lat="43.97513" lon="7.03082">
        <ele>962.5</ele>
        <time>2012-11-24T13:54:43Z</time>
      </trkpt>
      <trkpt lat="43.97511" lon="7.03078">
        <ele>961.9</ele>
        <time>2012-11-24T13:54:44Z</time>
      </trkpt>
      <trkpt lat="43.97508" lon="7.03065">
        <ele>960.7</ele>
        <time>2012-11-24T13:54:47Z</time>
      </trkpt>
      <trkpt lat="43.97507" lon="7.03054">
        <ele>959.7</ele>
        <time>2012-11-24T13:54:49Z</time>
      </trkpt>
      <trkpt lat="43.97506" lon="7.03047">
        <ele>959.2</ele>
        <time>2012-11-24T13:54:50Z</time>
      </trkpt>
      <trkpt lat="43.97503" lon="7.03041">
        <ele>958.8</ele>
        <time>2012-11-24T13:54:51Z</time>
      </trkpt>
      <trkpt lat="43.975" lon="7.03034">
        <ele>958.5</ele>
        <time>2012-11-24T13:54:52Z</time>
      </trkpt>
      <trkpt lat="43.97497" lon="7.03029">
        <ele>958</ele>
        <time>2012-11-24T13:54:53Z</time>
      </trkpt>
      <trkpt lat="43.97494" lon="7.03024">
        <ele>957.6</ele>
        <time>2012-11-24T13:54:54Z</time>
      </trkpt>
      <trkpt lat="43.97491" lon="7.03018">
        <ele>956.9</ele>
        <time>2012-11-24T13:54:55Z</time>
      </trkpt>
      <trkpt lat="43.97487" lon="7.03012">
        <ele>956.3</ele>
        <time>2012-11-24T13:54:56Z</time>
      </trkpt>
      <trkpt lat="43.97484" lon="7.03005">
        <ele>955.9</ele>
        <time>2012-11-24T13:54:57Z</time>
      </trkpt>
      <trkpt lat="43.97481" lon="7.02998">
        <ele>955.1</ele>
        <time>2012-11-24T13:54:58Z</time>
      </trkpt>
      <trkpt lat="43.97478" lon="7.02991">
        <ele>954.5</ele>
        <time>2012-11-24T13:54:59Z</time>
      </trkpt>
      <trkpt lat="43.97476" lon="7.02984">
        <ele>953.8</ele>
        <time>2012-11-24T13:55:00Z</time>
      </trkpt>
      <trkpt lat="43.97473" lon="7.02977">
        <ele>953.3</ele>
        <time>2012-11-24T13:55:01Z</time>
      </trkpt>
      <trkpt lat="43.97472" lon="7.02966">
        <ele>952.6</ele>
        <time>2012-11-24T13:55:03Z</time>
      </trkpt>
      <trkpt lat="43.97475" lon="7.02955">
        <ele>952.6</ele>
        <time>2012-11-24T13:55:05Z</time>
      </trkpt>
      <trkpt lat="43.97476" lon="7.02943">
        <ele>950.4</ele>
        <time>2012-11-24T13:55:43Z</time>
      </trkpt>
      <trkpt lat="43.97479" lon="7.02937">
        <ele>950</ele>
        <time>2012-11-24T13:55:45Z</time>
      </trkpt>
      <trkpt lat="43.97483" lon="7.02933">
        <ele>949.7</ele>
        <time>2012-11-24T13:55:46Z</time>
      </trkpt>
      <trkpt lat="43.97484" lon="7.02916">
        <ele>948.5</ele>
        <time>2012-11-24T13:55:49Z</time>
      </trkpt>
      <trkpt lat="43.97486" lon="7.02911">
        <ele>947.8</ele>
        <time>2012-11-24T13:55:50Z</time>
      </trkpt>
      <trkpt lat="43.97488" lon="7.02904">
        <ele>947.4</ele>
        <time>2012-11-24T13:55:51Z</time>
      </trkpt>
      <trkpt lat="43.9749" lon="7.02898">
        <ele>947.4</ele>
        <time>2012-11-24T13:55:52Z</time>
      </trkpt>
      <trkpt lat="43.97491" lon="7.02887">
        <ele>947.3</ele>
        <time>2012-11-24T13:55:54Z</time>
      </trkpt>
      <trkpt lat="43.97487" lon="7.02878">
        <ele>946.4</ele>
        <time>2012-11-24T13:55:56Z</time>
      </trkpt>
      <trkpt lat="43.97485" lon="7.02872">
        <ele>945.7</ele>
        <time>2012-11-24T13:55:57Z</time>
      </trkpt>
      <trkpt lat="43.97482" lon="7.02867">
        <ele>945.2</ele>
        <time>2012-11-24T13:55:58Z</time>
      </trkpt>
      <trkpt lat="43.97478" lon="7.02861">
        <ele>944.4</ele>
        <time>2012-11-24T13:55:59Z</time>
      </trkpt>
      <trkpt lat="43.97474" lon="7.02856">
        <ele>943.8</ele>
        <time>2012-11-24T13:56:00Z</time>
      </trkpt>
      <trkpt lat="43.97469" lon="7.02853">
        <ele>943.4</ele>
        <time>2012-11-24T13:56:01Z</time>
      </trkpt>
      <trkpt lat="43.97463" lon="7.02851">
        <ele>942.8</ele>
        <time>2012-11-24T13:56:02Z</time>
      </trkpt>
      <trkpt lat="43.97458" lon="7.0285">
        <ele>942.4</ele>
        <time>2012-11-24T13:56:03Z</time>
      </trkpt>
      <trkpt lat="43.97452" lon="7.02848">
        <ele>941.8</ele>
        <time>2012-11-24T13:56:04Z</time>
      </trkpt>
      <trkpt lat="43.97446" lon="7.02846">
        <ele>941.3</ele>
        <time>2012-11-24T13:56:05Z</time>
      </trkpt>
      <trkpt lat="43.97441" lon="7.02843">
        <ele>940.6</ele>
        <time>2012-11-24T13:56:06Z</time>
      </trkpt>
      <trkpt lat="43.97435" lon="7.02842">
        <ele>940</ele>
        <time>2012-11-24T13:56:07Z</time>
      </trkpt>
      <trkpt lat="43.9743" lon="7.02841">
        <ele>939.5</ele>
        <time>2012-11-24T13:56:08Z</time>
      </trkpt>
      <trkpt lat="43.97424" lon="7.0284">
        <ele>939.4</ele>
        <time>2012-11-24T13:56:09Z</time>
      </trkpt>
      <trkpt lat="43.97418" lon="7.0284">
        <ele>939.2</ele>
        <time>2012-11-24T13:56:10Z</time>
      </trkpt>
      <trkpt lat="43.97412" lon="7.02839">
        <ele>939.1</ele>
        <time>2012-11-24T13:56:11Z</time>
      </trkpt>
      <trkpt lat="43.97407" lon="7.02837">
        <ele>938.9</ele>
        <time>2012-11-24T13:56:12Z</time>
      </trkpt>
      <trkpt lat="43.97401" lon="7.02836">
        <ele>938.8</ele>
        <time>2012-11-24T13:56:13Z</time>
      </trkpt>
      <trkpt lat="43.97396" lon="7.02834">
        <ele>938.3</ele>
        <time>2012-11-24T13:56:14Z</time>
      </trkpt>
      <trkpt lat="43.97388" lon="7.02833">
        <ele>937.6</ele>
        <time>2012-11-24T13:56:16Z</time>
      </trkpt>
      <trkpt lat="43.9738" lon="7.02833">
        <ele>937.3</ele>
        <time>2012-11-24T13:56:18Z</time>
      </trkpt>
      <trkpt lat="43.97372" lon="7.02832">
        <ele>937.1</ele>
        <time>2012-11-24T13:56:20Z</time>
      </trkpt>
      <trkpt lat="43.97366" lon="7.02826">
        <ele>936.5</ele>
        <time>2012-11-24T13:56:22Z</time>
      </trkpt>
      <trkpt lat="43.97362" lon="7.02817">
        <ele>935.9</ele>
        <time>2012-11-24T13:56:24Z</time>
      </trkpt>
      <trkpt lat="43.97359" lon="7.02812">
        <ele>935.7</ele>
        <time>2012-11-24T13:56:25Z</time>
      </trkpt>
      <trkpt lat="43.97356" lon="7.02808">
        <ele>935.5</ele>
        <time>2012-11-24T13:56:26Z</time>
      </trkpt>
      <trkpt lat="43.97352" lon="7.02804">
        <ele>935.4</ele>
        <time>2012-11-24T13:56:27Z</time>
      </trkpt>
      <trkpt lat="43.97345" lon="7.02797">
        <ele>935</ele>
        <time>2012-11-24T13:56:29Z</time>
      </trkpt>
      <trkpt lat="43.97341" lon="7.02794">
        <ele>934.6</ele>
        <time>2012-11-24T13:56:30Z</time>
      </trkpt>
      <trkpt lat="43.97333" lon="7.02787">
        <ele>934</ele>
        <time>2012-11-24T13:56:32Z</time>
      </trkpt>
      <trkpt lat="43.97329" lon="7.02784">
        <ele>933.7</ele>
        <time>2012-11-24T13:56:33Z</time>
      </trkpt>
      <trkpt lat="43.97325" lon="7.0278">
        <ele>933.5</ele>
        <time>2012-11-24T13:56:34Z</time>
      </trkpt>
      <trkpt lat="43.97321" lon="7.02776">
        <ele>933.7</ele>
        <time>2012-11-24T13:56:35Z</time>
      </trkpt>
      <trkpt lat="43.97317" lon="7.02772">
        <ele>933.8</ele>
        <time>2012-11-24T13:56:36Z</time>
      </trkpt>
      <trkpt lat="43.9731" lon="7.02766">
        <ele>933.6</ele>
        <time>2012-11-24T13:56:38Z</time>
      </trkpt>
      <trkpt lat="43.97307" lon="7.02762">
        <ele>933.6</ele>
        <time>2012-11-24T13:56:39Z</time>
      </trkpt>
      <trkpt lat="43.97303" lon="7.02757">
        <ele>933.4</ele>
        <time>2012-11-24T13:56:40Z</time>
      </trkpt>
      <trkpt lat="43.973" lon="7.02751">
        <ele>933.3</ele>
        <time>2012-11-24T13:56:41Z</time>
      </trkpt>
      <trkpt lat="43.97296" lon="7.02746">
        <ele>932.8</ele>
        <time>2012-11-24T13:56:42Z</time>
      </trkpt>
      <trkpt lat="43.97292" lon="7.02742">
        <ele>932.4</ele>
        <time>2012-11-24T13:56:43Z</time>
      </trkpt>
      <trkpt lat="43.97288" lon="7.02737">
        <ele>932</ele>
        <time>2012-11-24T13:56:44Z</time>
      </trkpt>
      <trkpt lat="43.97284" lon="7.02732">
        <ele>931.6</ele>
        <time>2012-11-24T13:56:45Z</time>
      </trkpt>
      <trkpt lat="43.97281" lon="7.02727">
        <ele>931.3</ele>
        <time>2012-11-24T13:56:46Z</time>
      </trkpt>
      <trkpt lat="43.97278" lon="7.02722">
        <ele>931</ele>
        <time>2012-11-24T13:56:47Z</time>
      </trkpt>
      <trkpt lat="43.97273" lon="7.02713">
        <ele>930.8</ele>
        <time>2012-11-24T13:56:49Z</time>
      </trkpt>
      <trkpt lat="43.97271" lon="7.02706">
        <ele>930.9</ele>
        <time>2012-11-24T13:56:50Z</time>
      </trkpt>
      <trkpt lat="43.97269" lon="7.027">
        <ele>930.4</ele>
        <time>2012-11-24T13:56:51Z</time>
      </trkpt>
      <trkpt lat="43.97265" lon="7.0269">
        <ele>929.7</ele>
        <time>2012-11-24T13:56:53Z</time>
      </trkpt>
      <trkpt lat="43.97256" lon="7.0269">
        <ele>928.4</ele>
        <time>2012-11-24T13:56:56Z</time>
      </trkpt>
      <trkpt lat="43.9725" lon="7.02697">
        <ele>927.3</ele>
        <time>2012-11-24T13:56:59Z</time>
      </trkpt>
      <trkpt lat="43.97244" lon="7.02705">
        <ele>925.9</ele>
        <time>2012-11-24T13:57:02Z</time>
      </trkpt>
      <trkpt lat="43.97238" lon="7.02712">
        <ele>925.2</ele>
        <time>2012-11-24T13:57:04Z</time>
      </trkpt>
      <trkpt lat="43.97235" lon="7.02715">
        <ele>925</ele>
        <time>2012-11-24T13:57:05Z</time>
      </trkpt>
      <trkpt lat="43.97231" lon="7.0272">
        <ele>924.7</ele>
        <time>2012-11-24T13:57:06Z</time>
      </trkpt>
      <trkpt lat="43.97227" lon="7.02725">
        <ele>924.5</ele>
        <time>2012-11-24T13:57:07Z</time>
      </trkpt>
      <trkpt lat="43.97224" lon="7.02731">
        <ele>923.3</ele>
        <time>2012-11-24T13:57:08Z</time>
      </trkpt>
      <trkpt lat="43.97222" lon="7.02738">
        <ele>922.4</ele>
        <time>2012-11-24T13:57:09Z</time>
      </trkpt>
      <trkpt lat="43.97215" lon="7.02735">
        <ele>916</ele>
        <time>2012-11-24T13:57:17Z</time>
      </trkpt>
      <trkpt lat="43.97209" lon="7.02741">
        <ele>914.8</ele>
        <time>2012-11-24T13:57:19Z</time>
      </trkpt>
      <trkpt lat="43.97205" lon="7.02744">
        <ele>913.7</ele>
        <time>2012-11-24T13:57:20Z</time>
      </trkpt>
      <trkpt lat="43.97198" lon="7.02752">
        <ele>911.5</ele>
        <time>2012-11-24T13:57:22Z</time>
      </trkpt>
      <trkpt lat="43.97193" lon="7.02757">
        <ele>909.7</ele>
        <time>2012-11-24T13:57:24Z</time>
      </trkpt>
      <trkpt lat="43.97187" lon="7.02761">
        <ele>906.8</ele>
        <time>2012-11-24T13:57:26Z</time>
      </trkpt>
      <trkpt lat="43.97183" lon="7.02767">
        <ele>905</ele>
        <time>2012-11-24T13:57:28Z</time>
      </trkpt>
      <trkpt lat="43.9718" lon="7.02776">
        <ele>902.3</ele>
        <time>2012-11-24T13:57:30Z</time>
      </trkpt>
      <trkpt lat="43.97173" lon="7.02783">
        <ele>899.2</ele>
        <time>2012-11-24T13:57:33Z</time>
      </trkpt>
      <trkpt lat="43.97167" lon="7.02787">
        <ele>898.2</ele>
        <time>2012-11-24T13:57:35Z</time>
      </trkpt>
      <trkpt lat="43.97163" lon="7.02794">
        <ele>897.3</ele>
        <time>2012-11-24T13:57:37Z</time>
      </trkpt>
      <trkpt lat="43.97157" lon="7.02802">
        <ele>896.1</ele>
        <time>2012-11-24T13:57:39Z</time>
      </trkpt>
      <trkpt lat="43.97151" lon="7.0281">
        <ele>894.8</ele>
        <time>2012-11-24T13:57:41Z</time>
      </trkpt>
      <trkpt lat="43.97145" lon="7.02819">
        <ele>893.9</ele>
        <time>2012-11-24T13:57:43Z</time>
      </trkpt>
      <trkpt lat="43.97142" lon="7.02823">
        <ele>893.6</ele>
        <time>2012-11-24T13:57:44Z</time>
      </trkpt>
      <trkpt lat="43.97139" lon="7.02828">
        <ele>893.4</ele>
        <time>2012-11-24T13:57:45Z</time>
      </trkpt>
      <trkpt lat="43.97135" lon="7.02832">
        <ele>892.1</ele>
        <time>2012-11-24T13:57:46Z</time>
      </trkpt>
      <trkpt lat="43.97131" lon="7.02836">
        <ele>891.2</ele>
        <time>2012-11-24T13:57:47Z</time>
      </trkpt>
      <trkpt lat="43.97127" lon="7.02839">
        <ele>890.3</ele>
        <time>2012-11-24T13:57:48Z</time>
      </trkpt>
      <trkpt lat="43.97122" lon="7.02842">
        <ele>889.6</ele>
        <time>2012-11-24T13:57:49Z</time>
      </trkpt>
      <trkpt lat="43.97117" lon="7.02845">
        <ele>889.1</ele>
        <time>2012-11-24T13:57:50Z</time>
      </trkpt>
      <trkpt lat="43.97113" lon="7.02849">
        <ele>888.4</ele>
        <time>2012-11-24T13:57:51Z</time>
      </trkpt>
      <trkpt lat="43.97108" lon="7.02852">
        <ele>887.9</ele>
        <time>2012-11-24T13:57:52Z</time>
      </trkpt>
      <trkpt lat="43.97104" lon="7.02855">
        <ele>887.1</ele>
        <time>2012-11-24T13:57:53Z</time>
      </trkpt>
      <trkpt lat="43.97095" lon="7.02857">
        <ele>886</ele>
        <time>2012-11-24T13:57:55Z</time>
      </trkpt>
      <trkpt lat="43.9709" lon="7.02847">
        <ele>884.8</ele>
        <time>2012-11-24T13:58:01Z</time>
      </trkpt>
      <trkpt lat="43.97094" lon="7.02839">
        <ele>886.1</ele>
        <time>2012-11-24T13:58:06Z</time>
      </trkpt>
      <trkpt lat="43.97096" lon="7.02829">
        <ele>886.9</ele>
        <time>2012-11-24T13:58:10Z</time>
      </trkpt>
      <trkpt lat="43.97095" lon="7.02817">
        <ele>888</ele>
        <time>2012-11-24T13:58:15Z</time>
      </trkpt>
      <trkpt lat="43.97094" lon="7.02805">
        <ele>889.6</ele>
        <time>2012-11-24T13:58:21Z</time>
      </trkpt>
      <trkpt lat="43.97094" lon="7.02792">
        <ele>890.9</ele>
        <time>2012-11-24T13:58:27Z</time>
      </trkpt>
      <trkpt lat="43.97093" lon="7.02781">
        <ele>892.2</ele>
        <time>2012-11-24T13:58:33Z</time>
      </trkpt>
      <trkpt lat="43.97091" lon="7.02769">
        <ele>893.5</ele>
        <time>2012-11-24T13:58:39Z</time>
      </trkpt>
      <trkpt lat="43.97089" lon="7.02759">
        <ele>894.6</ele>
        <time>2012-11-24T13:58:45Z</time>
      </trkpt>
      <trkpt lat="43.97086" lon="7.02747">
        <ele>896.2</ele>
        <time>2012-11-24T13:58:51Z</time>
      </trkpt>
      <trkpt lat="43.97086" lon="7.02744">
        <ele>896.4</ele>
        <time>2012-11-24T13:58:52Z</time>
      </trkpt>
      <trkpt lat="43.97088" lon="7.02723">
        <ele>899</ele>
        <time>2012-11-24T13:59:02Z</time>
      </trkpt>
      <trkpt lat="43.97091" lon="7.02712">
        <ele>899.6</ele>
        <time>2012-11-24T13:59:08Z</time>
      </trkpt>
      <trkpt lat="43.97093" lon="7.02701">
        <ele>900.7</ele>
        <time>2012-11-24T13:59:14Z</time>
      </trkpt>
      <trkpt lat="43.97087" lon="7.02692">
        <ele>901.8</ele>
        <time>2012-11-24T13:59:21Z</time>
      </trkpt>
      <trkpt lat="43.97079" lon="7.02685">
        <ele>904</ele>
        <time>2012-11-24T13:59:27Z</time>
      </trkpt>
      <trkpt lat="43.97072" lon="7.02681">
        <ele>904.6</ele>
        <time>2012-11-24T13:59:33Z</time>
      </trkpt>
      <trkpt lat="43.97064" lon="7.02676">
        <ele>904.7</ele>
        <time>2012-11-24T13:59:39Z</time>
      </trkpt>
      <trkpt lat="43.97056" lon="7.02672">
        <ele>906.6</ele>
        <time>2012-11-24T13:59:44Z</time>
      </trkpt>
      <trkpt lat="43.97049" lon="7.02666">
        <ele>906.4</ele>
        <time>2012-11-24T13:59:49Z</time>
      </trkpt>
      <trkpt lat="43.97042" lon="7.02658">
        <ele>907.8</ele>
        <time>2012-11-24T13:59:54Z</time>
      </trkpt>
      <trkpt lat="43.97041" lon="7.02656">
        <ele>908.1</ele>
        <time>2012-11-24T13:59:55Z</time>
      </trkpt>
      <trkpt lat="43.97035" lon="7.02637">
        <ele>909.5</ele>
        <time>2012-11-24T14:00:03Z</time>
      </trkpt>
      <trkpt lat="43.97034" lon="7.02626">
        <ele>909.5</ele>
        <time>2012-11-24T14:00:07Z</time>
      </trkpt>
      <trkpt lat="43.97035" lon="7.02616">
        <ele>910.9</ele>
        <time>2012-11-24T14:00:11Z</time>
      </trkpt>
      <trkpt lat="43.97036" lon="7.02605">
        <ele>911.5</ele>
        <time>2012-11-24T14:00:15Z</time>
      </trkpt>
      <trkpt lat="43.97036" lon="7.02593">
        <ele>912.7</ele>
        <time>2012-11-24T14:00:22Z</time>
      </trkpt>
      <trkpt lat="43.97036" lon="7.02581">
        <ele>913.6</ele>
        <time>2012-11-24T14:01:11Z</time>
      </trkpt>
      <trkpt lat="43.97035" lon="7.0258">
        <ele>913.5</ele>
        <time>2012-11-24T14:01:12Z</time>
      </trkpt>
      <trkpt lat="43.97024" lon="7.02568">
        <ele>913.4</ele>
        <time>2012-11-24T14:01:18Z</time>
      </trkpt>
      <trkpt lat="43.9702" lon="7.02562">
        <ele>913.1</ele>
        <time>2012-11-24T14:01:20Z</time>
      </trkpt>
      <trkpt lat="43.97015" lon="7.02555">
        <ele>913.1</ele>
        <time>2012-11-24T14:01:22Z</time>
      </trkpt>
      <trkpt lat="43.9701" lon="7.02546">
        <ele>912.7</ele>
        <time>2012-11-24T14:01:24Z</time>
      </trkpt>
      <trkpt lat="43.97007" lon="7.02542">
        <ele>912.4</ele>
        <time>2012-11-24T14:01:25Z</time>
      </trkpt>
      <trkpt lat="43.97004" lon="7.02537">
        <ele>912.1</ele>
        <time>2012-11-24T14:01:26Z</time>
      </trkpt>
      <trkpt lat="43.97" lon="7.02531">
        <ele>911.6</ele>
        <time>2012-11-24T14:01:27Z</time>
      </trkpt>
      <trkpt lat="43.96995" lon="7.02526">
        <ele>911.3</ele>
        <time>2012-11-24T14:01:28Z</time>
      </trkpt>
      <trkpt lat="43.96991" lon="7.02519">
        <ele>910.7</ele>
        <time>2012-11-24T14:01:29Z</time>
      </trkpt>
      <trkpt lat="43.96988" lon="7.02512">
        <ele>910.2</ele>
        <time>2012-11-24T14:01:30Z</time>
      </trkpt>
      <trkpt lat="43.96985" lon="7.02506">
        <ele>909.8</ele>
        <time>2012-11-24T14:01:31Z</time>
      </trkpt>
      <trkpt lat="43.96981" lon="7.025">
        <ele>909.2</ele>
        <time>2012-11-24T14:01:32Z</time>
      </trkpt>
      <trkpt lat="43.96977" lon="7.02496">
        <ele>908.7</ele>
        <time>2012-11-24T14:01:33Z</time>
      </trkpt>
      <trkpt lat="43.96972" lon="7.02494">
        <ele>908</ele>
        <time>2012-11-24T14:01:34Z</time>
      </trkpt>
      <trkpt lat="43.96966" lon="7.02493">
        <ele>907.6</ele>
        <time>2012-11-24T14:01:35Z</time>
      </trkpt>
      <trkpt lat="43.96961" lon="7.02491">
        <ele>907</ele>
        <time>2012-11-24T14:01:36Z</time>
      </trkpt>
      <trkpt lat="43.96955" lon="7.02488">
        <ele>906.5</ele>
        <time>2012-11-24T14:01:37Z</time>
      </trkpt>
      <trkpt lat="43.96951" lon="7.02485">
        <ele>906.2</ele>
        <time>2012-11-24T14:01:38Z</time>
      </trkpt>
      <trkpt lat="43.96946" lon="7.02478">
        <ele>905.7</ele>
        <time>2012-11-24T14:01:40Z</time>
      </trkpt>
      <trkpt lat="43.96942" lon="7.02468">
        <ele>906.4</ele>
        <time>2012-11-24T14:01:43Z</time>
      </trkpt>
      <trkpt lat="43.9694" lon="7.02459">
        <ele>907</ele>
        <time>2012-11-24T14:01:46Z</time>
      </trkpt>
      <trkpt lat="43.96939" lon="7.0245">
        <ele>907.2</ele>
        <time>2012-11-24T14:01:49Z</time>
      </trkpt>
      <trkpt lat="43.96937" lon="7.0244">
        <ele>908.6</ele>
        <time>2012-11-24T14:01:52Z</time>
      </trkpt>
      <trkpt lat="43.96935" lon="7.02431">
        <ele>909.5</ele>
        <time>2012-11-24T14:01:55Z</time>
      </trkpt>
      <trkpt lat="43.96933" lon="7.02419">
        <ele>910.1</ele>
        <time>2012-11-24T14:01:59Z</time>
      </trkpt>
      <trkpt lat="43.96932" lon="7.02409">
        <ele>910.1</ele>
        <time>2012-11-24T14:02:02Z</time>
      </trkpt>
      <trkpt lat="43.96929" lon="7.02399">
        <ele>910.3</ele>
        <time>2012-11-24T14:02:05Z</time>
      </trkpt>
      <trkpt lat="43.96924" lon="7.0239">
        <ele>911.1</ele>
        <time>2012-11-24T14:02:09Z</time>
      </trkpt>
      <trkpt lat="43.96917" lon="7.02384">
        <ele>911.5</ele>
        <time>2012-11-24T14:02:13Z</time>
      </trkpt>
      <trkpt lat="43.96916" lon="7.02382">
        <ele>911.5</ele>
        <time>2012-11-24T14:02:14Z</time>
      </trkpt>
      <trkpt lat="43.96906" lon="7.02373">
        <ele>912</ele>
        <time>2012-11-24T14:02:19Z</time>
      </trkpt>
      <trkpt lat="43.96901" lon="7.02364">
        <ele>912.8</ele>
        <time>2012-11-24T14:02:23Z</time>
      </trkpt>
      <trkpt lat="43.96899" lon="7.02353">
        <ele>913</ele>
        <time>2012-11-24T14:02:27Z</time>
      </trkpt>
      <trkpt lat="43.96897" lon="7.02343">
        <ele>914</ele>
        <time>2012-11-24T14:02:31Z</time>
      </trkpt>
      <trkpt lat="43.96893" lon="7.02332">
        <ele>915.8</ele>
        <time>2012-11-24T14:02:36Z</time>
      </trkpt>
      <trkpt lat="43.96889" lon="7.02321">
        <ele>917.2</ele>
        <time>2012-11-24T14:02:41Z</time>
      </trkpt>
      <trkpt lat="43.96885" lon="7.02311">
        <ele>918.3</ele>
        <time>2012-11-24T14:02:46Z</time>
      </trkpt>
      <trkpt lat="43.9688" lon="7.02302">
        <ele>918.3</ele>
        <time>2012-11-24T14:02:50Z</time>
      </trkpt>
      <trkpt lat="43.96874" lon="7.02298">
        <ele>918.3</ele>
        <time>2012-11-24T14:02:53Z</time>
      </trkpt>
      <trkpt lat="43.96869" lon="7.02294">
        <ele>918.5</ele>
        <time>2012-11-24T14:02:55Z</time>
      </trkpt>
      <trkpt lat="43.96864" lon="7.02285">
        <ele>918.7</ele>
        <time>2012-11-24T14:02:57Z</time>
      </trkpt>
      <trkpt lat="43.96861" lon="7.02279">
        <ele>918.6</ele>
        <time>2012-11-24T14:02:58Z</time>
      </trkpt>
      <trkpt lat="43.96859" lon="7.02273">
        <ele>918.3</ele>
        <time>2012-11-24T14:02:59Z</time>
      </trkpt>
      <trkpt lat="43.96857" lon="7.02267">
        <ele>918</ele>
        <time>2012-11-24T14:03:00Z</time>
      </trkpt>
      <trkpt lat="43.96853" lon="7.02256">
        <ele>917.5</ele>
        <time>2012-11-24T14:03:02Z</time>
      </trkpt>
      <trkpt lat="43.96851" lon="7.02251">
        <ele>917.2</ele>
        <time>2012-11-24T14:03:03Z</time>
      </trkpt>
      <trkpt lat="43.96848" lon="7.02246">
        <ele>917.4</ele>
        <time>2012-11-24T14:03:04Z</time>
      </trkpt>
      <trkpt lat="43.96845" lon="7.02241">
        <ele>917.5</ele>
        <time>2012-11-24T14:03:05Z</time>
      </trkpt>
      <trkpt lat="43.96839" lon="7.02232">
        <ele>916.7</ele>
        <time>2012-11-24T14:03:07Z</time>
      </trkpt>
      <trkpt lat="43.96832" lon="7.02225">
        <ele>916.4</ele>
        <time>2012-11-24T14:03:09Z</time>
      </trkpt>
      <trkpt lat="43.96826" lon="7.02221">
        <ele>916.9</ele>
        <time>2012-11-24T14:03:11Z</time>
      </trkpt>
      <trkpt lat="43.9682" lon="7.02217">
        <ele>917.5</ele>
        <time>2012-11-24T14:03:13Z</time>
      </trkpt>
      <trkpt lat="43.96812" lon="7.02211">
        <ele>917.4</ele>
        <time>2012-11-24T14:03:16Z</time>
      </trkpt>
      <trkpt lat="43.96809" lon="7.02208">
        <ele>917.2</ele>
        <time>2012-11-24T14:03:17Z</time>
      </trkpt>
      <trkpt lat="43.96804" lon="7.02197">
        <ele>917.6</ele>
        <time>2012-11-24T14:03:20Z</time>
      </trkpt>
      <trkpt lat="43.96802" lon="7.02188">
        <ele>917.8</ele>
        <time>2012-11-24T14:03:22Z</time>
      </trkpt>
      <trkpt lat="43.96799" lon="7.02179">
        <ele>918.3</ele>
        <time>2012-11-24T14:03:24Z</time>
      </trkpt>
      <trkpt lat="43.96797" lon="7.0217">
        <ele>918.6</ele>
        <time>2012-11-24T14:03:26Z</time>
      </trkpt>
      <trkpt lat="43.96795" lon="7.02161">
        <ele>918.6</ele>
        <time>2012-11-24T14:03:28Z</time>
      </trkpt>
      <trkpt lat="43.96792" lon="7.02151">
        <ele>918.4</ele>
        <time>2012-11-24T14:03:30Z</time>
      </trkpt>
      <trkpt lat="43.96791" lon="7.02142">
        <ele>918.3</ele>
        <time>2012-11-24T14:03:32Z</time>
      </trkpt>
      <trkpt lat="43.96789" lon="7.02134">
        <ele>918.3</ele>
        <time>2012-11-24T14:03:34Z</time>
      </trkpt>
      <trkpt lat="43.96786" lon="7.02122">
        <ele>918.5</ele>
        <time>2012-11-24T14:03:37Z</time>
      </trkpt>
      <trkpt lat="43.96784" lon="7.02113">
        <ele>919.3</ele>
        <time>2012-11-24T14:03:40Z</time>
      </trkpt>
      <trkpt lat="43.96781" lon="7.02104">
        <ele>920.2</ele>
        <time>2012-11-24T14:03:43Z</time>
      </trkpt>
      <trkpt lat="43.96777" lon="7.02093">
        <ele>921</ele>
        <time>2012-11-24T14:03:47Z</time>
      </trkpt>
      <trkpt lat="43.96773" lon="7.02082">
        <ele>922.2</ele>
        <time>2012-11-24T14:03:51Z</time>
      </trkpt>
      <trkpt lat="43.9677" lon="7.02073">
        <ele>923.3</ele>
        <time>2012-11-24T14:03:54Z</time>
      </trkpt>
      <trkpt lat="43.96767" lon="7.02063">
        <ele>923.6</ele>
        <time>2012-11-24T14:03:57Z</time>
      </trkpt>
      <trkpt lat="43.96765" lon="7.02054">
        <ele>923.8</ele>
        <time>2012-11-24T14:03:59Z</time>
      </trkpt>
      <trkpt lat="43.96763" lon="7.02045">
        <ele>924</ele>
        <time>2012-11-24T14:04:01Z</time>
      </trkpt>
      <trkpt lat="43.96761" lon="7.02035">
        <ele>923.9</ele>
        <time>2012-11-24T14:04:03Z</time>
      </trkpt>
      <trkpt lat="43.96759" lon="7.02025">
        <ele>923.7</ele>
        <time>2012-11-24T14:04:05Z</time>
      </trkpt>
      <trkpt lat="43.96757" lon="7.02015">
        <ele>923.8</ele>
        <time>2012-11-24T14:04:07Z</time>
      </trkpt>
      <trkpt lat="43.96756" lon="7.02004">
        <ele>923.9</ele>
        <time>2012-11-24T14:04:09Z</time>
      </trkpt>
      <trkpt lat="43.96755" lon="7.01994">
        <ele>923.8</ele>
        <time>2012-11-24T14:04:11Z</time>
      </trkpt>
      <trkpt lat="43.96756" lon="7.01982">
        <ele>923.4</ele>
        <time>2012-11-24T14:04:13Z</time>
      </trkpt>
      <trkpt lat="43.96756" lon="7.01971">
        <ele>923.2</ele>
        <time>2012-11-24T14:04:15Z</time>
      </trkpt>
      <trkpt lat="43.96756" lon="7.0196">
        <ele>923.2</ele>
        <time>2012-11-24T14:04:17Z</time>
      </trkpt>
      <trkpt lat="43.96755" lon="7.01956">
        <ele>923.3</ele>
        <time>2012-11-24T14:04:18Z</time>
      </trkpt>
      <trkpt lat="43.9675" lon="7.01941">
        <ele>923.4</ele>
        <time>2012-11-24T14:04:22Z</time>
      </trkpt>
      <trkpt lat="43.96744" lon="7.01937">
        <ele>923.5</ele>
        <time>2012-11-24T14:04:24Z</time>
      </trkpt>
      <trkpt lat="43.96738" lon="7.01933">
        <ele>923.6</ele>
        <time>2012-11-24T14:04:26Z</time>
      </trkpt>
      <trkpt lat="43.9673" lon="7.0193">
        <ele>923.3</ele>
        <time>2012-11-24T14:04:28Z</time>
      </trkpt>
      <trkpt lat="43.96722" lon="7.01925">
        <ele>923.5</ele>
        <time>2012-11-24T14:04:30Z</time>
      </trkpt>
      <trkpt lat="43.96718" lon="7.01922">
        <ele>923.8</ele>
        <time>2012-11-24T14:04:31Z</time>
      </trkpt>
      <trkpt lat="43.96714" lon="7.01919">
        <ele>923.8</ele>
        <time>2012-11-24T14:04:32Z</time>
      </trkpt>
      <trkpt lat="43.9671" lon="7.01914">
        <ele>923.7</ele>
        <time>2012-11-24T14:04:33Z</time>
      </trkpt>
      <trkpt lat="43.96708" lon="7.01909">
        <ele>923.4</ele>
        <time>2012-11-24T14:04:34Z</time>
      </trkpt>
      <trkpt lat="43.96705" lon="7.01904">
        <ele>923.1</ele>
        <time>2012-11-24T14:04:35Z</time>
      </trkpt>
      <trkpt lat="43.96701" lon="7.01899">
        <ele>922.9</ele>
        <time>2012-11-24T14:04:36Z</time>
      </trkpt>
      <trkpt lat="43.96697" lon="7.01895">
        <ele>922.5</ele>
        <time>2012-11-24T14:04:37Z</time>
      </trkpt>
      <trkpt lat="43.96693" lon="7.0189">
        <ele>922.2</ele>
        <time>2012-11-24T14:04:38Z</time>
      </trkpt>
      <trkpt lat="43.96688" lon="7.01886">
        <ele>921.9</ele>
        <time>2012-11-24T14:04:39Z</time>
      </trkpt>
      <trkpt lat="43.96682" lon="7.01882">
        <ele>921.7</ele>
        <time>2012-11-24T14:04:40Z</time>
      </trkpt>
      <trkpt lat="43.96677" lon="7.01878">
        <ele>921</ele>
        <time>2012-11-24T14:04:41Z</time>
      </trkpt>
      <trkpt lat="43.9667" lon="7.01872">
        <ele>920.1</ele>
        <time>2012-11-24T14:04:43Z</time>
      </trkpt>
      <trkpt lat="43.96662" lon="7.01866">
        <ele>918.3</ele>
        <time>2012-11-24T14:04:50Z</time>
      </trkpt>
      <trkpt lat="43.96656" lon="7.01868">
        <ele>918.3</ele>
        <time>2012-11-24T14:05:36Z</time>
      </trkpt>
      <trkpt lat="43.96654" lon="7.0187">
        <ele>918.3</ele>
        <time>2012-11-24T14:05:37Z</time>
      </trkpt>
      <trkpt lat="43.96645" lon="7.01881">
        <ele>916.8</ele>
        <time>2012-11-24T14:05:43Z</time>
      </trkpt>
      <trkpt lat="43.9664" lon="7.0189">
        <ele>916.6</ele>
        <time>2012-11-24T14:05:46Z</time>
      </trkpt>
      <trkpt lat="43.96635" lon="7.01897">
        <ele>916.4</ele>
        <time>2012-11-24T14:05:48Z</time>
      </trkpt>
      <trkpt lat="43.96631" lon="7.01904">
        <ele>916.1</ele>
        <time>2012-11-24T14:05:50Z</time>
      </trkpt>
      <trkpt lat="43.96627" lon="7.0191">
        <ele>915.9</ele>
        <time>2012-11-24T14:05:52Z</time>
      </trkpt>
      <trkpt lat="43.96623" lon="7.01916">
        <ele>915.2</ele>
        <time>2012-11-24T14:05:54Z</time>
      </trkpt>
      <trkpt lat="43.96618" lon="7.01924">
        <ele>914.8</ele>
        <time>2012-11-24T14:05:56Z</time>
      </trkpt>
      <trkpt lat="43.96613" lon="7.01931">
        <ele>913.9</ele>
        <time>2012-11-24T14:05:58Z</time>
      </trkpt>
      <trkpt lat="43.96607" lon="7.01939">
        <ele>913.7</ele>
        <time>2012-11-24T14:06:00Z</time>
      </trkpt>
      <trkpt lat="43.96601" lon="7.01947">
        <ele>913.8</ele>
        <time>2012-11-24T14:06:02Z</time>
      </trkpt>
      <trkpt lat="43.96596" lon="7.01955">
        <ele>913.9</ele>
        <time>2012-11-24T14:06:04Z</time>
      </trkpt>
      <trkpt lat="43.9659" lon="7.01962">
        <ele>914</ele>
        <time>2012-11-24T14:06:06Z</time>
      </trkpt>
      <trkpt lat="43.96584" lon="7.01969">
        <ele>912.7</ele>
        <time>2012-11-24T14:06:08Z</time>
      </trkpt>
      <trkpt lat="43.96577" lon="7.01977">
        <ele>913.1</ele>
        <time>2012-11-24T14:06:10Z</time>
      </trkpt>
      <trkpt lat="43.9657" lon="7.01985">
        <ele>913</ele>
        <time>2012-11-24T14:06:12Z</time>
      </trkpt>
      <trkpt lat="43.96563" lon="7.01992">
        <ele>912.7</ele>
        <time>2012-11-24T14:06:14Z</time>
      </trkpt>
      <trkpt lat="43.96557" lon="7.01999">
        <ele>912.7</ele>
        <time>2012-11-24T14:06:16Z</time>
      </trkpt>
      <trkpt lat="43.9655" lon="7.02006">
        <ele>912.8</ele>
        <time>2012-11-24T14:06:18Z</time>
      </trkpt>
      <trkpt lat="43.96543" lon="7.02014">
        <ele>912.5</ele>
        <time>2012-11-24T14:06:20Z</time>
      </trkpt>
      <trkpt lat="43.96536" lon="7.02021">
        <ele>912.6</ele>
        <time>2012-11-24T14:06:22Z</time>
      </trkpt>
      <trkpt lat="43.96532" lon="7.02025">
        <ele>912.2</ele>
        <time>2012-11-24T14:06:23Z</time>
      </trkpt>
      <trkpt lat="43.96529" lon="7.02029">
        <ele>912</ele>
        <time>2012-11-24T14:06:24Z</time>
      </trkpt>
      <trkpt lat="43.96525" lon="7.02033">
        <ele>911.8</ele>
        <time>2012-11-24T14:06:25Z</time>
      </trkpt>
      <trkpt lat="43.96519" lon="7.02042">
        <ele>912.6</ele>
        <time>2012-11-24T14:06:27Z</time>
      </trkpt>
      <trkpt lat="43.96515" lon="7.02046">
        <ele>912.4</ele>
        <time>2012-11-24T14:06:28Z</time>
      </trkpt>
      <trkpt lat="43.96512" lon="7.02051">
        <ele>912.4</ele>
        <time>2012-11-24T14:06:29Z</time>
      </trkpt>
      <trkpt lat="43.96509" lon="7.02056">
        <ele>912.3</ele>
        <time>2012-11-24T14:06:30Z</time>
      </trkpt>
      <trkpt lat="43.96506" lon="7.02061">
        <ele>912.2</ele>
        <time>2012-11-24T14:06:31Z</time>
      </trkpt>
      <trkpt lat="43.96504" lon="7.02066">
        <ele>912.2</ele>
        <time>2012-11-24T14:06:32Z</time>
      </trkpt>
      <trkpt lat="43.96501" lon="7.02072">
        <ele>911.9</ele>
        <time>2012-11-24T14:06:33Z</time>
      </trkpt>
      <trkpt lat="43.96496" lon="7.02082">
        <ele>912</ele>
        <time>2012-11-24T14:06:35Z</time>
      </trkpt>
      <trkpt lat="43.96491" lon="7.02091">
        <ele>912.3</ele>
        <time>2012-11-24T14:06:37Z</time>
      </trkpt>
      <trkpt lat="43.96488" lon="7.02096">
        <ele>912.3</ele>
        <time>2012-11-24T14:06:38Z</time>
      </trkpt>
      <trkpt lat="43.96483" lon="7.02105">
        <ele>912.1</ele>
        <time>2012-11-24T14:06:40Z</time>
      </trkpt>
      <trkpt lat="43.96477" lon="7.02115">
        <ele>911.6</ele>
        <time>2012-11-24T14:06:42Z</time>
      </trkpt>
      <trkpt lat="43.96471" lon="7.02123">
        <ele>911.1</ele>
        <time>2012-11-24T14:06:44Z</time>
      </trkpt>
      <trkpt lat="43.96466" lon="7.02132">
        <ele>910.8</ele>
        <time>2012-11-24T14:06:46Z</time>
      </trkpt>
      <trkpt lat="43.96462" lon="7.02142">
        <ele>911</ele>
        <time>2012-11-24T14:06:48Z</time>
      </trkpt>
      <trkpt lat="43.96457" lon="7.02152">
        <ele>911.2</ele>
        <time>2012-11-24T14:06:50Z</time>
      </trkpt>
      <trkpt lat="43.96453" lon="7.02163">
        <ele>910.8</ele>
        <time>2012-11-24T14:06:52Z</time>
      </trkpt>
      <trkpt lat="43.96449" lon="7.02173">
        <ele>910.5</ele>
        <time>2012-11-24T14:06:54Z</time>
      </trkpt>
      <trkpt lat="43.96444" lon="7.02183">
        <ele>910.3</ele>
        <time>2012-11-24T14:06:56Z</time>
      </trkpt>
      <trkpt lat="43.96439" lon="7.02193">
        <ele>909.8</ele>
        <time>2012-11-24T14:06:58Z</time>
      </trkpt>
      <trkpt lat="43.96436" lon="7.02198">
        <ele>909.7</ele>
        <time>2012-11-24T14:06:59Z</time>
      </trkpt>
      <trkpt lat="43.96433" lon="7.02204">
        <ele>909.6</ele>
        <time>2012-11-24T14:07:00Z</time>
      </trkpt>
      <trkpt lat="43.96429" lon="7.02207">
        <ele>909.2</ele>
        <time>2012-11-24T14:07:01Z</time>
      </trkpt>
      <trkpt lat="43.96421" lon="7.02206">
        <ele>908.6</ele>
        <time>2012-11-24T14:07:03Z</time>
      </trkpt>
      <trkpt lat="43.96416" lon="7.022">
        <ele>909</ele>
        <time>2012-11-24T14:07:05Z</time>
      </trkpt>
      <trkpt lat="43.9641" lon="7.02193">
        <ele>909.5</ele>
        <time>2012-11-24T14:07:08Z</time>
      </trkpt>
      <trkpt lat="43.96405" lon="7.02185">
        <ele>909.9</ele>
        <time>2012-11-24T14:07:11Z</time>
      </trkpt>
      <trkpt lat="43.96399" lon="7.02176">
        <ele>910.4</ele>
        <time>2012-11-24T14:07:15Z</time>
      </trkpt>
      <trkpt lat="43.96392" lon="7.02169">
        <ele>911.6</ele>
        <time>2012-11-24T14:07:19Z</time>
      </trkpt>
      <trkpt lat="43.96387" lon="7.0216">
        <ele>912</ele>
        <time>2012-11-24T14:07:23Z</time>
      </trkpt>
      <trkpt lat="43.96382" lon="7.02152">
        <ele>913</ele>
        <time>2012-11-24T14:07:27Z</time>
      </trkpt>
      <trkpt lat="43.96377" lon="7.02143">
        <ele>914.5</ele>
        <time>2012-11-24T14:07:31Z</time>
      </trkpt>
      <trkpt lat="43.96373" lon="7.02135">
        <ele>914.9</ele>
        <time>2012-11-24T14:07:35Z</time>
      </trkpt>
      <trkpt lat="43.96368" lon="7.02125">
        <ele>916.7</ele>
        <time>2012-11-24T14:07:40Z</time>
      </trkpt>
      <trkpt lat="43.96367" lon="7.02123">
        <ele>917</ele>
        <time>2012-11-24T14:07:41Z</time>
      </trkpt>
      <trkpt lat="43.96357" lon="7.02107">
        <ele>918.1</ele>
        <time>2012-11-24T14:07:52Z</time>
      </trkpt>
      <trkpt lat="43.96349" lon="7.02101">
        <ele>920.2</ele>
        <time>2012-11-24T14:07:58Z</time>
      </trkpt>
      <trkpt lat="43.96341" lon="7.02098">
        <ele>921.1</ele>
        <time>2012-11-24T14:08:03Z</time>
      </trkpt>
      <trkpt lat="43.96333" lon="7.02097">
        <ele>921.5</ele>
        <time>2012-11-24T14:08:09Z</time>
      </trkpt>
      <trkpt lat="43.96325" lon="7.02097">
        <ele>922.6</ele>
        <time>2012-11-24T14:08:15Z</time>
      </trkpt>
      <trkpt lat="43.96316" lon="7.02093">
        <ele>923</ele>
        <time>2012-11-24T14:08:21Z</time>
      </trkpt>
      <trkpt lat="43.9631" lon="7.02088">
        <ele>925.1</ele>
        <time>2012-11-24T14:08:26Z</time>
      </trkpt>
      <trkpt lat="43.96303" lon="7.02082">
        <ele>925.8</ele>
        <time>2012-11-24T14:08:31Z</time>
      </trkpt>
      <trkpt lat="43.96297" lon="7.02074">
        <ele>927.4</ele>
        <time>2012-11-24T14:08:37Z</time>
      </trkpt>
      <trkpt lat="43.96291" lon="7.02066">
        <ele>928.6</ele>
        <time>2012-11-24T14:08:43Z</time>
      </trkpt>
      <trkpt lat="43.9629" lon="7.02064">
        <ele>929</ele>
        <time>2012-11-24T14:08:44Z</time>
      </trkpt>
      <trkpt lat="43.96282" lon="7.02046">
        <ele>929.5</ele>
        <time>2012-11-24T14:08:55Z</time>
      </trkpt>
      <trkpt lat="43.9628" lon="7.02035">
        <ele>931</ele>
        <time>2012-11-24T14:09:01Z</time>
      </trkpt>
      <trkpt lat="43.96281" lon="7.02023">
        <ele>932.4</ele>
        <time>2012-11-24T14:09:07Z</time>
      </trkpt>
      <trkpt lat="43.96282" lon="7.02011">
        <ele>933.2</ele>
        <time>2012-11-24T14:09:13Z</time>
      </trkpt>
      <trkpt lat="43.96283" lon="7.01999">
        <ele>934.1</ele>
        <time>2012-11-24T14:09:19Z</time>
      </trkpt>
      <trkpt lat="43.96281" lon="7.01988">
        <ele>934.9</ele>
        <time>2012-11-24T14:09:25Z</time>
      </trkpt>
      <trkpt lat="43.96278" lon="7.01978">
        <ele>936.3</ele>
        <time>2012-11-24T14:09:31Z</time>
      </trkpt>
      <trkpt lat="43.96275" lon="7.01967">
        <ele>937.4</ele>
        <time>2012-11-24T14:09:38Z</time>
      </trkpt>
      <trkpt lat="43.96272" lon="7.01956">
        <ele>938.5</ele>
        <time>2012-11-24T14:09:44Z</time>
      </trkpt>
      <trkpt lat="43.96272" lon="7.01955">
        <ele>938.7</ele>
        <time>2012-11-24T14:09:45Z</time>
      </trkpt>
      <trkpt lat="43.96259" lon="7.01943">
        <ele>939.9</ele>
        <time>2012-11-24T14:09:57Z</time>
      </trkpt>
      <trkpt lat="43.96251" lon="7.01939">
        <ele>942.2</ele>
        <time>2012-11-24T14:10:02Z</time>
      </trkpt>
      <trkpt lat="43.96243" lon="7.01934">
        <ele>942.9</ele>
        <time>2012-11-24T14:10:07Z</time>
      </trkpt>
      <trkpt lat="43.96236" lon="7.0193">
        <ele>943.4</ele>
        <time>2012-11-24T14:10:11Z</time>
      </trkpt>
      <trkpt lat="43.96229" lon="7.01926">
        <ele>943.7</ele>
        <time>2012-11-24T14:10:15Z</time>
      </trkpt>
      <trkpt lat="43.96221" lon="7.01922">
        <ele>943.5</ele>
        <time>2012-11-24T14:10:19Z</time>
      </trkpt>
      <trkpt lat="43.96214" lon="7.01917">
        <ele>944.5</ele>
        <time>2012-11-24T14:10:23Z</time>
      </trkpt>
      <trkpt lat="43.96207" lon="7.01912">
        <ele>944.8</ele>
        <time>2012-11-24T14:10:27Z</time>
      </trkpt>
      <trkpt lat="43.96201" lon="7.01907">
        <ele>945.5</ele>
        <time>2012-11-24T14:10:31Z</time>
      </trkpt>
      <trkpt lat="43.96194" lon="7.019">
        <ele>946.6</ele>
        <time>2012-11-24T14:10:36Z</time>
      </trkpt>
      <trkpt lat="43.96188" lon="7.01892">
        <ele>947</ele>
        <time>2012-11-24T14:10:41Z</time>
      </trkpt>
      <trkpt lat="43.96181" lon="7.01885">
        <ele>947.8</ele>
        <time>2012-11-24T14:10:46Z</time>
      </trkpt>
      <trkpt lat="43.9618" lon="7.01884">
        <ele>948.2</ele>
        <time>2012-11-24T14:10:47Z</time>
      </trkpt>
      <trkpt lat="43.9617" lon="7.01871">
        <ele>951</ele>
        <time>2012-11-24T14:10:56Z</time>
      </trkpt>
      <trkpt lat="43.96162" lon="7.01865">
        <ele>952</ele>
        <time>2012-11-24T14:11:02Z</time>
      </trkpt>
      <trkpt lat="43.96154" lon="7.01863">
        <ele>952.9</ele>
        <time>2012-11-24T14:11:08Z</time>
      </trkpt>
      <trkpt lat="43.96146" lon="7.01862">
        <ele>953.9</ele>
        <time>2012-11-24T14:11:13Z</time>
      </trkpt>
      <trkpt lat="43.96139" lon="7.01863">
        <ele>954.6</ele>
        <time>2012-11-24T14:11:18Z</time>
      </trkpt>
      <trkpt lat="43.96131" lon="7.01863">
        <ele>954.4</ele>
        <time>2012-11-24T14:11:23Z</time>
      </trkpt>
      <trkpt lat="43.96123" lon="7.01863">
        <ele>956.5</ele>
        <time>2012-11-24T14:11:28Z</time>
      </trkpt>
      <trkpt lat="43.96114" lon="7.01865">
        <ele>957.2</ele>
        <time>2012-11-24T14:11:33Z</time>
      </trkpt>
      <trkpt lat="43.96105" lon="7.01866">
        <ele>957.9</ele>
        <time>2012-11-24T14:11:38Z</time>
      </trkpt>
      <trkpt lat="43.96098" lon="7.01868">
        <ele>958.6</ele>
        <time>2012-11-24T14:11:42Z</time>
      </trkpt>
      <trkpt lat="43.96091" lon="7.0187">
        <ele>959.4</ele>
        <time>2012-11-24T14:11:46Z</time>
      </trkpt>
      <trkpt lat="43.96084" lon="7.01874">
        <ele>960</ele>
        <time>2012-11-24T14:11:50Z</time>
      </trkpt>
      <trkpt lat="43.96083" lon="7.01876">
        <ele>959.7</ele>
        <time>2012-11-24T14:11:51Z</time>
      </trkpt>
      <trkpt lat="43.96071" lon="7.01887">
        <ele>961.3</ele>
        <time>2012-11-24T14:11:58Z</time>
      </trkpt>
      <trkpt lat="43.96067" lon="7.01896">
        <ele>961.5</ele>
        <time>2012-11-24T14:12:02Z</time>
      </trkpt>
      <trkpt lat="43.96065" lon="7.01908">
        <ele>961.9</ele>
        <time>2012-11-24T14:12:06Z</time>
      </trkpt>
      <trkpt lat="43.96065" lon="7.01918">
        <ele>962.2</ele>
        <time>2012-11-24T14:12:09Z</time>
      </trkpt>
      <trkpt lat="43.96064" lon="7.01927">
        <ele>961.8</ele>
        <time>2012-11-24T14:12:11Z</time>
      </trkpt>
      <trkpt lat="43.96063" lon="7.01935">
        <ele>961.9</ele>
        <time>2012-11-24T14:12:13Z</time>
      </trkpt>
      <trkpt lat="43.96061" lon="7.01943">
        <ele>962.5</ele>
        <time>2012-11-24T14:12:15Z</time>
      </trkpt>
      <trkpt lat="43.9606" lon="7.01951">
        <ele>962.8</ele>
        <time>2012-11-24T14:12:17Z</time>
      </trkpt>
      <trkpt lat="43.96057" lon="7.01963">
        <ele>962.5</ele>
        <time>2012-11-24T14:12:20Z</time>
      </trkpt>
      <trkpt lat="43.96055" lon="7.01975">
        <ele>963.3</ele>
        <time>2012-11-24T14:12:23Z</time>
      </trkpt>
      <trkpt lat="43.96053" lon="7.01986">
        <ele>963.3</ele>
        <time>2012-11-24T14:12:26Z</time>
      </trkpt>
      <trkpt lat="43.96051" lon="7.01997">
        <ele>963.1</ele>
        <time>2012-11-24T14:12:29Z</time>
      </trkpt>
      <trkpt lat="43.9605" lon="7.02006">
        <ele>963.2</ele>
        <time>2012-11-24T14:12:31Z</time>
      </trkpt>
      <trkpt lat="43.96048" lon="7.02014">
        <ele>963.3</ele>
        <time>2012-11-24T14:12:33Z</time>
      </trkpt>
      <trkpt lat="43.96046" lon="7.02022">
        <ele>963.7</ele>
        <time>2012-11-24T14:12:35Z</time>
      </trkpt>
      <trkpt lat="43.96043" lon="7.0203">
        <ele>963.7</ele>
        <time>2012-11-24T14:12:37Z</time>
      </trkpt>
      <trkpt lat="43.96041" lon="7.02037">
        <ele>963.9</ele>
        <time>2012-11-24T14:12:39Z</time>
      </trkpt>
      <trkpt lat="43.96038" lon="7.02044">
        <ele>964.1</ele>
        <time>2012-11-24T14:12:41Z</time>
      </trkpt>
      <trkpt lat="43.9603" lon="7.0205">
        <ele>964.7</ele>
        <time>2012-11-24T14:12:44Z</time>
      </trkpt>
      <trkpt lat="43.96021" lon="7.0205">
        <ele>964.8</ele>
        <time>2012-11-24T14:12:47Z</time>
      </trkpt>
      <trkpt lat="43.96015" lon="7.0205">
        <ele>965.2</ele>
        <time>2012-11-24T14:12:49Z</time>
      </trkpt>
      <trkpt lat="43.96006" lon="7.02051">
        <ele>964.5</ele>
        <time>2012-11-24T14:12:52Z</time>
      </trkpt>
      <trkpt lat="43.96003" lon="7.02051">
        <ele>965.2</ele>
        <time>2012-11-24T14:12:53Z</time>
      </trkpt>
      <trkpt lat="43.9599" lon="7.02053">
        <ele>966.6</ele>
        <time>2012-11-24T14:12:58Z</time>
      </trkpt>
      <trkpt lat="43.95981" lon="7.02054">
        <ele>967.6</ele>
        <time>2012-11-24T14:13:01Z</time>
      </trkpt>
      <trkpt lat="43.95972" lon="7.02054">
        <ele>968.1</ele>
        <time>2012-11-24T14:13:04Z</time>
      </trkpt>
      <trkpt lat="43.95964" lon="7.02053">
        <ele>968.7</ele>
        <time>2012-11-24T14:13:07Z</time>
      </trkpt>
      <trkpt lat="43.95955" lon="7.02054">
        <ele>968.6</ele>
        <time>2012-11-24T14:13:10Z</time>
      </trkpt>
      <trkpt lat="43.95947" lon="7.02058">
        <ele>968.9</ele>
        <time>2012-11-24T14:13:13Z</time>
      </trkpt>
      <trkpt lat="43.95942" lon="7.02063">
        <ele>969.4</ele>
        <time>2012-11-24T14:13:15Z</time>
      </trkpt>
      <trkpt lat="43.95937" lon="7.02068">
        <ele>969.2</ele>
        <time>2012-11-24T14:13:17Z</time>
      </trkpt>
      <trkpt lat="43.95932" lon="7.02073">
        <ele>969.4</ele>
        <time>2012-11-24T14:13:19Z</time>
      </trkpt>
      <trkpt lat="43.95924" lon="7.02079">
        <ele>970.2</ele>
        <time>2012-11-24T14:13:22Z</time>
      </trkpt>
      <trkpt lat="43.95916" lon="7.02087">
        <ele>970</ele>
        <time>2012-11-24T14:13:27Z</time>
      </trkpt>
      <trkpt lat="43.95909" lon="7.02085">
        <ele>970.4</ele>
        <time>2012-11-24T14:13:39Z</time>
      </trkpt>
      <trkpt lat="43.95902" lon="7.02084">
        <ele>969.8</ele>
        <time>2012-11-24T14:13:41Z</time>
      </trkpt>
      <trkpt lat="43.95898" lon="7.02083">
        <ele>969.6</ele>
        <time>2012-11-24T14:13:42Z</time>
      </trkpt>
      <trkpt lat="43.95893" lon="7.02082">
        <ele>969.4</ele>
        <time>2012-11-24T14:13:43Z</time>
      </trkpt>
      <trkpt lat="43.95888" lon="7.02081">
        <ele>969.3</ele>
        <time>2012-11-24T14:13:44Z</time>
      </trkpt>
      <trkpt lat="43.95883" lon="7.02079">
        <ele>968.7</ele>
        <time>2012-11-24T14:13:45Z</time>
      </trkpt>
      <trkpt lat="43.95877" lon="7.02078">
        <ele>968.2</ele>
        <time>2012-11-24T14:13:46Z</time>
      </trkpt>
      <trkpt lat="43.95873" lon="7.02077">
        <ele>968</ele>
        <time>2012-11-24T14:13:47Z</time>
      </trkpt>
      <trkpt lat="43.95868" lon="7.02076">
        <ele>967.7</ele>
        <time>2012-11-24T14:13:48Z</time>
      </trkpt>
      <trkpt lat="43.95859" lon="7.02073">
        <ele>966.9</ele>
        <time>2012-11-24T14:13:50Z</time>
      </trkpt>
      <trkpt lat="43.95854" lon="7.02071">
        <ele>966.4</ele>
        <time>2012-11-24T14:13:51Z</time>
      </trkpt>
      <trkpt lat="43.9585" lon="7.0207">
        <ele>966</ele>
        <time>2012-11-24T14:13:52Z</time>
      </trkpt>
      <trkpt lat="43.95841" lon="7.02067">
        <ele>965.6</ele>
        <time>2012-11-24T14:13:54Z</time>
      </trkpt>
      <trkpt lat="43.95837" lon="7.02066">
        <ele>965.5</ele>
        <time>2012-11-24T14:13:55Z</time>
      </trkpt>
      <trkpt lat="43.95827" lon="7.02061">
        <ele>965.4</ele>
        <time>2012-11-24T14:13:58Z</time>
      </trkpt>
      <trkpt lat="43.95819" lon="7.02057">
        <ele>964.5</ele>
        <time>2012-11-24T14:14:00Z</time>
      </trkpt>
      <trkpt lat="43.95814" lon="7.02054">
        <ele>963.9</ele>
        <time>2012-11-24T14:14:01Z</time>
      </trkpt>
      <trkpt lat="43.95808" lon="7.02051">
        <ele>963.5</ele>
        <time>2012-11-24T14:14:02Z</time>
      </trkpt>
      <trkpt lat="43.95802" lon="7.02048">
        <ele>963.2</ele>
        <time>2012-11-24T14:14:03Z</time>
      </trkpt>
      <trkpt lat="43.95796" lon="7.02046">
        <ele>963.2</ele>
        <time>2012-11-24T14:14:04Z</time>
      </trkpt>
      <trkpt lat="43.9579" lon="7.02043">
        <ele>963.2</ele>
        <time>2012-11-24T14:14:05Z</time>
      </trkpt>
      <trkpt lat="43.95784" lon="7.02041">
        <ele>962.8</ele>
        <time>2012-11-24T14:14:06Z</time>
      </trkpt>
      <trkpt lat="43.95778" lon="7.02039">
        <ele>962.5</ele>
        <time>2012-11-24T14:14:07Z</time>
      </trkpt>
      <trkpt lat="43.95772" lon="7.02037">
        <ele>962.2</ele>
        <time>2012-11-24T14:14:08Z</time>
      </trkpt>
      <trkpt lat="43.95767" lon="7.02037">
        <ele>961.9</ele>
        <time>2012-11-24T14:14:09Z</time>
      </trkpt>
      <trkpt lat="43.95762" lon="7.02037">
        <ele>961.7</ele>
        <time>2012-11-24T14:14:10Z</time>
      </trkpt>
      <trkpt lat="43.95754" lon="7.02039">
        <ele>961.8</ele>
        <time>2012-11-24T14:14:12Z</time>
      </trkpt>
      <trkpt lat="43.95748" lon="7.02043">
        <ele>962</ele>
        <time>2012-11-24T14:14:14Z</time>
      </trkpt>
      <trkpt lat="43.9574" lon="7.02048">
        <ele>962</ele>
        <time>2012-11-24T14:14:17Z</time>
      </trkpt>
      <trkpt lat="43.95734" lon="7.02052">
        <ele>962.5</ele>
        <time>2012-11-24T14:14:20Z</time>
      </trkpt>
      <trkpt lat="43.95727" lon="7.02055">
        <ele>961.8</ele>
        <time>2012-11-24T14:14:23Z</time>
      </trkpt>
      <trkpt lat="43.95721" lon="7.02058">
        <ele>961.3</ele>
        <time>2012-11-24T14:14:26Z</time>
      </trkpt>
      <trkpt lat="43.95714" lon="7.0206">
        <ele>960.7</ele>
        <time>2012-11-24T14:14:28Z</time>
      </trkpt>
      <trkpt lat="43.95706" lon="7.02061">
        <ele>959.6</ele>
        <time>2012-11-24T14:14:30Z</time>
      </trkpt>
      <trkpt lat="43.95701" lon="7.02062">
        <ele>959.1</ele>
        <time>2012-11-24T14:14:31Z</time>
      </trkpt>
      <trkpt lat="43.95697" lon="7.02063">
        <ele>958</ele>
        <time>2012-11-24T14:14:32Z</time>
      </trkpt>
      <trkpt lat="43.95689" lon="7.02066">
        <ele>956.4</ele>
        <time>2012-11-24T14:14:34Z</time>
      </trkpt>
      <trkpt lat="43.95682" lon="7.02074">
        <ele>955.6</ele>
        <time>2012-11-24T14:14:38Z</time>
      </trkpt>
      <trkpt lat="43.95681" lon="7.02084">
        <ele>955.6</ele>
        <time>2012-11-24T14:14:42Z</time>
      </trkpt>
      <trkpt lat="43.95683" lon="7.02095">
        <ele>955.9</ele>
        <time>2012-11-24T14:14:47Z</time>
      </trkpt>
      <trkpt lat="43.9569" lon="7.02102">
        <ele>957.8</ele>
        <time>2012-11-24T14:15:01Z</time>
      </trkpt>
      <trkpt lat="43.95691" lon="7.02103">
        <ele>958</ele>
        <time>2012-11-24T14:15:02Z</time>
      </trkpt>
      <trkpt lat="43.95689" lon="7.02079">
        <ele>958.7</ele>
        <time>2012-11-24T14:16:26Z</time>
      </trkpt>
      <trkpt lat="43.95689" lon="7.02079">
        <ele>958.9</ele>
        <time>2012-11-24T14:16:27Z</time>
      </trkpt>
      <trkpt lat="43.95688" lon="7.02091">
        <ele>960</ele>
        <time>2012-11-24T14:20:25Z</time>
      </trkpt>
      <trkpt lat="43.95686" lon="7.02113">
        <ele>956.4</ele>
        <time>2012-11-24T14:20:45Z</time>
      </trkpt>
      <trkpt lat="43.9569" lon="7.02124">
        <ele>953.3</ele>
        <time>2012-11-24T14:21:14Z</time>
      </trkpt>
      <trkpt lat="43.95692" lon="7.02136">
        <ele>951.3</ele>
        <time>2012-11-24T14:21:34Z</time>
      </trkpt>
      <trkpt lat="43.95692" lon="7.02137">
        <ele>951.2</ele>
        <time>2012-11-24T14:21:35Z</time>
      </trkpt>
      <trkpt lat="43.95694" lon="7.02159">
        <ele>946.9</ele>
        <time>2012-11-24T14:22:05Z</time>
      </trkpt>
      <trkpt lat="43.957" lon="7.02167">
        <ele>946.4</ele>
        <time>2012-11-24T14:22:08Z</time>
      </trkpt>
      <trkpt lat="43.95703" lon="7.02178">
        <ele>945</ele>
        <time>2012-11-24T14:22:11Z</time>
      </trkpt>
      <trkpt lat="43.95709" lon="7.02185">
        <ele>941.3</ele>
        <time>2012-11-24T14:22:20Z</time>
      </trkpt>
      <trkpt lat="43.95711" lon="7.02194">
        <ele>940.8</ele>
        <time>2012-11-24T14:22:23Z</time>
      </trkpt>
      <trkpt lat="43.95711" lon="7.02202">
        <ele>940.2</ele>
        <time>2012-11-24T14:22:25Z</time>
      </trkpt>
      <trkpt lat="43.95712" lon="7.02211">
        <ele>938.6</ele>
        <time>2012-11-24T14:22:27Z</time>
      </trkpt>
      <trkpt lat="43.95714" lon="7.02219">
        <ele>936.6</ele>
        <time>2012-11-24T14:22:29Z</time>
      </trkpt>
      <trkpt lat="43.95713" lon="7.02231">
        <ele>933.3</ele>
        <time>2012-11-24T14:22:33Z</time>
      </trkpt>
      <trkpt lat="43.95713" lon="7.02239">
        <ele>931.1</ele>
        <time>2012-11-24T14:22:35Z</time>
      </trkpt>
      <trkpt lat="43.95713" lon="7.02244">
        <ele>929.7</ele>
        <time>2012-11-24T14:22:36Z</time>
      </trkpt>
      <trkpt lat="43.95716" lon="7.02261">
        <ele>926.7</ele>
        <time>2012-11-24T14:22:39Z</time>
      </trkpt>
      <trkpt lat="43.95721" lon="7.0227">
        <ele>924.7</ele>
        <time>2012-11-24T14:22:41Z</time>
      </trkpt>
      <trkpt lat="43.95724" lon="7.02279">
        <ele>923.2</ele>
        <time>2012-11-24T14:22:43Z</time>
      </trkpt>
      <trkpt lat="43.95721" lon="7.02287">
        <ele>921.2</ele>
        <time>2012-11-24T14:22:45Z</time>
      </trkpt>
      <trkpt lat="43.95716" lon="7.02297">
        <ele>919.9</ele>
        <time>2012-11-24T14:22:47Z</time>
      </trkpt>
      <trkpt lat="43.95714" lon="7.02304">
        <ele>918.8</ele>
        <time>2012-11-24T14:22:48Z</time>
      </trkpt>
      <trkpt lat="43.95711" lon="7.0231">
        <ele>918</ele>
        <time>2012-11-24T14:22:49Z</time>
      </trkpt>
      <trkpt lat="43.95709" lon="7.02322">
        <ele>916.4</ele>
        <time>2012-11-24T14:22:51Z</time>
      </trkpt>
      <trkpt lat="43.95707" lon="7.02333">
        <ele>913.8</ele>
        <time>2012-11-24T14:22:54Z</time>
      </trkpt>
      <trkpt lat="43.95702" lon="7.02342">
        <ele>911.9</ele>
        <time>2012-11-24T14:22:56Z</time>
      </trkpt>
      <trkpt lat="43.957" lon="7.02349">
        <ele>911.3</ele>
        <time>2012-11-24T14:22:57Z</time>
      </trkpt>
      <trkpt lat="43.957" lon="7.02356">
        <ele>910.3</ele>
        <time>2012-11-24T14:22:58Z</time>
      </trkpt>
      <trkpt lat="43.95698" lon="7.02368">
        <ele>908.7</ele>
        <time>2012-11-24T14:23:00Z</time>
      </trkpt>
      <trkpt lat="43.95694" lon="7.02377">
        <ele>907.4</ele>
        <time>2012-11-24T14:23:02Z</time>
      </trkpt>
      <trkpt lat="43.95691" lon="7.02382">
        <ele>906.8</ele>
        <time>2012-11-24T14:23:03Z</time>
      </trkpt>
      <trkpt lat="43.95689" lon="7.02388">
        <ele>906.4</ele>
        <time>2012-11-24T14:23:04Z</time>
      </trkpt>
      <trkpt lat="43.95686" lon="7.02394">
        <ele>906</ele>
        <time>2012-11-24T14:23:05Z</time>
      </trkpt>
      <trkpt lat="43.95679" lon="7.02401">
        <ele>904.8</ele>
        <time>2012-11-24T14:23:07Z</time>
      </trkpt>
      <trkpt lat="43.95671" lon="7.02407">
        <ele>903.6</ele>
        <time>2012-11-24T14:23:09Z</time>
      </trkpt>
      <trkpt lat="43.95667" lon="7.0241">
        <ele>902.5</ele>
        <time>2012-11-24T14:23:10Z</time>
      </trkpt>
      <trkpt lat="43.95663" lon="7.02415">
        <ele>901.7</ele>
        <time>2012-11-24T14:23:11Z</time>
      </trkpt>
      <trkpt lat="43.9566" lon="7.0242">
        <ele>901.1</ele>
        <time>2012-11-24T14:23:12Z</time>
      </trkpt>
      <trkpt lat="43.95656" lon="7.02425">
        <ele>900.6</ele>
        <time>2012-11-24T14:23:13Z</time>
      </trkpt>
      <trkpt lat="43.95652" lon="7.02431">
        <ele>899.2</ele>
        <time>2012-11-24T14:23:14Z</time>
      </trkpt>
      <trkpt lat="43.95648" lon="7.02436">
        <ele>898.2</ele>
        <time>2012-11-24T14:23:15Z</time>
      </trkpt>
      <trkpt lat="43.95644" lon="7.02441">
        <ele>897.5</ele>
        <time>2012-11-24T14:23:16Z</time>
      </trkpt>
      <trkpt lat="43.9564" lon="7.02446">
        <ele>896.1</ele>
        <time>2012-11-24T14:23:17Z</time>
      </trkpt>
      <trkpt lat="43.95635" lon="7.02456">
        <ele>894</ele>
        <time>2012-11-24T14:23:19Z</time>
      </trkpt>
      <trkpt lat="43.95632" lon="7.02466">
        <ele>892.6</ele>
        <time>2012-11-24T14:23:21Z</time>
      </trkpt>
      <trkpt lat="43.95635" lon="7.02477">
        <ele>889.9</ele>
        <time>2012-11-24T14:23:24Z</time>
      </trkpt>
      <trkpt lat="43.95637" lon="7.02489">
        <ele>887.3</ele>
        <time>2012-11-24T14:23:27Z</time>
      </trkpt>
      <trkpt lat="43.95637" lon="7.02499">
        <ele>885.7</ele>
        <time>2012-11-24T14:23:29Z</time>
      </trkpt>
      <trkpt lat="43.95634" lon="7.02508">
        <ele>883.9</ele>
        <time>2012-11-24T14:23:31Z</time>
      </trkpt>
      <trkpt lat="43.9563" lon="7.02518">
        <ele>881.7</ele>
        <time>2012-11-24T14:23:33Z</time>
      </trkpt>
      <trkpt lat="43.95626" lon="7.02529">
        <ele>880.1</ele>
        <time>2012-11-24T14:23:35Z</time>
      </trkpt>
      <trkpt lat="43.95625" lon="7.0254">
        <ele>876.3</ele>
        <time>2012-11-24T14:23:38Z</time>
      </trkpt>
      <trkpt lat="43.95626" lon="7.02545">
        <ele>875.3</ele>
        <time>2012-11-24T14:23:39Z</time>
      </trkpt>
      <trkpt lat="43.95628" lon="7.02552">
        <ele>874.5</ele>
        <time>2012-11-24T14:23:40Z</time>
      </trkpt>
      <trkpt lat="43.95629" lon="7.02562">
        <ele>873.5</ele>
        <time>2012-11-24T14:23:42Z</time>
      </trkpt>
      <trkpt lat="43.95624" lon="7.02568">
        <ele>873.2</ele>
        <time>2012-11-24T14:23:45Z</time>
      </trkpt>
      <trkpt lat="43.95616" lon="7.02575">
        <ele>872.7</ele>
        <time>2012-11-24T14:23:48Z</time>
      </trkpt>
      <trkpt lat="43.95611" lon="7.02581">
        <ele>872.6</ele>
        <time>2012-11-24T14:23:50Z</time>
      </trkpt>
      <trkpt lat="43.95606" lon="7.02587">
        <ele>871.9</ele>
        <time>2012-11-24T14:23:52Z</time>
      </trkpt>
      <trkpt lat="43.95599" lon="7.02595">
        <ele>871.1</ele>
        <time>2012-11-24T14:23:54Z</time>
      </trkpt>
      <trkpt lat="43.95594" lon="7.02605">
        <ele>870.1</ele>
        <time>2012-11-24T14:23:56Z</time>
      </trkpt>
      <trkpt lat="43.95589" lon="7.02615">
        <ele>869.1</ele>
        <time>2012-11-24T14:23:58Z</time>
      </trkpt>
      <trkpt lat="43.95583" lon="7.02622">
        <ele>868</ele>
        <time>2012-11-24T14:24:00Z</time>
      </trkpt>
      <trkpt lat="43.95577" lon="7.02629">
        <ele>867.1</ele>
        <time>2012-11-24T14:24:02Z</time>
      </trkpt>
      <trkpt lat="43.95573" lon="7.02638">
        <ele>867.1</ele>
        <time>2012-11-24T14:24:04Z</time>
      </trkpt>
      <trkpt lat="43.95569" lon="7.02649">
        <ele>867.4</ele>
        <time>2012-11-24T14:24:06Z</time>
      </trkpt>
      <trkpt lat="43.95568" lon="7.02656">
        <ele>867.2</ele>
        <time>2012-11-24T14:24:07Z</time>
      </trkpt>
      <trkpt lat="43.95563" lon="7.02666">
        <ele>866.7</ele>
        <time>2012-11-24T14:24:09Z</time>
      </trkpt>
      <trkpt lat="43.95557" lon="7.02672">
        <ele>866.2</ele>
        <time>2012-11-24T14:24:11Z</time>
      </trkpt>
      <trkpt lat="43.95549" lon="7.02672">
        <ele>866.1</ele>
        <time>2012-11-24T14:24:14Z</time>
      </trkpt>
      <trkpt lat="43.95543" lon="7.02673">
        <ele>866</ele>
        <time>2012-11-24T14:24:16Z</time>
      </trkpt>
      <trkpt lat="43.95536" lon="7.02675">
        <ele>865.9</ele>
        <time>2012-11-24T14:24:18Z</time>
      </trkpt>
      <trkpt lat="43.9553" lon="7.02676">
        <ele>866</ele>
        <time>2012-11-24T14:24:20Z</time>
      </trkpt>
      <trkpt lat="43.95522" lon="7.02678">
        <ele>865.5</ele>
        <time>2012-11-24T14:24:23Z</time>
      </trkpt>
      <trkpt lat="43.95515" lon="7.02684">
        <ele>866.2</ele>
        <time>2012-11-24T14:24:26Z</time>
      </trkpt>
      <trkpt lat="43.95513" lon="7.02691">
        <ele>866.6</ele>
        <time>2012-11-24T14:24:28Z</time>
      </trkpt>
      <trkpt lat="43.95511" lon="7.02701">
        <ele>866.3</ele>
        <time>2012-11-24T14:24:30Z</time>
      </trkpt>
      <trkpt lat="43.9551" lon="7.02712">
        <ele>865.9</ele>
        <time>2012-11-24T14:24:32Z</time>
      </trkpt>
      <trkpt lat="43.95507" lon="7.02722">
        <ele>864.7</ele>
        <time>2012-11-24T14:24:34Z</time>
      </trkpt>
      <trkpt lat="43.95505" lon="7.02729">
        <ele>864.2</ele>
        <time>2012-11-24T14:24:35Z</time>
      </trkpt>
      <trkpt lat="43.95502" lon="7.02736">
        <ele>863.8</ele>
        <time>2012-11-24T14:24:36Z</time>
      </trkpt>
      <trkpt lat="43.955" lon="7.02743">
        <ele>862.8</ele>
        <time>2012-11-24T14:24:37Z</time>
      </trkpt>
      <trkpt lat="43.95498" lon="7.0275">
        <ele>862</ele>
        <time>2012-11-24T14:24:38Z</time>
      </trkpt>
      <trkpt lat="43.95498" lon="7.02758">
        <ele>861.4</ele>
        <time>2012-11-24T14:24:39Z</time>
      </trkpt>
      <trkpt lat="43.95497" lon="7.02765">
        <ele>860.7</ele>
        <time>2012-11-24T14:24:40Z</time>
      </trkpt>
      <trkpt lat="43.95497" lon="7.02772">
        <ele>860.1</ele>
        <time>2012-11-24T14:24:41Z</time>
      </trkpt>
      <trkpt lat="43.95497" lon="7.02779">
        <ele>860.1</ele>
        <time>2012-11-24T14:24:42Z</time>
      </trkpt>
      <trkpt lat="43.95496" lon="7.02785">
        <ele>860</ele>
        <time>2012-11-24T14:24:43Z</time>
      </trkpt>
      <trkpt lat="43.95494" lon="7.02791">
        <ele>860</ele>
        <time>2012-11-24T14:24:44Z</time>
      </trkpt>
      <trkpt lat="43.95491" lon="7.02797">
        <ele>859.2</ele>
        <time>2012-11-24T14:24:45Z</time>
      </trkpt>
      <trkpt lat="43.95488" lon="7.02808">
        <ele>858.1</ele>
        <time>2012-11-24T14:24:47Z</time>
      </trkpt>
      <trkpt lat="43.95484" lon="7.02815">
        <ele>856.9</ele>
        <time>2012-11-24T14:24:49Z</time>
      </trkpt>
      <trkpt lat="43.95479" lon="7.02822">
        <ele>855.9</ele>
        <time>2012-11-24T14:24:51Z</time>
      </trkpt>
      <trkpt lat="43.95475" lon="7.02831">
        <ele>856.7</ele>
        <time>2012-11-24T14:24:53Z</time>
      </trkpt>
      <trkpt lat="43.95471" lon="7.0284">
        <ele>856.7</ele>
        <time>2012-11-24T14:24:55Z</time>
      </trkpt>
      <trkpt lat="43.95469" lon="7.02851">
        <ele>856.4</ele>
        <time>2012-11-24T14:24:57Z</time>
      </trkpt>
      <trkpt lat="43.95465" lon="7.0286">
        <ele>856</ele>
        <time>2012-11-24T14:24:59Z</time>
      </trkpt>
      <trkpt lat="43.9546" lon="7.02868">
        <ele>856.1</ele>
        <time>2012-11-24T14:25:01Z</time>
      </trkpt>
      <trkpt lat="43.95455" lon="7.02876">
        <ele>856.5</ele>
        <time>2012-11-24T14:25:03Z</time>
      </trkpt>
      <trkpt lat="43.95451" lon="7.02883">
        <ele>856.6</ele>
        <time>2012-11-24T14:25:05Z</time>
      </trkpt>
      <trkpt lat="43.95446" lon="7.02891">
        <ele>856.6</ele>
        <time>2012-11-24T14:25:07Z</time>
      </trkpt>
      <trkpt lat="43.95442" lon="7.02899">
        <ele>857.1</ele>
        <time>2012-11-24T14:25:09Z</time>
      </trkpt>
      <trkpt lat="43.95438" lon="7.02909">
        <ele>856.8</ele>
        <time>2012-11-24T14:25:12Z</time>
      </trkpt>
      <trkpt lat="43.95432" lon="7.02918">
        <ele>855.9</ele>
        <time>2012-11-24T14:25:31Z</time>
      </trkpt>
      <trkpt lat="43.95433" lon="7.02929">
        <ele>855.3</ele>
        <time>2012-11-24T14:25:40Z</time>
      </trkpt>
      <trkpt lat="43.95436" lon="7.02931">
        <ele>855.4</ele>
        <time>2012-11-24T14:25:41Z</time>
      </trkpt>
      <trkpt lat="43.95444" lon="7.0294">
        <ele>854.1</ele>
        <time>2012-11-24T14:25:44Z</time>
      </trkpt>
      <trkpt lat="43.95448" lon="7.02946">
        <ele>853</ele>
        <time>2012-11-24T14:25:46Z</time>
      </trkpt>
      <trkpt lat="43.95452" lon="7.02955">
        <ele>852.1</ele>
        <time>2012-11-24T14:25:48Z</time>
      </trkpt>
      <trkpt lat="43.95454" lon="7.02965">
        <ele>850.8</ele>
        <time>2012-11-24T14:25:50Z</time>
      </trkpt>
      <trkpt lat="43.95456" lon="7.02974">
        <ele>848.9</ele>
        <time>2012-11-24T14:25:52Z</time>
      </trkpt>
      <trkpt lat="43.95456" lon="7.02985">
        <ele>847.1</ele>
        <time>2012-11-24T14:25:54Z</time>
      </trkpt>
      <trkpt lat="43.95458" lon="7.02995">
        <ele>845.9</ele>
        <time>2012-11-24T14:25:56Z</time>
      </trkpt>
      <trkpt lat="43.9546" lon="7.03007">
        <ele>844.8</ele>
        <time>2012-11-24T14:25:58Z</time>
      </trkpt>
      <trkpt lat="43.95459" lon="7.03018">
        <ele>844</ele>
        <time>2012-11-24T14:26:00Z</time>
      </trkpt>
      <trkpt lat="43.95457" lon="7.03029">
        <ele>844.1</ele>
        <time>2012-11-24T14:26:02Z</time>
      </trkpt>
      <trkpt lat="43.95455" lon="7.03041">
        <ele>843.6</ele>
        <time>2012-11-24T14:26:04Z</time>
      </trkpt>
      <trkpt lat="43.95455" lon="7.03048">
        <ele>843.2</ele>
        <time>2012-11-24T14:26:05Z</time>
      </trkpt>
      <trkpt lat="43.95456" lon="7.03058">
        <ele>842.7</ele>
        <time>2012-11-24T14:26:07Z</time>
      </trkpt>
      <trkpt lat="43.95459" lon="7.03069">
        <ele>841.2</ele>
        <time>2012-11-24T14:26:09Z</time>
      </trkpt>
      <trkpt lat="43.95461" lon="7.0308">
        <ele>839.2</ele>
        <time>2012-11-24T14:26:11Z</time>
      </trkpt>
      <trkpt lat="43.95459" lon="7.03091">
        <ele>838.3</ele>
        <time>2012-11-24T14:26:13Z</time>
      </trkpt>
      <trkpt lat="43.9546" lon="7.031">
        <ele>837.1</ele>
        <time>2012-11-24T14:26:15Z</time>
      </trkpt>
      <trkpt lat="43.95457" lon="7.03109">
        <ele>835.3</ele>
        <time>2012-11-24T14:26:17Z</time>
      </trkpt>
      <trkpt lat="43.95454" lon="7.03113">
        <ele>834.4</ele>
        <time>2012-11-24T14:26:18Z</time>
      </trkpt>
      <trkpt lat="43.9545" lon="7.03117">
        <ele>833.8</ele>
        <time>2012-11-24T14:26:19Z</time>
      </trkpt>
      <trkpt lat="43.95443" lon="7.03125">
        <ele>832.4</ele>
        <time>2012-11-24T14:26:21Z</time>
      </trkpt>
      <trkpt lat="43.95441" lon="7.03131">
        <ele>831.8</ele>
        <time>2012-11-24T14:26:22Z</time>
      </trkpt>
      <trkpt lat="43.95441" lon="7.03138">
        <ele>831.5</ele>
        <time>2012-11-24T14:26:23Z</time>
      </trkpt>
      <trkpt lat="43.95441" lon="7.03145">
        <ele>830.4</ele>
        <time>2012-11-24T14:26:24Z</time>
      </trkpt>
      <trkpt lat="43.9544" lon="7.03152">
        <ele>829.6</ele>
        <time>2012-11-24T14:26:25Z</time>
      </trkpt>
      <trkpt lat="43.9544" lon="7.03164">
        <ele>828.4</ele>
        <time>2012-11-24T14:26:27Z</time>
      </trkpt>
      <trkpt lat="43.9544" lon="7.03176">
        <ele>827.1</ele>
        <time>2012-11-24T14:26:29Z</time>
      </trkpt>
      <trkpt lat="43.95434" lon="7.03183">
        <ele>825.8</ele>
        <time>2012-11-24T14:26:31Z</time>
      </trkpt>
      <trkpt lat="43.95427" lon="7.0319">
        <ele>825</ele>
        <time>2012-11-24T14:26:33Z</time>
      </trkpt>
      <trkpt lat="43.95423" lon="7.03199">
        <ele>823.8</ele>
        <time>2012-11-24T14:26:35Z</time>
      </trkpt>
      <trkpt lat="43.95421" lon="7.0321">
        <ele>823.5</ele>
        <time>2012-11-24T14:26:37Z</time>
      </trkpt>
      <trkpt lat="43.95423" lon="7.03222">
        <ele>823.4</ele>
        <time>2012-11-24T14:26:39Z</time>
      </trkpt>
      <trkpt lat="43.95427" lon="7.03231">
        <ele>823.8</ele>
        <time>2012-11-24T14:26:41Z</time>
      </trkpt>
      <trkpt lat="43.95429" lon="7.03236">
        <ele>824</ele>
        <time>2012-11-24T14:26:42Z</time>
      </trkpt>
      <trkpt lat="43.95435" lon="7.03248">
        <ele>824.3</ele>
        <time>2012-11-24T14:26:45Z</time>
      </trkpt>
      <trkpt lat="43.95438" lon="7.03256">
        <ele>824.5</ele>
        <time>2012-11-24T14:26:47Z</time>
      </trkpt>
      <trkpt lat="43.95441" lon="7.03264">
        <ele>824.7</ele>
        <time>2012-11-24T14:26:49Z</time>
      </trkpt>
      <trkpt lat="43.95446" lon="7.03273">
        <ele>825.7</ele>
        <time>2012-11-24T14:26:52Z</time>
      </trkpt>
      <trkpt lat="43.95449" lon="7.03281">
        <ele>826.5</ele>
        <time>2012-11-24T14:26:55Z</time>
      </trkpt>
      <trkpt lat="43.95454" lon="7.0329">
        <ele>827.2</ele>
        <time>2012-11-24T14:26:58Z</time>
      </trkpt>
      <trkpt lat="43.95457" lon="7.033">
        <ele>827.6</ele>
        <time>2012-11-24T14:27:01Z</time>
      </trkpt>
      <trkpt lat="43.95457" lon="7.03308">
        <ele>827</ele>
        <time>2012-11-24T14:27:04Z</time>
      </trkpt>
      <trkpt lat="43.95451" lon="7.03318">
        <ele>825.2</ele>
        <time>2012-11-24T14:27:11Z</time>
      </trkpt>
      <trkpt lat="43.95443" lon="7.03322">
        <ele>825.9</ele>
        <time>2012-11-24T14:27:20Z</time>
      </trkpt>
      <trkpt lat="43.95436" lon="7.03325">
        <ele>827.7</ele>
        <time>2012-11-24T14:27:28Z</time>
      </trkpt>
      <trkpt lat="43.95428" lon="7.03329">
        <ele>829</ele>
        <time>2012-11-24T14:27:37Z</time>
      </trkpt>
      <trkpt lat="43.95421" lon="7.03335">
        <ele>830.4</ele>
        <time>2012-11-24T14:27:49Z</time>
      </trkpt>
      <trkpt lat="43.95419" lon="7.03337">
        <ele>830.8</ele>
        <time>2012-11-24T14:27:50Z</time>
      </trkpt>
      <trkpt lat="43.95407" lon="7.03347">
        <ele>831.8</ele>
        <time>2012-11-24T14:27:57Z</time>
      </trkpt>
      <trkpt lat="43.95402" lon="7.03357">
        <ele>831.6</ele>
        <time>2012-11-24T14:28:02Z</time>
      </trkpt>
      <trkpt lat="43.95399" lon="7.03366">
        <ele>831.9</ele>
        <time>2012-11-24T14:28:05Z</time>
      </trkpt>
      <trkpt lat="43.95396" lon="7.03376">
        <ele>833</ele>
        <time>2012-11-24T14:28:08Z</time>
      </trkpt>
      <trkpt lat="43.95395" lon="7.03385">
        <ele>832.7</ele>
        <time>2012-11-24T14:28:11Z</time>
      </trkpt>
      <trkpt lat="43.95394" lon="7.03396">
        <ele>832.5</ele>
        <time>2012-11-24T14:28:14Z</time>
      </trkpt>
      <trkpt lat="43.95393" lon="7.03406">
        <ele>832.8</ele>
        <time>2012-11-24T14:28:17Z</time>
      </trkpt>
      <trkpt lat="43.95392" lon="7.03418">
        <ele>832.7</ele>
        <time>2012-11-24T14:28:21Z</time>
      </trkpt>
      <trkpt lat="43.95389" lon="7.03429">
        <ele>833.9</ele>
        <time>2012-11-24T14:28:26Z</time>
      </trkpt>
      <trkpt lat="43.95385" lon="7.03439">
        <ele>834</ele>
        <time>2012-11-24T14:28:30Z</time>
      </trkpt>
      <trkpt lat="43.95381" lon="7.03449">
        <ele>834.1</ele>
        <time>2012-11-24T14:28:33Z</time>
      </trkpt>
      <trkpt lat="43.95379" lon="7.03457">
        <ele>833.9</ele>
        <time>2012-11-24T14:28:36Z</time>
      </trkpt>
      <trkpt lat="43.95373" lon="7.03464">
        <ele>833.6</ele>
        <time>2012-11-24T14:28:39Z</time>
      </trkpt>
      <trkpt lat="43.95366" lon="7.03469">
        <ele>834.1</ele>
        <time>2012-11-24T14:28:43Z</time>
      </trkpt>
      <trkpt lat="43.95361" lon="7.03478">
        <ele>834.6</ele>
        <time>2012-11-24T14:28:47Z</time>
      </trkpt>
      <trkpt lat="43.95358" lon="7.03488">
        <ele>834.8</ele>
        <time>2012-11-24T14:28:52Z</time>
      </trkpt>
      <trkpt lat="43.95357" lon="7.0349">
        <ele>834.6</ele>
        <time>2012-11-24T14:28:53Z</time>
      </trkpt>
      <trkpt lat="43.95348" lon="7.03504">
        <ele>836.7</ele>
        <time>2012-11-24T14:29:02Z</time>
      </trkpt>
      <trkpt lat="43.95342" lon="7.0351">
        <ele>837</ele>
        <time>2012-11-24T14:29:06Z</time>
      </trkpt>
      <trkpt lat="43.95336" lon="7.03515">
        <ele>837</ele>
        <time>2012-11-24T14:29:10Z</time>
      </trkpt>
      <trkpt lat="43.95329" lon="7.03522">
        <ele>837</ele>
        <time>2012-11-24T14:29:14Z</time>
      </trkpt>
      <trkpt lat="43.95323" lon="7.03526">
        <ele>836.5</ele>
        <time>2012-11-24T14:29:17Z</time>
      </trkpt>
      <trkpt lat="43.95315" lon="7.03529">
        <ele>836.4</ele>
        <time>2012-11-24T14:29:20Z</time>
      </trkpt>
      <trkpt lat="43.95306" lon="7.03533">
        <ele>836.7</ele>
        <time>2012-11-24T14:29:24Z</time>
      </trkpt>
      <trkpt lat="43.95308" lon="7.03544">
        <ele>836.5</ele>
        <time>2012-11-24T14:29:37Z</time>
      </trkpt>
      <trkpt lat="43.95314" lon="7.03551">
        <ele>836.5</ele>
        <time>2012-11-24T14:29:41Z</time>
      </trkpt>
      <trkpt lat="43.95319" lon="7.03559">
        <ele>836</ele>
        <time>2012-11-24T14:29:45Z</time>
      </trkpt>
      <trkpt lat="43.95322" lon="7.0357">
        <ele>835.9</ele>
        <time>2012-11-24T14:29:49Z</time>
      </trkpt>
      <trkpt lat="43.95324" lon="7.03579">
        <ele>835.9</ele>
        <time>2012-11-24T14:29:52Z</time>
      </trkpt>
      <trkpt lat="43.95328" lon="7.0359">
        <ele>835.9</ele>
        <time>2012-11-24T14:29:57Z</time>
      </trkpt>
      <trkpt lat="43.95329" lon="7.03592">
        <ele>836.4</ele>
        <time>2012-11-24T14:29:58Z</time>
      </trkpt>
      <trkpt lat="43.95334" lon="7.0361">
        <ele>838.3</ele>
        <time>2012-11-24T14:30:07Z</time>
      </trkpt>
      <trkpt lat="43.95337" lon="7.03621">
        <ele>839.5</ele>
        <time>2012-11-24T14:30:12Z</time>
      </trkpt>
      <trkpt lat="43.95337" lon="7.03631">
        <ele>840.5</ele>
        <time>2012-11-24T14:30:17Z</time>
      </trkpt>
      <trkpt lat="43.95336" lon="7.03643">
        <ele>840.7</ele>
        <time>2012-11-24T14:30:22Z</time>
      </trkpt>
      <trkpt lat="43.95336" lon="7.03656">
        <ele>840.2</ele>
        <time>2012-11-24T14:30:27Z</time>
      </trkpt>
      <trkpt lat="43.95336" lon="7.03668">
        <ele>842.1</ele>
        <time>2012-11-24T14:30:37Z</time>
      </trkpt>
      <trkpt lat="43.95334" lon="7.03677">
        <ele>842.8</ele>
        <time>2012-11-24T14:30:42Z</time>
      </trkpt>
      <trkpt lat="43.95329" lon="7.03686">
        <ele>841.9</ele>
        <time>2012-11-24T14:30:45Z</time>
      </trkpt>
      <trkpt lat="43.95325" lon="7.03697">
        <ele>841.1</ele>
        <time>2012-11-24T14:30:49Z</time>
      </trkpt>
      <trkpt lat="43.95323" lon="7.03708">
        <ele>840.7</ele>
        <time>2012-11-24T14:30:52Z</time>
      </trkpt>
      <trkpt lat="43.95325" lon="7.03719">
        <ele>840.7</ele>
        <time>2012-11-24T14:30:56Z</time>
      </trkpt>
      <trkpt lat="43.95325" lon="7.03731">
        <ele>840.5</ele>
        <time>2012-11-24T14:30:59Z</time>
      </trkpt>
      <trkpt lat="43.95325" lon="7.03735">
        <ele>839.8</ele>
        <time>2012-11-24T14:31:00Z</time>
      </trkpt>
      <trkpt lat="43.95327" lon="7.03754">
        <ele>836.2</ele>
        <time>2012-11-24T14:31:05Z</time>
      </trkpt>
      <trkpt lat="43.9533" lon="7.03765">
        <ele>835.1</ele>
        <time>2012-11-24T14:31:08Z</time>
      </trkpt>
      <trkpt lat="43.95337" lon="7.03773">
        <ele>833.5</ele>
        <time>2012-11-24T14:31:11Z</time>
      </trkpt>
      <trkpt lat="43.95345" lon="7.03778">
        <ele>831.4</ele>
        <time>2012-11-24T14:31:14Z</time>
      </trkpt>
      <trkpt lat="43.9535" lon="7.03783">
        <ele>830.3</ele>
        <time>2012-11-24T14:31:16Z</time>
      </trkpt>
      <trkpt lat="43.95358" lon="7.03789">
        <ele>828.7</ele>
        <time>2012-11-24T14:31:19Z</time>
      </trkpt>
      <trkpt lat="43.95364" lon="7.03796">
        <ele>826.6</ele>
        <time>2012-11-24T14:31:22Z</time>
      </trkpt>
      <trkpt lat="43.95371" lon="7.03801">
        <ele>825.5</ele>
        <time>2012-11-24T14:31:24Z</time>
      </trkpt>
      <trkpt lat="43.95379" lon="7.03802">
        <ele>823.9</ele>
        <time>2012-11-24T14:31:28Z</time>
      </trkpt>
      <trkpt lat="43.95384" lon="7.03808">
        <ele>821.7</ele>
        <time>2012-11-24T14:31:32Z</time>
      </trkpt>
      <trkpt lat="43.95388" lon="7.03818">
        <ele>820.9</ele>
        <time>2012-11-24T14:31:35Z</time>
      </trkpt>
      <trkpt lat="43.95386" lon="7.03829">
        <ele>819.1</ele>
        <time>2012-11-24T14:31:38Z</time>
      </trkpt>
      <trkpt lat="43.95386" lon="7.03838">
        <ele>817.9</ele>
        <time>2012-11-24T14:31:40Z</time>
      </trkpt>
      <trkpt lat="43.95387" lon="7.03848">
        <ele>817.3</ele>
        <time>2012-11-24T14:31:43Z</time>
      </trkpt>
      <trkpt lat="43.95385" lon="7.03859">
        <ele>817.1</ele>
        <time>2012-11-24T14:31:46Z</time>
      </trkpt>
      <trkpt lat="43.95383" lon="7.0387">
        <ele>816.6</ele>
        <time>2012-11-24T14:31:48Z</time>
      </trkpt>
      <trkpt lat="43.95382" lon="7.0388">
        <ele>816.2</ele>
        <time>2012-11-24T14:31:50Z</time>
      </trkpt>
      <trkpt lat="43.95381" lon="7.03889">
        <ele>816.5</ele>
        <time>2012-11-24T14:31:53Z</time>
      </trkpt>
      <trkpt lat="43.95381" lon="7.03901">
        <ele>817.3</ele>
        <time>2012-11-24T14:31:57Z</time>
      </trkpt>
      <trkpt lat="43.95379" lon="7.03912">
        <ele>817.8</ele>
        <time>2012-11-24T14:32:01Z</time>
      </trkpt>
      <trkpt lat="43.95379" lon="7.03915">
        <ele>817.8</ele>
        <time>2012-11-24T14:32:02Z</time>
      </trkpt>
      <trkpt lat="43.95379" lon="7.03937">
        <ele>820.7</ele>
        <time>2012-11-24T14:32:11Z</time>
      </trkpt>
      <trkpt lat="43.95377" lon="7.03947">
        <ele>821.1</ele>
        <time>2012-11-24T14:32:14Z</time>
      </trkpt>
      <trkpt lat="43.95375" lon="7.03958">
        <ele>820.3</ele>
        <time>2012-11-24T14:32:17Z</time>
      </trkpt>
      <trkpt lat="43.95373" lon="7.03969">
        <ele>821</ele>
        <time>2012-11-24T14:32:20Z</time>
      </trkpt>
      <trkpt lat="43.95371" lon="7.03979">
        <ele>821</ele>
        <time>2012-11-24T14:32:22Z</time>
      </trkpt>
      <trkpt lat="43.95369" lon="7.03988">
        <ele>820.2</ele>
        <time>2012-11-24T14:32:25Z</time>
      </trkpt>
      <trkpt lat="43.95367" lon="7.03999">
        <ele>819.5</ele>
        <time>2012-11-24T14:32:29Z</time>
      </trkpt>
      <trkpt lat="43.95364" lon="7.04009">
        <ele>820.1</ele>
        <time>2012-11-24T14:32:32Z</time>
      </trkpt>
      <trkpt lat="43.95362" lon="7.04019">
        <ele>820.6</ele>
        <time>2012-11-24T14:32:35Z</time>
      </trkpt>
      <trkpt lat="43.9536" lon="7.0403">
        <ele>821.3</ele>
        <time>2012-11-24T14:32:38Z</time>
      </trkpt>
      <trkpt lat="43.95356" lon="7.04038">
        <ele>820</ele>
        <time>2012-11-24T14:32:40Z</time>
      </trkpt>
      <trkpt lat="43.95355" lon="7.04048">
        <ele>819.3</ele>
        <time>2012-11-24T14:32:42Z</time>
      </trkpt>
      <trkpt lat="43.95352" lon="7.0406">
        <ele>819.2</ele>
        <time>2012-11-24T14:32:45Z</time>
      </trkpt>
      <trkpt lat="43.95349" lon="7.04067">
        <ele>819.4</ele>
        <time>2012-11-24T14:32:47Z</time>
      </trkpt>
      <trkpt lat="43.95345" lon="7.04076">
        <ele>818.8</ele>
        <time>2012-11-24T14:32:49Z</time>
      </trkpt>
      <trkpt lat="43.95342" lon="7.04085">
        <ele>817.7</ele>
        <time>2012-11-24T14:32:51Z</time>
      </trkpt>
      <trkpt lat="43.9534" lon="7.04093">
        <ele>816.9</ele>
        <time>2012-11-24T14:32:53Z</time>
      </trkpt>
      <trkpt lat="43.95337" lon="7.04102">
        <ele>816</ele>
        <time>2012-11-24T14:32:55Z</time>
      </trkpt>
      <trkpt lat="43.95337" lon="7.04115">
        <ele>814</ele>
        <time>2012-11-24T14:32:58Z</time>
      </trkpt>
      <trkpt lat="43.95341" lon="7.04121">
        <ele>813.2</ele>
        <time>2012-11-24T14:33:00Z</time>
      </trkpt>
      <trkpt lat="43.95346" lon="7.04127">
        <ele>811.9</ele>
        <time>2012-11-24T14:33:02Z</time>
      </trkpt>
      <trkpt lat="43.95349" lon="7.04129">
        <ele>811.3</ele>
        <time>2012-11-24T14:33:03Z</time>
      </trkpt>
      <trkpt lat="43.95359" lon="7.0414">
        <ele>809.7</ele>
        <time>2012-11-24T14:33:08Z</time>
      </trkpt>
      <trkpt lat="43.95364" lon="7.04146">
        <ele>807.9</ele>
        <time>2012-11-24T14:33:10Z</time>
      </trkpt>
      <trkpt lat="43.95369" lon="7.04152">
        <ele>805.7</ele>
        <time>2012-11-24T14:33:13Z</time>
      </trkpt>
      <trkpt lat="43.95372" lon="7.04163">
        <ele>799.6</ele>
        <time>2012-11-24T14:33:21Z</time>
      </trkpt>
      <trkpt lat="43.95376" lon="7.04171">
        <ele>797.7</ele>
        <time>2012-11-24T14:33:24Z</time>
      </trkpt>
      <trkpt lat="43.9538" lon="7.0418">
        <ele>792.7</ele>
        <time>2012-11-24T14:33:31Z</time>
      </trkpt>
      <trkpt lat="43.95388" lon="7.04185">
        <ele>788.5</ele>
        <time>2012-11-24T14:33:37Z</time>
      </trkpt>
      <trkpt lat="43.95396" lon="7.04184">
        <ele>785.8</ele>
        <time>2012-11-24T14:33:41Z</time>
      </trkpt>
      <trkpt lat="43.95403" lon="7.04182">
        <ele>783.6</ele>
        <time>2012-11-24T14:33:43Z</time>
      </trkpt>
      <trkpt lat="43.9541" lon="7.0418">
        <ele>781.8</ele>
        <time>2012-11-24T14:33:45Z</time>
      </trkpt>
      <trkpt lat="43.95417" lon="7.04177">
        <ele>779.8</ele>
        <time>2012-11-24T14:33:47Z</time>
      </trkpt>
      <trkpt lat="43.95425" lon="7.04174">
        <ele>775</ele>
        <time>2012-11-24T14:33:51Z</time>
      </trkpt>
      <trkpt lat="43.95433" lon="7.0417">
        <ele>769.2</ele>
        <time>2012-11-24T14:33:56Z</time>
      </trkpt>
      <trkpt lat="43.95439" lon="7.04166">
        <ele>766.5</ele>
        <time>2012-11-24T14:33:59Z</time>
      </trkpt>
      <trkpt lat="43.95446" lon="7.04163">
        <ele>763.1</ele>
        <time>2012-11-24T14:34:02Z</time>
      </trkpt>
      <trkpt lat="43.95454" lon="7.0416">
        <ele>760.5</ele>
        <time>2012-11-24T14:34:05Z</time>
      </trkpt>
      <trkpt lat="43.95456" lon="7.04159">
        <ele>759.9</ele>
        <time>2012-11-24T14:34:06Z</time>
      </trkpt>
      <trkpt lat="43.95467" lon="7.04166">
        <ele>755.4</ele>
        <time>2012-11-24T14:34:11Z</time>
      </trkpt>
      <trkpt lat="43.95471" lon="7.04177">
        <ele>753.9</ele>
        <time>2012-11-24T14:34:14Z</time>
      </trkpt>
      <trkpt lat="43.95474" lon="7.04184">
        <ele>753.4</ele>
        <time>2012-11-24T14:34:16Z</time>
      </trkpt>
      <trkpt lat="43.95479" lon="7.04193">
        <ele>753.3</ele>
        <time>2012-11-24T14:34:18Z</time>
      </trkpt>
      <trkpt lat="43.95484" lon="7.04203">
        <ele>751.9</ele>
        <time>2012-11-24T14:34:20Z</time>
      </trkpt>
      <trkpt lat="43.95489" lon="7.04211">
        <ele>751.2</ele>
        <time>2012-11-24T14:34:22Z</time>
      </trkpt>
      <trkpt lat="43.95496" lon="7.04216">
        <ele>750.5</ele>
        <time>2012-11-24T14:34:24Z</time>
      </trkpt>
      <trkpt lat="43.95502" lon="7.04215">
        <ele>748.7</ele>
        <time>2012-11-24T14:34:26Z</time>
      </trkpt>
      <trkpt lat="43.95511" lon="7.04216">
        <ele>746.9</ele>
        <time>2012-11-24T14:34:28Z</time>
      </trkpt>
      <trkpt lat="43.95519" lon="7.04218">
        <ele>743.7</ele>
        <time>2012-11-24T14:34:31Z</time>
      </trkpt>
      <trkpt lat="43.95523" lon="7.04228">
        <ele>740.5</ele>
        <time>2012-11-24T14:34:34Z</time>
      </trkpt>
      <trkpt lat="43.95531" lon="7.04232">
        <ele>737.5</ele>
        <time>2012-11-24T14:34:38Z</time>
      </trkpt>
      <trkpt lat="43.95534" lon="7.04244">
        <ele>735.7</ele>
        <time>2012-11-24T14:34:40Z</time>
      </trkpt>
      <trkpt lat="43.95533" lon="7.04256">
        <ele>734.1</ele>
        <time>2012-11-24T14:34:44Z</time>
      </trkpt>
      <trkpt lat="43.95533" lon="7.04267">
        <ele>734.9</ele>
        <time>2012-11-24T14:34:48Z</time>
      </trkpt>
      <trkpt lat="43.95534" lon="7.04276">
        <ele>735.2</ele>
        <time>2012-11-24T14:34:51Z</time>
      </trkpt>
      <trkpt lat="43.95534" lon="7.04287">
        <ele>735.6</ele>
        <time>2012-11-24T14:34:54Z</time>
      </trkpt>
      <trkpt lat="43.95536" lon="7.04297">
        <ele>736.1</ele>
        <time>2012-11-24T14:34:57Z</time>
      </trkpt>
      <trkpt lat="43.95539" lon="7.04304">
        <ele>736.2</ele>
        <time>2012-11-24T14:34:59Z</time>
      </trkpt>
      <trkpt lat="43.95541" lon="7.04315">
        <ele>735.9</ele>
        <time>2012-11-24T14:35:02Z</time>
      </trkpt>
      <trkpt lat="43.95537" lon="7.04323">
        <ele>736.8</ele>
        <time>2012-11-24T14:35:05Z</time>
      </trkpt>
      <trkpt lat="43.95535" lon="7.04334">
        <ele>736.4</ele>
        <time>2012-11-24T14:35:08Z</time>
      </trkpt>
      <trkpt lat="43.95535" lon="7.04338">
        <ele>736.4</ele>
        <time>2012-11-24T14:35:09Z</time>
      </trkpt>
      <trkpt lat="43.95538" lon="7.04355">
        <ele>736.1</ele>
        <time>2012-11-24T14:35:15Z</time>
      </trkpt>
      <trkpt lat="43.9554" lon="7.04365">
        <ele>736.2</ele>
        <time>2012-11-24T14:35:19Z</time>
      </trkpt>
      <trkpt lat="43.95545" lon="7.04376">
        <ele>736.1</ele>
        <time>2012-11-24T14:35:24Z</time>
      </trkpt>
      <trkpt lat="43.9555" lon="7.04384">
        <ele>736.8</ele>
        <time>2012-11-24T14:35:28Z</time>
      </trkpt>
      <trkpt lat="43.95553" lon="7.04396">
        <ele>737.4</ele>
        <time>2012-11-24T14:35:32Z</time>
      </trkpt>
      <trkpt lat="43.95555" lon="7.04406">
        <ele>737.6</ele>
        <time>2012-11-24T14:35:35Z</time>
      </trkpt>
      <trkpt lat="43.95556" lon="7.04418">
        <ele>737.6</ele>
        <time>2012-11-24T14:35:38Z</time>
      </trkpt>
      <trkpt lat="43.95557" lon="7.04427">
        <ele>737.7</ele>
        <time>2012-11-24T14:35:40Z</time>
      </trkpt>
      <trkpt lat="43.95558" lon="7.04435">
        <ele>737.5</ele>
        <time>2012-11-24T14:35:42Z</time>
      </trkpt>
      <trkpt lat="43.95562" lon="7.04445">
        <ele>737.1</ele>
        <time>2012-11-24T14:35:45Z</time>
      </trkpt>
      <trkpt lat="43.95564" lon="7.04457">
        <ele>737.2</ele>
        <time>2012-11-24T14:35:49Z</time>
      </trkpt>
      <trkpt lat="43.95564" lon="7.04467">
        <ele>737</ele>
        <time>2012-11-24T14:35:52Z</time>
      </trkpt>
      <trkpt lat="43.95561" lon="7.04476">
        <ele>736.6</ele>
        <time>2012-11-24T14:35:55Z</time>
      </trkpt>
      <trkpt lat="43.95554" lon="7.04479">
        <ele>733.2</ele>
        <time>2012-11-24T14:37:13Z</time>
      </trkpt>
      <trkpt lat="43.95552" lon="7.04482">
        <ele>733.3</ele>
        <time>2012-11-24T14:37:14Z</time>
      </trkpt>
      <trkpt lat="43.95545" lon="7.04498">
        <ele>730.9</ele>
        <time>2012-11-24T14:37:18Z</time>
      </trkpt>
      <trkpt lat="43.9554" lon="7.04506">
        <ele>730.4</ele>
        <time>2012-11-24T14:37:20Z</time>
      </trkpt>
      <trkpt lat="43.95538" lon="7.04517">
        <ele>729.3</ele>
        <time>2012-11-24T14:37:23Z</time>
      </trkpt>
      <trkpt lat="43.95537" lon="7.04527">
        <ele>727.9</ele>
        <time>2012-11-24T14:37:26Z</time>
      </trkpt>
      <trkpt lat="43.95534" lon="7.04538">
        <ele>727.2</ele>
        <time>2012-11-24T14:37:30Z</time>
      </trkpt>
      <trkpt lat="43.95532" lon="7.0455">
        <ele>727.3</ele>
        <time>2012-11-24T14:37:38Z</time>
      </trkpt>
      <trkpt lat="43.95531" lon="7.04561">
        <ele>728.8</ele>
        <time>2012-11-24T14:37:51Z</time>
      </trkpt>
      <trkpt lat="43.95529" lon="7.0457">
        <ele>728.7</ele>
        <time>2012-11-24T14:37:54Z</time>
      </trkpt>
      <trkpt lat="43.95529" lon="7.04582">
        <ele>728.3</ele>
        <time>2012-11-24T14:37:58Z</time>
      </trkpt>
      <trkpt lat="43.95531" lon="7.04593">
        <ele>729.4</ele>
        <time>2012-11-24T14:38:04Z</time>
      </trkpt>
      <trkpt lat="43.95537" lon="7.04602">
        <ele>730.6</ele>
        <time>2012-11-24T14:38:10Z</time>
      </trkpt>
      <trkpt lat="43.9554" lon="7.04613">
        <ele>731.2</ele>
        <time>2012-11-24T14:38:17Z</time>
      </trkpt>
      <trkpt lat="43.9554" lon="7.04615">
        <ele>731.2</ele>
        <time>2012-11-24T14:38:18Z</time>
      </trkpt>
      <trkpt lat="43.95529" lon="7.04631">
        <ele>734.3</ele>
        <time>2012-11-24T14:38:39Z</time>
      </trkpt>
      <trkpt lat="43.95524" lon="7.04641">
        <ele>735.5</ele>
        <time>2012-11-24T14:38:45Z</time>
      </trkpt>
      <trkpt lat="43.95519" lon="7.04651">
        <ele>736.3</ele>
        <time>2012-11-24T14:38:51Z</time>
      </trkpt>
      <trkpt lat="43.95515" lon="7.04661">
        <ele>736.8</ele>
        <time>2012-11-24T14:38:56Z</time>
      </trkpt>
      <trkpt lat="43.9551" lon="7.04672">
        <ele>737.7</ele>
        <time>2012-11-24T14:39:02Z</time>
      </trkpt>
      <trkpt lat="43.95505" lon="7.04682">
        <ele>739</ele>
        <time>2012-11-24T14:39:08Z</time>
      </trkpt>
      <trkpt lat="43.95499" lon="7.04687">
        <ele>740.3</ele>
        <time>2012-11-24T14:39:13Z</time>
      </trkpt>
      <trkpt lat="43.95494" lon="7.04697">
        <ele>740.7</ele>
        <time>2012-11-24T14:39:20Z</time>
      </trkpt>
      <trkpt lat="43.95494" lon="7.04699">
        <ele>741.1</ele>
        <time>2012-11-24T14:39:21Z</time>
      </trkpt>
      <trkpt lat="43.95491" lon="7.04719">
        <ele>742.8</ele>
        <time>2012-11-24T14:39:31Z</time>
      </trkpt>
      <trkpt lat="43.95487" lon="7.0473">
        <ele>742.6</ele>
        <time>2012-11-24T14:39:37Z</time>
      </trkpt>
      <trkpt lat="43.95482" lon="7.04739">
        <ele>744.2</ele>
        <time>2012-11-24T14:39:43Z</time>
      </trkpt>
      <trkpt lat="43.95479" lon="7.0475">
        <ele>744.8</ele>
        <time>2012-11-24T14:39:49Z</time>
      </trkpt>
      <trkpt lat="43.95472" lon="7.04756">
        <ele>746.6</ele>
        <time>2012-11-24T14:39:56Z</time>
      </trkpt>
      <trkpt lat="43.95467" lon="7.04766">
        <ele>748.6</ele>
        <time>2012-11-24T14:40:13Z</time>
      </trkpt>
      <trkpt lat="43.95464" lon="7.04778">
        <ele>751</ele>
        <time>2012-11-24T14:40:26Z</time>
      </trkpt>
      <trkpt lat="43.95464" lon="7.04779">
        <ele>751.2</ele>
        <time>2012-11-24T14:40:27Z</time>
      </trkpt>
      <trkpt lat="43.95455" lon="7.04799">
        <ele>756</ele>
        <time>2012-11-24T14:40:51Z</time>
      </trkpt>
      <trkpt lat="43.95448" lon="7.04806">
        <ele>756.8</ele>
        <time>2012-11-24T14:41:03Z</time>
      </trkpt>
      <trkpt lat="43.9544" lon="7.04805">
        <ele>756.3</ele>
        <time>2012-11-24T14:41:08Z</time>
      </trkpt>
      <trkpt lat="43.95433" lon="7.04808">
        <ele>756.2</ele>
        <time>2012-11-24T14:41:10Z</time>
      </trkpt>
      <trkpt lat="43.95425" lon="7.04813">
        <ele>757</ele>
        <time>2012-11-24T14:41:14Z</time>
      </trkpt>
      <trkpt lat="43.95417" lon="7.04818">
        <ele>756.9</ele>
        <time>2012-11-24T14:41:23Z</time>
      </trkpt>
      <trkpt lat="43.95409" lon="7.04814">
        <ele>757.7</ele>
        <time>2012-11-24T14:41:30Z</time>
      </trkpt>
      <trkpt lat="43.95407" lon="7.04814">
        <ele>757.5</ele>
        <time>2012-11-24T14:41:31Z</time>
      </trkpt>
      <trkpt lat="43.95392" lon="7.04807">
        <ele>757.2</ele>
        <time>2012-11-24T14:41:44Z</time>
      </trkpt>
      <trkpt lat="43.95383" lon="7.04805">
        <ele>759</ele>
        <time>2012-11-24T14:41:52Z</time>
      </trkpt>
      <trkpt lat="43.95375" lon="7.04801">
        <ele>761.7</ele>
        <time>2012-11-24T14:42:05Z</time>
      </trkpt>
      <trkpt lat="43.95366" lon="7.048">
        <ele>762.2</ele>
        <time>2012-11-24T14:42:12Z</time>
      </trkpt>
      <trkpt lat="43.9536" lon="7.04805">
        <ele>763.6</ele>
        <time>2012-11-24T14:42:18Z</time>
      </trkpt>
      <trkpt lat="43.95356" lon="7.04816">
        <ele>763.7</ele>
        <time>2012-11-24T14:42:24Z</time>
      </trkpt>
      <trkpt lat="43.95353" lon="7.04827">
        <ele>765</ele>
        <time>2012-11-24T14:42:30Z</time>
      </trkpt>
      <trkpt lat="43.95349" lon="7.04839">
        <ele>767.7</ele>
        <time>2012-11-24T14:42:37Z</time>
      </trkpt>
      <trkpt lat="43.95349" lon="7.0484">
        <ele>767.3</ele>
        <time>2012-11-24T14:42:38Z</time>
      </trkpt>
      <trkpt lat="43.95342" lon="7.04859">
        <ele>770.4</ele>
        <time>2012-11-24T14:42:57Z</time>
      </trkpt>
      <trkpt lat="43.95336" lon="7.04869">
        <ele>771.7</ele>
        <time>2012-11-24T14:43:13Z</time>
      </trkpt>
      <trkpt lat="43.95332" lon="7.04879">
        <ele>771.7</ele>
        <time>2012-11-24T14:43:19Z</time>
      </trkpt>
      <trkpt lat="43.95328" lon="7.04889">
        <ele>772.8</ele>
        <time>2012-11-24T14:43:25Z</time>
      </trkpt>
      <trkpt lat="43.95324" lon="7.049">
        <ele>773.4</ele>
        <time>2012-11-24T14:43:31Z</time>
      </trkpt>
      <trkpt lat="43.95319" lon="7.0491">
        <ele>775.4</ele>
        <time>2012-11-24T14:43:38Z</time>
      </trkpt>
      <trkpt lat="43.95318" lon="7.04911">
        <ele>776.1</ele>
        <time>2012-11-24T14:43:39Z</time>
      </trkpt>
      <trkpt lat="43.95305" lon="7.04925">
        <ele>779.2</ele>
        <time>2012-11-24T14:43:53Z</time>
      </trkpt>
      <trkpt lat="43.95299" lon="7.04931">
        <ele>780.6</ele>
        <time>2012-11-24T14:43:59Z</time>
      </trkpt>
      <trkpt lat="43.95293" lon="7.0494">
        <ele>782.2</ele>
        <time>2012-11-24T14:44:06Z</time>
      </trkpt>
      <trkpt lat="43.95287" lon="7.04947">
        <ele>783.5</ele>
        <time>2012-11-24T14:44:17Z</time>
      </trkpt>
      <trkpt lat="43.95281" lon="7.04955">
        <ele>785.7</ele>
        <time>2012-11-24T14:44:27Z</time>
      </trkpt>
      <trkpt lat="43.95276" lon="7.04965">
        <ele>787.1</ele>
        <time>2012-11-24T14:44:38Z</time>
      </trkpt>
      <trkpt lat="43.95277" lon="7.04977">
        <ele>792.2</ele>
        <time>2012-11-24T14:44:55Z</time>
      </trkpt>
      <trkpt lat="43.95277" lon="7.04978">
        <ele>792.4</ele>
        <time>2012-11-24T14:44:56Z</time>
      </trkpt>
      <trkpt lat="43.9528" lon="7.04997">
        <ele>795.2</ele>
        <time>2012-11-24T14:45:20Z</time>
      </trkpt>
      <trkpt lat="43.95275" lon="7.05007">
        <ele>797.4</ele>
        <time>2012-11-24T14:45:38Z</time>
      </trkpt>
      <trkpt lat="43.95268" lon="7.05015">
        <ele>797.8</ele>
        <time>2012-11-24T14:45:52Z</time>
      </trkpt>
      <trkpt lat="43.95261" lon="7.05022">
        <ele>797.8</ele>
        <time>2012-11-24T14:46:16Z</time>
      </trkpt>
      <trkpt lat="43.95259" lon="7.05024">
        <ele>797.7</ele>
        <time>2012-11-24T14:46:17Z</time>
      </trkpt>
      <trkpt lat="43.95248" lon="7.05033">
        <ele>796.7</ele>
        <time>2012-11-24T14:46:21Z</time>
      </trkpt>
      <trkpt lat="43.95242" lon="7.05037">
        <ele>795.9</ele>
        <time>2012-11-24T14:46:23Z</time>
      </trkpt>
      <trkpt lat="43.95235" lon="7.05043">
        <ele>795</ele>
        <time>2012-11-24T14:46:28Z</time>
      </trkpt>
      <trkpt lat="43.95229" lon="7.05053">
        <ele>795.4</ele>
        <time>2012-11-24T14:46:34Z</time>
      </trkpt>
      <trkpt lat="43.95225" lon="7.05062">
        <ele>795.2</ele>
        <time>2012-11-24T14:46:38Z</time>
      </trkpt>
      <trkpt lat="43.9522" lon="7.05069">
        <ele>794.9</ele>
        <time>2012-11-24T14:46:41Z</time>
      </trkpt>
      <trkpt lat="43.95215" lon="7.05076">
        <ele>794.6</ele>
        <time>2012-11-24T14:46:44Z</time>
      </trkpt>
      <trkpt lat="43.9521" lon="7.05084">
        <ele>795.4</ele>
        <time>2012-11-24T14:46:48Z</time>
      </trkpt>
      <trkpt lat="43.95205" lon="7.05094">
        <ele>796</ele>
        <time>2012-11-24T14:46:52Z</time>
      </trkpt>
      <trkpt lat="43.952" lon="7.05104">
        <ele>795.8</ele>
        <time>2012-11-24T14:46:55Z</time>
      </trkpt>
      <trkpt lat="43.95196" lon="7.05112">
        <ele>795.3</ele>
        <time>2012-11-24T14:46:57Z</time>
      </trkpt>
      <trkpt lat="43.95191" lon="7.05121">
        <ele>794.7</ele>
        <time>2012-11-24T14:46:59Z</time>
      </trkpt>
      <trkpt lat="43.95186" lon="7.05129">
        <ele>793.7</ele>
        <time>2012-11-24T14:47:01Z</time>
      </trkpt>
      <trkpt lat="43.9518" lon="7.05138">
        <ele>792.1</ele>
        <time>2012-11-24T14:47:07Z</time>
      </trkpt>
      <trkpt lat="43.9518" lon="7.0515">
        <ele>792.2</ele>
        <time>2012-11-24T14:47:21Z</time>
      </trkpt>
      <trkpt lat="43.95179" lon="7.05153">
        <ele>792</ele>
        <time>2012-11-24T14:47:22Z</time>
      </trkpt>
      <trkpt lat="43.95173" lon="7.05169">
        <ele>790.3</ele>
        <time>2012-11-24T14:47:26Z</time>
      </trkpt>
      <trkpt lat="43.95169" lon="7.05177">
        <ele>788.1</ele>
        <time>2012-11-24T14:47:28Z</time>
      </trkpt>
      <trkpt lat="43.95164" lon="7.05186">
        <ele>784.9</ele>
        <time>2012-11-24T14:47:31Z</time>
      </trkpt>
      <trkpt lat="43.95158" lon="7.05194">
        <ele>781.6</ele>
        <time>2012-11-24T14:47:34Z</time>
      </trkpt>
      <trkpt lat="43.95155" lon="7.05205">
        <ele>779.6</ele>
        <time>2012-11-24T14:47:37Z</time>
      </trkpt>
      <trkpt lat="43.95151" lon="7.05215">
        <ele>778.4</ele>
        <time>2012-11-24T14:47:39Z</time>
      </trkpt>
      <trkpt lat="43.95147" lon="7.05226">
        <ele>776.2</ele>
        <time>2012-11-24T14:47:41Z</time>
      </trkpt>
      <trkpt lat="43.95144" lon="7.05236">
        <ele>774.4</ele>
        <time>2012-11-24T14:47:43Z</time>
      </trkpt>
      <trkpt lat="43.95148" lon="7.05246">
        <ele>767.2</ele>
        <time>2012-11-24T14:47:52Z</time>
      </trkpt>
      <trkpt lat="43.95147" lon="7.05254">
        <ele>765.3</ele>
        <time>2012-11-24T14:47:54Z</time>
      </trkpt>
      <trkpt lat="43.95146" lon="7.05259">
        <ele>764.6</ele>
        <time>2012-11-24T14:47:55Z</time>
      </trkpt>
      <trkpt lat="43.95144" lon="7.05265">
        <ele>764</ele>
        <time>2012-11-24T14:47:56Z</time>
      </trkpt>
      <trkpt lat="43.95141" lon="7.05277">
        <ele>762.2</ele>
        <time>2012-11-24T14:47:58Z</time>
      </trkpt>
      <trkpt lat="43.9514" lon="7.05288">
        <ele>760.1</ele>
        <time>2012-11-24T14:48:00Z</time>
      </trkpt>
      <trkpt lat="43.95139" lon="7.05299">
        <ele>758.7</ele>
        <time>2012-11-24T14:48:02Z</time>
      </trkpt>
      <trkpt lat="43.95136" lon="7.05308">
        <ele>755.7</ele>
        <time>2012-11-24T14:48:04Z</time>
      </trkpt>
      <trkpt lat="43.95133" lon="7.05317">
        <ele>752.9</ele>
        <time>2012-11-24T14:48:06Z</time>
      </trkpt>
      <trkpt lat="43.95131" lon="7.05327">
        <ele>750.9</ele>
        <time>2012-11-24T14:48:08Z</time>
      </trkpt>
      <trkpt lat="43.95128" lon="7.05336">
        <ele>748.7</ele>
        <time>2012-11-24T14:48:10Z</time>
      </trkpt>
      <trkpt lat="43.95126" lon="7.05345">
        <ele>746.5</ele>
        <time>2012-11-24T14:48:12Z</time>
      </trkpt>
      <trkpt lat="43.95125" lon="7.05353">
        <ele>744.8</ele>
        <time>2012-11-24T14:48:14Z</time>
      </trkpt>
      <trkpt lat="43.95125" lon="7.05363">
        <ele>743.5</ele>
        <time>2012-11-24T14:48:16Z</time>
      </trkpt>
      <trkpt lat="43.95124" lon="7.05374">
        <ele>741.2</ele>
        <time>2012-11-24T14:48:18Z</time>
      </trkpt>
      <trkpt lat="43.95122" lon="7.05386">
        <ele>739.7</ele>
        <time>2012-11-24T14:48:20Z</time>
      </trkpt>
      <trkpt lat="43.9512" lon="7.05394">
        <ele>737.7</ele>
        <time>2012-11-24T14:48:22Z</time>
      </trkpt>
      <trkpt lat="43.95119" lon="7.05398">
        <ele>736.6</ele>
        <time>2012-11-24T14:48:23Z</time>
      </trkpt>
      <trkpt lat="43.95115" lon="7.05414">
        <ele>731.2</ele>
        <time>2012-11-24T14:48:27Z</time>
      </trkpt>
      <trkpt lat="43.95112" lon="7.05425">
        <ele>727.5</ele>
        <time>2012-11-24T14:48:30Z</time>
      </trkpt>
      <trkpt lat="43.95112" lon="7.05433">
        <ele>724.3</ele>
        <time>2012-11-24T14:48:32Z</time>
      </trkpt>
      <trkpt lat="43.95111" lon="7.05443">
        <ele>721.2</ele>
        <time>2012-11-24T14:48:34Z</time>
      </trkpt>
      <trkpt lat="43.9511" lon="7.05453">
        <ele>718.6</ele>
        <time>2012-11-24T14:48:36Z</time>
      </trkpt>
      <trkpt lat="43.9511" lon="7.05465">
        <ele>713.6</ele>
        <time>2012-11-24T14:48:41Z</time>
      </trkpt>
      <trkpt lat="43.95117" lon="7.05472">
        <ele>708.6</ele>
        <time>2012-11-24T14:48:52Z</time>
      </trkpt>
      <trkpt lat="43.95124" lon="7.05472">
        <ele>706.2</ele>
        <time>2012-11-24T14:48:56Z</time>
      </trkpt>
      <trkpt lat="43.95131" lon="7.05465">
        <ele>702</ele>
        <time>2012-11-24T14:49:00Z</time>
      </trkpt>
      <trkpt lat="43.95135" lon="7.05457">
        <ele>698.6</ele>
        <time>2012-11-24T14:49:03Z</time>
      </trkpt>
      <trkpt lat="43.95143" lon="7.05452">
        <ele>693.4</ele>
        <time>2012-11-24T14:49:08Z</time>
      </trkpt>
      <trkpt lat="43.95149" lon="7.05461">
        <ele>686.9</ele>
        <time>2012-11-24T14:49:15Z</time>
      </trkpt>
      <trkpt lat="43.95155" lon="7.05456">
        <ele>684.8</ele>
        <time>2012-11-24T14:49:18Z</time>
      </trkpt>
      <trkpt lat="43.95164" lon="7.05456">
        <ele>677.5</ele>
        <time>2012-11-24T14:49:25Z</time>
      </trkpt>
      <trkpt lat="43.95165" lon="7.05459">
        <ele>676.3</ele>
        <time>2012-11-24T14:49:26Z</time>
      </trkpt>
      <trkpt lat="43.95165" lon="7.05476">
        <ele>670.9</ele>
        <time>2012-11-24T14:49:31Z</time>
      </trkpt>
      <trkpt lat="43.95164" lon="7.05488">
        <ele>666.8</ele>
        <time>2012-11-24T14:49:35Z</time>
      </trkpt>
      <trkpt lat="43.95164" lon="7.05499">
        <ele>662.8</ele>
        <time>2012-11-24T14:49:38Z</time>
      </trkpt>
      <trkpt lat="43.95163" lon="7.05508">
        <ele>660.3</ele>
        <time>2012-11-24T14:49:41Z</time>
      </trkpt>
      <trkpt lat="43.95162" lon="7.0552">
        <ele>657.4</ele>
        <time>2012-11-24T14:49:44Z</time>
      </trkpt>
      <trkpt lat="43.95161" lon="7.05529">
        <ele>655.6</ele>
        <time>2012-11-24T14:49:46Z</time>
      </trkpt>
      <trkpt lat="43.95159" lon="7.05539">
        <ele>654.5</ele>
        <time>2012-11-24T14:49:48Z</time>
      </trkpt>
      <trkpt lat="43.95159" lon="7.05549">
        <ele>653.2</ele>
        <time>2012-11-24T14:49:50Z</time>
      </trkpt>
      <trkpt lat="43.95161" lon="7.0556">
        <ele>651.7</ele>
        <time>2012-11-24T14:49:52Z</time>
      </trkpt>
      <trkpt lat="43.95163" lon="7.05571">
        <ele>649.4</ele>
        <time>2012-11-24T14:49:54Z</time>
      </trkpt>
      <trkpt lat="43.95164" lon="7.05579">
        <ele>647.4</ele>
        <time>2012-11-24T14:49:56Z</time>
      </trkpt>
      <trkpt lat="43.95165" lon="7.0559">
        <ele>644.6</ele>
        <time>2012-11-24T14:49:58Z</time>
      </trkpt>
      <trkpt lat="43.95166" lon="7.05599">
        <ele>641.8</ele>
        <time>2012-11-24T14:50:00Z</time>
      </trkpt>
      <trkpt lat="43.95167" lon="7.05606">
        <ele>639</ele>
        <time>2012-11-24T14:50:02Z</time>
      </trkpt>
      <trkpt lat="43.95169" lon="7.05617">
        <ele>636.3</ele>
        <time>2012-11-24T14:50:04Z</time>
      </trkpt>
      <trkpt lat="43.95168" lon="7.05627">
        <ele>633.4</ele>
        <time>2012-11-24T14:50:06Z</time>
      </trkpt>
      <trkpt lat="43.95169" lon="7.05638">
        <ele>630</ele>
        <time>2012-11-24T14:50:09Z</time>
      </trkpt>
      <trkpt lat="43.95175" lon="7.0564">
        <ele>627.5</ele>
        <time>2012-11-24T14:50:12Z</time>
      </trkpt>
      <trkpt lat="43.9518" lon="7.05648">
        <ele>623.7</ele>
        <time>2012-11-24T14:50:16Z</time>
      </trkpt>
      <trkpt lat="43.95179" lon="7.05658">
        <ele>621.8</ele>
        <time>2012-11-24T14:50:18Z</time>
      </trkpt>
      <trkpt lat="43.95178" lon="7.05667">
        <ele>619.5</ele>
        <time>2012-11-24T14:50:20Z</time>
      </trkpt>
      <trkpt lat="43.95177" lon="7.05678">
        <ele>617.6</ele>
        <time>2012-11-24T14:50:22Z</time>
      </trkpt>
      <trkpt lat="43.95177" lon="7.05688">
        <ele>615.9</ele>
        <time>2012-11-24T14:50:24Z</time>
      </trkpt>
      <trkpt lat="43.95177" lon="7.05698">
        <ele>613.7</ele>
        <time>2012-11-24T14:50:26Z</time>
      </trkpt>
      <trkpt lat="43.95177" lon="7.05703">
        <ele>612.1</ele>
        <time>2012-11-24T14:50:27Z</time>
      </trkpt>
      <trkpt lat="43.95177" lon="7.05719">
        <ele>608.5</ele>
        <time>2012-11-24T14:50:30Z</time>
      </trkpt>
      <trkpt lat="43.95176" lon="7.05726">
        <ele>607.4</ele>
        <time>2012-11-24T14:50:31Z</time>
      </trkpt>
      <trkpt lat="43.95175" lon="7.05733">
        <ele>605.9</ele>
        <time>2012-11-24T14:50:32Z</time>
      </trkpt>
      <trkpt lat="43.95174" lon="7.0574">
        <ele>604.8</ele>
        <time>2012-11-24T14:50:33Z</time>
      </trkpt>
      <trkpt lat="43.95171" lon="7.05746">
        <ele>603.9</ele>
        <time>2012-11-24T14:50:34Z</time>
      </trkpt>
      <trkpt lat="43.95169" lon="7.05753">
        <ele>602.9</ele>
        <time>2012-11-24T14:50:35Z</time>
      </trkpt>
      <trkpt lat="43.95167" lon="7.0576">
        <ele>602.2</ele>
        <time>2012-11-24T14:50:36Z</time>
      </trkpt>
      <trkpt lat="43.95164" lon="7.05767">
        <ele>600.6</ele>
        <time>2012-11-24T14:50:37Z</time>
      </trkpt>
      <trkpt lat="43.95161" lon="7.05773">
        <ele>599.5</ele>
        <time>2012-11-24T14:50:38Z</time>
      </trkpt>
      <trkpt lat="43.95159" lon="7.0578">
        <ele>598</ele>
        <time>2012-11-24T14:50:39Z</time>
      </trkpt>
      <trkpt lat="43.95156" lon="7.05787">
        <ele>597</ele>
        <time>2012-11-24T14:50:40Z</time>
      </trkpt>
      <trkpt lat="43.95154" lon="7.05794">
        <ele>596.2</ele>
        <time>2012-11-24T14:50:41Z</time>
      </trkpt>
      <trkpt lat="43.95152" lon="7.058">
        <ele>594.7</ele>
        <time>2012-11-24T14:50:42Z</time>
      </trkpt>
      <trkpt lat="43.95151" lon="7.05811">
        <ele>592.5</ele>
        <time>2012-11-24T14:50:44Z</time>
      </trkpt>
      <trkpt lat="43.95151" lon="7.05822">
        <ele>589.9</ele>
        <time>2012-11-24T14:50:46Z</time>
      </trkpt>
      <trkpt lat="43.95153" lon="7.05832">
        <ele>587.8</ele>
        <time>2012-11-24T14:50:48Z</time>
      </trkpt>
      <trkpt lat="43.95154" lon="7.05843">
        <ele>582.6</ele>
        <time>2012-11-24T14:50:53Z</time>
      </trkpt>
      <trkpt lat="43.95159" lon="7.05854">
        <ele>582.2</ele>
        <time>2012-11-24T14:50:56Z</time>
      </trkpt>
      <trkpt lat="43.95162" lon="7.05863">
        <ele>581</ele>
        <time>2012-11-24T14:50:58Z</time>
      </trkpt>
      <trkpt lat="43.95165" lon="7.05874">
        <ele>578.7</ele>
        <time>2012-11-24T14:51:01Z</time>
      </trkpt>
      <trkpt lat="43.95172" lon="7.05873">
        <ele>574.8</ele>
        <time>2012-11-24T14:51:06Z</time>
      </trkpt>
      <trkpt lat="43.95178" lon="7.05865">
        <ele>571.9</ele>
        <time>2012-11-24T14:51:09Z</time>
      </trkpt>
      <trkpt lat="43.95184" lon="7.05874">
        <ele>565.1</ele>
        <time>2012-11-24T14:51:18Z</time>
      </trkpt>
      <trkpt lat="43.95182" lon="7.05886">
        <ele>563.6</ele>
        <time>2012-11-24T14:51:21Z</time>
      </trkpt>
      <trkpt lat="43.95182" lon="7.05899">
        <ele>559.3</ele>
        <time>2012-11-24T14:51:25Z</time>
      </trkpt>
      <trkpt lat="43.95181" lon="7.0591">
        <ele>557.2</ele>
        <time>2012-11-24T14:51:27Z</time>
      </trkpt>
      <trkpt lat="43.95179" lon="7.05913">
        <ele>556.2</ele>
        <time>2012-11-24T14:51:28Z</time>
      </trkpt>
      <trkpt lat="43.9517" lon="7.05926">
        <ele>550.9</ele>
        <time>2012-11-24T14:51:33Z</time>
      </trkpt>
      <trkpt lat="43.95165" lon="7.05935">
        <ele>549.3</ele>
        <time>2012-11-24T14:51:35Z</time>
      </trkpt>
      <trkpt lat="43.95164" lon="7.05945">
        <ele>545.2</ele>
        <time>2012-11-24T14:51:38Z</time>
      </trkpt>
      <trkpt lat="43.95169" lon="7.0595">
        <ele>543.2</ele>
        <time>2012-11-24T14:51:40Z</time>
      </trkpt>
      <trkpt lat="43.95178" lon="7.05952">
        <ele>540.4</ele>
        <time>2012-11-24T14:51:43Z</time>
      </trkpt>
      <trkpt lat="43.95177" lon="7.05962">
        <ele>538.3</ele>
        <time>2012-11-24T14:51:47Z</time>
      </trkpt>
      <trkpt lat="43.95173" lon="7.0597">
        <ele>535.8</ele>
        <time>2012-11-24T14:51:50Z</time>
      </trkpt>
      <trkpt lat="43.95169" lon="7.05977">
        <ele>534.6</ele>
        <time>2012-11-24T14:51:52Z</time>
      </trkpt>
      <trkpt lat="43.95161" lon="7.05981">
        <ele>531.6</ele>
        <time>2012-11-24T14:51:55Z</time>
      </trkpt>
      <trkpt lat="43.95154" lon="7.05985">
        <ele>528.7</ele>
        <time>2012-11-24T14:51:58Z</time>
      </trkpt>
      <trkpt lat="43.95152" lon="7.05997">
        <ele>525</ele>
        <time>2012-11-24T14:52:02Z</time>
      </trkpt>
      <trkpt lat="43.95156" lon="7.06006">
        <ele>522</ele>
        <time>2012-11-24T14:52:06Z</time>
      </trkpt>
      <trkpt lat="43.9516" lon="7.06014">
        <ele>520.8</ele>
        <time>2012-11-24T14:52:08Z</time>
      </trkpt>
      <trkpt lat="43.95164" lon="7.06021">
        <ele>519.4</ele>
        <time>2012-11-24T14:52:10Z</time>
      </trkpt>
      <trkpt lat="43.95164" lon="7.06034">
        <ele>515.9</ele>
        <time>2012-11-24T14:52:14Z</time>
      </trkpt>
      <trkpt lat="43.95161" lon="7.06045">
        <ele>511.9</ele>
        <time>2012-11-24T14:52:19Z</time>
      </trkpt>
      <trkpt lat="43.95168" lon="7.06049">
        <ele>510.3</ele>
        <time>2012-11-24T14:52:22Z</time>
      </trkpt>
      <trkpt lat="43.95176" lon="7.06047">
        <ele>508</ele>
        <time>2012-11-24T14:52:25Z</time>
      </trkpt>
      <trkpt lat="43.95184" lon="7.06044">
        <ele>506.3</ele>
        <time>2012-11-24T14:52:27Z</time>
      </trkpt>
      <trkpt lat="43.95192" lon="7.06039">
        <ele>504.2</ele>
        <time>2012-11-24T14:52:29Z</time>
      </trkpt>
      <trkpt lat="43.95195" lon="7.06037">
        <ele>503.5</ele>
        <time>2012-11-24T14:52:30Z</time>
      </trkpt>
      <trkpt lat="43.95204" lon="7.06027">
        <ele>500.4</ele>
        <time>2012-11-24T14:52:33Z</time>
      </trkpt>
      <trkpt lat="43.95209" lon="7.06037">
        <ele>494.8</ele>
        <time>2012-11-24T14:52:39Z</time>
      </trkpt>
      <trkpt lat="43.95209" lon="7.06045">
        <ele>492.9</ele>
        <time>2012-11-24T14:52:41Z</time>
      </trkpt>
      <trkpt lat="43.95208" lon="7.06054">
        <ele>490.5</ele>
        <time>2012-11-24T14:52:43Z</time>
      </trkpt>
      <trkpt lat="43.95204" lon="7.06064">
        <ele>486</ele>
        <time>2012-11-24T14:52:46Z</time>
      </trkpt>
      <trkpt lat="43.95198" lon="7.06073">
        <ele>482.6</ele>
        <time>2012-11-24T14:52:49Z</time>
      </trkpt>
      <trkpt lat="43.95195" lon="7.06081">
        <ele>480.3</ele>
        <time>2012-11-24T14:52:51Z</time>
      </trkpt>
      <trkpt lat="43.95192" lon="7.06092">
        <ele>476.7</ele>
        <time>2012-11-24T14:52:54Z</time>
      </trkpt>
      <trkpt lat="43.95198" lon="7.06099">
        <ele>472.8</ele>
        <time>2012-11-24T14:53:00Z</time>
      </trkpt>
      <trkpt lat="43.95204" lon="7.06107">
        <ele>470</ele>
        <time>2012-11-24T14:53:08Z</time>
      </trkpt>
      <trkpt lat="43.95207" lon="7.06119">
        <ele>470.8</ele>
        <time>2012-11-24T14:53:34Z</time>
      </trkpt>
      <trkpt lat="43.95207" lon="7.0612">
        <ele>470.7</ele>
        <time>2012-11-24T14:53:35Z</time>
      </trkpt>
      <trkpt lat="43.95212" lon="7.06142">
        <ele>471.1</ele>
        <time>2012-11-24T14:54:19Z</time>
      </trkpt>
      <trkpt lat="43.95218" lon="7.06151">
        <ele>472.2</ele>
        <time>2012-11-24T14:54:29Z</time>
      </trkpt>
      <trkpt lat="43.95219" lon="7.06163">
        <ele>475.2</ele>
        <time>2012-11-24T14:54:45Z</time>
      </trkpt>
      <trkpt lat="43.95219" lon="7.06163">
        <ele>475.4</ele>
        <time>2012-11-24T14:54:46Z</time>
      </trkpt>
      <trkpt lat="43.95218" lon="7.06186">
        <ele>478.5</ele>
        <time>2012-11-24T14:55:07Z</time>
      </trkpt>
      <trkpt lat="43.95218" lon="7.06196">
        <ele>479.9</ele>
        <time>2012-11-24T14:55:13Z</time>
      </trkpt>
      <trkpt lat="43.95218" lon="7.06208">
        <ele>480.7</ele>
        <time>2012-11-24T14:55:20Z</time>
      </trkpt>
      <trkpt lat="43.95221" lon="7.06197">
        <ele>485</ele>
        <time>2012-11-24T14:55:47Z</time>
      </trkpt>
      <trkpt lat="43.95221" lon="7.06196">
        <ele>485.1</ele>
        <time>2012-11-24T14:55:48Z</time>
      </trkpt>
      <trkpt lat="43.95218" lon="7.06219">
        <ele>489.2</ele>
        <time>2012-11-24T14:56:11Z</time>
      </trkpt>
      <trkpt lat="43.95212" lon="7.06226">
        <ele>491</ele>
        <time>2012-11-24T14:56:22Z</time>
      </trkpt>
      <trkpt lat="43.95205" lon="7.0623">
        <ele>490.7</ele>
        <time>2012-11-24T14:56:26Z</time>
      </trkpt>
      <trkpt lat="43.95198" lon="7.06232">
        <ele>490.5</ele>
        <time>2012-11-24T14:56:29Z</time>
      </trkpt>
      <trkpt lat="43.95189" lon="7.06235">
        <ele>490.1</ele>
        <time>2012-11-24T14:56:32Z</time>
      </trkpt>
      <trkpt lat="43.95182" lon="7.0624">
        <ele>489.6</ele>
        <time>2012-11-24T14:56:35Z</time>
      </trkpt>
      <trkpt lat="43.95176" lon="7.06248">
        <ele>489.2</ele>
        <time>2012-11-24T14:56:39Z</time>
      </trkpt>
      <trkpt lat="43.95171" lon="7.06258">
        <ele>489.4</ele>
        <time>2012-11-24T14:56:43Z</time>
      </trkpt>
      <trkpt lat="43.95168" lon="7.06268">
        <ele>490.2</ele>
        <time>2012-11-24T14:56:48Z</time>
      </trkpt>
      <trkpt lat="43.95167" lon="7.06269">
        <ele>490.4</ele>
        <time>2012-11-24T14:56:49Z</time>
      </trkpt>
      <trkpt lat="43.95165" lon="7.06291">
        <ele>494.5</ele>
        <time>2012-11-24T14:57:09Z</time>
      </trkpt>
      <trkpt lat="43.95158" lon="7.06298">
        <ele>498.5</ele>
        <time>2012-11-24T14:57:30Z</time>
      </trkpt>
      <trkpt lat="43.95151" lon="7.06293">
        <ele>499.3</ele>
        <time>2012-11-24T14:57:42Z</time>
      </trkpt>
      <trkpt lat="43.95144" lon="7.06285">
        <ele>500.8</ele>
        <time>2012-11-24T14:58:14Z</time>
      </trkpt>
      <trkpt lat="43.95144" lon="7.06284">
        <ele>500.8</ele>
        <time>2012-11-24T14:58:15Z</time>
      </trkpt>
      <trkpt lat="43.95139" lon="7.06295">
        <ele>502.2</ele>
        <time>2012-11-24T14:59:23Z</time>
      </trkpt>
      <trkpt lat="43.95125" lon="7.06306">
        <ele>506.7</ele>
        <time>2012-11-24T14:59:50Z</time>
      </trkpt>
      <trkpt lat="43.95117" lon="7.0631">
        <ele>507.4</ele>
        <time>2012-11-24T14:59:55Z</time>
      </trkpt>
      <trkpt lat="43.9511" lon="7.06314">
        <ele>507.6</ele>
        <time>2012-11-24T14:59:59Z</time>
      </trkpt>
      <trkpt lat="43.95102" lon="7.06316">
        <ele>507.5</ele>
        <time>2012-11-24T15:00:03Z</time>
      </trkpt>
      <trkpt lat="43.95095" lon="7.06317">
        <ele>508.6</ele>
        <time>2012-11-24T15:00:07Z</time>
      </trkpt>
      <trkpt lat="43.95087" lon="7.06322">
        <ele>508.7</ele>
        <time>2012-11-24T15:00:11Z</time>
      </trkpt>
      <trkpt lat="43.95081" lon="7.06325">
        <ele>508.9</ele>
        <time>2012-11-24T15:00:13Z</time>
      </trkpt>
      <trkpt lat="43.95074" lon="7.06327">
        <ele>508.2</ele>
        <time>2012-11-24T15:00:15Z</time>
      </trkpt>
      <trkpt lat="43.95068" lon="7.0633">
        <ele>508</ele>
        <time>2012-11-24T15:00:17Z</time>
      </trkpt>
      <trkpt lat="43.95059" lon="7.06334">
        <ele>507.4</ele>
        <time>2012-11-24T15:00:20Z</time>
      </trkpt>
      <trkpt lat="43.95052" lon="7.06337">
        <ele>507.7</ele>
        <time>2012-11-24T15:00:23Z</time>
      </trkpt>
      <trkpt lat="43.9505" lon="7.06338">
        <ele>507.8</ele>
        <time>2012-11-24T15:00:24Z</time>
      </trkpt>
      <trkpt lat="43.95037" lon="7.06343">
        <ele>507.2</ele>
        <time>2012-11-24T15:00:30Z</time>
      </trkpt>
      <trkpt lat="43.95029" lon="7.06346">
        <ele>507</ele>
        <time>2012-11-24T15:00:33Z</time>
      </trkpt>
      <trkpt lat="43.95023" lon="7.06348">
        <ele>507.2</ele>
        <time>2012-11-24T15:00:35Z</time>
      </trkpt>
      <trkpt lat="43.95017" lon="7.0635">
        <ele>507.8</ele>
        <time>2012-11-24T15:00:37Z</time>
      </trkpt>
      <trkpt lat="43.95009" lon="7.06354">
        <ele>508.2</ele>
        <time>2012-11-24T15:00:40Z</time>
      </trkpt>
      <trkpt lat="43.95003" lon="7.06359">
        <ele>508.7</ele>
        <time>2012-11-24T15:00:43Z</time>
      </trkpt>
      <trkpt lat="43.94998" lon="7.06366">
        <ele>508.9</ele>
        <time>2012-11-24T15:00:46Z</time>
      </trkpt>
      <trkpt lat="43.94993" lon="7.06375">
        <ele>508.6</ele>
        <time>2012-11-24T15:00:49Z</time>
      </trkpt>
      <trkpt lat="43.94988" lon="7.06386">
        <ele>508.3</ele>
        <time>2012-11-24T15:00:52Z</time>
      </trkpt>
      <trkpt lat="43.94984" lon="7.06395">
        <ele>508.3</ele>
        <time>2012-11-24T15:00:55Z</time>
      </trkpt>
      <trkpt lat="43.94982" lon="7.06404">
        <ele>508.2</ele>
        <time>2012-11-24T15:00:58Z</time>
      </trkpt>
      <trkpt lat="43.94981" lon="7.06415">
        <ele>508.6</ele>
        <time>2012-11-24T15:01:00Z</time>
      </trkpt>
      <trkpt lat="43.9498" lon="7.06425">
        <ele>508.2</ele>
        <time>2012-11-24T15:01:02Z</time>
      </trkpt>
      <trkpt lat="43.94981" lon="7.06435">
        <ele>507.9</ele>
        <time>2012-11-24T15:01:04Z</time>
      </trkpt>
      <trkpt lat="43.94981" lon="7.06447">
        <ele>506.8</ele>
        <time>2012-11-24T15:01:09Z</time>
      </trkpt>
      <trkpt lat="43.94973" lon="7.0645">
        <ele>507.1</ele>
        <time>2012-11-24T15:01:15Z</time>
      </trkpt>
      <trkpt lat="43.94965" lon="7.06446">
        <ele>509</ele>
        <time>2012-11-24T15:01:21Z</time>
      </trkpt>
      <trkpt lat="43.94958" lon="7.06441">
        <ele>510.3</ele>
        <time>2012-11-24T15:01:26Z</time>
      </trkpt>
      <trkpt lat="43.94956" lon="7.0644">
        <ele>510.4</ele>
        <time>2012-11-24T15:01:27Z</time>
      </trkpt>
      <trkpt lat="43.94943" lon="7.06452">
        <ele>512.6</ele>
        <time>2012-11-24T15:01:40Z</time>
      </trkpt>
      <trkpt lat="43.94939" lon="7.06461">
        <ele>514.2</ele>
        <time>2012-11-24T15:01:46Z</time>
      </trkpt>
      <trkpt lat="43.94935" lon="7.06471">
        <ele>515.3</ele>
        <time>2012-11-24T15:01:52Z</time>
      </trkpt>
      <trkpt lat="43.94932" lon="7.06481">
        <ele>516.9</ele>
        <time>2012-11-24T15:01:58Z</time>
      </trkpt>
      <trkpt lat="43.94929" lon="7.06492">
        <ele>518.3</ele>
        <time>2012-11-24T15:02:04Z</time>
      </trkpt>
      <trkpt lat="43.94924" lon="7.06502">
        <ele>519.1</ele>
        <time>2012-11-24T15:02:10Z</time>
      </trkpt>
      <trkpt lat="43.94919" lon="7.06511">
        <ele>520.2</ele>
        <time>2012-11-24T15:02:16Z</time>
      </trkpt>
      <trkpt lat="43.94915" lon="7.0652">
        <ele>520.9</ele>
        <time>2012-11-24T15:02:21Z</time>
      </trkpt>
      <trkpt lat="43.94911" lon="7.06531">
        <ele>521.6</ele>
        <time>2012-11-24T15:02:27Z</time>
      </trkpt>
      <trkpt lat="43.94911" lon="7.06533">
        <ele>521.5</ele>
        <time>2012-11-24T15:02:28Z</time>
      </trkpt>
      <trkpt lat="43.94907" lon="7.06553">
        <ele>523.6</ele>
        <time>2012-11-24T15:02:37Z</time>
      </trkpt>
      <trkpt lat="43.94907" lon="7.06564">
        <ele>524.2</ele>
        <time>2012-11-24T15:02:41Z</time>
      </trkpt>
      <trkpt lat="43.94907" lon="7.06576">
        <ele>523.8</ele>
        <time>2012-11-24T15:02:45Z</time>
      </trkpt>
      <trkpt lat="43.94901" lon="7.06584">
        <ele>524.7</ele>
        <time>2012-11-24T15:02:50Z</time>
      </trkpt>
      <trkpt lat="43.94892" lon="7.06582">
        <ele>525.3</ele>
        <time>2012-11-24T15:02:55Z</time>
      </trkpt>
      <trkpt lat="43.94885" lon="7.06586">
        <ele>526</ele>
        <time>2012-11-24T15:03:00Z</time>
      </trkpt>
      <trkpt lat="43.9488" lon="7.06597">
        <ele>526.6</ele>
        <time>2012-11-24T15:03:05Z</time>
      </trkpt>
      <trkpt lat="43.9488" lon="7.06609">
        <ele>527.3</ele>
        <time>2012-11-24T15:03:09Z</time>
      </trkpt>
      <trkpt lat="43.94882" lon="7.0662">
        <ele>527.9</ele>
        <time>2012-11-24T15:03:13Z</time>
      </trkpt>
      <trkpt lat="43.94881" lon="7.06632">
        <ele>528.8</ele>
        <time>2012-11-24T15:03:17Z</time>
      </trkpt>
      <trkpt lat="43.94877" lon="7.06642">
        <ele>529</ele>
        <time>2012-11-24T15:03:20Z</time>
      </trkpt>
      <trkpt lat="43.94874" lon="7.06651">
        <ele>528.7</ele>
        <time>2012-11-24T15:03:22Z</time>
      </trkpt>
      <trkpt lat="43.94873" lon="7.06661">
        <ele>528.8</ele>
        <time>2012-11-24T15:03:24Z</time>
      </trkpt>
      <trkpt lat="43.94871" lon="7.06669">
        <ele>528.9</ele>
        <time>2012-11-24T15:03:26Z</time>
      </trkpt>
      <trkpt lat="43.94871" lon="7.06679">
        <ele>528.6</ele>
        <time>2012-11-24T15:03:28Z</time>
      </trkpt>
      <trkpt lat="43.94872" lon="7.06684">
        <ele>528.5</ele>
        <time>2012-11-24T15:03:29Z</time>
      </trkpt>
      <trkpt lat="43.94863" lon="7.06693">
        <ele>527.8</ele>
        <time>2012-11-24T15:03:34Z</time>
      </trkpt>
      <trkpt lat="43.94854" lon="7.06692">
        <ele>528.8</ele>
        <time>2012-11-24T15:03:37Z</time>
      </trkpt>
      <trkpt lat="43.94847" lon="7.06685">
        <ele>529</ele>
        <time>2012-11-24T15:03:40Z</time>
      </trkpt>
      <trkpt lat="43.9484" lon="7.06681">
        <ele>528.6</ele>
        <time>2012-11-24T15:03:43Z</time>
      </trkpt>
      <trkpt lat="43.94833" lon="7.06678">
        <ele>528.3</ele>
        <time>2012-11-24T15:03:47Z</time>
      </trkpt>
      <trkpt lat="43.94825" lon="7.06673">
        <ele>529.6</ele>
        <time>2012-11-24T15:03:52Z</time>
      </trkpt>
      <trkpt lat="43.94817" lon="7.0667">
        <ele>530.4</ele>
        <time>2012-11-24T15:03:57Z</time>
      </trkpt>
      <trkpt lat="43.94808" lon="7.06667">
        <ele>531.1</ele>
        <time>2012-11-24T15:04:02Z</time>
      </trkpt>
      <trkpt lat="43.94801" lon="7.06673">
        <ele>531.7</ele>
        <time>2012-11-24T15:04:07Z</time>
      </trkpt>
      <trkpt lat="43.94793" lon="7.06678">
        <ele>533.8</ele>
        <time>2012-11-24T15:04:13Z</time>
      </trkpt>
      <trkpt lat="43.94786" lon="7.0668">
        <ele>534.2</ele>
        <time>2012-11-24T15:04:18Z</time>
      </trkpt>
      <trkpt lat="43.94778" lon="7.06681">
        <ele>535.9</ele>
        <time>2012-11-24T15:04:23Z</time>
      </trkpt>
      <trkpt lat="43.9477" lon="7.06683">
        <ele>536.9</ele>
        <time>2012-11-24T15:04:28Z</time>
      </trkpt>
      <trkpt lat="43.94762" lon="7.06683">
        <ele>537.9</ele>
        <time>2012-11-24T15:04:33Z</time>
      </trkpt>
      <trkpt lat="43.94761" lon="7.06683">
        <ele>538.1</ele>
        <time>2012-11-24T15:04:34Z</time>
      </trkpt>
      <trkpt lat="43.94752" lon="7.06694">
        <ele>540.6</ele>
        <time>2012-11-24T15:04:47Z</time>
      </trkpt>
      <trkpt lat="43.94757" lon="7.06703">
        <ele>541.2</ele>
        <time>2012-11-24T15:04:52Z</time>
      </trkpt>
      <trkpt lat="43.94763" lon="7.06711">
        <ele>541.6</ele>
        <time>2012-11-24T15:04:57Z</time>
      </trkpt>
      <trkpt lat="43.94767" lon="7.06721">
        <ele>542.1</ele>
        <time>2012-11-24T15:05:00Z</time>
      </trkpt>
      <trkpt lat="43.94772" lon="7.06731">
        <ele>542.2</ele>
        <time>2012-11-24T15:05:03Z</time>
      </trkpt>
      <trkpt lat="43.94777" lon="7.06739">
        <ele>542.1</ele>
        <time>2012-11-24T15:05:06Z</time>
      </trkpt>
      <trkpt lat="43.94781" lon="7.06749">
        <ele>541.8</ele>
        <time>2012-11-24T15:05:09Z</time>
      </trkpt>
      <trkpt lat="43.94784" lon="7.0676">
        <ele>542.6</ele>
        <time>2012-11-24T15:05:12Z</time>
      </trkpt>
      <trkpt lat="43.94788" lon="7.06771">
        <ele>542.3</ele>
        <time>2012-11-24T15:05:15Z</time>
      </trkpt>
      <trkpt lat="43.94793" lon="7.0678">
        <ele>542</ele>
        <time>2012-11-24T15:05:18Z</time>
      </trkpt>
      <trkpt lat="43.94798" lon="7.0679">
        <ele>541.6</ele>
        <time>2012-11-24T15:05:21Z</time>
      </trkpt>
      <trkpt lat="43.94802" lon="7.06801">
        <ele>541.7</ele>
        <time>2012-11-24T15:05:24Z</time>
      </trkpt>
      <trkpt lat="43.94806" lon="7.06812">
        <ele>541.6</ele>
        <time>2012-11-24T15:05:27Z</time>
      </trkpt>
      <trkpt lat="43.94808" lon="7.06821">
        <ele>541.5</ele>
        <time>2012-11-24T15:05:29Z</time>
      </trkpt>
      <trkpt lat="43.94806" lon="7.06832">
        <ele>541.3</ele>
        <time>2012-11-24T15:05:32Z</time>
      </trkpt>
      <trkpt lat="43.94799" lon="7.0684">
        <ele>542.9</ele>
        <time>2012-11-24T15:05:36Z</time>
      </trkpt>
      <trkpt lat="43.94797" lon="7.06841">
        <ele>543.1</ele>
        <time>2012-11-24T15:05:37Z</time>
      </trkpt>
      <trkpt lat="43.94786" lon="7.0685">
        <ele>544.5</ele>
        <time>2012-11-24T15:05:42Z</time>
      </trkpt>
      <trkpt lat="43.94781" lon="7.06857">
        <ele>544.5</ele>
        <time>2012-11-24T15:05:45Z</time>
      </trkpt>
      <trkpt lat="43.94778" lon="7.06865">
        <ele>545.1</ele>
        <time>2012-11-24T15:05:47Z</time>
      </trkpt>
      <trkpt lat="43.94776" lon="7.06875">
        <ele>544.8</ele>
        <time>2012-11-24T15:05:49Z</time>
      </trkpt>
      <trkpt lat="43.94775" lon="7.06886">
        <ele>543.9</ele>
        <time>2012-11-24T15:05:51Z</time>
      </trkpt>
      <trkpt lat="43.94772" lon="7.06895">
        <ele>543.8</ele>
        <time>2012-11-24T15:05:53Z</time>
      </trkpt>
      <trkpt lat="43.94767" lon="7.06901">
        <ele>543.9</ele>
        <time>2012-11-24T15:05:55Z</time>
      </trkpt>
      <trkpt lat="43.9476" lon="7.06909">
        <ele>543.6</ele>
        <time>2012-11-24T15:05:58Z</time>
      </trkpt>
      <trkpt lat="43.94753" lon="7.06915">
        <ele>543.9</ele>
        <time>2012-11-24T15:06:01Z</time>
      </trkpt>
      <trkpt lat="43.94747" lon="7.06921">
        <ele>544.5</ele>
        <time>2012-11-24T15:06:04Z</time>
      </trkpt>
      <trkpt lat="43.94742" lon="7.06929">
        <ele>545.3</ele>
        <time>2012-11-24T15:06:07Z</time>
      </trkpt>
      <trkpt lat="43.94739" lon="7.06938">
        <ele>545.9</ele>
        <time>2012-11-24T15:06:10Z</time>
      </trkpt>
      <trkpt lat="43.94739" lon="7.0695">
        <ele>547.1</ele>
        <time>2012-11-24T15:06:14Z</time>
      </trkpt>
      <trkpt lat="43.94742" lon="7.06959">
        <ele>548.6</ele>
        <time>2012-11-24T15:06:18Z</time>
      </trkpt>
      <trkpt lat="43.94747" lon="7.06969">
        <ele>549.7</ele>
        <time>2012-11-24T15:06:23Z</time>
      </trkpt>
      <trkpt lat="43.94753" lon="7.06975">
        <ele>550.8</ele>
        <time>2012-11-24T15:06:29Z</time>
      </trkpt>
      <trkpt lat="43.94759" lon="7.06983">
        <ele>551.2</ele>
        <time>2012-11-24T15:06:34Z</time>
      </trkpt>
      <trkpt lat="43.94765" lon="7.06991">
        <ele>551.4</ele>
        <time>2012-11-24T15:06:39Z</time>
      </trkpt>
      <trkpt lat="43.94767" lon="7.06992">
        <ele>551.4</ele>
        <time>2012-11-24T15:06:40Z</time>
      </trkpt>
      <trkpt lat="43.94778" lon="7.07006">
        <ele>551.2</ele>
        <time>2012-11-24T15:06:47Z</time>
      </trkpt>
      <trkpt lat="43.94783" lon="7.07014">
        <ele>551.6</ele>
        <time>2012-11-24T15:06:51Z</time>
      </trkpt>
      <trkpt lat="43.94788" lon="7.07022">
        <ele>550.7</ele>
        <time>2012-11-24T15:06:54Z</time>
      </trkpt>
      <trkpt lat="43.94792" lon="7.07033">
        <ele>551.1</ele>
        <time>2012-11-24T15:06:57Z</time>
      </trkpt>
      <trkpt lat="43.94794" lon="7.07041">
        <ele>550.9</ele>
        <time>2012-11-24T15:06:59Z</time>
      </trkpt>
      <trkpt lat="43.94797" lon="7.07049">
        <ele>550.6</ele>
        <time>2012-11-24T15:07:01Z</time>
      </trkpt>
      <trkpt lat="43.948" lon="7.07056">
        <ele>550.6</ele>
        <time>2012-11-24T15:07:03Z</time>
      </trkpt>
      <trkpt lat="43.94801" lon="7.07065">
        <ele>550.8</ele>
        <time>2012-11-24T15:07:05Z</time>
      </trkpt>
      <trkpt lat="43.94802" lon="7.07074">
        <ele>550.6</ele>
        <time>2012-11-24T15:07:07Z</time>
      </trkpt>
      <trkpt lat="43.94799" lon="7.07084">
        <ele>550.5</ele>
        <time>2012-11-24T15:07:09Z</time>
      </trkpt>
      <trkpt lat="43.94794" lon="7.0709">
        <ele>550.3</ele>
        <time>2012-11-24T15:07:11Z</time>
      </trkpt>
      <trkpt lat="43.94787" lon="7.07091">
        <ele>550</ele>
        <time>2012-11-24T15:07:13Z</time>
      </trkpt>
      <trkpt lat="43.9478" lon="7.07087">
        <ele>549.9</ele>
        <time>2012-11-24T15:07:15Z</time>
      </trkpt>
      <trkpt lat="43.94773" lon="7.07084">
        <ele>549.5</ele>
        <time>2012-11-24T15:07:17Z</time>
      </trkpt>
      <trkpt lat="43.94767" lon="7.07082">
        <ele>549.2</ele>
        <time>2012-11-24T15:07:19Z</time>
      </trkpt>
      <trkpt lat="43.9476" lon="7.07081">
        <ele>549.1</ele>
        <time>2012-11-24T15:07:21Z</time>
      </trkpt>
      <trkpt lat="43.94753" lon="7.0708">
        <ele>549.1</ele>
        <time>2012-11-24T15:07:23Z</time>
      </trkpt>
      <trkpt lat="43.94745" lon="7.07081">
        <ele>549.1</ele>
        <time>2012-11-24T15:07:25Z</time>
      </trkpt>
      <trkpt lat="43.94738" lon="7.07086">
        <ele>549.1</ele>
        <time>2012-11-24T15:07:27Z</time>
      </trkpt>
      <trkpt lat="43.94733" lon="7.07095">
        <ele>548.9</ele>
        <time>2012-11-24T15:07:29Z</time>
      </trkpt>
      <trkpt lat="43.94731" lon="7.07106">
        <ele>549</ele>
        <time>2012-11-24T15:07:31Z</time>
      </trkpt>
      <trkpt lat="43.94729" lon="7.07116">
        <ele>548.9</ele>
        <time>2012-11-24T15:07:33Z</time>
      </trkpt>
      <trkpt lat="43.94728" lon="7.07126">
        <ele>548.2</ele>
        <time>2012-11-24T15:07:35Z</time>
      </trkpt>
      <trkpt lat="43.94726" lon="7.07136">
        <ele>547.5</ele>
        <time>2012-11-24T15:07:37Z</time>
      </trkpt>
      <trkpt lat="43.94724" lon="7.07145">
        <ele>547.9</ele>
        <time>2012-11-24T15:07:39Z</time>
      </trkpt>
      <trkpt lat="43.9472" lon="7.07153">
        <ele>547.9</ele>
        <time>2012-11-24T15:07:41Z</time>
      </trkpt>
      <trkpt lat="43.94718" lon="7.07156">
        <ele>547.7</ele>
        <time>2012-11-24T15:07:42Z</time>
      </trkpt>
      <trkpt lat="43.94707" lon="7.07162">
        <ele>547.2</ele>
        <time>2012-11-24T15:07:46Z</time>
      </trkpt>
      <trkpt lat="43.947" lon="7.07162">
        <ele>547.1</ele>
        <time>2012-11-24T15:07:48Z</time>
      </trkpt>
      <trkpt lat="43.94694" lon="7.0716">
        <ele>547</ele>
        <time>2012-11-24T15:07:50Z</time>
      </trkpt>
      <trkpt lat="43.94687" lon="7.07158">
        <ele>547</ele>
        <time>2012-11-24T15:07:52Z</time>
      </trkpt>
      <trkpt lat="43.94679" lon="7.07155">
        <ele>546.8</ele>
        <time>2012-11-24T15:07:54Z</time>
      </trkpt>
      <trkpt lat="43.94672" lon="7.07154">
        <ele>546.7</ele>
        <time>2012-11-24T15:07:56Z</time>
      </trkpt>
      <trkpt lat="43.94664" lon="7.07155">
        <ele>546.8</ele>
        <time>2012-11-24T15:07:58Z</time>
      </trkpt>
      <trkpt lat="43.94655" lon="7.07158">
        <ele>546.3</ele>
        <time>2012-11-24T15:08:00Z</time>
      </trkpt>
      <trkpt lat="43.94647" lon="7.07162">
        <ele>546.9</ele>
        <time>2012-11-24T15:08:02Z</time>
      </trkpt>
      <trkpt lat="43.9464" lon="7.07166">
        <ele>546.8</ele>
        <time>2012-11-24T15:08:04Z</time>
      </trkpt>
      <trkpt lat="43.94633" lon="7.07173">
        <ele>546.4</ele>
        <time>2012-11-24T15:08:06Z</time>
      </trkpt>
      <trkpt lat="43.9463" lon="7.07182">
        <ele>546.4</ele>
        <time>2012-11-24T15:08:08Z</time>
      </trkpt>
      <trkpt lat="43.94631" lon="7.07192">
        <ele>546.5</ele>
        <time>2012-11-24T15:08:10Z</time>
      </trkpt>
      <trkpt lat="43.94632" lon="7.07203">
        <ele>546.1</ele>
        <time>2012-11-24T15:08:12Z</time>
      </trkpt>
      <trkpt lat="43.94633" lon="7.07215">
        <ele>546.5</ele>
        <time>2012-11-24T15:08:14Z</time>
      </trkpt>
      <trkpt lat="43.94634" lon="7.07227">
        <ele>546.4</ele>
        <time>2012-11-24T15:08:16Z</time>
      </trkpt>
      <trkpt lat="43.94635" lon="7.07239">
        <ele>546.3</ele>
        <time>2012-11-24T15:08:18Z</time>
      </trkpt>
      <trkpt lat="43.94639" lon="7.07251">
        <ele>546</ele>
        <time>2012-11-24T15:08:20Z</time>
      </trkpt>
      <trkpt lat="43.94642" lon="7.07261">
        <ele>545.4</ele>
        <time>2012-11-24T15:08:22Z</time>
      </trkpt>
      <trkpt lat="43.94641" lon="7.07273">
        <ele>545.4</ele>
        <time>2012-11-24T15:08:24Z</time>
      </trkpt>
      <trkpt lat="43.94638" lon="7.07279">
        <ele>545.2</ele>
        <time>2012-11-24T15:08:25Z</time>
      </trkpt>
      <trkpt lat="43.94634" lon="7.07282">
        <ele>545</ele>
        <time>2012-11-24T15:08:26Z</time>
      </trkpt>
      <trkpt lat="43.9463" lon="7.07284">
        <ele>545.3</ele>
        <time>2012-11-24T15:08:27Z</time>
      </trkpt>
      <trkpt lat="43.94625" lon="7.07283">
        <ele>545.4</ele>
        <time>2012-11-24T15:08:28Z</time>
      </trkpt>
      <trkpt lat="43.94621" lon="7.07281">
        <ele>545.6</ele>
        <time>2012-11-24T15:08:29Z</time>
      </trkpt>
      <trkpt lat="43.94617" lon="7.07277">
        <ele>545.7</ele>
        <time>2012-11-24T15:08:30Z</time>
      </trkpt>
      <trkpt lat="43.94613" lon="7.07272">
        <ele>545.9</ele>
        <time>2012-11-24T15:08:31Z</time>
      </trkpt>
      <trkpt lat="43.94609" lon="7.07268">
        <ele>545.3</ele>
        <time>2012-11-24T15:08:32Z</time>
      </trkpt>
      <trkpt lat="43.94606" lon="7.07263">
        <ele>544.9</ele>
        <time>2012-11-24T15:08:33Z</time>
      </trkpt>
      <trkpt lat="43.94602" lon="7.07258">
        <ele>544.5</ele>
        <time>2012-11-24T15:08:34Z</time>
      </trkpt>
      <trkpt lat="43.94598" lon="7.07254">
        <ele>544.5</ele>
        <time>2012-11-24T15:08:35Z</time>
      </trkpt>
      <trkpt lat="43.94594" lon="7.0725">
        <ele>544.5</ele>
        <time>2012-11-24T15:08:36Z</time>
      </trkpt>
      <trkpt lat="43.9459" lon="7.07246">
        <ele>544.2</ele>
        <time>2012-11-24T15:08:37Z</time>
      </trkpt>
      <trkpt lat="43.94586" lon="7.07243">
        <ele>543.9</ele>
        <time>2012-11-24T15:08:38Z</time>
      </trkpt>
      <trkpt lat="43.94581" lon="7.07241">
        <ele>543.5</ele>
        <time>2012-11-24T15:08:39Z</time>
      </trkpt>
      <trkpt lat="43.94576" lon="7.0724">
        <ele>543.2</ele>
        <time>2012-11-24T15:08:40Z</time>
      </trkpt>
      <trkpt lat="43.94571" lon="7.07241">
        <ele>543</ele>
        <time>2012-11-24T15:08:41Z</time>
      </trkpt>
      <trkpt lat="43.94566" lon="7.07243">
        <ele>543</ele>
        <time>2012-11-24T15:08:42Z</time>
      </trkpt>
      <trkpt lat="43.94561" lon="7.07245">
        <ele>543</ele>
        <time>2012-11-24T15:08:43Z</time>
      </trkpt>
      <trkpt lat="43.94557" lon="7.07247">
        <ele>542.9</ele>
        <time>2012-11-24T15:08:44Z</time>
      </trkpt>
      <trkpt lat="43.94552" lon="7.07249">
        <ele>542.9</ele>
        <time>2012-11-24T15:08:45Z</time>
      </trkpt>
      <trkpt lat="43.94547" lon="7.07252">
        <ele>543.1</ele>
        <time>2012-11-24T15:08:46Z</time>
      </trkpt>
      <trkpt lat="43.94542" lon="7.07254">
        <ele>543.2</ele>
        <time>2012-11-24T15:08:47Z</time>
      </trkpt>
      <trkpt lat="43.94538" lon="7.07256">
        <ele>543.3</ele>
        <time>2012-11-24T15:08:48Z</time>
      </trkpt>
      <trkpt lat="43.94533" lon="7.07259">
        <ele>543.5</ele>
        <time>2012-11-24T15:08:49Z</time>
      </trkpt>
      <trkpt lat="43.94528" lon="7.07262">
        <ele>543.6</ele>
        <time>2012-11-24T15:08:50Z</time>
      </trkpt>
      <trkpt lat="43.94524" lon="7.07265">
        <ele>543.3</ele>
        <time>2012-11-24T15:08:51Z</time>
      </trkpt>
      <trkpt lat="43.9452" lon="7.07269">
        <ele>543.1</ele>
        <time>2012-11-24T15:08:52Z</time>
      </trkpt>
      <trkpt lat="43.94517" lon="7.07274">
        <ele>543.1</ele>
        <time>2012-11-24T15:08:53Z</time>
      </trkpt>
      <trkpt lat="43.94514" lon="7.07279">
        <ele>543.1</ele>
        <time>2012-11-24T15:08:54Z</time>
      </trkpt>
      <trkpt lat="43.94511" lon="7.07284">
        <ele>543.1</ele>
        <time>2012-11-24T15:08:55Z</time>
      </trkpt>
      <trkpt lat="43.94509" lon="7.0729">
        <ele>543</ele>
        <time>2012-11-24T15:08:56Z</time>
      </trkpt>
      <trkpt lat="43.94508" lon="7.07297">
        <ele>542.9</ele>
        <time>2012-11-24T15:08:57Z</time>
      </trkpt>
      <trkpt lat="43.94507" lon="7.07304">
        <ele>542.8</ele>
        <time>2012-11-24T15:08:58Z</time>
      </trkpt>
      <trkpt lat="43.94506" lon="7.0731">
        <ele>542.7</ele>
        <time>2012-11-24T15:08:59Z</time>
      </trkpt>
      <trkpt lat="43.94505" lon="7.07317">
        <ele>542.7</ele>
        <time>2012-11-24T15:09:00Z</time>
      </trkpt>
      <trkpt lat="43.94504" lon="7.07324">
        <ele>542</ele>
        <time>2012-11-24T15:09:01Z</time>
      </trkpt>
      <trkpt lat="43.94503" lon="7.07332">
        <ele>541.6</ele>
        <time>2012-11-24T15:09:02Z</time>
      </trkpt>
      <trkpt lat="43.94502" lon="7.07339">
        <ele>541.2</ele>
        <time>2012-11-24T15:09:03Z</time>
      </trkpt>
      <trkpt lat="43.94501" lon="7.07346">
        <ele>541</ele>
        <time>2012-11-24T15:09:04Z</time>
      </trkpt>
      <trkpt lat="43.94501" lon="7.07354">
        <ele>540.6</ele>
        <time>2012-11-24T15:09:05Z</time>
      </trkpt>
      <trkpt lat="43.94501" lon="7.07361">
        <ele>540.3</ele>
        <time>2012-11-24T15:09:06Z</time>
      </trkpt>
      <trkpt lat="43.94501" lon="7.07369">
        <ele>540.1</ele>
        <time>2012-11-24T15:09:07Z</time>
      </trkpt>
      <trkpt lat="43.94503" lon="7.07376">
        <ele>539.9</ele>
        <time>2012-11-24T15:09:08Z</time>
      </trkpt>
      <trkpt lat="43.94506" lon="7.07382">
        <ele>539.7</ele>
        <time>2012-11-24T15:09:09Z</time>
      </trkpt>
      <trkpt lat="43.94509" lon="7.07388">
        <ele>539.1</ele>
        <time>2012-11-24T15:09:10Z</time>
      </trkpt>
      <trkpt lat="43.94513" lon="7.07394">
        <ele>538.6</ele>
        <time>2012-11-24T15:09:11Z</time>
      </trkpt>
      <trkpt lat="43.94516" lon="7.07401">
        <ele>538.3</ele>
        <time>2012-11-24T15:09:12Z</time>
      </trkpt>
      <trkpt lat="43.94519" lon="7.07407">
        <ele>538.2</ele>
        <time>2012-11-24T15:09:13Z</time>
      </trkpt>
      <trkpt lat="43.94521" lon="7.07414">
        <ele>538</ele>
        <time>2012-11-24T15:09:14Z</time>
      </trkpt>
      <trkpt lat="43.94522" lon="7.07422">
        <ele>537.3</ele>
        <time>2012-11-24T15:09:15Z</time>
      </trkpt>
      <trkpt lat="43.94522" lon="7.07429">
        <ele>536.8</ele>
        <time>2012-11-24T15:09:16Z</time>
      </trkpt>
      <trkpt lat="43.9452" lon="7.07436">
        <ele>536.3</ele>
        <time>2012-11-24T15:09:17Z</time>
      </trkpt>
      <trkpt lat="43.94516" lon="7.0744">
        <ele>535.9</ele>
        <time>2012-11-24T15:09:18Z</time>
      </trkpt>
      <trkpt lat="43.94512" lon="7.07442">
        <ele>535.6</ele>
        <time>2012-11-24T15:09:19Z</time>
      </trkpt>
      <trkpt lat="43.94507" lon="7.07443">
        <ele>535.2</ele>
        <time>2012-11-24T15:09:20Z</time>
      </trkpt>
      <trkpt lat="43.94502" lon="7.07444">
        <ele>534.8</ele>
        <time>2012-11-24T15:09:21Z</time>
      </trkpt>
      <trkpt lat="43.94496" lon="7.07446">
        <ele>534.5</ele>
        <time>2012-11-24T15:09:22Z</time>
      </trkpt>
      <trkpt lat="43.94492" lon="7.07449">
        <ele>534.3</ele>
        <time>2012-11-24T15:09:23Z</time>
      </trkpt>
      <trkpt lat="43.94487" lon="7.07453">
        <ele>533.8</ele>
        <time>2012-11-24T15:09:24Z</time>
      </trkpt>
      <trkpt lat="43.94483" lon="7.07458">
        <ele>533.4</ele>
        <time>2012-11-24T15:09:25Z</time>
      </trkpt>
      <trkpt lat="43.9448" lon="7.07464">
        <ele>533.2</ele>
        <time>2012-11-24T15:09:26Z</time>
      </trkpt>
      <trkpt lat="43.94477" lon="7.0747">
        <ele>533.1</ele>
        <time>2012-11-24T15:09:27Z</time>
      </trkpt>
      <trkpt lat="43.94476" lon="7.07477">
        <ele>533</ele>
        <time>2012-11-24T15:09:28Z</time>
      </trkpt>
      <trkpt lat="43.94477" lon="7.07485">
        <ele>532.6</ele>
        <time>2012-11-24T15:09:29Z</time>
      </trkpt>
      <trkpt lat="43.94479" lon="7.07492">
        <ele>532.3</ele>
        <time>2012-11-24T15:09:30Z</time>
      </trkpt>
      <trkpt lat="43.94481" lon="7.07499">
        <ele>532.2</ele>
        <time>2012-11-24T15:09:31Z</time>
      </trkpt>
      <trkpt lat="43.94482" lon="7.07506">
        <ele>532.1</ele>
        <time>2012-11-24T15:09:32Z</time>
      </trkpt>
      <trkpt lat="43.94483" lon="7.07513">
        <ele>532</ele>
        <time>2012-11-24T15:09:33Z</time>
      </trkpt>
      <trkpt lat="43.94482" lon="7.0752">
        <ele>531.1</ele>
        <time>2012-11-24T15:09:34Z</time>
      </trkpt>
      <trkpt lat="43.94479" lon="7.07527">
        <ele>530.3</ele>
        <time>2012-11-24T15:09:35Z</time>
      </trkpt>
      <trkpt lat="43.94476" lon="7.07533">
        <ele>529.8</ele>
        <time>2012-11-24T15:09:36Z</time>
      </trkpt>
      <trkpt lat="43.94471" lon="7.07537">
        <ele>529.3</ele>
        <time>2012-11-24T15:09:37Z</time>
      </trkpt>
      <trkpt lat="43.94466" lon="7.0754">
        <ele>529</ele>
        <time>2012-11-24T15:09:38Z</time>
      </trkpt>
      <trkpt lat="43.94461" lon="7.07544">
        <ele>528.6</ele>
        <time>2012-11-24T15:09:39Z</time>
      </trkpt>
      <trkpt lat="43.94457" lon="7.07548">
        <ele>528.3</ele>
        <time>2012-11-24T15:09:40Z</time>
      </trkpt>
      <trkpt lat="43.94451" lon="7.07557">
        <ele>527.5</ele>
        <time>2012-11-24T15:09:42Z</time>
      </trkpt>
      <trkpt lat="43.94448" lon="7.07567">
        <ele>526.2</ele>
        <time>2012-11-24T15:09:44Z</time>
      </trkpt>
      <trkpt lat="43.94449" lon="7.07579">
        <ele>525.3</ele>
        <time>2012-11-24T15:09:48Z</time>
      </trkpt>
      <trkpt lat="43.94449" lon="7.07579">
        <ele>525.1</ele>
        <time>2012-11-24T15:09:49Z</time>
      </trkpt>
      <trkpt lat="43.94457" lon="7.0759">
        <ele>524.4</ele>
        <time>2012-11-24T15:10:53Z</time>
      </trkpt>
      <trkpt lat="43.94468" lon="7.07601">
        <ele>524.1</ele>
        <time>2012-11-24T15:10:57Z</time>
      </trkpt>
      <trkpt lat="43.94473" lon="7.0761">
        <ele>523.7</ele>
        <time>2012-11-24T15:10:59Z</time>
      </trkpt>
      <trkpt lat="43.94476" lon="7.07615">
        <ele>523.5</ele>
        <time>2012-11-24T15:11:00Z</time>
      </trkpt>
      <trkpt lat="43.94479" lon="7.0762">
        <ele>523.3</ele>
        <time>2012-11-24T15:11:01Z</time>
      </trkpt>
      <trkpt lat="43.94483" lon="7.07625">
        <ele>523</ele>
        <time>2012-11-24T15:11:02Z</time>
      </trkpt>
      <trkpt lat="43.94486" lon="7.0763">
        <ele>522.8</ele>
        <time>2012-11-24T15:11:03Z</time>
      </trkpt>
      <trkpt lat="43.9449" lon="7.07635">
        <ele>522.5</ele>
        <time>2012-11-24T15:11:04Z</time>
      </trkpt>
      <trkpt lat="43.94493" lon="7.07641">
        <ele>522.3</ele>
        <time>2012-11-24T15:11:05Z</time>
      </trkpt>
      <trkpt lat="43.94496" lon="7.07648">
        <ele>521.8</ele>
        <time>2012-11-24T15:11:06Z</time>
      </trkpt>
      <trkpt lat="43.94498" lon="7.07655">
        <ele>521.5</ele>
        <time>2012-11-24T15:11:07Z</time>
      </trkpt>
      <trkpt lat="43.94499" lon="7.07663">
        <ele>521.2</ele>
        <time>2012-11-24T15:11:08Z</time>
      </trkpt>
      <trkpt lat="43.945" lon="7.07671">
        <ele>520.6</ele>
        <time>2012-11-24T15:11:09Z</time>
      </trkpt>
      <trkpt lat="43.945" lon="7.07679">
        <ele>520.2</ele>
        <time>2012-11-24T15:11:10Z</time>
      </trkpt>
      <trkpt lat="43.945" lon="7.07688">
        <ele>519.8</ele>
        <time>2012-11-24T15:11:11Z</time>
      </trkpt>
      <trkpt lat="43.94499" lon="7.07697">
        <ele>519.4</ele>
        <time>2012-11-24T15:11:12Z</time>
      </trkpt>
      <trkpt lat="43.94497" lon="7.07705">
        <ele>519.2</ele>
        <time>2012-11-24T15:11:13Z</time>
      </trkpt>
      <trkpt lat="43.94493" lon="7.07712">
        <ele>518.6</ele>
        <time>2012-11-24T15:11:14Z</time>
      </trkpt>
      <trkpt lat="43.94489" lon="7.0772">
        <ele>518.2</ele>
        <time>2012-11-24T15:11:15Z</time>
      </trkpt>
      <trkpt lat="43.94484" lon="7.07726">
        <ele>517.7</ele>
        <time>2012-11-24T15:11:16Z</time>
      </trkpt>
      <trkpt lat="43.94478" lon="7.07732">
        <ele>517.3</ele>
        <time>2012-11-24T15:11:17Z</time>
      </trkpt>
      <trkpt lat="43.94473" lon="7.07738">
        <ele>517</ele>
        <time>2012-11-24T15:11:18Z</time>
      </trkpt>
      <trkpt lat="43.94467" lon="7.07744">
        <ele>516.8</ele>
        <time>2012-11-24T15:11:19Z</time>
      </trkpt>
      <trkpt lat="43.94462" lon="7.07751">
        <ele>516.6</ele>
        <time>2012-11-24T15:11:20Z</time>
      </trkpt>
      <trkpt lat="43.94457" lon="7.07757">
        <ele>516.1</ele>
        <time>2012-11-24T15:11:21Z</time>
      </trkpt>
      <trkpt lat="43.94452" lon="7.07765">
        <ele>515.8</ele>
        <time>2012-11-24T15:11:22Z</time>
      </trkpt>
      <trkpt lat="43.94448" lon="7.07773">
        <ele>515.3</ele>
        <time>2012-11-24T15:11:23Z</time>
      </trkpt>
      <trkpt lat="43.94444" lon="7.07782">
        <ele>515</ele>
        <time>2012-11-24T15:11:24Z</time>
      </trkpt>
      <trkpt lat="43.9444" lon="7.0779">
        <ele>514.6</ele>
        <time>2012-11-24T15:11:25Z</time>
      </trkpt>
      <trkpt lat="43.94436" lon="7.07799">
        <ele>514.3</ele>
        <time>2012-11-24T15:11:26Z</time>
      </trkpt>
      <trkpt lat="43.94434" lon="7.07808">
        <ele>514</ele>
        <time>2012-11-24T15:11:27Z</time>
      </trkpt>
      <trkpt lat="43.94433" lon="7.07818">
        <ele>513.6</ele>
        <time>2012-11-24T15:11:28Z</time>
      </trkpt>
      <trkpt lat="43.94433" lon="7.07828">
        <ele>513.3</ele>
        <time>2012-11-24T15:11:29Z</time>
      </trkpt>
      <trkpt lat="43.94433" lon="7.07838">
        <ele>512.6</ele>
        <time>2012-11-24T15:11:30Z</time>
      </trkpt>
      <trkpt lat="43.94434" lon="7.07847">
        <ele>512.1</ele>
        <time>2012-11-24T15:11:31Z</time>
      </trkpt>
      <trkpt lat="43.94436" lon="7.07857">
        <ele>511.3</ele>
        <time>2012-11-24T15:11:32Z</time>
      </trkpt>
      <trkpt lat="43.94437" lon="7.07866">
        <ele>510.7</ele>
        <time>2012-11-24T15:11:33Z</time>
      </trkpt>
      <trkpt lat="43.94439" lon="7.07876">
        <ele>510.2</ele>
        <time>2012-11-24T15:11:34Z</time>
      </trkpt>
      <trkpt lat="43.9444" lon="7.07886">
        <ele>510.1</ele>
        <time>2012-11-24T15:11:35Z</time>
      </trkpt>
      <trkpt lat="43.9444" lon="7.07896">
        <ele>510.1</ele>
        <time>2012-11-24T15:11:36Z</time>
      </trkpt>
      <trkpt lat="43.9444" lon="7.07906">
        <ele>509.5</ele>
        <time>2012-11-24T15:11:37Z</time>
      </trkpt>
      <trkpt lat="43.94441" lon="7.07916">
        <ele>509.1</ele>
        <time>2012-11-24T15:11:38Z</time>
      </trkpt>
      <trkpt lat="43.94441" lon="7.07926">
        <ele>508.8</ele>
        <time>2012-11-24T15:11:39Z</time>
      </trkpt>
      <trkpt lat="43.94441" lon="7.07936">
        <ele>508.8</ele>
        <time>2012-11-24T15:11:40Z</time>
      </trkpt>
      <trkpt lat="43.94442" lon="7.07946">
        <ele>508.8</ele>
        <time>2012-11-24T15:11:41Z</time>
      </trkpt>
      <trkpt lat="43.94444" lon="7.07957">
        <ele>507.9</ele>
        <time>2012-11-24T15:11:42Z</time>
      </trkpt>
      <trkpt lat="43.94445" lon="7.07967">
        <ele>507.2</ele>
        <time>2012-11-24T15:11:43Z</time>
      </trkpt>
      <trkpt lat="43.94446" lon="7.07977">
        <ele>506.5</ele>
        <time>2012-11-24T15:11:44Z</time>
      </trkpt>
      <trkpt lat="43.94448" lon="7.07986">
        <ele>505.9</ele>
        <time>2012-11-24T15:11:45Z</time>
      </trkpt>
      <trkpt lat="43.94449" lon="7.07996">
        <ele>505.5</ele>
        <time>2012-11-24T15:11:46Z</time>
      </trkpt>
      <trkpt lat="43.9445" lon="7.08005">
        <ele>505.2</ele>
        <time>2012-11-24T15:11:47Z</time>
      </trkpt>
      <trkpt lat="43.94451" lon="7.08014">
        <ele>504.9</ele>
        <time>2012-11-24T15:11:48Z</time>
      </trkpt>
      <trkpt lat="43.94453" lon="7.08043">
        <ele>505</ele>
        <time>2012-11-24T15:11:51Z</time>
      </trkpt>
      <trkpt lat="43.94451" lon="7.08072">
        <ele>504</ele>
        <time>2012-11-24T15:11:55Z</time>
      </trkpt>
      <trkpt lat="43.94452" lon="7.08082">
        <ele>505.1</ele>
        <time>2012-11-24T15:11:57Z</time>
      </trkpt>
      <trkpt lat="43.94458" lon="7.08091">
        <ele>505.2</ele>
        <time>2012-11-24T15:11:59Z</time>
      </trkpt>
      <trkpt lat="43.94462" lon="7.08094">
        <ele>505</ele>
        <time>2012-11-24T15:12:00Z</time>
      </trkpt>
      <trkpt lat="43.94466" lon="7.08097">
        <ele>505</ele>
        <time>2012-11-24T15:12:01Z</time>
      </trkpt>
      <trkpt lat="43.94469" lon="7.08101">
        <ele>505</ele>
        <time>2012-11-24T15:12:02Z</time>
      </trkpt>
      <trkpt lat="43.94473" lon="7.08105">
        <ele>504.8</ele>
        <time>2012-11-24T15:12:03Z</time>
      </trkpt>
      <trkpt lat="43.94475" lon="7.08111">
        <ele>504.6</ele>
        <time>2012-11-24T15:12:04Z</time>
      </trkpt>
      <trkpt lat="43.94477" lon="7.08117">
        <ele>504.5</ele>
        <time>2012-11-24T15:12:05Z</time>
      </trkpt>
      <trkpt lat="43.94477" lon="7.08123">
        <ele>504.6</ele>
        <time>2012-11-24T15:12:06Z</time>
      </trkpt>
      <trkpt lat="43.94477" lon="7.0813">
        <ele>504.6</ele>
        <time>2012-11-24T15:12:07Z</time>
      </trkpt>
      <trkpt lat="43.94477" lon="7.08137">
        <ele>504.5</ele>
        <time>2012-11-24T15:12:08Z</time>
      </trkpt>
      <trkpt lat="43.94479" lon="7.08143">
        <ele>504.5</ele>
        <time>2012-11-24T15:12:09Z</time>
      </trkpt>
      <trkpt lat="43.94484" lon="7.08153">
        <ele>504.9</ele>
        <time>2012-11-24T15:12:11Z</time>
      </trkpt>
      <trkpt lat="43.94488" lon="7.08157">
        <ele>505</ele>
        <time>2012-11-24T15:12:12Z</time>
      </trkpt>
      <trkpt lat="43.94491" lon="7.08161">
        <ele>504.6</ele>
        <time>2012-11-24T15:12:13Z</time>
      </trkpt>
      <trkpt lat="43.94495" lon="7.08166">
        <ele>504.3</ele>
        <time>2012-11-24T15:12:14Z</time>
      </trkpt>
      <trkpt lat="43.94498" lon="7.08169">
        <ele>504.4</ele>
        <time>2012-11-24T15:12:15Z</time>
      </trkpt>
      <trkpt lat="43.94502" lon="7.08173">
        <ele>504.5</ele>
        <time>2012-11-24T15:12:16Z</time>
      </trkpt>
      <trkpt lat="43.94506" lon="7.08177">
        <ele>504.6</ele>
        <time>2012-11-24T15:12:17Z</time>
      </trkpt>
      <trkpt lat="43.94513" lon="7.08185">
        <ele>504.5</ele>
        <time>2012-11-24T15:12:19Z</time>
      </trkpt>
      <trkpt lat="43.94515" lon="7.08191">
        <ele>504.4</ele>
        <time>2012-11-24T15:12:20Z</time>
      </trkpt>
      <trkpt lat="43.94516" lon="7.08197">
        <ele>504.4</ele>
        <time>2012-11-24T15:12:21Z</time>
      </trkpt>
      <trkpt lat="43.94515" lon="7.08204">
        <ele>504.4</ele>
        <time>2012-11-24T15:12:22Z</time>
      </trkpt>
      <trkpt lat="43.94512" lon="7.08209">
        <ele>504.4</ele>
        <time>2012-11-24T15:12:23Z</time>
      </trkpt>
      <trkpt lat="43.94508" lon="7.08212">
        <ele>504.4</ele>
        <time>2012-11-24T15:12:24Z</time>
      </trkpt>
      <trkpt lat="43.94504" lon="7.08214">
        <ele>504.5</ele>
        <time>2012-11-24T15:12:25Z</time>
      </trkpt>
      <trkpt lat="43.945" lon="7.08216">
        <ele>504.5</ele>
        <time>2012-11-24T15:12:26Z</time>
      </trkpt>
      <trkpt lat="43.94491" lon="7.08218">
        <ele>504.4</ele>
        <time>2012-11-24T15:12:28Z</time>
      </trkpt>
      <trkpt lat="43.94483" lon="7.0822">
        <ele>504.6</ele>
        <time>2012-11-24T15:12:30Z</time>
      </trkpt>
      <trkpt lat="43.94475" lon="7.08222">
        <ele>504.3</ele>
        <time>2012-11-24T15:12:32Z</time>
      </trkpt>
      <trkpt lat="43.94467" lon="7.08224">
        <ele>504</ele>
        <time>2012-11-24T15:12:34Z</time>
      </trkpt>
      <trkpt lat="43.9446" lon="7.08225">
        <ele>503.8</ele>
        <time>2012-11-24T15:12:36Z</time>
      </trkpt>
      <trkpt lat="43.94453" lon="7.08225">
        <ele>503.2</ele>
        <time>2012-11-24T15:12:38Z</time>
      </trkpt>
      <trkpt lat="43.94445" lon="7.08226">
        <ele>503.5</ele>
        <time>2012-11-24T15:12:41Z</time>
      </trkpt>
      <trkpt lat="43.94436" lon="7.08226">
        <ele>505.9</ele>
        <time>2012-11-24T15:13:02Z</time>
      </trkpt>
      <trkpt lat="43.94435" lon="7.08226">
        <ele>506.2</ele>
        <time>2012-11-24T15:13:03Z</time>
      </trkpt>
      <trkpt lat="43.94419" lon="7.08223">
        <ele>508.7</ele>
        <time>2012-11-24T15:13:19Z</time>
      </trkpt>
      <trkpt lat="43.94412" lon="7.08228">
        <ele>509.4</ele>
        <time>2012-11-24T15:13:23Z</time>
      </trkpt>
      <trkpt lat="43.94407" lon="7.08234">
        <ele>510.1</ele>
        <time>2012-11-24T15:13:26Z</time>
      </trkpt>
      <trkpt lat="43.94401" lon="7.0824">
        <ele>509.7</ele>
        <time>2012-11-24T15:13:29Z</time>
      </trkpt>
      <trkpt lat="43.94395" lon="7.08246">
        <ele>509.7</ele>
        <time>2012-11-24T15:13:32Z</time>
      </trkpt>
      <trkpt lat="43.94389" lon="7.08251">
        <ele>510.6</ele>
        <time>2012-11-24T15:13:35Z</time>
      </trkpt>
      <trkpt lat="43.94383" lon="7.08258">
        <ele>510.5</ele>
        <time>2012-11-24T15:13:38Z</time>
      </trkpt>
      <trkpt lat="43.94377" lon="7.08265">
        <ele>511</ele>
        <time>2012-11-24T15:13:41Z</time>
      </trkpt>
      <trkpt lat="43.94371" lon="7.08271">
        <ele>511.5</ele>
        <time>2012-11-24T15:13:44Z</time>
      </trkpt>
      <trkpt lat="43.94366" lon="7.08277">
        <ele>511.8</ele>
        <time>2012-11-24T15:13:47Z</time>
      </trkpt>
      <trkpt lat="43.9436" lon="7.08282">
        <ele>512</ele>
        <time>2012-11-24T15:13:50Z</time>
      </trkpt>
      <trkpt lat="43.94354" lon="7.08289">
        <ele>512.1</ele>
        <time>2012-11-24T15:13:53Z</time>
      </trkpt>
      <trkpt lat="43.94351" lon="7.08298">
        <ele>512.2</ele>
        <time>2012-11-24T15:13:56Z</time>
      </trkpt>
      <trkpt lat="43.94347" lon="7.08307">
        <ele>512</ele>
        <time>2012-11-24T15:13:59Z</time>
      </trkpt>
      <trkpt lat="43.94343" lon="7.08314">
        <ele>512</ele>
        <time>2012-11-24T15:14:01Z</time>
      </trkpt>
      <trkpt lat="43.94339" lon="7.08321">
        <ele>511.7</ele>
        <time>2012-11-24T15:14:03Z</time>
      </trkpt>
      <trkpt lat="43.94337" lon="7.08331">
        <ele>511.1</ele>
        <time>2012-11-24T15:14:05Z</time>
      </trkpt>
      <trkpt lat="43.94336" lon="7.08337">
        <ele>510.9</ele>
        <time>2012-11-24T15:14:06Z</time>
      </trkpt>
      <trkpt lat="43.94336" lon="7.0835">
        <ele>510.8</ele>
        <time>2012-11-24T15:14:09Z</time>
      </trkpt>
      <trkpt lat="43.94334" lon="7.08359">
        <ele>510.4</ele>
        <time>2012-11-24T15:14:11Z</time>
      </trkpt>
      <trkpt lat="43.94333" lon="7.08367">
        <ele>510.1</ele>
        <time>2012-11-24T15:14:13Z</time>
      </trkpt>
      <trkpt lat="43.94334" lon="7.08376">
        <ele>510</ele>
        <time>2012-11-24T15:14:15Z</time>
      </trkpt>
      <trkpt lat="43.94335" lon="7.08386">
        <ele>510</ele>
        <time>2012-11-24T15:14:17Z</time>
      </trkpt>
      <trkpt lat="43.94333" lon="7.08395">
        <ele>510.2</ele>
        <time>2012-11-24T15:14:19Z</time>
      </trkpt>
      <trkpt lat="43.9433" lon="7.08403">
        <ele>510.1</ele>
        <time>2012-11-24T15:14:21Z</time>
      </trkpt>
      <trkpt lat="43.94326" lon="7.08411">
        <ele>509.5</ele>
        <time>2012-11-24T15:14:23Z</time>
      </trkpt>
      <trkpt lat="43.94324" lon="7.0842">
        <ele>509</ele>
        <time>2012-11-24T15:14:25Z</time>
      </trkpt>
      <trkpt lat="43.94326" lon="7.08429">
        <ele>509</ele>
        <time>2012-11-24T15:14:27Z</time>
      </trkpt>
      <trkpt lat="43.94328" lon="7.08437">
        <ele>509.2</ele>
        <time>2012-11-24T15:14:29Z</time>
      </trkpt>
      <trkpt lat="43.94331" lon="7.08445">
        <ele>509</ele>
        <time>2012-11-24T15:14:31Z</time>
      </trkpt>
      <trkpt lat="43.94334" lon="7.08453">
        <ele>508.9</ele>
        <time>2012-11-24T15:14:33Z</time>
      </trkpt>
      <trkpt lat="43.94338" lon="7.08464">
        <ele>509.2</ele>
        <time>2012-11-24T15:14:36Z</time>
      </trkpt>
      <trkpt lat="43.9434" lon="7.08472">
        <ele>509.4</ele>
        <time>2012-11-24T15:14:38Z</time>
      </trkpt>
      <trkpt lat="43.94342" lon="7.0848">
        <ele>509.7</ele>
        <time>2012-11-24T15:14:40Z</time>
      </trkpt>
      <trkpt lat="43.94343" lon="7.08493">
        <ele>509.2</ele>
        <time>2012-11-24T15:14:47Z</time>
      </trkpt>
      <trkpt lat="43.94336" lon="7.085">
        <ele>509.7</ele>
        <time>2012-11-24T15:14:57Z</time>
      </trkpt>
      <trkpt lat="43.94328" lon="7.08505">
        <ele>510.1</ele>
        <time>2012-11-24T15:15:01Z</time>
      </trkpt>
      <trkpt lat="43.94321" lon="7.08511">
        <ele>510.6</ele>
        <time>2012-11-24T15:15:04Z</time>
      </trkpt>
      <trkpt lat="43.94314" lon="7.08517">
        <ele>510.5</ele>
        <time>2012-11-24T15:15:07Z</time>
      </trkpt>
      <trkpt lat="43.94312" lon="7.08519">
        <ele>510.3</ele>
        <time>2012-11-24T15:15:08Z</time>
      </trkpt>
      <trkpt lat="43.94305" lon="7.08532">
        <ele>511</ele>
        <time>2012-11-24T15:15:13Z</time>
      </trkpt>
      <trkpt lat="43.94302" lon="7.08542">
        <ele>511.5</ele>
        <time>2012-11-24T15:15:16Z</time>
      </trkpt>
      <trkpt lat="43.94301" lon="7.08552">
        <ele>511.6</ele>
        <time>2012-11-24T15:15:19Z</time>
      </trkpt>
      <trkpt lat="43.94303" lon="7.08564">
        <ele>510.9</ele>
        <time>2012-11-24T15:15:22Z</time>
      </trkpt>
      <trkpt lat="43.94306" lon="7.08575">
        <ele>511</ele>
        <time>2012-11-24T15:15:25Z</time>
      </trkpt>
      <trkpt lat="43.94309" lon="7.08587">
        <ele>511.1</ele>
        <time>2012-11-24T15:15:28Z</time>
      </trkpt>
      <trkpt lat="43.9431" lon="7.08598">
        <ele>510.9</ele>
        <time>2012-11-24T15:15:31Z</time>
      </trkpt>
      <trkpt lat="43.94307" lon="7.08606">
        <ele>510.8</ele>
        <time>2012-11-24T15:15:33Z</time>
      </trkpt>
      <trkpt lat="43.94301" lon="7.08616">
        <ele>511</ele>
        <time>2012-11-24T15:15:36Z</time>
      </trkpt>
      <trkpt lat="43.94296" lon="7.08624">
        <ele>511.4</ele>
        <time>2012-11-24T15:15:39Z</time>
      </trkpt>
      <trkpt lat="43.94293" lon="7.08635">
        <ele>511.1</ele>
        <time>2012-11-24T15:15:42Z</time>
      </trkpt>
      <trkpt lat="43.94292" lon="7.08645">
        <ele>510.7</ele>
        <time>2012-11-24T15:15:44Z</time>
      </trkpt>
      <trkpt lat="43.9429" lon="7.08657">
        <ele>510.2</ele>
        <time>2012-11-24T15:15:46Z</time>
      </trkpt>
      <trkpt lat="43.9429" lon="7.08669">
        <ele>509.8</ele>
        <time>2012-11-24T15:15:48Z</time>
      </trkpt>
      <trkpt lat="43.94292" lon="7.0868">
        <ele>509.7</ele>
        <time>2012-11-24T15:15:50Z</time>
      </trkpt>
      <trkpt lat="43.94295" lon="7.0869">
        <ele>509.2</ele>
        <time>2012-11-24T15:15:52Z</time>
      </trkpt>
      <trkpt lat="43.94295" lon="7.08701">
        <ele>508.5</ele>
        <time>2012-11-24T15:15:54Z</time>
      </trkpt>
      <trkpt lat="43.9429" lon="7.08707">
        <ele>507.6</ele>
        <time>2012-11-24T15:15:56Z</time>
      </trkpt>
      <trkpt lat="43.94285" lon="7.08713">
        <ele>507.4</ele>
        <time>2012-11-24T15:15:58Z</time>
      </trkpt>
      <trkpt lat="43.94279" lon="7.08721">
        <ele>507.6</ele>
        <time>2012-11-24T15:16:01Z</time>
      </trkpt>
      <trkpt lat="43.94275" lon="7.08728">
        <ele>507.8</ele>
        <time>2012-11-24T15:16:04Z</time>
      </trkpt>
      <trkpt lat="43.94269" lon="7.08735">
        <ele>508.7</ele>
        <time>2012-11-24T15:16:07Z</time>
      </trkpt>
      <trkpt lat="43.94264" lon="7.08743">
        <ele>508.9</ele>
        <time>2012-11-24T15:16:10Z</time>
      </trkpt>
      <trkpt lat="43.94262" lon="7.08746">
        <ele>508.8</ele>
        <time>2012-11-24T15:16:11Z</time>
      </trkpt>
      <trkpt lat="43.94254" lon="7.08757">
        <ele>509.4</ele>
        <time>2012-11-24T15:16:15Z</time>
      </trkpt>
      <trkpt lat="43.94249" lon="7.08762">
        <ele>509.4</ele>
        <time>2012-11-24T15:16:17Z</time>
      </trkpt>
      <trkpt lat="43.94244" lon="7.08768">
        <ele>509.2</ele>
        <time>2012-11-24T15:16:19Z</time>
      </trkpt>
      <trkpt lat="43.94238" lon="7.08777">
        <ele>509.4</ele>
        <time>2012-11-24T15:16:22Z</time>
      </trkpt>
      <trkpt lat="43.94234" lon="7.08785">
        <ele>509.8</ele>
        <time>2012-11-24T15:16:25Z</time>
      </trkpt>
      <trkpt lat="43.9423" lon="7.08793">
        <ele>510.1</ele>
        <time>2012-11-24T15:16:28Z</time>
      </trkpt>
      <trkpt lat="43.94227" lon="7.08802">
        <ele>510.7</ele>
        <time>2012-11-24T15:16:31Z</time>
      </trkpt>
      <trkpt lat="43.94224" lon="7.08812">
        <ele>511.1</ele>
        <time>2012-11-24T15:16:34Z</time>
      </trkpt>
      <trkpt lat="43.94221" lon="7.08823">
        <ele>510.9</ele>
        <time>2012-11-24T15:16:37Z</time>
      </trkpt>
      <trkpt lat="43.94219" lon="7.08834">
        <ele>510.8</ele>
        <time>2012-11-24T15:16:40Z</time>
      </trkpt>
      <trkpt lat="43.94214" lon="7.08843">
        <ele>511</ele>
        <time>2012-11-24T15:16:43Z</time>
      </trkpt>
      <trkpt lat="43.94209" lon="7.08849">
        <ele>510.9</ele>
        <time>2012-11-24T15:16:45Z</time>
      </trkpt>
      <trkpt lat="43.94205" lon="7.08856">
        <ele>510.9</ele>
        <time>2012-11-24T15:16:47Z</time>
      </trkpt>
      <trkpt lat="43.94202" lon="7.08864">
        <ele>510.2</ele>
        <time>2012-11-24T15:16:49Z</time>
      </trkpt>
      <trkpt lat="43.94198" lon="7.08872">
        <ele>510.2</ele>
        <time>2012-11-24T15:16:51Z</time>
      </trkpt>
      <trkpt lat="43.94195" lon="7.0888">
        <ele>510.5</ele>
        <time>2012-11-24T15:16:53Z</time>
      </trkpt>
      <trkpt lat="43.9419" lon="7.08889">
        <ele>510.8</ele>
        <time>2012-11-24T15:16:56Z</time>
      </trkpt>
      <trkpt lat="43.94186" lon="7.08896">
        <ele>510.6</ele>
        <time>2012-11-24T15:16:58Z</time>
      </trkpt>
      <trkpt lat="43.94183" lon="7.08905">
        <ele>510.4</ele>
        <time>2012-11-24T15:17:00Z</time>
      </trkpt>
      <trkpt lat="43.94179" lon="7.08914">
        <ele>510.5</ele>
        <time>2012-11-24T15:17:02Z</time>
      </trkpt>
      <trkpt lat="43.94176" lon="7.08922">
        <ele>510.7</ele>
        <time>2012-11-24T15:17:04Z</time>
      </trkpt>
      <trkpt lat="43.94174" lon="7.08931">
        <ele>510.4</ele>
        <time>2012-11-24T15:17:06Z</time>
      </trkpt>
      <trkpt lat="43.94173" lon="7.0894">
        <ele>510.9</ele>
        <time>2012-11-24T15:17:08Z</time>
      </trkpt>
      <trkpt lat="43.94172" lon="7.0895">
        <ele>510.9</ele>
        <time>2012-11-24T15:17:10Z</time>
      </trkpt>
      <trkpt lat="43.94171" lon="7.08959">
        <ele>510.8</ele>
        <time>2012-11-24T15:17:12Z</time>
      </trkpt>
      <trkpt lat="43.9417" lon="7.08964">
        <ele>510.7</ele>
        <time>2012-11-24T15:17:13Z</time>
      </trkpt>
      <trkpt lat="43.94165" lon="7.08976">
        <ele>510.2</ele>
        <time>2012-11-24T15:17:16Z</time>
      </trkpt>
      <trkpt lat="43.94161" lon="7.08983">
        <ele>510.8</ele>
        <time>2012-11-24T15:17:18Z</time>
      </trkpt>
      <trkpt lat="43.94157" lon="7.08991">
        <ele>510.2</ele>
        <time>2012-11-24T15:17:20Z</time>
      </trkpt>
      <trkpt lat="43.94154" lon="7.08999">
        <ele>510.4</ele>
        <time>2012-11-24T15:17:22Z</time>
      </trkpt>
      <trkpt lat="43.94151" lon="7.09008">
        <ele>510.5</ele>
        <time>2012-11-24T15:17:24Z</time>
      </trkpt>
      <trkpt lat="43.94149" lon="7.09018">
        <ele>510.5</ele>
        <time>2012-11-24T15:17:26Z</time>
      </trkpt>
      <trkpt lat="43.94145" lon="7.09029">
        <ele>510</ele>
        <time>2012-11-24T15:17:28Z</time>
      </trkpt>
      <trkpt lat="43.94142" lon="7.0904">
        <ele>509.2</ele>
        <time>2012-11-24T15:17:30Z</time>
      </trkpt>
      <trkpt lat="43.94139" lon="7.09051">
        <ele>509.5</ele>
        <time>2012-11-24T15:17:32Z</time>
      </trkpt>
      <trkpt lat="43.94137" lon="7.09063">
        <ele>508.5</ele>
        <time>2012-11-24T15:17:34Z</time>
      </trkpt>
      <trkpt lat="43.94135" lon="7.09073">
        <ele>507.9</ele>
        <time>2012-11-24T15:17:36Z</time>
      </trkpt>
      <trkpt lat="43.94134" lon="7.09082">
        <ele>507.6</ele>
        <time>2012-11-24T15:17:38Z</time>
      </trkpt>
      <trkpt lat="43.94131" lon="7.09092">
        <ele>507.7</ele>
        <time>2012-11-24T15:17:40Z</time>
      </trkpt>
      <trkpt lat="43.94131" lon="7.09104">
        <ele>507.7</ele>
        <time>2012-11-24T15:17:42Z</time>
      </trkpt>
      <trkpt lat="43.94132" lon="7.09114">
        <ele>507.7</ele>
        <time>2012-11-24T15:17:44Z</time>
      </trkpt>
      <trkpt lat="43.94131" lon="7.09124">
        <ele>507.9</ele>
        <time>2012-11-24T15:17:46Z</time>
      </trkpt>
      <trkpt lat="43.94125" lon="7.09127">
        <ele>507.3</ele>
        <time>2012-11-24T15:17:48Z</time>
      </trkpt>
      <trkpt lat="43.94119" lon="7.09131">
        <ele>507.5</ele>
        <time>2012-11-24T15:17:50Z</time>
      </trkpt>
      <trkpt lat="43.94114" lon="7.09135">
        <ele>508.1</ele>
        <time>2012-11-24T15:17:52Z</time>
      </trkpt>
      <trkpt lat="43.94109" lon="7.09141">
        <ele>508.4</ele>
        <time>2012-11-24T15:17:54Z</time>
      </trkpt>
      <trkpt lat="43.94104" lon="7.09147">
        <ele>508.5</ele>
        <time>2012-11-24T15:17:56Z</time>
      </trkpt>
      <trkpt lat="43.94101" lon="7.09154">
        <ele>509.2</ele>
        <time>2012-11-24T15:17:58Z</time>
      </trkpt>
      <trkpt lat="43.94098" lon="7.09162">
        <ele>509.4</ele>
        <time>2012-11-24T15:18:00Z</time>
      </trkpt>
      <trkpt lat="43.94096" lon="7.09174">
        <ele>509.3</ele>
        <time>2012-11-24T15:18:03Z</time>
      </trkpt>
      <trkpt lat="43.94092" lon="7.09183">
        <ele>509.6</ele>
        <time>2012-11-24T15:18:06Z</time>
      </trkpt>
      <trkpt lat="43.94084" lon="7.09189">
        <ele>509.2</ele>
        <time>2012-11-24T15:18:09Z</time>
      </trkpt>
      <trkpt lat="43.94077" lon="7.09194">
        <ele>508.5</ele>
        <time>2012-11-24T15:18:11Z</time>
      </trkpt>
      <trkpt lat="43.94073" lon="7.09196">
        <ele>508.2</ele>
        <time>2012-11-24T15:18:12Z</time>
      </trkpt>
      <trkpt lat="43.94068" lon="7.09199">
        <ele>507.9</ele>
        <time>2012-11-24T15:18:13Z</time>
      </trkpt>
      <trkpt lat="43.94064" lon="7.09202">
        <ele>507.3</ele>
        <time>2012-11-24T15:18:14Z</time>
      </trkpt>
      <trkpt lat="43.9406" lon="7.09206">
        <ele>506.9</ele>
        <time>2012-11-24T15:18:15Z</time>
      </trkpt>
      <trkpt lat="43.94056" lon="7.0921">
        <ele>506.6</ele>
        <time>2012-11-24T15:18:16Z</time>
      </trkpt>
      <trkpt lat="43.94053" lon="7.09215">
        <ele>506.3</ele>
        <time>2012-11-24T15:18:17Z</time>
      </trkpt>
      <trkpt lat="43.9405" lon="7.0922">
        <ele>505.8</ele>
        <time>2012-11-24T15:18:18Z</time>
      </trkpt>
      <trkpt lat="43.94047" lon="7.09226">
        <ele>505.5</ele>
        <time>2012-11-24T15:18:19Z</time>
      </trkpt>
      <trkpt lat="43.94044" lon="7.09231">
        <ele>505.2</ele>
        <time>2012-11-24T15:18:20Z</time>
      </trkpt>
      <trkpt lat="43.94041" lon="7.09236">
        <ele>504.6</ele>
        <time>2012-11-24T15:18:21Z</time>
      </trkpt>
      <trkpt lat="43.94038" lon="7.09241">
        <ele>504.2</ele>
        <time>2012-11-24T15:18:22Z</time>
      </trkpt>
      <trkpt lat="43.94034" lon="7.09245">
        <ele>503.8</ele>
        <time>2012-11-24T15:18:23Z</time>
      </trkpt>
      <trkpt lat="43.94027" lon="7.09252">
        <ele>503</ele>
        <time>2012-11-24T15:18:25Z</time>
      </trkpt>
      <trkpt lat="43.9402" lon="7.09259">
        <ele>502.3</ele>
        <time>2012-11-24T15:18:27Z</time>
      </trkpt>
      <trkpt lat="43.94015" lon="7.09267">
        <ele>501.6</ele>
        <time>2012-11-24T15:18:29Z</time>
      </trkpt>
      <trkpt lat="43.9401" lon="7.09275">
        <ele>501.3</ele>
        <time>2012-11-24T15:18:31Z</time>
      </trkpt>
      <trkpt lat="43.94005" lon="7.09284">
        <ele>501</ele>
        <time>2012-11-24T15:18:33Z</time>
      </trkpt>
      <trkpt lat="43.94" lon="7.09293">
        <ele>500.7</ele>
        <time>2012-11-24T15:18:35Z</time>
      </trkpt>
      <trkpt lat="43.93995" lon="7.09302">
        <ele>500.5</ele>
        <time>2012-11-24T15:18:37Z</time>
      </trkpt>
      <trkpt lat="43.9399" lon="7.0931">
        <ele>500.3</ele>
        <time>2012-11-24T15:18:39Z</time>
      </trkpt>
      <trkpt lat="43.93985" lon="7.09319">
        <ele>499.9</ele>
        <time>2012-11-24T15:18:41Z</time>
      </trkpt>
      <trkpt lat="43.9398" lon="7.09328">
        <ele>500</ele>
        <time>2012-11-24T15:18:43Z</time>
      </trkpt>
      <trkpt lat="43.93976" lon="7.09337">
        <ele>498.9</ele>
        <time>2012-11-24T15:18:45Z</time>
      </trkpt>
      <trkpt lat="43.93972" lon="7.09345">
        <ele>498.4</ele>
        <time>2012-11-24T15:18:47Z</time>
      </trkpt>
      <trkpt lat="43.93969" lon="7.09354">
        <ele>498.1</ele>
        <time>2012-11-24T15:18:49Z</time>
      </trkpt>
      <trkpt lat="43.93965" lon="7.09362">
        <ele>497.9</ele>
        <time>2012-11-24T15:18:51Z</time>
      </trkpt>
      <trkpt lat="43.93962" lon="7.0937">
        <ele>497.6</ele>
        <time>2012-11-24T15:18:53Z</time>
      </trkpt>
      <trkpt lat="43.93958" lon="7.09379">
        <ele>497.6</ele>
        <time>2012-11-24T15:18:55Z</time>
      </trkpt>
      <trkpt lat="43.93956" lon="7.09387">
        <ele>497.5</ele>
        <time>2012-11-24T15:18:57Z</time>
      </trkpt>
      <trkpt lat="43.93952" lon="7.09394">
        <ele>497.3</ele>
        <time>2012-11-24T15:18:59Z</time>
      </trkpt>
      <trkpt lat="43.93949" lon="7.09403">
        <ele>496.9</ele>
        <time>2012-11-24T15:19:01Z</time>
      </trkpt>
      <trkpt lat="43.93946" lon="7.0941">
        <ele>496.7</ele>
        <time>2012-11-24T15:19:03Z</time>
      </trkpt>
      <trkpt lat="43.93942" lon="7.09419">
        <ele>496.8</ele>
        <time>2012-11-24T15:19:05Z</time>
      </trkpt>
      <trkpt lat="43.9394" lon="7.09427">
        <ele>496.3</ele>
        <time>2012-11-24T15:19:07Z</time>
      </trkpt>
      <trkpt lat="43.93937" lon="7.09436">
        <ele>496.1</ele>
        <time>2012-11-24T15:19:09Z</time>
      </trkpt>
      <trkpt lat="43.93934" lon="7.09443">
        <ele>495.6</ele>
        <time>2012-11-24T15:19:11Z</time>
      </trkpt>
      <trkpt lat="43.93931" lon="7.09451">
        <ele>495.4</ele>
        <time>2012-11-24T15:19:13Z</time>
      </trkpt>
      <trkpt lat="43.93927" lon="7.09461">
        <ele>494.3</ele>
        <time>2012-11-24T15:19:16Z</time>
      </trkpt>
      <trkpt lat="43.93926" lon="7.09465">
        <ele>493.9</ele>
        <time>2012-11-24T15:19:17Z</time>
      </trkpt>
      <trkpt lat="43.93921" lon="7.09479">
        <ele>492.5</ele>
        <time>2012-11-24T15:19:21Z</time>
      </trkpt>
      <trkpt lat="43.93918" lon="7.09487">
        <ele>491.5</ele>
        <time>2012-11-24T15:19:23Z</time>
      </trkpt>
      <trkpt lat="43.93916" lon="7.09496">
        <ele>491</ele>
        <time>2012-11-24T15:19:25Z</time>
      </trkpt>
      <trkpt lat="43.93914" lon="7.09504">
        <ele>490.6</ele>
        <time>2012-11-24T15:19:27Z</time>
      </trkpt>
      <trkpt lat="43.93911" lon="7.09515">
        <ele>490</ele>
        <time>2012-11-24T15:19:29Z</time>
      </trkpt>
      <trkpt lat="43.93909" lon="7.09521">
        <ele>489.5</ele>
        <time>2012-11-24T15:19:30Z</time>
      </trkpt>
      <trkpt lat="43.93907" lon="7.09527">
        <ele>489.2</ele>
        <time>2012-11-24T15:19:31Z</time>
      </trkpt>
      <trkpt lat="43.93905" lon="7.09533">
        <ele>488.2</ele>
        <time>2012-11-24T15:19:32Z</time>
      </trkpt>
      <trkpt lat="43.93903" lon="7.09539">
        <ele>487.5</ele>
        <time>2012-11-24T15:19:33Z</time>
      </trkpt>
      <trkpt lat="43.93901" lon="7.09545">
        <ele>486.3</ele>
        <time>2012-11-24T15:19:34Z</time>
      </trkpt>
      <trkpt lat="43.93899" lon="7.09551">
        <ele>485.4</ele>
        <time>2012-11-24T15:19:35Z</time>
      </trkpt>
      <trkpt lat="43.93897" lon="7.09557">
        <ele>484.7</ele>
        <time>2012-11-24T15:19:36Z</time>
      </trkpt>
      <trkpt lat="43.93895" lon="7.09564">
        <ele>483.3</ele>
        <time>2012-11-24T15:19:37Z</time>
      </trkpt>
      <trkpt lat="43.93894" lon="7.09571">
        <ele>482.2</ele>
        <time>2012-11-24T15:19:38Z</time>
      </trkpt>
      <trkpt lat="43.93893" lon="7.09578">
        <ele>480.5</ele>
        <time>2012-11-24T15:19:39Z</time>
      </trkpt>
      <trkpt lat="43.93892" lon="7.09585">
        <ele>479.2</ele>
        <time>2012-11-24T15:19:40Z</time>
      </trkpt>
      <trkpt lat="43.93891" lon="7.09592">
        <ele>477.2</ele>
        <time>2012-11-24T15:19:41Z</time>
      </trkpt>
      <trkpt lat="43.9389" lon="7.09601">
        <ele>475.7</ele>
        <time>2012-11-24T15:19:42Z</time>
      </trkpt>
      <trkpt lat="43.93889" lon="7.09609">
        <ele>474.6</ele>
        <time>2012-11-24T15:19:43Z</time>
      </trkpt>
      <trkpt lat="43.93889" lon="7.09616">
        <ele>473</ele>
        <time>2012-11-24T15:19:44Z</time>
      </trkpt>
      <trkpt lat="43.93889" lon="7.09623">
        <ele>471.8</ele>
        <time>2012-11-24T15:19:45Z</time>
      </trkpt>
      <trkpt lat="43.93889" lon="7.09635">
        <ele>469.4</ele>
        <time>2012-11-24T15:19:47Z</time>
      </trkpt>
      <trkpt lat="43.9389" lon="7.09645">
        <ele>466.5</ele>
        <time>2012-11-24T15:19:49Z</time>
      </trkpt>
      <trkpt lat="43.93892" lon="7.09657">
        <ele>464.2</ele>
        <time>2012-11-24T15:19:52Z</time>
      </trkpt>
      <trkpt lat="43.93891" lon="7.09668">
        <ele>461.4</ele>
        <time>2012-11-24T15:19:55Z</time>
      </trkpt>
      <trkpt lat="43.9389" lon="7.09678">
        <ele>459</ele>
        <time>2012-11-24T15:20:14Z</time>
      </trkpt>
      <trkpt lat="43.93887" lon="7.09686">
        <ele>458.2</ele>
        <time>2012-11-24T15:20:16Z</time>
      </trkpt>
      <trkpt lat="43.93884" lon="7.09695">
        <ele>457.1</ele>
        <time>2012-11-24T15:20:18Z</time>
      </trkpt>
      <trkpt lat="43.93882" lon="7.09699">
        <ele>456.1</ele>
        <time>2012-11-24T15:20:19Z</time>
      </trkpt>
      <trkpt lat="43.93875" lon="7.09711">
        <ele>454</ele>
        <time>2012-11-24T15:20:23Z</time>
      </trkpt>
      <trkpt lat="43.93868" lon="7.09719">
        <ele>452.7</ele>
        <time>2012-11-24T15:20:26Z</time>
      </trkpt>
      <trkpt lat="43.93862" lon="7.09722">
        <ele>452.2</ele>
        <time>2012-11-24T15:20:28Z</time>
      </trkpt>
      <trkpt lat="43.93855" lon="7.09724">
        <ele>451.9</ele>
        <time>2012-11-24T15:20:30Z</time>
      </trkpt>
      <trkpt lat="43.93849" lon="7.09726">
        <ele>451.2</ele>
        <time>2012-11-24T15:20:32Z</time>
      </trkpt>
      <trkpt lat="43.93842" lon="7.0973">
        <ele>450.3</ele>
        <time>2012-11-24T15:20:35Z</time>
      </trkpt>
      <trkpt lat="43.93838" lon="7.09737">
        <ele>449.2</ele>
        <time>2012-11-24T15:20:37Z</time>
      </trkpt>
      <trkpt lat="43.93833" lon="7.09745">
        <ele>448.6</ele>
        <time>2012-11-24T15:20:39Z</time>
      </trkpt>
      <trkpt lat="43.93828" lon="7.09751">
        <ele>448</ele>
        <time>2012-11-24T15:20:41Z</time>
      </trkpt>
      <trkpt lat="43.93821" lon="7.09753">
        <ele>446.6</ele>
        <time>2012-11-24T15:20:43Z</time>
      </trkpt>
      <trkpt lat="43.93814" lon="7.09756">
        <ele>445.1</ele>
        <time>2012-11-24T15:20:45Z</time>
      </trkpt>
      <trkpt lat="43.93807" lon="7.09761">
        <ele>444</ele>
        <time>2012-11-24T15:20:47Z</time>
      </trkpt>
      <trkpt lat="43.93799" lon="7.09766">
        <ele>442.2</ele>
        <time>2012-11-24T15:20:49Z</time>
      </trkpt>
      <trkpt lat="43.93792" lon="7.09768">
        <ele>440.6</ele>
        <time>2012-11-24T15:20:51Z</time>
      </trkpt>
      <trkpt lat="43.93786" lon="7.09766">
        <ele>439.1</ele>
        <time>2012-11-24T15:20:53Z</time>
      </trkpt>
      <trkpt lat="43.93778" lon="7.09766">
        <ele>437.4</ele>
        <time>2012-11-24T15:20:55Z</time>
      </trkpt>
      <trkpt lat="43.93772" lon="7.09766">
        <ele>435.9</ele>
        <time>2012-11-24T15:20:57Z</time>
      </trkpt>
      <trkpt lat="43.93764" lon="7.09765">
        <ele>434.1</ele>
        <time>2012-11-24T15:21:00Z</time>
      </trkpt>
      <trkpt lat="43.93756" lon="7.09762">
        <ele>430.9</ele>
        <time>2012-11-24T15:21:07Z</time>
      </trkpt>
      <trkpt lat="43.93747" lon="7.0976">
        <ele>425.5</ele>
        <time>2012-11-24T15:21:28Z</time>
      </trkpt>
      <trkpt lat="43.93746" lon="7.09758">
        <ele>425.1</ele>
        <time>2012-11-24T15:21:29Z</time>
      </trkpt>
      <trkpt lat="43.93735" lon="7.09747">
        <ele>419.6</ele>
        <time>2012-11-24T15:21:51Z</time>
      </trkpt>
      <trkpt lat="43.93736" lon="7.09737">
        <ele>419.8</ele>
        <time>2012-11-24T15:21:55Z</time>
      </trkpt>
      <trkpt lat="43.93738" lon="7.09728">
        <ele>419.8</ele>
        <time>2012-11-24T15:21:58Z</time>
      </trkpt>
      <trkpt lat="43.93741" lon="7.09718">
        <ele>420.2</ele>
        <time>2012-11-24T15:22:01Z</time>
      </trkpt>
      <trkpt lat="43.93745" lon="7.09707">
        <ele>420.3</ele>
        <time>2012-11-24T15:22:04Z</time>
      </trkpt>
      <trkpt lat="43.93749" lon="7.09698">
        <ele>419.7</ele>
        <time>2012-11-24T15:22:07Z</time>
      </trkpt>
      <trkpt lat="43.93751" lon="7.09688">
        <ele>418.9</ele>
        <time>2012-11-24T15:22:10Z</time>
      </trkpt>
      <trkpt lat="43.93743" lon="7.09683">
        <ele>417.4</ele>
        <time>2012-11-24T15:22:20Z</time>
      </trkpt>
      <trkpt lat="43.93735" lon="7.09678">
        <ele>415.4</ele>
        <time>2012-11-24T15:22:24Z</time>
      </trkpt>
      <trkpt lat="43.93728" lon="7.09676">
        <ele>413.8</ele>
        <time>2012-11-24T15:22:29Z</time>
      </trkpt>
      <trkpt lat="43.93721" lon="7.09682">
        <ele>413.2</ele>
        <time>2012-11-24T15:22:33Z</time>
      </trkpt>
      <trkpt lat="43.93719" lon="7.09684">
        <ele>413.1</ele>
        <time>2012-11-24T15:22:34Z</time>
      </trkpt>
      <trkpt lat="43.9371" lon="7.09696">
        <ele>413</ele>
        <time>2012-11-24T15:22:39Z</time>
      </trkpt>
      <trkpt lat="43.93704" lon="7.09704">
        <ele>412.6</ele>
        <time>2012-11-24T15:22:42Z</time>
      </trkpt>
      <trkpt lat="43.93698" lon="7.09712">
        <ele>411.7</ele>
        <time>2012-11-24T15:22:49Z</time>
      </trkpt>
      <trkpt lat="43.9369" lon="7.0971">
        <ele>410.3</ele>
        <time>2012-11-24T15:23:00Z</time>
      </trkpt>
      <trkpt lat="43.93683" lon="7.09711">
        <ele>410.9</ele>
        <time>2012-11-24T15:23:03Z</time>
      </trkpt>
      <trkpt lat="43.93676" lon="7.09718">
        <ele>411.3</ele>
        <time>2012-11-24T15:23:06Z</time>
      </trkpt>
      <trkpt lat="43.93668" lon="7.09722">
        <ele>410.9</ele>
        <time>2012-11-24T15:23:13Z</time>
      </trkpt>
      <trkpt lat="43.93666" lon="7.0972">
        <ele>410.6</ele>
        <time>2012-11-24T15:23:20Z</time>
      </trkpt>
    </trkseg>
  </trk>
</gpx>